<?xml version="1.0" encoding="UTF-8" standalone="no" ?>
<gpx xmlns="http://www.topografix.com/GPX/1/1" xmlns:xsi="http://www.w3.org/2001/XMLSchema-instance" xsi:schemaLocation="http://www.topografix.com/GPX/1/1 http://www.topografix.com/GPX/1/1/gpx.xsd" version="1.1" creator="VisuGPX - https://www.visugpx.com">
  <metadata>
    <name>Launaguet A-R Rabastens</name>
  </metadata>
  <trk>
    <name><![CDATA[Launaguet trajet aller-retour]]></name>
    <extensions>
      <line xmlns="http://www.topografix.com/GPX/gpx_style/0/2">
        <color>ff0000</color>
        <opacity>1</opacity>
        <width>7</width>
          <extensions>
            <sens>1</sens>
          </extensions>
      </line>
    </extensions>
    <trkseg>
      <trkpt lat="43.65574" lon="1.44586">
        <ele>135.6</ele>
        <time>2023-08-24T06:14:28.144Z</time>
      </trkpt>
      <trkpt lat="43.65569" lon="1.44599">
        <ele>136.02</ele>
        <time>2023-08-24T06:14:46.792Z</time>
      </trkpt>
      <trkpt lat="43.65567" lon="1.44602">
        <ele>136.09</ele>
        <time>2023-08-24T06:14:55.734Z</time>
      </trkpt>
      <trkpt lat="43.6557" lon="1.4461">
        <ele>135.95999</ele>
        <time>2023-08-24T06:14:59.253Z</time>
      </trkpt>
      <trkpt lat="43.65571" lon="1.44611">
        <ele>136.02</ele>
        <time>2023-08-24T06:15:00.251Z</time>
      </trkpt>
      <trkpt lat="43.65572" lon="1.44611">
        <ele>136.01</ele>
        <time>2023-08-24T06:15:01.253Z</time>
      </trkpt>
      <trkpt lat="43.65574" lon="1.44612">
        <ele>136</ele>
        <time>2023-08-24T06:15:02.251Z</time>
      </trkpt>
      <trkpt lat="43.65577" lon="1.4461">
        <ele>136.04001</ele>
        <time>2023-08-24T06:15:04.251Z</time>
      </trkpt>
      <trkpt lat="43.65579" lon="1.44609">
        <ele>136.01</ele>
        <time>2023-08-24T06:15:05.251Z</time>
      </trkpt>
      <trkpt lat="43.6558" lon="1.44608">
        <ele>135.98</ele>
        <time>2023-08-24T06:15:06.250Z</time>
      </trkpt>
      <trkpt lat="43.65582" lon="1.44607">
        <ele>136.01</ele>
        <time>2023-08-24T06:15:07.252Z</time>
      </trkpt>
      <trkpt lat="43.65583" lon="1.44607">
        <ele>135.99</ele>
        <time>2023-08-24T06:15:08.252Z</time>
      </trkpt>
      <trkpt lat="43.65585" lon="1.44607">
        <ele>135.98</ele>
        <time>2023-08-24T06:15:09.250Z</time>
      </trkpt>
      <trkpt lat="43.65586" lon="1.4461">
        <ele>135.98</ele>
        <time>2023-08-24T06:15:10.250Z</time>
      </trkpt>
      <trkpt lat="43.6559" lon="1.44614">
        <ele>135.99</ele>
        <time>2023-08-24T06:15:12.252Z</time>
      </trkpt>
      <trkpt lat="43.65592" lon="1.44617">
        <ele>135.97</ele>
        <time>2023-08-24T06:15:54.208Z</time>
      </trkpt>
      <trkpt lat="43.65594" lon="1.44617">
        <ele>135.88</ele>
        <time>2023-08-24T06:16:44.361Z</time>
      </trkpt>
      <trkpt lat="43.65595" lon="1.44618">
        <ele>135.88</ele>
        <time>2023-08-24T06:16:47.906Z</time>
      </trkpt>
      <trkpt lat="43.65602" lon="1.44622">
        <ele>136.69</ele>
        <time>2023-08-24T06:16:50.390Z</time>
      </trkpt>
      <trkpt lat="43.65606" lon="1.44622">
        <ele>136.47</ele>
        <time>2023-08-24T06:16:52.361Z</time>
      </trkpt>
      <trkpt lat="43.6561" lon="1.4462">
        <ele>136.29001</ele>
        <time>2023-08-24T06:16:54.361Z</time>
      </trkpt>
      <trkpt lat="43.65611" lon="1.44617">
        <ele>136.1</ele>
        <time>2023-08-24T06:16:55.362Z</time>
      </trkpt>
      <trkpt lat="43.65611" lon="1.44614">
        <ele>136</ele>
        <time>2023-08-24T06:16:56.361Z</time>
      </trkpt>
      <trkpt lat="43.65607" lon="1.4461">
        <ele>135.94</ele>
        <time>2023-08-24T06:16:58.362Z</time>
      </trkpt>
      <trkpt lat="43.65606" lon="1.4461">
        <ele>135.84</ele>
        <time>2023-08-24T06:16:59.361Z</time>
      </trkpt>
      <trkpt lat="43.65605" lon="1.44611">
        <ele>135.82</ele>
        <time>2023-08-24T06:17:00.362Z</time>
      </trkpt>
      <trkpt lat="43.65603" lon="1.44612">
        <ele>135.81</ele>
        <time>2023-08-24T06:17:01.361Z</time>
      </trkpt>
      <trkpt lat="43.65602" lon="1.44617">
        <ele>135.77</ele>
        <time>2023-08-24T06:17:03.361Z</time>
      </trkpt>
      <trkpt lat="43.65603" lon="1.44619">
        <ele>135.73</ele>
        <time>2023-08-24T06:17:04.360Z</time>
      </trkpt>
      <trkpt lat="43.65604" lon="1.4462">
        <ele>135.69</ele>
        <time>2023-08-24T06:17:05.362Z</time>
      </trkpt>
      <trkpt lat="43.65606" lon="1.44624">
        <ele>135.65</ele>
        <time>2023-08-24T06:17:07.359Z</time>
      </trkpt>
      <trkpt lat="43.65607" lon="1.44625">
        <ele>135.68</ele>
        <time>2023-08-24T06:17:08.360Z</time>
      </trkpt>
      <trkpt lat="43.65609" lon="1.44625">
        <ele>135.64</ele>
        <time>2023-08-24T06:17:09.360Z</time>
      </trkpt>
      <trkpt lat="43.6561" lon="1.44624">
        <ele>135.64</ele>
        <time>2023-08-24T06:17:10.360Z</time>
      </trkpt>
      <trkpt lat="43.65612" lon="1.44624">
        <ele>135.63</ele>
        <time>2023-08-24T06:17:10.463Z</time>
      </trkpt>
      <trkpt lat="43.65614" lon="1.44622">
        <ele>135.63</ele>
        <time>2023-08-24T06:17:12.359Z</time>
      </trkpt>
      <trkpt lat="43.65615" lon="1.44621">
        <ele>135.61</ele>
        <time>2023-08-24T06:17:13.359Z</time>
      </trkpt>
      <trkpt lat="43.65615" lon="1.44619">
        <ele>135.6</ele>
        <time>2023-08-24T06:17:14.360Z</time>
      </trkpt>
      <trkpt lat="43.65614" lon="1.44619">
        <ele>135.62</ele>
        <time>2023-08-24T06:17:15.360Z</time>
      </trkpt>
      <trkpt lat="43.65614" lon="1.4462">
        <ele>135.6</ele>
        <time>2023-08-24T06:17:16.359Z</time>
      </trkpt>
      <trkpt lat="43.65613" lon="1.44622">
        <ele>135.56</ele>
        <time>2023-08-24T06:17:17.219Z</time>
      </trkpt>
      <trkpt lat="43.65613" lon="1.44625">
        <ele>135.54001</ele>
        <time>2023-08-24T06:17:18.360Z</time>
      </trkpt>
      <trkpt lat="43.65613" lon="1.44629">
        <ele>135.55</ele>
        <time>2023-08-24T06:17:19.361Z</time>
      </trkpt>
      <trkpt lat="43.65613" lon="1.44632">
        <ele>135.52</ele>
        <time>2023-08-24T06:17:20.361Z</time>
      </trkpt>
      <trkpt lat="43.65612" lon="1.44635">
        <ele>135.47</ele>
        <time>2023-08-24T06:17:21.362Z</time>
      </trkpt>
      <trkpt lat="43.65612" lon="1.4464">
        <ele>135.47</ele>
        <time>2023-08-24T06:17:22.360Z</time>
      </trkpt>
      <trkpt lat="43.65611" lon="1.44646">
        <ele>135.38</ele>
        <time>2023-08-24T06:17:23.361Z</time>
      </trkpt>
      <trkpt lat="43.65611" lon="1.44652">
        <ele>135.34</ele>
        <time>2023-08-24T06:17:24.361Z</time>
      </trkpt>
      <trkpt lat="43.65611" lon="1.44657">
        <ele>135.32</ele>
        <time>2023-08-24T06:17:25.361Z</time>
      </trkpt>
      <trkpt lat="43.65609" lon="1.44662">
        <ele>135.3</ele>
        <time>2023-08-24T06:17:26.361Z</time>
      </trkpt>
      <trkpt lat="43.65606" lon="1.44667">
        <ele>135.26</ele>
        <time>2023-08-24T06:17:27.362Z</time>
      </trkpt>
      <trkpt lat="43.65604" lon="1.44671">
        <ele>135.24</ele>
        <time>2023-08-24T06:17:28.362Z</time>
      </trkpt>
      <trkpt lat="43.65601" lon="1.44675">
        <ele>135.24</ele>
        <time>2023-08-24T06:17:29.364Z</time>
      </trkpt>
      <trkpt lat="43.65599" lon="1.44679">
        <ele>135.24</ele>
        <time>2023-08-24T06:17:30.221Z</time>
      </trkpt>
      <trkpt lat="43.65596" lon="1.44684">
        <ele>135.19</ele>
        <time>2023-08-24T06:17:31.361Z</time>
      </trkpt>
      <trkpt lat="43.65594" lon="1.44689">
        <ele>135.16</ele>
        <time>2023-08-24T06:17:32.362Z</time>
      </trkpt>
      <trkpt lat="43.65591" lon="1.44694">
        <ele>135.14</ele>
        <time>2023-08-24T06:17:33.362Z</time>
      </trkpt>
      <trkpt lat="43.65589" lon="1.44698">
        <ele>135.13</ele>
        <time>2023-08-24T06:17:34.362Z</time>
      </trkpt>
      <trkpt lat="43.65586" lon="1.44703">
        <ele>135.11</ele>
        <time>2023-08-24T06:17:35.360Z</time>
      </trkpt>
      <trkpt lat="43.65584" lon="1.44708">
        <ele>135.07</ele>
        <time>2023-08-24T06:17:36.361Z</time>
      </trkpt>
      <trkpt lat="43.65582" lon="1.44712">
        <ele>135.05</ele>
        <time>2023-08-24T06:17:37.362Z</time>
      </trkpt>
      <trkpt lat="43.6558" lon="1.44717">
        <ele>135.07</ele>
        <time>2023-08-24T06:17:38.363Z</time>
      </trkpt>
      <trkpt lat="43.65577" lon="1.44722">
        <ele>135.08</ele>
        <time>2023-08-24T06:17:39.361Z</time>
      </trkpt>
      <trkpt lat="43.65574" lon="1.44727">
        <ele>135.1</ele>
        <time>2023-08-24T06:17:40.362Z</time>
      </trkpt>
      <trkpt lat="43.65572" lon="1.44732">
        <ele>135.12</ele>
        <time>2023-08-24T06:17:41.364Z</time>
      </trkpt>
      <trkpt lat="43.6557" lon="1.44736">
        <ele>135.1</ele>
        <time>2023-08-24T06:17:42.363Z</time>
      </trkpt>
      <trkpt lat="43.65567" lon="1.44741">
        <ele>135.11</ele>
        <time>2023-08-24T06:17:43.363Z</time>
      </trkpt>
      <trkpt lat="43.65564" lon="1.44747">
        <ele>135.08</ele>
        <time>2023-08-24T06:17:44.363Z</time>
      </trkpt>
      <trkpt lat="43.65562" lon="1.44751">
        <ele>135.13</ele>
        <time>2023-08-24T06:17:45.365Z</time>
      </trkpt>
      <trkpt lat="43.65559" lon="1.44757">
        <ele>135.11</ele>
        <time>2023-08-24T06:17:46.365Z</time>
      </trkpt>
      <trkpt lat="43.65556" lon="1.44762">
        <ele>135.1</ele>
        <time>2023-08-24T06:17:47.363Z</time>
      </trkpt>
      <trkpt lat="43.65554" lon="1.44767">
        <ele>135.14</ele>
        <time>2023-08-24T06:17:48.363Z</time>
      </trkpt>
      <trkpt lat="43.65551" lon="1.44773">
        <ele>135.15</ele>
        <time>2023-08-24T06:17:49.365Z</time>
      </trkpt>
      <trkpt lat="43.65548" lon="1.44779">
        <ele>135.15</ele>
        <time>2023-08-24T06:17:50.363Z</time>
      </trkpt>
      <trkpt lat="43.65545" lon="1.44784">
        <ele>135.15</ele>
        <time>2023-08-24T06:17:51.363Z</time>
      </trkpt>
      <trkpt lat="43.65542" lon="1.4479">
        <ele>135.16</ele>
        <time>2023-08-24T06:17:52.362Z</time>
      </trkpt>
      <trkpt lat="43.65539" lon="1.44795">
        <ele>135.15</ele>
        <time>2023-08-24T06:17:53.364Z</time>
      </trkpt>
      <trkpt lat="43.65536" lon="1.44801">
        <ele>135.12</ele>
        <time>2023-08-24T06:17:54.362Z</time>
      </trkpt>
      <trkpt lat="43.65532" lon="1.44805">
        <ele>135.07</ele>
        <time>2023-08-24T06:17:55.362Z</time>
      </trkpt>
      <trkpt lat="43.65528" lon="1.44809">
        <ele>135.1</ele>
        <time>2023-08-24T06:17:56.362Z</time>
      </trkpt>
      <trkpt lat="43.65525" lon="1.44814">
        <ele>135.12</ele>
        <time>2023-08-24T06:17:57.362Z</time>
      </trkpt>
      <trkpt lat="43.65521" lon="1.44819">
        <ele>135.09</ele>
        <time>2023-08-24T06:17:58.363Z</time>
      </trkpt>
      <trkpt lat="43.65518" lon="1.44824">
        <ele>135.04001</ele>
        <time>2023-08-24T06:17:59.361Z</time>
      </trkpt>
      <trkpt lat="43.65516" lon="1.4483">
        <ele>135.03</ele>
        <time>2023-08-24T06:18:00.362Z</time>
      </trkpt>
      <trkpt lat="43.65514" lon="1.44836">
        <ele>135.05</ele>
        <time>2023-08-24T06:18:01.361Z</time>
      </trkpt>
      <trkpt lat="43.65512" lon="1.44842">
        <ele>135.04001</ele>
        <time>2023-08-24T06:18:02.362Z</time>
      </trkpt>
      <trkpt lat="43.6551" lon="1.44849">
        <ele>135.05</ele>
        <time>2023-08-24T06:18:03.361Z</time>
      </trkpt>
      <trkpt lat="43.65508" lon="1.44855">
        <ele>135.1</ele>
        <time>2023-08-24T06:18:04.361Z</time>
      </trkpt>
      <trkpt lat="43.65505" lon="1.44861">
        <ele>135.1</ele>
        <time>2023-08-24T06:18:05.361Z</time>
      </trkpt>
      <trkpt lat="43.65503" lon="1.44867">
        <ele>135.13</ele>
        <time>2023-08-24T06:18:06.219Z</time>
      </trkpt>
      <trkpt lat="43.655" lon="1.44873">
        <ele>135.16</ele>
        <time>2023-08-24T06:18:07.361Z</time>
      </trkpt>
      <trkpt lat="43.65497" lon="1.44879">
        <ele>135.20999</ele>
        <time>2023-08-24T06:18:08.362Z</time>
      </trkpt>
      <trkpt lat="43.65495" lon="1.44884">
        <ele>135.26</ele>
        <time>2023-08-24T06:18:09.361Z</time>
      </trkpt>
      <trkpt lat="43.65492" lon="1.4489">
        <ele>135.32</ele>
        <time>2023-08-24T06:18:10.362Z</time>
      </trkpt>
      <trkpt lat="43.65488" lon="1.44896">
        <ele>135.31</ele>
        <time>2023-08-24T06:18:11.361Z</time>
      </trkpt>
      <trkpt lat="43.65485" lon="1.44902">
        <ele>135.35</ele>
        <time>2023-08-24T06:18:12.362Z</time>
      </trkpt>
      <trkpt lat="43.65483" lon="1.44907">
        <ele>135.4</ele>
        <time>2023-08-24T06:18:13.361Z</time>
      </trkpt>
      <trkpt lat="43.65482" lon="1.44913">
        <ele>135.47</ele>
        <time>2023-08-24T06:18:14.223Z</time>
      </trkpt>
      <trkpt lat="43.65479" lon="1.44919">
        <ele>135.5</ele>
        <time>2023-08-24T06:18:15.361Z</time>
      </trkpt>
      <trkpt lat="43.65477" lon="1.44925">
        <ele>135.49</ele>
        <time>2023-08-24T06:18:15.455Z</time>
      </trkpt>
      <trkpt lat="43.65478" lon="1.44932">
        <ele>135.47</ele>
        <time>2023-08-24T06:18:17.360Z</time>
      </trkpt>
      <trkpt lat="43.65478" lon="1.44936">
        <ele>135.52</ele>
        <time>2023-08-24T06:18:18.360Z</time>
      </trkpt>
      <trkpt lat="43.65482" lon="1.44942">
        <ele>135.56</ele>
        <time>2023-08-24T06:18:19.363Z</time>
      </trkpt>
      <trkpt lat="43.65484" lon="1.44948">
        <ele>135.59</ele>
        <time>2023-08-24T06:18:20.360Z</time>
      </trkpt>
      <trkpt lat="43.65488" lon="1.44953">
        <ele>135.61</ele>
        <time>2023-08-24T06:18:21.360Z</time>
      </trkpt>
      <trkpt lat="43.65491" lon="1.44958">
        <ele>135.62</ele>
        <time>2023-08-24T06:18:22.361Z</time>
      </trkpt>
      <trkpt lat="43.65495" lon="1.44965">
        <ele>135.66</ele>
        <time>2023-08-24T06:18:23.359Z</time>
      </trkpt>
      <trkpt lat="43.65499" lon="1.4497">
        <ele>135.68</ele>
        <time>2023-08-24T06:18:24.360Z</time>
      </trkpt>
      <trkpt lat="43.65503" lon="1.44975">
        <ele>135.70999</ele>
        <time>2023-08-24T06:18:25.359Z</time>
      </trkpt>
      <trkpt lat="43.65506" lon="1.4498">
        <ele>135.72</ele>
        <time>2023-08-24T06:18:26.359Z</time>
      </trkpt>
      <trkpt lat="43.65509" lon="1.44984">
        <ele>135.75</ele>
        <time>2023-08-24T06:18:27.362Z</time>
      </trkpt>
      <trkpt lat="43.65513" lon="1.44989">
        <ele>135.78</ele>
        <time>2023-08-24T06:18:28.359Z</time>
      </trkpt>
      <trkpt lat="43.65516" lon="1.44994">
        <ele>135.79001</ele>
        <time>2023-08-24T06:18:29.359Z</time>
      </trkpt>
      <trkpt lat="43.6552" lon="1.44999">
        <ele>135.76</ele>
        <time>2023-08-24T06:18:30.361Z</time>
      </trkpt>
      <trkpt lat="43.65523" lon="1.45004">
        <ele>135.76</ele>
        <time>2023-08-24T06:18:30.987Z</time>
      </trkpt>
      <trkpt lat="43.65526" lon="1.45009">
        <ele>135.77</ele>
        <time>2023-08-24T06:18:32.358Z</time>
      </trkpt>
      <trkpt lat="43.65529" lon="1.45014">
        <ele>135.75</ele>
        <time>2023-08-24T06:18:33.359Z</time>
      </trkpt>
      <trkpt lat="43.65532" lon="1.45019">
        <ele>135.73</ele>
        <time>2023-08-24T06:18:34.460Z</time>
      </trkpt>
      <trkpt lat="43.65535" lon="1.45024">
        <ele>135.77</ele>
        <time>2023-08-24T06:18:34.994Z</time>
      </trkpt>
      <trkpt lat="43.65538" lon="1.45028">
        <ele>135.75</ele>
        <time>2023-08-24T06:18:36.011Z</time>
      </trkpt>
      <trkpt lat="43.65541" lon="1.45033">
        <ele>135.73</ele>
        <time>2023-08-24T06:18:36.980Z</time>
      </trkpt>
      <trkpt lat="43.65544" lon="1.45036">
        <ele>135.73</ele>
        <time>2023-08-24T06:18:38.460Z</time>
      </trkpt>
      <trkpt lat="43.65548" lon="1.45042">
        <ele>135.72</ele>
        <time>2023-08-24T06:18:39.467Z</time>
      </trkpt>
      <trkpt lat="43.65551" lon="1.45046">
        <ele>135.72</ele>
        <time>2023-08-24T06:18:40.458Z</time>
      </trkpt>
      <trkpt lat="43.65554" lon="1.45051">
        <ele>135.66</ele>
        <time>2023-08-24T06:18:40.992Z</time>
      </trkpt>
      <trkpt lat="43.65557" lon="1.45054">
        <ele>135.61</ele>
        <time>2023-08-24T06:18:42.458Z</time>
      </trkpt>
      <trkpt lat="43.6556" lon="1.45058">
        <ele>135.63</ele>
        <time>2023-08-24T06:18:43.015Z</time>
      </trkpt>
      <trkpt lat="43.65562" lon="1.45061">
        <ele>135.68</ele>
        <time>2023-08-24T06:18:43.993Z</time>
      </trkpt>
      <trkpt lat="43.65565" lon="1.45064">
        <ele>135.68</ele>
        <time>2023-08-24T06:18:45.458Z</time>
      </trkpt>
      <trkpt lat="43.65567" lon="1.45066">
        <ele>135.67</ele>
        <time>2023-08-24T06:18:46.459Z</time>
      </trkpt>
      <trkpt lat="43.65569" lon="1.45069">
        <ele>135.7</ele>
        <time>2023-08-24T06:18:47.458Z</time>
      </trkpt>
      <trkpt lat="43.65571" lon="1.45072">
        <ele>135.76</ele>
        <time>2023-08-24T06:18:48.279Z</time>
      </trkpt>
      <trkpt lat="43.65573" lon="1.45075">
        <ele>135.75</ele>
        <time>2023-08-24T06:18:49.474Z</time>
      </trkpt>
      <trkpt lat="43.65574" lon="1.45077">
        <ele>135.75</ele>
        <time>2023-08-24T06:18:49.969Z</time>
      </trkpt>
      <trkpt lat="43.65576" lon="1.45079">
        <ele>135.73</ele>
        <time>2023-08-24T06:18:51.468Z</time>
      </trkpt>
      <trkpt lat="43.65579" lon="1.45084">
        <ele>135.7</ele>
        <time>2023-08-24T06:18:52.467Z</time>
      </trkpt>
      <trkpt lat="43.65582" lon="1.45087">
        <ele>135.68</ele>
        <time>2023-08-24T06:18:53.457Z</time>
      </trkpt>
      <trkpt lat="43.65584" lon="1.4509">
        <ele>135.64</ele>
        <time>2023-08-24T06:18:54.001Z</time>
      </trkpt>
      <trkpt lat="43.65588" lon="1.45095">
        <ele>135.63</ele>
        <time>2023-08-24T06:18:54.973Z</time>
      </trkpt>
      <trkpt lat="43.65592" lon="1.45101">
        <ele>135.6</ele>
        <time>2023-08-24T06:18:56.013Z</time>
      </trkpt>
      <trkpt lat="43.65596" lon="1.45105">
        <ele>135.58</ele>
        <time>2023-08-24T06:18:57.444Z</time>
      </trkpt>
      <trkpt lat="43.65599" lon="1.45111">
        <ele>135.59</ele>
        <time>2023-08-24T06:18:58.447Z</time>
      </trkpt>
      <trkpt lat="43.656" lon="1.45115">
        <ele>135.61</ele>
        <time>2023-08-24T06:18:59.009Z</time>
      </trkpt>
      <trkpt lat="43.65599" lon="1.45118">
        <ele>135.59</ele>
        <time>2023-08-24T06:19:00.479Z</time>
      </trkpt>
      <trkpt lat="43.65596" lon="1.45121">
        <ele>135.56</ele>
        <time>2023-08-24T06:19:01.457Z</time>
      </trkpt>
      <trkpt lat="43.65593" lon="1.45122">
        <ele>135.47</ele>
        <time>2023-08-24T06:19:02.479Z</time>
      </trkpt>
      <trkpt lat="43.6559" lon="1.45124">
        <ele>135.41</ele>
        <time>2023-08-24T06:19:02.983Z</time>
      </trkpt>
      <trkpt lat="43.65584" lon="1.45126">
        <ele>135.31</ele>
        <time>2023-08-24T06:19:04.040Z</time>
      </trkpt>
      <trkpt lat="43.65579" lon="1.45129">
        <ele>135.2</ele>
        <time>2023-08-24T06:19:05.467Z</time>
      </trkpt>
      <trkpt lat="43.65575" lon="1.45133">
        <ele>135.15</ele>
        <time>2023-08-24T06:19:06.034Z</time>
      </trkpt>
      <trkpt lat="43.6557" lon="1.45137">
        <ele>135.05</ele>
        <time>2023-08-24T06:19:07.486Z</time>
      </trkpt>
      <trkpt lat="43.65565" lon="1.45141">
        <ele>134.99</ele>
        <time>2023-08-24T06:19:07.994Z</time>
      </trkpt>
      <trkpt lat="43.6556" lon="1.45144">
        <ele>134.95999</ele>
        <time>2023-08-24T06:19:09.042Z</time>
      </trkpt>
      <trkpt lat="43.65554" lon="1.45148">
        <ele>134.87</ele>
        <time>2023-08-24T06:19:10.473Z</time>
      </trkpt>
      <trkpt lat="43.6555" lon="1.45151">
        <ele>134.75</ele>
        <time>2023-08-24T06:19:11.039Z</time>
      </trkpt>
      <trkpt lat="43.65545" lon="1.45155">
        <ele>134.72</ele>
        <time>2023-08-24T06:19:12.012Z</time>
      </trkpt>
      <trkpt lat="43.6554" lon="1.45158">
        <ele>134.72</ele>
        <time>2023-08-24T06:19:13.455Z</time>
      </trkpt>
      <trkpt lat="43.65537" lon="1.45159">
        <ele>134.66</ele>
        <time>2023-08-24T06:19:14.050Z</time>
      </trkpt>
      <trkpt lat="43.65533" lon="1.45162">
        <ele>134.63</ele>
        <time>2023-08-24T06:19:15.476Z</time>
      </trkpt>
      <trkpt lat="43.65529" lon="1.45165">
        <ele>134.59</ele>
        <time>2023-08-24T06:19:16.044Z</time>
      </trkpt>
      <trkpt lat="43.65523" lon="1.45169">
        <ele>134.57</ele>
        <time>2023-08-24T06:19:17.493Z</time>
      </trkpt>
      <trkpt lat="43.65517" lon="1.45173">
        <ele>134.57</ele>
        <time>2023-08-24T06:19:18.458Z</time>
      </trkpt>
      <trkpt lat="43.65508" lon="1.45179">
        <ele>134.51</ele>
        <time>2023-08-24T06:19:19.052Z</time>
      </trkpt>
      <trkpt lat="43.65503" lon="1.45183">
        <ele>134.51</ele>
        <time>2023-08-24T06:19:20.488Z</time>
      </trkpt>
      <trkpt lat="43.65498" lon="1.45186">
        <ele>134.45999</ele>
        <time>2023-08-24T06:19:21.456Z</time>
      </trkpt>
      <trkpt lat="43.65493" lon="1.45189">
        <ele>134.43</ele>
        <time>2023-08-24T06:19:22.505Z</time>
      </trkpt>
      <trkpt lat="43.65488" lon="1.45193">
        <ele>134.41</ele>
        <time>2023-08-24T06:19:23.456Z</time>
      </trkpt>
      <trkpt lat="43.65482" lon="1.45196">
        <ele>134.37</ele>
        <time>2023-08-24T06:19:24.030Z</time>
      </trkpt>
      <trkpt lat="43.65477" lon="1.45201">
        <ele>134.37</ele>
        <time>2023-08-24T06:19:25.494Z</time>
      </trkpt>
      <trkpt lat="43.65473" lon="1.45205">
        <ele>134.38</ele>
        <time>2023-08-24T06:19:26.459Z</time>
      </trkpt>
      <trkpt lat="43.65469" lon="1.45209">
        <ele>134.42</ele>
        <time>2023-08-24T06:19:27.509Z</time>
      </trkpt>
      <trkpt lat="43.65465" lon="1.45213">
        <ele>134.45999</ele>
        <time>2023-08-24T06:19:28.460Z</time>
      </trkpt>
      <trkpt lat="43.6546" lon="1.45217">
        <ele>134.47</ele>
        <time>2023-08-24T06:19:29.034Z</time>
      </trkpt>
      <trkpt lat="43.65454" lon="1.4522">
        <ele>134.51</ele>
        <time>2023-08-24T06:19:30.494Z</time>
      </trkpt>
      <trkpt lat="43.6545" lon="1.45223">
        <ele>134.52</ele>
        <time>2023-08-24T06:19:31.459Z</time>
      </trkpt>
      <trkpt lat="43.65446" lon="1.45226">
        <ele>134.51</ele>
        <time>2023-08-24T06:19:32.024Z</time>
      </trkpt>
      <trkpt lat="43.65443" lon="1.45228">
        <ele>134.52</ele>
        <time>2023-08-24T06:19:33.391Z</time>
      </trkpt>
      <trkpt lat="43.65441" lon="1.45229">
        <ele>134.5</ele>
        <time>2023-08-24T06:19:34.033Z</time>
      </trkpt>
      <trkpt lat="43.65437" lon="1.45231">
        <ele>134.47</ele>
        <time>2023-08-24T06:19:35.504Z</time>
      </trkpt>
      <trkpt lat="43.65432" lon="1.45233">
        <ele>134.48</ele>
        <time>2023-08-24T06:19:36.458Z</time>
      </trkpt>
      <trkpt lat="43.65425" lon="1.45236">
        <ele>134.45999</ele>
        <time>2023-08-24T06:19:37.519Z</time>
      </trkpt>
      <trkpt lat="43.65419" lon="1.45238">
        <ele>134.48</ele>
        <time>2023-08-24T06:19:38.298Z</time>
      </trkpt>
      <trkpt lat="43.6541" lon="1.45242">
        <ele>134.47</ele>
        <time>2023-08-24T06:19:39.460Z</time>
      </trkpt>
      <trkpt lat="43.65403" lon="1.45248">
        <ele>134.47</ele>
        <time>2023-08-24T06:19:40.460Z</time>
      </trkpt>
      <trkpt lat="43.65397" lon="1.45253">
        <ele>134.43</ele>
        <time>2023-08-24T06:19:41.460Z</time>
      </trkpt>
      <trkpt lat="43.65391" lon="1.45261">
        <ele>134.41</ele>
        <time>2023-08-24T06:19:42.524Z</time>
      </trkpt>
      <trkpt lat="43.65386" lon="1.45268">
        <ele>134.38</ele>
        <time>2023-08-24T06:19:43.458Z</time>
      </trkpt>
      <trkpt lat="43.65382" lon="1.45274">
        <ele>134.41</ele>
        <time>2023-08-24T06:19:44.047Z</time>
      </trkpt>
      <trkpt lat="43.65379" lon="1.45279">
        <ele>134.43</ele>
        <time>2023-08-24T06:19:45.519Z</time>
      </trkpt>
      <trkpt lat="43.65376" lon="1.45284">
        <ele>134.48</ele>
        <time>2023-08-24T06:19:46.462Z</time>
      </trkpt>
      <trkpt lat="43.65374" lon="1.45287">
        <ele>134.58</ele>
        <time>2023-08-24T06:19:47.469Z</time>
      </trkpt>
      <trkpt lat="43.65373" lon="1.45289">
        <ele>134.68</ele>
        <time>2023-08-24T06:19:48.461Z</time>
      </trkpt>
      <trkpt lat="43.65374" lon="1.45292">
        <ele>134.77</ele>
        <time>2023-08-24T06:19:49.462Z</time>
      </trkpt>
      <trkpt lat="43.65375" lon="1.45295">
        <ele>134.83</ele>
        <time>2023-08-24T06:19:50.461Z</time>
      </trkpt>
      <trkpt lat="43.65377" lon="1.45298">
        <ele>134.92</ele>
        <time>2023-08-24T06:19:51.460Z</time>
      </trkpt>
      <trkpt lat="43.6538" lon="1.45303">
        <ele>134.94</ele>
        <time>2023-08-24T06:19:52.332Z</time>
      </trkpt>
      <trkpt lat="43.65383" lon="1.45307">
        <ele>134.92</ele>
        <time>2023-08-24T06:19:53.459Z</time>
      </trkpt>
      <trkpt lat="43.65385" lon="1.45311">
        <ele>135.09</ele>
        <time>2023-08-24T06:19:54.460Z</time>
      </trkpt>
      <trkpt lat="43.65389" lon="1.45316">
        <ele>135.2</ele>
        <time>2023-08-24T06:19:55.459Z</time>
      </trkpt>
      <trkpt lat="43.65394" lon="1.45322">
        <ele>135.33</ele>
        <time>2023-08-24T06:19:56.461Z</time>
      </trkpt>
      <trkpt lat="43.65397" lon="1.45327">
        <ele>135.45999</ele>
        <time>2023-08-24T06:19:57.460Z</time>
      </trkpt>
      <trkpt lat="43.654" lon="1.45331">
        <ele>135.57</ele>
        <time>2023-08-24T06:19:58.460Z</time>
      </trkpt>
      <trkpt lat="43.65404" lon="1.45337">
        <ele>135.65</ele>
        <time>2023-08-24T06:19:59.459Z</time>
      </trkpt>
      <trkpt lat="43.65407" lon="1.45342">
        <ele>135.70999</ele>
        <time>2023-08-24T06:20:00.459Z</time>
      </trkpt>
      <trkpt lat="43.6541" lon="1.45346">
        <ele>135.8</ele>
        <time>2023-08-24T06:20:01.459Z</time>
      </trkpt>
      <trkpt lat="43.65412" lon="1.45348">
        <ele>135.9</ele>
        <time>2023-08-24T06:20:02.460Z</time>
      </trkpt>
      <trkpt lat="43.65415" lon="1.45349">
        <ele>136.03</ele>
        <time>2023-08-24T06:20:03.460Z</time>
      </trkpt>
      <trkpt lat="43.65422" lon="1.45349">
        <ele>136.23</ele>
        <time>2023-08-24T06:20:05.461Z</time>
      </trkpt>
      <trkpt lat="43.65425" lon="1.45349">
        <ele>136.39</ele>
        <time>2023-08-24T06:20:06.461Z</time>
      </trkpt>
      <trkpt lat="43.65429" lon="1.4535">
        <ele>136.45</ele>
        <time>2023-08-24T06:20:07.461Z</time>
      </trkpt>
      <trkpt lat="43.65436" lon="1.45355">
        <ele>136.45</ele>
        <time>2023-08-24T06:20:09.461Z</time>
      </trkpt>
      <trkpt lat="43.65439" lon="1.45357">
        <ele>136.47</ele>
        <time>2023-08-24T06:20:10.461Z</time>
      </trkpt>
      <trkpt lat="43.65442" lon="1.4536">
        <ele>136.51</ele>
        <time>2023-08-24T06:20:11.461Z</time>
      </trkpt>
      <trkpt lat="43.65445" lon="1.45362">
        <ele>136.6</ele>
        <time>2023-08-24T06:20:12.460Z</time>
      </trkpt>
      <trkpt lat="43.6545" lon="1.45364">
        <ele>136.58</ele>
        <time>2023-08-24T06:20:13.460Z</time>
      </trkpt>
      <trkpt lat="43.65456" lon="1.45367">
        <ele>136.58</ele>
        <time>2023-08-24T06:20:15.460Z</time>
      </trkpt>
      <trkpt lat="43.65461" lon="1.45369">
        <ele>136.53</ele>
        <time>2023-08-24T06:20:16.461Z</time>
      </trkpt>
      <trkpt lat="43.65467" lon="1.45371">
        <ele>136.5</ele>
        <time>2023-08-24T06:20:17.560Z</time>
      </trkpt>
      <trkpt lat="43.65472" lon="1.45373">
        <ele>136.41</ele>
        <time>2023-08-24T06:20:18.562Z</time>
      </trkpt>
      <trkpt lat="43.65479" lon="1.45375">
        <ele>136.37</ele>
        <time>2023-08-24T06:20:19.347Z</time>
      </trkpt>
      <trkpt lat="43.65483" lon="1.45377">
        <ele>136.32</ele>
        <time>2023-08-24T06:20:20.561Z</time>
      </trkpt>
      <trkpt lat="43.65489" lon="1.45379">
        <ele>136.26</ele>
        <time>2023-08-24T06:20:21.561Z</time>
      </trkpt>
      <trkpt lat="43.65494" lon="1.45381">
        <ele>136.2</ele>
        <time>2023-08-24T06:20:22.560Z</time>
      </trkpt>
      <trkpt lat="43.65499" lon="1.45383">
        <ele>136.17</ele>
        <time>2023-08-24T06:20:23.559Z</time>
      </trkpt>
      <trkpt lat="43.65504" lon="1.45385">
        <ele>136.18</ele>
        <time>2023-08-24T06:20:24.559Z</time>
      </trkpt>
      <trkpt lat="43.65509" lon="1.45386">
        <ele>136.20999</ele>
        <time>2023-08-24T06:20:25.560Z</time>
      </trkpt>
      <trkpt lat="43.65515" lon="1.45388">
        <ele>136.24</ele>
        <time>2023-08-24T06:20:26.560Z</time>
      </trkpt>
      <trkpt lat="43.65519" lon="1.4539">
        <ele>136.28</ele>
        <time>2023-08-24T06:20:27.559Z</time>
      </trkpt>
      <trkpt lat="43.65524" lon="1.45391">
        <ele>136.29001</ele>
        <time>2023-08-24T06:20:28.408Z</time>
      </trkpt>
      <trkpt lat="43.65528" lon="1.45393">
        <ele>136.24</ele>
        <time>2023-08-24T06:20:29.560Z</time>
      </trkpt>
      <trkpt lat="43.65533" lon="1.45395">
        <ele>136.24</ele>
        <time>2023-08-24T06:20:30.559Z</time>
      </trkpt>
      <trkpt lat="43.65537" lon="1.45396">
        <ele>136.25</ele>
        <time>2023-08-24T06:20:31.559Z</time>
      </trkpt>
      <trkpt lat="43.65542" lon="1.45398">
        <ele>136.27</ele>
        <time>2023-08-24T06:20:32.559Z</time>
      </trkpt>
      <trkpt lat="43.65547" lon="1.45399">
        <ele>136.26</ele>
        <time>2023-08-24T06:20:33.559Z</time>
      </trkpt>
      <trkpt lat="43.65551" lon="1.45401">
        <ele>136.26</ele>
        <time>2023-08-24T06:20:34.515Z</time>
      </trkpt>
      <trkpt lat="43.65556" lon="1.45403">
        <ele>136.25</ele>
        <time>2023-08-24T06:20:35.561Z</time>
      </trkpt>
      <trkpt lat="43.65561" lon="1.45405">
        <ele>136.23</ele>
        <time>2023-08-24T06:20:36.306Z</time>
      </trkpt>
      <trkpt lat="43.65567" lon="1.45406">
        <ele>136.27</ele>
        <time>2023-08-24T06:20:37.559Z</time>
      </trkpt>
      <trkpt lat="43.65571" lon="1.45408">
        <ele>136.22</ele>
        <time>2023-08-24T06:20:38.559Z</time>
      </trkpt>
      <trkpt lat="43.65576" lon="1.4541">
        <ele>136.23</ele>
        <time>2023-08-24T06:20:39.396Z</time>
      </trkpt>
      <trkpt lat="43.65581" lon="1.45411">
        <ele>136.2</ele>
        <time>2023-08-24T06:20:39.658Z</time>
      </trkpt>
      <trkpt lat="43.65586" lon="1.45413">
        <ele>136.18</ele>
        <time>2023-08-24T06:20:41.114Z</time>
      </trkpt>
      <trkpt lat="43.65591" lon="1.45415">
        <ele>136.13</ele>
        <time>2023-08-24T06:20:42.558Z</time>
      </trkpt>
      <trkpt lat="43.65596" lon="1.45417">
        <ele>136.13</ele>
        <time>2023-08-24T06:20:43.560Z</time>
      </trkpt>
      <trkpt lat="43.65601" lon="1.45419">
        <ele>136.13</ele>
        <time>2023-08-24T06:20:44.559Z</time>
      </trkpt>
      <trkpt lat="43.65606" lon="1.4542">
        <ele>136.15</ele>
        <time>2023-08-24T06:20:45.560Z</time>
      </trkpt>
      <trkpt lat="43.65611" lon="1.45422">
        <ele>136.09</ele>
        <time>2023-08-24T06:20:46.557Z</time>
      </trkpt>
      <trkpt lat="43.65616" lon="1.45424">
        <ele>136.05</ele>
        <time>2023-08-24T06:20:47.560Z</time>
      </trkpt>
      <trkpt lat="43.65621" lon="1.45426">
        <ele>135.98</ele>
        <time>2023-08-24T06:20:48.560Z</time>
      </trkpt>
      <trkpt lat="43.65627" lon="1.45429">
        <ele>135.95</ele>
        <time>2023-08-24T06:20:49.560Z</time>
      </trkpt>
      <trkpt lat="43.65631" lon="1.45431">
        <ele>135.9</ele>
        <time>2023-08-24T06:20:50.559Z</time>
      </trkpt>
      <trkpt lat="43.65637" lon="1.45433">
        <ele>135.83</ele>
        <time>2023-08-24T06:20:51.559Z</time>
      </trkpt>
      <trkpt lat="43.65642" lon="1.45435">
        <ele>135.81</ele>
        <time>2023-08-24T06:20:52.560Z</time>
      </trkpt>
      <trkpt lat="43.65647" lon="1.45437">
        <ele>135.81</ele>
        <time>2023-08-24T06:20:53.560Z</time>
      </trkpt>
      <trkpt lat="43.65652" lon="1.4544">
        <ele>135.83</ele>
        <time>2023-08-24T06:20:54.384Z</time>
      </trkpt>
      <trkpt lat="43.65657" lon="1.45442">
        <ele>135.83</ele>
        <time>2023-08-24T06:20:55.558Z</time>
      </trkpt>
      <trkpt lat="43.65662" lon="1.45444">
        <ele>135.8</ele>
        <time>2023-08-24T06:20:56.561Z</time>
      </trkpt>
      <trkpt lat="43.65667" lon="1.45446">
        <ele>135.76</ele>
        <time>2023-08-24T06:20:57.415Z</time>
      </trkpt>
      <trkpt lat="43.65672" lon="1.45448">
        <ele>135.75</ele>
        <time>2023-08-24T06:20:58.558Z</time>
      </trkpt>
      <trkpt lat="43.65677" lon="1.4545">
        <ele>135.78</ele>
        <time>2023-08-24T06:20:59.559Z</time>
      </trkpt>
      <trkpt lat="43.65682" lon="1.45453">
        <ele>135.77</ele>
        <time>2023-08-24T06:21:00.559Z</time>
      </trkpt>
      <trkpt lat="43.65688" lon="1.45455">
        <ele>135.76</ele>
        <time>2023-08-24T06:21:01.559Z</time>
      </trkpt>
      <trkpt lat="43.65693" lon="1.45458">
        <ele>135.78</ele>
        <time>2023-08-24T06:21:02.485Z</time>
      </trkpt>
      <trkpt lat="43.65699" lon="1.4546">
        <ele>135.78</ele>
        <time>2023-08-24T06:21:03.559Z</time>
      </trkpt>
      <trkpt lat="43.65705" lon="1.45462">
        <ele>135.78</ele>
        <time>2023-08-24T06:21:04.559Z</time>
      </trkpt>
      <trkpt lat="43.6571" lon="1.45465">
        <ele>135.82</ele>
        <time>2023-08-24T06:21:05.558Z</time>
      </trkpt>
      <trkpt lat="43.65715" lon="1.45467">
        <ele>135.9</ele>
        <time>2023-08-24T06:21:06.558Z</time>
      </trkpt>
      <trkpt lat="43.65721" lon="1.45469">
        <ele>135.95</ele>
        <time>2023-08-24T06:21:07.559Z</time>
      </trkpt>
      <trkpt lat="43.65726" lon="1.45471">
        <ele>136.04001</ele>
        <time>2023-08-24T06:21:08.559Z</time>
      </trkpt>
      <trkpt lat="43.65731" lon="1.45473">
        <ele>136.14</ele>
        <time>2023-08-24T06:21:09.559Z</time>
      </trkpt>
      <trkpt lat="43.65736" lon="1.45473">
        <ele>136.26</ele>
        <time>2023-08-24T06:21:10.559Z</time>
      </trkpt>
      <trkpt lat="43.6574" lon="1.45473">
        <ele>136.37</ele>
        <time>2023-08-24T06:21:11.559Z</time>
      </trkpt>
      <trkpt lat="43.65746" lon="1.45474">
        <ele>136.5</ele>
        <time>2023-08-24T06:21:12.487Z</time>
      </trkpt>
      <trkpt lat="43.65751" lon="1.45475">
        <ele>136.61</ele>
        <time>2023-08-24T06:21:13.558Z</time>
      </trkpt>
      <trkpt lat="43.65756" lon="1.45476">
        <ele>136.69</ele>
        <time>2023-08-24T06:21:14.559Z</time>
      </trkpt>
      <trkpt lat="43.6576" lon="1.45477">
        <ele>136.73</ele>
        <time>2023-08-24T06:21:15.557Z</time>
      </trkpt>
      <trkpt lat="43.65765" lon="1.45479">
        <ele>136.93</ele>
        <time>2023-08-24T06:21:16.558Z</time>
      </trkpt>
      <trkpt lat="43.6577" lon="1.4548">
        <ele>137.06</ele>
        <time>2023-08-24T06:21:17.557Z</time>
      </trkpt>
      <trkpt lat="43.65775" lon="1.45481">
        <ele>137.14</ele>
        <time>2023-08-24T06:21:18.562Z</time>
      </trkpt>
      <trkpt lat="43.65781" lon="1.45483">
        <ele>137.2</ele>
        <time>2023-08-24T06:21:19.559Z</time>
      </trkpt>
      <trkpt lat="43.65786" lon="1.45485">
        <ele>137.31</ele>
        <time>2023-08-24T06:21:20.558Z</time>
      </trkpt>
      <trkpt lat="43.65792" lon="1.45487">
        <ele>137.33</ele>
        <time>2023-08-24T06:21:21.559Z</time>
      </trkpt>
      <trkpt lat="43.65797" lon="1.45489">
        <ele>137.34</ele>
        <time>2023-08-24T06:21:22.559Z</time>
      </trkpt>
      <trkpt lat="43.65804" lon="1.45491">
        <ele>137.33</ele>
        <time>2023-08-24T06:21:23.375Z</time>
      </trkpt>
      <trkpt lat="43.65809" lon="1.45491">
        <ele>137.41</ele>
        <time>2023-08-24T06:21:24.558Z</time>
      </trkpt>
      <trkpt lat="43.65816" lon="1.4549">
        <ele>137.45999</ele>
        <time>2023-08-24T06:21:25.557Z</time>
      </trkpt>
      <trkpt lat="43.65822" lon="1.45488">
        <ele>137.45999</ele>
        <time>2023-08-24T06:21:26.558Z</time>
      </trkpt>
      <trkpt lat="43.65829" lon="1.45486">
        <ele>137.47</ele>
        <time>2023-08-24T06:21:27.557Z</time>
      </trkpt>
      <trkpt lat="43.65834" lon="1.45484">
        <ele>137.45</ele>
        <time>2023-08-24T06:21:28.556Z</time>
      </trkpt>
      <trkpt lat="43.65841" lon="1.45482">
        <ele>137.47</ele>
        <time>2023-08-24T06:21:29.557Z</time>
      </trkpt>
      <trkpt lat="43.65846" lon="1.4548">
        <ele>137.45999</ele>
        <time>2023-08-24T06:21:30.557Z</time>
      </trkpt>
      <trkpt lat="43.65852" lon="1.45478">
        <ele>137.41</ele>
        <time>2023-08-24T06:21:31.558Z</time>
      </trkpt>
      <trkpt lat="43.65857" lon="1.45477">
        <ele>137.39</ele>
        <time>2023-08-24T06:21:32.558Z</time>
      </trkpt>
      <trkpt lat="43.65864" lon="1.45475">
        <ele>137.38</ele>
        <time>2023-08-24T06:21:33.557Z</time>
      </trkpt>
      <trkpt lat="43.6587" lon="1.45473">
        <ele>137.39</ele>
        <time>2023-08-24T06:21:34.557Z</time>
      </trkpt>
      <trkpt lat="43.65878" lon="1.45472">
        <ele>137.43</ele>
        <time>2023-08-24T06:21:35.561Z</time>
      </trkpt>
      <trkpt lat="43.65885" lon="1.45471">
        <ele>137.44</ele>
        <time>2023-08-24T06:21:36.557Z</time>
      </trkpt>
      <trkpt lat="43.65892" lon="1.45471">
        <ele>137.45999</ele>
        <time>2023-08-24T06:21:37.557Z</time>
      </trkpt>
      <trkpt lat="43.65896" lon="1.4547">
        <ele>137.45999</ele>
        <time>2023-08-24T06:21:38.557Z</time>
      </trkpt>
      <trkpt lat="43.65902" lon="1.4547">
        <ele>137.47</ele>
        <time>2023-08-24T06:21:39.558Z</time>
      </trkpt>
      <trkpt lat="43.65908" lon="1.45469">
        <ele>137.47</ele>
        <time>2023-08-24T06:21:40.559Z</time>
      </trkpt>
      <trkpt lat="43.65915" lon="1.45469">
        <ele>137.43</ele>
        <time>2023-08-24T06:21:41.556Z</time>
      </trkpt>
      <trkpt lat="43.65921" lon="1.45467">
        <ele>137.39</ele>
        <time>2023-08-24T06:21:42.557Z</time>
      </trkpt>
      <trkpt lat="43.65929" lon="1.45463">
        <ele>137.4</ele>
        <time>2023-08-24T06:21:43.556Z</time>
      </trkpt>
      <trkpt lat="43.65936" lon="1.45457">
        <ele>137.39</ele>
        <time>2023-08-24T06:21:44.656Z</time>
      </trkpt>
      <trkpt lat="43.6594" lon="1.45451">
        <ele>137.36</ele>
        <time>2023-08-24T06:21:45.243Z</time>
      </trkpt>
      <trkpt lat="43.65944" lon="1.45445">
        <ele>137.38</ele>
        <time>2023-08-24T06:21:45.729Z</time>
      </trkpt>
      <trkpt lat="43.65946" lon="1.45441">
        <ele>137.4</ele>
        <time>2023-08-24T06:21:47.221Z</time>
      </trkpt>
      <trkpt lat="43.65947" lon="1.45439">
        <ele>137.4</ele>
        <time>2023-08-24T06:21:48.230Z</time>
      </trkpt>
      <trkpt lat="43.6595" lon="1.45438">
        <ele>137.42</ele>
        <time>2023-08-24T06:21:49.639Z</time>
      </trkpt>
      <trkpt lat="43.65952" lon="1.45438">
        <ele>137.47</ele>
        <time>2023-08-24T06:21:49.702Z</time>
      </trkpt>
      <trkpt lat="43.65954" lon="1.45439">
        <ele>137.62</ele>
        <time>2023-08-24T06:21:52.229Z</time>
      </trkpt>
      <trkpt lat="43.65955" lon="1.45439">
        <ele>137.70999</ele>
        <time>2023-08-24T06:21:53.233Z</time>
      </trkpt>
      <trkpt lat="43.65957" lon="1.45438">
        <ele>137.9</ele>
        <time>2023-08-24T06:21:55.250Z</time>
      </trkpt>
      <trkpt lat="43.6596" lon="1.45441">
        <ele>137.95</ele>
        <time>2023-08-24T06:21:55.880Z</time>
      </trkpt>
      <trkpt lat="43.65964" lon="1.45445">
        <ele>137.79001</ele>
        <time>2023-08-24T06:21:58.193Z</time>
      </trkpt>
      <trkpt lat="43.65967" lon="1.45448">
        <ele>137.69</ele>
        <time>2023-08-24T06:21:59.242Z</time>
      </trkpt>
      <trkpt lat="43.6597" lon="1.45452">
        <ele>137.59</ele>
        <time>2023-08-24T06:22:00.201Z</time>
      </trkpt>
      <trkpt lat="43.65973" lon="1.45456">
        <ele>137.5</ele>
        <time>2023-08-24T06:22:01.171Z</time>
      </trkpt>
      <trkpt lat="43.65977" lon="1.45462">
        <ele>137.39</ele>
        <time>2023-08-24T06:22:01.848Z</time>
      </trkpt>
      <trkpt lat="43.65981" lon="1.45468">
        <ele>137.3</ele>
        <time>2023-08-24T06:22:03.187Z</time>
      </trkpt>
      <trkpt lat="43.65984" lon="1.45472">
        <ele>137.24</ele>
        <time>2023-08-24T06:22:03.881Z</time>
      </trkpt>
      <trkpt lat="43.65989" lon="1.45476">
        <ele>137.13</ele>
        <time>2023-08-24T06:22:05.216Z</time>
      </trkpt>
      <trkpt lat="43.65994" lon="1.45478">
        <ele>136.94</ele>
        <time>2023-08-24T06:22:06.190Z</time>
      </trkpt>
      <trkpt lat="43.65999" lon="1.4548">
        <ele>136.69</ele>
        <time>2023-08-24T06:22:07.221Z</time>
      </trkpt>
      <trkpt lat="43.66005" lon="1.45483">
        <ele>136.48</ele>
        <time>2023-08-24T06:22:08.203Z</time>
      </trkpt>
      <trkpt lat="43.66011" lon="1.45486">
        <ele>136.2</ele>
        <time>2023-08-24T06:22:09.242Z</time>
      </trkpt>
      <trkpt lat="43.66016" lon="1.4549">
        <ele>135.93</ele>
        <time>2023-08-24T06:22:10.206Z</time>
      </trkpt>
      <trkpt lat="43.66021" lon="1.45494">
        <ele>135.58</ele>
        <time>2023-08-24T06:22:11.673Z</time>
      </trkpt>
      <trkpt lat="43.66027" lon="1.455">
        <ele>135.19</ele>
        <time>2023-08-24T06:22:12.231Z</time>
      </trkpt>
      <trkpt lat="43.66032" lon="1.45505">
        <ele>134.89</ele>
        <time>2023-08-24T06:22:13.682Z</time>
      </trkpt>
      <trkpt lat="43.66037" lon="1.4551">
        <ele>134.6</ele>
        <time>2023-08-24T06:22:14.239Z</time>
      </trkpt>
      <trkpt lat="43.66042" lon="1.45515">
        <ele>134.32</ele>
        <time>2023-08-24T06:22:15.212Z</time>
      </trkpt>
      <trkpt lat="43.66048" lon="1.45519">
        <ele>134.13</ele>
        <time>2023-08-24T06:22:16.655Z</time>
      </trkpt>
      <trkpt lat="43.66053" lon="1.45522">
        <ele>133.98</ele>
        <time>2023-08-24T06:22:17.337Z</time>
      </trkpt>
      <trkpt lat="43.66057" lon="1.45525">
        <ele>133.85</ele>
        <time>2023-08-24T06:22:18.654Z</time>
      </trkpt>
      <trkpt lat="43.66059" lon="1.45526">
        <ele>133.8</ele>
        <time>2023-08-24T06:22:19.249Z</time>
      </trkpt>
      <trkpt lat="43.66062" lon="1.45528">
        <ele>133.75</ele>
        <time>2023-08-24T06:22:20.246Z</time>
      </trkpt>
      <trkpt lat="43.66066" lon="1.4553">
        <ele>133.76</ele>
        <time>2023-08-24T06:22:21.236Z</time>
      </trkpt>
      <trkpt lat="43.66069" lon="1.45531">
        <ele>133.70999</ele>
        <time>2023-08-24T06:22:22.653Z</time>
      </trkpt>
      <trkpt lat="43.66072" lon="1.45531">
        <ele>133.74</ele>
        <time>2023-08-24T06:22:22.724Z</time>
      </trkpt>
      <trkpt lat="43.66076" lon="1.4553">
        <ele>133.75</ele>
        <time>2023-08-24T06:22:24.652Z</time>
      </trkpt>
      <trkpt lat="43.6608" lon="1.45529">
        <ele>133.74</ele>
        <time>2023-08-24T06:22:25.645Z</time>
      </trkpt>
      <trkpt lat="43.66084" lon="1.45528">
        <ele>133.74</ele>
        <time>2023-08-24T06:22:26.222Z</time>
      </trkpt>
      <trkpt lat="43.66087" lon="1.45529">
        <ele>133.75</ele>
        <time>2023-08-24T06:22:27.245Z</time>
      </trkpt>
      <trkpt lat="43.6609" lon="1.45529">
        <ele>133.75</ele>
        <time>2023-08-24T06:22:27.748Z</time>
      </trkpt>
      <trkpt lat="43.66094" lon="1.45531">
        <ele>133.75</ele>
        <time>2023-08-24T06:22:29.245Z</time>
      </trkpt>
      <trkpt lat="43.66098" lon="1.45532">
        <ele>133.70999</ele>
        <time>2023-08-24T06:22:30.664Z</time>
      </trkpt>
      <trkpt lat="43.66105" lon="1.45536">
        <ele>133.70999</ele>
        <time>2023-08-24T06:22:31.238Z</time>
      </trkpt>
      <trkpt lat="43.66109" lon="1.45539">
        <ele>133.72</ele>
        <time>2023-08-24T06:22:33.653Z</time>
      </trkpt>
      <trkpt lat="43.66112" lon="1.45541">
        <ele>133.76</ele>
        <time>2023-08-24T06:22:33.737Z</time>
      </trkpt>
      <trkpt lat="43.66116" lon="1.45543">
        <ele>133.78</ele>
        <time>2023-08-24T06:22:35.296Z</time>
      </trkpt>
      <trkpt lat="43.66119" lon="1.45546">
        <ele>133.77</ele>
        <time>2023-08-24T06:22:36.237Z</time>
      </trkpt>
      <trkpt lat="43.66123" lon="1.45549">
        <ele>133.84</ele>
        <time>2023-08-24T06:22:37.217Z</time>
      </trkpt>
      <trkpt lat="43.66125" lon="1.45551">
        <ele>133.84</ele>
        <time>2023-08-24T06:22:38.656Z</time>
      </trkpt>
      <trkpt lat="43.66129" lon="1.45553">
        <ele>133.86</ele>
        <time>2023-08-24T06:22:38.735Z</time>
      </trkpt>
      <trkpt lat="43.66133" lon="1.45557">
        <ele>133.93</ele>
        <time>2023-08-24T06:22:41.655Z</time>
      </trkpt>
      <trkpt lat="43.66134" lon="1.45558">
        <ele>134.23</ele>
        <time>2023-08-24T06:23:16.830Z</time>
      </trkpt>
      <trkpt lat="43.66137" lon="1.4556">
        <ele>134.18</ele>
        <time>2023-08-24T06:23:19.766Z</time>
      </trkpt>
      <trkpt lat="43.66139" lon="1.45562">
        <ele>134.19</ele>
        <time>2023-08-24T06:23:20.765Z</time>
      </trkpt>
      <trkpt lat="43.66141" lon="1.45564">
        <ele>134.18</ele>
        <time>2023-08-24T06:23:20.855Z</time>
      </trkpt>
      <trkpt lat="43.66143" lon="1.45566">
        <ele>134.15</ele>
        <time>2023-08-24T06:23:22.491Z</time>
      </trkpt>
      <trkpt lat="43.66145" lon="1.45568">
        <ele>134.08</ele>
        <time>2023-08-24T06:23:23.765Z</time>
      </trkpt>
      <trkpt lat="43.66148" lon="1.4557">
        <ele>134.04001</ele>
        <time>2023-08-24T06:23:24.766Z</time>
      </trkpt>
      <trkpt lat="43.6615" lon="1.45573">
        <ele>134</ele>
        <time>2023-08-24T06:23:25.668Z</time>
      </trkpt>
      <trkpt lat="43.66153" lon="1.45575">
        <ele>134</ele>
        <time>2023-08-24T06:23:25.859Z</time>
      </trkpt>
      <trkpt lat="43.66156" lon="1.45578">
        <ele>134.05</ele>
        <time>2023-08-24T06:23:27.323Z</time>
      </trkpt>
      <trkpt lat="43.66159" lon="1.45582">
        <ele>134.09</ele>
        <time>2023-08-24T06:23:28.796Z</time>
      </trkpt>
      <trkpt lat="43.66167" lon="1.45591">
        <ele>134.1</ele>
        <time>2023-08-24T06:23:30.790Z</time>
      </trkpt>
      <trkpt lat="43.66171" lon="1.45597">
        <ele>134.14</ele>
        <time>2023-08-24T06:23:31.292Z</time>
      </trkpt>
      <trkpt lat="43.66175" lon="1.45603">
        <ele>134.1</ele>
        <time>2023-08-24T06:23:32.327Z</time>
      </trkpt>
      <trkpt lat="43.66182" lon="1.45611">
        <ele>134.06</ele>
        <time>2023-08-24T06:23:34.350Z</time>
      </trkpt>
      <trkpt lat="43.66192" lon="1.45623">
        <ele>134.06</ele>
        <time>2023-08-24T06:23:36.795Z</time>
      </trkpt>
      <trkpt lat="43.66196" lon="1.45626">
        <ele>134.05</ele>
        <time>2023-08-24T06:23:38.777Z</time>
      </trkpt>
      <trkpt lat="43.66206" lon="1.45627">
        <ele>134.07</ele>
        <time>2023-08-24T06:23:39.775Z</time>
      </trkpt>
      <trkpt lat="43.6621" lon="1.45623">
        <ele>134.15</ele>
        <time>2023-08-24T06:23:40.782Z</time>
      </trkpt>
      <trkpt lat="43.66212" lon="1.45618">
        <ele>134.18</ele>
        <time>2023-08-24T06:23:40.824Z</time>
      </trkpt>
      <trkpt lat="43.66215" lon="1.45611">
        <ele>134.17</ele>
        <time>2023-08-24T06:23:42.338Z</time>
      </trkpt>
      <trkpt lat="43.66217" lon="1.45603">
        <ele>134.18</ele>
        <time>2023-08-24T06:23:42.824Z</time>
      </trkpt>
      <trkpt lat="43.66219" lon="1.45597">
        <ele>134.16</ele>
        <time>2023-08-24T06:23:44.766Z</time>
      </trkpt>
      <trkpt lat="43.66221" lon="1.45589">
        <ele>134.12</ele>
        <time>2023-08-24T06:23:44.876Z</time>
      </trkpt>
      <trkpt lat="43.66224" lon="1.45582">
        <ele>134.05</ele>
        <time>2023-08-24T06:23:46.766Z</time>
      </trkpt>
      <trkpt lat="43.66225" lon="1.45575">
        <ele>133.99</ele>
        <time>2023-08-24T06:23:47.765Z</time>
      </trkpt>
      <trkpt lat="43.66227" lon="1.45568">
        <ele>133.95</ele>
        <time>2023-08-24T06:23:48.584Z</time>
      </trkpt>
      <trkpt lat="43.6623" lon="1.45561">
        <ele>133.95</ele>
        <time>2023-08-24T06:23:49.764Z</time>
      </trkpt>
      <trkpt lat="43.66233" lon="1.45547">
        <ele>133.93</ele>
        <time>2023-08-24T06:23:51.756Z</time>
      </trkpt>
      <trkpt lat="43.66236" lon="1.4554">
        <ele>133.88</ele>
        <time>2023-08-24T06:23:52.764Z</time>
      </trkpt>
      <trkpt lat="43.66238" lon="1.45533">
        <ele>133.82</ele>
        <time>2023-08-24T06:23:53.331Z</time>
      </trkpt>
      <trkpt lat="43.6624" lon="1.45526">
        <ele>133.78</ele>
        <time>2023-08-24T06:23:54.765Z</time>
      </trkpt>
      <trkpt lat="43.66242" lon="1.4552">
        <ele>133.84</ele>
        <time>2023-08-24T06:23:55.832Z</time>
      </trkpt>
      <trkpt lat="43.66244" lon="1.45513">
        <ele>133.86</ele>
        <time>2023-08-24T06:23:56.766Z</time>
      </trkpt>
      <trkpt lat="43.66245" lon="1.45508">
        <ele>133.88</ele>
        <time>2023-08-24T06:23:57.763Z</time>
      </trkpt>
      <trkpt lat="43.66247" lon="1.45501">
        <ele>133.88</ele>
        <time>2023-08-24T06:23:58.337Z</time>
      </trkpt>
      <trkpt lat="43.66248" lon="1.45497">
        <ele>133.91</ele>
        <time>2023-08-24T06:23:59.764Z</time>
      </trkpt>
      <trkpt lat="43.66249" lon="1.45493">
        <ele>133.95999</ele>
        <time>2023-08-24T06:24:00.763Z</time>
      </trkpt>
      <trkpt lat="43.66253" lon="1.45482">
        <ele>133.95</ele>
        <time>2023-08-24T06:24:01.764Z</time>
      </trkpt>
      <trkpt lat="43.66254" lon="1.45474">
        <ele>133.93</ele>
        <time>2023-08-24T06:24:02.763Z</time>
      </trkpt>
      <trkpt lat="43.66257" lon="1.45466">
        <ele>133.89</ele>
        <time>2023-08-24T06:24:03.334Z</time>
      </trkpt>
      <trkpt lat="43.66259" lon="1.45459">
        <ele>133.85</ele>
        <time>2023-08-24T06:24:04.767Z</time>
      </trkpt>
      <trkpt lat="43.66261" lon="1.45451">
        <ele>133.82</ele>
        <time>2023-08-24T06:24:05.779Z</time>
      </trkpt>
      <trkpt lat="43.66263" lon="1.45444">
        <ele>133.82</ele>
        <time>2023-08-24T06:24:06.763Z</time>
      </trkpt>
      <trkpt lat="43.66265" lon="1.45436">
        <ele>133.78</ele>
        <time>2023-08-24T06:24:07.767Z</time>
      </trkpt>
      <trkpt lat="43.66267" lon="1.45429">
        <ele>133.69</ele>
        <time>2023-08-24T06:24:08.765Z</time>
      </trkpt>
      <trkpt lat="43.66269" lon="1.45421">
        <ele>133.61</ele>
        <time>2023-08-24T06:24:09.772Z</time>
      </trkpt>
      <trkpt lat="43.66271" lon="1.45413">
        <ele>133.57</ele>
        <time>2023-08-24T06:24:10.768Z</time>
      </trkpt>
      <trkpt lat="43.66273" lon="1.45406">
        <ele>133.51</ele>
        <time>2023-08-24T06:24:11.773Z</time>
      </trkpt>
      <trkpt lat="43.66275" lon="1.45398">
        <ele>133.45999</ele>
        <time>2023-08-24T06:24:12.769Z</time>
      </trkpt>
      <trkpt lat="43.66277" lon="1.4539">
        <ele>133.43</ele>
        <time>2023-08-24T06:24:13.772Z</time>
      </trkpt>
      <trkpt lat="43.6628" lon="1.45383">
        <ele>133.43</ele>
        <time>2023-08-24T06:24:14.766Z</time>
      </trkpt>
      <trkpt lat="43.66283" lon="1.45375">
        <ele>133.36</ele>
        <time>2023-08-24T06:24:15.867Z</time>
      </trkpt>
      <trkpt lat="43.66286" lon="1.45368">
        <ele>133.33</ele>
        <time>2023-08-24T06:24:16.498Z</time>
      </trkpt>
      <trkpt lat="43.66289" lon="1.4536">
        <ele>133.31</ele>
        <time>2023-08-24T06:24:17.865Z</time>
      </trkpt>
      <trkpt lat="43.66292" lon="1.45353">
        <ele>133.35</ele>
        <time>2023-08-24T06:24:18.867Z</time>
      </trkpt>
      <trkpt lat="43.66294" lon="1.45345">
        <ele>133.35</ele>
        <time>2023-08-24T06:24:18.903Z</time>
      </trkpt>
      <trkpt lat="43.66297" lon="1.45338">
        <ele>133.33</ele>
        <time>2023-08-24T06:24:20.859Z</time>
      </trkpt>
      <trkpt lat="43.663" lon="1.45331">
        <ele>133.37</ele>
        <time>2023-08-24T06:24:20.874Z</time>
      </trkpt>
      <trkpt lat="43.66303" lon="1.45326">
        <ele>133.4</ele>
        <time>2023-08-24T06:24:22.872Z</time>
      </trkpt>
      <trkpt lat="43.66305" lon="1.4532">
        <ele>133.45</ele>
        <time>2023-08-24T06:24:23.855Z</time>
      </trkpt>
      <trkpt lat="43.66308" lon="1.45315">
        <ele>133.54001</ele>
        <time>2023-08-24T06:24:24.408Z</time>
      </trkpt>
      <trkpt lat="43.66311" lon="1.45309">
        <ele>133.54001</ele>
        <time>2023-08-24T06:24:25.856Z</time>
      </trkpt>
      <trkpt lat="43.66313" lon="1.45303">
        <ele>133.61</ele>
        <time>2023-08-24T06:24:26.385Z</time>
      </trkpt>
      <trkpt lat="43.66316" lon="1.45297">
        <ele>133.59</ele>
        <time>2023-08-24T06:24:26.885Z</time>
      </trkpt>
      <trkpt lat="43.66319" lon="1.45291">
        <ele>133.47</ele>
        <time>2023-08-24T06:24:27.885Z</time>
      </trkpt>
      <trkpt lat="43.66322" lon="1.45284">
        <ele>133.35</ele>
        <time>2023-08-24T06:24:29.390Z</time>
      </trkpt>
      <trkpt lat="43.66325" lon="1.45278">
        <ele>133.2</ele>
        <time>2023-08-24T06:24:30.870Z</time>
      </trkpt>
      <trkpt lat="43.66329" lon="1.45271">
        <ele>133.07</ele>
        <time>2023-08-24T06:24:30.893Z</time>
      </trkpt>
      <trkpt lat="43.66331" lon="1.45265">
        <ele>132.95</ele>
        <time>2023-08-24T06:24:32.890Z</time>
      </trkpt>
      <trkpt lat="43.66335" lon="1.45258">
        <ele>132.87</ele>
        <time>2023-08-24T06:24:33.885Z</time>
      </trkpt>
      <trkpt lat="43.66338" lon="1.45251">
        <ele>132.81</ele>
        <time>2023-08-24T06:24:34.869Z</time>
      </trkpt>
      <trkpt lat="43.66342" lon="1.45244">
        <ele>132.62</ele>
        <time>2023-08-24T06:24:35.869Z</time>
      </trkpt>
      <trkpt lat="43.66346" lon="1.45236">
        <ele>132.16</ele>
        <time>2023-08-24T06:24:36.889Z</time>
      </trkpt>
      <trkpt lat="43.66348" lon="1.45228">
        <ele>131.81</ele>
        <time>2023-08-24T06:24:37.870Z</time>
      </trkpt>
      <trkpt lat="43.6635" lon="1.45221">
        <ele>131.6</ele>
        <time>2023-08-24T06:24:38.855Z</time>
      </trkpt>
      <trkpt lat="43.66352" lon="1.45212">
        <ele>131.5</ele>
        <time>2023-08-24T06:24:39.868Z</time>
      </trkpt>
      <trkpt lat="43.66355" lon="1.45205">
        <ele>131.55</ele>
        <time>2023-08-24T06:24:40.553Z</time>
      </trkpt>
      <trkpt lat="43.66358" lon="1.45197">
        <ele>131.51</ele>
        <time>2023-08-24T06:24:41.885Z</time>
      </trkpt>
      <trkpt lat="43.66361" lon="1.45189">
        <ele>131.45</ele>
        <time>2023-08-24T06:24:42.858Z</time>
      </trkpt>
      <trkpt lat="43.66364" lon="1.45182">
        <ele>131.34</ele>
        <time>2023-08-24T06:24:43.867Z</time>
      </trkpt>
      <trkpt lat="43.66365" lon="1.45176">
        <ele>131.2</ele>
        <time>2023-08-24T06:24:44.867Z</time>
      </trkpt>
      <trkpt lat="43.66364" lon="1.45171">
        <ele>131.22</ele>
        <time>2023-08-24T06:24:45.883Z</time>
      </trkpt>
      <trkpt lat="43.66364" lon="1.45166">
        <ele>131.41</ele>
        <time>2023-08-24T06:24:46.888Z</time>
      </trkpt>
      <trkpt lat="43.66363" lon="1.4516">
        <ele>131.70999</ele>
        <time>2023-08-24T06:24:47.484Z</time>
      </trkpt>
      <trkpt lat="43.66365" lon="1.45154">
        <ele>132.05</ele>
        <time>2023-08-24T06:24:48.904Z</time>
      </trkpt>
      <trkpt lat="43.66368" lon="1.45149">
        <ele>132.34</ele>
        <time>2023-08-24T06:24:49.489Z</time>
      </trkpt>
      <trkpt lat="43.66371" lon="1.4514">
        <ele>132.63</ele>
        <time>2023-08-24T06:24:50.868Z</time>
      </trkpt>
      <trkpt lat="43.66375" lon="1.45132">
        <ele>132.85</ele>
        <time>2023-08-24T06:24:51.892Z</time>
      </trkpt>
      <trkpt lat="43.66378" lon="1.45124">
        <ele>132.99</ele>
        <time>2023-08-24T06:24:52.871Z</time>
      </trkpt>
      <trkpt lat="43.66381" lon="1.45116">
        <ele>133.13</ele>
        <time>2023-08-24T06:24:53.869Z</time>
      </trkpt>
      <trkpt lat="43.66384" lon="1.45108">
        <ele>133.22</ele>
        <time>2023-08-24T06:24:54.882Z</time>
      </trkpt>
      <trkpt lat="43.66387" lon="1.45101">
        <ele>133.22</ele>
        <time>2023-08-24T06:24:55.661Z</time>
      </trkpt>
      <trkpt lat="43.66391" lon="1.45092">
        <ele>133.20999</ele>
        <time>2023-08-24T06:24:56.899Z</time>
      </trkpt>
      <trkpt lat="43.66394" lon="1.45085">
        <ele>133.20999</ele>
        <time>2023-08-24T06:24:57.872Z</time>
      </trkpt>
      <trkpt lat="43.66396" lon="1.45077">
        <ele>133.19</ele>
        <time>2023-08-24T06:24:58.871Z</time>
      </trkpt>
      <trkpt lat="43.66398" lon="1.45068">
        <ele>133.15</ele>
        <time>2023-08-24T06:24:59.891Z</time>
      </trkpt>
      <trkpt lat="43.66401" lon="1.45059">
        <ele>133.07</ele>
        <time>2023-08-24T06:25:00.869Z</time>
      </trkpt>
      <trkpt lat="43.66404" lon="1.45051">
        <ele>132.99</ele>
        <time>2023-08-24T06:25:01.898Z</time>
      </trkpt>
      <trkpt lat="43.66406" lon="1.45043">
        <ele>132.92</ele>
        <time>2023-08-24T06:25:01.964Z</time>
      </trkpt>
      <trkpt lat="43.66409" lon="1.45035">
        <ele>132.89</ele>
        <time>2023-08-24T06:25:03.868Z</time>
      </trkpt>
      <trkpt lat="43.66412" lon="1.45027">
        <ele>132.86</ele>
        <time>2023-08-24T06:25:04.897Z</time>
      </trkpt>
      <trkpt lat="43.66413" lon="1.45018">
        <ele>132.82</ele>
        <time>2023-08-24T06:25:05.868Z</time>
      </trkpt>
      <trkpt lat="43.66415" lon="1.4501">
        <ele>132.78</ele>
        <time>2023-08-24T06:25:06.903Z</time>
      </trkpt>
      <trkpt lat="43.66417" lon="1.45002">
        <ele>132.78</ele>
        <time>2023-08-24T06:25:07.869Z</time>
      </trkpt>
      <trkpt lat="43.66418" lon="1.44993">
        <ele>132.78</ele>
        <time>2023-08-24T06:25:08.866Z</time>
      </trkpt>
      <trkpt lat="43.66421" lon="1.44985">
        <ele>132.77</ele>
        <time>2023-08-24T06:25:09.895Z</time>
      </trkpt>
      <trkpt lat="43.66423" lon="1.44978">
        <ele>132.79001</ele>
        <time>2023-08-24T06:25:10.867Z</time>
      </trkpt>
      <trkpt lat="43.66426" lon="1.44969">
        <ele>132.8</ele>
        <time>2023-08-24T06:25:11.914Z</time>
      </trkpt>
      <trkpt lat="43.66428" lon="1.44962">
        <ele>132.78</ele>
        <time>2023-08-24T06:25:12.866Z</time>
      </trkpt>
      <trkpt lat="43.66431" lon="1.44954">
        <ele>132.77</ele>
        <time>2023-08-24T06:25:13.636Z</time>
      </trkpt>
      <trkpt lat="43.66433" lon="1.44946">
        <ele>132.73</ele>
        <time>2023-08-24T06:25:14.899Z</time>
      </trkpt>
      <trkpt lat="43.66436" lon="1.44938">
        <ele>132.72</ele>
        <time>2023-08-24T06:25:15.866Z</time>
      </trkpt>
      <trkpt lat="43.66438" lon="1.44929">
        <ele>132.66</ele>
        <time>2023-08-24T06:25:16.916Z</time>
      </trkpt>
      <trkpt lat="43.6644" lon="1.44921">
        <ele>132.54001</ele>
        <time>2023-08-24T06:25:17.868Z</time>
      </trkpt>
      <trkpt lat="43.66442" lon="1.44913">
        <ele>132.44</ele>
        <time>2023-08-24T06:25:18.871Z</time>
      </trkpt>
      <trkpt lat="43.66444" lon="1.44905">
        <ele>132.39</ele>
        <time>2023-08-24T06:25:19.919Z</time>
      </trkpt>
      <trkpt lat="43.66447" lon="1.44897">
        <ele>132.34</ele>
        <time>2023-08-24T06:25:20.869Z</time>
      </trkpt>
      <trkpt lat="43.6645" lon="1.4489">
        <ele>132.34</ele>
        <time>2023-08-24T06:25:21.445Z</time>
      </trkpt>
      <trkpt lat="43.66452" lon="1.44882">
        <ele>132.33</ele>
        <time>2023-08-24T06:25:22.418Z</time>
      </trkpt>
      <trkpt lat="43.66454" lon="1.44874">
        <ele>132.31</ele>
        <time>2023-08-24T06:25:23.459Z</time>
      </trkpt>
      <trkpt lat="43.66455" lon="1.44866">
        <ele>132.34</ele>
        <time>2023-08-24T06:25:24.917Z</time>
      </trkpt>
      <trkpt lat="43.66457" lon="1.44858">
        <ele>132.39</ele>
        <time>2023-08-24T06:25:25.866Z</time>
      </trkpt>
      <trkpt lat="43.66459" lon="1.44851">
        <ele>132.42</ele>
        <time>2023-08-24T06:25:26.929Z</time>
      </trkpt>
      <trkpt lat="43.66461" lon="1.44843">
        <ele>132.44</ele>
        <time>2023-08-24T06:25:27.868Z</time>
      </trkpt>
      <trkpt lat="43.66463" lon="1.44835">
        <ele>132.35</ele>
        <time>2023-08-24T06:25:28.865Z</time>
      </trkpt>
      <trkpt lat="43.66466" lon="1.44828">
        <ele>132.29001</ele>
        <time>2023-08-24T06:25:29.922Z</time>
      </trkpt>
      <trkpt lat="43.66469" lon="1.4482">
        <ele>132.2</ele>
        <time>2023-08-24T06:25:30.866Z</time>
      </trkpt>
      <trkpt lat="43.66472" lon="1.44812">
        <ele>132.17</ele>
        <time>2023-08-24T06:25:31.466Z</time>
      </trkpt>
      <trkpt lat="43.66475" lon="1.44805">
        <ele>132.09</ele>
        <time>2023-08-24T06:25:32.429Z</time>
      </trkpt>
      <trkpt lat="43.66478" lon="1.44798">
        <ele>132.09</ele>
        <time>2023-08-24T06:25:33.461Z</time>
      </trkpt>
      <trkpt lat="43.66481" lon="1.44791">
        <ele>132.1</ele>
        <time>2023-08-24T06:25:34.929Z</time>
      </trkpt>
      <trkpt lat="43.66484" lon="1.44784">
        <ele>132.09</ele>
        <time>2023-08-24T06:25:35.867Z</time>
      </trkpt>
      <trkpt lat="43.66488" lon="1.44777">
        <ele>132.04001</ele>
        <time>2023-08-24T06:25:36.468Z</time>
      </trkpt>
      <trkpt lat="43.66491" lon="1.4477">
        <ele>132.02</ele>
        <time>2023-08-24T06:25:37.634Z</time>
      </trkpt>
      <trkpt lat="43.66494" lon="1.44763">
        <ele>132.03</ele>
        <time>2023-08-24T06:25:38.921Z</time>
      </trkpt>
      <trkpt lat="43.66496" lon="1.44755">
        <ele>131.99</ele>
        <time>2023-08-24T06:25:39.868Z</time>
      </trkpt>
      <trkpt lat="43.66499" lon="1.44747">
        <ele>131.95</ele>
        <time>2023-08-24T06:25:40.940Z</time>
      </trkpt>
      <trkpt lat="43.66502" lon="1.4474">
        <ele>131.97</ele>
        <time>2023-08-24T06:25:41.866Z</time>
      </trkpt>
      <trkpt lat="43.66505" lon="1.44732">
        <ele>131.95</ele>
        <time>2023-08-24T06:25:42.477Z</time>
      </trkpt>
      <trkpt lat="43.66507" lon="1.44725">
        <ele>131.94</ele>
        <time>2023-08-24T06:25:43.931Z</time>
      </trkpt>
      <trkpt lat="43.6651" lon="1.44717">
        <ele>131.89</ele>
        <time>2023-08-24T06:25:44.872Z</time>
      </trkpt>
      <trkpt lat="43.66512" lon="1.44712">
        <ele>131.89</ele>
        <time>2023-08-24T06:25:45.949Z</time>
      </trkpt>
      <trkpt lat="43.66515" lon="1.44709">
        <ele>131.98</ele>
        <time>2023-08-24T06:25:46.866Z</time>
      </trkpt>
      <trkpt lat="43.66517" lon="1.44708">
        <ele>132.05</ele>
        <time>2023-08-24T06:25:47.869Z</time>
      </trkpt>
      <trkpt lat="43.66521" lon="1.44709">
        <ele>132.09</ele>
        <time>2023-08-24T06:25:48.868Z</time>
      </trkpt>
      <trkpt lat="43.66525" lon="1.44711">
        <ele>132.12</ele>
        <time>2023-08-24T06:25:49.869Z</time>
      </trkpt>
      <trkpt lat="43.66529" lon="1.44713">
        <ele>132.13</ele>
        <time>2023-08-24T06:25:50.946Z</time>
      </trkpt>
      <trkpt lat="43.66534" lon="1.44716">
        <ele>132.16</ele>
        <time>2023-08-24T06:25:51.870Z</time>
      </trkpt>
      <trkpt lat="43.6654" lon="1.4472">
        <ele>132.20999</ele>
        <time>2023-08-24T06:25:52.867Z</time>
      </trkpt>
      <trkpt lat="43.66545" lon="1.44724">
        <ele>132.18</ele>
        <time>2023-08-24T06:25:53.867Z</time>
      </trkpt>
      <trkpt lat="43.6655" lon="1.44728">
        <ele>132.18</ele>
        <time>2023-08-24T06:25:54.867Z</time>
      </trkpt>
      <trkpt lat="43.66555" lon="1.44732">
        <ele>132.1</ele>
        <time>2023-08-24T06:25:55.866Z</time>
      </trkpt>
      <trkpt lat="43.6656" lon="1.44737">
        <ele>131.99</ele>
        <time>2023-08-24T06:25:56.967Z</time>
      </trkpt>
      <trkpt lat="43.66564" lon="1.44743">
        <ele>131.84</ele>
        <time>2023-08-24T06:25:57.969Z</time>
      </trkpt>
      <trkpt lat="43.66569" lon="1.4475">
        <ele>131.72</ele>
        <time>2023-08-24T06:25:58.952Z</time>
      </trkpt>
      <trkpt lat="43.66574" lon="1.44756">
        <ele>131.59</ele>
        <time>2023-08-24T06:25:59.869Z</time>
      </trkpt>
      <trkpt lat="43.66578" lon="1.44763">
        <ele>131.45</ele>
        <time>2023-08-24T06:26:00.970Z</time>
      </trkpt>
      <trkpt lat="43.66583" lon="1.4477">
        <ele>131.23</ele>
        <time>2023-08-24T06:26:01.969Z</time>
      </trkpt>
      <trkpt lat="43.66587" lon="1.44776">
        <ele>131.07</ele>
        <time>2023-08-24T06:26:02.969Z</time>
      </trkpt>
      <trkpt lat="43.66591" lon="1.44783">
        <ele>130.89</ele>
        <time>2023-08-24T06:26:03.953Z</time>
      </trkpt>
      <trkpt lat="43.66595" lon="1.44788">
        <ele>130.75</ele>
        <time>2023-08-24T06:26:04.972Z</time>
      </trkpt>
      <trkpt lat="43.66599" lon="1.44793">
        <ele>130.7</ele>
        <time>2023-08-24T06:26:05.963Z</time>
      </trkpt>
      <trkpt lat="43.66602" lon="1.44798">
        <ele>130.65</ele>
        <time>2023-08-24T06:26:06.969Z</time>
      </trkpt>
      <trkpt lat="43.66603" lon="1.44802">
        <ele>130.6</ele>
        <time>2023-08-24T06:26:07.499Z</time>
      </trkpt>
      <trkpt lat="43.66605" lon="1.44805">
        <ele>130.56</ele>
        <time>2023-08-24T06:26:08.974Z</time>
      </trkpt>
      <trkpt lat="43.66607" lon="1.44808">
        <ele>130.57</ele>
        <time>2023-08-24T06:26:09.062Z</time>
      </trkpt>
      <trkpt lat="43.66608" lon="1.4481">
        <ele>130.56</ele>
        <time>2023-08-24T06:26:10.499Z</time>
      </trkpt>
      <trkpt lat="43.6661" lon="1.44812">
        <ele>130.58</ele>
        <time>2023-08-24T06:26:11.971Z</time>
      </trkpt>
      <trkpt lat="43.66611" lon="1.44814">
        <ele>130.62</ele>
        <time>2023-08-24T06:26:12.821Z</time>
      </trkpt>
      <trkpt lat="43.66612" lon="1.44816">
        <ele>130.63</ele>
        <time>2023-08-24T06:26:14.051Z</time>
      </trkpt>
      <trkpt lat="43.66613" lon="1.44819">
        <ele>130.6</ele>
        <time>2023-08-24T06:26:15.972Z</time>
      </trkpt>
      <trkpt lat="43.66616" lon="1.44824">
        <ele>130.53</ele>
        <time>2023-08-24T06:26:16.969Z</time>
      </trkpt>
      <trkpt lat="43.66622" lon="1.44833">
        <ele>130.51</ele>
        <time>2023-08-24T06:26:17.970Z</time>
      </trkpt>
      <trkpt lat="43.66625" lon="1.44839">
        <ele>130.47</ele>
        <time>2023-08-24T06:26:18.970Z</time>
      </trkpt>
      <trkpt lat="43.66629" lon="1.44844">
        <ele>130.38</ele>
        <time>2023-08-24T06:26:19.969Z</time>
      </trkpt>
      <trkpt lat="43.66635" lon="1.44849">
        <ele>130.32</ele>
        <time>2023-08-24T06:26:20.969Z</time>
      </trkpt>
      <trkpt lat="43.6664" lon="1.44853">
        <ele>130.27</ele>
        <time>2023-08-24T06:26:21.971Z</time>
      </trkpt>
      <trkpt lat="43.66644" lon="1.44854">
        <ele>130.23</ele>
        <time>2023-08-24T06:26:22.971Z</time>
      </trkpt>
      <trkpt lat="43.66654" lon="1.44857">
        <ele>130.19</ele>
        <time>2023-08-24T06:26:23.971Z</time>
      </trkpt>
      <trkpt lat="43.66659" lon="1.44857">
        <ele>130.15</ele>
        <time>2023-08-24T06:26:24.972Z</time>
      </trkpt>
      <trkpt lat="43.66665" lon="1.44857">
        <ele>130.14</ele>
        <time>2023-08-24T06:26:25.971Z</time>
      </trkpt>
      <trkpt lat="43.66671" lon="1.44856">
        <ele>130.1</ele>
        <time>2023-08-24T06:26:26.972Z</time>
      </trkpt>
      <trkpt lat="43.66677" lon="1.44855">
        <ele>130.05</ele>
        <time>2023-08-24T06:26:27.972Z</time>
      </trkpt>
      <trkpt lat="43.66684" lon="1.44853">
        <ele>130.06</ele>
        <time>2023-08-24T06:26:28.677Z</time>
      </trkpt>
      <trkpt lat="43.6669" lon="1.4485">
        <ele>130.05</ele>
        <time>2023-08-24T06:26:29.620Z</time>
      </trkpt>
      <trkpt lat="43.66695" lon="1.44847">
        <ele>130.03</ele>
        <time>2023-08-24T06:26:30.791Z</time>
      </trkpt>
      <trkpt lat="43.66702" lon="1.44842">
        <ele>130.04001</ele>
        <time>2023-08-24T06:26:31.969Z</time>
      </trkpt>
      <trkpt lat="43.66704" lon="1.44841">
        <ele>130.04001</ele>
        <time>2023-08-24T06:26:32.969Z</time>
      </trkpt>
      <trkpt lat="43.66713" lon="1.44833">
        <ele>130.05</ele>
        <time>2023-08-24T06:26:33.969Z</time>
      </trkpt>
      <trkpt lat="43.66718" lon="1.44829">
        <ele>130.1</ele>
        <time>2023-08-24T06:26:34.970Z</time>
      </trkpt>
      <trkpt lat="43.66724" lon="1.44824">
        <ele>130.1</ele>
        <time>2023-08-24T06:26:35.968Z</time>
      </trkpt>
      <trkpt lat="43.66729" lon="1.44819">
        <ele>130.13</ele>
        <time>2023-08-24T06:26:36.969Z</time>
      </trkpt>
      <trkpt lat="43.66735" lon="1.44817">
        <ele>130.17</ele>
        <time>2023-08-24T06:26:37.728Z</time>
      </trkpt>
      <trkpt lat="43.66742" lon="1.44816">
        <ele>130.16</ele>
        <time>2023-08-24T06:26:38.968Z</time>
      </trkpt>
      <trkpt lat="43.66747" lon="1.44819">
        <ele>130.15</ele>
        <time>2023-08-24T06:26:39.969Z</time>
      </trkpt>
      <trkpt lat="43.66752" lon="1.44823">
        <ele>130.11</ele>
        <time>2023-08-24T06:26:40.972Z</time>
      </trkpt>
      <trkpt lat="43.66756" lon="1.44829">
        <ele>130.13</ele>
        <time>2023-08-24T06:26:41.970Z</time>
      </trkpt>
      <trkpt lat="43.66756" lon="1.4483">
        <ele>130.14</ele>
        <time>2023-08-24T06:26:42.968Z</time>
      </trkpt>
      <trkpt lat="43.66759" lon="1.44845">
        <ele>130.12</ele>
        <time>2023-08-24T06:26:43.969Z</time>
      </trkpt>
      <trkpt lat="43.66759" lon="1.44848">
        <ele>130.12</ele>
        <time>2023-08-24T06:26:44.968Z</time>
      </trkpt>
      <trkpt lat="43.66762" lon="1.44862">
        <ele>130.11</ele>
        <time>2023-08-24T06:26:45.970Z</time>
      </trkpt>
      <trkpt lat="43.66765" lon="1.44869">
        <ele>130.13</ele>
        <time>2023-08-24T06:26:46.969Z</time>
      </trkpt>
      <trkpt lat="43.66768" lon="1.44872">
        <ele>130.1</ele>
        <time>2023-08-24T06:26:47.981Z</time>
      </trkpt>
      <trkpt lat="43.66774" lon="1.44881">
        <ele>130.1</ele>
        <time>2023-08-24T06:26:48.968Z</time>
      </trkpt>
      <trkpt lat="43.66779" lon="1.44886">
        <ele>130.07</ele>
        <time>2023-08-24T06:26:49.968Z</time>
      </trkpt>
      <trkpt lat="43.66784" lon="1.4489">
        <ele>130.01</ele>
        <time>2023-08-24T06:26:50.972Z</time>
      </trkpt>
      <trkpt lat="43.66789" lon="1.44895">
        <ele>130.01</ele>
        <time>2023-08-24T06:26:51.969Z</time>
      </trkpt>
      <trkpt lat="43.66794" lon="1.44899">
        <ele>130.04001</ele>
        <time>2023-08-24T06:26:52.970Z</time>
      </trkpt>
      <trkpt lat="43.668" lon="1.44902">
        <ele>130.08</ele>
        <time>2023-08-24T06:26:53.973Z</time>
      </trkpt>
      <trkpt lat="43.66805" lon="1.44904">
        <ele>130.12</ele>
        <time>2023-08-24T06:26:54.970Z</time>
      </trkpt>
      <trkpt lat="43.66811" lon="1.44907">
        <ele>130.14</ele>
        <time>2023-08-24T06:26:55.971Z</time>
      </trkpt>
      <trkpt lat="43.66817" lon="1.44909">
        <ele>130.13</ele>
        <time>2023-08-24T06:26:56.973Z</time>
      </trkpt>
      <trkpt lat="43.66823" lon="1.44911">
        <ele>130.13</ele>
        <time>2023-08-24T06:26:57.976Z</time>
      </trkpt>
      <trkpt lat="43.66829" lon="1.44913">
        <ele>130.13</ele>
        <time>2023-08-24T06:26:58.974Z</time>
      </trkpt>
      <trkpt lat="43.66833" lon="1.44915">
        <ele>130.11</ele>
        <time>2023-08-24T06:26:59.972Z</time>
      </trkpt>
      <trkpt lat="43.66838" lon="1.44917">
        <ele>130.09</ele>
        <time>2023-08-24T06:27:00.761Z</time>
      </trkpt>
      <trkpt lat="43.66843" lon="1.44919">
        <ele>130.08</ele>
        <time>2023-08-24T06:27:01.971Z</time>
      </trkpt>
      <trkpt lat="43.6685" lon="1.44921">
        <ele>130.09</ele>
        <time>2023-08-24T06:27:02.969Z</time>
      </trkpt>
      <trkpt lat="43.66856" lon="1.44923">
        <ele>130.01</ele>
        <time>2023-08-24T06:27:03.968Z</time>
      </trkpt>
      <trkpt lat="43.66864" lon="1.44925">
        <ele>130.01</ele>
        <time>2023-08-24T06:27:04.968Z</time>
      </trkpt>
      <trkpt lat="43.6687" lon="1.44927">
        <ele>130.04001</ele>
        <time>2023-08-24T06:27:05.969Z</time>
      </trkpt>
      <trkpt lat="43.66879" lon="1.44929">
        <ele>130.01</ele>
        <time>2023-08-24T06:27:06.968Z</time>
      </trkpt>
      <trkpt lat="43.66884" lon="1.4493">
        <ele>130.03</ele>
        <time>2023-08-24T06:27:07.968Z</time>
      </trkpt>
      <trkpt lat="43.66891" lon="1.44932">
        <ele>130.03</ele>
        <time>2023-08-24T06:27:08.969Z</time>
      </trkpt>
      <trkpt lat="43.66897" lon="1.44933">
        <ele>130.01</ele>
        <time>2023-08-24T06:27:09.973Z</time>
      </trkpt>
      <trkpt lat="43.66903" lon="1.44934">
        <ele>130.04001</ele>
        <time>2023-08-24T06:27:10.970Z</time>
      </trkpt>
      <trkpt lat="43.66909" lon="1.44937">
        <ele>130.06</ele>
        <time>2023-08-24T06:27:11.969Z</time>
      </trkpt>
      <trkpt lat="43.66915" lon="1.44939">
        <ele>130.08</ele>
        <time>2023-08-24T06:27:12.969Z</time>
      </trkpt>
      <trkpt lat="43.6692" lon="1.44943">
        <ele>130.02</ele>
        <time>2023-08-24T06:27:13.972Z</time>
      </trkpt>
      <trkpt lat="43.66925" lon="1.44948">
        <ele>130</ele>
        <time>2023-08-24T06:27:14.968Z</time>
      </trkpt>
      <trkpt lat="43.66929" lon="1.44955">
        <ele>130.03</ele>
        <time>2023-08-24T06:27:15.968Z</time>
      </trkpt>
      <trkpt lat="43.66933" lon="1.44962">
        <ele>130.03</ele>
        <time>2023-08-24T06:27:16.971Z</time>
      </trkpt>
      <trkpt lat="43.66936" lon="1.44969">
        <ele>130.07</ele>
        <time>2023-08-24T06:27:17.967Z</time>
      </trkpt>
      <trkpt lat="43.66939" lon="1.44977">
        <ele>130.06</ele>
        <time>2023-08-24T06:27:18.968Z</time>
      </trkpt>
      <trkpt lat="43.66942" lon="1.44985">
        <ele>130.1</ele>
        <time>2023-08-24T06:27:19.971Z</time>
      </trkpt>
      <trkpt lat="43.66945" lon="1.44992">
        <ele>130.1</ele>
        <time>2023-08-24T06:27:20.980Z</time>
      </trkpt>
      <trkpt lat="43.66948" lon="1.45">
        <ele>130.1</ele>
        <time>2023-08-24T06:27:21.975Z</time>
      </trkpt>
      <trkpt lat="43.66951" lon="1.45008">
        <ele>130.08</ele>
        <time>2023-08-24T06:27:22.603Z</time>
      </trkpt>
      <trkpt lat="43.66954" lon="1.45015">
        <ele>130.05</ele>
        <time>2023-08-24T06:27:23.969Z</time>
      </trkpt>
      <trkpt lat="43.66956" lon="1.45023">
        <ele>130</ele>
        <time>2023-08-24T06:27:24.722Z</time>
      </trkpt>
      <trkpt lat="43.66959" lon="1.4503">
        <ele>129.98</ele>
        <time>2023-08-24T06:27:25.972Z</time>
      </trkpt>
      <trkpt lat="43.66962" lon="1.45037">
        <ele>129.97</ele>
        <time>2023-08-24T06:27:26.971Z</time>
      </trkpt>
      <trkpt lat="43.66965" lon="1.45044">
        <ele>129.98</ele>
        <time>2023-08-24T06:27:27.975Z</time>
      </trkpt>
      <trkpt lat="43.66969" lon="1.45051">
        <ele>130.02</ele>
        <time>2023-08-24T06:27:28.980Z</time>
      </trkpt>
      <trkpt lat="43.66973" lon="1.45058">
        <ele>130.03</ele>
        <time>2023-08-24T06:27:29.810Z</time>
      </trkpt>
      <trkpt lat="43.66977" lon="1.45065">
        <ele>130.01</ele>
        <time>2023-08-24T06:27:30.971Z</time>
      </trkpt>
      <trkpt lat="43.6698" lon="1.45072">
        <ele>130.08</ele>
        <time>2023-08-24T06:27:31.970Z</time>
      </trkpt>
      <trkpt lat="43.66984" lon="1.45078">
        <ele>130.13</ele>
        <time>2023-08-24T06:27:32.979Z</time>
      </trkpt>
      <trkpt lat="43.66988" lon="1.45085">
        <ele>130.18</ele>
        <time>2023-08-24T06:27:33.971Z</time>
      </trkpt>
      <trkpt lat="43.66991" lon="1.45092">
        <ele>130.18</ele>
        <time>2023-08-24T06:27:34.968Z</time>
      </trkpt>
      <trkpt lat="43.66994" lon="1.45099">
        <ele>130.14</ele>
        <time>2023-08-24T06:27:35.980Z</time>
      </trkpt>
      <trkpt lat="43.66997" lon="1.45106">
        <ele>130.13</ele>
        <time>2023-08-24T06:27:36.968Z</time>
      </trkpt>
      <trkpt lat="43.67" lon="1.45113">
        <ele>130.16</ele>
        <time>2023-08-24T06:27:37.970Z</time>
      </trkpt>
      <trkpt lat="43.67004" lon="1.4512">
        <ele>130.20999</ele>
        <time>2023-08-24T06:27:38.969Z</time>
      </trkpt>
      <trkpt lat="43.67007" lon="1.45127">
        <ele>130.27</ele>
        <time>2023-08-24T06:27:39.981Z</time>
      </trkpt>
      <trkpt lat="43.67009" lon="1.45134">
        <ele>130.28</ele>
        <time>2023-08-24T06:27:40.970Z</time>
      </trkpt>
      <trkpt lat="43.67012" lon="1.45142">
        <ele>130.28</ele>
        <time>2023-08-24T06:27:41.969Z</time>
      </trkpt>
      <trkpt lat="43.67015" lon="1.45149">
        <ele>130.29001</ele>
        <time>2023-08-24T06:27:42.969Z</time>
      </trkpt>
      <trkpt lat="43.67018" lon="1.45155">
        <ele>130.32</ele>
        <time>2023-08-24T06:27:43.979Z</time>
      </trkpt>
      <trkpt lat="43.67022" lon="1.45157">
        <ele>130.34</ele>
        <time>2023-08-24T06:27:44.970Z</time>
      </trkpt>
      <trkpt lat="43.67027" lon="1.45158">
        <ele>130.32</ele>
        <time>2023-08-24T06:27:45.969Z</time>
      </trkpt>
      <trkpt lat="43.67032" lon="1.45156">
        <ele>130.31</ele>
        <time>2023-08-24T06:27:46.975Z</time>
      </trkpt>
      <trkpt lat="43.67038" lon="1.45153">
        <ele>130.32</ele>
        <time>2023-08-24T06:27:47.974Z</time>
      </trkpt>
      <trkpt lat="43.67044" lon="1.45149">
        <ele>130.32</ele>
        <time>2023-08-24T06:27:48.969Z</time>
      </trkpt>
      <trkpt lat="43.67049" lon="1.45145">
        <ele>130.34</ele>
        <time>2023-08-24T06:27:50.069Z</time>
      </trkpt>
      <trkpt lat="43.67055" lon="1.45142">
        <ele>130.36</ele>
        <time>2023-08-24T06:27:50.654Z</time>
      </trkpt>
      <trkpt lat="43.6706" lon="1.4514">
        <ele>130.34</ele>
        <time>2023-08-24T06:27:51.974Z</time>
      </trkpt>
      <trkpt lat="43.67065" lon="1.4514">
        <ele>130.32</ele>
        <time>2023-08-24T06:27:53.068Z</time>
      </trkpt>
      <trkpt lat="43.67069" lon="1.45144">
        <ele>130.29001</ele>
        <time>2023-08-24T06:27:53.711Z</time>
      </trkpt>
      <trkpt lat="43.67072" lon="1.45148">
        <ele>130.25</ele>
        <time>2023-08-24T06:27:55.072Z</time>
      </trkpt>
      <trkpt lat="43.67075" lon="1.45153">
        <ele>130.24</ele>
        <time>2023-08-24T06:27:55.969Z</time>
      </trkpt>
      <trkpt lat="43.67078" lon="1.45159">
        <ele>130.20999</ele>
        <time>2023-08-24T06:27:57.068Z</time>
      </trkpt>
      <trkpt lat="43.67081" lon="1.45165">
        <ele>130.27</ele>
        <time>2023-08-24T06:27:58.071Z</time>
      </trkpt>
      <trkpt lat="43.67085" lon="1.45171">
        <ele>130.35</ele>
        <time>2023-08-24T06:27:58.974Z</time>
      </trkpt>
      <trkpt lat="43.67088" lon="1.45176">
        <ele>130.43</ele>
        <time>2023-08-24T06:28:00.067Z</time>
      </trkpt>
      <trkpt lat="43.67091" lon="1.45181">
        <ele>130.38</ele>
        <time>2023-08-24T06:28:01.069Z</time>
      </trkpt>
      <trkpt lat="43.67094" lon="1.45187">
        <ele>130.32</ele>
        <time>2023-08-24T06:28:02.071Z</time>
      </trkpt>
      <trkpt lat="43.67097" lon="1.45192">
        <ele>130.33</ele>
        <time>2023-08-24T06:28:03.075Z</time>
      </trkpt>
      <trkpt lat="43.67101" lon="1.45197">
        <ele>130.35</ele>
        <time>2023-08-24T06:28:04.068Z</time>
      </trkpt>
      <trkpt lat="43.67104" lon="1.45202">
        <ele>130.38</ele>
        <time>2023-08-24T06:28:04.620Z</time>
      </trkpt>
      <trkpt lat="43.67107" lon="1.45207">
        <ele>130.4</ele>
        <time>2023-08-24T06:28:06.076Z</time>
      </trkpt>
      <trkpt lat="43.6711" lon="1.4521">
        <ele>130.44</ele>
        <time>2023-08-24T06:28:07.077Z</time>
      </trkpt>
      <trkpt lat="43.67112" lon="1.45213">
        <ele>130.45</ele>
        <time>2023-08-24T06:28:08.070Z</time>
      </trkpt>
      <trkpt lat="43.67115" lon="1.45216">
        <ele>130.45</ele>
        <time>2023-08-24T06:28:09.077Z</time>
      </trkpt>
      <trkpt lat="43.67116" lon="1.45219">
        <ele>130.48</ele>
        <time>2023-08-24T06:28:10.070Z</time>
      </trkpt>
      <trkpt lat="43.67118" lon="1.45222">
        <ele>130.52</ele>
        <time>2023-08-24T06:28:11.069Z</time>
      </trkpt>
      <trkpt lat="43.6712" lon="1.45226">
        <ele>130.5</ele>
        <time>2023-08-24T06:28:12.069Z</time>
      </trkpt>
      <trkpt lat="43.67121" lon="1.4523">
        <ele>130.47</ele>
        <time>2023-08-24T06:28:13.082Z</time>
      </trkpt>
      <trkpt lat="43.67124" lon="1.45234">
        <ele>130.43</ele>
        <time>2023-08-24T06:28:14.074Z</time>
      </trkpt>
      <trkpt lat="43.67127" lon="1.45241">
        <ele>130.38</ele>
        <time>2023-08-24T06:28:15.069Z</time>
      </trkpt>
      <trkpt lat="43.6713" lon="1.45246">
        <ele>130.36</ele>
        <time>2023-08-24T06:28:16.069Z</time>
      </trkpt>
      <trkpt lat="43.67132" lon="1.45251">
        <ele>130.37</ele>
        <time>2023-08-24T06:28:17.074Z</time>
      </trkpt>
      <trkpt lat="43.67135" lon="1.45257">
        <ele>130.43</ele>
        <time>2023-08-24T06:28:18.076Z</time>
      </trkpt>
      <trkpt lat="43.67138" lon="1.45264">
        <ele>130.47</ele>
        <time>2023-08-24T06:28:19.069Z</time>
      </trkpt>
      <trkpt lat="43.67141" lon="1.45269">
        <ele>130.54001</ele>
        <time>2023-08-24T06:28:19.862Z</time>
      </trkpt>
      <trkpt lat="43.67143" lon="1.45274">
        <ele>130.58</ele>
        <time>2023-08-24T06:28:21.084Z</time>
      </trkpt>
      <trkpt lat="43.67146" lon="1.4528">
        <ele>130.64</ele>
        <time>2023-08-24T06:28:22.080Z</time>
      </trkpt>
      <trkpt lat="43.67149" lon="1.45285">
        <ele>130.66</ele>
        <time>2023-08-24T06:28:23.069Z</time>
      </trkpt>
      <trkpt lat="43.67151" lon="1.45289">
        <ele>130.69</ele>
        <time>2023-08-24T06:28:24.067Z</time>
      </trkpt>
      <trkpt lat="43.67154" lon="1.45296">
        <ele>130.72</ele>
        <time>2023-08-24T06:28:25.969Z</time>
      </trkpt>
      <trkpt lat="43.67159" lon="1.45304">
        <ele>130.75</ele>
        <time>2023-08-24T06:28:28.067Z</time>
      </trkpt>
      <trkpt lat="43.67161" lon="1.45309">
        <ele>130.8</ele>
        <time>2023-08-24T06:28:29.074Z</time>
      </trkpt>
      <trkpt lat="43.67163" lon="1.45314">
        <ele>130.83</ele>
        <time>2023-08-24T06:28:30.076Z</time>
      </trkpt>
      <trkpt lat="43.67168" lon="1.45324">
        <ele>131.03</ele>
        <time>2023-08-24T06:28:31.959Z</time>
      </trkpt>
      <trkpt lat="43.67169" lon="1.45328">
        <ele>131.33</ele>
        <time>2023-08-24T06:28:33.084Z</time>
      </trkpt>
      <trkpt lat="43.67171" lon="1.45332">
        <ele>131.42</ele>
        <time>2023-08-24T06:28:34.068Z</time>
      </trkpt>
      <trkpt lat="43.67174" lon="1.45339">
        <ele>131.48</ele>
        <time>2023-08-24T06:28:35.067Z</time>
      </trkpt>
      <trkpt lat="43.67176" lon="1.45344">
        <ele>131.49</ele>
        <time>2023-08-24T06:28:36.071Z</time>
      </trkpt>
      <trkpt lat="43.67178" lon="1.4535">
        <ele>131.53</ele>
        <time>2023-08-24T06:28:37.072Z</time>
      </trkpt>
      <trkpt lat="43.67182" lon="1.45357">
        <ele>131.56</ele>
        <time>2023-08-24T06:28:38.067Z</time>
      </trkpt>
      <trkpt lat="43.67184" lon="1.45363">
        <ele>131.6</ele>
        <time>2023-08-24T06:28:39.071Z</time>
      </trkpt>
      <trkpt lat="43.67187" lon="1.45368">
        <ele>131.62</ele>
        <time>2023-08-24T06:28:40.071Z</time>
      </trkpt>
      <trkpt lat="43.67192" lon="1.45373">
        <ele>131.68</ele>
        <time>2023-08-24T06:28:42.071Z</time>
      </trkpt>
      <trkpt lat="43.67193" lon="1.45376">
        <ele>131.78</ele>
        <time>2023-08-24T06:28:42.980Z</time>
      </trkpt>
      <trkpt lat="43.67198" lon="1.45375">
        <ele>131.82</ele>
        <time>2023-08-24T06:28:45.054Z</time>
      </trkpt>
      <trkpt lat="43.67202" lon="1.45373">
        <ele>131.95</ele>
        <time>2023-08-24T06:28:46.653Z</time>
      </trkpt>
      <trkpt lat="43.67204" lon="1.45373">
        <ele>132.27</ele>
        <time>2023-08-24T06:28:49.069Z</time>
      </trkpt>
      <trkpt lat="43.67205" lon="1.45372">
        <ele>132.5</ele>
        <time>2023-08-24T06:28:50.028Z</time>
      </trkpt>
      <trkpt lat="43.67206" lon="1.45372">
        <ele>132.66</ele>
        <time>2023-08-24T06:28:51.069Z</time>
      </trkpt>
      <trkpt lat="43.67208" lon="1.45371">
        <ele>132.73</ele>
        <time>2023-08-24T06:28:51.912Z</time>
      </trkpt>
      <trkpt lat="43.6721" lon="1.4537">
        <ele>132.78</ele>
        <time>2023-08-24T06:28:52.864Z</time>
      </trkpt>
      <trkpt lat="43.67217" lon="1.45365">
        <ele>132.9</ele>
        <time>2023-08-24T06:28:55.075Z</time>
      </trkpt>
      <trkpt lat="43.6722" lon="1.45363">
        <ele>133.03</ele>
        <time>2023-08-24T06:28:56.073Z</time>
      </trkpt>
      <trkpt lat="43.67224" lon="1.4536">
        <ele>133.08</ele>
        <time>2023-08-24T06:28:57.078Z</time>
      </trkpt>
      <trkpt lat="43.67234" lon="1.45351">
        <ele>133.12</ele>
        <time>2023-08-24T06:28:59.085Z</time>
      </trkpt>
      <trkpt lat="43.67236" lon="1.45349">
        <ele>133.26</ele>
        <time>2023-08-24T06:28:59.653Z</time>
      </trkpt>
      <trkpt lat="43.67239" lon="1.45347">
        <ele>133.38</ele>
        <time>2023-08-24T06:29:00.944Z</time>
      </trkpt>
      <trkpt lat="43.67242" lon="1.45345">
        <ele>133.52</ele>
        <time>2023-08-24T06:29:01.662Z</time>
      </trkpt>
      <trkpt lat="43.67246" lon="1.45342">
        <ele>133.68</ele>
        <time>2023-08-24T06:29:03.877Z</time>
      </trkpt>
      <trkpt lat="43.6725" lon="1.4534">
        <ele>133.88</ele>
        <time>2023-08-24T06:29:04.898Z</time>
      </trkpt>
      <trkpt lat="43.67258" lon="1.45336">
        <ele>134.07</ele>
        <time>2023-08-24T06:29:06.070Z</time>
      </trkpt>
      <trkpt lat="43.67262" lon="1.45333">
        <ele>134.27</ele>
        <time>2023-08-24T06:29:07.070Z</time>
      </trkpt>
      <trkpt lat="43.67267" lon="1.4533">
        <ele>134.35</ele>
        <time>2023-08-24T06:29:08.076Z</time>
      </trkpt>
      <trkpt lat="43.67273" lon="1.45325">
        <ele>134.38</ele>
        <time>2023-08-24T06:29:09.079Z</time>
      </trkpt>
      <trkpt lat="43.67279" lon="1.4532">
        <ele>134.41</ele>
        <time>2023-08-24T06:29:10.083Z</time>
      </trkpt>
      <trkpt lat="43.67285" lon="1.45315">
        <ele>134.38</ele>
        <time>2023-08-24T06:29:11.070Z</time>
      </trkpt>
      <trkpt lat="43.6729" lon="1.45311">
        <ele>134.34</ele>
        <time>2023-08-24T06:29:12.088Z</time>
      </trkpt>
      <trkpt lat="43.67295" lon="1.45308">
        <ele>134.28</ele>
        <time>2023-08-24T06:29:13.092Z</time>
      </trkpt>
      <trkpt lat="43.673" lon="1.45306">
        <ele>134.28</ele>
        <time>2023-08-24T06:29:14.070Z</time>
      </trkpt>
      <trkpt lat="43.67306" lon="1.45303">
        <ele>134.25</ele>
        <time>2023-08-24T06:29:15.070Z</time>
      </trkpt>
      <trkpt lat="43.67311" lon="1.453">
        <ele>134.23</ele>
        <time>2023-08-24T06:29:15.148Z</time>
      </trkpt>
      <trkpt lat="43.67316" lon="1.45298">
        <ele>134.20999</ele>
        <time>2023-08-24T06:29:16.870Z</time>
      </trkpt>
      <trkpt lat="43.67322" lon="1.45297">
        <ele>134.20999</ele>
        <time>2023-08-24T06:29:18.087Z</time>
      </trkpt>
      <trkpt lat="43.67328" lon="1.45297">
        <ele>134.13</ele>
        <time>2023-08-24T06:29:19.071Z</time>
      </trkpt>
      <trkpt lat="43.67334" lon="1.45298">
        <ele>134.05</ele>
        <time>2023-08-24T06:29:20.074Z</time>
      </trkpt>
      <trkpt lat="43.67341" lon="1.453">
        <ele>134</ele>
        <time>2023-08-24T06:29:21.073Z</time>
      </trkpt>
      <trkpt lat="43.67347" lon="1.45302">
        <ele>133.95999</ele>
        <time>2023-08-24T06:29:22.071Z</time>
      </trkpt>
      <trkpt lat="43.67353" lon="1.45304">
        <ele>133.95999</ele>
        <time>2023-08-24T06:29:23.075Z</time>
      </trkpt>
      <trkpt lat="43.67359" lon="1.45305">
        <ele>133.97</ele>
        <time>2023-08-24T06:29:23.856Z</time>
      </trkpt>
      <trkpt lat="43.67366" lon="1.45306">
        <ele>133.95999</ele>
        <time>2023-08-24T06:29:25.081Z</time>
      </trkpt>
      <trkpt lat="43.67372" lon="1.45307">
        <ele>133.97</ele>
        <time>2023-08-24T06:29:26.082Z</time>
      </trkpt>
      <trkpt lat="43.67378" lon="1.45305">
        <ele>133.98</ele>
        <time>2023-08-24T06:29:27.072Z</time>
      </trkpt>
      <trkpt lat="43.67384" lon="1.45303">
        <ele>134</ele>
        <time>2023-08-24T06:29:28.070Z</time>
      </trkpt>
      <trkpt lat="43.6739" lon="1.45301">
        <ele>133.99</ele>
        <time>2023-08-24T06:29:29.070Z</time>
      </trkpt>
      <trkpt lat="43.67396" lon="1.45299">
        <ele>134.01</ele>
        <time>2023-08-24T06:29:30.070Z</time>
      </trkpt>
      <trkpt lat="43.67402" lon="1.45295">
        <ele>134.05</ele>
        <time>2023-08-24T06:29:31.078Z</time>
      </trkpt>
      <trkpt lat="43.67408" lon="1.45292">
        <ele>134.06</ele>
        <time>2023-08-24T06:29:32.083Z</time>
      </trkpt>
      <trkpt lat="43.67414" lon="1.45288">
        <ele>134.09</ele>
        <time>2023-08-24T06:29:33.069Z</time>
      </trkpt>
      <trkpt lat="43.67419" lon="1.45285">
        <ele>134.06</ele>
        <time>2023-08-24T06:29:34.071Z</time>
      </trkpt>
      <trkpt lat="43.67425" lon="1.45283">
        <ele>134.05</ele>
        <time>2023-08-24T06:29:35.071Z</time>
      </trkpt>
      <trkpt lat="43.6743" lon="1.45282">
        <ele>134.06</ele>
        <time>2023-08-24T06:29:36.069Z</time>
      </trkpt>
      <trkpt lat="43.67434" lon="1.45286">
        <ele>134.09</ele>
        <time>2023-08-24T06:29:37.069Z</time>
      </trkpt>
      <trkpt lat="43.67439" lon="1.45291">
        <ele>134.07</ele>
        <time>2023-08-24T06:29:38.080Z</time>
      </trkpt>
      <trkpt lat="43.67442" lon="1.45297">
        <ele>134.07</ele>
        <time>2023-08-24T06:29:39.095Z</time>
      </trkpt>
      <trkpt lat="43.67446" lon="1.45304">
        <ele>134.07</ele>
        <time>2023-08-24T06:29:40.069Z</time>
      </trkpt>
      <trkpt lat="43.67449" lon="1.4531">
        <ele>134.08</ele>
        <time>2023-08-24T06:29:41.086Z</time>
      </trkpt>
      <trkpt lat="43.67452" lon="1.45317">
        <ele>134.07</ele>
        <time>2023-08-24T06:29:42.071Z</time>
      </trkpt>
      <trkpt lat="43.67456" lon="1.45324">
        <ele>134.04001</ele>
        <time>2023-08-24T06:29:43.075Z</time>
      </trkpt>
      <trkpt lat="43.67459" lon="1.4533">
        <ele>134.07</ele>
        <time>2023-08-24T06:29:44.074Z</time>
      </trkpt>
      <trkpt lat="43.67462" lon="1.45337">
        <ele>134.09</ele>
        <time>2023-08-24T06:29:45.069Z</time>
      </trkpt>
      <trkpt lat="43.67464" lon="1.45345">
        <ele>134.11</ele>
        <time>2023-08-24T06:29:46.090Z</time>
      </trkpt>
      <trkpt lat="43.67467" lon="1.45352">
        <ele>134.14</ele>
        <time>2023-08-24T06:29:47.103Z</time>
      </trkpt>
      <trkpt lat="43.6747" lon="1.45359">
        <ele>134.18</ele>
        <time>2023-08-24T06:29:48.074Z</time>
      </trkpt>
      <trkpt lat="43.67474" lon="1.45364">
        <ele>134.22</ele>
        <time>2023-08-24T06:29:49.073Z</time>
      </trkpt>
      <trkpt lat="43.67478" lon="1.45369">
        <ele>134.29001</ele>
        <time>2023-08-24T06:29:50.085Z</time>
      </trkpt>
      <trkpt lat="43.67482" lon="1.45374">
        <ele>134.32</ele>
        <time>2023-08-24T06:29:51.088Z</time>
      </trkpt>
      <trkpt lat="43.67487" lon="1.45378">
        <ele>134.38</ele>
        <time>2023-08-24T06:29:52.078Z</time>
      </trkpt>
      <trkpt lat="43.67493" lon="1.45382">
        <ele>134.44</ele>
        <time>2023-08-24T06:29:53.084Z</time>
      </trkpt>
      <trkpt lat="43.67498" lon="1.45382">
        <ele>134.48</ele>
        <time>2023-08-24T06:29:54.088Z</time>
      </trkpt>
      <trkpt lat="43.67503" lon="1.45381">
        <ele>134.56</ele>
        <time>2023-08-24T06:29:55.083Z</time>
      </trkpt>
      <trkpt lat="43.67508" lon="1.45377">
        <ele>134.57</ele>
        <time>2023-08-24T06:29:56.169Z</time>
      </trkpt>
      <trkpt lat="43.67513" lon="1.45372">
        <ele>134.56</ele>
        <time>2023-08-24T06:29:56.754Z</time>
      </trkpt>
      <trkpt lat="43.67517" lon="1.45367">
        <ele>134.56</ele>
        <time>2023-08-24T06:29:58.170Z</time>
      </trkpt>
      <trkpt lat="43.67521" lon="1.4536">
        <ele>134.55</ele>
        <time>2023-08-24T06:29:58.770Z</time>
      </trkpt>
      <trkpt lat="43.67525" lon="1.45354">
        <ele>134.57</ele>
        <time>2023-08-24T06:29:59.800Z</time>
      </trkpt>
      <trkpt lat="43.6753" lon="1.45349">
        <ele>134.6</ele>
        <time>2023-08-24T06:30:01.169Z</time>
      </trkpt>
      <trkpt lat="43.67536" lon="1.45345">
        <ele>134.58</ele>
        <time>2023-08-24T06:30:02.025Z</time>
      </trkpt>
      <trkpt lat="43.67541" lon="1.45342">
        <ele>134.54001</ele>
        <time>2023-08-24T06:30:03.169Z</time>
      </trkpt>
      <trkpt lat="43.67546" lon="1.45339">
        <ele>134.56</ele>
        <time>2023-08-24T06:30:04.169Z</time>
      </trkpt>
      <trkpt lat="43.67551" lon="1.45339">
        <ele>134.57</ele>
        <time>2023-08-24T06:30:05.083Z</time>
      </trkpt>
      <trkpt lat="43.67555" lon="1.4534">
        <ele>134.6</ele>
        <time>2023-08-24T06:30:06.089Z</time>
      </trkpt>
      <trkpt lat="43.67559" lon="1.45339">
        <ele>134.73</ele>
        <time>2023-08-24T06:30:07.071Z</time>
      </trkpt>
      <trkpt lat="43.67561" lon="1.45338">
        <ele>134.81</ele>
        <time>2023-08-24T06:30:08.169Z</time>
      </trkpt>
      <trkpt lat="43.67564" lon="1.45336">
        <ele>134.83</ele>
        <time>2023-08-24T06:30:09.168Z</time>
      </trkpt>
      <trkpt lat="43.67569" lon="1.45334">
        <ele>134.86</ele>
        <time>2023-08-24T06:30:10.087Z</time>
      </trkpt>
      <trkpt lat="43.67574" lon="1.4533">
        <ele>134.9</ele>
        <time>2023-08-24T06:30:11.169Z</time>
      </trkpt>
      <trkpt lat="43.6758" lon="1.45327">
        <ele>134.93</ele>
        <time>2023-08-24T06:30:12.068Z</time>
      </trkpt>
      <trkpt lat="43.67585" lon="1.45324">
        <ele>134.97</ele>
        <time>2023-08-24T06:30:13.175Z</time>
      </trkpt>
      <trkpt lat="43.67592" lon="1.4532">
        <ele>135.01</ele>
        <time>2023-08-24T06:30:14.085Z</time>
      </trkpt>
      <trkpt lat="43.67598" lon="1.45318">
        <ele>135</ele>
        <time>2023-08-24T06:30:15.178Z</time>
      </trkpt>
      <trkpt lat="43.67603" lon="1.45316">
        <ele>135</ele>
        <time>2023-08-24T06:30:16.069Z</time>
      </trkpt>
      <trkpt lat="43.67609" lon="1.45314">
        <ele>135</ele>
        <time>2023-08-24T06:30:17.088Z</time>
      </trkpt>
      <trkpt lat="43.67614" lon="1.45313">
        <ele>135.03</ele>
        <time>2023-08-24T06:30:18.184Z</time>
      </trkpt>
      <trkpt lat="43.6762" lon="1.45312">
        <ele>135.06</ele>
        <time>2023-08-24T06:30:19.180Z</time>
      </trkpt>
      <trkpt lat="43.67625" lon="1.45312">
        <ele>135.1</ele>
        <time>2023-08-24T06:30:20.183Z</time>
      </trkpt>
      <trkpt lat="43.6763" lon="1.45312">
        <ele>135.14</ele>
        <time>2023-08-24T06:30:21.177Z</time>
      </trkpt>
      <trkpt lat="43.67635" lon="1.45311">
        <ele>135.13</ele>
        <time>2023-08-24T06:30:22.177Z</time>
      </trkpt>
      <trkpt lat="43.6764" lon="1.45309">
        <ele>135.15</ele>
        <time>2023-08-24T06:30:23.172Z</time>
      </trkpt>
      <trkpt lat="43.67643" lon="1.45308">
        <ele>135.15</ele>
        <time>2023-08-24T06:30:24.190Z</time>
      </trkpt>
      <trkpt lat="43.67647" lon="1.45307">
        <ele>135.14</ele>
        <time>2023-08-24T06:30:25.063Z</time>
      </trkpt>
      <trkpt lat="43.67651" lon="1.45307">
        <ele>135.09</ele>
        <time>2023-08-24T06:30:26.169Z</time>
      </trkpt>
      <trkpt lat="43.67655" lon="1.45309">
        <ele>135.02</ele>
        <time>2023-08-24T06:30:27.170Z</time>
      </trkpt>
      <trkpt lat="43.6766" lon="1.45312">
        <ele>134.98</ele>
        <time>2023-08-24T06:30:28.186Z</time>
      </trkpt>
      <trkpt lat="43.67665" lon="1.45314">
        <ele>134.93</ele>
        <time>2023-08-24T06:30:28.955Z</time>
      </trkpt>
      <trkpt lat="43.6767" lon="1.45316">
        <ele>134.92</ele>
        <time>2023-08-24T06:30:30.168Z</time>
      </trkpt>
      <trkpt lat="43.67676" lon="1.45317">
        <ele>134.89</ele>
        <time>2023-08-24T06:30:31.176Z</time>
      </trkpt>
      <trkpt lat="43.6768" lon="1.45318">
        <ele>134.79001</ele>
        <time>2023-08-24T06:30:32.171Z</time>
      </trkpt>
      <trkpt lat="43.67686" lon="1.45319">
        <ele>134.74</ele>
        <time>2023-08-24T06:30:33.168Z</time>
      </trkpt>
      <trkpt lat="43.67691" lon="1.45319">
        <ele>134.72</ele>
        <time>2023-08-24T06:30:34.172Z</time>
      </trkpt>
      <trkpt lat="43.67696" lon="1.4532">
        <ele>134.7</ele>
        <time>2023-08-24T06:30:35.184Z</time>
      </trkpt>
      <trkpt lat="43.677" lon="1.45322">
        <ele>134.70999</ele>
        <time>2023-08-24T06:30:36.187Z</time>
      </trkpt>
      <trkpt lat="43.67702" lon="1.45322">
        <ele>134.70999</ele>
        <time>2023-08-24T06:30:37.070Z</time>
      </trkpt>
      <trkpt lat="43.67706" lon="1.45324">
        <ele>134.67</ele>
        <time>2023-08-24T06:30:38.262Z</time>
      </trkpt>
      <trkpt lat="43.6771" lon="1.45327">
        <ele>134.69</ele>
        <time>2023-08-24T06:30:40.167Z</time>
      </trkpt>
      <trkpt lat="43.67717" lon="1.4533">
        <ele>134.67</ele>
        <time>2023-08-24T06:30:41.167Z</time>
      </trkpt>
      <trkpt lat="43.67721" lon="1.45333">
        <ele>134.55</ele>
        <time>2023-08-24T06:30:42.182Z</time>
      </trkpt>
      <trkpt lat="43.67725" lon="1.45336">
        <ele>134.51</ele>
        <time>2023-08-24T06:30:43.177Z</time>
      </trkpt>
      <trkpt lat="43.67729" lon="1.4534">
        <ele>134.48</ele>
        <time>2023-08-24T06:30:44.185Z</time>
      </trkpt>
      <trkpt lat="43.67736" lon="1.45345">
        <ele>134.48</ele>
        <time>2023-08-24T06:30:45.201Z</time>
      </trkpt>
      <trkpt lat="43.67741" lon="1.45349">
        <ele>134.45</ele>
        <time>2023-08-24T06:30:46.199Z</time>
      </trkpt>
      <trkpt lat="43.67746" lon="1.45353">
        <ele>134.45</ele>
        <time>2023-08-24T06:30:46.961Z</time>
      </trkpt>
      <trkpt lat="43.67751" lon="1.45356">
        <ele>134.44</ele>
        <time>2023-08-24T06:30:48.170Z</time>
      </trkpt>
      <trkpt lat="43.67756" lon="1.45359">
        <ele>134.45</ele>
        <time>2023-08-24T06:30:49.168Z</time>
      </trkpt>
      <trkpt lat="43.6776" lon="1.45362">
        <ele>134.43</ele>
        <time>2023-08-24T06:30:49.950Z</time>
      </trkpt>
      <trkpt lat="43.67764" lon="1.45365">
        <ele>134.42</ele>
        <time>2023-08-24T06:30:51.167Z</time>
      </trkpt>
      <trkpt lat="43.67769" lon="1.45369">
        <ele>134.45999</ele>
        <time>2023-08-24T06:30:52.168Z</time>
      </trkpt>
      <trkpt lat="43.67774" lon="1.45373">
        <ele>134.45999</ele>
        <time>2023-08-24T06:30:53.168Z</time>
      </trkpt>
      <trkpt lat="43.67779" lon="1.45377">
        <ele>134.5</ele>
        <time>2023-08-24T06:30:54.184Z</time>
      </trkpt>
      <trkpt lat="43.67785" lon="1.45381">
        <ele>134.54001</ele>
        <time>2023-08-24T06:30:55.174Z</time>
      </trkpt>
      <trkpt lat="43.67789" lon="1.45384">
        <ele>134.53</ele>
        <time>2023-08-24T06:30:56.169Z</time>
      </trkpt>
      <trkpt lat="43.67794" lon="1.45388">
        <ele>134.54001</ele>
        <time>2023-08-24T06:30:56.291Z</time>
      </trkpt>
      <trkpt lat="43.67799" lon="1.45392">
        <ele>134.57</ele>
        <time>2023-08-24T06:30:58.170Z</time>
      </trkpt>
      <trkpt lat="43.67803" lon="1.45394">
        <ele>134.59</ele>
        <time>2023-08-24T06:30:59.174Z</time>
      </trkpt>
      <trkpt lat="43.67807" lon="1.45397">
        <ele>134.64</ele>
        <time>2023-08-24T06:31:00.168Z</time>
      </trkpt>
      <trkpt lat="43.67812" lon="1.45399">
        <ele>134.64</ele>
        <time>2023-08-24T06:31:01.190Z</time>
      </trkpt>
      <trkpt lat="43.67816" lon="1.45403">
        <ele>134.68</ele>
        <time>2023-08-24T06:31:02.170Z</time>
      </trkpt>
      <trkpt lat="43.67819" lon="1.45407">
        <ele>134.70999</ele>
        <time>2023-08-24T06:31:03.191Z</time>
      </trkpt>
      <trkpt lat="43.67823" lon="1.45412">
        <ele>134.75</ele>
        <time>2023-08-24T06:31:04.179Z</time>
      </trkpt>
      <trkpt lat="43.67827" lon="1.45416">
        <ele>134.8</ele>
        <time>2023-08-24T06:31:05.182Z</time>
      </trkpt>
      <trkpt lat="43.67831" lon="1.45419">
        <ele>134.83</ele>
        <time>2023-08-24T06:31:06.197Z</time>
      </trkpt>
      <trkpt lat="43.67836" lon="1.45423">
        <ele>134.86</ele>
        <time>2023-08-24T06:31:06.240Z</time>
      </trkpt>
      <trkpt lat="43.6784" lon="1.45426">
        <ele>134.88</ele>
        <time>2023-08-24T06:31:07.774Z</time>
      </trkpt>
      <trkpt lat="43.67845" lon="1.45429">
        <ele>134.9</ele>
        <time>2023-08-24T06:31:08.249Z</time>
      </trkpt>
      <trkpt lat="43.67848" lon="1.45431">
        <ele>134.95999</ele>
        <time>2023-08-24T06:31:09.789Z</time>
      </trkpt>
      <trkpt lat="43.67852" lon="1.45433">
        <ele>135.03</ele>
        <time>2023-08-24T06:31:10.260Z</time>
      </trkpt>
      <trkpt lat="43.67855" lon="1.45433">
        <ele>135.06</ele>
        <time>2023-08-24T06:31:11.804Z</time>
      </trkpt>
      <trkpt lat="43.67859" lon="1.45432">
        <ele>135.16</ele>
        <time>2023-08-24T06:31:12.767Z</time>
      </trkpt>
      <trkpt lat="43.67863" lon="1.45431">
        <ele>135.28</ele>
        <time>2023-08-24T06:31:13.810Z</time>
      </trkpt>
      <trkpt lat="43.67866" lon="1.45428">
        <ele>135.39</ele>
        <time>2023-08-24T06:31:15.168Z</time>
      </trkpt>
      <trkpt lat="43.67869" lon="1.45428">
        <ele>135.49</ele>
        <time>2023-08-24T06:31:15.956Z</time>
      </trkpt>
      <trkpt lat="43.67871" lon="1.45428">
        <ele>135.6</ele>
        <time>2023-08-24T06:31:17.170Z</time>
      </trkpt>
      <trkpt lat="43.67873" lon="1.45429">
        <ele>135.66</ele>
        <time>2023-08-24T06:31:17.286Z</time>
      </trkpt>
      <trkpt lat="43.67879" lon="1.45428">
        <ele>135.74</ele>
        <time>2023-08-24T06:31:20.171Z</time>
      </trkpt>
      <trkpt lat="43.67884" lon="1.45426">
        <ele>135.88</ele>
        <time>2023-08-24T06:31:22.189Z</time>
      </trkpt>
      <trkpt lat="43.67888" lon="1.45422">
        <ele>135.91</ele>
        <time>2023-08-24T06:31:23.178Z</time>
      </trkpt>
      <trkpt lat="43.67891" lon="1.45419">
        <ele>135.93</ele>
        <time>2023-08-24T06:31:24.151Z</time>
      </trkpt>
      <trkpt lat="43.67896" lon="1.45414">
        <ele>135.95999</ele>
        <time>2023-08-24T06:31:25.172Z</time>
      </trkpt>
      <trkpt lat="43.679" lon="1.4541">
        <ele>136.01</ele>
        <time>2023-08-24T06:31:26.176Z</time>
      </trkpt>
      <trkpt lat="43.67905" lon="1.45407">
        <ele>136</ele>
        <time>2023-08-24T06:31:27.201Z</time>
      </trkpt>
      <trkpt lat="43.6791" lon="1.45403">
        <ele>136.02</ele>
        <time>2023-08-24T06:31:28.186Z</time>
      </trkpt>
      <trkpt lat="43.67915" lon="1.45399">
        <ele>136.01</ele>
        <time>2023-08-24T06:31:29.181Z</time>
      </trkpt>
      <trkpt lat="43.6792" lon="1.45395">
        <ele>136.05</ele>
        <time>2023-08-24T06:31:30.193Z</time>
      </trkpt>
      <trkpt lat="43.67925" lon="1.45391">
        <ele>136.03</ele>
        <time>2023-08-24T06:31:31.199Z</time>
      </trkpt>
      <trkpt lat="43.67929" lon="1.45387">
        <ele>136.05</ele>
        <time>2023-08-24T06:31:32.178Z</time>
      </trkpt>
      <trkpt lat="43.67934" lon="1.45384">
        <ele>136.07</ele>
        <time>2023-08-24T06:31:33.190Z</time>
      </trkpt>
      <trkpt lat="43.67939" lon="1.45381">
        <ele>136.01</ele>
        <time>2023-08-24T06:31:34.171Z</time>
      </trkpt>
      <trkpt lat="43.67944" lon="1.45377">
        <ele>136</ele>
        <time>2023-08-24T06:31:35.174Z</time>
      </trkpt>
      <trkpt lat="43.67949" lon="1.45375">
        <ele>136</ele>
        <time>2023-08-24T06:31:35.978Z</time>
      </trkpt>
      <trkpt lat="43.67955" lon="1.45372">
        <ele>135.97</ele>
        <time>2023-08-24T06:31:37.168Z</time>
      </trkpt>
      <trkpt lat="43.6796" lon="1.4537">
        <ele>135.99</ele>
        <time>2023-08-24T06:31:38.179Z</time>
      </trkpt>
      <trkpt lat="43.67965" lon="1.45367">
        <ele>136.03</ele>
        <time>2023-08-24T06:31:39.193Z</time>
      </trkpt>
      <trkpt lat="43.6797" lon="1.45364">
        <ele>136.06</ele>
        <time>2023-08-24T06:31:40.172Z</time>
      </trkpt>
      <trkpt lat="43.67974" lon="1.45361">
        <ele>136.09</ele>
        <time>2023-08-24T06:31:41.176Z</time>
      </trkpt>
      <trkpt lat="43.67979" lon="1.45357">
        <ele>136.07</ele>
        <time>2023-08-24T06:31:42.180Z</time>
      </trkpt>
      <trkpt lat="43.67984" lon="1.45353">
        <ele>136.08</ele>
        <time>2023-08-24T06:31:43.171Z</time>
      </trkpt>
      <trkpt lat="43.67989" lon="1.45349">
        <ele>136.11</ele>
        <time>2023-08-24T06:31:44.173Z</time>
      </trkpt>
      <trkpt lat="43.67993" lon="1.45346">
        <ele>136.07</ele>
        <time>2023-08-24T06:31:45.180Z</time>
      </trkpt>
      <trkpt lat="43.67998" lon="1.45342">
        <ele>136.09</ele>
        <time>2023-08-24T06:31:46.182Z</time>
      </trkpt>
      <trkpt lat="43.68003" lon="1.45339">
        <ele>136.1</ele>
        <time>2023-08-24T06:31:47.186Z</time>
      </trkpt>
      <trkpt lat="43.68008" lon="1.45335">
        <ele>136.18</ele>
        <time>2023-08-24T06:31:48.204Z</time>
      </trkpt>
      <trkpt lat="43.68013" lon="1.45332">
        <ele>136.22</ele>
        <time>2023-08-24T06:31:49.265Z</time>
      </trkpt>
      <trkpt lat="43.68017" lon="1.45328">
        <ele>136.27</ele>
        <time>2023-08-24T06:31:49.819Z</time>
      </trkpt>
      <trkpt lat="43.68022" lon="1.45324">
        <ele>136.32</ele>
        <time>2023-08-24T06:31:50.806Z</time>
      </trkpt>
      <trkpt lat="43.68026" lon="1.45321">
        <ele>136.36</ele>
        <time>2023-08-24T06:31:52.192Z</time>
      </trkpt>
      <trkpt lat="43.68031" lon="1.45317">
        <ele>136.41</ele>
        <time>2023-08-24T06:31:53.268Z</time>
      </trkpt>
      <trkpt lat="43.68036" lon="1.45313">
        <ele>136.4</ele>
        <time>2023-08-24T06:31:54.265Z</time>
      </trkpt>
      <trkpt lat="43.68041" lon="1.45309">
        <ele>136.41</ele>
        <time>2023-08-24T06:31:54.827Z</time>
      </trkpt>
      <trkpt lat="43.68046" lon="1.45305">
        <ele>136.45</ele>
        <time>2023-08-24T06:31:56.204Z</time>
      </trkpt>
      <trkpt lat="43.6805" lon="1.45301">
        <ele>136.48</ele>
        <time>2023-08-24T06:31:57.191Z</time>
      </trkpt>
      <trkpt lat="43.68055" lon="1.45297">
        <ele>136.45999</ele>
        <time>2023-08-24T06:31:58.169Z</time>
      </trkpt>
      <trkpt lat="43.6806" lon="1.45292">
        <ele>136.48</ele>
        <time>2023-08-24T06:31:59.195Z</time>
      </trkpt>
      <trkpt lat="43.68066" lon="1.45288">
        <ele>136.5</ele>
        <time>2023-08-24T06:32:00.205Z</time>
      </trkpt>
      <trkpt lat="43.68071" lon="1.45283">
        <ele>136.48</ele>
        <time>2023-08-24T06:32:01.267Z</time>
      </trkpt>
      <trkpt lat="43.68076" lon="1.45279">
        <ele>136.49</ele>
        <time>2023-08-24T06:32:02.002Z</time>
      </trkpt>
      <trkpt lat="43.68082" lon="1.45274">
        <ele>136.51</ele>
        <time>2023-08-24T06:32:02.924Z</time>
      </trkpt>
      <trkpt lat="43.68087" lon="1.45269">
        <ele>136.52</ele>
        <time>2023-08-24T06:32:04.169Z</time>
      </trkpt>
      <trkpt lat="43.68093" lon="1.45264">
        <ele>136.45</ele>
        <time>2023-08-24T06:32:05.222Z</time>
      </trkpt>
      <trkpt lat="43.68098" lon="1.45259">
        <ele>136.48</ele>
        <time>2023-08-24T06:32:06.173Z</time>
      </trkpt>
      <trkpt lat="43.68103" lon="1.45255">
        <ele>136.49</ele>
        <time>2023-08-24T06:32:07.277Z</time>
      </trkpt>
      <trkpt lat="43.68109" lon="1.4525">
        <ele>136.51</ele>
        <time>2023-08-24T06:32:07.931Z</time>
      </trkpt>
      <trkpt lat="43.68114" lon="1.45245">
        <ele>136.45</ele>
        <time>2023-08-24T06:32:08.994Z</time>
      </trkpt>
      <trkpt lat="43.6812" lon="1.4524">
        <ele>136.43</ele>
        <time>2023-08-24T06:32:10.268Z</time>
      </trkpt>
      <trkpt lat="43.68125" lon="1.45235">
        <ele>136.47</ele>
        <time>2023-08-24T06:32:11.110Z</time>
      </trkpt>
      <trkpt lat="43.6813" lon="1.4523">
        <ele>136.47</ele>
        <time>2023-08-24T06:32:12.170Z</time>
      </trkpt>
      <trkpt lat="43.68135" lon="1.45226">
        <ele>136.5</ele>
        <time>2023-08-24T06:32:13.270Z</time>
      </trkpt>
      <trkpt lat="43.68141" lon="1.45221">
        <ele>136.48</ele>
        <time>2023-08-24T06:32:14.202Z</time>
      </trkpt>
      <trkpt lat="43.68146" lon="1.45216">
        <ele>136.45</ele>
        <time>2023-08-24T06:32:15.193Z</time>
      </trkpt>
      <trkpt lat="43.68151" lon="1.45211">
        <ele>136.43</ele>
        <time>2023-08-24T06:32:16.214Z</time>
      </trkpt>
      <trkpt lat="43.68156" lon="1.45206">
        <ele>136.41</ele>
        <time>2023-08-24T06:32:17.191Z</time>
      </trkpt>
      <trkpt lat="43.6816" lon="1.45204">
        <ele>136.44</ele>
        <time>2023-08-24T06:32:18.271Z</time>
      </trkpt>
      <trkpt lat="43.68164" lon="1.45205">
        <ele>136.48</ele>
        <time>2023-08-24T06:32:19.207Z</time>
      </trkpt>
      <trkpt lat="43.68167" lon="1.4521">
        <ele>136.51</ele>
        <time>2023-08-24T06:32:20.269Z</time>
      </trkpt>
      <trkpt lat="43.6817" lon="1.45216">
        <ele>136.48</ele>
        <time>2023-08-24T06:32:21.285Z</time>
      </trkpt>
      <trkpt lat="43.68172" lon="1.45223">
        <ele>136.42</ele>
        <time>2023-08-24T06:32:22.189Z</time>
      </trkpt>
      <trkpt lat="43.68174" lon="1.4523">
        <ele>136.42</ele>
        <time>2023-08-24T06:32:23.285Z</time>
      </trkpt>
      <trkpt lat="43.68175" lon="1.45238">
        <ele>136.42</ele>
        <time>2023-08-24T06:32:24.269Z</time>
      </trkpt>
      <trkpt lat="43.68177" lon="1.45244">
        <ele>136.41</ele>
        <time>2023-08-24T06:32:25.185Z</time>
      </trkpt>
      <trkpt lat="43.68179" lon="1.45252">
        <ele>136.41</ele>
        <time>2023-08-24T06:32:26.275Z</time>
      </trkpt>
      <trkpt lat="43.6818" lon="1.45259">
        <ele>136.39</ele>
        <time>2023-08-24T06:32:27.271Z</time>
      </trkpt>
      <trkpt lat="43.68182" lon="1.45266">
        <ele>136.4</ele>
        <time>2023-08-24T06:32:28.008Z</time>
      </trkpt>
      <trkpt lat="43.68184" lon="1.45273">
        <ele>136.41</ele>
        <time>2023-08-24T06:32:29.270Z</time>
      </trkpt>
      <trkpt lat="43.68186" lon="1.45281">
        <ele>136.39</ele>
        <time>2023-08-24T06:32:30.277Z</time>
      </trkpt>
      <trkpt lat="43.68188" lon="1.45288">
        <ele>136.35</ele>
        <time>2023-08-24T06:32:31.173Z</time>
      </trkpt>
      <trkpt lat="43.6819" lon="1.45296">
        <ele>136.33</ele>
        <time>2023-08-24T06:32:32.197Z</time>
      </trkpt>
      <trkpt lat="43.68192" lon="1.45303">
        <ele>136.34</ele>
        <time>2023-08-24T06:32:33.274Z</time>
      </trkpt>
      <trkpt lat="43.68193" lon="1.4531">
        <ele>136.3</ele>
        <time>2023-08-24T06:32:34.274Z</time>
      </trkpt>
      <trkpt lat="43.68195" lon="1.45318">
        <ele>136.28</ele>
        <time>2023-08-24T06:32:35.277Z</time>
      </trkpt>
      <trkpt lat="43.68197" lon="1.45325">
        <ele>136.33</ele>
        <time>2023-08-24T06:32:36.290Z</time>
      </trkpt>
      <trkpt lat="43.68199" lon="1.45333">
        <ele>136.34</ele>
        <time>2023-08-24T06:32:37.294Z</time>
      </trkpt>
      <trkpt lat="43.68201" lon="1.45341">
        <ele>136.36</ele>
        <time>2023-08-24T06:32:38.290Z</time>
      </trkpt>
      <trkpt lat="43.68203" lon="1.45349">
        <ele>136.38</ele>
        <time>2023-08-24T06:32:39.228Z</time>
      </trkpt>
      <trkpt lat="43.68204" lon="1.45356">
        <ele>136.45999</ele>
        <time>2023-08-24T06:32:40.296Z</time>
      </trkpt>
      <trkpt lat="43.68207" lon="1.45364">
        <ele>136.56</ele>
        <time>2023-08-24T06:32:41.290Z</time>
      </trkpt>
      <trkpt lat="43.68209" lon="1.45371">
        <ele>136.66</ele>
        <time>2023-08-24T06:32:42.216Z</time>
      </trkpt>
      <trkpt lat="43.68211" lon="1.45379">
        <ele>136.78</ele>
        <time>2023-08-24T06:32:43.186Z</time>
      </trkpt>
      <trkpt lat="43.68213" lon="1.45386">
        <ele>136.86</ele>
        <time>2023-08-24T06:32:44.287Z</time>
      </trkpt>
      <trkpt lat="43.68215" lon="1.45393">
        <ele>136.92</ele>
        <time>2023-08-24T06:32:45.283Z</time>
      </trkpt>
      <trkpt lat="43.68217" lon="1.45401">
        <ele>136.97</ele>
        <time>2023-08-24T06:32:46.107Z</time>
      </trkpt>
      <trkpt lat="43.68219" lon="1.45408">
        <ele>137.1</ele>
        <time>2023-08-24T06:32:47.289Z</time>
      </trkpt>
      <trkpt lat="43.68221" lon="1.45415">
        <ele>137.18</ele>
        <time>2023-08-24T06:32:48.190Z</time>
      </trkpt>
      <trkpt lat="43.68221" lon="1.45419">
        <ele>137.28</ele>
        <time>2023-08-24T06:32:49.293Z</time>
      </trkpt>
      <trkpt lat="43.68224" lon="1.45431">
        <ele>137.36</ele>
        <time>2023-08-24T06:32:50.240Z</time>
      </trkpt>
      <trkpt lat="43.68227" lon="1.45437">
        <ele>137.45999</ele>
        <time>2023-08-24T06:32:51.204Z</time>
      </trkpt>
      <trkpt lat="43.68229" lon="1.45445">
        <ele>137.6</ele>
        <time>2023-08-24T06:32:52.300Z</time>
      </trkpt>
      <trkpt lat="43.68231" lon="1.45452">
        <ele>137.67</ele>
        <time>2023-08-24T06:32:53.291Z</time>
      </trkpt>
      <trkpt lat="43.68232" lon="1.45454">
        <ele>137.72</ele>
        <time>2023-08-24T06:32:54.306Z</time>
      </trkpt>
      <trkpt lat="43.68236" lon="1.45466">
        <ele>137.76</ele>
        <time>2023-08-24T06:32:55.249Z</time>
      </trkpt>
      <trkpt lat="43.68238" lon="1.45473">
        <ele>137.8</ele>
        <time>2023-08-24T06:32:56.310Z</time>
      </trkpt>
      <trkpt lat="43.6824" lon="1.45481">
        <ele>137.82</ele>
        <time>2023-08-24T06:32:56.997Z</time>
      </trkpt>
      <trkpt lat="43.68242" lon="1.45487">
        <ele>137.82</ele>
        <time>2023-08-24T06:32:58.287Z</time>
      </trkpt>
      <trkpt lat="43.68245" lon="1.45494">
        <ele>137.85</ele>
        <time>2023-08-24T06:32:59.290Z</time>
      </trkpt>
      <trkpt lat="43.68246" lon="1.45501">
        <ele>137.89</ele>
        <time>2023-08-24T06:33:00.265Z</time>
      </trkpt>
      <trkpt lat="43.68247" lon="1.45504">
        <ele>138.01</ele>
        <time>2023-08-24T06:33:01.292Z</time>
      </trkpt>
      <trkpt lat="43.6825" lon="1.45515">
        <ele>138.08</ele>
        <time>2023-08-24T06:33:02.300Z</time>
      </trkpt>
      <trkpt lat="43.68252" lon="1.45522">
        <ele>138.12</ele>
        <time>2023-08-24T06:33:03.254Z</time>
      </trkpt>
      <trkpt lat="43.68254" lon="1.45528">
        <ele>138.18</ele>
        <time>2023-08-24T06:33:04.238Z</time>
      </trkpt>
      <trkpt lat="43.68256" lon="1.45535">
        <ele>138.23</ele>
        <time>2023-08-24T06:33:05.250Z</time>
      </trkpt>
      <trkpt lat="43.68257" lon="1.45539">
        <ele>138.33</ele>
        <time>2023-08-24T06:33:06.297Z</time>
      </trkpt>
      <trkpt lat="43.68259" lon="1.4555">
        <ele>138.43</ele>
        <time>2023-08-24T06:33:07.303Z</time>
      </trkpt>
      <trkpt lat="43.6826" lon="1.45554">
        <ele>138.42</ele>
        <time>2023-08-24T06:33:08.257Z</time>
      </trkpt>
      <trkpt lat="43.68262" lon="1.45563">
        <ele>138.53</ele>
        <time>2023-08-24T06:33:09.321Z</time>
      </trkpt>
      <trkpt lat="43.68264" lon="1.4557">
        <ele>138.6</ele>
        <time>2023-08-24T06:33:10.309Z</time>
      </trkpt>
      <trkpt lat="43.68265" lon="1.45577">
        <ele>138.67</ele>
        <time>2023-08-24T06:33:11.328Z</time>
      </trkpt>
      <trkpt lat="43.68267" lon="1.45584">
        <ele>138.74</ele>
        <time>2023-08-24T06:33:12.302Z</time>
      </trkpt>
      <trkpt lat="43.68269" lon="1.45591">
        <ele>138.81</ele>
        <time>2023-08-24T06:33:13.162Z</time>
      </trkpt>
      <trkpt lat="43.68269" lon="1.45593">
        <ele>138.88</ele>
        <time>2023-08-24T06:33:14.262Z</time>
      </trkpt>
      <trkpt lat="43.68272" lon="1.45605">
        <ele>138.91</ele>
        <time>2023-08-24T06:33:15.308Z</time>
      </trkpt>
      <trkpt lat="43.68273" lon="1.45612">
        <ele>138.9</ele>
        <time>2023-08-24T06:33:16.256Z</time>
      </trkpt>
      <trkpt lat="43.68274" lon="1.45619">
        <ele>138.91</ele>
        <time>2023-08-24T06:33:17.321Z</time>
      </trkpt>
      <trkpt lat="43.68275" lon="1.45626">
        <ele>138.94</ele>
        <time>2023-08-24T06:33:18.298Z</time>
      </trkpt>
      <trkpt lat="43.68277" lon="1.45633">
        <ele>138.92</ele>
        <time>2023-08-24T06:33:19.064Z</time>
      </trkpt>
      <trkpt lat="43.68278" lon="1.45641">
        <ele>138.95</ele>
        <time>2023-08-24T06:33:20.268Z</time>
      </trkpt>
      <trkpt lat="43.68279" lon="1.45648">
        <ele>139.06</ele>
        <time>2023-08-24T06:33:21.316Z</time>
      </trkpt>
      <trkpt lat="43.6828" lon="1.45655">
        <ele>139.11</ele>
        <time>2023-08-24T06:33:22.300Z</time>
      </trkpt>
      <trkpt lat="43.6828" lon="1.45662">
        <ele>139.20999</ele>
        <time>2023-08-24T06:33:23.340Z</time>
      </trkpt>
      <trkpt lat="43.68281" lon="1.45669">
        <ele>139.28</ele>
        <time>2023-08-24T06:33:24.190Z</time>
      </trkpt>
      <trkpt lat="43.68282" lon="1.45676">
        <ele>139.38</ele>
        <time>2023-08-24T06:33:25.279Z</time>
      </trkpt>
      <trkpt lat="43.68282" lon="1.45683">
        <ele>139.45999</ele>
        <time>2023-08-24T06:33:25.869Z</time>
      </trkpt>
      <trkpt lat="43.68282" lon="1.4569">
        <ele>139.57</ele>
        <time>2023-08-24T06:33:26.901Z</time>
      </trkpt>
      <trkpt lat="43.68281" lon="1.45697">
        <ele>139.67</ele>
        <time>2023-08-24T06:33:27.880Z</time>
      </trkpt>
      <trkpt lat="43.68281" lon="1.45704">
        <ele>139.77</ele>
        <time>2023-08-24T06:33:29.330Z</time>
      </trkpt>
      <trkpt lat="43.68281" lon="1.45711">
        <ele>139.82</ele>
        <time>2023-08-24T06:33:29.886Z</time>
      </trkpt>
      <trkpt lat="43.6828" lon="1.45718">
        <ele>139.88</ele>
        <time>2023-08-24T06:33:30.872Z</time>
      </trkpt>
      <trkpt lat="43.6828" lon="1.45725">
        <ele>139.92</ele>
        <time>2023-08-24T06:33:32.313Z</time>
      </trkpt>
      <trkpt lat="43.68279" lon="1.45732">
        <ele>140.04001</ele>
        <time>2023-08-24T06:33:32.882Z</time>
      </trkpt>
      <trkpt lat="43.68279" lon="1.45738">
        <ele>140.17</ele>
        <time>2023-08-24T06:33:34.338Z</time>
      </trkpt>
      <trkpt lat="43.68279" lon="1.45746">
        <ele>140.35</ele>
        <time>2023-08-24T06:33:34.892Z</time>
      </trkpt>
      <trkpt lat="43.68278" lon="1.45753">
        <ele>140.49</ele>
        <time>2023-08-24T06:33:35.871Z</time>
      </trkpt>
      <trkpt lat="43.68277" lon="1.4576">
        <ele>140.6</ele>
        <time>2023-08-24T06:33:37.038Z</time>
      </trkpt>
      <trkpt lat="43.68277" lon="1.45767">
        <ele>140.75</ele>
        <time>2023-08-24T06:33:37.893Z</time>
      </trkpt>
      <trkpt lat="43.68277" lon="1.45773">
        <ele>140.89</ele>
        <time>2023-08-24T06:33:39.024Z</time>
      </trkpt>
      <trkpt lat="43.68277" lon="1.4578">
        <ele>140.8</ele>
        <time>2023-08-24T06:33:40.324Z</time>
      </trkpt>
      <trkpt lat="43.68276" lon="1.45787">
        <ele>140.76</ele>
        <time>2023-08-24T06:33:41.345Z</time>
      </trkpt>
      <trkpt lat="43.68276" lon="1.45794">
        <ele>140.70999</ele>
        <time>2023-08-24T06:33:42.216Z</time>
      </trkpt>
      <trkpt lat="43.68275" lon="1.45802">
        <ele>140.68</ele>
        <time>2023-08-24T06:33:43.308Z</time>
      </trkpt>
      <trkpt lat="43.68275" lon="1.45809">
        <ele>140.67</ele>
        <time>2023-08-24T06:33:44.293Z</time>
      </trkpt>
      <trkpt lat="43.68275" lon="1.45816">
        <ele>140.70999</ele>
        <time>2023-08-24T06:33:45.360Z</time>
      </trkpt>
      <trkpt lat="43.68275" lon="1.45823">
        <ele>140.72</ele>
        <time>2023-08-24T06:33:45.970Z</time>
      </trkpt>
      <trkpt lat="43.68274" lon="1.4583">
        <ele>140.78</ele>
        <time>2023-08-24T06:33:47.363Z</time>
      </trkpt>
      <trkpt lat="43.68274" lon="1.45837">
        <ele>140.79001</ele>
        <time>2023-08-24T06:33:48.279Z</time>
      </trkpt>
      <trkpt lat="43.68274" lon="1.45841">
        <ele>140.86</ele>
        <time>2023-08-24T06:33:49.304Z</time>
      </trkpt>
      <trkpt lat="43.68273" lon="1.45851">
        <ele>140.89</ele>
        <time>2023-08-24T06:33:50.360Z</time>
      </trkpt>
      <trkpt lat="43.68273" lon="1.45857">
        <ele>140.97</ele>
        <time>2023-08-24T06:33:50.991Z</time>
      </trkpt>
      <trkpt lat="43.68272" lon="1.4586">
        <ele>141.09</ele>
        <time>2023-08-24T06:33:51.954Z</time>
      </trkpt>
      <trkpt lat="43.68272" lon="1.45865">
        <ele>141.20999</ele>
        <time>2023-08-24T06:33:52.936Z</time>
      </trkpt>
      <trkpt lat="43.68271" lon="1.45869">
        <ele>141.26</ele>
        <time>2023-08-24T06:33:53.974Z</time>
      </trkpt>
      <trkpt lat="43.6827" lon="1.45874">
        <ele>141.38</ele>
        <time>2023-08-24T06:33:55.285Z</time>
      </trkpt>
      <trkpt lat="43.6827" lon="1.45878">
        <ele>141.51</ele>
        <time>2023-08-24T06:33:56.312Z</time>
      </trkpt>
      <trkpt lat="43.6827" lon="1.45882">
        <ele>141.65</ele>
        <time>2023-08-24T06:33:57.362Z</time>
      </trkpt>
      <trkpt lat="43.6827" lon="1.4589">
        <ele>141.94</ele>
        <time>2023-08-24T06:33:59.947Z</time>
      </trkpt>
      <trkpt lat="43.6827" lon="1.45891">
        <ele>142.17</ele>
        <time>2023-08-24T06:34:01.314Z</time>
      </trkpt>
      <trkpt lat="43.6827" lon="1.45894">
        <ele>142.28</ele>
        <time>2023-08-24T06:34:02.354Z</time>
      </trkpt>
      <trkpt lat="43.6827" lon="1.45899">
        <ele>142.4</ele>
        <time>2023-08-24T06:34:03.008Z</time>
      </trkpt>
      <trkpt lat="43.68269" lon="1.45904">
        <ele>142.48</ele>
        <time>2023-08-24T06:34:04.295Z</time>
      </trkpt>
      <trkpt lat="43.68269" lon="1.45911">
        <ele>142.55</ele>
        <time>2023-08-24T06:34:04.959Z</time>
      </trkpt>
      <trkpt lat="43.68269" lon="1.45918">
        <ele>142.61</ele>
        <time>2023-08-24T06:34:07.355Z</time>
      </trkpt>
      <trkpt lat="43.68268" lon="1.45924">
        <ele>142.67</ele>
        <time>2023-08-24T06:34:08.313Z</time>
      </trkpt>
      <trkpt lat="43.68267" lon="1.45937">
        <ele>142.70999</ele>
        <time>2023-08-24T06:34:09.963Z</time>
      </trkpt>
      <trkpt lat="43.68266" lon="1.45944">
        <ele>142.89</ele>
        <time>2023-08-24T06:34:11.292Z</time>
      </trkpt>
      <trkpt lat="43.68265" lon="1.45956">
        <ele>143.02</ele>
        <time>2023-08-24T06:34:12.953Z</time>
      </trkpt>
      <trkpt lat="43.68265" lon="1.45962">
        <ele>143.11</ele>
        <time>2023-08-24T06:34:13.989Z</time>
      </trkpt>
      <trkpt lat="43.68265" lon="1.45969">
        <ele>143.31</ele>
        <time>2023-08-24T06:34:14.972Z</time>
      </trkpt>
      <trkpt lat="43.68265" lon="1.45976">
        <ele>143.49</ele>
        <time>2023-08-24T06:34:15.948Z</time>
      </trkpt>
      <trkpt lat="43.68265" lon="1.45984">
        <ele>143.64</ele>
        <time>2023-08-24T06:34:17.450Z</time>
      </trkpt>
      <trkpt lat="43.68266" lon="1.4599">
        <ele>143.82</ele>
        <time>2023-08-24T06:34:18.992Z</time>
      </trkpt>
      <trkpt lat="43.68267" lon="1.46002">
        <ele>144.06</ele>
        <time>2023-08-24T06:34:20.242Z</time>
      </trkpt>
      <trkpt lat="43.68268" lon="1.46007">
        <ele>144.53</ele>
        <time>2023-08-24T06:34:21.444Z</time>
      </trkpt>
      <trkpt lat="43.68269" lon="1.46012">
        <ele>144.8</ele>
        <time>2023-08-24T06:34:22.990Z</time>
      </trkpt>
      <trkpt lat="43.6827" lon="1.46016">
        <ele>145.13</ele>
        <time>2023-08-24T06:34:24.356Z</time>
      </trkpt>
      <trkpt lat="43.68272" lon="1.46022">
        <ele>145.43</ele>
        <time>2023-08-24T06:34:25.299Z</time>
      </trkpt>
      <trkpt lat="43.68274" lon="1.46029">
        <ele>145.85</ele>
        <time>2023-08-24T06:34:27.190Z</time>
      </trkpt>
      <trkpt lat="43.68277" lon="1.46039">
        <ele>146.22</ele>
        <time>2023-08-24T06:34:28.381Z</time>
      </trkpt>
      <trkpt lat="43.68278" lon="1.46043">
        <ele>146.70999</ele>
        <time>2023-08-24T06:34:29.013Z</time>
      </trkpt>
      <trkpt lat="43.68279" lon="1.46048">
        <ele>147.04001</ele>
        <time>2023-08-24T06:34:30.385Z</time>
      </trkpt>
      <trkpt lat="43.6828" lon="1.46059">
        <ele>147.36</ele>
        <time>2023-08-24T06:34:31.932Z</time>
      </trkpt>
      <trkpt lat="43.68281" lon="1.46063">
        <ele>147.87</ele>
        <time>2023-08-24T06:34:33.395Z</time>
      </trkpt>
      <trkpt lat="43.68282" lon="1.46069">
        <ele>148.2</ele>
        <time>2023-08-24T06:34:34.018Z</time>
      </trkpt>
      <trkpt lat="43.68282" lon="1.4608">
        <ele>148.62</ele>
        <time>2023-08-24T06:34:35.959Z</time>
      </trkpt>
      <trkpt lat="43.68283" lon="1.46087">
        <ele>149.29001</ele>
        <time>2023-08-24T06:34:36.965Z</time>
      </trkpt>
      <trkpt lat="43.68283" lon="1.46092">
        <ele>149.62</ele>
        <time>2023-08-24T06:34:39Z</time>
      </trkpt>
      <trkpt lat="43.68283" lon="1.46098">
        <ele>150.01001</ele>
        <time>2023-08-24T06:34:40.297Z</time>
      </trkpt>
      <trkpt lat="43.68283" lon="1.46103">
        <ele>150.26001</ele>
        <time>2023-08-24T06:34:41.378Z</time>
      </trkpt>
      <trkpt lat="43.68284" lon="1.4611">
        <ele>150.58</ele>
        <time>2023-08-24T06:34:41.988Z</time>
      </trkpt>
      <trkpt lat="43.68284" lon="1.46115">
        <ele>150.89</ele>
        <time>2023-08-24T06:34:43.379Z</time>
      </trkpt>
      <trkpt lat="43.68287" lon="1.46126">
        <ele>151.18</ele>
        <time>2023-08-24T06:34:45.410Z</time>
      </trkpt>
      <trkpt lat="43.6829" lon="1.46131">
        <ele>151.73999</ele>
        <time>2023-08-24T06:34:47.386Z</time>
      </trkpt>
      <trkpt lat="43.68292" lon="1.46135">
        <ele>151.94</ele>
        <time>2023-08-24T06:34:47.962Z</time>
      </trkpt>
      <trkpt lat="43.68296" lon="1.46139">
        <ele>152.05</ele>
        <time>2023-08-24T06:34:49.402Z</time>
      </trkpt>
      <trkpt lat="43.68301" lon="1.46145">
        <ele>152.03</ele>
        <time>2023-08-24T06:34:49.974Z</time>
      </trkpt>
      <trkpt lat="43.68306" lon="1.46156">
        <ele>152.01001</ele>
        <time>2023-08-24T06:34:52.400Z</time>
      </trkpt>
      <trkpt lat="43.68309" lon="1.4616">
        <ele>151.9</ele>
        <time>2023-08-24T06:34:52.968Z</time>
      </trkpt>
      <trkpt lat="43.6831" lon="1.46162">
        <ele>151.8</ele>
        <time>2023-08-24T06:34:54.388Z</time>
      </trkpt>
      <trkpt lat="43.68317" lon="1.46175">
        <ele>151.66</ele>
        <time>2023-08-24T06:34:55.414Z</time>
      </trkpt>
      <trkpt lat="43.68319" lon="1.46178">
        <ele>151.39</ele>
        <time>2023-08-24T06:34:55.997Z</time>
      </trkpt>
      <trkpt lat="43.68326" lon="1.4619">
        <ele>151.07</ele>
        <time>2023-08-24T06:34:57.379Z</time>
      </trkpt>
      <trkpt lat="43.6833" lon="1.46197">
        <ele>150.70999</ele>
        <time>2023-08-24T06:34:58.393Z</time>
      </trkpt>
      <trkpt lat="43.68332" lon="1.462">
        <ele>150.25</ele>
        <time>2023-08-24T06:34:59.382Z</time>
      </trkpt>
      <trkpt lat="43.68339" lon="1.46213">
        <ele>149.84</ele>
        <time>2023-08-24T06:35:00.417Z</time>
      </trkpt>
      <trkpt lat="43.68342" lon="1.46218">
        <ele>149.36</ele>
        <time>2023-08-24T06:35:00.986Z</time>
      </trkpt>
      <trkpt lat="43.68349" lon="1.46228">
        <ele>148.85</ele>
        <time>2023-08-24T06:35:02.004Z</time>
      </trkpt>
      <trkpt lat="43.68354" lon="1.46234">
        <ele>148.28</ele>
        <time>2023-08-24T06:35:03.417Z</time>
      </trkpt>
      <trkpt lat="43.68358" lon="1.46241">
        <ele>147.9</ele>
        <time>2023-08-24T06:35:03.980Z</time>
      </trkpt>
      <trkpt lat="43.68362" lon="1.46246">
        <ele>147.6</ele>
        <time>2023-08-24T06:35:05.440Z</time>
      </trkpt>
      <trkpt lat="43.68365" lon="1.4625">
        <ele>147.37</ele>
        <time>2023-08-24T06:35:05.966Z</time>
      </trkpt>
      <trkpt lat="43.68369" lon="1.46253">
        <ele>147.13</ele>
        <time>2023-08-24T06:35:07.001Z</time>
      </trkpt>
      <trkpt lat="43.6837" lon="1.46254">
        <ele>146.95999</ele>
        <time>2023-08-24T06:35:08.404Z</time>
      </trkpt>
      <trkpt lat="43.68375" lon="1.46257">
        <ele>146.84</ele>
        <time>2023-08-24T06:35:08.990Z</time>
      </trkpt>
      <trkpt lat="43.68378" lon="1.46258">
        <ele>146.85</ele>
        <time>2023-08-24T06:35:10.397Z</time>
      </trkpt>
      <trkpt lat="43.68382" lon="1.46259">
        <ele>146.8</ele>
        <time>2023-08-24T06:35:10.969Z</time>
      </trkpt>
      <trkpt lat="43.68385" lon="1.46259">
        <ele>146.8</ele>
        <time>2023-08-24T06:35:12.003Z</time>
      </trkpt>
      <trkpt lat="43.68388" lon="1.46259">
        <ele>146.83</ele>
        <time>2023-08-24T06:35:13.395Z</time>
      </trkpt>
      <trkpt lat="43.68397" lon="1.46259">
        <ele>146.81</ele>
        <time>2023-08-24T06:35:13.993Z</time>
      </trkpt>
      <trkpt lat="43.68399" lon="1.46259">
        <ele>146.76001</ele>
        <time>2023-08-24T06:35:16.424Z</time>
      </trkpt>
      <trkpt lat="43.68403" lon="1.46259">
        <ele>146.81</ele>
        <time>2023-08-24T06:35:17.411Z</time>
      </trkpt>
      <trkpt lat="43.68406" lon="1.46259">
        <ele>146.83</ele>
        <time>2023-08-24T06:35:18.400Z</time>
      </trkpt>
      <trkpt lat="43.68409" lon="1.46259">
        <ele>146.87</ele>
        <time>2023-08-24T06:35:18.994Z</time>
      </trkpt>
      <trkpt lat="43.68419" lon="1.46261">
        <ele>146.92</ele>
        <time>2023-08-24T06:35:21.381Z</time>
      </trkpt>
      <trkpt lat="43.68422" lon="1.46261">
        <ele>146.87</ele>
        <time>2023-08-24T06:35:22.430Z</time>
      </trkpt>
      <trkpt lat="43.68429" lon="1.46261">
        <ele>146.91</ele>
        <time>2023-08-24T06:35:24Z</time>
      </trkpt>
      <trkpt lat="43.68432" lon="1.4626">
        <ele>146.93</ele>
        <time>2023-08-24T06:35:25.378Z</time>
      </trkpt>
      <trkpt lat="43.68437" lon="1.46258">
        <ele>146.91</ele>
        <time>2023-08-24T06:35:26.011Z</time>
      </trkpt>
      <trkpt lat="43.6844" lon="1.46255">
        <ele>146.9</ele>
        <time>2023-08-24T06:35:27.404Z</time>
      </trkpt>
      <trkpt lat="43.68443" lon="1.46251">
        <ele>146.83</ele>
        <time>2023-08-24T06:35:29.378Z</time>
      </trkpt>
      <trkpt lat="43.68448" lon="1.46248">
        <ele>146.73001</ele>
        <time>2023-08-24T06:35:30.420Z</time>
      </trkpt>
      <trkpt lat="43.68452" lon="1.46243">
        <ele>146.69</ele>
        <time>2023-08-24T06:35:31.391Z</time>
      </trkpt>
      <trkpt lat="43.68457" lon="1.4624">
        <ele>146.69</ele>
        <time>2023-08-24T06:35:31.988Z</time>
      </trkpt>
      <trkpt lat="43.68461" lon="1.46242">
        <ele>146.66</ele>
        <time>2023-08-24T06:35:33.378Z</time>
      </trkpt>
      <trkpt lat="43.68465" lon="1.46244">
        <ele>146.61</ele>
        <time>2023-08-24T06:35:34.459Z</time>
      </trkpt>
      <trkpt lat="43.68468" lon="1.46247">
        <ele>146.69</ele>
        <time>2023-08-24T06:35:35.379Z</time>
      </trkpt>
      <trkpt lat="43.6847" lon="1.46251">
        <ele>146.73999</ele>
        <time>2023-08-24T06:35:35.958Z</time>
      </trkpt>
      <trkpt lat="43.68474" lon="1.46255">
        <ele>146.76001</ele>
        <time>2023-08-24T06:35:37.433Z</time>
      </trkpt>
      <trkpt lat="43.68478" lon="1.4626">
        <ele>146.85</ele>
        <time>2023-08-24T06:35:39.391Z</time>
      </trkpt>
      <trkpt lat="43.6848" lon="1.46262">
        <ele>146.9</ele>
        <time>2023-08-24T06:35:39.473Z</time>
      </trkpt>
      <trkpt lat="43.68488" lon="1.4627">
        <ele>146.98999</ele>
        <time>2023-08-24T06:35:42.380Z</time>
      </trkpt>
      <trkpt lat="43.6849" lon="1.4627">
        <ele>147.13</ele>
        <time>2023-08-24T06:35:43.425Z</time>
      </trkpt>
      <trkpt lat="43.68494" lon="1.46272">
        <ele>147.25</ele>
        <time>2023-08-24T06:35:44.380Z</time>
      </trkpt>
      <trkpt lat="43.68497" lon="1.46273">
        <ele>147.39</ele>
        <time>2023-08-24T06:35:45.029Z</time>
      </trkpt>
      <trkpt lat="43.68502" lon="1.46274">
        <ele>147.5</ele>
        <time>2023-08-24T06:35:46.004Z</time>
      </trkpt>
      <trkpt lat="43.68506" lon="1.46273">
        <ele>147.62</ele>
        <time>2023-08-24T06:35:48.380Z</time>
      </trkpt>
      <trkpt lat="43.6851" lon="1.46274">
        <ele>147.72</ele>
        <time>2023-08-24T06:35:49.380Z</time>
      </trkpt>
      <trkpt lat="43.68514" lon="1.46273">
        <ele>147.83</ele>
        <time>2023-08-24T06:35:50.381Z</time>
      </trkpt>
      <trkpt lat="43.68519" lon="1.46272">
        <ele>147.81</ele>
        <time>2023-08-24T06:35:51.396Z</time>
      </trkpt>
      <trkpt lat="43.68523" lon="1.46271">
        <ele>147.87</ele>
        <time>2023-08-24T06:35:51.977Z</time>
      </trkpt>
      <trkpt lat="43.68533" lon="1.46266">
        <ele>147.85</ele>
        <time>2023-08-24T06:35:54.201Z</time>
      </trkpt>
      <trkpt lat="43.68537" lon="1.46265">
        <ele>147.82</ele>
        <time>2023-08-24T06:35:55.034Z</time>
      </trkpt>
      <trkpt lat="43.68542" lon="1.46264">
        <ele>147.83</ele>
        <time>2023-08-24T06:35:56.016Z</time>
      </trkpt>
      <trkpt lat="43.68547" lon="1.46264">
        <ele>147.84</ele>
        <time>2023-08-24T06:35:56.993Z</time>
      </trkpt>
      <trkpt lat="43.68552" lon="1.46265">
        <ele>147.93</ele>
        <time>2023-08-24T06:35:58.036Z</time>
      </trkpt>
      <trkpt lat="43.68557" lon="1.46265">
        <ele>148.03</ele>
        <time>2023-08-24T06:35:58.997Z</time>
      </trkpt>
      <trkpt lat="43.68562" lon="1.46265">
        <ele>148.16</ele>
        <time>2023-08-24T06:35:59.971Z</time>
      </trkpt>
      <trkpt lat="43.68566" lon="1.46264">
        <ele>148.26001</ele>
        <time>2023-08-24T06:36:01.024Z</time>
      </trkpt>
      <trkpt lat="43.68571" lon="1.46263">
        <ele>148.31</ele>
        <time>2023-08-24T06:36:02.484Z</time>
      </trkpt>
      <trkpt lat="43.68576" lon="1.46263">
        <ele>148.43</ele>
        <time>2023-08-24T06:36:03.480Z</time>
      </trkpt>
      <trkpt lat="43.6858" lon="1.46264">
        <ele>148.51999</ele>
        <time>2023-08-24T06:36:04.010Z</time>
      </trkpt>
      <trkpt lat="43.68584" lon="1.46267">
        <ele>148.59</ele>
        <time>2023-08-24T06:36:05.473Z</time>
      </trkpt>
      <trkpt lat="43.68588" lon="1.46271">
        <ele>148.62</ele>
        <time>2023-08-24T06:36:06.016Z</time>
      </trkpt>
      <trkpt lat="43.68591" lon="1.46275">
        <ele>148.67</ele>
        <time>2023-08-24T06:36:07.479Z</time>
      </trkpt>
      <trkpt lat="43.68594" lon="1.46278">
        <ele>148.69</ele>
        <time>2023-08-24T06:36:08.462Z</time>
      </trkpt>
      <trkpt lat="43.68597" lon="1.46282">
        <ele>148.76999</ele>
        <time>2023-08-24T06:36:09.024Z</time>
      </trkpt>
      <trkpt lat="43.686" lon="1.46285">
        <ele>148.87</ele>
        <time>2023-08-24T06:36:10.471Z</time>
      </trkpt>
      <trkpt lat="43.68605" lon="1.46289">
        <ele>148.94</ele>
        <time>2023-08-24T06:36:11.021Z</time>
      </trkpt>
      <trkpt lat="43.68609" lon="1.46292">
        <ele>149.01001</ele>
        <time>2023-08-24T06:36:12.008Z</time>
      </trkpt>
      <trkpt lat="43.68614" lon="1.46295">
        <ele>149.18</ele>
        <time>2023-08-24T06:36:13.459Z</time>
      </trkpt>
      <trkpt lat="43.68618" lon="1.46297">
        <ele>149.26001</ele>
        <time>2023-08-24T06:36:14.028Z</time>
      </trkpt>
      <trkpt lat="43.68622" lon="1.463">
        <ele>149.33</ele>
        <time>2023-08-24T06:36:15.475Z</time>
      </trkpt>
      <trkpt lat="43.68626" lon="1.46303">
        <ele>149.48999</ele>
        <time>2023-08-24T06:36:16.031Z</time>
      </trkpt>
      <trkpt lat="43.68631" lon="1.46306">
        <ele>149.57</ele>
        <time>2023-08-24T06:36:17.005Z</time>
      </trkpt>
      <trkpt lat="43.68635" lon="1.46309">
        <ele>149.65</ele>
        <time>2023-08-24T06:36:18.465Z</time>
      </trkpt>
      <trkpt lat="43.68639" lon="1.46311">
        <ele>149.68</ele>
        <time>2023-08-24T06:36:19.028Z</time>
      </trkpt>
      <trkpt lat="43.68644" lon="1.46314">
        <ele>149.7</ele>
        <time>2023-08-24T06:36:20.488Z</time>
      </trkpt>
      <trkpt lat="43.68648" lon="1.46317">
        <ele>149.75</ele>
        <time>2023-08-24T06:36:20.985Z</time>
      </trkpt>
      <trkpt lat="43.68653" lon="1.46319">
        <ele>149.81</ele>
        <time>2023-08-24T06:36:22.496Z</time>
      </trkpt>
      <trkpt lat="43.68657" lon="1.46322">
        <ele>149.86</ele>
        <time>2023-08-24T06:36:23.007Z</time>
      </trkpt>
      <trkpt lat="43.68661" lon="1.46324">
        <ele>149.95</ele>
        <time>2023-08-24T06:36:24.039Z</time>
      </trkpt>
      <trkpt lat="43.68666" lon="1.46327">
        <ele>150</ele>
        <time>2023-08-24T06:36:25.484Z</time>
      </trkpt>
      <trkpt lat="43.6867" lon="1.46329">
        <ele>150.07</ele>
        <time>2023-08-24T06:36:26.043Z</time>
      </trkpt>
      <trkpt lat="43.68674" lon="1.46331">
        <ele>150.1</ele>
        <time>2023-08-24T06:36:27.502Z</time>
      </trkpt>
      <trkpt lat="43.68678" lon="1.46333">
        <ele>150.14</ele>
        <time>2023-08-24T06:36:28.002Z</time>
      </trkpt>
      <trkpt lat="43.68683" lon="1.46334">
        <ele>150.17</ele>
        <time>2023-08-24T06:36:29.030Z</time>
      </trkpt>
      <trkpt lat="43.68686" lon="1.46335">
        <ele>150.22</ele>
        <time>2023-08-24T06:36:30.490Z</time>
      </trkpt>
      <trkpt lat="43.6869" lon="1.46334">
        <ele>150.3</ele>
        <time>2023-08-24T06:36:31.054Z</time>
      </trkpt>
      <trkpt lat="43.68695" lon="1.46333">
        <ele>150.36</ele>
        <time>2023-08-24T06:36:32.481Z</time>
      </trkpt>
      <trkpt lat="43.687" lon="1.46331">
        <ele>150.4</ele>
        <time>2023-08-24T06:36:33.031Z</time>
      </trkpt>
      <trkpt lat="43.68703" lon="1.4633">
        <ele>150.45999</ele>
        <time>2023-08-24T06:36:34.037Z</time>
      </trkpt>
      <trkpt lat="43.68707" lon="1.46329">
        <ele>150.51999</ele>
        <time>2023-08-24T06:36:34.508Z</time>
      </trkpt>
      <trkpt lat="43.68712" lon="1.4633">
        <ele>150.57</ele>
        <time>2023-08-24T06:36:36.053Z</time>
      </trkpt>
      <trkpt lat="43.68718" lon="1.46331">
        <ele>150.63</ele>
        <time>2023-08-24T06:36:37.038Z</time>
      </trkpt>
      <trkpt lat="43.68722" lon="1.46332">
        <ele>150.75</ele>
        <time>2023-08-24T06:36:38.293Z</time>
      </trkpt>
      <trkpt lat="43.68726" lon="1.46333">
        <ele>150.85</ele>
        <time>2023-08-24T06:36:39.498Z</time>
      </trkpt>
      <trkpt lat="43.68731" lon="1.46335">
        <ele>150.98001</ele>
        <time>2023-08-24T06:36:40.525Z</time>
      </trkpt>
      <trkpt lat="43.68734" lon="1.46336">
        <ele>151.13</ele>
        <time>2023-08-24T06:36:42.053Z</time>
      </trkpt>
      <trkpt lat="43.68739" lon="1.46339">
        <ele>151.36</ele>
        <time>2023-08-24T06:36:42.536Z</time>
      </trkpt>
      <trkpt lat="43.68743" lon="1.4634">
        <ele>151.59</ele>
        <time>2023-08-24T06:36:44.383Z</time>
      </trkpt>
      <trkpt lat="43.68748" lon="1.46342">
        <ele>151.79001</ele>
        <time>2023-08-24T06:36:44.528Z</time>
      </trkpt>
      <trkpt lat="43.68753" lon="1.46343">
        <ele>151.98001</ele>
        <time>2023-08-24T06:36:47.171Z</time>
      </trkpt>
      <trkpt lat="43.68757" lon="1.46344">
        <ele>152.1</ele>
        <time>2023-08-24T06:36:48.494Z</time>
      </trkpt>
      <trkpt lat="43.68761" lon="1.46345">
        <ele>152.18</ele>
        <time>2023-08-24T06:36:49.065Z</time>
      </trkpt>
      <trkpt lat="43.68767" lon="1.46347">
        <ele>152.17</ele>
        <time>2023-08-24T06:36:50.466Z</time>
      </trkpt>
      <trkpt lat="43.68776" lon="1.46351">
        <ele>152.17</ele>
        <time>2023-08-24T06:36:52.043Z</time>
      </trkpt>
      <trkpt lat="43.6878" lon="1.46353">
        <ele>152.2</ele>
        <time>2023-08-24T06:36:53.507Z</time>
      </trkpt>
      <trkpt lat="43.68784" lon="1.46354">
        <ele>152.23999</ele>
        <time>2023-08-24T06:36:54.394Z</time>
      </trkpt>
      <trkpt lat="43.68789" lon="1.46356">
        <ele>152.33</ele>
        <time>2023-08-24T06:36:55.519Z</time>
      </trkpt>
      <trkpt lat="43.688" lon="1.46361">
        <ele>152.39</ele>
        <time>2023-08-24T06:36:57.485Z</time>
      </trkpt>
      <trkpt lat="43.68803" lon="1.46361">
        <ele>152.63</ele>
        <time>2023-08-24T06:36:58.508Z</time>
      </trkpt>
      <trkpt lat="43.68811" lon="1.46362">
        <ele>152.81</ele>
        <time>2023-08-24T06:36:59.486Z</time>
      </trkpt>
      <trkpt lat="43.68816" lon="1.46361">
        <ele>153.08</ele>
        <time>2023-08-24T06:37:01.484Z</time>
      </trkpt>
      <trkpt lat="43.68819" lon="1.46361">
        <ele>153.14</ele>
        <time>2023-08-24T06:37:02.052Z</time>
      </trkpt>
      <trkpt lat="43.68823" lon="1.46362">
        <ele>153.19</ele>
        <time>2023-08-24T06:37:03.514Z</time>
      </trkpt>
      <trkpt lat="43.6883" lon="1.46363">
        <ele>153.23999</ele>
        <time>2023-08-24T06:37:04.482Z</time>
      </trkpt>
      <trkpt lat="43.68836" lon="1.46367">
        <ele>153.25</ele>
        <time>2023-08-24T06:37:05.036Z</time>
      </trkpt>
      <trkpt lat="43.68842" lon="1.4637">
        <ele>153.31</ele>
        <time>2023-08-24T06:37:06.522Z</time>
      </trkpt>
      <trkpt lat="43.68845" lon="1.46373">
        <ele>153.42</ele>
        <time>2023-08-24T06:37:07.396Z</time>
      </trkpt>
      <trkpt lat="43.68849" lon="1.46375">
        <ele>153.58</ele>
        <time>2023-08-24T06:37:08.515Z</time>
      </trkpt>
      <trkpt lat="43.68851" lon="1.46376">
        <ele>153.75</ele>
        <time>2023-08-24T06:37:09.305Z</time>
      </trkpt>
      <trkpt lat="43.68855" lon="1.46378">
        <ele>153.87</ele>
        <time>2023-08-24T06:37:10.564Z</time>
      </trkpt>
      <trkpt lat="43.68858" lon="1.4638">
        <ele>154.05</ele>
        <time>2023-08-24T06:37:12.083Z</time>
      </trkpt>
      <trkpt lat="43.68861" lon="1.46382">
        <ele>154.26001</ele>
        <time>2023-08-24T06:37:13.484Z</time>
      </trkpt>
      <trkpt lat="43.68865" lon="1.46383">
        <ele>154.4</ele>
        <time>2023-08-24T06:37:14.088Z</time>
      </trkpt>
      <trkpt lat="43.6887" lon="1.46384">
        <ele>154.44</ele>
        <time>2023-08-24T06:37:15.542Z</time>
      </trkpt>
      <trkpt lat="43.68874" lon="1.46385">
        <ele>154.3</ele>
        <time>2023-08-24T06:37:16.486Z</time>
      </trkpt>
      <trkpt lat="43.68877" lon="1.46387">
        <ele>154.22</ele>
        <time>2023-08-24T06:37:17.458Z</time>
      </trkpt>
      <trkpt lat="43.68891" lon="1.46389">
        <ele>154.16</ele>
        <time>2023-08-24T06:37:19.450Z</time>
      </trkpt>
      <trkpt lat="43.68895" lon="1.46389">
        <ele>154.2</ele>
        <time>2023-08-24T06:37:20.497Z</time>
      </trkpt>
      <trkpt lat="43.68907" lon="1.46391">
        <ele>154.20999</ele>
        <time>2023-08-24T06:37:22.484Z</time>
      </trkpt>
      <trkpt lat="43.68918" lon="1.46394">
        <ele>154.20999</ele>
        <time>2023-08-24T06:37:23.485Z</time>
      </trkpt>
      <trkpt lat="43.68921" lon="1.46394">
        <ele>154.33</ele>
        <time>2023-08-24T06:37:24.482Z</time>
      </trkpt>
      <trkpt lat="43.68922" lon="1.46395">
        <ele>154.41</ele>
        <time>2023-08-24T06:37:26.494Z</time>
      </trkpt>
      <trkpt lat="43.68924" lon="1.46396">
        <ele>154.45999</ele>
        <time>2023-08-24T06:37:27.514Z</time>
      </trkpt>
      <trkpt lat="43.68928" lon="1.46398">
        <ele>154.5</ele>
        <time>2023-08-24T06:37:28.485Z</time>
      </trkpt>
      <trkpt lat="43.68932" lon="1.46401">
        <ele>154.58</ele>
        <time>2023-08-24T06:37:30.482Z</time>
      </trkpt>
      <trkpt lat="43.68935" lon="1.46403">
        <ele>154.67</ele>
        <time>2023-08-24T06:37:31.482Z</time>
      </trkpt>
      <trkpt lat="43.6894" lon="1.46406">
        <ele>154.75</ele>
        <time>2023-08-24T06:37:32.388Z</time>
      </trkpt>
      <trkpt lat="43.68943" lon="1.46408">
        <ele>154.84</ele>
        <time>2023-08-24T06:37:33.573Z</time>
      </trkpt>
      <trkpt lat="43.68946" lon="1.46411">
        <ele>154.91</ele>
        <time>2023-08-24T06:37:34.111Z</time>
      </trkpt>
      <trkpt lat="43.6895" lon="1.46414">
        <ele>155</ele>
        <time>2023-08-24T06:37:35.106Z</time>
      </trkpt>
      <trkpt lat="43.68953" lon="1.46415">
        <ele>155.09</ele>
        <time>2023-08-24T06:37:36.077Z</time>
      </trkpt>
      <trkpt lat="43.68961" lon="1.46418">
        <ele>155.15</ele>
        <time>2023-08-24T06:37:38.106Z</time>
      </trkpt>
      <trkpt lat="43.68964" lon="1.46419">
        <ele>155.1</ele>
        <time>2023-08-24T06:37:40.118Z</time>
      </trkpt>
      <trkpt lat="43.68968" lon="1.4642">
        <ele>155.01999</ele>
        <time>2023-08-24T06:37:41.378Z</time>
      </trkpt>
      <trkpt lat="43.68975" lon="1.4642">
        <ele>155.01999</ele>
        <time>2023-08-24T06:37:42.583Z</time>
      </trkpt>
      <trkpt lat="43.68986" lon="1.46421">
        <ele>155.01999</ele>
        <time>2023-08-24T06:37:44.142Z</time>
      </trkpt>
      <trkpt lat="43.68991" lon="1.46422">
        <ele>155.06</ele>
        <time>2023-08-24T06:37:45.615Z</time>
      </trkpt>
      <trkpt lat="43.68998" lon="1.46423">
        <ele>155.05</ele>
        <time>2023-08-24T06:37:46.605Z</time>
      </trkpt>
      <trkpt lat="43.69005" lon="1.46424">
        <ele>155.04001</ele>
        <time>2023-08-24T06:37:47.262Z</time>
      </trkpt>
      <trkpt lat="43.69009" lon="1.46426">
        <ele>155.12</ele>
        <time>2023-08-24T06:37:48.558Z</time>
      </trkpt>
      <trkpt lat="43.69015" lon="1.4643">
        <ele>155.16</ele>
        <time>2023-08-24T06:37:50.583Z</time>
      </trkpt>
      <trkpt lat="43.6902" lon="1.46433">
        <ele>155.20999</ele>
        <time>2023-08-24T06:37:51.583Z</time>
      </trkpt>
      <trkpt lat="43.69026" lon="1.46437">
        <ele>155.23999</ele>
        <time>2023-08-24T06:37:52.582Z</time>
      </trkpt>
      <trkpt lat="43.6903" lon="1.46441">
        <ele>155.32</ele>
        <time>2023-08-24T06:37:53.306Z</time>
      </trkpt>
      <trkpt lat="43.69036" lon="1.46444">
        <ele>155.36</ele>
        <time>2023-08-24T06:37:54.605Z</time>
      </trkpt>
      <trkpt lat="43.69043" lon="1.46454">
        <ele>155.43</ele>
        <time>2023-08-24T06:37:55.415Z</time>
      </trkpt>
      <trkpt lat="43.69048" lon="1.46459">
        <ele>155.57</ele>
        <time>2023-08-24T06:37:57.595Z</time>
      </trkpt>
      <trkpt lat="43.69049" lon="1.46463">
        <ele>155.73001</ele>
        <time>2023-08-24T06:37:58.409Z</time>
      </trkpt>
      <trkpt lat="43.69056" lon="1.46475">
        <ele>155.85</ele>
        <time>2023-08-24T06:37:59.564Z</time>
      </trkpt>
      <trkpt lat="43.69057" lon="1.46479">
        <ele>156.15</ele>
        <time>2023-08-24T06:38:00.633Z</time>
      </trkpt>
      <trkpt lat="43.69059" lon="1.46483">
        <ele>156.39</ele>
        <time>2023-08-24T06:38:01.646Z</time>
      </trkpt>
      <trkpt lat="43.69061" lon="1.46489">
        <ele>156.69</ele>
        <time>2023-08-24T06:38:03.584Z</time>
      </trkpt>
      <trkpt lat="43.69062" lon="1.46492">
        <ele>157.08</ele>
        <time>2023-08-24T06:38:04.583Z</time>
      </trkpt>
      <trkpt lat="43.69065" lon="1.46502">
        <ele>157.43</ele>
        <time>2023-08-24T06:38:05.486Z</time>
      </trkpt>
      <trkpt lat="43.69066" lon="1.46505">
        <ele>158.01001</ele>
        <time>2023-08-24T06:38:06.584Z</time>
      </trkpt>
      <trkpt lat="43.69067" lon="1.46509">
        <ele>158.48999</ele>
        <time>2023-08-24T06:38:08.584Z</time>
      </trkpt>
      <trkpt lat="43.69068" lon="1.46513">
        <ele>158.98999</ele>
        <time>2023-08-24T06:38:09.234Z</time>
      </trkpt>
      <trkpt lat="43.69069" lon="1.46518">
        <ele>159.48001</ele>
        <time>2023-08-24T06:38:10.570Z</time>
      </trkpt>
      <trkpt lat="43.6907" lon="1.46526">
        <ele>160.07</ele>
        <time>2023-08-24T06:38:12.624Z</time>
      </trkpt>
      <trkpt lat="43.6907" lon="1.46529">
        <ele>160.62</ele>
        <time>2023-08-24T06:38:13.592Z</time>
      </trkpt>
      <trkpt lat="43.6907" lon="1.46533">
        <ele>161.23001</ele>
        <time>2023-08-24T06:38:14.584Z</time>
      </trkpt>
      <trkpt lat="43.6907" lon="1.46536">
        <ele>161.93</ele>
        <time>2023-08-24T06:38:15.521Z</time>
      </trkpt>
      <trkpt lat="43.6907" lon="1.46538">
        <ele>162.65</ele>
        <time>2023-08-24T06:38:16.515Z</time>
      </trkpt>
      <trkpt lat="43.69069" lon="1.46541">
        <ele>163.29001</ele>
        <time>2023-08-24T06:38:17.595Z</time>
      </trkpt>
      <trkpt lat="43.69068" lon="1.46543">
        <ele>163.81</ele>
        <time>2023-08-24T06:38:18.637Z</time>
      </trkpt>
      <trkpt lat="43.69067" lon="1.46544">
        <ele>164.23001</ele>
        <time>2023-08-24T06:38:18.790Z</time>
      </trkpt>
      <trkpt lat="43.69066" lon="1.46548">
        <ele>164.67</ele>
        <time>2023-08-24T06:38:21.584Z</time>
      </trkpt>
      <trkpt lat="43.69065" lon="1.4655">
        <ele>165.05</ele>
        <time>2023-08-24T06:38:22.584Z</time>
      </trkpt>
      <trkpt lat="43.69065" lon="1.46551">
        <ele>165.36</ele>
        <time>2023-08-24T06:38:23.606Z</time>
      </trkpt>
      <trkpt lat="43.69065" lon="1.46555">
        <ele>165.61</ele>
        <time>2023-08-24T06:38:24.597Z</time>
      </trkpt>
      <trkpt lat="43.69066" lon="1.46558">
        <ele>165.79001</ele>
        <time>2023-08-24T06:38:26.584Z</time>
      </trkpt>
      <trkpt lat="43.69067" lon="1.4656">
        <ele>165.83</ele>
        <time>2023-08-24T06:38:27.583Z</time>
      </trkpt>
      <trkpt lat="43.6907" lon="1.46567">
        <ele>165.84</ele>
        <time>2023-08-24T06:38:29.584Z</time>
      </trkpt>
      <trkpt lat="43.69072" lon="1.46569">
        <ele>165.73001</ele>
        <time>2023-08-24T06:38:30.583Z</time>
      </trkpt>
      <trkpt lat="43.69073" lon="1.46571">
        <ele>165.70999</ele>
        <time>2023-08-24T06:38:31.632Z</time>
      </trkpt>
      <trkpt lat="43.69074" lon="1.46573">
        <ele>165.61</ele>
        <time>2023-08-24T06:38:33.482Z</time>
      </trkpt>
      <trkpt lat="43.69076" lon="1.46574">
        <ele>165.28</ele>
        <time>2023-08-24T06:38:34.609Z</time>
      </trkpt>
      <trkpt lat="43.69077" lon="1.46576">
        <ele>164.69</ele>
        <time>2023-08-24T06:38:35.235Z</time>
      </trkpt>
      <trkpt lat="43.6908" lon="1.46577">
        <ele>163.95999</ele>
        <time>2023-08-24T06:38:37.598Z</time>
      </trkpt>
      <trkpt lat="43.69089" lon="1.46577">
        <ele>163.17</ele>
        <time>2023-08-24T06:38:38.609Z</time>
      </trkpt>
      <trkpt lat="43.69094" lon="1.46578">
        <ele>161.82</ele>
        <time>2023-08-24T06:38:40.634Z</time>
      </trkpt>
      <trkpt lat="43.69104" lon="1.46578">
        <ele>161.23001</ele>
        <time>2023-08-24T06:38:41.578Z</time>
      </trkpt>
      <trkpt lat="43.69114" lon="1.46579">
        <ele>160.73999</ele>
        <time>2023-08-24T06:38:43.590Z</time>
      </trkpt>
      <trkpt lat="43.69118" lon="1.46579">
        <ele>160.47</ele>
        <time>2023-08-24T06:38:45.646Z</time>
      </trkpt>
      <trkpt lat="43.69123" lon="1.46581">
        <ele>160.47</ele>
        <time>2023-08-24T06:38:46.632Z</time>
      </trkpt>
      <trkpt lat="43.69126" lon="1.46584">
        <ele>160.44</ele>
        <time>2023-08-24T06:38:47.304Z</time>
      </trkpt>
      <trkpt lat="43.6913" lon="1.46589">
        <ele>160.42</ele>
        <time>2023-08-24T06:38:47.682Z</time>
      </trkpt>
      <trkpt lat="43.69133" lon="1.46594">
        <ele>160.42</ele>
        <time>2023-08-24T06:38:49.660Z</time>
      </trkpt>
      <trkpt lat="43.69135" lon="1.46601">
        <ele>160.38</ele>
        <time>2023-08-24T06:38:50.645Z</time>
      </trkpt>
      <trkpt lat="43.69137" lon="1.46609">
        <ele>160.38</ele>
        <time>2023-08-24T06:38:52.599Z</time>
      </trkpt>
      <trkpt lat="43.69139" lon="1.46615">
        <ele>160.28</ele>
        <time>2023-08-24T06:38:53.585Z</time>
      </trkpt>
      <trkpt lat="43.69143" lon="1.46627">
        <ele>160.25</ele>
        <time>2023-08-24T06:38:54.645Z</time>
      </trkpt>
      <trkpt lat="43.69142" lon="1.46632">
        <ele>160.2</ele>
        <time>2023-08-24T06:38:56.586Z</time>
      </trkpt>
      <trkpt lat="43.69144" lon="1.46639">
        <ele>160.16</ele>
        <time>2023-08-24T06:38:57.593Z</time>
      </trkpt>
      <trkpt lat="43.69145" lon="1.46645">
        <ele>160.12</ele>
        <time>2023-08-24T06:38:58.372Z</time>
      </trkpt>
      <trkpt lat="43.69146" lon="1.46652">
        <ele>160.12</ele>
        <time>2023-08-24T06:39:00.585Z</time>
      </trkpt>
      <trkpt lat="43.69147" lon="1.46657">
        <ele>160.07</ele>
        <time>2023-08-24T06:39:01.682Z</time>
      </trkpt>
      <trkpt lat="43.69149" lon="1.46663">
        <ele>160.06</ele>
        <time>2023-08-24T06:39:02.214Z</time>
      </trkpt>
      <trkpt lat="43.69151" lon="1.46669">
        <ele>160.11</ele>
        <time>2023-08-24T06:39:03.557Z</time>
      </trkpt>
      <trkpt lat="43.69152" lon="1.46675">
        <ele>160.11</ele>
        <time>2023-08-24T06:39:04.683Z</time>
      </trkpt>
      <trkpt lat="43.69153" lon="1.46682">
        <ele>160.14</ele>
        <time>2023-08-24T06:39:05.684Z</time>
      </trkpt>
      <trkpt lat="43.69154" lon="1.46688">
        <ele>160.19</ele>
        <time>2023-08-24T06:39:06.786Z</time>
      </trkpt>
      <trkpt lat="43.69156" lon="1.46693">
        <ele>160.26999</ele>
        <time>2023-08-24T06:39:08.682Z</time>
      </trkpt>
      <trkpt lat="43.69157" lon="1.467">
        <ele>160.35</ele>
        <time>2023-08-24T06:39:08.770Z</time>
      </trkpt>
      <trkpt lat="43.69159" lon="1.4671">
        <ele>160.41</ele>
        <time>2023-08-24T06:39:10.272Z</time>
      </trkpt>
      <trkpt lat="43.6916" lon="1.46714">
        <ele>160.57</ele>
        <time>2023-08-24T06:39:11.637Z</time>
      </trkpt>
      <trkpt lat="43.69162" lon="1.46719">
        <ele>160.66</ele>
        <time>2023-08-24T06:39:12.583Z</time>
      </trkpt>
      <trkpt lat="43.69163" lon="1.46724">
        <ele>160.76001</ele>
        <time>2023-08-24T06:39:13.775Z</time>
      </trkpt>
      <trkpt lat="43.69164" lon="1.46736">
        <ele>160.85</ele>
        <time>2023-08-24T06:39:14.779Z</time>
      </trkpt>
      <trkpt lat="43.69165" lon="1.46741">
        <ele>161</ele>
        <time>2023-08-24T06:39:16.693Z</time>
      </trkpt>
      <trkpt lat="43.69165" lon="1.46747">
        <ele>161.06</ele>
        <time>2023-08-24T06:39:18.454Z</time>
      </trkpt>
      <trkpt lat="43.69165" lon="1.46754">
        <ele>161.12</ele>
        <time>2023-08-24T06:39:18.777Z</time>
      </trkpt>
      <trkpt lat="43.69166" lon="1.4676">
        <ele>161.2</ele>
        <time>2023-08-24T06:39:19.791Z</time>
      </trkpt>
      <trkpt lat="43.69166" lon="1.46773">
        <ele>161.33</ele>
        <time>2023-08-24T06:39:21.771Z</time>
      </trkpt>
      <trkpt lat="43.69165" lon="1.46779">
        <ele>161.45999</ele>
        <time>2023-08-24T06:39:23.724Z</time>
      </trkpt>
      <trkpt lat="43.69165" lon="1.46786">
        <ele>161.45</ele>
        <time>2023-08-24T06:39:25.681Z</time>
      </trkpt>
      <trkpt lat="43.69165" lon="1.46797">
        <ele>161.48999</ele>
        <time>2023-08-24T06:39:25.766Z</time>
      </trkpt>
      <trkpt lat="43.69165" lon="1.46803">
        <ele>161.62</ele>
        <time>2023-08-24T06:39:26.777Z</time>
      </trkpt>
      <trkpt lat="43.69165" lon="1.46807">
        <ele>161.78</ele>
        <time>2023-08-24T06:39:28.764Z</time>
      </trkpt>
      <trkpt lat="43.69164" lon="1.4682">
        <ele>161.98001</ele>
        <time>2023-08-24T06:39:31.469Z</time>
      </trkpt>
      <trkpt lat="43.69164" lon="1.46824">
        <ele>162.26001</ele>
        <time>2023-08-24T06:39:31.781Z</time>
      </trkpt>
      <trkpt lat="43.69163" lon="1.4683">
        <ele>162.43</ele>
        <time>2023-08-24T06:39:32.769Z</time>
      </trkpt>
      <trkpt lat="43.69162" lon="1.46836">
        <ele>162.62</ele>
        <time>2023-08-24T06:39:34.683Z</time>
      </trkpt>
      <trkpt lat="43.69161" lon="1.46843">
        <ele>162.84</ele>
        <time>2023-08-24T06:39:34.772Z</time>
      </trkpt>
      <trkpt lat="43.6916" lon="1.46848">
        <ele>162.94</ele>
        <time>2023-08-24T06:39:36.422Z</time>
      </trkpt>
      <trkpt lat="43.69159" lon="1.46855">
        <ele>163.09</ele>
        <time>2023-08-24T06:39:37.687Z</time>
      </trkpt>
      <trkpt lat="43.69156" lon="1.46863">
        <ele>163.20999</ele>
        <time>2023-08-24T06:39:39.683Z</time>
      </trkpt>
      <trkpt lat="43.69154" lon="1.46869">
        <ele>163.3</ele>
        <time>2023-08-24T06:39:39.778Z</time>
      </trkpt>
      <trkpt lat="43.69152" lon="1.46876">
        <ele>163.31</ele>
        <time>2023-08-24T06:39:40.749Z</time>
      </trkpt>
      <trkpt lat="43.6915" lon="1.46883">
        <ele>163.34</ele>
        <time>2023-08-24T06:39:41.772Z</time>
      </trkpt>
      <trkpt lat="43.69147" lon="1.46891">
        <ele>163.33</ele>
        <time>2023-08-24T06:39:42.755Z</time>
      </trkpt>
      <trkpt lat="43.69144" lon="1.46897">
        <ele>163.39</ele>
        <time>2023-08-24T06:39:43.781Z</time>
      </trkpt>
      <trkpt lat="43.69143" lon="1.46903">
        <ele>163.4</ele>
        <time>2023-08-24T06:39:45.427Z</time>
      </trkpt>
      <trkpt lat="43.6914" lon="1.4691">
        <ele>163.36</ele>
        <time>2023-08-24T06:39:45.790Z</time>
      </trkpt>
      <trkpt lat="43.69138" lon="1.46916">
        <ele>163.39</ele>
        <time>2023-08-24T06:39:46.771Z</time>
      </trkpt>
      <trkpt lat="43.69136" lon="1.46924">
        <ele>163.41</ele>
        <time>2023-08-24T06:39:48.452Z</time>
      </trkpt>
      <trkpt lat="43.69135" lon="1.4693">
        <ele>163.44</ele>
        <time>2023-08-24T06:39:48.787Z</time>
      </trkpt>
      <trkpt lat="43.69133" lon="1.46937">
        <ele>163.57</ele>
        <time>2023-08-24T06:39:49.797Z</time>
      </trkpt>
      <trkpt lat="43.69133" lon="1.46945">
        <ele>163.68</ele>
        <time>2023-08-24T06:39:50.753Z</time>
      </trkpt>
      <trkpt lat="43.69131" lon="1.46952">
        <ele>163.73999</ele>
        <time>2023-08-24T06:39:51.758Z</time>
      </trkpt>
      <trkpt lat="43.6913" lon="1.4696">
        <ele>163.85</ele>
        <time>2023-08-24T06:39:53.442Z</time>
      </trkpt>
      <trkpt lat="43.69129" lon="1.46967">
        <ele>163.91</ele>
        <time>2023-08-24T06:39:53.761Z</time>
      </trkpt>
      <trkpt lat="43.69127" lon="1.46976">
        <ele>163.91</ele>
        <time>2023-08-24T06:39:54.777Z</time>
      </trkpt>
      <trkpt lat="43.69125" lon="1.46983">
        <ele>163.93</ele>
        <time>2023-08-24T06:39:55.775Z</time>
      </trkpt>
      <trkpt lat="43.69123" lon="1.46991">
        <ele>163.92</ele>
        <time>2023-08-24T06:39:56.762Z</time>
      </trkpt>
      <trkpt lat="43.69122" lon="1.46999">
        <ele>163.91</ele>
        <time>2023-08-24T06:39:57.774Z</time>
      </trkpt>
      <trkpt lat="43.6912" lon="1.47007">
        <ele>163.83</ele>
        <time>2023-08-24T06:39:58.763Z</time>
      </trkpt>
      <trkpt lat="43.69119" lon="1.47015">
        <ele>163.84</ele>
        <time>2023-08-24T06:39:59.766Z</time>
      </trkpt>
      <trkpt lat="43.69118" lon="1.47024">
        <ele>163.86</ele>
        <time>2023-08-24T06:40:00.772Z</time>
      </trkpt>
      <trkpt lat="43.69117" lon="1.47032">
        <ele>163.85</ele>
        <time>2023-08-24T06:40:01.776Z</time>
      </trkpt>
      <trkpt lat="43.69116" lon="1.4704">
        <ele>163.85</ele>
        <time>2023-08-24T06:40:02.776Z</time>
      </trkpt>
      <trkpt lat="43.69115" lon="1.47049">
        <ele>163.95</ele>
        <time>2023-08-24T06:40:03.793Z</time>
      </trkpt>
      <trkpt lat="43.69114" lon="1.47057">
        <ele>164.04001</ele>
        <time>2023-08-24T06:40:04.763Z</time>
      </trkpt>
      <trkpt lat="43.69112" lon="1.47065">
        <ele>164.13</ele>
        <time>2023-08-24T06:40:05.773Z</time>
      </trkpt>
      <trkpt lat="43.69111" lon="1.47073">
        <ele>164.25</ele>
        <time>2023-08-24T06:40:06.788Z</time>
      </trkpt>
      <trkpt lat="43.6911" lon="1.47081">
        <ele>164.33</ele>
        <time>2023-08-24T06:40:07.774Z</time>
      </trkpt>
      <trkpt lat="43.69109" lon="1.47089">
        <ele>164.42</ele>
        <time>2023-08-24T06:40:08.768Z</time>
      </trkpt>
      <trkpt lat="43.69109" lon="1.47096">
        <ele>164.64</ele>
        <time>2023-08-24T06:40:09.767Z</time>
      </trkpt>
      <trkpt lat="43.69109" lon="1.47103">
        <ele>164.79001</ele>
        <time>2023-08-24T06:40:11.725Z</time>
      </trkpt>
      <trkpt lat="43.69108" lon="1.47109">
        <ele>164.91</ele>
        <time>2023-08-24T06:40:11.768Z</time>
      </trkpt>
      <trkpt lat="43.69106" lon="1.47116">
        <ele>164.92</ele>
        <time>2023-08-24T06:40:12.778Z</time>
      </trkpt>
      <trkpt lat="43.69104" lon="1.47123">
        <ele>164.97</ele>
        <time>2023-08-24T06:40:13.779Z</time>
      </trkpt>
      <trkpt lat="43.69102" lon="1.47131">
        <ele>165.01999</ele>
        <time>2023-08-24T06:40:14.780Z</time>
      </trkpt>
      <trkpt lat="43.69097" lon="1.47143">
        <ele>165.09</ele>
        <time>2023-08-24T06:40:16.761Z</time>
      </trkpt>
      <trkpt lat="43.69091" lon="1.47157">
        <ele>165.16</ele>
        <time>2023-08-24T06:40:18.764Z</time>
      </trkpt>
      <trkpt lat="43.69089" lon="1.47163">
        <ele>165.20999</ele>
        <time>2023-08-24T06:40:18.774Z</time>
      </trkpt>
      <trkpt lat="43.69086" lon="1.4717">
        <ele>165.2</ele>
        <time>2023-08-24T06:40:19.781Z</time>
      </trkpt>
      <trkpt lat="43.6908" lon="1.47183">
        <ele>165.23001</ele>
        <time>2023-08-24T06:40:21.780Z</time>
      </trkpt>
      <trkpt lat="43.69077" lon="1.47189">
        <ele>165.23001</ele>
        <time>2023-08-24T06:40:22.776Z</time>
      </trkpt>
      <trkpt lat="43.69074" lon="1.47196">
        <ele>165.29001</ele>
        <time>2023-08-24T06:40:23.776Z</time>
      </trkpt>
      <trkpt lat="43.69071" lon="1.47202">
        <ele>165.41</ele>
        <time>2023-08-24T06:40:26.686Z</time>
      </trkpt>
      <trkpt lat="43.69069" lon="1.47209">
        <ele>165.45999</ele>
        <time>2023-08-24T06:40:26.781Z</time>
      </trkpt>
      <trkpt lat="43.69065" lon="1.47223">
        <ele>165.51999</ele>
        <time>2023-08-24T06:40:27.781Z</time>
      </trkpt>
      <trkpt lat="43.69064" lon="1.4723">
        <ele>165.67</ele>
        <time>2023-08-24T06:40:30.685Z</time>
      </trkpt>
      <trkpt lat="43.69062" lon="1.47244">
        <ele>165.84</ele>
        <time>2023-08-24T06:40:31.685Z</time>
      </trkpt>
      <trkpt lat="43.69062" lon="1.47251">
        <ele>166.23999</ele>
        <time>2023-08-24T06:40:31.805Z</time>
      </trkpt>
      <trkpt lat="43.69062" lon="1.47266">
        <ele>166.44</ele>
        <time>2023-08-24T06:40:34.756Z</time>
      </trkpt>
      <trkpt lat="43.69062" lon="1.47273">
        <ele>166.72</ele>
        <time>2023-08-24T06:40:35.777Z</time>
      </trkpt>
      <trkpt lat="43.69062" lon="1.4728">
        <ele>166.86</ele>
        <time>2023-08-24T06:40:36.686Z</time>
      </trkpt>
      <trkpt lat="43.69062" lon="1.47288">
        <ele>167.01001</ele>
        <time>2023-08-24T06:40:37.686Z</time>
      </trkpt>
      <trkpt lat="43.69062" lon="1.47295">
        <ele>167.16</ele>
        <time>2023-08-24T06:40:37.791Z</time>
      </trkpt>
      <trkpt lat="43.69062" lon="1.47302">
        <ele>167.28</ele>
        <time>2023-08-24T06:40:38.796Z</time>
      </trkpt>
      <trkpt lat="43.69062" lon="1.47309">
        <ele>167.39</ele>
        <time>2023-08-24T06:40:40.779Z</time>
      </trkpt>
      <trkpt lat="43.69063" lon="1.47316">
        <ele>167.53</ele>
        <time>2023-08-24T06:40:40.930Z</time>
      </trkpt>
      <trkpt lat="43.69063" lon="1.47324">
        <ele>167.67</ele>
        <time>2023-08-24T06:40:42.793Z</time>
      </trkpt>
      <trkpt lat="43.69063" lon="1.4733">
        <ele>167.79001</ele>
        <time>2023-08-24T06:40:43.772Z</time>
      </trkpt>
      <trkpt lat="43.69064" lon="1.47337">
        <ele>167.97</ele>
        <time>2023-08-24T06:40:44.688Z</time>
      </trkpt>
      <trkpt lat="43.69064" lon="1.47344">
        <ele>168.08</ele>
        <time>2023-08-24T06:40:45.784Z</time>
      </trkpt>
      <trkpt lat="43.69064" lon="1.47358">
        <ele>168.2</ele>
        <time>2023-08-24T06:40:47.687Z</time>
      </trkpt>
      <trkpt lat="43.69064" lon="1.47365">
        <ele>168.42</ele>
        <time>2023-08-24T06:40:48.787Z</time>
      </trkpt>
      <trkpt lat="43.69064" lon="1.47371">
        <ele>168.51999</ele>
        <time>2023-08-24T06:40:49.688Z</time>
      </trkpt>
      <trkpt lat="43.69067" lon="1.47382">
        <ele>168.58</ele>
        <time>2023-08-24T06:40:51.768Z</time>
      </trkpt>
      <trkpt lat="43.69068" lon="1.47386">
        <ele>168.8</ele>
        <time>2023-08-24T06:40:52.689Z</time>
      </trkpt>
      <trkpt lat="43.69075" lon="1.47397">
        <ele>168.91</ele>
        <time>2023-08-24T06:40:54.688Z</time>
      </trkpt>
      <trkpt lat="43.69078" lon="1.47401">
        <ele>169.14</ele>
        <time>2023-08-24T06:40:55.689Z</time>
      </trkpt>
      <trkpt lat="43.6908" lon="1.47405">
        <ele>169.31</ele>
        <time>2023-08-24T06:40:56.780Z</time>
      </trkpt>
      <trkpt lat="43.69084" lon="1.47411">
        <ele>169.5</ele>
        <time>2023-08-24T06:40:57.689Z</time>
      </trkpt>
      <trkpt lat="43.69085" lon="1.47417">
        <ele>169.75</ele>
        <time>2023-08-24T06:40:59.757Z</time>
      </trkpt>
      <trkpt lat="43.69088" lon="1.47421">
        <ele>170</ele>
        <time>2023-08-24T06:41:00.788Z</time>
      </trkpt>
      <trkpt lat="43.69091" lon="1.47427">
        <ele>170.19</ele>
        <time>2023-08-24T06:41:01.790Z</time>
      </trkpt>
      <trkpt lat="43.69094" lon="1.47432">
        <ele>170.45999</ele>
        <time>2023-08-24T06:41:02.802Z</time>
      </trkpt>
      <trkpt lat="43.69099" lon="1.47442">
        <ele>170.76999</ele>
        <time>2023-08-24T06:41:04.689Z</time>
      </trkpt>
      <trkpt lat="43.69102" lon="1.47449">
        <ele>171.4</ele>
        <time>2023-08-24T06:41:06.791Z</time>
      </trkpt>
      <trkpt lat="43.69103" lon="1.47453">
        <ele>171.70999</ele>
        <time>2023-08-24T06:41:07.384Z</time>
      </trkpt>
      <trkpt lat="43.69105" lon="1.47458">
        <ele>172.07</ele>
        <time>2023-08-24T06:41:07.821Z</time>
      </trkpt>
      <trkpt lat="43.69107" lon="1.47464">
        <ele>172.45</ele>
        <time>2023-08-24T06:41:09.773Z</time>
      </trkpt>
      <trkpt lat="43.69109" lon="1.47469">
        <ele>172.85</ele>
        <time>2023-08-24T06:41:10.422Z</time>
      </trkpt>
      <trkpt lat="43.6911" lon="1.47474">
        <ele>173.23999</ele>
        <time>2023-08-24T06:41:11.789Z</time>
      </trkpt>
      <trkpt lat="43.69112" lon="1.47478">
        <ele>173.63</ele>
        <time>2023-08-24T06:41:12.430Z</time>
      </trkpt>
      <trkpt lat="43.69113" lon="1.47485">
        <ele>174.05</ele>
        <time>2023-08-24T06:41:14.697Z</time>
      </trkpt>
      <trkpt lat="43.69114" lon="1.47488">
        <ele>174.5</ele>
        <time>2023-08-24T06:41:15.796Z</time>
      </trkpt>
      <trkpt lat="43.69115" lon="1.47493">
        <ele>174.91</ele>
        <time>2023-08-24T06:41:16.807Z</time>
      </trkpt>
      <trkpt lat="43.69116" lon="1.47498">
        <ele>175.34</ele>
        <time>2023-08-24T06:41:17.813Z</time>
      </trkpt>
      <trkpt lat="43.69117" lon="1.47503">
        <ele>175.8</ele>
        <time>2023-08-24T06:41:17.893Z</time>
      </trkpt>
      <trkpt lat="43.69118" lon="1.47507">
        <ele>176.17</ele>
        <time>2023-08-24T06:41:19.791Z</time>
      </trkpt>
      <trkpt lat="43.69119" lon="1.47512">
        <ele>176.53</ele>
        <time>2023-08-24T06:41:21.804Z</time>
      </trkpt>
      <trkpt lat="43.69122" lon="1.47522">
        <ele>176.98999</ele>
        <time>2023-08-24T06:41:23.811Z</time>
      </trkpt>
      <trkpt lat="43.69123" lon="1.47527">
        <ele>177.8</ele>
        <time>2023-08-24T06:41:24.595Z</time>
      </trkpt>
      <trkpt lat="43.69125" lon="1.47533">
        <ele>178.14</ele>
        <time>2023-08-24T06:41:26.789Z</time>
      </trkpt>
      <trkpt lat="43.69126" lon="1.47538">
        <ele>178.58</ele>
        <time>2023-08-24T06:41:27.804Z</time>
      </trkpt>
      <trkpt lat="43.69127" lon="1.47543">
        <ele>179.01999</ele>
        <time>2023-08-24T06:41:28.740Z</time>
      </trkpt>
      <trkpt lat="43.69128" lon="1.47548">
        <ele>179.45999</ele>
        <time>2023-08-24T06:41:29.809Z</time>
      </trkpt>
      <trkpt lat="43.6913" lon="1.47557">
        <ele>179.87</ele>
        <time>2023-08-24T06:41:31.642Z</time>
      </trkpt>
      <trkpt lat="43.69132" lon="1.47563">
        <ele>180.75</ele>
        <time>2023-08-24T06:41:33.820Z</time>
      </trkpt>
      <trkpt lat="43.69134" lon="1.47568">
        <ele>181.17</ele>
        <time>2023-08-24T06:41:34.743Z</time>
      </trkpt>
      <trkpt lat="43.69135" lon="1.47572">
        <ele>181.58</ele>
        <time>2023-08-24T06:41:35.779Z</time>
      </trkpt>
      <trkpt lat="43.69137" lon="1.47577">
        <ele>182.20999</ele>
        <time>2023-08-24T06:41:36.786Z</time>
      </trkpt>
      <trkpt lat="43.69138" lon="1.47582">
        <ele>182.84</ele>
        <time>2023-08-24T06:41:37.742Z</time>
      </trkpt>
      <trkpt lat="43.6914" lon="1.47587">
        <ele>183.41</ele>
        <time>2023-08-24T06:41:39.562Z</time>
      </trkpt>
      <trkpt lat="43.69141" lon="1.4759">
        <ele>183.81</ele>
        <time>2023-08-24T06:41:40.794Z</time>
      </trkpt>
      <trkpt lat="43.69143" lon="1.47594">
        <ele>184.23999</ele>
        <time>2023-08-24T06:41:41.681Z</time>
      </trkpt>
      <trkpt lat="43.69147" lon="1.47603">
        <ele>184.7</ele>
        <time>2023-08-24T06:41:42.836Z</time>
      </trkpt>
      <trkpt lat="43.69148" lon="1.47608">
        <ele>185.34</ele>
        <time>2023-08-24T06:41:44.804Z</time>
      </trkpt>
      <trkpt lat="43.69151" lon="1.47613">
        <ele>185.88</ele>
        <time>2023-08-24T06:41:45.680Z</time>
      </trkpt>
      <trkpt lat="43.69153" lon="1.47617">
        <ele>186.6</ele>
        <time>2023-08-24T06:41:46.684Z</time>
      </trkpt>
      <trkpt lat="43.69155" lon="1.47619">
        <ele>187.06</ele>
        <time>2023-08-24T06:41:48.843Z</time>
      </trkpt>
      <trkpt lat="43.6916" lon="1.47626">
        <ele>187.54001</ele>
        <time>2023-08-24T06:41:48.900Z</time>
      </trkpt>
      <trkpt lat="43.69162" lon="1.47629">
        <ele>188.12</ele>
        <time>2023-08-24T06:41:49.941Z</time>
      </trkpt>
      <trkpt lat="43.69167" lon="1.47634">
        <ele>188.69</ele>
        <time>2023-08-24T06:41:52.783Z</time>
      </trkpt>
      <trkpt lat="43.69168" lon="1.47636">
        <ele>189.26001</ele>
        <time>2023-08-24T06:41:52.958Z</time>
      </trkpt>
      <trkpt lat="43.69171" lon="1.47639">
        <ele>189.58</ele>
        <time>2023-08-24T06:41:53.918Z</time>
      </trkpt>
      <trkpt lat="43.69173" lon="1.47642">
        <ele>189.92</ele>
        <time>2023-08-24T06:41:55.845Z</time>
      </trkpt>
      <trkpt lat="43.69176" lon="1.47645">
        <ele>190.35</ele>
        <time>2023-08-24T06:41:57.795Z</time>
      </trkpt>
      <trkpt lat="43.69179" lon="1.47648">
        <ele>190.75</ele>
        <time>2023-08-24T06:41:58.685Z</time>
      </trkpt>
      <trkpt lat="43.69183" lon="1.47651">
        <ele>191.11</ele>
        <time>2023-08-24T06:41:59.741Z</time>
      </trkpt>
      <trkpt lat="43.69186" lon="1.47653">
        <ele>191.41</ele>
        <time>2023-08-24T06:42:00.837Z</time>
      </trkpt>
      <trkpt lat="43.69188" lon="1.47655">
        <ele>191.78</ele>
        <time>2023-08-24T06:42:01.750Z</time>
      </trkpt>
      <trkpt lat="43.69191" lon="1.47657">
        <ele>192.03</ele>
        <time>2023-08-24T06:42:03.786Z</time>
      </trkpt>
      <trkpt lat="43.69195" lon="1.4766">
        <ele>192.23999</ele>
        <time>2023-08-24T06:42:04.750Z</time>
      </trkpt>
      <trkpt lat="43.69199" lon="1.47663">
        <ele>192.51999</ele>
        <time>2023-08-24T06:42:05.816Z</time>
      </trkpt>
      <trkpt lat="43.69202" lon="1.47665">
        <ele>192.87</ele>
        <time>2023-08-24T06:42:06.740Z</time>
      </trkpt>
      <trkpt lat="43.69206" lon="1.47668">
        <ele>193.16</ele>
        <time>2023-08-24T06:42:07.855Z</time>
      </trkpt>
      <trkpt lat="43.69208" lon="1.47671">
        <ele>193.51001</ele>
        <time>2023-08-24T06:42:08.487Z</time>
      </trkpt>
      <trkpt lat="43.69212" lon="1.47673">
        <ele>193.81</ele>
        <time>2023-08-24T06:42:09.824Z</time>
      </trkpt>
      <trkpt lat="43.69215" lon="1.47676">
        <ele>194.11</ele>
        <time>2023-08-24T06:42:10.865Z</time>
      </trkpt>
      <trkpt lat="43.69217" lon="1.47679">
        <ele>194.42</ele>
        <time>2023-08-24T06:42:12.827Z</time>
      </trkpt>
      <trkpt lat="43.6922" lon="1.47682">
        <ele>194.70999</ele>
        <time>2023-08-24T06:42:13.769Z</time>
      </trkpt>
      <trkpt lat="43.69224" lon="1.47684">
        <ele>195</ele>
        <time>2023-08-24T06:42:14.829Z</time>
      </trkpt>
      <trkpt lat="43.6923" lon="1.47689">
        <ele>195.26001</ele>
        <time>2023-08-24T06:42:16.854Z</time>
      </trkpt>
      <trkpt lat="43.69235" lon="1.47693">
        <ele>195.67</ele>
        <time>2023-08-24T06:42:18.784Z</time>
      </trkpt>
      <trkpt lat="43.69239" lon="1.47696">
        <ele>195.73999</ele>
        <time>2023-08-24T06:42:19.850Z</time>
      </trkpt>
      <trkpt lat="43.69248" lon="1.47705">
        <ele>195.8</ele>
        <time>2023-08-24T06:42:20.592Z</time>
      </trkpt>
      <trkpt lat="43.69251" lon="1.47708">
        <ele>195.76001</ele>
        <time>2023-08-24T06:42:21.812Z</time>
      </trkpt>
      <trkpt lat="43.69255" lon="1.47712">
        <ele>195.73001</ele>
        <time>2023-08-24T06:42:22.849Z</time>
      </trkpt>
      <trkpt lat="43.6926" lon="1.47717">
        <ele>195.67</ele>
        <time>2023-08-24T06:42:23.786Z</time>
      </trkpt>
      <trkpt lat="43.69266" lon="1.47723">
        <ele>195.61</ele>
        <time>2023-08-24T06:42:24.843Z</time>
      </trkpt>
      <trkpt lat="43.69271" lon="1.47728">
        <ele>195.5</ele>
        <time>2023-08-24T06:42:25.864Z</time>
      </trkpt>
      <trkpt lat="43.69276" lon="1.47734">
        <ele>195.34</ele>
        <time>2023-08-24T06:42:26.811Z</time>
      </trkpt>
      <trkpt lat="43.69281" lon="1.47739">
        <ele>195.20999</ele>
        <time>2023-08-24T06:42:27.839Z</time>
      </trkpt>
      <trkpt lat="43.69286" lon="1.47745">
        <ele>195.1</ele>
        <time>2023-08-24T06:42:28.789Z</time>
      </trkpt>
      <trkpt lat="43.6929" lon="1.47751">
        <ele>195.01999</ele>
        <time>2023-08-24T06:42:29.789Z</time>
      </trkpt>
      <trkpt lat="43.69294" lon="1.47756">
        <ele>194.98999</ele>
        <time>2023-08-24T06:42:30.823Z</time>
      </trkpt>
      <trkpt lat="43.69299" lon="1.47761">
        <ele>195.04001</ele>
        <time>2023-08-24T06:42:31.851Z</time>
      </trkpt>
      <trkpt lat="43.69303" lon="1.47766">
        <ele>195.11</ele>
        <time>2023-08-24T06:42:32.711Z</time>
      </trkpt>
      <trkpt lat="43.69308" lon="1.4777">
        <ele>195.16</ele>
        <time>2023-08-24T06:42:33.789Z</time>
      </trkpt>
      <trkpt lat="43.69313" lon="1.47774">
        <ele>195.26999</ele>
        <time>2023-08-24T06:42:34.885Z</time>
      </trkpt>
      <trkpt lat="43.69318" lon="1.47776">
        <ele>195.39</ele>
        <time>2023-08-24T06:42:34.938Z</time>
      </trkpt>
      <trkpt lat="43.69323" lon="1.47778">
        <ele>195.51001</ele>
        <time>2023-08-24T06:42:36.685Z</time>
      </trkpt>
      <trkpt lat="43.69327" lon="1.47778">
        <ele>195.65</ele>
        <time>2023-08-24T06:42:37.868Z</time>
      </trkpt>
      <trkpt lat="43.69333" lon="1.47778">
        <ele>195.8</ele>
        <time>2023-08-24T06:42:38.784Z</time>
      </trkpt>
      <trkpt lat="43.69337" lon="1.47778">
        <ele>195.91</ele>
        <time>2023-08-24T06:42:39.784Z</time>
      </trkpt>
      <trkpt lat="43.69341" lon="1.47777">
        <ele>196.01999</ele>
        <time>2023-08-24T06:42:39.926Z</time>
      </trkpt>
      <trkpt lat="43.69346" lon="1.47776">
        <ele>196.15</ele>
        <time>2023-08-24T06:42:41.902Z</time>
      </trkpt>
      <trkpt lat="43.69349" lon="1.47775">
        <ele>196.25</ele>
        <time>2023-08-24T06:42:42.733Z</time>
      </trkpt>
      <trkpt lat="43.69354" lon="1.47775">
        <ele>196.37</ele>
        <time>2023-08-24T06:42:43.887Z</time>
      </trkpt>
      <trkpt lat="43.6936" lon="1.47775">
        <ele>196.38</ele>
        <time>2023-08-24T06:42:44.855Z</time>
      </trkpt>
      <trkpt lat="43.69365" lon="1.47775">
        <ele>196.33</ele>
        <time>2023-08-24T06:42:45.894Z</time>
      </trkpt>
      <trkpt lat="43.6937" lon="1.47775">
        <ele>196.38</ele>
        <time>2023-08-24T06:42:46.731Z</time>
      </trkpt>
      <trkpt lat="43.69374" lon="1.47776">
        <ele>196.37</ele>
        <time>2023-08-24T06:42:47.786Z</time>
      </trkpt>
      <trkpt lat="43.6938" lon="1.47776">
        <ele>196.37</ele>
        <time>2023-08-24T06:42:48.907Z</time>
      </trkpt>
      <trkpt lat="43.69384" lon="1.47775">
        <ele>196.44</ele>
        <time>2023-08-24T06:42:49.890Z</time>
      </trkpt>
      <trkpt lat="43.6939" lon="1.47775">
        <ele>196.48999</ele>
        <time>2023-08-24T06:42:50.913Z</time>
      </trkpt>
      <trkpt lat="43.69395" lon="1.47775">
        <ele>196.54001</ele>
        <time>2023-08-24T06:42:51.411Z</time>
      </trkpt>
      <trkpt lat="43.694" lon="1.47775">
        <ele>196.58</ele>
        <time>2023-08-24T06:42:52.441Z</time>
      </trkpt>
      <trkpt lat="43.69405" lon="1.47775">
        <ele>196.59</ele>
        <time>2023-08-24T06:42:53.876Z</time>
      </trkpt>
      <trkpt lat="43.6941" lon="1.47775">
        <ele>196.62</ele>
        <time>2023-08-24T06:42:54.910Z</time>
      </trkpt>
      <trkpt lat="43.69415" lon="1.47775">
        <ele>196.66</ele>
        <time>2023-08-24T06:42:55.914Z</time>
      </trkpt>
      <trkpt lat="43.69421" lon="1.47775">
        <ele>196.73001</ele>
        <time>2023-08-24T06:42:56.420Z</time>
      </trkpt>
      <trkpt lat="43.69426" lon="1.47775">
        <ele>196.79001</ele>
        <time>2023-08-24T06:42:57.913Z</time>
      </trkpt>
      <trkpt lat="43.69431" lon="1.47775">
        <ele>196.82</ele>
        <time>2023-08-24T06:42:58.895Z</time>
      </trkpt>
      <trkpt lat="43.69435" lon="1.47774">
        <ele>196.89</ele>
        <time>2023-08-24T06:42:59.914Z</time>
      </trkpt>
      <trkpt lat="43.69439" lon="1.4777">
        <ele>197</ele>
        <time>2023-08-24T06:43:00.920Z</time>
      </trkpt>
      <trkpt lat="43.69443" lon="1.47765">
        <ele>197.06</ele>
        <time>2023-08-24T06:43:01.426Z</time>
      </trkpt>
      <trkpt lat="43.69446" lon="1.4776">
        <ele>197.1</ele>
        <time>2023-08-24T06:43:02.677Z</time>
      </trkpt>
      <trkpt lat="43.69449" lon="1.47754">
        <ele>197.17</ele>
        <time>2023-08-24T06:43:03.880Z</time>
      </trkpt>
      <trkpt lat="43.69452" lon="1.47748">
        <ele>197.28</ele>
        <time>2023-08-24T06:43:04.898Z</time>
      </trkpt>
      <trkpt lat="43.69455" lon="1.47743">
        <ele>197.39</ele>
        <time>2023-08-24T06:43:05.894Z</time>
      </trkpt>
      <trkpt lat="43.69457" lon="1.47737">
        <ele>197.47</ele>
        <time>2023-08-24T06:43:06.884Z</time>
      </trkpt>
      <trkpt lat="43.69459" lon="1.47732">
        <ele>197.57</ele>
        <time>2023-08-24T06:43:07.931Z</time>
      </trkpt>
      <trkpt lat="43.69464" lon="1.4772">
        <ele>197.69</ele>
        <time>2023-08-24T06:43:09.928Z</time>
      </trkpt>
      <trkpt lat="43.69466" lon="1.47715">
        <ele>197.93</ele>
        <time>2023-08-24T06:43:10.905Z</time>
      </trkpt>
      <trkpt lat="43.69469" lon="1.47709">
        <ele>198.07</ele>
        <time>2023-08-24T06:43:11.909Z</time>
      </trkpt>
      <trkpt lat="43.69471" lon="1.47705">
        <ele>198.18</ele>
        <time>2023-08-24T06:43:12.912Z</time>
      </trkpt>
      <trkpt lat="43.69472" lon="1.47702">
        <ele>198.32</ele>
        <time>2023-08-24T06:43:13.917Z</time>
      </trkpt>
      <trkpt lat="43.69477" lon="1.47693">
        <ele>198.5</ele>
        <time>2023-08-24T06:43:14.930Z</time>
      </trkpt>
      <trkpt lat="43.69479" lon="1.47687">
        <ele>198.68</ele>
        <time>2023-08-24T06:43:15.890Z</time>
      </trkpt>
      <trkpt lat="43.69483" lon="1.47675">
        <ele>198.9</ele>
        <time>2023-08-24T06:43:17.932Z</time>
      </trkpt>
      <trkpt lat="43.69485" lon="1.47664">
        <ele>199.26999</ele>
        <time>2023-08-24T06:43:19.891Z</time>
      </trkpt>
      <trkpt lat="43.69487" lon="1.47657">
        <ele>199.72</ele>
        <time>2023-08-24T06:43:20.889Z</time>
      </trkpt>
      <trkpt lat="43.69487" lon="1.47652">
        <ele>199.98999</ele>
        <time>2023-08-24T06:43:21.891Z</time>
      </trkpt>
      <trkpt lat="43.69488" lon="1.47648">
        <ele>200.22</ele>
        <time>2023-08-24T06:43:22.891Z</time>
      </trkpt>
      <trkpt lat="43.69489" lon="1.47641">
        <ele>200.43</ele>
        <time>2023-08-24T06:43:23.888Z</time>
      </trkpt>
      <trkpt lat="43.69491" lon="1.47632">
        <ele>200.67</ele>
        <time>2023-08-24T06:43:25.918Z</time>
      </trkpt>
      <trkpt lat="43.6949" lon="1.47629">
        <ele>200.98999</ele>
        <time>2023-08-24T06:43:26.889Z</time>
      </trkpt>
      <trkpt lat="43.69492" lon="1.47625">
        <ele>201.25</ele>
        <time>2023-08-24T06:43:28.888Z</time>
      </trkpt>
      <trkpt lat="43.69493" lon="1.47618">
        <ele>201.56</ele>
        <time>2023-08-24T06:43:29.888Z</time>
      </trkpt>
      <trkpt lat="43.69493" lon="1.4761">
        <ele>201.85</ele>
        <time>2023-08-24T06:43:30.891Z</time>
      </trkpt>
      <trkpt lat="43.69495" lon="1.47603">
        <ele>202.18</ele>
        <time>2023-08-24T06:43:31.888Z</time>
      </trkpt>
      <trkpt lat="43.69497" lon="1.47594">
        <ele>202.44</ele>
        <time>2023-08-24T06:43:32.888Z</time>
      </trkpt>
      <trkpt lat="43.69501" lon="1.4758">
        <ele>202.72</ele>
        <time>2023-08-24T06:43:33.967Z</time>
      </trkpt>
      <trkpt lat="43.69503" lon="1.47575">
        <ele>203.08</ele>
        <time>2023-08-24T06:43:35.562Z</time>
      </trkpt>
      <trkpt lat="43.69506" lon="1.4757">
        <ele>203.38</ele>
        <time>2023-08-24T06:43:36.892Z</time>
      </trkpt>
      <trkpt lat="43.69509" lon="1.47565">
        <ele>203.62</ele>
        <time>2023-08-24T06:43:37.974Z</time>
      </trkpt>
      <trkpt lat="43.69515" lon="1.47555">
        <ele>203.86</ele>
        <time>2023-08-24T06:43:39.899Z</time>
      </trkpt>
      <trkpt lat="43.69517" lon="1.47551">
        <ele>204.26001</ele>
        <time>2023-08-24T06:43:39.986Z</time>
      </trkpt>
      <trkpt lat="43.69523" lon="1.47542">
        <ele>204.5</ele>
        <time>2023-08-24T06:43:42.893Z</time>
      </trkpt>
      <trkpt lat="43.69525" lon="1.47538">
        <ele>204.83</ele>
        <time>2023-08-24T06:43:43.913Z</time>
      </trkpt>
      <trkpt lat="43.69528" lon="1.47534">
        <ele>205.1</ele>
        <time>2023-08-24T06:43:44.859Z</time>
      </trkpt>
      <trkpt lat="43.69533" lon="1.47525">
        <ele>205.41</ele>
        <time>2023-08-24T06:43:46.883Z</time>
      </trkpt>
      <trkpt lat="43.69535" lon="1.47522">
        <ele>205.93</ele>
        <time>2023-08-24T06:43:47.565Z</time>
      </trkpt>
      <trkpt lat="43.69538" lon="1.47518">
        <ele>206.2</ele>
        <time>2023-08-24T06:43:48.084Z</time>
      </trkpt>
      <trkpt lat="43.69543" lon="1.47511">
        <ele>206.62</ele>
        <time>2023-08-24T06:43:50.969Z</time>
      </trkpt>
      <trkpt lat="43.69544" lon="1.47512">
        <ele>206.89</ele>
        <time>2023-08-24T06:43:51.952Z</time>
      </trkpt>
      <trkpt lat="43.69546" lon="1.47513">
        <ele>207</ele>
        <time>2023-08-24T06:43:52.985Z</time>
      </trkpt>
      <trkpt lat="43.69548" lon="1.47515">
        <ele>207.15</ele>
        <time>2023-08-24T06:43:54.591Z</time>
      </trkpt>
      <trkpt lat="43.69551" lon="1.47518">
        <ele>207.17</ele>
        <time>2023-08-24T06:43:55.957Z</time>
      </trkpt>
      <trkpt lat="43.69555" lon="1.47522">
        <ele>207.22</ele>
        <time>2023-08-24T06:43:56.594Z</time>
      </trkpt>
      <trkpt lat="43.69568" lon="1.47534">
        <ele>207.26001</ele>
        <time>2023-08-24T06:43:58.884Z</time>
      </trkpt>
      <trkpt lat="43.69572" lon="1.47539">
        <ele>207.37</ele>
        <time>2023-08-24T06:43:59.844Z</time>
      </trkpt>
      <trkpt lat="43.69576" lon="1.47546">
        <ele>207.39</ele>
        <time>2023-08-24T06:44:00.920Z</time>
      </trkpt>
      <trkpt lat="43.69578" lon="1.47553">
        <ele>207.45999</ele>
        <time>2023-08-24T06:44:01.576Z</time>
      </trkpt>
      <trkpt lat="43.69579" lon="1.4756">
        <ele>207.45999</ele>
        <time>2023-08-24T06:44:02.621Z</time>
      </trkpt>
      <trkpt lat="43.6958" lon="1.47568">
        <ele>207.5</ele>
        <time>2023-08-24T06:44:03.968Z</time>
      </trkpt>
      <trkpt lat="43.69582" lon="1.47575">
        <ele>207.51001</ele>
        <time>2023-08-24T06:44:04.568Z</time>
      </trkpt>
      <trkpt lat="43.69582" lon="1.47583">
        <ele>207.55</ele>
        <time>2023-08-24T06:44:05.762Z</time>
      </trkpt>
      <trkpt lat="43.69584" lon="1.4759">
        <ele>207.61</ele>
        <time>2023-08-24T06:44:06.875Z</time>
      </trkpt>
      <trkpt lat="43.69585" lon="1.47598">
        <ele>207.7</ele>
        <time>2023-08-24T06:44:07.982Z</time>
      </trkpt>
      <trkpt lat="43.69587" lon="1.47605">
        <ele>207.82</ele>
        <time>2023-08-24T06:44:08.896Z</time>
      </trkpt>
      <trkpt lat="43.6959" lon="1.47612">
        <ele>207.88</ele>
        <time>2023-08-24T06:44:09.978Z</time>
      </trkpt>
      <trkpt lat="43.69592" lon="1.47619">
        <ele>207.91</ele>
        <time>2023-08-24T06:44:10.620Z</time>
      </trkpt>
      <trkpt lat="43.69595" lon="1.47626">
        <ele>207.98999</ele>
        <time>2023-08-24T06:44:11.604Z</time>
      </trkpt>
      <trkpt lat="43.69597" lon="1.47633">
        <ele>208.07</ele>
        <time>2023-08-24T06:44:12.973Z</time>
      </trkpt>
      <trkpt lat="43.696" lon="1.4764">
        <ele>208.12</ele>
        <time>2023-08-24T06:44:13.599Z</time>
      </trkpt>
      <trkpt lat="43.69603" lon="1.47647">
        <ele>208.15</ele>
        <time>2023-08-24T06:44:14.767Z</time>
      </trkpt>
      <trkpt lat="43.69606" lon="1.47654">
        <ele>208.22</ele>
        <time>2023-08-24T06:44:15.912Z</time>
      </trkpt>
      <trkpt lat="43.69609" lon="1.47661">
        <ele>208.26001</ele>
        <time>2023-08-24T06:44:16.984Z</time>
      </trkpt>
      <trkpt lat="43.69611" lon="1.47668">
        <ele>208.32</ele>
        <time>2023-08-24T06:44:17.983Z</time>
      </trkpt>
      <trkpt lat="43.69614" lon="1.47675">
        <ele>208.41</ele>
        <time>2023-08-24T06:44:18.988Z</time>
      </trkpt>
      <trkpt lat="43.69617" lon="1.47682">
        <ele>208.44</ele>
        <time>2023-08-24T06:44:19.960Z</time>
      </trkpt>
      <trkpt lat="43.6962" lon="1.47689">
        <ele>208.51999</ele>
        <time>2023-08-24T06:44:20.543Z</time>
      </trkpt>
      <trkpt lat="43.69623" lon="1.47695">
        <ele>208.61</ele>
        <time>2023-08-24T06:44:21.954Z</time>
      </trkpt>
      <trkpt lat="43.69628" lon="1.47707">
        <ele>208.68</ele>
        <time>2023-08-24T06:44:23.970Z</time>
      </trkpt>
      <trkpt lat="43.69631" lon="1.47714">
        <ele>208.81</ele>
        <time>2023-08-24T06:44:24.994Z</time>
      </trkpt>
      <trkpt lat="43.69633" lon="1.4772">
        <ele>208.93</ele>
        <time>2023-08-24T06:44:25.514Z</time>
      </trkpt>
      <trkpt lat="43.69636" lon="1.47726">
        <ele>209</ele>
        <time>2023-08-24T06:44:26.989Z</time>
      </trkpt>
      <trkpt lat="43.69638" lon="1.47731">
        <ele>209.13</ele>
        <time>2023-08-24T06:44:28.861Z</time>
      </trkpt>
      <trkpt lat="43.69641" lon="1.47741">
        <ele>209.3</ele>
        <time>2023-08-24T06:44:30.003Z</time>
      </trkpt>
      <trkpt lat="43.69641" lon="1.47745">
        <ele>209.55</ele>
        <time>2023-08-24T06:44:30.952Z</time>
      </trkpt>
      <trkpt lat="43.69641" lon="1.47749">
        <ele>209.69</ele>
        <time>2023-08-24T06:44:31.578Z</time>
      </trkpt>
      <trkpt lat="43.69641" lon="1.47752">
        <ele>209.83</ele>
        <time>2023-08-24T06:44:32.593Z</time>
      </trkpt>
      <trkpt lat="43.6964" lon="1.47758">
        <ele>210.04</ele>
        <time>2023-08-24T06:44:35.977Z</time>
      </trkpt>
      <trkpt lat="43.69639" lon="1.47762">
        <ele>210.18</ele>
        <time>2023-08-24T06:44:38.967Z</time>
      </trkpt>
      <trkpt lat="43.69639" lon="1.47764">
        <ele>210.27</ele>
        <time>2023-08-24T06:44:39.994Z</time>
      </trkpt>
      <trkpt lat="43.6964" lon="1.47765">
        <ele>210.28</ele>
        <time>2023-08-24T06:44:41.993Z</time>
      </trkpt>
      <trkpt lat="43.69644" lon="1.47765">
        <ele>210.35</ele>
        <time>2023-08-24T06:44:43.030Z</time>
      </trkpt>
      <trkpt lat="43.6965" lon="1.47765">
        <ele>210.43</ele>
        <time>2023-08-24T06:44:45.026Z</time>
      </trkpt>
      <trkpt lat="43.69652" lon="1.47768">
        <ele>210.46</ele>
        <time>2023-08-24T06:44:45.690Z</time>
      </trkpt>
      <trkpt lat="43.69656" lon="1.47771">
        <ele>210.51</ele>
        <time>2023-08-24T06:44:47.991Z</time>
      </trkpt>
      <trkpt lat="43.69666" lon="1.47781">
        <ele>210.53</ele>
        <time>2023-08-24T06:44:49.005Z</time>
      </trkpt>
      <trkpt lat="43.69669" lon="1.47784">
        <ele>210.59</ele>
        <time>2023-08-24T06:44:49.055Z</time>
      </trkpt>
      <trkpt lat="43.69672" lon="1.47787">
        <ele>210.6</ele>
        <time>2023-08-24T06:44:51Z</time>
      </trkpt>
      <trkpt lat="43.69676" lon="1.47793">
        <ele>210.6</ele>
        <time>2023-08-24T06:44:51.910Z</time>
      </trkpt>
      <trkpt lat="43.6968" lon="1.47798">
        <ele>210.62</ele>
        <time>2023-08-24T06:44:53.012Z</time>
      </trkpt>
      <trkpt lat="43.69688" lon="1.47807">
        <ele>210.6</ele>
        <time>2023-08-24T06:44:54.738Z</time>
      </trkpt>
      <trkpt lat="43.69692" lon="1.47811">
        <ele>210.75</ele>
        <time>2023-08-24T06:44:56.026Z</time>
      </trkpt>
      <trkpt lat="43.697" lon="1.4782">
        <ele>210.75</ele>
        <time>2023-08-24T06:44:57.955Z</time>
      </trkpt>
      <trkpt lat="43.69705" lon="1.47824">
        <ele>210.95</ele>
        <time>2023-08-24T06:44:58.996Z</time>
      </trkpt>
      <trkpt lat="43.69709" lon="1.47828">
        <ele>211.07</ele>
        <time>2023-08-24T06:44:59.681Z</time>
      </trkpt>
      <trkpt lat="43.69715" lon="1.47832">
        <ele>211.16</ele>
        <time>2023-08-24T06:45:00.960Z</time>
      </trkpt>
      <trkpt lat="43.6972" lon="1.47834">
        <ele>211.22</ele>
        <time>2023-08-24T06:45:02.005Z</time>
      </trkpt>
      <trkpt lat="43.69725" lon="1.47836">
        <ele>211.22</ele>
        <time>2023-08-24T06:45:03.054Z</time>
      </trkpt>
      <trkpt lat="43.69738" lon="1.47839">
        <ele>211.21</ele>
        <time>2023-08-24T06:45:05.032Z</time>
      </trkpt>
      <trkpt lat="43.69744" lon="1.47839">
        <ele>211.32</ele>
        <time>2023-08-24T06:45:05.657Z</time>
      </trkpt>
      <trkpt lat="43.6975" lon="1.47838">
        <ele>211.3</ele>
        <time>2023-08-24T06:45:06.949Z</time>
      </trkpt>
      <trkpt lat="43.69756" lon="1.47837">
        <ele>211.3</ele>
        <time>2023-08-24T06:45:07.966Z</time>
      </trkpt>
      <trkpt lat="43.69762" lon="1.47836">
        <ele>211.25</ele>
        <time>2023-08-24T06:45:08.967Z</time>
      </trkpt>
      <trkpt lat="43.69769" lon="1.47834">
        <ele>211.21</ele>
        <time>2023-08-24T06:45:09.965Z</time>
      </trkpt>
      <trkpt lat="43.69775" lon="1.47832">
        <ele>211.11</ele>
        <time>2023-08-24T06:45:10.992Z</time>
      </trkpt>
      <trkpt lat="43.69781" lon="1.4783">
        <ele>211</ele>
        <time>2023-08-24T06:45:11.707Z</time>
      </trkpt>
      <trkpt lat="43.69788" lon="1.47828">
        <ele>210.89</ele>
        <time>2023-08-24T06:45:12.160Z</time>
      </trkpt>
      <trkpt lat="43.69794" lon="1.47825">
        <ele>210.78</ele>
        <time>2023-08-24T06:45:13.953Z</time>
      </trkpt>
      <trkpt lat="43.698" lon="1.47823">
        <ele>210.62</ele>
        <time>2023-08-24T06:45:15.009Z</time>
      </trkpt>
      <trkpt lat="43.69807" lon="1.4782">
        <ele>210.44</ele>
        <time>2023-08-24T06:45:15.675Z</time>
      </trkpt>
      <trkpt lat="43.69814" lon="1.47817">
        <ele>210.21</ele>
        <time>2023-08-24T06:45:16.714Z</time>
      </trkpt>
      <trkpt lat="43.69821" lon="1.47814">
        <ele>210</ele>
        <time>2023-08-24T06:45:17.686Z</time>
      </trkpt>
      <trkpt lat="43.69828" lon="1.47812">
        <ele>209.76</ele>
        <time>2023-08-24T06:45:18.659Z</time>
      </trkpt>
      <trkpt lat="43.69843" lon="1.47806">
        <ele>209.53</ele>
        <time>2023-08-24T06:45:21.040Z</time>
      </trkpt>
      <trkpt lat="43.69849" lon="1.47803">
        <ele>208.95</ele>
        <time>2023-08-24T06:45:21.989Z</time>
      </trkpt>
      <trkpt lat="43.69856" lon="1.478">
        <ele>208.69</ele>
        <time>2023-08-24T06:45:22.989Z</time>
      </trkpt>
      <trkpt lat="43.69864" lon="1.47798">
        <ele>208.38</ele>
        <time>2023-08-24T06:45:23.742Z</time>
      </trkpt>
      <trkpt lat="43.69871" lon="1.47795">
        <ele>208.01999</ele>
        <time>2023-08-24T06:45:25.083Z</time>
      </trkpt>
      <trkpt lat="43.69879" lon="1.47789">
        <ele>207.6</ele>
        <time>2023-08-24T06:45:25.677Z</time>
      </trkpt>
      <trkpt lat="43.69886" lon="1.47782">
        <ele>207.17</ele>
        <time>2023-08-24T06:45:26.724Z</time>
      </trkpt>
      <trkpt lat="43.69892" lon="1.47774">
        <ele>206.8</ele>
        <time>2023-08-24T06:45:28.032Z</time>
      </trkpt>
      <trkpt lat="43.69898" lon="1.47765">
        <ele>206.37</ele>
        <time>2023-08-24T06:45:29.064Z</time>
      </trkpt>
      <trkpt lat="43.69905" lon="1.47756">
        <ele>205.87</ele>
        <time>2023-08-24T06:45:29.974Z</time>
      </trkpt>
      <trkpt lat="43.6991" lon="1.47747">
        <ele>205.51001</ele>
        <time>2023-08-24T06:45:31.082Z</time>
      </trkpt>
      <trkpt lat="43.69917" lon="1.47738">
        <ele>205.19</ele>
        <time>2023-08-24T06:45:31.951Z</time>
      </trkpt>
      <trkpt lat="43.69923" lon="1.47729">
        <ele>204.76999</ele>
        <time>2023-08-24T06:45:32.926Z</time>
      </trkpt>
      <trkpt lat="43.6993" lon="1.4772">
        <ele>204.34</ele>
        <time>2023-08-24T06:45:34.065Z</time>
      </trkpt>
      <trkpt lat="43.69936" lon="1.47711">
        <ele>203.83</ele>
        <time>2023-08-24T06:45:34.998Z</time>
      </trkpt>
      <trkpt lat="43.69943" lon="1.47701">
        <ele>203.17</ele>
        <time>2023-08-24T06:45:35.913Z</time>
      </trkpt>
      <trkpt lat="43.6995" lon="1.47692">
        <ele>202.45999</ele>
        <time>2023-08-24T06:45:36.924Z</time>
      </trkpt>
      <trkpt lat="43.69958" lon="1.47682">
        <ele>201.63</ele>
        <time>2023-08-24T06:45:37.929Z</time>
      </trkpt>
      <trkpt lat="43.69965" lon="1.47672">
        <ele>200.81</ele>
        <time>2023-08-24T06:45:39.093Z</time>
      </trkpt>
      <trkpt lat="43.69973" lon="1.47662">
        <ele>200.05</ele>
        <time>2023-08-24T06:45:39.724Z</time>
      </trkpt>
      <trkpt lat="43.69976" lon="1.47658">
        <ele>199.33</ele>
        <time>2023-08-24T06:45:41.004Z</time>
      </trkpt>
      <trkpt lat="43.69989" lon="1.47643">
        <ele>198.64</ele>
        <time>2023-08-24T06:45:41.688Z</time>
      </trkpt>
      <trkpt lat="43.69994" lon="1.47639">
        <ele>198.06</ele>
        <time>2023-08-24T06:45:43.076Z</time>
      </trkpt>
      <trkpt lat="43.70006" lon="1.4763">
        <ele>197.63</ele>
        <time>2023-08-24T06:45:43.681Z</time>
      </trkpt>
      <trkpt lat="43.70015" lon="1.47625">
        <ele>197.19</ele>
        <time>2023-08-24T06:45:45.016Z</time>
      </trkpt>
      <trkpt lat="43.70021" lon="1.47623">
        <ele>196.92</ele>
        <time>2023-08-24T06:45:46.086Z</time>
      </trkpt>
      <trkpt lat="43.7003" lon="1.4762">
        <ele>196.6</ele>
        <time>2023-08-24T06:45:46.690Z</time>
      </trkpt>
      <trkpt lat="43.70043" lon="1.47618">
        <ele>196.33</ele>
        <time>2023-08-24T06:45:47.713Z</time>
      </trkpt>
      <trkpt lat="43.70053" lon="1.47618">
        <ele>196.08</ele>
        <time>2023-08-24T06:45:49.010Z</time>
      </trkpt>
      <trkpt lat="43.70062" lon="1.47619">
        <ele>195.88</ele>
        <time>2023-08-24T06:45:50.010Z</time>
      </trkpt>
      <trkpt lat="43.70071" lon="1.47621">
        <ele>195.67</ele>
        <time>2023-08-24T06:45:50.958Z</time>
      </trkpt>
      <trkpt lat="43.7008" lon="1.47623">
        <ele>195.53</ele>
        <time>2023-08-24T06:45:51.997Z</time>
      </trkpt>
      <trkpt lat="43.70089" lon="1.47625">
        <ele>195.38</ele>
        <time>2023-08-24T06:45:52.972Z</time>
      </trkpt>
      <trkpt lat="43.70096" lon="1.47626">
        <ele>195.23001</ele>
        <time>2023-08-24T06:45:53.999Z</time>
      </trkpt>
      <trkpt lat="43.70106" lon="1.47628">
        <ele>195.05</ele>
        <time>2023-08-24T06:45:54.707Z</time>
      </trkpt>
      <trkpt lat="43.70116" lon="1.47628">
        <ele>194.95999</ele>
        <time>2023-08-24T06:45:56.001Z</time>
      </trkpt>
      <trkpt lat="43.70125" lon="1.47628">
        <ele>194.76001</ele>
        <time>2023-08-24T06:45:56.984Z</time>
      </trkpt>
      <trkpt lat="43.70134" lon="1.47627">
        <ele>194.68</ele>
        <time>2023-08-24T06:45:57.993Z</time>
      </trkpt>
      <trkpt lat="43.70143" lon="1.47624">
        <ele>194.55</ele>
        <time>2023-08-24T06:45:58.974Z</time>
      </trkpt>
      <trkpt lat="43.70152" lon="1.47621">
        <ele>194.41</ele>
        <time>2023-08-24T06:45:59.979Z</time>
      </trkpt>
      <trkpt lat="43.70168" lon="1.47613">
        <ele>194.34</ele>
        <time>2023-08-24T06:46:01.963Z</time>
      </trkpt>
      <trkpt lat="43.70176" lon="1.47609">
        <ele>194.2</ele>
        <time>2023-08-24T06:46:03.104Z</time>
      </trkpt>
      <trkpt lat="43.70184" lon="1.47607">
        <ele>194.16</ele>
        <time>2023-08-24T06:46:03.709Z</time>
      </trkpt>
      <trkpt lat="43.70192" lon="1.47607">
        <ele>194.22</ele>
        <time>2023-08-24T06:46:05.011Z</time>
      </trkpt>
      <trkpt lat="43.70199" lon="1.47608">
        <ele>194.23001</ele>
        <time>2023-08-24T06:46:05.914Z</time>
      </trkpt>
      <trkpt lat="43.70206" lon="1.47611">
        <ele>194.31</ele>
        <time>2023-08-24T06:46:07.055Z</time>
      </trkpt>
      <trkpt lat="43.70213" lon="1.47615">
        <ele>194.44</ele>
        <time>2023-08-24T06:46:07.956Z</time>
      </trkpt>
      <trkpt lat="43.70219" lon="1.47619">
        <ele>194.59</ele>
        <time>2023-08-24T06:46:09.109Z</time>
      </trkpt>
      <trkpt lat="43.70224" lon="1.47623">
        <ele>194.8</ele>
        <time>2023-08-24T06:46:09.731Z</time>
      </trkpt>
      <trkpt lat="43.7023" lon="1.47627">
        <ele>195.08</ele>
        <time>2023-08-24T06:46:11.049Z</time>
      </trkpt>
      <trkpt lat="43.70236" lon="1.47632">
        <ele>195.32</ele>
        <time>2023-08-24T06:46:12.114Z</time>
      </trkpt>
      <trkpt lat="43.70241" lon="1.47636">
        <ele>195.58</ele>
        <time>2023-08-24T06:46:12.711Z</time>
      </trkpt>
      <trkpt lat="43.70247" lon="1.4764">
        <ele>195.86</ele>
        <time>2023-08-24T06:46:14.114Z</time>
      </trkpt>
      <trkpt lat="43.70253" lon="1.47644">
        <ele>196.13</ele>
        <time>2023-08-24T06:46:14.738Z</time>
      </trkpt>
      <trkpt lat="43.70259" lon="1.47649">
        <ele>196.34</ele>
        <time>2023-08-24T06:46:16.107Z</time>
      </trkpt>
      <trkpt lat="43.70265" lon="1.47653">
        <ele>196.51999</ele>
        <time>2023-08-24T06:46:16.671Z</time>
      </trkpt>
      <trkpt lat="43.70271" lon="1.47657">
        <ele>196.57</ele>
        <time>2023-08-24T06:46:18.092Z</time>
      </trkpt>
      <trkpt lat="43.70277" lon="1.47661">
        <ele>196.65</ele>
        <time>2023-08-24T06:46:18.946Z</time>
      </trkpt>
      <trkpt lat="43.70282" lon="1.47665">
        <ele>196.7</ele>
        <time>2023-08-24T06:46:19.753Z</time>
      </trkpt>
      <trkpt lat="43.70288" lon="1.47669">
        <ele>196.76001</ele>
        <time>2023-08-24T06:46:21.097Z</time>
      </trkpt>
      <trkpt lat="43.70294" lon="1.47672">
        <ele>196.78</ele>
        <time>2023-08-24T06:46:21.677Z</time>
      </trkpt>
      <trkpt lat="43.70301" lon="1.47676">
        <ele>196.82</ele>
        <time>2023-08-24T06:46:23.039Z</time>
      </trkpt>
      <trkpt lat="43.70307" lon="1.47679">
        <ele>196.73999</ele>
        <time>2023-08-24T06:46:24.013Z</time>
      </trkpt>
      <trkpt lat="43.70314" lon="1.47683">
        <ele>196.68</ele>
        <time>2023-08-24T06:46:25.033Z</time>
      </trkpt>
      <trkpt lat="43.70321" lon="1.47686">
        <ele>196.56</ele>
        <time>2023-08-24T06:46:26.027Z</time>
      </trkpt>
      <trkpt lat="43.70328" lon="1.4769">
        <ele>196.38</ele>
        <time>2023-08-24T06:46:27.071Z</time>
      </trkpt>
      <trkpt lat="43.70335" lon="1.47694">
        <ele>196.12</ele>
        <time>2023-08-24T06:46:27.999Z</time>
      </trkpt>
      <trkpt lat="43.70343" lon="1.47698">
        <ele>195.79001</ele>
        <time>2023-08-24T06:46:29.116Z</time>
      </trkpt>
      <trkpt lat="43.70351" lon="1.47701">
        <ele>195.34</ele>
        <time>2023-08-24T06:46:29.749Z</time>
      </trkpt>
      <trkpt lat="43.70359" lon="1.47705">
        <ele>194.76999</ele>
        <time>2023-08-24T06:46:31.121Z</time>
      </trkpt>
      <trkpt lat="43.70362" lon="1.47707">
        <ele>194.3</ele>
        <time>2023-08-24T06:46:31.685Z</time>
      </trkpt>
      <trkpt lat="43.70371" lon="1.47712">
        <ele>193.88</ele>
        <time>2023-08-24T06:46:33.126Z</time>
      </trkpt>
      <trkpt lat="43.70382" lon="1.47718">
        <ele>193.45999</ele>
        <time>2023-08-24T06:46:34.135Z</time>
      </trkpt>
      <trkpt lat="43.7039" lon="1.47723">
        <ele>193.07</ele>
        <time>2023-08-24T06:46:34.762Z</time>
      </trkpt>
      <trkpt lat="43.70398" lon="1.47727">
        <ele>192.76001</ele>
        <time>2023-08-24T06:46:36.049Z</time>
      </trkpt>
      <trkpt lat="43.70406" lon="1.4773">
        <ele>192.4</ele>
        <time>2023-08-24T06:46:37.098Z</time>
      </trkpt>
      <trkpt lat="43.70414" lon="1.47734">
        <ele>192.12</ele>
        <time>2023-08-24T06:46:37.738Z</time>
      </trkpt>
      <trkpt lat="43.70422" lon="1.47738">
        <ele>191.9</ele>
        <time>2023-08-24T06:46:39.122Z</time>
      </trkpt>
      <trkpt lat="43.70429" lon="1.47741">
        <ele>191.69</ele>
        <time>2023-08-24T06:46:39.680Z</time>
      </trkpt>
      <trkpt lat="43.70436" lon="1.47745">
        <ele>191.51001</ele>
        <time>2023-08-24T06:46:41.106Z</time>
      </trkpt>
      <trkpt lat="43.70442" lon="1.47747">
        <ele>191.39</ele>
        <time>2023-08-24T06:46:42.120Z</time>
      </trkpt>
      <trkpt lat="43.70451" lon="1.47752">
        <ele>191.20999</ele>
        <time>2023-08-24T06:46:42.745Z</time>
      </trkpt>
      <trkpt lat="43.70458" lon="1.47756">
        <ele>191.08</ele>
        <time>2023-08-24T06:46:44.109Z</time>
      </trkpt>
      <trkpt lat="43.70464" lon="1.47759">
        <ele>191</ele>
        <time>2023-08-24T06:46:45.099Z</time>
      </trkpt>
      <trkpt lat="43.70469" lon="1.47761">
        <ele>190.94</ele>
        <time>2023-08-24T06:46:45.728Z</time>
      </trkpt>
      <trkpt lat="43.70478" lon="1.47769">
        <ele>190.89</ele>
        <time>2023-08-24T06:46:47.130Z</time>
      </trkpt>
      <trkpt lat="43.70483" lon="1.47775">
        <ele>190.85</ele>
        <time>2023-08-24T06:46:47.159Z</time>
      </trkpt>
      <trkpt lat="43.70487" lon="1.47783">
        <ele>190.73999</ele>
        <time>2023-08-24T06:46:49.106Z</time>
      </trkpt>
      <trkpt lat="43.70488" lon="1.47784">
        <ele>190.63</ele>
        <time>2023-08-24T06:46:49.169Z</time>
      </trkpt>
      <trkpt lat="43.70495" lon="1.478">
        <ele>190.48999</ele>
        <time>2023-08-24T06:46:51.112Z</time>
      </trkpt>
      <trkpt lat="43.70498" lon="1.47808">
        <ele>190.43</ele>
        <time>2023-08-24T06:46:51.171Z</time>
      </trkpt>
      <trkpt lat="43.70502" lon="1.47817">
        <ele>190.31</ele>
        <time>2023-08-24T06:46:52.748Z</time>
      </trkpt>
      <trkpt lat="43.70505" lon="1.47825">
        <ele>190.23001</ele>
        <time>2023-08-24T06:46:53.185Z</time>
      </trkpt>
      <trkpt lat="43.70508" lon="1.47833">
        <ele>190.16</ele>
        <time>2023-08-24T06:46:54.694Z</time>
      </trkpt>
      <trkpt lat="43.70511" lon="1.47841">
        <ele>190.11</ele>
        <time>2023-08-24T06:46:55.186Z</time>
      </trkpt>
      <trkpt lat="43.70515" lon="1.4785">
        <ele>190.05</ele>
        <time>2023-08-24T06:46:57.137Z</time>
      </trkpt>
      <trkpt lat="43.70518" lon="1.47857">
        <ele>190.05</ele>
        <time>2023-08-24T06:46:57.752Z</time>
      </trkpt>
      <trkpt lat="43.70521" lon="1.47863">
        <ele>190.01001</ele>
        <time>2023-08-24T06:46:59.100Z</time>
      </trkpt>
      <trkpt lat="43.70525" lon="1.47874">
        <ele>190</ele>
        <time>2023-08-24T06:46:59.699Z</time>
      </trkpt>
      <trkpt lat="43.70529" lon="1.47881">
        <ele>189.97</ele>
        <time>2023-08-24T06:47:01.100Z</time>
      </trkpt>
      <trkpt lat="43.70531" lon="1.47886">
        <ele>189.94</ele>
        <time>2023-08-24T06:47:02.139Z</time>
      </trkpt>
      <trkpt lat="43.70536" lon="1.47897">
        <ele>189.89</ele>
        <time>2023-08-24T06:47:02.768Z</time>
      </trkpt>
      <trkpt lat="43.70539" lon="1.47904">
        <ele>189.87</ele>
        <time>2023-08-24T06:47:04.144Z</time>
      </trkpt>
      <trkpt lat="43.70543" lon="1.47912">
        <ele>189.84</ele>
        <time>2023-08-24T06:47:04.708Z</time>
      </trkpt>
      <trkpt lat="43.70546" lon="1.4792">
        <ele>189.86</ele>
        <time>2023-08-24T06:47:05.757Z</time>
      </trkpt>
      <trkpt lat="43.7055" lon="1.47928">
        <ele>189.87</ele>
        <time>2023-08-24T06:47:07.113Z</time>
      </trkpt>
      <trkpt lat="43.70553" lon="1.47936">
        <ele>189.84</ele>
        <time>2023-08-24T06:47:07.742Z</time>
      </trkpt>
      <trkpt lat="43.70557" lon="1.47943">
        <ele>189.8</ele>
        <time>2023-08-24T06:47:09.103Z</time>
      </trkpt>
      <trkpt lat="43.7056" lon="1.47951">
        <ele>189.76999</ele>
        <time>2023-08-24T06:47:10.146Z</time>
      </trkpt>
      <trkpt lat="43.70561" lon="1.47952">
        <ele>189.70999</ele>
        <time>2023-08-24T06:47:10.723Z</time>
      </trkpt>
      <trkpt lat="43.70567" lon="1.47966">
        <ele>189.65</ele>
        <time>2023-08-24T06:47:12.126Z</time>
      </trkpt>
      <trkpt lat="43.70571" lon="1.47973">
        <ele>189.63</ele>
        <time>2023-08-24T06:47:12.739Z</time>
      </trkpt>
      <trkpt lat="43.70575" lon="1.47982">
        <ele>189.58</ele>
        <time>2023-08-24T06:47:14.149Z</time>
      </trkpt>
      <trkpt lat="43.70578" lon="1.47989">
        <ele>189.59</ele>
        <time>2023-08-24T06:47:15.093Z</time>
      </trkpt>
      <trkpt lat="43.70582" lon="1.47997">
        <ele>189.51999</ele>
        <time>2023-08-24T06:47:15.764Z</time>
      </trkpt>
      <trkpt lat="43.70586" lon="1.48004">
        <ele>189.48999</ele>
        <time>2023-08-24T06:47:17.138Z</time>
      </trkpt>
      <trkpt lat="43.70588" lon="1.48009">
        <ele>189.45999</ele>
        <time>2023-08-24T06:47:17.712Z</time>
      </trkpt>
      <trkpt lat="43.70593" lon="1.48018">
        <ele>189.44</ele>
        <time>2023-08-24T06:47:18.943Z</time>
      </trkpt>
      <trkpt lat="43.70597" lon="1.48026">
        <ele>189.41</ele>
        <time>2023-08-24T06:47:20.011Z</time>
      </trkpt>
      <trkpt lat="43.70601" lon="1.48033">
        <ele>189.35</ele>
        <time>2023-08-24T06:47:21.114Z</time>
      </trkpt>
      <trkpt lat="43.70605" lon="1.4804">
        <ele>189.29001</ele>
        <time>2023-08-24T06:47:22.107Z</time>
      </trkpt>
      <trkpt lat="43.70609" lon="1.48047">
        <ele>189.28</ele>
        <time>2023-08-24T06:47:23.106Z</time>
      </trkpt>
      <trkpt lat="43.70613" lon="1.48054">
        <ele>189.32</ele>
        <time>2023-08-24T06:47:24.111Z</time>
      </trkpt>
      <trkpt lat="43.70617" lon="1.48061">
        <ele>189.33</ele>
        <time>2023-08-24T06:47:24.859Z</time>
      </trkpt>
      <trkpt lat="43.70621" lon="1.48068">
        <ele>189.37</ele>
        <time>2023-08-24T06:47:25.739Z</time>
      </trkpt>
      <trkpt lat="43.70625" lon="1.48075">
        <ele>189.39</ele>
        <time>2023-08-24T06:47:27.154Z</time>
      </trkpt>
      <trkpt lat="43.70628" lon="1.48081">
        <ele>189.41</ele>
        <time>2023-08-24T06:47:28.181Z</time>
      </trkpt>
      <trkpt lat="43.70633" lon="1.48089">
        <ele>189.48999</ele>
        <time>2023-08-24T06:47:28.763Z</time>
      </trkpt>
      <trkpt lat="43.70636" lon="1.48096">
        <ele>189.45</ele>
        <time>2023-08-24T06:47:30.172Z</time>
      </trkpt>
      <trkpt lat="43.7064" lon="1.48103">
        <ele>189.44</ele>
        <time>2023-08-24T06:47:31.127Z</time>
      </trkpt>
      <trkpt lat="43.70644" lon="1.4811">
        <ele>189.48001</ele>
        <time>2023-08-24T06:47:32.112Z</time>
      </trkpt>
      <trkpt lat="43.70647" lon="1.48117">
        <ele>189.53</ele>
        <time>2023-08-24T06:47:33.107Z</time>
      </trkpt>
      <trkpt lat="43.70651" lon="1.48123">
        <ele>189.65</ele>
        <time>2023-08-24T06:47:34.148Z</time>
      </trkpt>
      <trkpt lat="43.70655" lon="1.4813">
        <ele>189.76999</ele>
        <time>2023-08-24T06:47:35.171Z</time>
      </trkpt>
      <trkpt lat="43.70659" lon="1.48136">
        <ele>189.87</ele>
        <time>2023-08-24T06:47:36.179Z</time>
      </trkpt>
      <trkpt lat="43.70663" lon="1.48143">
        <ele>189.97</ele>
        <time>2023-08-24T06:47:36.757Z</time>
      </trkpt>
      <trkpt lat="43.70666" lon="1.48146">
        <ele>190.09</ele>
        <time>2023-08-24T06:47:37.728Z</time>
      </trkpt>
      <trkpt lat="43.70672" lon="1.48154">
        <ele>190.18</ele>
        <time>2023-08-24T06:47:39.008Z</time>
      </trkpt>
      <trkpt lat="43.70677" lon="1.48159">
        <ele>190.26001</ele>
        <time>2023-08-24T06:47:40.079Z</time>
      </trkpt>
      <trkpt lat="43.70682" lon="1.48164">
        <ele>190.33</ele>
        <time>2023-08-24T06:47:41.006Z</time>
      </trkpt>
      <trkpt lat="43.70687" lon="1.48169">
        <ele>190.36</ele>
        <time>2023-08-24T06:47:42.123Z</time>
      </trkpt>
      <trkpt lat="43.70689" lon="1.4817">
        <ele>190.4</ele>
        <time>2023-08-24T06:47:43.171Z</time>
      </trkpt>
      <trkpt lat="43.70699" lon="1.48179">
        <ele>190.33</ele>
        <time>2023-08-24T06:47:43.742Z</time>
      </trkpt>
      <trkpt lat="43.70705" lon="1.48183">
        <ele>190.32</ele>
        <time>2023-08-24T06:47:45.152Z</time>
      </trkpt>
      <trkpt lat="43.70711" lon="1.48188">
        <ele>190.28</ele>
        <time>2023-08-24T06:47:45.725Z</time>
      </trkpt>
      <trkpt lat="43.70717" lon="1.48191">
        <ele>190.25</ele>
        <time>2023-08-24T06:47:47.128Z</time>
      </trkpt>
      <trkpt lat="43.70724" lon="1.48195">
        <ele>190.20999</ele>
        <time>2023-08-24T06:47:48.164Z</time>
      </trkpt>
      <trkpt lat="43.70731" lon="1.48199">
        <ele>190.14</ele>
        <time>2023-08-24T06:47:48.745Z</time>
      </trkpt>
      <trkpt lat="43.70736" lon="1.48202">
        <ele>190.07</ele>
        <time>2023-08-24T06:47:49.768Z</time>
      </trkpt>
      <trkpt lat="43.70743" lon="1.48206">
        <ele>190.01999</ele>
        <time>2023-08-24T06:47:50.734Z</time>
      </trkpt>
      <trkpt lat="43.70749" lon="1.4821">
        <ele>189.98001</ele>
        <time>2023-08-24T06:47:51.789Z</time>
      </trkpt>
      <trkpt lat="43.70755" lon="1.48213">
        <ele>189.94</ele>
        <time>2023-08-24T06:47:53.149Z</time>
      </trkpt>
      <trkpt lat="43.70761" lon="1.48217">
        <ele>189.9</ele>
        <time>2023-08-24T06:47:53.735Z</time>
      </trkpt>
      <trkpt lat="43.70767" lon="1.48221">
        <ele>189.78</ele>
        <time>2023-08-24T06:47:55.211Z</time>
      </trkpt>
      <trkpt lat="43.70773" lon="1.48225">
        <ele>189.70999</ele>
        <time>2023-08-24T06:47:56.029Z</time>
      </trkpt>
      <trkpt lat="43.70779" lon="1.48229">
        <ele>189.68</ele>
        <time>2023-08-24T06:47:56.745Z</time>
      </trkpt>
      <trkpt lat="43.70786" lon="1.48233">
        <ele>189.53</ele>
        <time>2023-08-24T06:47:58.214Z</time>
      </trkpt>
      <trkpt lat="43.70791" lon="1.48237">
        <ele>189.4</ele>
        <time>2023-08-24T06:47:58.758Z</time>
      </trkpt>
      <trkpt lat="43.70796" lon="1.48241">
        <ele>189.25</ele>
        <time>2023-08-24T06:48:00.221Z</time>
      </trkpt>
      <trkpt lat="43.70802" lon="1.48245">
        <ele>189.18</ele>
        <time>2023-08-24T06:48:01.134Z</time>
      </trkpt>
      <trkpt lat="43.70807" lon="1.48248">
        <ele>189.01001</ele>
        <time>2023-08-24T06:48:02.220Z</time>
      </trkpt>
      <trkpt lat="43.70814" lon="1.48253">
        <ele>188.93</ele>
        <time>2023-08-24T06:48:03.218Z</time>
      </trkpt>
      <trkpt lat="43.70819" lon="1.48257">
        <ele>188.85</ele>
        <time>2023-08-24T06:48:04.151Z</time>
      </trkpt>
      <trkpt lat="43.70825" lon="1.48261">
        <ele>188.8</ele>
        <time>2023-08-24T06:48:04.932Z</time>
      </trkpt>
      <trkpt lat="43.7083" lon="1.48265">
        <ele>188.73999</ele>
        <time>2023-08-24T06:48:05.753Z</time>
      </trkpt>
      <trkpt lat="43.70837" lon="1.48269">
        <ele>188.66</ele>
        <time>2023-08-24T06:48:06.769Z</time>
      </trkpt>
      <trkpt lat="43.70842" lon="1.48273">
        <ele>188.57</ele>
        <time>2023-08-24T06:48:08.224Z</time>
      </trkpt>
      <trkpt lat="43.70848" lon="1.48277">
        <ele>188.45</ele>
        <time>2023-08-24T06:48:09.167Z</time>
      </trkpt>
      <trkpt lat="43.70853" lon="1.48281">
        <ele>188.36</ele>
        <time>2023-08-24T06:48:09.746Z</time>
      </trkpt>
      <trkpt lat="43.70859" lon="1.48285">
        <ele>188.32</ele>
        <time>2023-08-24T06:48:11.142Z</time>
      </trkpt>
      <trkpt lat="43.70864" lon="1.48289">
        <ele>188.26999</ele>
        <time>2023-08-24T06:48:11.757Z</time>
      </trkpt>
      <trkpt lat="43.7087" lon="1.48293">
        <ele>188.31</ele>
        <time>2023-08-24T06:48:12.746Z</time>
      </trkpt>
      <trkpt lat="43.70876" lon="1.48297">
        <ele>188.26001</ele>
        <time>2023-08-24T06:48:13.939Z</time>
      </trkpt>
      <trkpt lat="43.70881" lon="1.48301">
        <ele>188.22</ele>
        <time>2023-08-24T06:48:15.170Z</time>
      </trkpt>
      <trkpt lat="43.70887" lon="1.48305">
        <ele>188.15</ele>
        <time>2023-08-24T06:48:15.834Z</time>
      </trkpt>
      <trkpt lat="43.70893" lon="1.48309">
        <ele>188.14</ele>
        <time>2023-08-24T06:48:16.751Z</time>
      </trkpt>
      <trkpt lat="43.70898" lon="1.48312">
        <ele>188.13</ele>
        <time>2023-08-24T06:48:17.768Z</time>
      </trkpt>
      <trkpt lat="43.70904" lon="1.48316">
        <ele>188.17</ele>
        <time>2023-08-24T06:48:19.225Z</time>
      </trkpt>
      <trkpt lat="43.7091" lon="1.4832">
        <ele>188.2</ele>
        <time>2023-08-24T06:48:20.043Z</time>
      </trkpt>
      <trkpt lat="43.70915" lon="1.48324">
        <ele>188.22</ele>
        <time>2023-08-24T06:48:21.212Z</time>
      </trkpt>
      <trkpt lat="43.70921" lon="1.48328">
        <ele>188.20999</ele>
        <time>2023-08-24T06:48:22.251Z</time>
      </trkpt>
      <trkpt lat="43.70927" lon="1.48332">
        <ele>188.23001</ele>
        <time>2023-08-24T06:48:22.847Z</time>
      </trkpt>
      <trkpt lat="43.70932" lon="1.48336">
        <ele>188.26999</ele>
        <time>2023-08-24T06:48:24.239Z</time>
      </trkpt>
      <trkpt lat="43.70938" lon="1.48341">
        <ele>188.31</ele>
        <time>2023-08-24T06:48:24.823Z</time>
      </trkpt>
      <trkpt lat="43.70943" lon="1.48346">
        <ele>188.38</ele>
        <time>2023-08-24T06:48:26.252Z</time>
      </trkpt>
      <trkpt lat="43.70948" lon="1.48351">
        <ele>188.43</ele>
        <time>2023-08-24T06:48:26.837Z</time>
      </trkpt>
      <trkpt lat="43.70953" lon="1.48356">
        <ele>188.5</ele>
        <time>2023-08-24T06:48:27.847Z</time>
      </trkpt>
      <trkpt lat="43.70959" lon="1.48362">
        <ele>188.51001</ele>
        <time>2023-08-24T06:48:29.249Z</time>
      </trkpt>
      <trkpt lat="43.70964" lon="1.48367">
        <ele>188.51001</ele>
        <time>2023-08-24T06:48:30.220Z</time>
      </trkpt>
      <trkpt lat="43.70969" lon="1.48372">
        <ele>188.55</ele>
        <time>2023-08-24T06:48:31.245Z</time>
      </trkpt>
      <trkpt lat="43.70974" lon="1.48377">
        <ele>188.56</ele>
        <time>2023-08-24T06:48:32.253Z</time>
      </trkpt>
      <trkpt lat="43.70979" lon="1.48382">
        <ele>188.59</ele>
        <time>2023-08-24T06:48:33.185Z</time>
      </trkpt>
      <trkpt lat="43.70984" lon="1.48387">
        <ele>188.58</ele>
        <time>2023-08-24T06:48:34.208Z</time>
      </trkpt>
      <trkpt lat="43.70989" lon="1.48392">
        <ele>188.58</ele>
        <time>2023-08-24T06:48:35.250Z</time>
      </trkpt>
      <trkpt lat="43.70993" lon="1.48397">
        <ele>188.51001</ele>
        <time>2023-08-24T06:48:36.238Z</time>
      </trkpt>
      <trkpt lat="43.70998" lon="1.48402">
        <ele>188.5</ele>
        <time>2023-08-24T06:48:37.131Z</time>
      </trkpt>
      <trkpt lat="43.71003" lon="1.48407">
        <ele>188.53</ele>
        <time>2023-08-24T06:48:38.197Z</time>
      </trkpt>
      <trkpt lat="43.71007" lon="1.48412">
        <ele>188.51999</ele>
        <time>2023-08-24T06:48:39.256Z</time>
      </trkpt>
      <trkpt lat="43.7101" lon="1.48415">
        <ele>188.51999</ele>
        <time>2023-08-24T06:48:40.118Z</time>
      </trkpt>
      <trkpt lat="43.71012" lon="1.48418">
        <ele>188.59</ele>
        <time>2023-08-24T06:48:41.191Z</time>
      </trkpt>
      <trkpt lat="43.71013" lon="1.4842">
        <ele>188.7</ele>
        <time>2023-08-24T06:48:42.155Z</time>
      </trkpt>
      <trkpt lat="43.71014" lon="1.48421">
        <ele>188.8</ele>
        <time>2023-08-24T06:48:43.090Z</time>
      </trkpt>
      <trkpt lat="43.71016" lon="1.48422">
        <ele>188.89</ele>
        <time>2023-08-24T06:48:44.188Z</time>
      </trkpt>
      <trkpt lat="43.71018" lon="1.48423">
        <ele>188.95999</ele>
        <time>2023-08-24T06:48:45.034Z</time>
      </trkpt>
      <trkpt lat="43.71021" lon="1.48425">
        <ele>189.01001</ele>
        <time>2023-08-24T06:48:46.108Z</time>
      </trkpt>
      <trkpt lat="43.71023" lon="1.48429">
        <ele>189.05</ele>
        <time>2023-08-24T06:48:48.186Z</time>
      </trkpt>
      <trkpt lat="43.71025" lon="1.48431">
        <ele>189.07</ele>
        <time>2023-08-24T06:48:49.269Z</time>
      </trkpt>
      <trkpt lat="43.71029" lon="1.48435">
        <ele>189.08</ele>
        <time>2023-08-24T06:48:50.153Z</time>
      </trkpt>
      <trkpt lat="43.71032" lon="1.48439">
        <ele>189.01999</ele>
        <time>2023-08-24T06:48:51.153Z</time>
      </trkpt>
      <trkpt lat="43.71036" lon="1.48443">
        <ele>188.97</ele>
        <time>2023-08-24T06:48:52.115Z</time>
      </trkpt>
      <trkpt lat="43.71046" lon="1.48454">
        <ele>188.98001</ele>
        <time>2023-08-24T06:48:53.206Z</time>
      </trkpt>
      <trkpt lat="43.7105" lon="1.48459">
        <ele>188.97</ele>
        <time>2023-08-24T06:48:54.114Z</time>
      </trkpt>
      <trkpt lat="43.71054" lon="1.48464">
        <ele>189.03</ele>
        <time>2023-08-24T06:48:54.998Z</time>
      </trkpt>
      <trkpt lat="43.71059" lon="1.48469">
        <ele>189.01999</ele>
        <time>2023-08-24T06:48:56.128Z</time>
      </trkpt>
      <trkpt lat="43.71064" lon="1.48474">
        <ele>189.01999</ele>
        <time>2023-08-24T06:48:57.258Z</time>
      </trkpt>
      <trkpt lat="43.71068" lon="1.48479">
        <ele>189.06</ele>
        <time>2023-08-24T06:48:58.225Z</time>
      </trkpt>
      <trkpt lat="43.71072" lon="1.48484">
        <ele>189.01001</ele>
        <time>2023-08-24T06:48:59.078Z</time>
      </trkpt>
      <trkpt lat="43.71077" lon="1.4849">
        <ele>188.92</ele>
        <time>2023-08-24T06:49:00.256Z</time>
      </trkpt>
      <trkpt lat="43.71081" lon="1.48495">
        <ele>188.84</ele>
        <time>2023-08-24T06:49:01.211Z</time>
      </trkpt>
      <trkpt lat="43.71085" lon="1.485">
        <ele>188.75</ele>
        <time>2023-08-24T06:49:02.142Z</time>
      </trkpt>
      <trkpt lat="43.7109" lon="1.48505">
        <ele>188.72</ele>
        <time>2023-08-24T06:49:03.289Z</time>
      </trkpt>
      <trkpt lat="43.71095" lon="1.48511">
        <ele>188.73001</ele>
        <time>2023-08-24T06:49:04.180Z</time>
      </trkpt>
      <trkpt lat="43.71099" lon="1.48516">
        <ele>188.73999</ele>
        <time>2023-08-24T06:49:05.261Z</time>
      </trkpt>
      <trkpt lat="43.71103" lon="1.48521">
        <ele>188.73999</ele>
        <time>2023-08-24T06:49:06.099Z</time>
      </trkpt>
      <trkpt lat="43.71107" lon="1.48526">
        <ele>188.73001</ele>
        <time>2023-08-24T06:49:07.192Z</time>
      </trkpt>
      <trkpt lat="43.71112" lon="1.48531">
        <ele>188.8</ele>
        <time>2023-08-24T06:49:08.113Z</time>
      </trkpt>
      <trkpt lat="43.71117" lon="1.48536">
        <ele>188.83</ele>
        <time>2023-08-24T06:49:09.239Z</time>
      </trkpt>
      <trkpt lat="43.71122" lon="1.48541">
        <ele>188.86</ele>
        <time>2023-08-24T06:49:10.251Z</time>
      </trkpt>
      <trkpt lat="43.71126" lon="1.48546">
        <ele>188.91</ele>
        <time>2023-08-24T06:49:11.112Z</time>
      </trkpt>
      <trkpt lat="43.7113" lon="1.48551">
        <ele>188.98001</ele>
        <time>2023-08-24T06:49:12.251Z</time>
      </trkpt>
      <trkpt lat="43.71135" lon="1.48557">
        <ele>189.09</ele>
        <time>2023-08-24T06:49:13.116Z</time>
      </trkpt>
      <trkpt lat="43.7114" lon="1.48561">
        <ele>189.16</ele>
        <time>2023-08-24T06:49:14.246Z</time>
      </trkpt>
      <trkpt lat="43.71144" lon="1.48566">
        <ele>189.23001</ele>
        <time>2023-08-24T06:49:14.918Z</time>
      </trkpt>
      <trkpt lat="43.71149" lon="1.48572">
        <ele>189.26999</ele>
        <time>2023-08-24T06:49:16.280Z</time>
      </trkpt>
      <trkpt lat="43.71153" lon="1.48577">
        <ele>189.34</ele>
        <time>2023-08-24T06:49:16.882Z</time>
      </trkpt>
      <trkpt lat="43.71157" lon="1.48583">
        <ele>189.45999</ele>
        <time>2023-08-24T06:49:18.187Z</time>
      </trkpt>
      <trkpt lat="43.71162" lon="1.48589">
        <ele>189.5</ele>
        <time>2023-08-24T06:49:19.131Z</time>
      </trkpt>
      <trkpt lat="43.71167" lon="1.48595">
        <ele>189.48001</ele>
        <time>2023-08-24T06:49:20.222Z</time>
      </trkpt>
      <trkpt lat="43.71171" lon="1.48601">
        <ele>189.45999</ele>
        <time>2023-08-24T06:49:21.050Z</time>
      </trkpt>
      <trkpt lat="43.71175" lon="1.48608">
        <ele>189.48001</ele>
        <time>2023-08-24T06:49:22.240Z</time>
      </trkpt>
      <trkpt lat="43.71179" lon="1.48615">
        <ele>189.47</ele>
        <time>2023-08-24T06:49:23.094Z</time>
      </trkpt>
      <trkpt lat="43.71183" lon="1.48622">
        <ele>189.45999</ele>
        <time>2023-08-24T06:49:24.261Z</time>
      </trkpt>
      <trkpt lat="43.71187" lon="1.48629">
        <ele>189.45999</ele>
        <time>2023-08-24T06:49:25.263Z</time>
      </trkpt>
      <trkpt lat="43.71191" lon="1.48636">
        <ele>189.42</ele>
        <time>2023-08-24T06:49:26.304Z</time>
      </trkpt>
      <trkpt lat="43.71194" lon="1.48643">
        <ele>189.38</ele>
        <time>2023-08-24T06:49:27.219Z</time>
      </trkpt>
      <trkpt lat="43.71199" lon="1.4865">
        <ele>189.38</ele>
        <time>2023-08-24T06:49:28.227Z</time>
      </trkpt>
      <trkpt lat="43.71203" lon="1.48657">
        <ele>189.36</ele>
        <time>2023-08-24T06:49:29.209Z</time>
      </trkpt>
      <trkpt lat="43.71207" lon="1.48664">
        <ele>189.4</ele>
        <time>2023-08-24T06:49:30.248Z</time>
      </trkpt>
      <trkpt lat="43.71211" lon="1.48671">
        <ele>189.47</ele>
        <time>2023-08-24T06:49:31.224Z</time>
      </trkpt>
      <trkpt lat="43.71215" lon="1.48677">
        <ele>189.5</ele>
        <time>2023-08-24T06:49:32.310Z</time>
      </trkpt>
      <trkpt lat="43.71219" lon="1.48684">
        <ele>189.54001</ele>
        <time>2023-08-24T06:49:33.146Z</time>
      </trkpt>
      <trkpt lat="43.71223" lon="1.48691">
        <ele>189.62</ele>
        <time>2023-08-24T06:49:34.079Z</time>
      </trkpt>
      <trkpt lat="43.71228" lon="1.48698">
        <ele>189.59</ele>
        <time>2023-08-24T06:49:35.205Z</time>
      </trkpt>
      <trkpt lat="43.71231" lon="1.48705">
        <ele>189.57</ele>
        <time>2023-08-24T06:49:36.125Z</time>
      </trkpt>
      <trkpt lat="43.71236" lon="1.48712">
        <ele>189.56</ele>
        <time>2023-08-24T06:49:37.263Z</time>
      </trkpt>
      <trkpt lat="43.71239" lon="1.48718">
        <ele>189.64</ele>
        <time>2023-08-24T06:49:38.211Z</time>
      </trkpt>
      <trkpt lat="43.71244" lon="1.48725">
        <ele>189.64</ele>
        <time>2023-08-24T06:49:38.949Z</time>
      </trkpt>
      <trkpt lat="43.71248" lon="1.48732">
        <ele>189.68</ele>
        <time>2023-08-24T06:49:40.239Z</time>
      </trkpt>
      <trkpt lat="43.71252" lon="1.48739">
        <ele>189.63</ele>
        <time>2023-08-24T06:49:41.264Z</time>
      </trkpt>
      <trkpt lat="43.71256" lon="1.48746">
        <ele>189.57</ele>
        <time>2023-08-24T06:49:42.213Z</time>
      </trkpt>
      <trkpt lat="43.7126" lon="1.48753">
        <ele>189.54001</ele>
        <time>2023-08-24T06:49:43.310Z</time>
      </trkpt>
      <trkpt lat="43.71264" lon="1.4876">
        <ele>189.45</ele>
        <time>2023-08-24T06:49:44.243Z</time>
      </trkpt>
      <trkpt lat="43.71268" lon="1.48767">
        <ele>189.41</ele>
        <time>2023-08-24T06:49:45.242Z</time>
      </trkpt>
      <trkpt lat="43.71272" lon="1.48775">
        <ele>189.37</ele>
        <time>2023-08-24T06:49:46.234Z</time>
      </trkpt>
      <trkpt lat="43.71276" lon="1.48782">
        <ele>189.32</ele>
        <time>2023-08-24T06:49:47.317Z</time>
      </trkpt>
      <trkpt lat="43.7128" lon="1.48789">
        <ele>189.28</ele>
        <time>2023-08-24T06:49:48.315Z</time>
      </trkpt>
      <trkpt lat="43.71284" lon="1.48797">
        <ele>189.26001</ele>
        <time>2023-08-24T06:49:49.206Z</time>
      </trkpt>
      <trkpt lat="43.71288" lon="1.48804">
        <ele>189.23999</ele>
        <time>2023-08-24T06:49:50.213Z</time>
      </trkpt>
      <trkpt lat="43.71292" lon="1.48812">
        <ele>189.19</ele>
        <time>2023-08-24T06:49:51.245Z</time>
      </trkpt>
      <trkpt lat="43.71296" lon="1.48819">
        <ele>189.15</ele>
        <time>2023-08-24T06:49:52.326Z</time>
      </trkpt>
      <trkpt lat="43.713" lon="1.48826">
        <ele>189.11</ele>
        <time>2023-08-24T06:49:53.158Z</time>
      </trkpt>
      <trkpt lat="43.71301" lon="1.48829">
        <ele>189.09</ele>
        <time>2023-08-24T06:49:54.359Z</time>
      </trkpt>
      <trkpt lat="43.71307" lon="1.48841">
        <ele>189.07</ele>
        <time>2023-08-24T06:49:55.329Z</time>
      </trkpt>
      <trkpt lat="43.71311" lon="1.48848">
        <ele>189.04001</ele>
        <time>2023-08-24T06:49:56.352Z</time>
      </trkpt>
      <trkpt lat="43.71315" lon="1.48856">
        <ele>188.98001</ele>
        <time>2023-08-24T06:49:57.225Z</time>
      </trkpt>
      <trkpt lat="43.71319" lon="1.48863">
        <ele>189.01001</ele>
        <time>2023-08-24T06:49:58.357Z</time>
      </trkpt>
      <trkpt lat="43.7132" lon="1.48865">
        <ele>189.05</ele>
        <time>2023-08-24T06:49:58.910Z</time>
      </trkpt>
      <trkpt lat="43.71327" lon="1.48877">
        <ele>189.05</ele>
        <time>2023-08-24T06:50:00.186Z</time>
      </trkpt>
      <trkpt lat="43.71331" lon="1.48884">
        <ele>189.06</ele>
        <time>2023-08-24T06:50:01.327Z</time>
      </trkpt>
      <trkpt lat="43.71334" lon="1.48891">
        <ele>189.07</ele>
        <time>2023-08-24T06:50:02.227Z</time>
      </trkpt>
      <trkpt lat="43.71338" lon="1.48899">
        <ele>189.08</ele>
        <time>2023-08-24T06:50:03.362Z</time>
      </trkpt>
      <trkpt lat="43.71341" lon="1.48906">
        <ele>189.15</ele>
        <time>2023-08-24T06:50:03.889Z</time>
      </trkpt>
      <trkpt lat="43.71345" lon="1.48914">
        <ele>189.17</ele>
        <time>2023-08-24T06:50:04.897Z</time>
      </trkpt>
      <trkpt lat="43.71348" lon="1.48921">
        <ele>189.2</ele>
        <time>2023-08-24T06:50:06.370Z</time>
      </trkpt>
      <trkpt lat="43.71351" lon="1.48928">
        <ele>189.26001</ele>
        <time>2023-08-24T06:50:07.138Z</time>
      </trkpt>
      <trkpt lat="43.71354" lon="1.48936">
        <ele>189.3</ele>
        <time>2023-08-24T06:50:07.392Z</time>
      </trkpt>
      <trkpt lat="43.71357" lon="1.48944">
        <ele>189.32</ele>
        <time>2023-08-24T06:50:09.178Z</time>
      </trkpt>
      <trkpt lat="43.7136" lon="1.48952">
        <ele>189.35</ele>
        <time>2023-08-24T06:50:10.371Z</time>
      </trkpt>
      <trkpt lat="43.71361" lon="1.48957">
        <ele>189.44</ele>
        <time>2023-08-24T06:50:10.908Z</time>
      </trkpt>
      <trkpt lat="43.71365" lon="1.48968">
        <ele>189.47</ele>
        <time>2023-08-24T06:50:11.389Z</time>
      </trkpt>
      <trkpt lat="43.71367" lon="1.48976">
        <ele>189.61</ele>
        <time>2023-08-24T06:50:13.409Z</time>
      </trkpt>
      <trkpt lat="43.7137" lon="1.48984">
        <ele>189.7</ele>
        <time>2023-08-24T06:50:14.401Z</time>
      </trkpt>
      <trkpt lat="43.71372" lon="1.48992">
        <ele>189.85</ele>
        <time>2023-08-24T06:50:15.394Z</time>
      </trkpt>
      <trkpt lat="43.71375" lon="1.48999">
        <ele>189.97</ele>
        <time>2023-08-24T06:50:16.410Z</time>
      </trkpt>
      <trkpt lat="43.71378" lon="1.49007">
        <ele>190.01001</ele>
        <time>2023-08-24T06:50:17.306Z</time>
      </trkpt>
      <trkpt lat="43.71381" lon="1.49016">
        <ele>189.95999</ele>
        <time>2023-08-24T06:50:18.417Z</time>
      </trkpt>
      <trkpt lat="43.71385" lon="1.49024">
        <ele>189.9</ele>
        <time>2023-08-24T06:50:19.390Z</time>
      </trkpt>
      <trkpt lat="43.71389" lon="1.49031">
        <ele>189.76999</ele>
        <time>2023-08-24T06:50:20.336Z</time>
      </trkpt>
      <trkpt lat="43.71394" lon="1.49039">
        <ele>189.59</ele>
        <time>2023-08-24T06:50:21.417Z</time>
      </trkpt>
      <trkpt lat="43.71399" lon="1.49047">
        <ele>189.37</ele>
        <time>2023-08-24T06:50:21.502Z</time>
      </trkpt>
      <trkpt lat="43.71405" lon="1.49054">
        <ele>189.07</ele>
        <time>2023-08-24T06:50:23.415Z</time>
      </trkpt>
      <trkpt lat="43.71411" lon="1.49062">
        <ele>188.73001</ele>
        <time>2023-08-24T06:50:23.981Z</time>
      </trkpt>
      <trkpt lat="43.71417" lon="1.4907">
        <ele>188.37</ele>
        <time>2023-08-24T06:50:24.958Z</time>
      </trkpt>
      <trkpt lat="43.71423" lon="1.49078">
        <ele>188.01999</ele>
        <time>2023-08-24T06:50:25.947Z</time>
      </trkpt>
      <trkpt lat="43.71429" lon="1.49087">
        <ele>187.55</ele>
        <time>2023-08-24T06:50:27.075Z</time>
      </trkpt>
      <trkpt lat="43.71436" lon="1.49096">
        <ele>186.97</ele>
        <time>2023-08-24T06:50:28.041Z</time>
      </trkpt>
      <trkpt lat="43.71443" lon="1.49104">
        <ele>186.48999</ele>
        <time>2023-08-24T06:50:29.039Z</time>
      </trkpt>
      <trkpt lat="43.71449" lon="1.49113">
        <ele>186.04001</ele>
        <time>2023-08-24T06:50:30.066Z</time>
      </trkpt>
      <trkpt lat="43.71455" lon="1.49122">
        <ele>185.5</ele>
        <time>2023-08-24T06:50:31.029Z</time>
      </trkpt>
      <trkpt lat="43.71461" lon="1.49132">
        <ele>184.97</ele>
        <time>2023-08-24T06:50:32.410Z</time>
      </trkpt>
      <trkpt lat="43.71468" lon="1.49142">
        <ele>184.44</ele>
        <time>2023-08-24T06:50:33.408Z</time>
      </trkpt>
      <trkpt lat="43.71474" lon="1.49152">
        <ele>183.98999</ele>
        <time>2023-08-24T06:50:34.281Z</time>
      </trkpt>
      <trkpt lat="43.71481" lon="1.49162">
        <ele>183.55</ele>
        <time>2023-08-24T06:50:35.329Z</time>
      </trkpt>
      <trkpt lat="43.71487" lon="1.49173">
        <ele>183.07</ele>
        <time>2023-08-24T06:50:36.321Z</time>
      </trkpt>
      <trkpt lat="43.71493" lon="1.49182">
        <ele>182.58</ele>
        <time>2023-08-24T06:50:37.408Z</time>
      </trkpt>
      <trkpt lat="43.71499" lon="1.49193">
        <ele>182.19</ele>
        <time>2023-08-24T06:50:38.215Z</time>
      </trkpt>
      <trkpt lat="43.71504" lon="1.49204">
        <ele>181.85</ele>
        <time>2023-08-24T06:50:39.285Z</time>
      </trkpt>
      <trkpt lat="43.7151" lon="1.49215">
        <ele>181.53</ele>
        <time>2023-08-24T06:50:40.259Z</time>
      </trkpt>
      <trkpt lat="43.71515" lon="1.49226">
        <ele>181.19</ele>
        <time>2023-08-24T06:50:41.433Z</time>
      </trkpt>
      <trkpt lat="43.71519" lon="1.49236">
        <ele>180.89</ele>
        <time>2023-08-24T06:50:42.144Z</time>
      </trkpt>
      <trkpt lat="43.71524" lon="1.49247">
        <ele>180.57</ele>
        <time>2023-08-24T06:50:43.343Z</time>
      </trkpt>
      <trkpt lat="43.71528" lon="1.49258">
        <ele>180.23999</ele>
        <time>2023-08-24T06:50:44.362Z</time>
      </trkpt>
      <trkpt lat="43.71532" lon="1.49268">
        <ele>180.04001</ele>
        <time>2023-08-24T06:50:45.210Z</time>
      </trkpt>
      <trkpt lat="43.71537" lon="1.49279">
        <ele>179.82</ele>
        <time>2023-08-24T06:50:46.214Z</time>
      </trkpt>
      <trkpt lat="43.71541" lon="1.49288">
        <ele>179.67</ele>
        <time>2023-08-24T06:50:47.406Z</time>
      </trkpt>
      <trkpt lat="43.71546" lon="1.49298">
        <ele>179.51001</ele>
        <time>2023-08-24T06:50:48.448Z</time>
      </trkpt>
      <trkpt lat="43.7155" lon="1.49308">
        <ele>179.44</ele>
        <time>2023-08-24T06:50:49.179Z</time>
      </trkpt>
      <trkpt lat="43.71555" lon="1.49317">
        <ele>179.31</ele>
        <time>2023-08-24T06:50:50.224Z</time>
      </trkpt>
      <trkpt lat="43.71559" lon="1.49326">
        <ele>179.18</ele>
        <time>2023-08-24T06:50:51.328Z</time>
      </trkpt>
      <trkpt lat="43.71563" lon="1.49335">
        <ele>179</ele>
        <time>2023-08-24T06:50:52.407Z</time>
      </trkpt>
      <trkpt lat="43.71568" lon="1.49345">
        <ele>178.87</ele>
        <time>2023-08-24T06:50:53.333Z</time>
      </trkpt>
      <trkpt lat="43.71571" lon="1.49353">
        <ele>178.76999</ele>
        <time>2023-08-24T06:50:54.408Z</time>
      </trkpt>
      <trkpt lat="43.71576" lon="1.49362">
        <ele>178.67</ele>
        <time>2023-08-24T06:50:55.340Z</time>
      </trkpt>
      <trkpt lat="43.71579" lon="1.49371">
        <ele>178.55</ele>
        <time>2023-08-24T06:50:56.467Z</time>
      </trkpt>
      <trkpt lat="43.71584" lon="1.4938">
        <ele>178.51999</ele>
        <time>2023-08-24T06:50:57.335Z</time>
      </trkpt>
      <trkpt lat="43.71587" lon="1.49388">
        <ele>178.48999</ele>
        <time>2023-08-24T06:50:58.389Z</time>
      </trkpt>
      <trkpt lat="43.7159" lon="1.49397">
        <ele>178.64</ele>
        <time>2023-08-24T06:50:59.435Z</time>
      </trkpt>
      <trkpt lat="43.71592" lon="1.49406">
        <ele>178.7</ele>
        <time>2023-08-24T06:51:00.144Z</time>
      </trkpt>
      <trkpt lat="43.71594" lon="1.49414">
        <ele>178.73999</ele>
        <time>2023-08-24T06:51:01.120Z</time>
      </trkpt>
      <trkpt lat="43.71597" lon="1.49426">
        <ele>178.78</ele>
        <time>2023-08-24T06:51:02.165Z</time>
      </trkpt>
      <trkpt lat="43.71598" lon="1.49435">
        <ele>178.70999</ele>
        <time>2023-08-24T06:51:03.139Z</time>
      </trkpt>
      <trkpt lat="43.71599" lon="1.49446">
        <ele>178.53</ele>
        <time>2023-08-24T06:51:04.183Z</time>
      </trkpt>
      <trkpt lat="43.716" lon="1.49457">
        <ele>178.2</ele>
        <time>2023-08-24T06:51:05.395Z</time>
      </trkpt>
      <trkpt lat="43.716" lon="1.49469">
        <ele>177.81</ele>
        <time>2023-08-24T06:51:05.482Z</time>
      </trkpt>
      <trkpt lat="43.716" lon="1.49475">
        <ele>177.18</ele>
        <time>2023-08-24T06:51:07.394Z</time>
      </trkpt>
      <trkpt lat="43.716" lon="1.49495">
        <ele>176.51001</ele>
        <time>2023-08-24T06:51:07.495Z</time>
      </trkpt>
      <trkpt lat="43.71599" lon="1.49509">
        <ele>175.78</ele>
        <time>2023-08-24T06:51:09.455Z</time>
      </trkpt>
      <trkpt lat="43.71599" lon="1.49523">
        <ele>174.86</ele>
        <time>2023-08-24T06:51:09.504Z</time>
      </trkpt>
      <trkpt lat="43.71598" lon="1.49538">
        <ele>173.9</ele>
        <time>2023-08-24T06:51:11.463Z</time>
      </trkpt>
      <trkpt lat="43.71598" lon="1.49546">
        <ele>172.72</ele>
        <time>2023-08-24T06:51:12.185Z</time>
      </trkpt>
      <trkpt lat="43.71597" lon="1.49564">
        <ele>171.31</ele>
        <time>2023-08-24T06:51:13.152Z</time>
      </trkpt>
      <trkpt lat="43.71597" lon="1.4958">
        <ele>169.64</ele>
        <time>2023-08-24T06:51:14.412Z</time>
      </trkpt>
      <trkpt lat="43.71596" lon="1.49592">
        <ele>167.95999</ele>
        <time>2023-08-24T06:51:15.177Z</time>
      </trkpt>
      <trkpt lat="43.71595" lon="1.49614">
        <ele>166.29001</ele>
        <time>2023-08-24T06:51:16.140Z</time>
      </trkpt>
      <trkpt lat="43.71595" lon="1.49638">
        <ele>164.72</ele>
        <time>2023-08-24T06:51:17.145Z</time>
      </trkpt>
      <trkpt lat="43.71595" lon="1.49652">
        <ele>163.26001</ele>
        <time>2023-08-24T06:51:18.281Z</time>
      </trkpt>
      <trkpt lat="43.71594" lon="1.49665">
        <ele>161.86</ele>
        <time>2023-08-24T06:51:19.368Z</time>
      </trkpt>
      <trkpt lat="43.71595" lon="1.49683">
        <ele>160.83</ele>
        <time>2023-08-24T06:51:20.297Z</time>
      </trkpt>
      <trkpt lat="43.71597" lon="1.49693">
        <ele>160</ele>
        <time>2023-08-24T06:51:21.350Z</time>
      </trkpt>
      <trkpt lat="43.71601" lon="1.49718">
        <ele>159.29001</ele>
        <time>2023-08-24T06:51:22.306Z</time>
      </trkpt>
      <trkpt lat="43.71608" lon="1.49742">
        <ele>158.89</ele>
        <time>2023-08-24T06:51:24.383Z</time>
      </trkpt>
      <trkpt lat="43.71611" lon="1.49752">
        <ele>158.33</ele>
        <time>2023-08-24T06:51:25.497Z</time>
      </trkpt>
      <trkpt lat="43.71613" lon="1.4976">
        <ele>158.18</ele>
        <time>2023-08-24T06:51:26.446Z</time>
      </trkpt>
      <trkpt lat="43.71614" lon="1.49766">
        <ele>158.1</ele>
        <time>2023-08-24T06:51:27.325Z</time>
      </trkpt>
      <trkpt lat="43.71614" lon="1.49773">
        <ele>157.98999</ele>
        <time>2023-08-24T06:51:28.448Z</time>
      </trkpt>
      <trkpt lat="43.71614" lon="1.4978">
        <ele>157.87</ele>
        <time>2023-08-24T06:51:29.331Z</time>
      </trkpt>
      <trkpt lat="43.71615" lon="1.49787">
        <ele>157.82</ele>
        <time>2023-08-24T06:51:30.469Z</time>
      </trkpt>
      <trkpt lat="43.71616" lon="1.49795">
        <ele>157.67</ele>
        <time>2023-08-24T06:51:31.309Z</time>
      </trkpt>
      <trkpt lat="43.71617" lon="1.49802">
        <ele>157.5</ele>
        <time>2023-08-24T06:51:32.429Z</time>
      </trkpt>
      <trkpt lat="43.71619" lon="1.49812">
        <ele>157.23001</ele>
        <time>2023-08-24T06:51:33.298Z</time>
      </trkpt>
      <trkpt lat="43.7162" lon="1.4982">
        <ele>156.9</ele>
        <time>2023-08-24T06:51:34.338Z</time>
      </trkpt>
      <trkpt lat="43.71621" lon="1.4983">
        <ele>156.62</ele>
        <time>2023-08-24T06:51:35.405Z</time>
      </trkpt>
      <trkpt lat="43.71622" lon="1.49838">
        <ele>156.41</ele>
        <time>2023-08-24T06:51:36.514Z</time>
      </trkpt>
      <trkpt lat="43.71624" lon="1.49849">
        <ele>156.2</ele>
        <time>2023-08-24T06:51:37.514Z</time>
      </trkpt>
      <trkpt lat="43.71625" lon="1.49859">
        <ele>155.92</ele>
        <time>2023-08-24T06:51:38.348Z</time>
      </trkpt>
      <trkpt lat="43.71627" lon="1.49869">
        <ele>155.59</ele>
        <time>2023-08-24T06:51:39.504Z</time>
      </trkpt>
      <trkpt lat="43.71628" lon="1.49878">
        <ele>155.31</ele>
        <time>2023-08-24T06:51:40.019Z</time>
      </trkpt>
      <trkpt lat="43.71629" lon="1.49887">
        <ele>155.03</ele>
        <time>2023-08-24T06:51:41.504Z</time>
      </trkpt>
      <trkpt lat="43.7163" lon="1.49895">
        <ele>154.85</ele>
        <time>2023-08-24T06:51:42.504Z</time>
      </trkpt>
      <trkpt lat="43.71631" lon="1.49907">
        <ele>154.68</ele>
        <time>2023-08-24T06:51:43.506Z</time>
      </trkpt>
      <trkpt lat="43.71632" lon="1.49917">
        <ele>154.53</ele>
        <time>2023-08-24T06:51:44.504Z</time>
      </trkpt>
      <trkpt lat="43.71634" lon="1.49926">
        <ele>154.45</ele>
        <time>2023-08-24T06:51:45.512Z</time>
      </trkpt>
      <trkpt lat="43.71635" lon="1.49936">
        <ele>154.28</ele>
        <time>2023-08-24T06:51:46.504Z</time>
      </trkpt>
      <trkpt lat="43.71636" lon="1.49944">
        <ele>154.09</ele>
        <time>2023-08-24T06:51:47.506Z</time>
      </trkpt>
      <trkpt lat="43.71637" lon="1.49955">
        <ele>153.95999</ele>
        <time>2023-08-24T06:51:48.533Z</time>
      </trkpt>
      <trkpt lat="43.71638" lon="1.49964">
        <ele>153.92</ele>
        <time>2023-08-24T06:51:49.508Z</time>
      </trkpt>
      <trkpt lat="43.71639" lon="1.49974">
        <ele>153.84</ele>
        <time>2023-08-24T06:51:50.256Z</time>
      </trkpt>
      <trkpt lat="43.71641" lon="1.49983">
        <ele>153.73001</ele>
        <time>2023-08-24T06:51:51.504Z</time>
      </trkpt>
      <trkpt lat="43.71644" lon="1.49991">
        <ele>153.62</ele>
        <time>2023-08-24T06:51:52.505Z</time>
      </trkpt>
      <trkpt lat="43.71648" lon="1.5">
        <ele>153.47</ele>
        <time>2023-08-24T06:51:53.509Z</time>
      </trkpt>
      <trkpt lat="43.71652" lon="1.50007">
        <ele>153.32</ele>
        <time>2023-08-24T06:51:54.027Z</time>
      </trkpt>
      <trkpt lat="43.71657" lon="1.50013">
        <ele>153.19</ele>
        <time>2023-08-24T06:51:55.529Z</time>
      </trkpt>
      <trkpt lat="43.71663" lon="1.50018">
        <ele>153.08</ele>
        <time>2023-08-24T06:51:56.450Z</time>
      </trkpt>
      <trkpt lat="43.71669" lon="1.50023">
        <ele>152.98001</ele>
        <time>2023-08-24T06:51:57.459Z</time>
      </trkpt>
      <trkpt lat="43.71675" lon="1.50027">
        <ele>152.88</ele>
        <time>2023-08-24T06:51:58.506Z</time>
      </trkpt>
      <trkpt lat="43.71681" lon="1.5003">
        <ele>152.84</ele>
        <time>2023-08-24T06:51:59.551Z</time>
      </trkpt>
      <trkpt lat="43.71688" lon="1.50033">
        <ele>152.83</ele>
        <time>2023-08-24T06:52:00.047Z</time>
      </trkpt>
      <trkpt lat="43.71695" lon="1.50036">
        <ele>152.72</ele>
        <time>2023-08-24T06:52:00.737Z</time>
      </trkpt>
      <trkpt lat="43.71701" lon="1.50039">
        <ele>152.6</ele>
        <time>2023-08-24T06:52:02.509Z</time>
      </trkpt>
      <trkpt lat="43.71708" lon="1.50042">
        <ele>152.45</ele>
        <time>2023-08-24T06:52:02.562Z</time>
      </trkpt>
      <trkpt lat="43.71716" lon="1.50045">
        <ele>152.3</ele>
        <time>2023-08-24T06:52:04.042Z</time>
      </trkpt>
      <trkpt lat="43.71722" lon="1.50048">
        <ele>152.18</ele>
        <time>2023-08-24T06:52:04.568Z</time>
      </trkpt>
      <trkpt lat="43.71729" lon="1.50051">
        <ele>152.05</ele>
        <time>2023-08-24T06:52:06.069Z</time>
      </trkpt>
      <trkpt lat="43.71736" lon="1.50054">
        <ele>151.9</ele>
        <time>2023-08-24T06:52:07.517Z</time>
      </trkpt>
      <trkpt lat="43.71742" lon="1.50058">
        <ele>151.81</ele>
        <time>2023-08-24T06:52:08.460Z</time>
      </trkpt>
      <trkpt lat="43.71749" lon="1.50063">
        <ele>151.69</ele>
        <time>2023-08-24T06:52:08.575Z</time>
      </trkpt>
      <trkpt lat="43.71755" lon="1.50068">
        <ele>151.63</ele>
        <time>2023-08-24T06:52:10.506Z</time>
      </trkpt>
      <trkpt lat="43.71761" lon="1.50074">
        <ele>151.57</ele>
        <time>2023-08-24T06:52:11.506Z</time>
      </trkpt>
      <trkpt lat="43.71766" lon="1.5008">
        <ele>151.51001</ele>
        <time>2023-08-24T06:52:12.504Z</time>
      </trkpt>
      <trkpt lat="43.71772" lon="1.50087">
        <ele>151.41</ele>
        <time>2023-08-24T06:52:13.549Z</time>
      </trkpt>
      <trkpt lat="43.71777" lon="1.50094">
        <ele>151.3</ele>
        <time>2023-08-24T06:52:14.516Z</time>
      </trkpt>
      <trkpt lat="43.71782" lon="1.50101">
        <ele>151.19</ele>
        <time>2023-08-24T06:52:15.541Z</time>
      </trkpt>
      <trkpt lat="43.71786" lon="1.50108">
        <ele>151.11</ele>
        <time>2023-08-24T06:52:16.558Z</time>
      </trkpt>
      <trkpt lat="43.71791" lon="1.50116">
        <ele>151.01001</ele>
        <time>2023-08-24T06:52:17.506Z</time>
      </trkpt>
      <trkpt lat="43.71796" lon="1.50123">
        <ele>150.92</ele>
        <time>2023-08-24T06:52:18.508Z</time>
      </trkpt>
      <trkpt lat="43.718" lon="1.5013">
        <ele>150.86</ele>
        <time>2023-08-24T06:52:19.515Z</time>
      </trkpt>
      <trkpt lat="43.71805" lon="1.50137">
        <ele>150.76999</ele>
        <time>2023-08-24T06:52:20.528Z</time>
      </trkpt>
      <trkpt lat="43.7181" lon="1.50144">
        <ele>150.68</ele>
        <time>2023-08-24T06:52:21.505Z</time>
      </trkpt>
      <trkpt lat="43.71815" lon="1.50152">
        <ele>150.61</ele>
        <time>2023-08-24T06:52:22.505Z</time>
      </trkpt>
      <trkpt lat="43.71819" lon="1.50158">
        <ele>150.51999</ele>
        <time>2023-08-24T06:52:23.543Z</time>
      </trkpt>
      <trkpt lat="43.71824" lon="1.50165">
        <ele>150.42</ele>
        <time>2023-08-24T06:52:24.505Z</time>
      </trkpt>
      <trkpt lat="43.71828" lon="1.50172">
        <ele>150.33</ele>
        <time>2023-08-24T06:52:25.505Z</time>
      </trkpt>
      <trkpt lat="43.71833" lon="1.5018">
        <ele>150.19</ele>
        <time>2023-08-24T06:52:26.521Z</time>
      </trkpt>
      <trkpt lat="43.71838" lon="1.50187">
        <ele>150.12</ele>
        <time>2023-08-24T06:52:27.505Z</time>
      </trkpt>
      <trkpt lat="43.71843" lon="1.50194">
        <ele>150.03</ele>
        <time>2023-08-24T06:52:28.506Z</time>
      </trkpt>
      <trkpt lat="43.71848" lon="1.50201">
        <ele>149.92</ele>
        <time>2023-08-24T06:52:29.506Z</time>
      </trkpt>
      <trkpt lat="43.71853" lon="1.50208">
        <ele>149.79001</ele>
        <time>2023-08-24T06:52:30.506Z</time>
      </trkpt>
      <trkpt lat="43.71858" lon="1.50215">
        <ele>149.66</ele>
        <time>2023-08-24T06:52:31.507Z</time>
      </trkpt>
      <trkpt lat="43.71862" lon="1.50222">
        <ele>149.6</ele>
        <time>2023-08-24T06:52:32.508Z</time>
      </trkpt>
      <trkpt lat="43.71867" lon="1.50229">
        <ele>149.48001</ele>
        <time>2023-08-24T06:52:33.510Z</time>
      </trkpt>
      <trkpt lat="43.71872" lon="1.50236">
        <ele>149.35</ele>
        <time>2023-08-24T06:52:34.566Z</time>
      </trkpt>
      <trkpt lat="43.71877" lon="1.50243">
        <ele>149.23999</ele>
        <time>2023-08-24T06:52:35.512Z</time>
      </trkpt>
      <trkpt lat="43.71882" lon="1.5025">
        <ele>149.09</ele>
        <time>2023-08-24T06:52:36.408Z</time>
      </trkpt>
      <trkpt lat="43.71888" lon="1.50255">
        <ele>148.92</ele>
        <time>2023-08-24T06:52:37.507Z</time>
      </trkpt>
      <trkpt lat="43.71894" lon="1.50259">
        <ele>148.76001</ele>
        <time>2023-08-24T06:52:38.530Z</time>
      </trkpt>
      <trkpt lat="43.71901" lon="1.50262">
        <ele>148.59</ele>
        <time>2023-08-24T06:52:39.463Z</time>
      </trkpt>
      <trkpt lat="43.71907" lon="1.50264">
        <ele>148.41</ele>
        <time>2023-08-24T06:52:40.552Z</time>
      </trkpt>
      <trkpt lat="43.71914" lon="1.50266">
        <ele>148.20999</ele>
        <time>2023-08-24T06:52:41.508Z</time>
      </trkpt>
      <trkpt lat="43.71922" lon="1.50267">
        <ele>148.04001</ele>
        <time>2023-08-24T06:52:42.507Z</time>
      </trkpt>
      <trkpt lat="43.71928" lon="1.50267">
        <ele>147.86</ele>
        <time>2023-08-24T06:52:43.506Z</time>
      </trkpt>
      <trkpt lat="43.71935" lon="1.50266">
        <ele>147.73001</ele>
        <time>2023-08-24T06:52:44.506Z</time>
      </trkpt>
      <trkpt lat="43.71941" lon="1.50265">
        <ele>147.63</ele>
        <time>2023-08-24T06:52:45.511Z</time>
      </trkpt>
      <trkpt lat="43.71946" lon="1.50264">
        <ele>147.55</ele>
        <time>2023-08-24T06:52:46.557Z</time>
      </trkpt>
      <trkpt lat="43.7195" lon="1.50262">
        <ele>147.44</ele>
        <time>2023-08-24T06:52:47.542Z</time>
      </trkpt>
      <trkpt lat="43.71952" lon="1.50262">
        <ele>147.38</ele>
        <time>2023-08-24T06:52:48.528Z</time>
      </trkpt>
      <trkpt lat="43.71954" lon="1.50262">
        <ele>147.37</ele>
        <time>2023-08-24T06:52:49.505Z</time>
      </trkpt>
      <trkpt lat="43.71956" lon="1.50263">
        <ele>147.35</ele>
        <time>2023-08-24T06:52:50.566Z</time>
      </trkpt>
      <trkpt lat="43.71957" lon="1.50265">
        <ele>147.32</ele>
        <time>2023-08-24T06:52:51.539Z</time>
      </trkpt>
      <trkpt lat="43.71957" lon="1.50267">
        <ele>147.28</ele>
        <time>2023-08-24T06:52:52.506Z</time>
      </trkpt>
      <trkpt lat="43.71957" lon="1.50271">
        <ele>147.26999</ele>
        <time>2023-08-24T06:52:53.078Z</time>
      </trkpt>
      <trkpt lat="43.71957" lon="1.50275">
        <ele>147.2</ele>
        <time>2023-08-24T06:52:54.552Z</time>
      </trkpt>
      <trkpt lat="43.71956" lon="1.5028">
        <ele>147.13</ele>
        <time>2023-08-24T06:52:55.601Z</time>
      </trkpt>
      <trkpt lat="43.71954" lon="1.50288">
        <ele>147.1</ele>
        <time>2023-08-24T06:52:56.507Z</time>
      </trkpt>
      <trkpt lat="43.71953" lon="1.50296">
        <ele>147.01999</ele>
        <time>2023-08-24T06:52:57.091Z</time>
      </trkpt>
      <trkpt lat="43.71951" lon="1.50303">
        <ele>146.98001</ele>
        <time>2023-08-24T06:52:58.532Z</time>
      </trkpt>
      <trkpt lat="43.7195" lon="1.50311">
        <ele>146.78</ele>
        <time>2023-08-24T06:52:59.512Z</time>
      </trkpt>
      <trkpt lat="43.71948" lon="1.50321">
        <ele>146.6</ele>
        <time>2023-08-24T06:53:00.508Z</time>
      </trkpt>
      <trkpt lat="43.71947" lon="1.50328">
        <ele>146.36</ele>
        <time>2023-08-24T06:53:01.565Z</time>
      </trkpt>
      <trkpt lat="43.71946" lon="1.50337">
        <ele>146.07</ele>
        <time>2023-08-24T06:53:02.508Z</time>
      </trkpt>
      <trkpt lat="43.71944" lon="1.50345">
        <ele>145.93</ele>
        <time>2023-08-24T06:53:03.507Z</time>
      </trkpt>
      <trkpt lat="43.71943" lon="1.50353">
        <ele>145.86</ele>
        <time>2023-08-24T06:53:04.607Z</time>
      </trkpt>
      <trkpt lat="43.71941" lon="1.50362">
        <ele>145.7</ele>
        <time>2023-08-24T06:53:05.600Z</time>
      </trkpt>
      <trkpt lat="43.71939" lon="1.5037">
        <ele>145.6</ele>
        <time>2023-08-24T06:53:06.606Z</time>
      </trkpt>
      <trkpt lat="43.71938" lon="1.50379">
        <ele>145.45</ele>
        <time>2023-08-24T06:53:07.606Z</time>
      </trkpt>
      <trkpt lat="43.71936" lon="1.50388">
        <ele>145.26001</ele>
        <time>2023-08-24T06:53:08.597Z</time>
      </trkpt>
      <trkpt lat="43.71935" lon="1.50397">
        <ele>145.03</ele>
        <time>2023-08-24T06:53:09.606Z</time>
      </trkpt>
      <trkpt lat="43.71933" lon="1.50407">
        <ele>144.86</ele>
        <time>2023-08-24T06:53:10.603Z</time>
      </trkpt>
      <trkpt lat="43.71931" lon="1.50415">
        <ele>144.76</ele>
        <time>2023-08-24T06:53:11.605Z</time>
      </trkpt>
      <trkpt lat="43.7193" lon="1.50424">
        <ele>144.62</ele>
        <time>2023-08-24T06:53:12.606Z</time>
      </trkpt>
      <trkpt lat="43.71928" lon="1.50434">
        <ele>144.5</ele>
        <time>2023-08-24T06:53:13.596Z</time>
      </trkpt>
      <trkpt lat="43.71927" lon="1.50443">
        <ele>144.35</ele>
        <time>2023-08-24T06:53:14.607Z</time>
      </trkpt>
      <trkpt lat="43.71925" lon="1.50451">
        <ele>144.2</ele>
        <time>2023-08-24T06:53:15.612Z</time>
      </trkpt>
      <trkpt lat="43.71924" lon="1.5046">
        <ele>144.13</ele>
        <time>2023-08-24T06:53:15.701Z</time>
      </trkpt>
      <trkpt lat="43.71923" lon="1.50469">
        <ele>144</ele>
        <time>2023-08-24T06:53:17.608Z</time>
      </trkpt>
      <trkpt lat="43.71922" lon="1.50478">
        <ele>143.88</ele>
        <time>2023-08-24T06:53:18.592Z</time>
      </trkpt>
      <trkpt lat="43.71921" lon="1.50486">
        <ele>143.73</ele>
        <time>2023-08-24T06:53:18.698Z</time>
      </trkpt>
      <trkpt lat="43.71922" lon="1.50495">
        <ele>143.55</ele>
        <time>2023-08-24T06:53:20.607Z</time>
      </trkpt>
      <trkpt lat="43.71924" lon="1.50504">
        <ele>143.43</ele>
        <time>2023-08-24T06:53:21.607Z</time>
      </trkpt>
      <trkpt lat="43.71926" lon="1.50513">
        <ele>143.25</ele>
        <time>2023-08-24T06:53:22.571Z</time>
      </trkpt>
      <trkpt lat="43.7193" lon="1.50521">
        <ele>142.99</ele>
        <time>2023-08-24T06:53:23.599Z</time>
      </trkpt>
      <trkpt lat="43.71934" lon="1.5053">
        <ele>142.7</ele>
        <time>2023-08-24T06:53:23.705Z</time>
      </trkpt>
      <trkpt lat="43.71939" lon="1.50539">
        <ele>142.38</ele>
        <time>2023-08-24T06:53:25.130Z</time>
      </trkpt>
      <trkpt lat="43.71944" lon="1.50547">
        <ele>142.1</ele>
        <time>2023-08-24T06:53:26.206Z</time>
      </trkpt>
      <trkpt lat="43.71948" lon="1.50556">
        <ele>141.75</ele>
        <time>2023-08-24T06:53:27.253Z</time>
      </trkpt>
      <trkpt lat="43.71953" lon="1.50564">
        <ele>141.47</ele>
        <time>2023-08-24T06:53:28.611Z</time>
      </trkpt>
      <trkpt lat="43.71959" lon="1.50572">
        <ele>141.3</ele>
        <time>2023-08-24T06:53:29.193Z</time>
      </trkpt>
      <trkpt lat="43.71964" lon="1.5058">
        <ele>141.13</ele>
        <time>2023-08-24T06:53:30.609Z</time>
      </trkpt>
      <trkpt lat="43.71969" lon="1.50588">
        <ele>140.9</ele>
        <time>2023-08-24T06:53:31.605Z</time>
      </trkpt>
      <trkpt lat="43.71974" lon="1.50595">
        <ele>140.70999</ele>
        <time>2023-08-24T06:53:32.268Z</time>
      </trkpt>
      <trkpt lat="43.7198" lon="1.50602">
        <ele>140.55</ele>
        <time>2023-08-24T06:53:33.620Z</time>
      </trkpt>
      <trkpt lat="43.71986" lon="1.50609">
        <ele>140.35</ele>
        <time>2023-08-24T06:53:34.261Z</time>
      </trkpt>
      <trkpt lat="43.71992" lon="1.50616">
        <ele>140.19</ele>
        <time>2023-08-24T06:53:35.615Z</time>
      </trkpt>
      <trkpt lat="43.71998" lon="1.50623">
        <ele>140.01</ele>
        <time>2023-08-24T06:53:36.611Z</time>
      </trkpt>
      <trkpt lat="43.72004" lon="1.50629">
        <ele>139.85</ele>
        <time>2023-08-24T06:53:36.701Z</time>
      </trkpt>
      <trkpt lat="43.72009" lon="1.50635">
        <ele>139.68</ele>
        <time>2023-08-24T06:53:37.739Z</time>
      </trkpt>
      <trkpt lat="43.72016" lon="1.50641">
        <ele>139.51</ele>
        <time>2023-08-24T06:53:39.439Z</time>
      </trkpt>
      <trkpt lat="43.72022" lon="1.50647">
        <ele>139.35</ele>
        <time>2023-08-24T06:53:40.610Z</time>
      </trkpt>
      <trkpt lat="43.72028" lon="1.50652">
        <ele>139.2</ele>
        <time>2023-08-24T06:53:40.733Z</time>
      </trkpt>
      <trkpt lat="43.72035" lon="1.50657">
        <ele>139.07</ele>
        <time>2023-08-24T06:53:41.711Z</time>
      </trkpt>
      <trkpt lat="43.72042" lon="1.50663">
        <ele>138.9</ele>
        <time>2023-08-24T06:53:43.624Z</time>
      </trkpt>
      <trkpt lat="43.72049" lon="1.50668">
        <ele>138.8</ele>
        <time>2023-08-24T06:53:43.664Z</time>
      </trkpt>
      <trkpt lat="43.72055" lon="1.50673">
        <ele>138.7</ele>
        <time>2023-08-24T06:53:45.646Z</time>
      </trkpt>
      <trkpt lat="43.72061" lon="1.50678">
        <ele>138.63</ele>
        <time>2023-08-24T06:53:45.667Z</time>
      </trkpt>
      <trkpt lat="43.72068" lon="1.50683">
        <ele>138.52</ele>
        <time>2023-08-24T06:53:47.635Z</time>
      </trkpt>
      <trkpt lat="43.72074" lon="1.50688">
        <ele>138.47</ele>
        <time>2023-08-24T06:53:48.633Z</time>
      </trkpt>
      <trkpt lat="43.72081" lon="1.50693">
        <ele>138.44</ele>
        <time>2023-08-24T06:53:49.331Z</time>
      </trkpt>
      <trkpt lat="43.72086" lon="1.50698">
        <ele>138.41</ele>
        <time>2023-08-24T06:53:49.697Z</time>
      </trkpt>
      <trkpt lat="43.72091" lon="1.50702">
        <ele>138.38</ele>
        <time>2023-08-24T06:53:50.745Z</time>
      </trkpt>
      <trkpt lat="43.72099" lon="1.5071">
        <ele>138.3</ele>
        <time>2023-08-24T06:53:52.636Z</time>
      </trkpt>
      <trkpt lat="43.72105" lon="1.50716">
        <ele>138.27</ele>
        <time>2023-08-24T06:53:52.750Z</time>
      </trkpt>
      <trkpt lat="43.7211" lon="1.50722">
        <ele>138.19</ele>
        <time>2023-08-24T06:53:53.732Z</time>
      </trkpt>
      <trkpt lat="43.72116" lon="1.50728">
        <ele>138.09</ele>
        <time>2023-08-24T06:53:54.704Z</time>
      </trkpt>
      <trkpt lat="43.72121" lon="1.50735">
        <ele>138.02</ele>
        <time>2023-08-24T06:53:56.578Z</time>
      </trkpt>
      <trkpt lat="43.72126" lon="1.50742">
        <ele>137.99</ele>
        <time>2023-08-24T06:53:56.722Z</time>
      </trkpt>
      <trkpt lat="43.72131" lon="1.50748">
        <ele>137.95999</ele>
        <time>2023-08-24T06:53:58.635Z</time>
      </trkpt>
      <trkpt lat="43.72136" lon="1.50755">
        <ele>137.77</ele>
        <time>2023-08-24T06:53:59.608Z</time>
      </trkpt>
      <trkpt lat="43.72142" lon="1.50762">
        <ele>137.58</ele>
        <time>2023-08-24T06:53:59.705Z</time>
      </trkpt>
      <trkpt lat="43.72147" lon="1.50769">
        <ele>137.5</ele>
        <time>2023-08-24T06:54:01.609Z</time>
      </trkpt>
      <trkpt lat="43.72152" lon="1.50776">
        <ele>137.34</ele>
        <time>2023-08-24T06:54:02.608Z</time>
      </trkpt>
      <trkpt lat="43.72157" lon="1.50782">
        <ele>137.23</ele>
        <time>2023-08-24T06:54:03.481Z</time>
      </trkpt>
      <trkpt lat="43.72162" lon="1.5079">
        <ele>137.16</ele>
        <time>2023-08-24T06:54:04.608Z</time>
      </trkpt>
      <trkpt lat="43.72167" lon="1.50796">
        <ele>137.08</ele>
        <time>2023-08-24T06:54:05.486Z</time>
      </trkpt>
      <trkpt lat="43.72172" lon="1.50803">
        <ele>136.95</ele>
        <time>2023-08-24T06:54:05.721Z</time>
      </trkpt>
      <trkpt lat="43.72177" lon="1.50809">
        <ele>136.9</ele>
        <time>2023-08-24T06:54:06.727Z</time>
      </trkpt>
      <trkpt lat="43.72182" lon="1.50816">
        <ele>136.82</ele>
        <time>2023-08-24T06:54:07.739Z</time>
      </trkpt>
      <trkpt lat="43.72187" lon="1.50822">
        <ele>136.77</ele>
        <time>2023-08-24T06:54:08.715Z</time>
      </trkpt>
      <trkpt lat="43.72192" lon="1.50828">
        <ele>136.73</ele>
        <time>2023-08-24T06:54:09.722Z</time>
      </trkpt>
      <trkpt lat="43.72198" lon="1.50834">
        <ele>136.7</ele>
        <time>2023-08-24T06:54:11.708Z</time>
      </trkpt>
      <trkpt lat="43.72203" lon="1.50839">
        <ele>136.62</ele>
        <time>2023-08-24T06:54:12.356Z</time>
      </trkpt>
      <trkpt lat="43.72209" lon="1.50845">
        <ele>136.6</ele>
        <time>2023-08-24T06:54:13.707Z</time>
      </trkpt>
      <trkpt lat="43.72215" lon="1.50851">
        <ele>136.55</ele>
        <time>2023-08-24T06:54:14.707Z</time>
      </trkpt>
      <trkpt lat="43.72221" lon="1.50856">
        <ele>136.51</ele>
        <time>2023-08-24T06:54:15.348Z</time>
      </trkpt>
      <trkpt lat="43.72226" lon="1.50861">
        <ele>136.48</ele>
        <time>2023-08-24T06:54:16.708Z</time>
      </trkpt>
      <trkpt lat="43.72232" lon="1.50867">
        <ele>136.45</ele>
        <time>2023-08-24T06:54:17.706Z</time>
      </trkpt>
      <trkpt lat="43.72238" lon="1.50872">
        <ele>136.42</ele>
        <time>2023-08-24T06:54:18.008Z</time>
      </trkpt>
      <trkpt lat="43.72243" lon="1.50878">
        <ele>136.39</ele>
        <time>2023-08-24T06:54:19.698Z</time>
      </trkpt>
      <trkpt lat="43.7225" lon="1.50883">
        <ele>136.33</ele>
        <time>2023-08-24T06:54:20.344Z</time>
      </trkpt>
      <trkpt lat="43.72255" lon="1.50889">
        <ele>136.32</ele>
        <time>2023-08-24T06:54:21.714Z</time>
      </trkpt>
      <trkpt lat="43.72261" lon="1.50894">
        <ele>136.22</ele>
        <time>2023-08-24T06:54:22.692Z</time>
      </trkpt>
      <trkpt lat="43.72266" lon="1.509">
        <ele>136.18</ele>
        <time>2023-08-24T06:54:23.638Z</time>
      </trkpt>
      <trkpt lat="43.72271" lon="1.50904">
        <ele>136.15</ele>
        <time>2023-08-24T06:54:24.701Z</time>
      </trkpt>
      <trkpt lat="43.72276" lon="1.5091">
        <ele>136.1</ele>
        <time>2023-08-24T06:54:24.762Z</time>
      </trkpt>
      <trkpt lat="43.7228" lon="1.50914">
        <ele>136.08</ele>
        <time>2023-08-24T06:54:26.721Z</time>
      </trkpt>
      <trkpt lat="43.72285" lon="1.5092">
        <ele>136.05</ele>
        <time>2023-08-24T06:54:27.698Z</time>
      </trkpt>
      <trkpt lat="43.7229" lon="1.50927">
        <ele>136.02</ele>
        <time>2023-08-24T06:54:28.411Z</time>
      </trkpt>
      <trkpt lat="43.72295" lon="1.50935">
        <ele>135.95999</ele>
        <time>2023-08-24T06:54:29.708Z</time>
      </trkpt>
      <trkpt lat="43.723" lon="1.50944">
        <ele>135.91</ele>
        <time>2023-08-24T06:54:30.361Z</time>
      </trkpt>
      <trkpt lat="43.72303" lon="1.5095">
        <ele>135.93</ele>
        <time>2023-08-24T06:54:31.513Z</time>
      </trkpt>
      <trkpt lat="43.72307" lon="1.50958">
        <ele>135.97</ele>
        <time>2023-08-24T06:54:32.520Z</time>
      </trkpt>
      <trkpt lat="43.7231" lon="1.50965">
        <ele>136.04001</ele>
        <time>2023-08-24T06:54:33.705Z</time>
      </trkpt>
      <trkpt lat="43.72313" lon="1.50972">
        <ele>136.06</ele>
        <time>2023-08-24T06:54:34.718Z</time>
      </trkpt>
      <trkpt lat="43.72317" lon="1.50979">
        <ele>136.05</ele>
        <time>2023-08-24T06:54:35.691Z</time>
      </trkpt>
      <trkpt lat="43.72321" lon="1.50986">
        <ele>136.1</ele>
        <time>2023-08-24T06:54:36.705Z</time>
      </trkpt>
      <trkpt lat="43.72324" lon="1.50993">
        <ele>136.08</ele>
        <time>2023-08-24T06:54:37.389Z</time>
      </trkpt>
      <trkpt lat="43.72327" lon="1.51">
        <ele>136.08</ele>
        <time>2023-08-24T06:54:38.714Z</time>
      </trkpt>
      <trkpt lat="43.72331" lon="1.51008">
        <ele>136.06</ele>
        <time>2023-08-24T06:54:39.414Z</time>
      </trkpt>
      <trkpt lat="43.72337" lon="1.51021">
        <ele>136.02</ele>
        <time>2023-08-24T06:54:40.475Z</time>
      </trkpt>
      <trkpt lat="43.72341" lon="1.51029">
        <ele>136.05</ele>
        <time>2023-08-24T06:54:42.390Z</time>
      </trkpt>
      <trkpt lat="43.72345" lon="1.51036">
        <ele>136.06</ele>
        <time>2023-08-24T06:54:43.706Z</time>
      </trkpt>
      <trkpt lat="43.72348" lon="1.51043">
        <ele>136.08</ele>
        <time>2023-08-24T06:54:44.403Z</time>
      </trkpt>
      <trkpt lat="43.72352" lon="1.5105">
        <ele>136.08</ele>
        <time>2023-08-24T06:54:45.705Z</time>
      </trkpt>
      <trkpt lat="43.72356" lon="1.51057">
        <ele>136.06</ele>
        <time>2023-08-24T06:54:46.708Z</time>
      </trkpt>
      <trkpt lat="43.72359" lon="1.51064">
        <ele>136.1</ele>
        <time>2023-08-24T06:54:47.519Z</time>
      </trkpt>
      <trkpt lat="43.72363" lon="1.51071">
        <ele>136.12</ele>
        <time>2023-08-24T06:54:48.676Z</time>
      </trkpt>
      <trkpt lat="43.72366" lon="1.51078">
        <ele>136.11</ele>
        <time>2023-08-24T06:54:49.445Z</time>
      </trkpt>
      <trkpt lat="43.72369" lon="1.51086">
        <ele>136.14</ele>
        <time>2023-08-24T06:54:50.389Z</time>
      </trkpt>
      <trkpt lat="43.72373" lon="1.51093">
        <ele>136.11</ele>
        <time>2023-08-24T06:54:51.706Z</time>
      </trkpt>
      <trkpt lat="43.72376" lon="1.511">
        <ele>136.15</ele>
        <time>2023-08-24T06:54:52.762Z</time>
      </trkpt>
      <trkpt lat="43.7238" lon="1.51107">
        <ele>136.17</ele>
        <time>2023-08-24T06:54:53.373Z</time>
      </trkpt>
      <trkpt lat="43.72383" lon="1.51113">
        <ele>136.23</ele>
        <time>2023-08-24T06:54:54.410Z</time>
      </trkpt>
      <trkpt lat="43.72387" lon="1.5112">
        <ele>136.27</ele>
        <time>2023-08-24T06:54:55.387Z</time>
      </trkpt>
      <trkpt lat="43.7239" lon="1.51127">
        <ele>136.37</ele>
        <time>2023-08-24T06:54:56.767Z</time>
      </trkpt>
      <trkpt lat="43.72393" lon="1.51135">
        <ele>136.45999</ele>
        <time>2023-08-24T06:54:57.704Z</time>
      </trkpt>
      <trkpt lat="43.72396" lon="1.51141">
        <ele>136.54001</ele>
        <time>2023-08-24T06:54:58.375Z</time>
      </trkpt>
      <trkpt lat="43.72397" lon="1.51143">
        <ele>136.5</ele>
        <time>2023-08-24T06:54:59.411Z</time>
      </trkpt>
      <trkpt lat="43.72402" lon="1.51156">
        <ele>136.49</ele>
        <time>2023-08-24T06:55:00.393Z</time>
      </trkpt>
      <trkpt lat="43.72405" lon="1.51163">
        <ele>136.49</ele>
        <time>2023-08-24T06:55:01.370Z</time>
      </trkpt>
      <trkpt lat="43.72408" lon="1.51169">
        <ele>136.49</ele>
        <time>2023-08-24T06:55:02.423Z</time>
      </trkpt>
      <trkpt lat="43.7241" lon="1.51174">
        <ele>136.45</ele>
        <time>2023-08-24T06:55:03.394Z</time>
      </trkpt>
      <trkpt lat="43.72415" lon="1.51185">
        <ele>136.37</ele>
        <time>2023-08-24T06:55:04.394Z</time>
      </trkpt>
      <trkpt lat="43.72419" lon="1.51191">
        <ele>136.3</ele>
        <time>2023-08-24T06:55:05.412Z</time>
      </trkpt>
      <trkpt lat="43.72423" lon="1.51199">
        <ele>136.25</ele>
        <time>2023-08-24T06:55:06.400Z</time>
      </trkpt>
      <trkpt lat="43.72426" lon="1.51205">
        <ele>136.23</ele>
        <time>2023-08-24T06:55:07.654Z</time>
      </trkpt>
      <trkpt lat="43.7243" lon="1.51213">
        <ele>136.17</ele>
        <time>2023-08-24T06:55:08.825Z</time>
      </trkpt>
      <trkpt lat="43.72433" lon="1.51219">
        <ele>136.17</ele>
        <time>2023-08-24T06:55:09.398Z</time>
      </trkpt>
      <trkpt lat="43.72436" lon="1.51226">
        <ele>136.14</ele>
        <time>2023-08-24T06:55:10.407Z</time>
      </trkpt>
      <trkpt lat="43.72438" lon="1.51233">
        <ele>136.15</ele>
        <time>2023-08-24T06:55:11.410Z</time>
      </trkpt>
      <trkpt lat="43.7244" lon="1.51239">
        <ele>136.15</ele>
        <time>2023-08-24T06:55:12.395Z</time>
      </trkpt>
      <trkpt lat="43.72442" lon="1.51247">
        <ele>136.14</ele>
        <time>2023-08-24T06:55:13.426Z</time>
      </trkpt>
      <trkpt lat="43.72445" lon="1.51253">
        <ele>136.15</ele>
        <time>2023-08-24T06:55:14.408Z</time>
      </trkpt>
      <trkpt lat="43.72449" lon="1.51258">
        <ele>136.22</ele>
        <time>2023-08-24T06:55:15.436Z</time>
      </trkpt>
      <trkpt lat="43.72453" lon="1.51261">
        <ele>136.29001</ele>
        <time>2023-08-24T06:55:16.383Z</time>
      </trkpt>
      <trkpt lat="43.72458" lon="1.51266">
        <ele>136.34</ele>
        <time>2023-08-24T06:55:17.394Z</time>
      </trkpt>
      <trkpt lat="43.72462" lon="1.5127">
        <ele>136.43</ele>
        <time>2023-08-24T06:55:18.389Z</time>
      </trkpt>
      <trkpt lat="43.72466" lon="1.51276">
        <ele>136.47</ele>
        <time>2023-08-24T06:55:19.554Z</time>
      </trkpt>
      <trkpt lat="43.72469" lon="1.51282">
        <ele>136.56</ele>
        <time>2023-08-24T06:55:20.757Z</time>
      </trkpt>
      <trkpt lat="43.72472" lon="1.51288">
        <ele>136.62</ele>
        <time>2023-08-24T06:55:21.382Z</time>
      </trkpt>
      <trkpt lat="43.72476" lon="1.51294">
        <ele>136.67</ele>
        <time>2023-08-24T06:55:22.392Z</time>
      </trkpt>
      <trkpt lat="43.7248" lon="1.513">
        <ele>136.74</ele>
        <time>2023-08-24T06:55:23.375Z</time>
      </trkpt>
      <trkpt lat="43.72484" lon="1.51306">
        <ele>136.70999</ele>
        <time>2023-08-24T06:55:24.409Z</time>
      </trkpt>
      <trkpt lat="43.72488" lon="1.51314">
        <ele>136.65</ele>
        <time>2023-08-24T06:55:25.379Z</time>
      </trkpt>
      <trkpt lat="43.72493" lon="1.51321">
        <ele>136.58</ele>
        <time>2023-08-24T06:55:26.735Z</time>
      </trkpt>
      <trkpt lat="43.72496" lon="1.51328">
        <ele>136.52</ele>
        <time>2023-08-24T06:55:27.393Z</time>
      </trkpt>
      <trkpt lat="43.72501" lon="1.51335">
        <ele>136.42</ele>
        <time>2023-08-24T06:55:28.377Z</time>
      </trkpt>
      <trkpt lat="43.72505" lon="1.51343">
        <ele>136.29001</ele>
        <time>2023-08-24T06:55:29.382Z</time>
      </trkpt>
      <trkpt lat="43.72509" lon="1.51351">
        <ele>136.17</ele>
        <time>2023-08-24T06:55:30.402Z</time>
      </trkpt>
      <trkpt lat="43.72513" lon="1.51358">
        <ele>136.01</ele>
        <time>2023-08-24T06:55:31.363Z</time>
      </trkpt>
      <trkpt lat="43.72517" lon="1.51366">
        <ele>135.82</ele>
        <time>2023-08-24T06:55:32.401Z</time>
      </trkpt>
      <trkpt lat="43.72521" lon="1.51375">
        <ele>135.67</ele>
        <time>2023-08-24T06:55:33.607Z</time>
      </trkpt>
      <trkpt lat="43.72523" lon="1.51384">
        <ele>135.59</ele>
        <time>2023-08-24T06:55:34.354Z</time>
      </trkpt>
      <trkpt lat="43.72522" lon="1.51384">
        <ele>135.51</ele>
        <time>2023-08-24T06:55:35.391Z</time>
      </trkpt>
      <trkpt lat="43.72518" lon="1.514">
        <ele>135.41</ele>
        <time>2023-08-24T06:55:36.367Z</time>
      </trkpt>
      <trkpt lat="43.72514" lon="1.51407">
        <ele>135.31</ele>
        <time>2023-08-24T06:55:37.407Z</time>
      </trkpt>
      <trkpt lat="43.72509" lon="1.51414">
        <ele>135.23</ele>
        <time>2023-08-24T06:55:38.388Z</time>
      </trkpt>
      <trkpt lat="43.72505" lon="1.51421">
        <ele>135.14</ele>
        <time>2023-08-24T06:55:39.389Z</time>
      </trkpt>
      <trkpt lat="43.72502" lon="1.51428">
        <ele>135.12</ele>
        <time>2023-08-24T06:55:40.404Z</time>
      </trkpt>
      <trkpt lat="43.72498" lon="1.51436">
        <ele>135.1</ele>
        <time>2023-08-24T06:55:41.421Z</time>
      </trkpt>
      <trkpt lat="43.72498" lon="1.51437">
        <ele>135.07</ele>
        <time>2023-08-24T06:55:42.419Z</time>
      </trkpt>
      <trkpt lat="43.72493" lon="1.51453">
        <ele>135.01</ele>
        <time>2023-08-24T06:55:43.398Z</time>
      </trkpt>
      <trkpt lat="43.72491" lon="1.51461">
        <ele>135.02</ele>
        <time>2023-08-24T06:55:44.396Z</time>
      </trkpt>
      <trkpt lat="43.72487" lon="1.51477">
        <ele>134.99</ele>
        <time>2023-08-24T06:55:45.399Z</time>
      </trkpt>
      <trkpt lat="43.72483" lon="1.51494">
        <ele>135.02</ele>
        <time>2023-08-24T06:55:47.389Z</time>
      </trkpt>
      <trkpt lat="43.72481" lon="1.51502">
        <ele>135.04001</ele>
        <time>2023-08-24T06:55:49.401Z</time>
      </trkpt>
      <trkpt lat="43.72479" lon="1.5151">
        <ele>135.09</ele>
        <time>2023-08-24T06:55:50.416Z</time>
      </trkpt>
      <trkpt lat="43.72478" lon="1.51512">
        <ele>135.16</ele>
        <time>2023-08-24T06:55:51.402Z</time>
      </trkpt>
      <trkpt lat="43.72475" lon="1.51526">
        <ele>135.20999</ele>
        <time>2023-08-24T06:55:52.392Z</time>
      </trkpt>
      <trkpt lat="43.72472" lon="1.51535">
        <ele>135.2</ele>
        <time>2023-08-24T06:55:53.399Z</time>
      </trkpt>
      <trkpt lat="43.72469" lon="1.51543">
        <ele>135.20999</ele>
        <time>2023-08-24T06:55:54.409Z</time>
      </trkpt>
      <trkpt lat="43.72466" lon="1.5155">
        <ele>135.20999</ele>
        <time>2023-08-24T06:55:55.412Z</time>
      </trkpt>
      <trkpt lat="43.72463" lon="1.51558">
        <ele>135.26</ele>
        <time>2023-08-24T06:55:56.394Z</time>
      </trkpt>
      <trkpt lat="43.72456" lon="1.51572">
        <ele>135.29001</ele>
        <time>2023-08-24T06:55:57.410Z</time>
      </trkpt>
      <trkpt lat="43.72453" lon="1.51579">
        <ele>135.26</ele>
        <time>2023-08-24T06:55:59.418Z</time>
      </trkpt>
      <trkpt lat="43.72446" lon="1.51594">
        <ele>135.18</ele>
        <time>2023-08-24T06:56:00.423Z</time>
      </trkpt>
      <trkpt lat="43.72443" lon="1.51602">
        <ele>135.04001</ele>
        <time>2023-08-24T06:56:02.830Z</time>
      </trkpt>
      <trkpt lat="43.72441" lon="1.5161">
        <ele>134.99</ele>
        <time>2023-08-24T06:56:03.406Z</time>
      </trkpt>
      <trkpt lat="43.7244" lon="1.51619">
        <ele>134.99</ele>
        <time>2023-08-24T06:56:03.896Z</time>
      </trkpt>
      <trkpt lat="43.7244" lon="1.51627">
        <ele>134.94</ele>
        <time>2023-08-24T06:56:05.414Z</time>
      </trkpt>
      <trkpt lat="43.72439" lon="1.51641">
        <ele>134.95999</ele>
        <time>2023-08-24T06:56:06.399Z</time>
      </trkpt>
      <trkpt lat="43.72439" lon="1.51654">
        <ele>135.01</ele>
        <time>2023-08-24T06:56:07.865Z</time>
      </trkpt>
      <trkpt lat="43.72439" lon="1.51663">
        <ele>135.02</ele>
        <time>2023-08-24T06:56:08.901Z</time>
      </trkpt>
      <trkpt lat="43.72439" lon="1.51671">
        <ele>134.95999</ele>
        <time>2023-08-24T06:56:10.395Z</time>
      </trkpt>
      <trkpt lat="43.72439" lon="1.51682">
        <ele>134.98</ele>
        <time>2023-08-24T06:56:11.413Z</time>
      </trkpt>
      <trkpt lat="43.72439" lon="1.51697">
        <ele>135.01</ele>
        <time>2023-08-24T06:56:12.395Z</time>
      </trkpt>
      <trkpt lat="43.7244" lon="1.51713">
        <ele>135.03</ele>
        <time>2023-08-24T06:56:14.395Z</time>
      </trkpt>
      <trkpt lat="43.7244" lon="1.51716">
        <ele>135.08</ele>
        <time>2023-08-24T06:56:15.398Z</time>
      </trkpt>
      <trkpt lat="43.7244" lon="1.51731">
        <ele>135.13</ele>
        <time>2023-08-24T06:56:17.874Z</time>
      </trkpt>
      <trkpt lat="43.7244" lon="1.51738">
        <ele>135.12</ele>
        <time>2023-08-24T06:56:18.706Z</time>
      </trkpt>
      <trkpt lat="43.72441" lon="1.51746">
        <ele>135.15</ele>
        <time>2023-08-24T06:56:18.908Z</time>
      </trkpt>
      <trkpt lat="43.72441" lon="1.51761">
        <ele>135.16</ele>
        <time>2023-08-24T06:56:20.376Z</time>
      </trkpt>
      <trkpt lat="43.72443" lon="1.51775">
        <ele>135.28</ele>
        <time>2023-08-24T06:56:22.888Z</time>
      </trkpt>
      <trkpt lat="43.72443" lon="1.51782">
        <ele>135.44</ele>
        <time>2023-08-24T06:56:23.912Z</time>
      </trkpt>
      <trkpt lat="43.72445" lon="1.51788">
        <ele>135.5</ele>
        <time>2023-08-24T06:56:25.452Z</time>
      </trkpt>
      <trkpt lat="43.72448" lon="1.51793">
        <ele>135.52</ele>
        <time>2023-08-24T06:56:26.709Z</time>
      </trkpt>
      <trkpt lat="43.72451" lon="1.51796">
        <ele>135.61</ele>
        <time>2023-08-24T06:56:27.409Z</time>
      </trkpt>
      <trkpt lat="43.72458" lon="1.51802">
        <ele>135.70999</ele>
        <time>2023-08-24T06:56:28.860Z</time>
      </trkpt>
      <trkpt lat="43.72462" lon="1.51805">
        <ele>135.87</ele>
        <time>2023-08-24T06:56:29.852Z</time>
      </trkpt>
      <trkpt lat="43.72467" lon="1.51809">
        <ele>135.94</ele>
        <time>2023-08-24T06:56:30.850Z</time>
      </trkpt>
      <trkpt lat="43.72475" lon="1.51814">
        <ele>135.99</ele>
        <time>2023-08-24T06:56:31.907Z</time>
      </trkpt>
      <trkpt lat="43.72483" lon="1.5182">
        <ele>136.25</ele>
        <time>2023-08-24T06:56:34.865Z</time>
      </trkpt>
      <trkpt lat="43.72488" lon="1.51824">
        <ele>136.49</ele>
        <time>2023-08-24T06:56:35.877Z</time>
      </trkpt>
      <trkpt lat="43.72492" lon="1.51827">
        <ele>136.61</ele>
        <time>2023-08-24T06:56:36.847Z</time>
      </trkpt>
      <trkpt lat="43.72496" lon="1.5183">
        <ele>136.68</ele>
        <time>2023-08-24T06:56:37.902Z</time>
      </trkpt>
      <trkpt lat="43.72499" lon="1.51834">
        <ele>136.79001</ele>
        <time>2023-08-24T06:56:37.956Z</time>
      </trkpt>
      <trkpt lat="43.72503" lon="1.51837">
        <ele>136.89</ele>
        <time>2023-08-24T06:56:39.424Z</time>
      </trkpt>
      <trkpt lat="43.72507" lon="1.5184">
        <ele>137.01</ele>
        <time>2023-08-24T06:56:40.881Z</time>
      </trkpt>
      <trkpt lat="43.72511" lon="1.51844">
        <ele>137.13</ele>
        <time>2023-08-24T06:56:41.879Z</time>
      </trkpt>
      <trkpt lat="43.72515" lon="1.51847">
        <ele>137.28</ele>
        <time>2023-08-24T06:56:42.891Z</time>
      </trkpt>
      <trkpt lat="43.72523" lon="1.51854">
        <ele>137.35</ele>
        <time>2023-08-24T06:56:44.444Z</time>
      </trkpt>
      <trkpt lat="43.72527" lon="1.51857">
        <ele>137.51</ele>
        <time>2023-08-24T06:56:45.878Z</time>
      </trkpt>
      <trkpt lat="43.7253" lon="1.51861">
        <ele>137.59</ele>
        <time>2023-08-24T06:56:46.862Z</time>
      </trkpt>
      <trkpt lat="43.72538" lon="1.51867">
        <ele>137.64</ele>
        <time>2023-08-24T06:56:48.395Z</time>
      </trkpt>
      <trkpt lat="43.72541" lon="1.5187">
        <ele>137.84</ele>
        <time>2023-08-24T06:56:49.908Z</time>
      </trkpt>
      <trkpt lat="43.72544" lon="1.51873">
        <ele>137.91</ele>
        <time>2023-08-24T06:56:50.895Z</time>
      </trkpt>
      <trkpt lat="43.72547" lon="1.51876">
        <ele>137.95999</ele>
        <time>2023-08-24T06:56:51.806Z</time>
      </trkpt>
      <trkpt lat="43.7255" lon="1.51879">
        <ele>138.12</ele>
        <time>2023-08-24T06:56:52.905Z</time>
      </trkpt>
      <trkpt lat="43.72556" lon="1.51885">
        <ele>138.29001</ele>
        <time>2023-08-24T06:56:54.436Z</time>
      </trkpt>
      <trkpt lat="43.72562" lon="1.51894">
        <ele>138.51</ele>
        <time>2023-08-24T06:56:56.834Z</time>
      </trkpt>
      <trkpt lat="43.72565" lon="1.51898">
        <ele>138.83</ele>
        <time>2023-08-24T06:56:57.828Z</time>
      </trkpt>
      <trkpt lat="43.72567" lon="1.51901">
        <ele>138.97</ele>
        <time>2023-08-24T06:56:58.869Z</time>
      </trkpt>
      <trkpt lat="43.7257" lon="1.51905">
        <ele>138.97</ele>
        <time>2023-08-24T06:56:59.871Z</time>
      </trkpt>
      <trkpt lat="43.72574" lon="1.5191">
        <ele>138.91</ele>
        <time>2023-08-24T06:57:01.906Z</time>
      </trkpt>
      <trkpt lat="43.72578" lon="1.51915">
        <ele>138.97</ele>
        <time>2023-08-24T06:57:02.911Z</time>
      </trkpt>
      <trkpt lat="43.72581" lon="1.51919">
        <ele>139.02</ele>
        <time>2023-08-24T06:57:03.691Z</time>
      </trkpt>
      <trkpt lat="43.72584" lon="1.51924">
        <ele>139.14</ele>
        <time>2023-08-24T06:57:04.824Z</time>
      </trkpt>
      <trkpt lat="43.72587" lon="1.51928">
        <ele>139.19</ele>
        <time>2023-08-24T06:57:05.413Z</time>
      </trkpt>
      <trkpt lat="43.7259" lon="1.51933">
        <ele>139.3</ele>
        <time>2023-08-24T06:57:07.917Z</time>
      </trkpt>
      <trkpt lat="43.72593" lon="1.51937">
        <ele>139.45</ele>
        <time>2023-08-24T06:57:08.910Z</time>
      </trkpt>
      <trkpt lat="43.72596" lon="1.51943">
        <ele>139.64</ele>
        <time>2023-08-24T06:57:09.830Z</time>
      </trkpt>
      <trkpt lat="43.72599" lon="1.51947">
        <ele>139.77</ele>
        <time>2023-08-24T06:57:10.915Z</time>
      </trkpt>
      <trkpt lat="43.72602" lon="1.51951">
        <ele>139.88</ele>
        <time>2023-08-24T06:57:11.768Z</time>
      </trkpt>
      <trkpt lat="43.72606" lon="1.51957">
        <ele>140.02</ele>
        <time>2023-08-24T06:57:12.815Z</time>
      </trkpt>
      <trkpt lat="43.72611" lon="1.51965">
        <ele>140.16</ele>
        <time>2023-08-24T06:57:14.836Z</time>
      </trkpt>
      <trkpt lat="43.72617" lon="1.51974">
        <ele>140.47</ele>
        <time>2023-08-24T06:57:16.874Z</time>
      </trkpt>
      <trkpt lat="43.72619" lon="1.51978">
        <ele>140.63</ele>
        <time>2023-08-24T06:57:17.457Z</time>
      </trkpt>
      <trkpt lat="43.72622" lon="1.51981">
        <ele>140.82</ele>
        <time>2023-08-24T06:57:18.922Z</time>
      </trkpt>
      <trkpt lat="43.72625" lon="1.51987">
        <ele>140.94</ele>
        <time>2023-08-24T06:57:20.454Z</time>
      </trkpt>
      <trkpt lat="43.72631" lon="1.51995">
        <ele>141.2</ele>
        <time>2023-08-24T06:57:21.438Z</time>
      </trkpt>
      <trkpt lat="43.72634" lon="1.51999">
        <ele>141.52</ele>
        <time>2023-08-24T06:57:22.935Z</time>
      </trkpt>
      <trkpt lat="43.72636" lon="1.52002">
        <ele>141.7</ele>
        <time>2023-08-24T06:57:23.993Z</time>
      </trkpt>
      <trkpt lat="43.72639" lon="1.52007">
        <ele>141.87</ele>
        <time>2023-08-24T06:57:25.436Z</time>
      </trkpt>
      <trkpt lat="43.72643" lon="1.52011">
        <ele>142.05</ele>
        <time>2023-08-24T06:57:26.909Z</time>
      </trkpt>
      <trkpt lat="43.72646" lon="1.52015">
        <ele>142.20999</ele>
        <time>2023-08-24T06:57:27.904Z</time>
      </trkpt>
      <trkpt lat="43.72648" lon="1.52019">
        <ele>142.36</ele>
        <time>2023-08-24T06:57:28.921Z</time>
      </trkpt>
      <trkpt lat="43.72652" lon="1.52024">
        <ele>142.49</ele>
        <time>2023-08-24T06:57:30.886Z</time>
      </trkpt>
      <trkpt lat="43.72655" lon="1.52028">
        <ele>142.68</ele>
        <time>2023-08-24T06:57:31.913Z</time>
      </trkpt>
      <trkpt lat="43.72659" lon="1.52032">
        <ele>142.82</ele>
        <time>2023-08-24T06:57:32.871Z</time>
      </trkpt>
      <trkpt lat="43.72662" lon="1.52036">
        <ele>143.01</ele>
        <time>2023-08-24T06:57:33.936Z</time>
      </trkpt>
      <trkpt lat="43.72666" lon="1.5204">
        <ele>143.17</ele>
        <time>2023-08-24T06:57:34.881Z</time>
      </trkpt>
      <trkpt lat="43.7267" lon="1.52044">
        <ele>143.39</ele>
        <time>2023-08-24T06:57:35.934Z</time>
      </trkpt>
      <trkpt lat="43.72673" lon="1.52048">
        <ele>143.65</ele>
        <time>2023-08-24T06:57:36.729Z</time>
      </trkpt>
      <trkpt lat="43.72676" lon="1.52052">
        <ele>143.87</ele>
        <time>2023-08-24T06:57:37.913Z</time>
      </trkpt>
      <trkpt lat="43.72679" lon="1.52055">
        <ele>144.08</ele>
        <time>2023-08-24T06:57:38.933Z</time>
      </trkpt>
      <trkpt lat="43.72684" lon="1.5206">
        <ele>144.17</ele>
        <time>2023-08-24T06:57:39.999Z</time>
      </trkpt>
      <trkpt lat="43.72687" lon="1.52064">
        <ele>144.34</ele>
        <time>2023-08-24T06:57:41.922Z</time>
      </trkpt>
      <trkpt lat="43.72691" lon="1.52068">
        <ele>144.48</ele>
        <time>2023-08-24T06:57:42.869Z</time>
      </trkpt>
      <trkpt lat="43.72695" lon="1.52072">
        <ele>144.69</ele>
        <time>2023-08-24T06:57:43.943Z</time>
      </trkpt>
      <trkpt lat="43.72699" lon="1.52076">
        <ele>144.87</ele>
        <time>2023-08-24T06:57:44.858Z</time>
      </trkpt>
      <trkpt lat="43.72702" lon="1.5208">
        <ele>145.09</ele>
        <time>2023-08-24T06:57:45.930Z</time>
      </trkpt>
      <trkpt lat="43.72709" lon="1.52087">
        <ele>145.18</ele>
        <time>2023-08-24T06:57:47.815Z</time>
      </trkpt>
      <trkpt lat="43.72713" lon="1.52091">
        <ele>145.4</ele>
        <time>2023-08-24T06:57:49.713Z</time>
      </trkpt>
      <trkpt lat="43.72717" lon="1.52095">
        <ele>145.53</ele>
        <time>2023-08-24T06:57:50.900Z</time>
      </trkpt>
      <trkpt lat="43.72724" lon="1.52103">
        <ele>145.73999</ele>
        <time>2023-08-24T06:57:52.835Z</time>
      </trkpt>
      <trkpt lat="43.72728" lon="1.52108">
        <ele>146.05</ele>
        <time>2023-08-24T06:57:53.943Z</time>
      </trkpt>
      <trkpt lat="43.72732" lon="1.52111">
        <ele>146.28</ele>
        <time>2023-08-24T06:57:55.914Z</time>
      </trkpt>
      <trkpt lat="43.72735" lon="1.52115">
        <ele>146.35</ele>
        <time>2023-08-24T06:57:56.916Z</time>
      </trkpt>
      <trkpt lat="43.72742" lon="1.52123">
        <ele>146.45</ele>
        <time>2023-08-24T06:57:57.959Z</time>
      </trkpt>
      <trkpt lat="43.72752" lon="1.52135">
        <ele>146.56</ele>
        <time>2023-08-24T06:57:59.475Z</time>
      </trkpt>
      <trkpt lat="43.72755" lon="1.52139">
        <ele>146.38</ele>
        <time>2023-08-24T06:58:00.929Z</time>
      </trkpt>
      <trkpt lat="43.7276" lon="1.52144">
        <ele>146.28</ele>
        <time>2023-08-24T06:58:01.973Z</time>
      </trkpt>
      <trkpt lat="43.72765" lon="1.52149">
        <ele>146.23999</ele>
        <time>2023-08-24T06:58:02.954Z</time>
      </trkpt>
      <trkpt lat="43.72771" lon="1.52156">
        <ele>146.04001</ele>
        <time>2023-08-24T06:58:03.941Z</time>
      </trkpt>
      <trkpt lat="43.72776" lon="1.52164">
        <ele>145.58</ele>
        <time>2023-08-24T06:58:04.968Z</time>
      </trkpt>
      <trkpt lat="43.72781" lon="1.52172">
        <ele>145.15</ele>
        <time>2023-08-24T06:58:06.513Z</time>
      </trkpt>
      <trkpt lat="43.72789" lon="1.5219">
        <ele>144.69</ele>
        <time>2023-08-24T06:58:08.902Z</time>
      </trkpt>
      <trkpt lat="43.72791" lon="1.52194">
        <ele>143.6</ele>
        <time>2023-08-24T06:58:09.919Z</time>
      </trkpt>
      <trkpt lat="43.72801" lon="1.52213">
        <ele>143.19</ele>
        <time>2023-08-24T06:58:10.948Z</time>
      </trkpt>
      <trkpt lat="43.7281" lon="1.52223">
        <ele>142.41</ele>
        <time>2023-08-24T06:58:11.982Z</time>
      </trkpt>
      <trkpt lat="43.72814" lon="1.52226">
        <ele>142.25</ele>
        <time>2023-08-24T06:58:12.908Z</time>
      </trkpt>
      <trkpt lat="43.72827" lon="1.52236">
        <ele>141.99</ele>
        <time>2023-08-24T06:58:14.974Z</time>
      </trkpt>
      <trkpt lat="43.72837" lon="1.52242">
        <ele>141.52</ele>
        <time>2023-08-24T06:58:15.918Z</time>
      </trkpt>
      <trkpt lat="43.72843" lon="1.52246">
        <ele>141.3</ele>
        <time>2023-08-24T06:58:16.497Z</time>
      </trkpt>
      <trkpt lat="43.72856" lon="1.52252">
        <ele>141.16</ele>
        <time>2023-08-24T06:58:18.962Z</time>
      </trkpt>
      <trkpt lat="43.72869" lon="1.52257">
        <ele>140.86</ele>
        <time>2023-08-24T06:58:20.901Z</time>
      </trkpt>
      <trkpt lat="43.72876" lon="1.52258">
        <ele>140.62</ele>
        <time>2023-08-24T06:58:21.513Z</time>
      </trkpt>
      <trkpt lat="43.72882" lon="1.52258">
        <ele>140.61</ele>
        <time>2023-08-24T06:58:22.987Z</time>
      </trkpt>
      <trkpt lat="43.72889" lon="1.52258">
        <ele>140.56</ele>
        <time>2023-08-24T06:58:23.925Z</time>
      </trkpt>
      <trkpt lat="43.729" lon="1.52257">
        <ele>140.5</ele>
        <time>2023-08-24T06:58:25.991Z</time>
      </trkpt>
      <trkpt lat="43.72906" lon="1.52256">
        <ele>140.38</ele>
        <time>2023-08-24T06:58:27.949Z</time>
      </trkpt>
      <trkpt lat="43.72913" lon="1.52254">
        <ele>140.36</ele>
        <time>2023-08-24T06:58:28.904Z</time>
      </trkpt>
      <trkpt lat="43.72918" lon="1.52253">
        <ele>140.36</ele>
        <time>2023-08-24T06:58:29.845Z</time>
      </trkpt>
      <trkpt lat="43.7293" lon="1.5225">
        <ele>140.32</ele>
        <time>2023-08-24T06:58:30.939Z</time>
      </trkpt>
      <trkpt lat="43.72936" lon="1.52249">
        <ele>140.23</ele>
        <time>2023-08-24T06:58:31.916Z</time>
      </trkpt>
      <trkpt lat="43.72947" lon="1.52246">
        <ele>140.24</ele>
        <time>2023-08-24T06:58:33.989Z</time>
      </trkpt>
      <trkpt lat="43.72952" lon="1.52245">
        <ele>140.31</ele>
        <time>2023-08-24T06:58:35.932Z</time>
      </trkpt>
      <trkpt lat="43.72957" lon="1.52244">
        <ele>140.33</ele>
        <time>2023-08-24T06:58:36.917Z</time>
      </trkpt>
      <trkpt lat="43.72967" lon="1.5224">
        <ele>140.42</ele>
        <time>2023-08-24T06:58:37.935Z</time>
      </trkpt>
      <trkpt lat="43.72972" lon="1.52239">
        <ele>140.51</ele>
        <time>2023-08-24T06:58:38.969Z</time>
      </trkpt>
      <trkpt lat="43.72973" lon="1.52238">
        <ele>140.51</ele>
        <time>2023-08-24T06:58:40.807Z</time>
      </trkpt>
      <trkpt lat="43.72979" lon="1.52236">
        <ele>140.59</ele>
        <time>2023-08-24T06:58:41.732Z</time>
      </trkpt>
      <trkpt lat="43.72985" lon="1.52233">
        <ele>140.68</ele>
        <time>2023-08-24T06:58:42.124Z</time>
      </trkpt>
      <trkpt lat="43.72993" lon="1.52229">
        <ele>140.76</ele>
        <time>2023-08-24T06:58:44.019Z</time>
      </trkpt>
      <trkpt lat="43.72998" lon="1.52227">
        <ele>140.81</ele>
        <time>2023-08-24T06:58:45.765Z</time>
      </trkpt>
      <trkpt lat="43.73008" lon="1.52228">
        <ele>140.84</ele>
        <time>2023-08-24T06:58:46.929Z</time>
      </trkpt>
      <trkpt lat="43.73016" lon="1.52232">
        <ele>140.88</ele>
        <time>2023-08-24T06:58:48.890Z</time>
      </trkpt>
      <trkpt lat="43.73022" lon="1.52236">
        <ele>140.99</ele>
        <time>2023-08-24T06:58:49.919Z</time>
      </trkpt>
      <trkpt lat="43.73026" lon="1.52239">
        <ele>141</ele>
        <time>2023-08-24T06:58:51.963Z</time>
      </trkpt>
      <trkpt lat="43.73033" lon="1.52247">
        <ele>141.03</ele>
        <time>2023-08-24T06:58:52.948Z</time>
      </trkpt>
      <trkpt lat="43.73038" lon="1.52255">
        <ele>141.02</ele>
        <time>2023-08-24T06:58:53.979Z</time>
      </trkpt>
      <trkpt lat="43.73042" lon="1.5226">
        <ele>140.99</ele>
        <time>2023-08-24T06:58:54.994Z</time>
      </trkpt>
      <trkpt lat="43.73046" lon="1.52266">
        <ele>140.95</ele>
        <time>2023-08-24T06:58:55.874Z</time>
      </trkpt>
      <trkpt lat="43.7305" lon="1.52271">
        <ele>140.94</ele>
        <time>2023-08-24T06:58:56.094Z</time>
      </trkpt>
      <trkpt lat="43.73054" lon="1.52277">
        <ele>140.95</ele>
        <time>2023-08-24T06:58:58.026Z</time>
      </trkpt>
      <trkpt lat="43.73058" lon="1.52282">
        <ele>140.93</ele>
        <time>2023-08-24T06:58:59.017Z</time>
      </trkpt>
      <trkpt lat="43.73065" lon="1.52291">
        <ele>140.9</ele>
        <time>2023-08-24T06:59:00.879Z</time>
      </trkpt>
      <trkpt lat="43.73071" lon="1.52298">
        <ele>140.9</ele>
        <time>2023-08-24T06:59:01.955Z</time>
      </trkpt>
      <trkpt lat="43.73074" lon="1.52304">
        <ele>140.89</ele>
        <time>2023-08-24T06:59:02.918Z</time>
      </trkpt>
      <trkpt lat="43.73079" lon="1.52309">
        <ele>140.9</ele>
        <time>2023-08-24T06:59:03.941Z</time>
      </trkpt>
      <trkpt lat="43.73083" lon="1.52315">
        <ele>140.88</ele>
        <time>2023-08-24T06:59:05.058Z</time>
      </trkpt>
      <trkpt lat="43.73087" lon="1.5232">
        <ele>140.85</ele>
        <time>2023-08-24T06:59:06.030Z</time>
      </trkpt>
      <trkpt lat="43.73091" lon="1.52325">
        <ele>140.93</ele>
        <time>2023-08-24T06:59:06.967Z</time>
      </trkpt>
      <trkpt lat="43.73095" lon="1.5233">
        <ele>140.95</ele>
        <time>2023-08-24T06:59:07.942Z</time>
      </trkpt>
      <trkpt lat="43.73098" lon="1.52335">
        <ele>140.98</ele>
        <time>2023-08-24T06:59:09.040Z</time>
      </trkpt>
      <trkpt lat="43.73106" lon="1.52346">
        <ele>141.17</ele>
        <time>2023-08-24T06:59:10.977Z</time>
      </trkpt>
      <trkpt lat="43.73111" lon="1.52351">
        <ele>141.49</ele>
        <time>2023-08-24T06:59:11.105Z</time>
      </trkpt>
      <trkpt lat="43.73119" lon="1.52361">
        <ele>141.65</ele>
        <time>2023-08-24T06:59:13.986Z</time>
      </trkpt>
      <trkpt lat="43.73124" lon="1.52367">
        <ele>141.84</ele>
        <time>2023-08-24T06:59:14.986Z</time>
      </trkpt>
      <trkpt lat="43.73128" lon="1.52371">
        <ele>141.93</ele>
        <time>2023-08-24T06:59:16.025Z</time>
      </trkpt>
      <trkpt lat="43.73132" lon="1.52376">
        <ele>141.97</ele>
        <time>2023-08-24T06:59:17.008Z</time>
      </trkpt>
      <trkpt lat="43.73139" lon="1.52384">
        <ele>142</ele>
        <time>2023-08-24T06:59:18.773Z</time>
      </trkpt>
      <trkpt lat="43.73146" lon="1.52391">
        <ele>142.07</ele>
        <time>2023-08-24T06:59:19.951Z</time>
      </trkpt>
      <trkpt lat="43.7315" lon="1.52396">
        <ele>142.05</ele>
        <time>2023-08-24T06:59:21.043Z</time>
      </trkpt>
      <trkpt lat="43.73154" lon="1.52401">
        <ele>142.07</ele>
        <time>2023-08-24T06:59:21.886Z</time>
      </trkpt>
      <trkpt lat="43.73159" lon="1.52406">
        <ele>142.14</ele>
        <time>2023-08-24T06:59:23.029Z</time>
      </trkpt>
      <trkpt lat="43.73164" lon="1.5241">
        <ele>142.18</ele>
        <time>2023-08-24T06:59:24.069Z</time>
      </trkpt>
      <trkpt lat="43.73167" lon="1.52415">
        <ele>142.23</ele>
        <time>2023-08-24T06:59:24.948Z</time>
      </trkpt>
      <trkpt lat="43.73172" lon="1.5242">
        <ele>142.28</ele>
        <time>2023-08-24T06:59:25.983Z</time>
      </trkpt>
      <trkpt lat="43.73176" lon="1.52425">
        <ele>142.31</ele>
        <time>2023-08-24T06:59:27.097Z</time>
      </trkpt>
      <trkpt lat="43.7318" lon="1.5243">
        <ele>142.33</ele>
        <time>2023-08-24T06:59:28.977Z</time>
      </trkpt>
      <trkpt lat="43.73188" lon="1.52443">
        <ele>142.29001</ele>
        <time>2023-08-24T06:59:29.122Z</time>
      </trkpt>
      <trkpt lat="43.73192" lon="1.52449">
        <ele>142.27</ele>
        <time>2023-08-24T06:59:30.889Z</time>
      </trkpt>
      <trkpt lat="43.73199" lon="1.52463">
        <ele>142.3</ele>
        <time>2023-08-24T06:59:33.104Z</time>
      </trkpt>
      <trkpt lat="43.73202" lon="1.52467">
        <ele>142.34</ele>
        <time>2023-08-24T06:59:33.826Z</time>
      </trkpt>
      <trkpt lat="43.73207" lon="1.52477">
        <ele>142.37</ele>
        <time>2023-08-24T06:59:35.103Z</time>
      </trkpt>
      <trkpt lat="43.73207" lon="1.52479">
        <ele>142.4</ele>
        <time>2023-08-24T06:59:35.925Z</time>
      </trkpt>
      <trkpt lat="43.73214" lon="1.5249">
        <ele>142.4</ele>
        <time>2023-08-24T06:59:37.032Z</time>
      </trkpt>
      <trkpt lat="43.73217" lon="1.52496">
        <ele>142.57</ele>
        <time>2023-08-24T06:59:38.082Z</time>
      </trkpt>
      <trkpt lat="43.73221" lon="1.52502">
        <ele>142.64</ele>
        <time>2023-08-24T06:59:38.986Z</time>
      </trkpt>
      <trkpt lat="43.73224" lon="1.52508">
        <ele>142.7</ele>
        <time>2023-08-24T06:59:40.021Z</time>
      </trkpt>
      <trkpt lat="43.7323" lon="1.52522">
        <ele>142.79001</ele>
        <time>2023-08-24T06:59:41.980Z</time>
      </trkpt>
      <trkpt lat="43.73232" lon="1.52527">
        <ele>142.94</ele>
        <time>2023-08-24T06:59:43.125Z</time>
      </trkpt>
      <trkpt lat="43.73236" lon="1.52538">
        <ele>142.95</ele>
        <time>2023-08-24T06:59:44.019Z</time>
      </trkpt>
      <trkpt lat="43.7324" lon="1.52545">
        <ele>142.92</ele>
        <time>2023-08-24T06:59:44.166Z</time>
      </trkpt>
      <trkpt lat="43.73243" lon="1.52553">
        <ele>142.88</ele>
        <time>2023-08-24T06:59:46.069Z</time>
      </trkpt>
      <trkpt lat="43.73247" lon="1.52561">
        <ele>142.86</ele>
        <time>2023-08-24T06:59:47.039Z</time>
      </trkpt>
      <trkpt lat="43.7325" lon="1.52568">
        <ele>142.87</ele>
        <time>2023-08-24T06:59:48.065Z</time>
      </trkpt>
      <trkpt lat="43.73253" lon="1.52575">
        <ele>142.84</ele>
        <time>2023-08-24T06:59:49.180Z</time>
      </trkpt>
      <trkpt lat="43.7326" lon="1.52591">
        <ele>142.78</ele>
        <time>2023-08-24T06:59:51.113Z</time>
      </trkpt>
      <trkpt lat="43.73263" lon="1.52599">
        <ele>142.8</ele>
        <time>2023-08-24T06:59:52.079Z</time>
      </trkpt>
      <trkpt lat="43.73267" lon="1.52606">
        <ele>142.82</ele>
        <time>2023-08-24T06:59:52.705Z</time>
      </trkpt>
      <trkpt lat="43.73269" lon="1.52614">
        <ele>142.84</ele>
        <time>2023-08-24T06:59:53.965Z</time>
      </trkpt>
      <trkpt lat="43.73273" lon="1.52626">
        <ele>142.83</ele>
        <time>2023-08-24T06:59:56.131Z</time>
      </trkpt>
      <trkpt lat="43.73277" lon="1.52638">
        <ele>142.92</ele>
        <time>2023-08-24T06:59:56.172Z</time>
      </trkpt>
      <trkpt lat="43.7328" lon="1.52646">
        <ele>143.01</ele>
        <time>2023-08-24T06:59:58.140Z</time>
      </trkpt>
      <trkpt lat="43.73283" lon="1.52654">
        <ele>143.02</ele>
        <time>2023-08-24T06:59:58.190Z</time>
      </trkpt>
      <trkpt lat="43.73283" lon="1.52655">
        <ele>143.1</ele>
        <time>2023-08-24T07:00:00.066Z</time>
      </trkpt>
      <trkpt lat="43.73289" lon="1.52669">
        <ele>143.16</ele>
        <time>2023-08-24T07:00:00.202Z</time>
      </trkpt>
      <trkpt lat="43.73292" lon="1.52677">
        <ele>143.24</ele>
        <time>2023-08-24T07:00:01.893Z</time>
      </trkpt>
      <trkpt lat="43.73298" lon="1.52692">
        <ele>143.25</ele>
        <time>2023-08-24T07:00:04.121Z</time>
      </trkpt>
      <trkpt lat="43.73299" lon="1.52694">
        <ele>143.33</ele>
        <time>2023-08-24T07:00:04.730Z</time>
      </trkpt>
      <trkpt lat="43.73306" lon="1.52707">
        <ele>143.38</ele>
        <time>2023-08-24T07:00:06.049Z</time>
      </trkpt>
      <trkpt lat="43.73309" lon="1.52715">
        <ele>143.42</ele>
        <time>2023-08-24T07:00:07.046Z</time>
      </trkpt>
      <trkpt lat="43.73311" lon="1.52719">
        <ele>143.43</ele>
        <time>2023-08-24T07:00:08.162Z</time>
      </trkpt>
      <trkpt lat="43.73316" lon="1.5273">
        <ele>143.49</ele>
        <time>2023-08-24T07:00:08.765Z</time>
      </trkpt>
      <trkpt lat="43.7332" lon="1.52739">
        <ele>143.6</ele>
        <time>2023-08-24T07:00:11.147Z</time>
      </trkpt>
      <trkpt lat="43.7333" lon="1.52759">
        <ele>143.85</ele>
        <time>2023-08-24T07:00:13.049Z</time>
      </trkpt>
      <trkpt lat="43.73333" lon="1.52768">
        <ele>144.14</ele>
        <time>2023-08-24T07:00:14.923Z</time>
      </trkpt>
      <trkpt lat="43.73339" lon="1.52783">
        <ele>144.20999</ele>
        <time>2023-08-24T07:00:16.185Z</time>
      </trkpt>
      <trkpt lat="43.73342" lon="1.52791">
        <ele>144.39</ele>
        <time>2023-08-24T07:00:17.074Z</time>
      </trkpt>
      <trkpt lat="43.73346" lon="1.52807">
        <ele>144.44</ele>
        <time>2023-08-24T07:00:19.079Z</time>
      </trkpt>
      <trkpt lat="43.73347" lon="1.52811">
        <ele>144.64</ele>
        <time>2023-08-24T07:00:20.130Z</time>
      </trkpt>
      <trkpt lat="43.7335" lon="1.52823">
        <ele>144.75</ele>
        <time>2023-08-24T07:00:21.174Z</time>
      </trkpt>
      <trkpt lat="43.73353" lon="1.5283">
        <ele>144.8</ele>
        <time>2023-08-24T07:00:21.898Z</time>
      </trkpt>
      <trkpt lat="43.73356" lon="1.52836">
        <ele>144.89</ele>
        <time>2023-08-24T07:00:23.152Z</time>
      </trkpt>
      <trkpt lat="43.7336" lon="1.52841">
        <ele>145</ele>
        <time>2023-08-24T07:00:23.918Z</time>
      </trkpt>
      <trkpt lat="43.73365" lon="1.52847">
        <ele>145.08</ele>
        <time>2023-08-24T07:00:25.233Z</time>
      </trkpt>
      <trkpt lat="43.7337" lon="1.5285">
        <ele>145.17</ele>
        <time>2023-08-24T07:00:25.918Z</time>
      </trkpt>
      <trkpt lat="43.73375" lon="1.52855">
        <ele>145.29001</ele>
        <time>2023-08-24T07:00:27.121Z</time>
      </trkpt>
      <trkpt lat="43.73384" lon="1.52863">
        <ele>145.41</ele>
        <time>2023-08-24T07:00:29.186Z</time>
      </trkpt>
      <trkpt lat="43.73388" lon="1.52866">
        <ele>145.48999</ele>
        <time>2023-08-24T07:00:30.170Z</time>
      </trkpt>
      <trkpt lat="43.73394" lon="1.52874">
        <ele>145.58</ele>
        <time>2023-08-24T07:00:30.899Z</time>
      </trkpt>
      <trkpt lat="43.73396" lon="1.52878">
        <ele>145.61</ele>
        <time>2023-08-24T07:00:32.071Z</time>
      </trkpt>
      <trkpt lat="43.73401" lon="1.52887">
        <ele>145.68</ele>
        <time>2023-08-24T07:00:33.079Z</time>
      </trkpt>
      <trkpt lat="43.73404" lon="1.52894">
        <ele>145.68</ele>
        <time>2023-08-24T07:00:34.071Z</time>
      </trkpt>
      <trkpt lat="43.73407" lon="1.52901">
        <ele>145.73001</ele>
        <time>2023-08-24T07:00:35.056Z</time>
      </trkpt>
      <trkpt lat="43.73409" lon="1.52908">
        <ele>145.72</ele>
        <time>2023-08-24T07:00:35.941Z</time>
      </trkpt>
      <trkpt lat="43.73412" lon="1.52914">
        <ele>145.75</ele>
        <time>2023-08-24T07:00:37.201Z</time>
      </trkpt>
      <trkpt lat="43.73415" lon="1.52921">
        <ele>145.79001</ele>
        <time>2023-08-24T07:00:37.887Z</time>
      </trkpt>
      <trkpt lat="43.73419" lon="1.52927">
        <ele>145.79001</ele>
        <time>2023-08-24T07:00:38.921Z</time>
      </trkpt>
      <trkpt lat="43.7342" lon="1.5293">
        <ele>145.82</ele>
        <time>2023-08-24T07:00:40.088Z</time>
      </trkpt>
      <trkpt lat="43.73427" lon="1.52939">
        <ele>145.89</ele>
        <time>2023-08-24T07:00:41.145Z</time>
      </trkpt>
      <trkpt lat="43.73431" lon="1.52944">
        <ele>145.95999</ele>
        <time>2023-08-24T07:00:42.253Z</time>
      </trkpt>
      <trkpt lat="43.73436" lon="1.52948">
        <ele>146.03</ele>
        <time>2023-08-24T07:00:43.140Z</time>
      </trkpt>
      <trkpt lat="43.73441" lon="1.52951">
        <ele>146.03</ele>
        <time>2023-08-24T07:00:44.162Z</time>
      </trkpt>
      <trkpt lat="43.73445" lon="1.52953">
        <ele>146.05</ele>
        <time>2023-08-24T07:00:45.154Z</time>
      </trkpt>
      <trkpt lat="43.73451" lon="1.52955">
        <ele>146.03</ele>
        <time>2023-08-24T07:00:45.931Z</time>
      </trkpt>
      <trkpt lat="43.73457" lon="1.52956">
        <ele>145.98001</ele>
        <time>2023-08-24T07:00:47.038Z</time>
      </trkpt>
      <trkpt lat="43.73462" lon="1.52957">
        <ele>145.95999</ele>
        <time>2023-08-24T07:00:48.022Z</time>
      </trkpt>
      <trkpt lat="43.73468" lon="1.52958">
        <ele>145.95999</ele>
        <time>2023-08-24T07:00:49.123Z</time>
      </trkpt>
      <trkpt lat="43.7348" lon="1.5296">
        <ele>146.04001</ele>
        <time>2023-08-24T07:00:51.125Z</time>
      </trkpt>
      <trkpt lat="43.73487" lon="1.52962">
        <ele>146.11</ele>
        <time>2023-08-24T07:00:52.040Z</time>
      </trkpt>
      <trkpt lat="43.73493" lon="1.52963">
        <ele>146.13</ele>
        <time>2023-08-24T07:00:52.804Z</time>
      </trkpt>
      <trkpt lat="43.73499" lon="1.52965">
        <ele>146.19</ele>
        <time>2023-08-24T07:00:53.805Z</time>
      </trkpt>
      <trkpt lat="43.73507" lon="1.52967">
        <ele>146.22</ele>
        <time>2023-08-24T07:00:54.805Z</time>
      </trkpt>
      <trkpt lat="43.73512" lon="1.52968">
        <ele>146.20999</ele>
        <time>2023-08-24T07:00:55.825Z</time>
      </trkpt>
      <trkpt lat="43.73518" lon="1.5297">
        <ele>146.16</ele>
        <time>2023-08-24T07:00:56.797Z</time>
      </trkpt>
      <trkpt lat="43.73525" lon="1.52971">
        <ele>146.13</ele>
        <time>2023-08-24T07:00:57.812Z</time>
      </trkpt>
      <trkpt lat="43.73532" lon="1.52971">
        <ele>146.1</ele>
        <time>2023-08-24T07:00:58.807Z</time>
      </trkpt>
      <trkpt lat="43.73544" lon="1.52972">
        <ele>146.09</ele>
        <time>2023-08-24T07:01:01.213Z</time>
      </trkpt>
      <trkpt lat="43.7355" lon="1.52972">
        <ele>146.08</ele>
        <time>2023-08-24T07:01:01.793Z</time>
      </trkpt>
      <trkpt lat="43.73556" lon="1.52972">
        <ele>146.11</ele>
        <time>2023-08-24T07:01:02.815Z</time>
      </trkpt>
      <trkpt lat="43.73562" lon="1.52972">
        <ele>146.07</ele>
        <time>2023-08-24T07:01:03.949Z</time>
      </trkpt>
      <trkpt lat="43.73568" lon="1.52973">
        <ele>146.11</ele>
        <time>2023-08-24T07:01:05.202Z</time>
      </trkpt>
      <trkpt lat="43.73574" lon="1.52973">
        <ele>146.09</ele>
        <time>2023-08-24T07:01:06.048Z</time>
      </trkpt>
      <trkpt lat="43.73579" lon="1.52974">
        <ele>146.13</ele>
        <time>2023-08-24T07:01:06.949Z</time>
      </trkpt>
      <trkpt lat="43.73591" lon="1.52977">
        <ele>146.2</ele>
        <time>2023-08-24T07:01:09.271Z</time>
      </trkpt>
      <trkpt lat="43.73597" lon="1.52977">
        <ele>146.47</ele>
        <time>2023-08-24T07:01:09.930Z</time>
      </trkpt>
      <trkpt lat="43.73602" lon="1.52978">
        <ele>146.64</ele>
        <time>2023-08-24T07:01:11.095Z</time>
      </trkpt>
      <trkpt lat="43.73608" lon="1.52979">
        <ele>146.82</ele>
        <time>2023-08-24T07:01:12.102Z</time>
      </trkpt>
      <trkpt lat="43.73613" lon="1.52979">
        <ele>147</ele>
        <time>2023-08-24T07:01:12.981Z</time>
      </trkpt>
      <trkpt lat="43.73618" lon="1.5298">
        <ele>147.08</ele>
        <time>2023-08-24T07:01:14.148Z</time>
      </trkpt>
      <trkpt lat="43.73624" lon="1.52981">
        <ele>147.15</ele>
        <time>2023-08-24T07:01:15.194Z</time>
      </trkpt>
      <trkpt lat="43.73631" lon="1.52982">
        <ele>147.22</ele>
        <time>2023-08-24T07:01:15.984Z</time>
      </trkpt>
      <trkpt lat="43.73636" lon="1.52984">
        <ele>147.31</ele>
        <time>2023-08-24T07:01:17.189Z</time>
      </trkpt>
      <trkpt lat="43.73641" lon="1.52986">
        <ele>147.37</ele>
        <time>2023-08-24T07:01:18.009Z</time>
      </trkpt>
      <trkpt lat="43.73646" lon="1.52988">
        <ele>147.47</ele>
        <time>2023-08-24T07:01:18.966Z</time>
      </trkpt>
      <trkpt lat="43.73652" lon="1.52991">
        <ele>147.63</ele>
        <time>2023-08-24T07:01:20.081Z</time>
      </trkpt>
      <trkpt lat="43.73658" lon="1.52993">
        <ele>147.7</ele>
        <time>2023-08-24T07:01:21.127Z</time>
      </trkpt>
      <trkpt lat="43.73663" lon="1.52995">
        <ele>147.78</ele>
        <time>2023-08-24T07:01:22.150Z</time>
      </trkpt>
      <trkpt lat="43.73668" lon="1.52996">
        <ele>147.92</ele>
        <time>2023-08-24T07:01:23.037Z</time>
      </trkpt>
      <trkpt lat="43.73674" lon="1.52998">
        <ele>148.05</ele>
        <time>2023-08-24T07:01:24.139Z</time>
      </trkpt>
      <trkpt lat="43.73678" lon="1.53">
        <ele>148.13</ele>
        <time>2023-08-24T07:01:25.230Z</time>
      </trkpt>
      <trkpt lat="43.73683" lon="1.53002">
        <ele>148.29001</ele>
        <time>2023-08-24T07:01:25.984Z</time>
      </trkpt>
      <trkpt lat="43.73688" lon="1.53003">
        <ele>148.38</ele>
        <time>2023-08-24T07:01:26.977Z</time>
      </trkpt>
      <trkpt lat="43.73693" lon="1.53005">
        <ele>148.44</ele>
        <time>2023-08-24T07:01:28.086Z</time>
      </trkpt>
      <trkpt lat="43.73699" lon="1.53006">
        <ele>148.45999</ele>
        <time>2023-08-24T07:01:28.985Z</time>
      </trkpt>
      <trkpt lat="43.73704" lon="1.53008">
        <ele>148.45</ele>
        <time>2023-08-24T07:01:29.975Z</time>
      </trkpt>
      <trkpt lat="43.73709" lon="1.5301">
        <ele>148.44</ele>
        <time>2023-08-24T07:01:31.039Z</time>
      </trkpt>
      <trkpt lat="43.73714" lon="1.53012">
        <ele>148.5</ele>
        <time>2023-08-24T07:01:32.058Z</time>
      </trkpt>
      <trkpt lat="43.7372" lon="1.53014">
        <ele>148.54001</ele>
        <time>2023-08-24T07:01:33.106Z</time>
      </trkpt>
      <trkpt lat="43.73726" lon="1.53016">
        <ele>148.55</ele>
        <time>2023-08-24T07:01:34.169Z</time>
      </trkpt>
      <trkpt lat="43.73731" lon="1.53018">
        <ele>148.61</ele>
        <time>2023-08-24T07:01:34.493Z</time>
      </trkpt>
      <trkpt lat="43.73736" lon="1.53021">
        <ele>148.64</ele>
        <time>2023-08-24T07:01:36.025Z</time>
      </trkpt>
      <trkpt lat="43.73742" lon="1.53024">
        <ele>148.7</ele>
        <time>2023-08-24T07:01:36.991Z</time>
      </trkpt>
      <trkpt lat="43.73747" lon="1.53027">
        <ele>148.76001</ele>
        <time>2023-08-24T07:01:38.294Z</time>
      </trkpt>
      <trkpt lat="43.73752" lon="1.5303">
        <ele>148.82</ele>
        <time>2023-08-24T07:01:39.311Z</time>
      </trkpt>
      <trkpt lat="43.73757" lon="1.53034">
        <ele>148.87</ele>
        <time>2023-08-24T07:01:39.980Z</time>
      </trkpt>
      <trkpt lat="43.73762" lon="1.53038">
        <ele>148.98001</ele>
        <time>2023-08-24T07:01:41.324Z</time>
      </trkpt>
      <trkpt lat="43.73766" lon="1.53041">
        <ele>149.04001</ele>
        <time>2023-08-24T07:01:41.999Z</time>
      </trkpt>
      <trkpt lat="43.73771" lon="1.53046">
        <ele>149.11</ele>
        <time>2023-08-24T07:01:43.016Z</time>
      </trkpt>
      <trkpt lat="43.73775" lon="1.5305">
        <ele>149.15</ele>
        <time>2023-08-24T07:01:44.349Z</time>
      </trkpt>
      <trkpt lat="43.73779" lon="1.53054">
        <ele>149.20999</ele>
        <time>2023-08-24T07:01:45.223Z</time>
      </trkpt>
      <trkpt lat="43.73785" lon="1.53059">
        <ele>149.25</ele>
        <time>2023-08-24T07:01:46.353Z</time>
      </trkpt>
      <trkpt lat="43.73788" lon="1.53064">
        <ele>149.33</ele>
        <time>2023-08-24T07:01:47.313Z</time>
      </trkpt>
      <trkpt lat="43.73793" lon="1.53068">
        <ele>149.37</ele>
        <time>2023-08-24T07:01:48.014Z</time>
      </trkpt>
      <trkpt lat="43.73796" lon="1.53072">
        <ele>149.44</ele>
        <time>2023-08-24T07:01:49.118Z</time>
      </trkpt>
      <trkpt lat="43.738" lon="1.53077">
        <ele>149.47</ele>
        <time>2023-08-24T07:01:49.993Z</time>
      </trkpt>
      <trkpt lat="43.73805" lon="1.53082">
        <ele>149.61</ele>
        <time>2023-08-24T07:01:51.040Z</time>
      </trkpt>
      <trkpt lat="43.73809" lon="1.53086">
        <ele>149.69</ele>
        <time>2023-08-24T07:01:52.244Z</time>
      </trkpt>
      <trkpt lat="43.73814" lon="1.5309">
        <ele>149.83</ele>
        <time>2023-08-24T07:01:52.995Z</time>
      </trkpt>
      <trkpt lat="43.73819" lon="1.53094">
        <ele>149.91</ele>
        <time>2023-08-24T07:01:54.191Z</time>
      </trkpt>
      <trkpt lat="43.73824" lon="1.53097">
        <ele>150.01001</ele>
        <time>2023-08-24T07:01:55.171Z</time>
      </trkpt>
      <trkpt lat="43.73828" lon="1.531">
        <ele>150.09</ele>
        <time>2023-08-24T07:01:56.341Z</time>
      </trkpt>
      <trkpt lat="43.73833" lon="1.53103">
        <ele>150.15</ele>
        <time>2023-08-24T07:01:57.121Z</time>
      </trkpt>
      <trkpt lat="43.73838" lon="1.53105">
        <ele>150.26001</ele>
        <time>2023-08-24T07:01:58.357Z</time>
      </trkpt>
      <trkpt lat="43.73842" lon="1.53107">
        <ele>150.33</ele>
        <time>2023-08-24T07:01:59.092Z</time>
      </trkpt>
      <trkpt lat="43.73846" lon="1.53109">
        <ele>150.47</ele>
        <time>2023-08-24T07:02:00.221Z</time>
      </trkpt>
      <trkpt lat="43.73851" lon="1.53111">
        <ele>150.6</ele>
        <time>2023-08-24T07:02:01.045Z</time>
      </trkpt>
      <trkpt lat="43.73857" lon="1.53113">
        <ele>150.72</ele>
        <time>2023-08-24T07:02:02.227Z</time>
      </trkpt>
      <trkpt lat="43.73863" lon="1.53115">
        <ele>150.78</ele>
        <time>2023-08-24T07:02:03.155Z</time>
      </trkpt>
      <trkpt lat="43.73868" lon="1.53117">
        <ele>150.92</ele>
        <time>2023-08-24T07:02:04.323Z</time>
      </trkpt>
      <trkpt lat="43.7387" lon="1.53117">
        <ele>151.06</ele>
        <time>2023-08-24T07:02:05.321Z</time>
      </trkpt>
      <trkpt lat="43.73875" lon="1.53119">
        <ele>151.20999</ele>
        <time>2023-08-24T07:02:06.320Z</time>
      </trkpt>
      <trkpt lat="43.73878" lon="1.5312">
        <ele>151.38</ele>
        <time>2023-08-24T07:02:07.332Z</time>
      </trkpt>
      <trkpt lat="43.73882" lon="1.53121">
        <ele>151.63</ele>
        <time>2023-08-24T07:02:08.001Z</time>
      </trkpt>
      <trkpt lat="43.73885" lon="1.53122">
        <ele>151.87</ele>
        <time>2023-08-24T07:02:09.036Z</time>
      </trkpt>
      <trkpt lat="43.73887" lon="1.53122">
        <ele>152.25</ele>
        <time>2023-08-24T07:02:09.921Z</time>
      </trkpt>
      <trkpt lat="43.73894" lon="1.53124">
        <ele>152.65</ele>
        <time>2023-08-24T07:02:12.218Z</time>
      </trkpt>
      <trkpt lat="43.73897" lon="1.53126">
        <ele>153.38</ele>
        <time>2023-08-24T07:02:13.301Z</time>
      </trkpt>
      <trkpt lat="43.739" lon="1.53127">
        <ele>153.84</ele>
        <time>2023-08-24T07:02:14.236Z</time>
      </trkpt>
      <trkpt lat="43.73902" lon="1.53128">
        <ele>154.23999</ele>
        <time>2023-08-24T07:02:15.256Z</time>
      </trkpt>
      <trkpt lat="43.73904" lon="1.53129">
        <ele>154.66</ele>
        <time>2023-08-24T07:02:17.235Z</time>
      </trkpt>
      <trkpt lat="43.73907" lon="1.53131">
        <ele>155.11</ele>
        <time>2023-08-24T07:02:18.010Z</time>
      </trkpt>
      <trkpt lat="43.7391" lon="1.53132">
        <ele>155.51999</ele>
        <time>2023-08-24T07:02:19.227Z</time>
      </trkpt>
      <trkpt lat="43.73911" lon="1.53132">
        <ele>155.89</ele>
        <time>2023-08-24T07:02:20.217Z</time>
      </trkpt>
      <trkpt lat="43.73915" lon="1.53134">
        <ele>156.23001</ele>
        <time>2023-08-24T07:02:20.981Z</time>
      </trkpt>
      <trkpt lat="43.73918" lon="1.53135">
        <ele>156.51999</ele>
        <time>2023-08-24T07:02:23.142Z</time>
      </trkpt>
      <trkpt lat="43.7392" lon="1.53136">
        <ele>156.91</ele>
        <time>2023-08-24T07:02:24.270Z</time>
      </trkpt>
      <trkpt lat="43.73922" lon="1.53137">
        <ele>157.31</ele>
        <time>2023-08-24T07:02:25.242Z</time>
      </trkpt>
      <trkpt lat="43.73924" lon="1.53138">
        <ele>157.64</ele>
        <time>2023-08-24T07:02:26Z</time>
      </trkpt>
      <trkpt lat="43.73927" lon="1.53139">
        <ele>157.94</ele>
        <time>2023-08-24T07:02:27.292Z</time>
      </trkpt>
      <trkpt lat="43.73929" lon="1.5314">
        <ele>158.33</ele>
        <time>2023-08-24T07:02:29.056Z</time>
      </trkpt>
      <trkpt lat="43.73932" lon="1.53141">
        <ele>158.70999</ele>
        <time>2023-08-24T07:02:30.078Z</time>
      </trkpt>
      <trkpt lat="43.73933" lon="1.53142">
        <ele>159.09</ele>
        <time>2023-08-24T07:02:31.301Z</time>
      </trkpt>
      <trkpt lat="43.73935" lon="1.53143">
        <ele>159.44</ele>
        <time>2023-08-24T07:02:32.051Z</time>
      </trkpt>
      <trkpt lat="43.73937" lon="1.53143">
        <ele>159.81</ele>
        <time>2023-08-24T07:02:33.025Z</time>
      </trkpt>
      <trkpt lat="43.73941" lon="1.53145">
        <ele>160.25</ele>
        <time>2023-08-24T07:02:36.316Z</time>
      </trkpt>
      <trkpt lat="43.73944" lon="1.53145">
        <ele>160.86</ele>
        <time>2023-08-24T07:02:37.063Z</time>
      </trkpt>
      <trkpt lat="43.73948" lon="1.53147">
        <ele>161.8</ele>
        <time>2023-08-24T07:02:39.071Z</time>
      </trkpt>
      <trkpt lat="43.7395" lon="1.53147">
        <ele>162.22</ele>
        <time>2023-08-24T07:02:41.158Z</time>
      </trkpt>
      <trkpt lat="43.73952" lon="1.53148">
        <ele>162.62</ele>
        <time>2023-08-24T07:02:42.481Z</time>
      </trkpt>
      <trkpt lat="43.73954" lon="1.53149">
        <ele>163.35</ele>
        <time>2023-08-24T07:02:44.306Z</time>
      </trkpt>
      <trkpt lat="43.73956" lon="1.53149">
        <ele>163.78</ele>
        <time>2023-08-24T07:02:45.409Z</time>
      </trkpt>
      <trkpt lat="43.73957" lon="1.5315">
        <ele>164.18</ele>
        <time>2023-08-24T07:02:46.021Z</time>
      </trkpt>
      <trkpt lat="43.73959" lon="1.5315">
        <ele>164.6</ele>
        <time>2023-08-24T07:02:47.405Z</time>
      </trkpt>
      <trkpt lat="43.73961" lon="1.53151">
        <ele>164.97</ele>
        <time>2023-08-24T07:02:48.170Z</time>
      </trkpt>
      <trkpt lat="43.73965" lon="1.53152">
        <ele>165.32</ele>
        <time>2023-08-24T07:02:50.067Z</time>
      </trkpt>
      <trkpt lat="43.73967" lon="1.53153">
        <ele>165.81</ele>
        <time>2023-08-24T07:02:50.937Z</time>
      </trkpt>
      <trkpt lat="43.73969" lon="1.53154">
        <ele>166.05</ele>
        <time>2023-08-24T07:02:53.305Z</time>
      </trkpt>
      <trkpt lat="43.7397" lon="1.53154">
        <ele>166.43</ele>
        <time>2023-08-24T07:02:54.352Z</time>
      </trkpt>
      <trkpt lat="43.73974" lon="1.53155">
        <ele>166.76999</ele>
        <time>2023-08-24T07:02:54.512Z</time>
      </trkpt>
      <trkpt lat="43.73976" lon="1.53156">
        <ele>167.26999</ele>
        <time>2023-08-24T07:02:56.035Z</time>
      </trkpt>
      <trkpt lat="43.73979" lon="1.53157">
        <ele>167.53</ele>
        <time>2023-08-24T07:02:57.509Z</time>
      </trkpt>
      <trkpt lat="43.73981" lon="1.53158">
        <ele>167.89</ele>
        <time>2023-08-24T07:03:00.346Z</time>
      </trkpt>
      <trkpt lat="43.73986" lon="1.53159">
        <ele>168.72</ele>
        <time>2023-08-24T07:03:02.046Z</time>
      </trkpt>
      <trkpt lat="43.73987" lon="1.53159">
        <ele>168.98999</ele>
        <time>2023-08-24T07:03:03.325Z</time>
      </trkpt>
      <trkpt lat="43.7399" lon="1.5316">
        <ele>169.34</ele>
        <time>2023-08-24T07:03:05.258Z</time>
      </trkpt>
      <trkpt lat="43.73991" lon="1.5316">
        <ele>169.92</ele>
        <time>2023-08-24T07:03:05.686Z</time>
      </trkpt>
      <trkpt lat="43.73994" lon="1.53161">
        <ele>170.31</ele>
        <time>2023-08-24T07:03:08.402Z</time>
      </trkpt>
      <trkpt lat="43.73997" lon="1.53161">
        <ele>171.16</ele>
        <time>2023-08-24T07:03:09.516Z</time>
      </trkpt>
      <trkpt lat="43.73998" lon="1.53162">
        <ele>171.58</ele>
        <time>2023-08-24T07:03:11.433Z</time>
      </trkpt>
      <trkpt lat="43.74" lon="1.53162">
        <ele>171.92</ele>
        <time>2023-08-24T07:03:11.505Z</time>
      </trkpt>
      <trkpt lat="43.74007" lon="1.53163">
        <ele>172.63</ele>
        <time>2023-08-24T07:03:15.475Z</time>
      </trkpt>
      <trkpt lat="43.74008" lon="1.53163">
        <ele>173.25</ele>
        <time>2023-08-24T07:03:16.490Z</time>
      </trkpt>
      <trkpt lat="43.74009" lon="1.53163">
        <ele>173.68</ele>
        <time>2023-08-24T07:03:17.021Z</time>
      </trkpt>
      <trkpt lat="43.74012" lon="1.53163">
        <ele>173.68</ele>
        <time>2023-08-24T07:03:19.372Z</time>
      </trkpt>
      <trkpt lat="43.74014" lon="1.53164">
        <ele>174.93</ele>
        <time>2023-08-24T07:03:21.441Z</time>
      </trkpt>
      <trkpt lat="43.74016" lon="1.53164">
        <ele>175.4</ele>
        <time>2023-08-24T07:03:22.069Z</time>
      </trkpt>
      <trkpt lat="43.74018" lon="1.53164">
        <ele>175.76001</ele>
        <time>2023-08-24T07:03:23.475Z</time>
      </trkpt>
      <trkpt lat="43.74022" lon="1.53165">
        <ele>176.15</ele>
        <time>2023-08-24T07:03:25.479Z</time>
      </trkpt>
      <trkpt lat="43.74023" lon="1.53165">
        <ele>176.70999</ele>
        <time>2023-08-24T07:03:26.036Z</time>
      </trkpt>
      <trkpt lat="43.74028" lon="1.53166">
        <ele>177.44</ele>
        <time>2023-08-24T07:03:28.341Z</time>
      </trkpt>
      <trkpt lat="43.74029" lon="1.53167">
        <ele>177.73001</ele>
        <time>2023-08-24T07:03:29.451Z</time>
      </trkpt>
      <trkpt lat="43.74031" lon="1.53167">
        <ele>177.93</ele>
        <time>2023-08-24T07:03:31.034Z</time>
      </trkpt>
      <trkpt lat="43.74036" lon="1.53168">
        <ele>178.57</ele>
        <time>2023-08-24T07:03:33.076Z</time>
      </trkpt>
      <trkpt lat="43.7404" lon="1.5317">
        <ele>179.04001</ele>
        <time>2023-08-24T07:03:36.048Z</time>
      </trkpt>
      <trkpt lat="43.74044" lon="1.5317">
        <ele>179.72</ele>
        <time>2023-08-24T07:03:38.072Z</time>
      </trkpt>
      <trkpt lat="43.74045" lon="1.53171">
        <ele>180</ele>
        <time>2023-08-24T07:03:39.040Z</time>
      </trkpt>
      <trkpt lat="43.74051" lon="1.53172">
        <ele>180.5</ele>
        <time>2023-08-24T07:03:41.160Z</time>
      </trkpt>
      <trkpt lat="43.74052" lon="1.53172">
        <ele>180.85</ele>
        <time>2023-08-24T07:03:43.066Z</time>
      </trkpt>
      <trkpt lat="43.74053" lon="1.53172">
        <ele>181.12</ele>
        <time>2023-08-24T07:03:44.048Z</time>
      </trkpt>
      <trkpt lat="43.74055" lon="1.53173">
        <ele>181.3</ele>
        <time>2023-08-24T07:03:45.043Z</time>
      </trkpt>
      <trkpt lat="43.74057" lon="1.53173">
        <ele>181.53</ele>
        <time>2023-08-24T07:03:46.053Z</time>
      </trkpt>
      <trkpt lat="43.74059" lon="1.53174">
        <ele>181.76001</ele>
        <time>2023-08-24T07:03:47.414Z</time>
      </trkpt>
      <trkpt lat="43.74061" lon="1.53175">
        <ele>181.98001</ele>
        <time>2023-08-24T07:03:49.049Z</time>
      </trkpt>
      <trkpt lat="43.74063" lon="1.53175">
        <ele>182.2</ele>
        <time>2023-08-24T07:03:50.070Z</time>
      </trkpt>
      <trkpt lat="43.74065" lon="1.53176">
        <ele>182.45999</ele>
        <time>2023-08-24T07:03:51.058Z</time>
      </trkpt>
      <trkpt lat="43.74067" lon="1.53177">
        <ele>182.66</ele>
        <time>2023-08-24T07:03:51.590Z</time>
      </trkpt>
      <trkpt lat="43.74068" lon="1.53178">
        <ele>182.91</ele>
        <time>2023-08-24T07:03:53.053Z</time>
      </trkpt>
      <trkpt lat="43.74072" lon="1.53179">
        <ele>183.18</ele>
        <time>2023-08-24T07:03:55.058Z</time>
      </trkpt>
      <trkpt lat="43.74073" lon="1.53181">
        <ele>183.6</ele>
        <time>2023-08-24T07:03:56.076Z</time>
      </trkpt>
      <trkpt lat="43.74075" lon="1.53182">
        <ele>183.89</ele>
        <time>2023-08-24T07:03:57.068Z</time>
      </trkpt>
      <trkpt lat="43.74077" lon="1.53183">
        <ele>184.14</ele>
        <time>2023-08-24T07:03:59.483Z</time>
      </trkpt>
      <trkpt lat="43.74078" lon="1.53183">
        <ele>184.47</ele>
        <time>2023-08-24T07:04:00.547Z</time>
      </trkpt>
      <trkpt lat="43.74083" lon="1.53187">
        <ele>185.08</ele>
        <time>2023-08-24T07:04:02.398Z</time>
      </trkpt>
      <trkpt lat="43.74088" lon="1.53191">
        <ele>185.70999</ele>
        <time>2023-08-24T07:04:05.060Z</time>
      </trkpt>
      <trkpt lat="43.7409" lon="1.53193">
        <ele>186.36</ele>
        <time>2023-08-24T07:04:07.518Z</time>
      </trkpt>
      <trkpt lat="43.74091" lon="1.53194">
        <ele>186.68</ele>
        <time>2023-08-24T07:04:08.547Z</time>
      </trkpt>
      <trkpt lat="43.74092" lon="1.53195">
        <ele>186.92</ele>
        <time>2023-08-24T07:04:08.618Z</time>
      </trkpt>
      <trkpt lat="43.74094" lon="1.53197">
        <ele>187.19</ele>
        <time>2023-08-24T07:04:10.076Z</time>
      </trkpt>
      <trkpt lat="43.74096" lon="1.53199">
        <ele>187.43</ele>
        <time>2023-08-24T07:04:11.542Z</time>
      </trkpt>
      <trkpt lat="43.74098" lon="1.53201">
        <ele>187.64</ele>
        <time>2023-08-24T07:04:12.508Z</time>
      </trkpt>
      <trkpt lat="43.741" lon="1.53203">
        <ele>187.84</ele>
        <time>2023-08-24T07:04:13.712Z</time>
      </trkpt>
      <trkpt lat="43.74102" lon="1.53204">
        <ele>188.05</ele>
        <time>2023-08-24T07:04:15.566Z</time>
      </trkpt>
      <trkpt lat="43.74104" lon="1.53207">
        <ele>188.26001</ele>
        <time>2023-08-24T07:04:15.661Z</time>
      </trkpt>
      <trkpt lat="43.74106" lon="1.53209">
        <ele>188.48999</ele>
        <time>2023-08-24T07:04:18.566Z</time>
      </trkpt>
      <trkpt lat="43.74108" lon="1.5321">
        <ele>188.66</ele>
        <time>2023-08-24T07:04:19.517Z</time>
      </trkpt>
      <trkpt lat="43.7411" lon="1.53212">
        <ele>188.91</ele>
        <time>2023-08-24T07:04:20.573Z</time>
      </trkpt>
      <trkpt lat="43.74113" lon="1.53214">
        <ele>189.14</ele>
        <time>2023-08-24T07:04:21.414Z</time>
      </trkpt>
      <trkpt lat="43.74114" lon="1.53216">
        <ele>189.4</ele>
        <time>2023-08-24T07:04:22.191Z</time>
      </trkpt>
      <trkpt lat="43.74116" lon="1.53217">
        <ele>189.57</ele>
        <time>2023-08-24T07:04:23.575Z</time>
      </trkpt>
      <trkpt lat="43.74118" lon="1.53219">
        <ele>189.78</ele>
        <time>2023-08-24T07:04:24.230Z</time>
      </trkpt>
      <trkpt lat="43.7412" lon="1.5322">
        <ele>190.04001</ele>
        <time>2023-08-24T07:04:26.548Z</time>
      </trkpt>
      <trkpt lat="43.74123" lon="1.53222">
        <ele>190.3</ele>
        <time>2023-08-24T07:04:27.523Z</time>
      </trkpt>
      <trkpt lat="43.74125" lon="1.53224">
        <ele>190.59</ele>
        <time>2023-08-24T07:04:28.565Z</time>
      </trkpt>
      <trkpt lat="43.74127" lon="1.53225">
        <ele>190.85</ele>
        <time>2023-08-24T07:04:28.675Z</time>
      </trkpt>
      <trkpt lat="43.74129" lon="1.53226">
        <ele>191.05</ele>
        <time>2023-08-24T07:04:30.087Z</time>
      </trkpt>
      <trkpt lat="43.74131" lon="1.53226">
        <ele>191.33</ele>
        <time>2023-08-24T07:04:31.556Z</time>
      </trkpt>
      <trkpt lat="43.74134" lon="1.53227">
        <ele>191.57</ele>
        <time>2023-08-24T07:04:33.589Z</time>
      </trkpt>
      <trkpt lat="43.74136" lon="1.53227">
        <ele>191.95</ele>
        <time>2023-08-24T07:04:34.368Z</time>
      </trkpt>
      <trkpt lat="43.74139" lon="1.53227">
        <ele>192.23001</ele>
        <time>2023-08-24T07:04:35.504Z</time>
      </trkpt>
      <trkpt lat="43.74141" lon="1.53228">
        <ele>192.51999</ele>
        <time>2023-08-24T07:04:35.684Z</time>
      </trkpt>
      <trkpt lat="43.74143" lon="1.53228">
        <ele>192.64</ele>
        <time>2023-08-24T07:04:37.501Z</time>
      </trkpt>
      <trkpt lat="43.74146" lon="1.53229">
        <ele>192.81</ele>
        <time>2023-08-24T07:04:39.526Z</time>
      </trkpt>
      <trkpt lat="43.7415" lon="1.53229">
        <ele>192.98999</ele>
        <time>2023-08-24T07:04:40.437Z</time>
      </trkpt>
      <trkpt lat="43.74152" lon="1.5323">
        <ele>193.45</ele>
        <time>2023-08-24T07:04:42.453Z</time>
      </trkpt>
      <trkpt lat="43.74154" lon="1.5323">
        <ele>193.72</ele>
        <time>2023-08-24T07:04:43.588Z</time>
      </trkpt>
      <trkpt lat="43.74157" lon="1.5323">
        <ele>194.03</ele>
        <time>2023-08-24T07:04:44.585Z</time>
      </trkpt>
      <trkpt lat="43.74161" lon="1.5323">
        <ele>194.38</ele>
        <time>2023-08-24T07:04:46.554Z</time>
      </trkpt>
      <trkpt lat="43.74163" lon="1.53231">
        <ele>195.13</ele>
        <time>2023-08-24T07:04:46.677Z</time>
      </trkpt>
      <trkpt lat="43.74166" lon="1.53231">
        <ele>195.53</ele>
        <time>2023-08-24T07:04:49.446Z</time>
      </trkpt>
      <trkpt lat="43.74168" lon="1.53231">
        <ele>195.93</ele>
        <time>2023-08-24T07:04:49.689Z</time>
      </trkpt>
      <trkpt lat="43.7417" lon="1.53231">
        <ele>196.32</ele>
        <time>2023-08-24T07:04:50.706Z</time>
      </trkpt>
      <trkpt lat="43.74173" lon="1.53232">
        <ele>196.73999</ele>
        <time>2023-08-24T07:04:51.672Z</time>
      </trkpt>
      <trkpt lat="43.74175" lon="1.53232">
        <ele>197.20999</ele>
        <time>2023-08-24T07:04:53.490Z</time>
      </trkpt>
      <trkpt lat="43.74178" lon="1.53232">
        <ele>197.62</ele>
        <time>2023-08-24T07:04:54.697Z</time>
      </trkpt>
      <trkpt lat="43.74183" lon="1.53233">
        <ele>198.45</ele>
        <time>2023-08-24T07:04:56.693Z</time>
      </trkpt>
      <trkpt lat="43.74187" lon="1.53234">
        <ele>198.78</ele>
        <time>2023-08-24T07:04:57.683Z</time>
      </trkpt>
      <trkpt lat="43.74188" lon="1.53234">
        <ele>199.17</ele>
        <time>2023-08-24T07:04:59.665Z</time>
      </trkpt>
      <trkpt lat="43.74189" lon="1.53234">
        <ele>199.48001</ele>
        <time>2023-08-24T07:05:00.663Z</time>
      </trkpt>
      <trkpt lat="43.74192" lon="1.53235">
        <ele>199.76999</ele>
        <time>2023-08-24T07:05:02.615Z</time>
      </trkpt>
      <trkpt lat="43.74194" lon="1.53236">
        <ele>200.09</ele>
        <time>2023-08-24T07:05:03.490Z</time>
      </trkpt>
      <trkpt lat="43.74197" lon="1.53237">
        <ele>200.41</ele>
        <time>2023-08-24T07:05:04.669Z</time>
      </trkpt>
      <trkpt lat="43.74202" lon="1.5324">
        <ele>200.7</ele>
        <time>2023-08-24T07:05:05.692Z</time>
      </trkpt>
      <trkpt lat="43.74204" lon="1.53241">
        <ele>201.11</ele>
        <time>2023-08-24T07:05:08.615Z</time>
      </trkpt>
      <trkpt lat="43.74206" lon="1.53243">
        <ele>201.23999</ele>
        <time>2023-08-24T07:05:09.351Z</time>
      </trkpt>
      <trkpt lat="43.7421" lon="1.53247">
        <ele>201.34</ele>
        <time>2023-08-24T07:05:09.655Z</time>
      </trkpt>
      <trkpt lat="43.74214" lon="1.5325">
        <ele>201.38</ele>
        <time>2023-08-24T07:05:10.685Z</time>
      </trkpt>
      <trkpt lat="43.74224" lon="1.53259">
        <ele>201.31</ele>
        <time>2023-08-24T07:05:12.699Z</time>
      </trkpt>
      <trkpt lat="43.74227" lon="1.53262">
        <ele>201.20999</ele>
        <time>2023-08-24T07:05:14.648Z</time>
      </trkpt>
      <trkpt lat="43.74231" lon="1.53265">
        <ele>201.13</ele>
        <time>2023-08-24T07:05:15.615Z</time>
      </trkpt>
      <trkpt lat="43.74237" lon="1.5327">
        <ele>201</ele>
        <time>2023-08-24T07:05:15.689Z</time>
      </trkpt>
      <trkpt lat="43.7424" lon="1.53274">
        <ele>200.83</ele>
        <time>2023-08-24T07:05:16.671Z</time>
      </trkpt>
      <trkpt lat="43.74245" lon="1.53278">
        <ele>200.65</ele>
        <time>2023-08-24T07:05:17.673Z</time>
      </trkpt>
      <trkpt lat="43.74249" lon="1.5328">
        <ele>200.56</ele>
        <time>2023-08-24T07:05:19.653Z</time>
      </trkpt>
      <trkpt lat="43.74255" lon="1.53286">
        <ele>200.43</ele>
        <time>2023-08-24T07:05:19.664Z</time>
      </trkpt>
      <trkpt lat="43.7426" lon="1.53289">
        <ele>200.36</ele>
        <time>2023-08-24T07:05:20.698Z</time>
      </trkpt>
      <trkpt lat="43.74265" lon="1.53292">
        <ele>200.29001</ele>
        <time>2023-08-24T07:05:22.649Z</time>
      </trkpt>
      <trkpt lat="43.74271" lon="1.53295">
        <ele>200.22</ele>
        <time>2023-08-24T07:05:23.622Z</time>
      </trkpt>
      <trkpt lat="43.74275" lon="1.53297">
        <ele>200.15</ele>
        <time>2023-08-24T07:05:24.659Z</time>
      </trkpt>
      <trkpt lat="43.74281" lon="1.533">
        <ele>200.12</ele>
        <time>2023-08-24T07:05:25.099Z</time>
      </trkpt>
      <trkpt lat="43.74285" lon="1.53302">
        <ele>200.13</ele>
        <time>2023-08-24T07:05:25.700Z</time>
      </trkpt>
      <trkpt lat="43.7429" lon="1.53303">
        <ele>200.13</ele>
        <time>2023-08-24T07:05:27.658Z</time>
      </trkpt>
      <trkpt lat="43.74294" lon="1.53305">
        <ele>200.13</ele>
        <time>2023-08-24T07:05:28.620Z</time>
      </trkpt>
      <trkpt lat="43.74299" lon="1.53307">
        <ele>200.18</ele>
        <time>2023-08-24T07:05:29.662Z</time>
      </trkpt>
      <trkpt lat="43.74303" lon="1.53309">
        <ele>200.23001</ele>
        <time>2023-08-24T07:05:30.614Z</time>
      </trkpt>
      <trkpt lat="43.74306" lon="1.53311">
        <ele>200.32</ele>
        <time>2023-08-24T07:05:31.613Z</time>
      </trkpt>
      <trkpt lat="43.7431" lon="1.53313">
        <ele>200.41</ele>
        <time>2023-08-24T07:05:32.614Z</time>
      </trkpt>
      <trkpt lat="43.74313" lon="1.53315">
        <ele>200.5</ele>
        <time>2023-08-24T07:05:33.505Z</time>
      </trkpt>
      <trkpt lat="43.74316" lon="1.53316">
        <ele>200.6</ele>
        <time>2023-08-24T07:05:34.670Z</time>
      </trkpt>
      <trkpt lat="43.74321" lon="1.53319">
        <ele>200.76001</ele>
        <time>2023-08-24T07:05:35.161Z</time>
      </trkpt>
      <trkpt lat="43.74324" lon="1.53321">
        <ele>200.98001</ele>
        <time>2023-08-24T07:05:35.700Z</time>
      </trkpt>
      <trkpt lat="43.74328" lon="1.53323">
        <ele>201.19</ele>
        <time>2023-08-24T07:05:37.679Z</time>
      </trkpt>
      <trkpt lat="43.74332" lon="1.53325">
        <ele>201.45999</ele>
        <time>2023-08-24T07:05:38.701Z</time>
      </trkpt>
      <trkpt lat="43.74336" lon="1.53328">
        <ele>201.73999</ele>
        <time>2023-08-24T07:05:40.320Z</time>
      </trkpt>
      <trkpt lat="43.7434" lon="1.5333">
        <ele>202.01001</ele>
        <time>2023-08-24T07:05:41.399Z</time>
      </trkpt>
      <trkpt lat="43.74343" lon="1.53332">
        <ele>202.13</ele>
        <time>2023-08-24T07:05:42.584Z</time>
      </trkpt>
      <trkpt lat="43.74346" lon="1.53334">
        <ele>202.3</ele>
        <time>2023-08-24T07:05:43.442Z</time>
      </trkpt>
      <trkpt lat="43.74351" lon="1.53337">
        <ele>202.33</ele>
        <time>2023-08-24T07:05:44.482Z</time>
      </trkpt>
      <trkpt lat="43.74355" lon="1.53339">
        <ele>202.35</ele>
        <time>2023-08-24T07:05:45.678Z</time>
      </trkpt>
      <trkpt lat="43.7436" lon="1.53343">
        <ele>202.37</ele>
        <time>2023-08-24T07:05:47.346Z</time>
      </trkpt>
      <trkpt lat="43.74364" lon="1.53345">
        <ele>202.38</ele>
        <time>2023-08-24T07:05:48.644Z</time>
      </trkpt>
      <trkpt lat="43.74369" lon="1.53349">
        <ele>202.36</ele>
        <time>2023-08-24T07:05:49.428Z</time>
      </trkpt>
      <trkpt lat="43.74374" lon="1.53352">
        <ele>202.28</ele>
        <time>2023-08-24T07:05:50.440Z</time>
      </trkpt>
      <trkpt lat="43.74378" lon="1.53354">
        <ele>202.2</ele>
        <time>2023-08-24T07:05:51.541Z</time>
      </trkpt>
      <trkpt lat="43.74384" lon="1.53358">
        <ele>202.09</ele>
        <time>2023-08-24T07:05:52.678Z</time>
      </trkpt>
      <trkpt lat="43.7439" lon="1.53362">
        <ele>202.01001</ele>
        <time>2023-08-24T07:05:53.382Z</time>
      </trkpt>
      <trkpt lat="43.74396" lon="1.53366">
        <ele>201.9</ele>
        <time>2023-08-24T07:05:54.505Z</time>
      </trkpt>
      <trkpt lat="43.74401" lon="1.5337">
        <ele>201.83</ele>
        <time>2023-08-24T07:05:55.683Z</time>
      </trkpt>
      <trkpt lat="43.74407" lon="1.53373">
        <ele>201.79001</ele>
        <time>2023-08-24T07:05:56.706Z</time>
      </trkpt>
      <trkpt lat="43.74412" lon="1.53377">
        <ele>201.72</ele>
        <time>2023-08-24T07:05:57.667Z</time>
      </trkpt>
      <trkpt lat="43.74416" lon="1.5338">
        <ele>201.63</ele>
        <time>2023-08-24T07:05:58.391Z</time>
      </trkpt>
      <trkpt lat="43.74421" lon="1.53384">
        <ele>201.64</ele>
        <time>2023-08-24T07:05:59.450Z</time>
      </trkpt>
      <trkpt lat="43.74426" lon="1.53388">
        <ele>201.64</ele>
        <time>2023-08-24T07:06:00.602Z</time>
      </trkpt>
      <trkpt lat="43.74431" lon="1.53392">
        <ele>201.65</ele>
        <time>2023-08-24T07:06:01.616Z</time>
      </trkpt>
      <trkpt lat="43.74435" lon="1.53396">
        <ele>201.65</ele>
        <time>2023-08-24T07:06:02.491Z</time>
      </trkpt>
      <trkpt lat="43.7444" lon="1.53401">
        <ele>201.66</ele>
        <time>2023-08-24T07:06:03.713Z</time>
      </trkpt>
      <trkpt lat="43.74444" lon="1.53405">
        <ele>201.66</ele>
        <time>2023-08-24T07:06:04.632Z</time>
      </trkpt>
      <trkpt lat="43.74448" lon="1.53409">
        <ele>201.69</ele>
        <time>2023-08-24T07:06:05.429Z</time>
      </trkpt>
      <trkpt lat="43.74453" lon="1.53413">
        <ele>201.7</ele>
        <time>2023-08-24T07:06:06.638Z</time>
      </trkpt>
      <trkpt lat="43.74458" lon="1.53418">
        <ele>201.69</ele>
        <time>2023-08-24T07:06:07.453Z</time>
      </trkpt>
      <trkpt lat="43.74463" lon="1.53423">
        <ele>201.68</ele>
        <time>2023-08-24T07:06:08.679Z</time>
      </trkpt>
      <trkpt lat="43.74466" lon="1.53427">
        <ele>201.63</ele>
        <time>2023-08-24T07:06:09.554Z</time>
      </trkpt>
      <trkpt lat="43.7447" lon="1.5343">
        <ele>201.56</ele>
        <time>2023-08-24T07:06:10.654Z</time>
      </trkpt>
      <trkpt lat="43.74476" lon="1.53437">
        <ele>201.56</ele>
        <time>2023-08-24T07:06:11.452Z</time>
      </trkpt>
      <trkpt lat="43.7448" lon="1.53441">
        <ele>201.56</ele>
        <time>2023-08-24T07:06:12.447Z</time>
      </trkpt>
      <trkpt lat="43.74484" lon="1.53444">
        <ele>201.54001</ele>
        <time>2023-08-24T07:06:13.464Z</time>
      </trkpt>
      <trkpt lat="43.7449" lon="1.5345">
        <ele>201.53</ele>
        <time>2023-08-24T07:06:14.520Z</time>
      </trkpt>
      <trkpt lat="43.74494" lon="1.53454">
        <ele>201.48001</ele>
        <time>2023-08-24T07:06:15.714Z</time>
      </trkpt>
      <trkpt lat="43.74498" lon="1.53459">
        <ele>201.42</ele>
        <time>2023-08-24T07:06:16.240Z</time>
      </trkpt>
      <trkpt lat="43.74501" lon="1.53462">
        <ele>201.45</ele>
        <time>2023-08-24T07:06:17.736Z</time>
      </trkpt>
      <trkpt lat="43.74507" lon="1.53468">
        <ele>201.48999</ele>
        <time>2023-08-24T07:06:18.745Z</time>
      </trkpt>
      <trkpt lat="43.74511" lon="1.53472">
        <ele>201.56</ele>
        <time>2023-08-24T07:06:19.470Z</time>
      </trkpt>
      <trkpt lat="43.74515" lon="1.53477">
        <ele>201.6</ele>
        <time>2023-08-24T07:06:20.739Z</time>
      </trkpt>
      <trkpt lat="43.74519" lon="1.53481">
        <ele>201.69</ele>
        <time>2023-08-24T07:06:21.260Z</time>
      </trkpt>
      <trkpt lat="43.74523" lon="1.53485">
        <ele>201.79001</ele>
        <time>2023-08-24T07:06:22.740Z</time>
      </trkpt>
      <trkpt lat="43.74527" lon="1.53489">
        <ele>201.89</ele>
        <time>2023-08-24T07:06:23.733Z</time>
      </trkpt>
      <trkpt lat="43.7453" lon="1.53492">
        <ele>202</ele>
        <time>2023-08-24T07:06:24.374Z</time>
      </trkpt>
      <trkpt lat="43.74533" lon="1.53496">
        <ele>202.09</ele>
        <time>2023-08-24T07:06:25.423Z</time>
      </trkpt>
      <trkpt lat="43.74538" lon="1.535">
        <ele>202.16</ele>
        <time>2023-08-24T07:06:26.685Z</time>
      </trkpt>
      <trkpt lat="43.74541" lon="1.53503">
        <ele>202.29001</ele>
        <time>2023-08-24T07:06:27.359Z</time>
      </trkpt>
      <trkpt lat="43.74544" lon="1.53507">
        <ele>202.42</ele>
        <time>2023-08-24T07:06:28.521Z</time>
      </trkpt>
      <trkpt lat="43.74548" lon="1.5351">
        <ele>202.51999</ele>
        <time>2023-08-24T07:06:29.568Z</time>
      </trkpt>
      <trkpt lat="43.74551" lon="1.53513">
        <ele>202.63</ele>
        <time>2023-08-24T07:06:30.425Z</time>
      </trkpt>
      <trkpt lat="43.74554" lon="1.53515">
        <ele>202.8</ele>
        <time>2023-08-24T07:06:31.391Z</time>
      </trkpt>
      <trkpt lat="43.74558" lon="1.53518">
        <ele>203.03</ele>
        <time>2023-08-24T07:06:32.623Z</time>
      </trkpt>
      <trkpt lat="43.74561" lon="1.5352">
        <ele>203.22</ele>
        <time>2023-08-24T07:06:33.714Z</time>
      </trkpt>
      <trkpt lat="43.74565" lon="1.53523">
        <ele>203.43</ele>
        <time>2023-08-24T07:06:33.785Z</time>
      </trkpt>
      <trkpt lat="43.74567" lon="1.53523">
        <ele>203.68</ele>
        <time>2023-08-24T07:06:35.425Z</time>
      </trkpt>
      <trkpt lat="43.74572" lon="1.53527">
        <ele>203.97</ele>
        <time>2023-08-24T07:06:35.802Z</time>
      </trkpt>
      <trkpt lat="43.74576" lon="1.53529">
        <ele>204.28</ele>
        <time>2023-08-24T07:06:37.571Z</time>
      </trkpt>
      <trkpt lat="43.74579" lon="1.53531">
        <ele>204.58</ele>
        <time>2023-08-24T07:06:39.713Z</time>
      </trkpt>
      <trkpt lat="43.74583" lon="1.53533">
        <ele>204.76001</ele>
        <time>2023-08-24T07:06:39.828Z</time>
      </trkpt>
      <trkpt lat="43.74587" lon="1.53535">
        <ele>205.07</ele>
        <time>2023-08-24T07:06:41.522Z</time>
      </trkpt>
      <trkpt lat="43.74591" lon="1.53537">
        <ele>205.26999</ele>
        <time>2023-08-24T07:06:42.276Z</time>
      </trkpt>
      <trkpt lat="43.74596" lon="1.53539">
        <ele>205.51001</ele>
        <time>2023-08-24T07:06:43.343Z</time>
      </trkpt>
      <trkpt lat="43.746" lon="1.53541">
        <ele>205.79001</ele>
        <time>2023-08-24T07:06:44.757Z</time>
      </trkpt>
      <trkpt lat="43.74608" lon="1.53546">
        <ele>206.05</ele>
        <time>2023-08-24T07:06:46.715Z</time>
      </trkpt>
      <trkpt lat="43.74612" lon="1.53548">
        <ele>206.48001</ele>
        <time>2023-08-24T07:06:48.359Z</time>
      </trkpt>
      <trkpt lat="43.74615" lon="1.5355">
        <ele>206.67</ele>
        <time>2023-08-24T07:06:49.392Z</time>
      </trkpt>
      <trkpt lat="43.74623" lon="1.53554">
        <ele>206.84</ele>
        <time>2023-08-24T07:06:51.588Z</time>
      </trkpt>
      <trkpt lat="43.74628" lon="1.53556">
        <ele>207.32</ele>
        <time>2023-08-24T07:06:52.766Z</time>
      </trkpt>
      <trkpt lat="43.74631" lon="1.53558">
        <ele>207.56</ele>
        <time>2023-08-24T07:06:54.754Z</time>
      </trkpt>
      <trkpt lat="43.74634" lon="1.5356">
        <ele>207.83</ele>
        <time>2023-08-24T07:06:55.435Z</time>
      </trkpt>
      <trkpt lat="43.74637" lon="1.53562">
        <ele>208.04001</ele>
        <time>2023-08-24T07:06:56.511Z</time>
      </trkpt>
      <trkpt lat="43.7464" lon="1.53565">
        <ele>208.23001</ele>
        <time>2023-08-24T07:06:57.750Z</time>
      </trkpt>
      <trkpt lat="43.74647" lon="1.53569">
        <ele>208.45</ele>
        <time>2023-08-24T07:06:59.719Z</time>
      </trkpt>
      <trkpt lat="43.74649" lon="1.53572">
        <ele>208.82</ele>
        <time>2023-08-24T07:07:00.579Z</time>
      </trkpt>
      <trkpt lat="43.74652" lon="1.53574">
        <ele>209.01</ele>
        <time>2023-08-24T07:07:01.662Z</time>
      </trkpt>
      <trkpt lat="43.74655" lon="1.53577">
        <ele>209.15</ele>
        <time>2023-08-24T07:07:03.541Z</time>
      </trkpt>
      <trkpt lat="43.74658" lon="1.5358">
        <ele>209.27</ele>
        <time>2023-08-24T07:07:04.516Z</time>
      </trkpt>
      <trkpt lat="43.74664" lon="1.53584">
        <ele>209.19</ele>
        <time>2023-08-24T07:07:05.600Z</time>
      </trkpt>
      <trkpt lat="43.74675" lon="1.53589">
        <ele>208.98001</ele>
        <time>2023-08-24T07:07:06.784Z</time>
      </trkpt>
      <trkpt lat="43.74681" lon="1.5359">
        <ele>208.53</ele>
        <time>2023-08-24T07:07:08.713Z</time>
      </trkpt>
      <trkpt lat="43.74688" lon="1.53592">
        <ele>208.19</ele>
        <time>2023-08-24T07:07:09.728Z</time>
      </trkpt>
      <trkpt lat="43.74697" lon="1.53593">
        <ele>207.87</ele>
        <time>2023-08-24T07:07:10.333Z</time>
      </trkpt>
      <trkpt lat="43.74704" lon="1.53593">
        <ele>207.48001</ele>
        <time>2023-08-24T07:07:10.806Z</time>
      </trkpt>
      <trkpt lat="43.74712" lon="1.53594">
        <ele>207.08</ele>
        <time>2023-08-24T07:07:12.348Z</time>
      </trkpt>
      <trkpt lat="43.74719" lon="1.53594">
        <ele>206.75</ele>
        <time>2023-08-24T07:07:13.797Z</time>
      </trkpt>
      <trkpt lat="43.74727" lon="1.53596">
        <ele>206.45999</ele>
        <time>2023-08-24T07:07:14.365Z</time>
      </trkpt>
      <trkpt lat="43.74733" lon="1.53597">
        <ele>206.26001</ele>
        <time>2023-08-24T07:07:15.336Z</time>
      </trkpt>
      <trkpt lat="43.74739" lon="1.53601">
        <ele>205.98999</ele>
        <time>2023-08-24T07:07:16.314Z</time>
      </trkpt>
      <trkpt lat="43.74746" lon="1.53607">
        <ele>205.78</ele>
        <time>2023-08-24T07:07:17.356Z</time>
      </trkpt>
      <trkpt lat="43.74751" lon="1.53613">
        <ele>205.59</ele>
        <time>2023-08-24T07:07:18.801Z</time>
      </trkpt>
      <trkpt lat="43.74755" lon="1.53619">
        <ele>205.44</ele>
        <time>2023-08-24T07:07:19.370Z</time>
      </trkpt>
      <trkpt lat="43.74759" lon="1.53626">
        <ele>205.41</ele>
        <time>2023-08-24T07:07:21.314Z</time>
      </trkpt>
      <trkpt lat="43.74767" lon="1.53642">
        <ele>205.53</ele>
        <time>2023-08-24T07:07:22.369Z</time>
      </trkpt>
      <trkpt lat="43.74769" lon="1.53646">
        <ele>205.61</ele>
        <time>2023-08-24T07:07:23.806Z</time>
      </trkpt>
      <trkpt lat="43.74772" lon="1.5365">
        <ele>205.73999</ele>
        <time>2023-08-24T07:07:24.795Z</time>
      </trkpt>
      <trkpt lat="43.74775" lon="1.53655">
        <ele>205.98999</ele>
        <time>2023-08-24T07:07:25.618Z</time>
      </trkpt>
      <trkpt lat="43.74777" lon="1.53658">
        <ele>206.22</ele>
        <time>2023-08-24T07:07:26.332Z</time>
      </trkpt>
      <trkpt lat="43.74779" lon="1.53661">
        <ele>206.47</ele>
        <time>2023-08-24T07:07:27.781Z</time>
      </trkpt>
      <trkpt lat="43.74782" lon="1.53664">
        <ele>206.78</ele>
        <time>2023-08-24T07:07:28.423Z</time>
      </trkpt>
      <trkpt lat="43.74784" lon="1.53667">
        <ele>207.14</ele>
        <time>2023-08-24T07:07:29.650Z</time>
      </trkpt>
      <trkpt lat="43.74786" lon="1.53669">
        <ele>207.53</ele>
        <time>2023-08-24T07:07:30.635Z</time>
      </trkpt>
      <trkpt lat="43.74788" lon="1.53672">
        <ele>207.85</ele>
        <time>2023-08-24T07:07:31.021Z</time>
      </trkpt>
      <trkpt lat="43.7479" lon="1.53674">
        <ele>208.25</ele>
        <time>2023-08-24T07:07:32.615Z</time>
      </trkpt>
      <trkpt lat="43.74792" lon="1.53677">
        <ele>208.72</ele>
        <time>2023-08-24T07:07:34.805Z</time>
      </trkpt>
      <trkpt lat="43.74794" lon="1.53679">
        <ele>209.2</ele>
        <time>2023-08-24T07:07:35.455Z</time>
      </trkpt>
      <trkpt lat="43.74797" lon="1.53681">
        <ele>209.58</ele>
        <time>2023-08-24T07:07:36.579Z</time>
      </trkpt>
      <trkpt lat="43.74799" lon="1.53683">
        <ele>209.94</ele>
        <time>2023-08-24T07:07:37.666Z</time>
      </trkpt>
      <trkpt lat="43.74804" lon="1.53687">
        <ele>210.31</ele>
        <time>2023-08-24T07:07:38.706Z</time>
      </trkpt>
      <trkpt lat="43.74805" lon="1.53689">
        <ele>210.89</ele>
        <time>2023-08-24T07:07:40.811Z</time>
      </trkpt>
      <trkpt lat="43.74807" lon="1.53691">
        <ele>211.29</ele>
        <time>2023-08-24T07:07:41.767Z</time>
      </trkpt>
      <trkpt lat="43.74808" lon="1.53693">
        <ele>211.77</ele>
        <time>2023-08-24T07:07:42.669Z</time>
      </trkpt>
      <trkpt lat="43.7481" lon="1.53695">
        <ele>212.12</ele>
        <time>2023-08-24T07:07:44.528Z</time>
      </trkpt>
      <trkpt lat="43.74812" lon="1.53697">
        <ele>212.57</ele>
        <time>2023-08-24T07:07:45.638Z</time>
      </trkpt>
      <trkpt lat="43.74814" lon="1.537">
        <ele>212.95</ele>
        <time>2023-08-24T07:07:46.499Z</time>
      </trkpt>
      <trkpt lat="43.74816" lon="1.53702">
        <ele>213.35</ele>
        <time>2023-08-24T07:07:47.778Z</time>
      </trkpt>
      <trkpt lat="43.74817" lon="1.53704">
        <ele>213.7</ele>
        <time>2023-08-24T07:07:48.611Z</time>
      </trkpt>
      <trkpt lat="43.74819" lon="1.53705">
        <ele>213.97</ele>
        <time>2023-08-24T07:07:49.613Z</time>
      </trkpt>
      <trkpt lat="43.74824" lon="1.53711">
        <ele>214.26</ele>
        <time>2023-08-24T07:07:51.656Z</time>
      </trkpt>
      <trkpt lat="43.74826" lon="1.53713">
        <ele>214.71</ele>
        <time>2023-08-24T07:07:52.740Z</time>
      </trkpt>
      <trkpt lat="43.74829" lon="1.53717">
        <ele>215.03</ele>
        <time>2023-08-24T07:07:54.617Z</time>
      </trkpt>
      <trkpt lat="43.74833" lon="1.53721">
        <ele>215.57</ele>
        <time>2023-08-24T07:07:55.821Z</time>
      </trkpt>
      <trkpt lat="43.74835" lon="1.53723">
        <ele>216.23</ele>
        <time>2023-08-24T07:07:57.833Z</time>
      </trkpt>
      <trkpt lat="43.74837" lon="1.53725">
        <ele>216.57</ele>
        <time>2023-08-24T07:07:58.813Z</time>
      </trkpt>
      <trkpt lat="43.7484" lon="1.53727">
        <ele>216.85</ele>
        <time>2023-08-24T07:07:59.437Z</time>
      </trkpt>
      <trkpt lat="43.74842" lon="1.5373">
        <ele>217.1</ele>
        <time>2023-08-24T07:08:00.637Z</time>
      </trkpt>
      <trkpt lat="43.74844" lon="1.53733">
        <ele>217.34</ele>
        <time>2023-08-24T07:08:01.682Z</time>
      </trkpt>
      <trkpt lat="43.74846" lon="1.53735">
        <ele>217.61</ele>
        <time>2023-08-24T07:08:02.749Z</time>
      </trkpt>
      <trkpt lat="43.7485" lon="1.5374">
        <ele>218.06</ele>
        <time>2023-08-24T07:08:04.444Z</time>
      </trkpt>
      <trkpt lat="43.74852" lon="1.53741">
        <ele>218.35</ele>
        <time>2023-08-24T07:08:05.425Z</time>
      </trkpt>
      <trkpt lat="43.74856" lon="1.53742">
        <ele>218.95</ele>
        <time>2023-08-24T07:08:07.422Z</time>
      </trkpt>
      <trkpt lat="43.74857" lon="1.53741">
        <ele>219.23</ele>
        <time>2023-08-24T07:08:08.526Z</time>
      </trkpt>
      <trkpt lat="43.74859" lon="1.53739">
        <ele>219.48</ele>
        <time>2023-08-24T07:08:09.799Z</time>
      </trkpt>
      <trkpt lat="43.74861" lon="1.53736">
        <ele>219.62</ele>
        <time>2023-08-24T07:08:10.700Z</time>
      </trkpt>
      <trkpt lat="43.74862" lon="1.53732">
        <ele>219.78</ele>
        <time>2023-08-24T07:08:11.717Z</time>
      </trkpt>
      <trkpt lat="43.74863" lon="1.53727">
        <ele>219.89</ele>
        <time>2023-08-24T07:08:12.657Z</time>
      </trkpt>
      <trkpt lat="43.74864" lon="1.53721">
        <ele>219.93</ele>
        <time>2023-08-24T07:08:13.837Z</time>
      </trkpt>
      <trkpt lat="43.74865" lon="1.53716">
        <ele>219.95</ele>
        <time>2023-08-24T07:08:14.655Z</time>
      </trkpt>
      <trkpt lat="43.74866" lon="1.5371">
        <ele>219.98</ele>
        <time>2023-08-24T07:08:15.587Z</time>
      </trkpt>
      <trkpt lat="43.74868" lon="1.53704">
        <ele>219.97</ele>
        <time>2023-08-24T07:08:16.629Z</time>
      </trkpt>
      <trkpt lat="43.74869" lon="1.53698">
        <ele>219.96</ele>
        <time>2023-08-24T07:08:17.619Z</time>
      </trkpt>
      <trkpt lat="43.74871" lon="1.53691">
        <ele>219.95</ele>
        <time>2023-08-24T07:08:18.741Z</time>
      </trkpt>
      <trkpt lat="43.74872" lon="1.53684">
        <ele>219.98</ele>
        <time>2023-08-24T07:08:19.665Z</time>
      </trkpt>
      <trkpt lat="43.74873" lon="1.53677">
        <ele>220</ele>
        <time>2023-08-24T07:08:20.641Z</time>
      </trkpt>
      <trkpt lat="43.74875" lon="1.5367">
        <ele>220.04</ele>
        <time>2023-08-24T07:08:21.744Z</time>
      </trkpt>
      <trkpt lat="43.74876" lon="1.53663">
        <ele>220.06</ele>
        <time>2023-08-24T07:08:22.864Z</time>
      </trkpt>
      <trkpt lat="43.74878" lon="1.53657">
        <ele>220.06</ele>
        <time>2023-08-24T07:08:23.644Z</time>
      </trkpt>
      <trkpt lat="43.74879" lon="1.5365">
        <ele>220.14</ele>
        <time>2023-08-24T07:08:24.715Z</time>
      </trkpt>
      <trkpt lat="43.74881" lon="1.53643">
        <ele>220.13</ele>
        <time>2023-08-24T07:08:25.855Z</time>
      </trkpt>
      <trkpt lat="43.74883" lon="1.53635">
        <ele>220.15</ele>
        <time>2023-08-24T07:08:26.506Z</time>
      </trkpt>
      <trkpt lat="43.74884" lon="1.53628">
        <ele>220.11</ele>
        <time>2023-08-24T07:08:27.070Z</time>
      </trkpt>
      <trkpt lat="43.74887" lon="1.53613">
        <ele>220.08</ele>
        <time>2023-08-24T07:08:28.649Z</time>
      </trkpt>
      <trkpt lat="43.74889" lon="1.53605">
        <ele>220.03</ele>
        <time>2023-08-24T07:08:29.656Z</time>
      </trkpt>
      <trkpt lat="43.74891" lon="1.53597">
        <ele>220.02</ele>
        <time>2023-08-24T07:08:30.669Z</time>
      </trkpt>
      <trkpt lat="43.74892" lon="1.53589">
        <ele>219.95</ele>
        <time>2023-08-24T07:08:32.018Z</time>
      </trkpt>
      <trkpt lat="43.74894" lon="1.53581">
        <ele>219.94</ele>
        <time>2023-08-24T07:08:32.933Z</time>
      </trkpt>
      <trkpt lat="43.74895" lon="1.53574">
        <ele>219.91</ele>
        <time>2023-08-24T07:08:33.997Z</time>
      </trkpt>
      <trkpt lat="43.74897" lon="1.53565">
        <ele>219.87</ele>
        <time>2023-08-24T07:08:34.660Z</time>
      </trkpt>
      <trkpt lat="43.74899" lon="1.53557">
        <ele>219.78</ele>
        <time>2023-08-24T07:08:36.654Z</time>
      </trkpt>
      <trkpt lat="43.74903" lon="1.5354">
        <ele>219.72</ele>
        <time>2023-08-24T07:08:37.677Z</time>
      </trkpt>
      <trkpt lat="43.74906" lon="1.53531">
        <ele>219.52</ele>
        <time>2023-08-24T07:08:39.662Z</time>
      </trkpt>
      <trkpt lat="43.74911" lon="1.53515">
        <ele>219.38</ele>
        <time>2023-08-24T07:08:40.670Z</time>
      </trkpt>
      <trkpt lat="43.74914" lon="1.53506">
        <ele>219.15</ele>
        <time>2023-08-24T07:08:41.653Z</time>
      </trkpt>
      <trkpt lat="43.74918" lon="1.53499">
        <ele>219.01</ele>
        <time>2023-08-24T07:08:42.653Z</time>
      </trkpt>
      <trkpt lat="43.74921" lon="1.53492">
        <ele>218.9</ele>
        <time>2023-08-24T07:08:44.647Z</time>
      </trkpt>
      <trkpt lat="43.74928" lon="1.53477">
        <ele>218.81</ele>
        <time>2023-08-24T07:08:45.646Z</time>
      </trkpt>
      <trkpt lat="43.74932" lon="1.5347">
        <ele>218.46</ele>
        <time>2023-08-24T07:08:46.999Z</time>
      </trkpt>
      <trkpt lat="43.74936" lon="1.53464">
        <ele>218.39</ele>
        <time>2023-08-24T07:08:47.659Z</time>
      </trkpt>
      <trkpt lat="43.74939" lon="1.5346">
        <ele>218.44</ele>
        <time>2023-08-24T07:08:49.030Z</time>
      </trkpt>
      <trkpt lat="43.74942" lon="1.53459">
        <ele>218.4</ele>
        <time>2023-08-24T07:08:49.643Z</time>
      </trkpt>
      <trkpt lat="43.74944" lon="1.53462">
        <ele>218.37</ele>
        <time>2023-08-24T07:08:51.073Z</time>
      </trkpt>
      <trkpt lat="43.74947" lon="1.53466">
        <ele>218.32</ele>
        <time>2023-08-24T07:08:51.670Z</time>
      </trkpt>
      <trkpt lat="43.7495" lon="1.53471">
        <ele>218.28</ele>
        <time>2023-08-24T07:08:53.639Z</time>
      </trkpt>
      <trkpt lat="43.74952" lon="1.53478">
        <ele>218.25</ele>
        <time>2023-08-24T07:08:54.972Z</time>
      </trkpt>
      <trkpt lat="43.74956" lon="1.53492">
        <ele>218.32</ele>
        <time>2023-08-24T07:08:55.815Z</time>
      </trkpt>
      <trkpt lat="43.74959" lon="1.535">
        <ele>218.33</ele>
        <time>2023-08-24T07:08:56.635Z</time>
      </trkpt>
      <trkpt lat="43.74961" lon="1.53506">
        <ele>218.29</ele>
        <time>2023-08-24T07:08:58.053Z</time>
      </trkpt>
      <trkpt lat="43.74964" lon="1.53515">
        <ele>218.11</ele>
        <time>2023-08-24T07:08:59.002Z</time>
      </trkpt>
      <trkpt lat="43.74966" lon="1.53523">
        <ele>217.94</ele>
        <time>2023-08-24T07:09:00.027Z</time>
      </trkpt>
      <trkpt lat="43.74969" lon="1.53531">
        <ele>217.73</ele>
        <time>2023-08-24T07:09:01.037Z</time>
      </trkpt>
      <trkpt lat="43.74971" lon="1.53535">
        <ele>217.57</ele>
        <time>2023-08-24T07:09:01.668Z</time>
      </trkpt>
      <trkpt lat="43.74976" lon="1.53549">
        <ele>217.36</ele>
        <time>2023-08-24T07:09:03.076Z</time>
      </trkpt>
      <trkpt lat="43.74979" lon="1.53557">
        <ele>217.03</ele>
        <time>2023-08-24T07:09:04.660Z</time>
      </trkpt>
      <trkpt lat="43.74985" lon="1.53575">
        <ele>216.74</ele>
        <time>2023-08-24T07:09:06.032Z</time>
      </trkpt>
      <trkpt lat="43.74988" lon="1.53584">
        <ele>216.45</ele>
        <time>2023-08-24T07:09:06.645Z</time>
      </trkpt>
      <trkpt lat="43.74994" lon="1.53601">
        <ele>216.43</ele>
        <time>2023-08-24T07:09:08.658Z</time>
      </trkpt>
      <trkpt lat="43.74996" lon="1.53609">
        <ele>216.25</ele>
        <time>2023-08-24T07:09:09.966Z</time>
      </trkpt>
      <trkpt lat="43.75" lon="1.53616">
        <ele>216.13</ele>
        <time>2023-08-24T07:09:11.655Z</time>
      </trkpt>
      <trkpt lat="43.75003" lon="1.53623">
        <ele>216.09</ele>
        <time>2023-08-24T07:09:12.692Z</time>
      </trkpt>
      <trkpt lat="43.75011" lon="1.53637">
        <ele>216.02</ele>
        <time>2023-08-24T07:09:13.670Z</time>
      </trkpt>
      <trkpt lat="43.75015" lon="1.53643">
        <ele>215.93</ele>
        <time>2023-08-24T07:09:15.676Z</time>
      </trkpt>
      <trkpt lat="43.75021" lon="1.53652">
        <ele>215.85</ele>
        <time>2023-08-24T07:09:16.666Z</time>
      </trkpt>
      <trkpt lat="43.75032" lon="1.53667">
        <ele>215.69</ele>
        <time>2023-08-24T07:09:19.063Z</time>
      </trkpt>
      <trkpt lat="43.75038" lon="1.53675">
        <ele>215.2</ele>
        <time>2023-08-24T07:09:19.661Z</time>
      </trkpt>
      <trkpt lat="43.75043" lon="1.53682">
        <ele>214.93</ele>
        <time>2023-08-24T07:09:20.694Z</time>
      </trkpt>
      <trkpt lat="43.75055" lon="1.53697">
        <ele>214.54</ele>
        <time>2023-08-24T07:09:22.709Z</time>
      </trkpt>
      <trkpt lat="43.75069" lon="1.53714">
        <ele>212.86</ele>
        <time>2023-08-24T07:09:25.124Z</time>
      </trkpt>
      <trkpt lat="43.75077" lon="1.53724">
        <ele>210.47</ele>
        <time>2023-08-24T07:09:25.684Z</time>
      </trkpt>
      <trkpt lat="43.75085" lon="1.53733">
        <ele>209.05</ele>
        <time>2023-08-24T07:09:27.071Z</time>
      </trkpt>
      <trkpt lat="43.75092" lon="1.53743">
        <ele>207.41</ele>
        <time>2023-08-24T07:09:28.140Z</time>
      </trkpt>
      <trkpt lat="43.75093" lon="1.53744">
        <ele>205.94</ele>
        <time>2023-08-24T07:09:29.046Z</time>
      </trkpt>
      <trkpt lat="43.75112" lon="1.53766">
        <ele>205.94</ele>
        <time>2023-08-24T07:09:31.101Z</time>
      </trkpt>
      <trkpt lat="43.75117" lon="1.53773">
        <ele>202.14</ele>
        <time>2023-08-24T07:09:31.682Z</time>
      </trkpt>
      <trkpt lat="43.75121" lon="1.53778">
        <ele>201.28</ele>
        <time>2023-08-24T07:09:32.669Z</time>
      </trkpt>
      <trkpt lat="43.75126" lon="1.53783">
        <ele>200.43</ele>
        <time>2023-08-24T07:09:34.061Z</time>
      </trkpt>
      <trkpt lat="43.75136" lon="1.53793">
        <ele>199.83</ele>
        <time>2023-08-24T07:09:36.100Z</time>
      </trkpt>
      <trkpt lat="43.75141" lon="1.53799">
        <ele>197.98999</ele>
        <time>2023-08-24T07:09:37.160Z</time>
      </trkpt>
      <trkpt lat="43.75148" lon="1.53806">
        <ele>196.79001</ele>
        <time>2023-08-24T07:09:38.145Z</time>
      </trkpt>
      <trkpt lat="43.75154" lon="1.53812">
        <ele>195.82</ele>
        <time>2023-08-24T07:09:38.993Z</time>
      </trkpt>
      <trkpt lat="43.75158" lon="1.53816">
        <ele>194.76999</ele>
        <time>2023-08-24T07:09:39.960Z</time>
      </trkpt>
      <trkpt lat="43.75165" lon="1.53822">
        <ele>193.9</ele>
        <time>2023-08-24T07:09:41.159Z</time>
      </trkpt>
      <trkpt lat="43.75169" lon="1.53826">
        <ele>193.18</ele>
        <time>2023-08-24T07:09:42.049Z</time>
      </trkpt>
      <trkpt lat="43.75173" lon="1.53831">
        <ele>192.5</ele>
        <time>2023-08-24T07:09:43.122Z</time>
      </trkpt>
      <trkpt lat="43.75178" lon="1.53836">
        <ele>191.70999</ele>
        <time>2023-08-24T07:09:44.182Z</time>
      </trkpt>
      <trkpt lat="43.75183" lon="1.53841">
        <ele>190.73999</ele>
        <time>2023-08-24T07:09:44.798Z</time>
      </trkpt>
      <trkpt lat="43.7519" lon="1.53847">
        <ele>189.76001</ele>
        <time>2023-08-24T07:09:45.960Z</time>
      </trkpt>
      <trkpt lat="43.75195" lon="1.5385">
        <ele>188.81</ele>
        <time>2023-08-24T07:09:47.103Z</time>
      </trkpt>
      <trkpt lat="43.75201" lon="1.53855">
        <ele>187.97</ele>
        <time>2023-08-24T07:09:47.808Z</time>
      </trkpt>
      <trkpt lat="43.75207" lon="1.53859">
        <ele>186.92</ele>
        <time>2023-08-24T07:09:48.826Z</time>
      </trkpt>
      <trkpt lat="43.75214" lon="1.53864">
        <ele>185.95999</ele>
        <time>2023-08-24T07:09:51.136Z</time>
      </trkpt>
      <trkpt lat="43.75221" lon="1.53871">
        <ele>185.18</ele>
        <time>2023-08-24T07:09:51.821Z</time>
      </trkpt>
      <trkpt lat="43.75234" lon="1.53886">
        <ele>184.2</ele>
        <time>2023-08-24T07:09:52.276Z</time>
      </trkpt>
      <trkpt lat="43.75241" lon="1.53897">
        <ele>182.37</ele>
        <time>2023-08-24T07:09:53.841Z</time>
      </trkpt>
      <trkpt lat="43.75246" lon="1.53906">
        <ele>181.73001</ele>
        <time>2023-08-24T07:09:54.805Z</time>
      </trkpt>
      <trkpt lat="43.75248" lon="1.53909">
        <ele>181.13</ele>
        <time>2023-08-24T07:09:57.435Z</time>
      </trkpt>
      <trkpt lat="43.75254" lon="1.53922">
        <ele>180.26001</ele>
        <time>2023-08-24T07:09:57.665Z</time>
      </trkpt>
      <trkpt lat="43.75263" lon="1.53942">
        <ele>178.98999</ele>
        <time>2023-08-24T07:09:59.489Z</time>
      </trkpt>
      <trkpt lat="43.75268" lon="1.53953">
        <ele>178.4</ele>
        <time>2023-08-24T07:10:00.519Z</time>
      </trkpt>
      <trkpt lat="43.75274" lon="1.53965">
        <ele>177.81</ele>
        <time>2023-08-24T07:10:01.479Z</time>
      </trkpt>
      <trkpt lat="43.75275" lon="1.53967">
        <ele>177.26999</ele>
        <time>2023-08-24T07:10:02.542Z</time>
      </trkpt>
      <trkpt lat="43.75282" lon="1.53989">
        <ele>176.98001</ele>
        <time>2023-08-24T07:10:02.637Z</time>
      </trkpt>
      <trkpt lat="43.75285" lon="1.54">
        <ele>176.37</ele>
        <time>2023-08-24T07:10:04.081Z</time>
      </trkpt>
      <trkpt lat="43.75286" lon="1.5401">
        <ele>175.63</ele>
        <time>2023-08-24T07:10:05.560Z</time>
      </trkpt>
      <trkpt lat="43.75288" lon="1.54025">
        <ele>174.62</ele>
        <time>2023-08-24T07:10:06.567Z</time>
      </trkpt>
      <trkpt lat="43.75289" lon="1.54032">
        <ele>173.95</ele>
        <time>2023-08-24T07:10:07.560Z</time>
      </trkpt>
      <trkpt lat="43.7529" lon="1.54052">
        <ele>173.20999</ele>
        <time>2023-08-24T07:10:08.419Z</time>
      </trkpt>
      <trkpt lat="43.75289" lon="1.54061">
        <ele>172.45</ele>
        <time>2023-08-24T07:10:09.668Z</time>
      </trkpt>
      <trkpt lat="43.75287" lon="1.54077">
        <ele>171.87</ele>
        <time>2023-08-24T07:10:10.550Z</time>
      </trkpt>
      <trkpt lat="43.75285" lon="1.54089">
        <ele>171.44</ele>
        <time>2023-08-24T07:10:11.197Z</time>
      </trkpt>
      <trkpt lat="43.75285" lon="1.54101">
        <ele>170.91</ele>
        <time>2023-08-24T07:10:12.161Z</time>
      </trkpt>
      <trkpt lat="43.75285" lon="1.54112">
        <ele>170.56</ele>
        <time>2023-08-24T07:10:13.208Z</time>
      </trkpt>
      <trkpt lat="43.75287" lon="1.54122">
        <ele>170.12</ele>
        <time>2023-08-24T07:10:14.664Z</time>
      </trkpt>
      <trkpt lat="43.75289" lon="1.54133">
        <ele>169.76999</ele>
        <time>2023-08-24T07:10:15.536Z</time>
      </trkpt>
      <trkpt lat="43.75292" lon="1.54142">
        <ele>169.63</ele>
        <time>2023-08-24T07:10:16.386Z</time>
      </trkpt>
      <trkpt lat="43.75294" lon="1.54151">
        <ele>169.67</ele>
        <time>2023-08-24T07:10:17.430Z</time>
      </trkpt>
      <trkpt lat="43.75296" lon="1.54158">
        <ele>169.70999</ele>
        <time>2023-08-24T07:10:18.595Z</time>
      </trkpt>
      <trkpt lat="43.753" lon="1.54169">
        <ele>169.85</ele>
        <time>2023-08-24T07:10:19.374Z</time>
      </trkpt>
      <trkpt lat="43.75305" lon="1.54182">
        <ele>170.01001</ele>
        <time>2023-08-24T07:10:21.686Z</time>
      </trkpt>
      <trkpt lat="43.75307" lon="1.54188">
        <ele>170.23001</ele>
        <time>2023-08-24T07:10:22.674Z</time>
      </trkpt>
      <trkpt lat="43.7531" lon="1.54194">
        <ele>170.35</ele>
        <time>2023-08-24T07:10:24.021Z</time>
      </trkpt>
      <trkpt lat="43.75312" lon="1.54198">
        <ele>170.48001</ele>
        <time>2023-08-24T07:10:25.108Z</time>
      </trkpt>
      <trkpt lat="43.75314" lon="1.54203">
        <ele>170.61</ele>
        <time>2023-08-24T07:10:25.663Z</time>
      </trkpt>
      <trkpt lat="43.75316" lon="1.54206">
        <ele>170.76999</ele>
        <time>2023-08-24T07:10:28.154Z</time>
      </trkpt>
      <trkpt lat="43.75322" lon="1.54216">
        <ele>170.91</ele>
        <time>2023-08-24T07:10:29.016Z</time>
      </trkpt>
      <trkpt lat="43.75324" lon="1.5422">
        <ele>171.01999</ele>
        <time>2023-08-24T07:10:30.669Z</time>
      </trkpt>
      <trkpt lat="43.75327" lon="1.54224">
        <ele>171.08</ele>
        <time>2023-08-24T07:10:31.688Z</time>
      </trkpt>
      <trkpt lat="43.7533" lon="1.54228">
        <ele>171.20999</ele>
        <time>2023-08-24T07:10:32.670Z</time>
      </trkpt>
      <trkpt lat="43.75334" lon="1.54234">
        <ele>171.41</ele>
        <time>2023-08-24T07:10:33.711Z</time>
      </trkpt>
      <trkpt lat="43.75337" lon="1.54237">
        <ele>171.61</ele>
        <time>2023-08-24T07:10:34.958Z</time>
      </trkpt>
      <trkpt lat="43.7534" lon="1.54241">
        <ele>171.82</ele>
        <time>2023-08-24T07:10:35.945Z</time>
      </trkpt>
      <trkpt lat="43.75343" lon="1.54245">
        <ele>172.04001</ele>
        <time>2023-08-24T07:10:37.105Z</time>
      </trkpt>
      <trkpt lat="43.75349" lon="1.5425">
        <ele>172.34</ele>
        <time>2023-08-24T07:10:38.708Z</time>
      </trkpt>
      <trkpt lat="43.75351" lon="1.54253">
        <ele>172.70999</ele>
        <time>2023-08-24T07:10:40.669Z</time>
      </trkpt>
      <trkpt lat="43.75353" lon="1.54255">
        <ele>172.95</ele>
        <time>2023-08-24T07:10:41.703Z</time>
      </trkpt>
      <trkpt lat="43.75355" lon="1.5426">
        <ele>173.23001</ele>
        <time>2023-08-24T07:10:42.907Z</time>
      </trkpt>
      <trkpt lat="43.75356" lon="1.54265">
        <ele>173.6</ele>
        <time>2023-08-24T07:10:43.693Z</time>
      </trkpt>
      <trkpt lat="43.75356" lon="1.5427">
        <ele>173.8</ele>
        <time>2023-08-24T07:10:44.666Z</time>
      </trkpt>
      <trkpt lat="43.75355" lon="1.54275">
        <ele>174.06</ele>
        <time>2023-08-24T07:10:47.097Z</time>
      </trkpt>
      <trkpt lat="43.75355" lon="1.5428">
        <ele>174.31</ele>
        <time>2023-08-24T07:10:47.691Z</time>
      </trkpt>
      <trkpt lat="43.75354" lon="1.54286">
        <ele>174.54001</ele>
        <time>2023-08-24T07:10:48.765Z</time>
      </trkpt>
      <trkpt lat="43.75352" lon="1.54291">
        <ele>174.8</ele>
        <time>2023-08-24T07:10:49.697Z</time>
      </trkpt>
      <trkpt lat="43.75352" lon="1.54297">
        <ele>175.07</ele>
        <time>2023-08-24T07:10:51.166Z</time>
      </trkpt>
      <trkpt lat="43.75351" lon="1.54301">
        <ele>175.33</ele>
        <time>2023-08-24T07:10:52.028Z</time>
      </trkpt>
      <trkpt lat="43.75349" lon="1.54306">
        <ele>175.59</ele>
        <time>2023-08-24T07:10:52.683Z</time>
      </trkpt>
      <trkpt lat="43.75347" lon="1.54314">
        <ele>175.79001</ele>
        <time>2023-08-24T07:10:54.705Z</time>
      </trkpt>
      <trkpt lat="43.75344" lon="1.54323">
        <ele>176.23999</ele>
        <time>2023-08-24T07:10:57.135Z</time>
      </trkpt>
      <trkpt lat="43.7534" lon="1.54332">
        <ele>176.7</ele>
        <time>2023-08-24T07:10:58.850Z</time>
      </trkpt>
      <trkpt lat="43.75339" lon="1.54335">
        <ele>177.13</ele>
        <time>2023-08-24T07:11:00.877Z</time>
      </trkpt>
      <trkpt lat="43.75338" lon="1.54339">
        <ele>177.37</ele>
        <time>2023-08-24T07:11:01.340Z</time>
      </trkpt>
      <trkpt lat="43.75336" lon="1.54343">
        <ele>177.64</ele>
        <time>2023-08-24T07:11:02.712Z</time>
      </trkpt>
      <trkpt lat="43.75335" lon="1.54346">
        <ele>177.87</ele>
        <time>2023-08-24T07:11:05.126Z</time>
      </trkpt>
      <trkpt lat="43.7533" lon="1.54354">
        <ele>178.33</ele>
        <time>2023-08-24T07:11:07.336Z</time>
      </trkpt>
      <trkpt lat="43.75329" lon="1.54356">
        <ele>178.48001</ele>
        <time>2023-08-24T07:11:07.418Z</time>
      </trkpt>
      <trkpt lat="43.75328" lon="1.54358">
        <ele>178.61</ele>
        <time>2023-08-24T07:11:09.380Z</time>
      </trkpt>
      <trkpt lat="43.75327" lon="1.54362">
        <ele>178.78</ele>
        <time>2023-08-24T07:11:09.439Z</time>
      </trkpt>
      <trkpt lat="43.75325" lon="1.54366">
        <ele>178.91</ele>
        <time>2023-08-24T07:11:11.356Z</time>
      </trkpt>
      <trkpt lat="43.75324" lon="1.54369">
        <ele>179.03</ele>
        <time>2023-08-24T07:11:11.442Z</time>
      </trkpt>
      <trkpt lat="43.75322" lon="1.54374">
        <ele>179.1</ele>
        <time>2023-08-24T07:11:13.456Z</time>
      </trkpt>
      <trkpt lat="43.7532" lon="1.54379">
        <ele>179.25</ele>
        <time>2023-08-24T07:11:15.275Z</time>
      </trkpt>
      <trkpt lat="43.75318" lon="1.54384">
        <ele>179.34</ele>
        <time>2023-08-24T07:11:16.134Z</time>
      </trkpt>
      <trkpt lat="43.75317" lon="1.54388">
        <ele>179.42</ele>
        <time>2023-08-24T07:11:17.128Z</time>
      </trkpt>
      <trkpt lat="43.75314" lon="1.54392">
        <ele>179.55</ele>
        <time>2023-08-24T07:11:17.546Z</time>
      </trkpt>
      <trkpt lat="43.75312" lon="1.54397">
        <ele>179.66</ele>
        <time>2023-08-24T07:11:19.124Z</time>
      </trkpt>
      <trkpt lat="43.75311" lon="1.54402">
        <ele>179.75</ele>
        <time>2023-08-24T07:11:19.533Z</time>
      </trkpt>
      <trkpt lat="43.75309" lon="1.54406">
        <ele>179.94</ele>
        <time>2023-08-24T07:11:21.191Z</time>
      </trkpt>
      <trkpt lat="43.75307" lon="1.54411">
        <ele>180.04001</ele>
        <time>2023-08-24T07:11:23.020Z</time>
      </trkpt>
      <trkpt lat="43.75305" lon="1.54415">
        <ele>180.17</ele>
        <time>2023-08-24T07:11:24.010Z</time>
      </trkpt>
      <trkpt lat="43.75303" lon="1.5442">
        <ele>180.3</ele>
        <time>2023-08-24T07:11:24.992Z</time>
      </trkpt>
      <trkpt lat="43.75301" lon="1.54425">
        <ele>180.45999</ele>
        <time>2023-08-24T07:11:26.049Z</time>
      </trkpt>
      <trkpt lat="43.75299" lon="1.54429">
        <ele>180.63</ele>
        <time>2023-08-24T07:11:27.380Z</time>
      </trkpt>
      <trkpt lat="43.75297" lon="1.54433">
        <ele>180.83</ele>
        <time>2023-08-24T07:11:29.221Z</time>
      </trkpt>
      <trkpt lat="43.75296" lon="1.54438">
        <ele>181.01999</ele>
        <time>2023-08-24T07:11:30.318Z</time>
      </trkpt>
      <trkpt lat="43.75294" lon="1.54443">
        <ele>181.18</ele>
        <time>2023-08-24T07:11:31.269Z</time>
      </trkpt>
      <trkpt lat="43.75293" lon="1.54447">
        <ele>181.35</ele>
        <time>2023-08-24T07:11:31.662Z</time>
      </trkpt>
      <trkpt lat="43.75292" lon="1.54452">
        <ele>181.51999</ele>
        <time>2023-08-24T07:11:32.635Z</time>
      </trkpt>
      <trkpt lat="43.75291" lon="1.54457">
        <ele>181.66</ele>
        <time>2023-08-24T07:11:34.200Z</time>
      </trkpt>
      <trkpt lat="43.75291" lon="1.54462">
        <ele>181.83</ele>
        <time>2023-08-24T07:11:35.398Z</time>
      </trkpt>
      <trkpt lat="43.75291" lon="1.5447">
        <ele>182.01999</ele>
        <time>2023-08-24T07:11:37.181Z</time>
      </trkpt>
      <trkpt lat="43.75291" lon="1.54474">
        <ele>182.39</ele>
        <time>2023-08-24T07:11:39.421Z</time>
      </trkpt>
      <trkpt lat="43.75291" lon="1.54478">
        <ele>182.56</ele>
        <time>2023-08-24T07:11:40.458Z</time>
      </trkpt>
      <trkpt lat="43.75292" lon="1.54483">
        <ele>182.7</ele>
        <time>2023-08-24T07:11:41.383Z</time>
      </trkpt>
      <trkpt lat="43.75293" lon="1.54487">
        <ele>182.91</ele>
        <time>2023-08-24T07:11:42.453Z</time>
      </trkpt>
      <trkpt lat="43.75293" lon="1.54491">
        <ele>183.13</ele>
        <time>2023-08-24T07:11:43.364Z</time>
      </trkpt>
      <trkpt lat="43.75293" lon="1.54496">
        <ele>183.31</ele>
        <time>2023-08-24T07:11:45.253Z</time>
      </trkpt>
      <trkpt lat="43.75294" lon="1.54505">
        <ele>183.45999</ele>
        <time>2023-08-24T07:11:46.455Z</time>
      </trkpt>
      <trkpt lat="43.75295" lon="1.5451">
        <ele>183.70999</ele>
        <time>2023-08-24T07:11:48.266Z</time>
      </trkpt>
      <trkpt lat="43.75296" lon="1.54514">
        <ele>183.83</ele>
        <time>2023-08-24T07:11:48.654Z</time>
      </trkpt>
      <trkpt lat="43.75296" lon="1.54518">
        <ele>184.04001</ele>
        <time>2023-08-24T07:11:50.483Z</time>
      </trkpt>
      <trkpt lat="43.75297" lon="1.54522">
        <ele>184.15</ele>
        <time>2023-08-24T07:11:50.637Z</time>
      </trkpt>
      <trkpt lat="43.75298" lon="1.54532">
        <ele>184.36</ele>
        <time>2023-08-24T07:11:53.319Z</time>
      </trkpt>
      <trkpt lat="43.75298" lon="1.54536">
        <ele>184.62</ele>
        <time>2023-08-24T07:11:53.662Z</time>
      </trkpt>
      <trkpt lat="43.75299" lon="1.5454">
        <ele>184.81</ele>
        <time>2023-08-24T07:11:55.488Z</time>
      </trkpt>
      <trkpt lat="43.753" lon="1.54549">
        <ele>185.03</ele>
        <time>2023-08-24T07:11:57.482Z</time>
      </trkpt>
      <trkpt lat="43.75301" lon="1.54556">
        <ele>185.20999</ele>
        <time>2023-08-24T07:11:59.471Z</time>
      </trkpt>
      <trkpt lat="43.75301" lon="1.5456">
        <ele>185.47</ele>
        <time>2023-08-24T07:12:01.244Z</time>
      </trkpt>
      <trkpt lat="43.75302" lon="1.54565">
        <ele>185.61</ele>
        <time>2023-08-24T07:12:02.306Z</time>
      </trkpt>
      <trkpt lat="43.75303" lon="1.54571">
        <ele>185.70999</ele>
        <time>2023-08-24T07:12:03.318Z</time>
      </trkpt>
      <trkpt lat="43.75304" lon="1.54576">
        <ele>185.9</ele>
        <time>2023-08-24T07:12:04.280Z</time>
      </trkpt>
      <trkpt lat="43.75304" lon="1.5458">
        <ele>186.01001</ele>
        <time>2023-08-24T07:12:05.261Z</time>
      </trkpt>
      <trkpt lat="43.75305" lon="1.54585">
        <ele>186.14</ele>
        <time>2023-08-24T07:12:06.318Z</time>
      </trkpt>
      <trkpt lat="43.75306" lon="1.5459">
        <ele>186.28</ele>
        <time>2023-08-24T07:12:07.632Z</time>
      </trkpt>
      <trkpt lat="43.75307" lon="1.54594">
        <ele>186.41</ele>
        <time>2023-08-24T07:12:09.387Z</time>
      </trkpt>
      <trkpt lat="43.75308" lon="1.54599">
        <ele>186.48999</ele>
        <time>2023-08-24T07:12:10.638Z</time>
      </trkpt>
      <trkpt lat="43.75311" lon="1.54611">
        <ele>186.42</ele>
        <time>2023-08-24T07:12:12.050Z</time>
      </trkpt>
      <trkpt lat="43.75312" lon="1.54615">
        <ele>186.33</ele>
        <time>2023-08-24T07:12:13.326Z</time>
      </trkpt>
      <trkpt lat="43.75314" lon="1.54619">
        <ele>186.33</ele>
        <time>2023-08-24T07:12:15.418Z</time>
      </trkpt>
      <trkpt lat="43.75316" lon="1.54624">
        <ele>186.3</ele>
        <time>2023-08-24T07:12:15.630Z</time>
      </trkpt>
      <trkpt lat="43.75318" lon="1.54629">
        <ele>186.23001</ele>
        <time>2023-08-24T07:12:17.303Z</time>
      </trkpt>
      <trkpt lat="43.7532" lon="1.54634">
        <ele>186.25</ele>
        <time>2023-08-24T07:12:18.326Z</time>
      </trkpt>
      <trkpt lat="43.75324" lon="1.54644">
        <ele>186.22</ele>
        <time>2023-08-24T07:12:20.653Z</time>
      </trkpt>
      <trkpt lat="43.75328" lon="1.5465">
        <ele>186.2</ele>
        <time>2023-08-24T07:12:21.704Z</time>
      </trkpt>
      <trkpt lat="43.7533" lon="1.54655">
        <ele>186.11</ele>
        <time>2023-08-24T07:12:23.517Z</time>
      </trkpt>
      <trkpt lat="43.75334" lon="1.54662">
        <ele>186.05</ele>
        <time>2023-08-24T07:12:24.785Z</time>
      </trkpt>
      <trkpt lat="43.7534" lon="1.54675">
        <ele>185.88</ele>
        <time>2023-08-24T07:12:25.793Z</time>
      </trkpt>
      <trkpt lat="43.75344" lon="1.54683">
        <ele>185.48001</ele>
        <time>2023-08-24T07:12:26.881Z</time>
      </trkpt>
      <trkpt lat="43.75349" lon="1.54692">
        <ele>185.08</ele>
        <time>2023-08-24T07:12:28.761Z</time>
      </trkpt>
      <trkpt lat="43.75352" lon="1.54699">
        <ele>184.58</ele>
        <time>2023-08-24T07:12:29.625Z</time>
      </trkpt>
      <trkpt lat="43.75354" lon="1.54703">
        <ele>183.98001</ele>
        <time>2023-08-24T07:12:30.846Z</time>
      </trkpt>
      <trkpt lat="43.75359" lon="1.54715">
        <ele>183.39</ele>
        <time>2023-08-24T07:12:31.642Z</time>
      </trkpt>
      <trkpt lat="43.75361" lon="1.54721">
        <ele>182.76001</ele>
        <time>2023-08-24T07:12:32.662Z</time>
      </trkpt>
      <trkpt lat="43.75363" lon="1.54725">
        <ele>182.09</ele>
        <time>2023-08-24T07:12:33.331Z</time>
      </trkpt>
      <trkpt lat="43.75369" lon="1.54735">
        <ele>181.17</ele>
        <time>2023-08-24T07:12:35.095Z</time>
      </trkpt>
      <trkpt lat="43.75383" lon="1.54749">
        <ele>180.09</ele>
        <time>2023-08-24T07:12:36.665Z</time>
      </trkpt>
      <trkpt lat="43.75391" lon="1.54755">
        <ele>177.06</ele>
        <time>2023-08-24T07:12:38.011Z</time>
      </trkpt>
      <trkpt lat="43.75397" lon="1.54759">
        <ele>175.92</ele>
        <time>2023-08-24T07:12:38.664Z</time>
      </trkpt>
      <trkpt lat="43.75405" lon="1.54764">
        <ele>174.88</ele>
        <time>2023-08-24T07:12:40.105Z</time>
      </trkpt>
      <trkpt lat="43.75419" lon="1.54778">
        <ele>173.83</ele>
        <time>2023-08-24T07:12:42.068Z</time>
      </trkpt>
      <trkpt lat="43.75425" lon="1.54785">
        <ele>172.03</ele>
        <time>2023-08-24T07:12:43.662Z</time>
      </trkpt>
      <trkpt lat="43.75436" lon="1.54806">
        <ele>171.04001</ele>
        <time>2023-08-24T07:12:46.137Z</time>
      </trkpt>
      <trkpt lat="43.75441" lon="1.54815">
        <ele>169.20999</ele>
        <time>2023-08-24T07:12:46.742Z</time>
      </trkpt>
      <trkpt lat="43.75447" lon="1.54826">
        <ele>168.37</ele>
        <time>2023-08-24T07:12:47.764Z</time>
      </trkpt>
      <trkpt lat="43.75453" lon="1.54838">
        <ele>167.45999</ele>
        <time>2023-08-24T07:12:49.241Z</time>
      </trkpt>
      <trkpt lat="43.75463" lon="1.54857">
        <ele>166.2</ele>
        <time>2023-08-24T07:12:50.272Z</time>
      </trkpt>
      <trkpt lat="43.75467" lon="1.54865">
        <ele>165.58</ele>
        <time>2023-08-24T07:12:51.197Z</time>
      </trkpt>
      <trkpt lat="43.75472" lon="1.54878">
        <ele>165.28</ele>
        <time>2023-08-24T07:12:52.058Z</time>
      </trkpt>
      <trkpt lat="43.75475" lon="1.54889">
        <ele>164.66</ele>
        <time>2023-08-24T07:12:53.359Z</time>
      </trkpt>
      <trkpt lat="43.7548" lon="1.54912">
        <ele>164.13</ele>
        <time>2023-08-24T07:12:55.129Z</time>
      </trkpt>
      <trkpt lat="43.7548" lon="1.54913">
        <ele>162.82</ele>
        <time>2023-08-24T07:12:56.400Z</time>
      </trkpt>
      <trkpt lat="43.75486" lon="1.54934">
        <ele>162.82</ele>
        <time>2023-08-24T07:12:57.148Z</time>
      </trkpt>
      <trkpt lat="43.75489" lon="1.54945">
        <ele>162.01999</ele>
        <time>2023-08-24T07:12:58.208Z</time>
      </trkpt>
      <trkpt lat="43.75493" lon="1.54956">
        <ele>161.59</ele>
        <time>2023-08-24T07:12:59.200Z</time>
      </trkpt>
      <trkpt lat="43.75497" lon="1.54966">
        <ele>160.89</ele>
        <time>2023-08-24T07:13:00.407Z</time>
      </trkpt>
      <trkpt lat="43.75498" lon="1.54969">
        <ele>160.35</ele>
        <time>2023-08-24T07:13:01.133Z</time>
      </trkpt>
      <trkpt lat="43.75506" lon="1.54985">
        <ele>160.08</ele>
        <time>2023-08-24T07:13:03.154Z</time>
      </trkpt>
      <trkpt lat="43.75511" lon="1.54996">
        <ele>159.64</ele>
        <time>2023-08-24T07:13:04.248Z</time>
      </trkpt>
      <trkpt lat="43.7551" lon="1.55006">
        <ele>159.37</ele>
        <time>2023-08-24T07:13:06.139Z</time>
      </trkpt>
      <trkpt lat="43.75506" lon="1.55013">
        <ele>158.89</ele>
        <time>2023-08-24T07:13:07.118Z</time>
      </trkpt>
      <trkpt lat="43.75503" lon="1.55017">
        <ele>158.75</ele>
        <time>2023-08-24T07:13:08.374Z</time>
      </trkpt>
      <trkpt lat="43.755" lon="1.55021">
        <ele>158.61</ele>
        <time>2023-08-24T07:13:09.307Z</time>
      </trkpt>
      <trkpt lat="43.75499" lon="1.55025">
        <ele>158.48999</ele>
        <time>2023-08-24T07:13:10.166Z</time>
      </trkpt>
      <trkpt lat="43.75497" lon="1.5503">
        <ele>158.37</ele>
        <time>2023-08-24T07:13:11.147Z</time>
      </trkpt>
      <trkpt lat="43.75496" lon="1.55038">
        <ele>158.25</ele>
        <time>2023-08-24T07:13:12.146Z</time>
      </trkpt>
      <trkpt lat="43.75497" lon="1.55044">
        <ele>158.01001</ele>
        <time>2023-08-24T07:13:12.495Z</time>
      </trkpt>
      <trkpt lat="43.75499" lon="1.5505">
        <ele>157.79001</ele>
        <time>2023-08-24T07:13:13.643Z</time>
      </trkpt>
      <trkpt lat="43.75505" lon="1.5506">
        <ele>157.67</ele>
        <time>2023-08-24T07:13:16.209Z</time>
      </trkpt>
      <trkpt lat="43.75508" lon="1.55065">
        <ele>157.3</ele>
        <time>2023-08-24T07:13:16.997Z</time>
      </trkpt>
      <trkpt lat="43.75511" lon="1.55071">
        <ele>157.08</ele>
        <time>2023-08-24T07:13:17.608Z</time>
      </trkpt>
      <trkpt lat="43.75515" lon="1.55076">
        <ele>156.92</ele>
        <time>2023-08-24T07:13:18.553Z</time>
      </trkpt>
      <trkpt lat="43.75518" lon="1.5508">
        <ele>156.84</ele>
        <time>2023-08-24T07:13:20.469Z</time>
      </trkpt>
      <trkpt lat="43.75521" lon="1.55085">
        <ele>156.8</ele>
        <time>2023-08-24T07:13:21.456Z</time>
      </trkpt>
      <trkpt lat="43.75527" lon="1.55095">
        <ele>156.72</ele>
        <time>2023-08-24T07:13:23.476Z</time>
      </trkpt>
      <trkpt lat="43.75529" lon="1.551">
        <ele>156.75</ele>
        <time>2023-08-24T07:13:23.666Z</time>
      </trkpt>
      <trkpt lat="43.75532" lon="1.55104">
        <ele>156.8</ele>
        <time>2023-08-24T07:13:25.490Z</time>
      </trkpt>
      <trkpt lat="43.75534" lon="1.55109">
        <ele>156.89</ele>
        <time>2023-08-24T07:13:26.484Z</time>
      </trkpt>
      <trkpt lat="43.75537" lon="1.55113">
        <ele>157.01001</ele>
        <time>2023-08-24T07:13:26.643Z</time>
      </trkpt>
      <trkpt lat="43.75539" lon="1.55117">
        <ele>157.13</ele>
        <time>2023-08-24T07:13:28.240Z</time>
      </trkpt>
      <trkpt lat="43.75541" lon="1.5512">
        <ele>157.23999</ele>
        <time>2023-08-24T07:13:29.558Z</time>
      </trkpt>
      <trkpt lat="43.75542" lon="1.55124">
        <ele>157.47</ele>
        <time>2023-08-24T07:13:30.391Z</time>
      </trkpt>
      <trkpt lat="43.75547" lon="1.55133">
        <ele>157.63</ele>
        <time>2023-08-24T07:13:32.252Z</time>
      </trkpt>
      <trkpt lat="43.75548" lon="1.55136">
        <ele>157.98999</ele>
        <time>2023-08-24T07:13:32.729Z</time>
      </trkpt>
      <trkpt lat="43.7555" lon="1.55139">
        <ele>158.25</ele>
        <time>2023-08-24T07:13:34.250Z</time>
      </trkpt>
      <trkpt lat="43.75552" lon="1.55144">
        <ele>158.48999</ele>
        <time>2023-08-24T07:13:35.645Z</time>
      </trkpt>
      <trkpt lat="43.75553" lon="1.55148">
        <ele>158.79001</ele>
        <time>2023-08-24T07:13:36.263Z</time>
      </trkpt>
      <trkpt lat="43.75555" lon="1.55155">
        <ele>159.12</ele>
        <time>2023-08-24T07:13:38.521Z</time>
      </trkpt>
      <trkpt lat="43.75555" lon="1.5516">
        <ele>159.43</ele>
        <time>2023-08-24T07:13:39.259Z</time>
      </trkpt>
      <trkpt lat="43.75556" lon="1.55165">
        <ele>159.73001</ele>
        <time>2023-08-24T07:13:40.719Z</time>
      </trkpt>
      <trkpt lat="43.75557" lon="1.55169">
        <ele>160.11</ele>
        <time>2023-08-24T07:13:40.784Z</time>
      </trkpt>
      <trkpt lat="43.75556" lon="1.55174">
        <ele>160.38</ele>
        <time>2023-08-24T07:13:42.731Z</time>
      </trkpt>
      <trkpt lat="43.75557" lon="1.5518">
        <ele>160.79001</ele>
        <time>2023-08-24T07:13:43.626Z</time>
      </trkpt>
      <trkpt lat="43.75557" lon="1.55184">
        <ele>161.2</ele>
        <time>2023-08-24T07:13:44.264Z</time>
      </trkpt>
      <trkpt lat="43.75557" lon="1.55195">
        <ele>161.57</ele>
        <time>2023-08-24T07:13:46.276Z</time>
      </trkpt>
      <trkpt lat="43.75558" lon="1.55198">
        <ele>162.25</ele>
        <time>2023-08-24T07:13:47.599Z</time>
      </trkpt>
      <trkpt lat="43.75559" lon="1.55206">
        <ele>162.70999</ele>
        <time>2023-08-24T07:13:49.263Z</time>
      </trkpt>
      <trkpt lat="43.75561" lon="1.5521">
        <ele>163.41</ele>
        <time>2023-08-24T07:13:50.725Z</time>
      </trkpt>
      <trkpt lat="43.75562" lon="1.55215">
        <ele>163.89</ele>
        <time>2023-08-24T07:13:51.741Z</time>
      </trkpt>
      <trkpt lat="43.75563" lon="1.55218">
        <ele>164.42</ele>
        <time>2023-08-24T07:13:52.255Z</time>
      </trkpt>
      <trkpt lat="43.75566" lon="1.55228">
        <ele>165</ele>
        <time>2023-08-24T07:13:54.756Z</time>
      </trkpt>
      <trkpt lat="43.75569" lon="1.55233">
        <ele>165.89</ele>
        <time>2023-08-24T07:13:55.744Z</time>
      </trkpt>
      <trkpt lat="43.7557" lon="1.55237">
        <ele>166.33</ele>
        <time>2023-08-24T07:13:57.526Z</time>
      </trkpt>
      <trkpt lat="43.75572" lon="1.55241">
        <ele>166.89</ele>
        <time>2023-08-24T07:13:58.713Z</time>
      </trkpt>
      <trkpt lat="43.75574" lon="1.55245">
        <ele>167.4</ele>
        <time>2023-08-24T07:13:59.769Z</time>
      </trkpt>
      <trkpt lat="43.75576" lon="1.5525">
        <ele>167.88</ele>
        <time>2023-08-24T07:14:00.550Z</time>
      </trkpt>
      <trkpt lat="43.75578" lon="1.55254">
        <ele>168.36</ele>
        <time>2023-08-24T07:14:01.550Z</time>
      </trkpt>
      <trkpt lat="43.7558" lon="1.55259">
        <ele>168.83</ele>
        <time>2023-08-24T07:14:02.757Z</time>
      </trkpt>
      <trkpt lat="43.75581" lon="1.55263">
        <ele>169.35</ele>
        <time>2023-08-24T07:14:04.721Z</time>
      </trkpt>
      <trkpt lat="43.75583" lon="1.55267">
        <ele>169.98001</ele>
        <time>2023-08-24T07:14:05.758Z</time>
      </trkpt>
      <trkpt lat="43.75585" lon="1.5527">
        <ele>170.48999</ele>
        <time>2023-08-24T07:14:06.527Z</time>
      </trkpt>
      <trkpt lat="43.75589" lon="1.55277">
        <ele>171.01999</ele>
        <time>2023-08-24T07:14:08.721Z</time>
      </trkpt>
      <trkpt lat="43.75591" lon="1.5528">
        <ele>171.69</ele>
        <time>2023-08-24T07:14:09.746Z</time>
      </trkpt>
      <trkpt lat="43.75592" lon="1.55283">
        <ele>172.23001</ele>
        <time>2023-08-24T07:14:10.736Z</time>
      </trkpt>
      <trkpt lat="43.75594" lon="1.55286">
        <ele>172.76001</ele>
        <time>2023-08-24T07:14:11.397Z</time>
      </trkpt>
      <trkpt lat="43.75595" lon="1.55289">
        <ele>173.22</ele>
        <time>2023-08-24T07:14:12.761Z</time>
      </trkpt>
      <trkpt lat="43.75599" lon="1.55296">
        <ele>173.67</ele>
        <time>2023-08-24T07:14:14.682Z</time>
      </trkpt>
      <trkpt lat="43.75601" lon="1.55299">
        <ele>174.86</ele>
        <time>2023-08-24T07:14:16.823Z</time>
      </trkpt>
      <trkpt lat="43.75603" lon="1.55302">
        <ele>175.36</ele>
        <time>2023-08-24T07:14:17.832Z</time>
      </trkpt>
      <trkpt lat="43.75607" lon="1.55307">
        <ele>175.78</ele>
        <time>2023-08-24T07:14:19.790Z</time>
      </trkpt>
      <trkpt lat="43.7561" lon="1.55312">
        <ele>176.28</ele>
        <time>2023-08-24T07:14:20.822Z</time>
      </trkpt>
      <trkpt lat="43.75612" lon="1.55315">
        <ele>176.72</ele>
        <time>2023-08-24T07:14:22.822Z</time>
      </trkpt>
      <trkpt lat="43.75615" lon="1.55319">
        <ele>176.86</ele>
        <time>2023-08-24T07:14:23.746Z</time>
      </trkpt>
      <trkpt lat="43.75616" lon="1.55321">
        <ele>177.16</ele>
        <time>2023-08-24T07:14:24.779Z</time>
      </trkpt>
      <trkpt lat="43.75619" lon="1.55325">
        <ele>177.48999</ele>
        <time>2023-08-24T07:14:26.771Z</time>
      </trkpt>
      <trkpt lat="43.75621" lon="1.55328">
        <ele>177.8</ele>
        <time>2023-08-24T07:14:27.426Z</time>
      </trkpt>
      <trkpt lat="43.75622" lon="1.55331">
        <ele>178.12</ele>
        <time>2023-08-24T07:14:28.781Z</time>
      </trkpt>
      <trkpt lat="43.75624" lon="1.55335">
        <ele>178.55</ele>
        <time>2023-08-24T07:14:29.645Z</time>
      </trkpt>
      <trkpt lat="43.75626" lon="1.55337">
        <ele>178.98999</ele>
        <time>2023-08-24T07:14:30.687Z</time>
      </trkpt>
      <trkpt lat="43.75628" lon="1.5534">
        <ele>179.33</ele>
        <time>2023-08-24T07:14:31.681Z</time>
      </trkpt>
      <trkpt lat="43.7563" lon="1.55343">
        <ele>179.7</ele>
        <time>2023-08-24T07:14:32.881Z</time>
      </trkpt>
      <trkpt lat="43.75632" lon="1.55346">
        <ele>180.01999</ele>
        <time>2023-08-24T07:14:34.623Z</time>
      </trkpt>
      <trkpt lat="43.75634" lon="1.55349">
        <ele>180.39</ele>
        <time>2023-08-24T07:14:35.760Z</time>
      </trkpt>
      <trkpt lat="43.75636" lon="1.55352">
        <ele>180.8</ele>
        <time>2023-08-24T07:14:36.680Z</time>
      </trkpt>
      <trkpt lat="43.75638" lon="1.55355">
        <ele>181.18</ele>
        <time>2023-08-24T07:14:37.826Z</time>
      </trkpt>
      <trkpt lat="43.7564" lon="1.55358">
        <ele>181.6</ele>
        <time>2023-08-24T07:14:38.607Z</time>
      </trkpt>
      <trkpt lat="43.75642" lon="1.55361">
        <ele>181.88</ele>
        <time>2023-08-24T07:14:39.818Z</time>
      </trkpt>
      <trkpt lat="43.75645" lon="1.55365">
        <ele>182.16</ele>
        <time>2023-08-24T07:14:40.841Z</time>
      </trkpt>
      <trkpt lat="43.75647" lon="1.55368">
        <ele>182.4</ele>
        <time>2023-08-24T07:14:42.709Z</time>
      </trkpt>
      <trkpt lat="43.7565" lon="1.55373">
        <ele>182.59</ele>
        <time>2023-08-24T07:14:43.408Z</time>
      </trkpt>
      <trkpt lat="43.75652" lon="1.55376">
        <ele>182.82</ele>
        <time>2023-08-24T07:14:44.493Z</time>
      </trkpt>
      <trkpt lat="43.75654" lon="1.5538">
        <ele>183.13</ele>
        <time>2023-08-24T07:14:45.830Z</time>
      </trkpt>
      <trkpt lat="43.75657" lon="1.55384">
        <ele>183.33</ele>
        <time>2023-08-24T07:14:46.519Z</time>
      </trkpt>
      <trkpt lat="43.7566" lon="1.55387">
        <ele>183.5</ele>
        <time>2023-08-24T07:14:47.552Z</time>
      </trkpt>
      <trkpt lat="43.75666" lon="1.55395">
        <ele>183.66</ele>
        <time>2023-08-24T07:14:49.827Z</time>
      </trkpt>
      <trkpt lat="43.75668" lon="1.55398">
        <ele>183.87</ele>
        <time>2023-08-24T07:14:51.833Z</time>
      </trkpt>
      <trkpt lat="43.75671" lon="1.55401">
        <ele>183.95</ele>
        <time>2023-08-24T07:14:52.684Z</time>
      </trkpt>
      <trkpt lat="43.75674" lon="1.55405">
        <ele>184.05</ele>
        <time>2023-08-24T07:14:53.727Z</time>
      </trkpt>
      <trkpt lat="43.7568" lon="1.55413">
        <ele>184.16</ele>
        <time>2023-08-24T07:14:55.918Z</time>
      </trkpt>
      <trkpt lat="43.75682" lon="1.55418">
        <ele>184.29001</ele>
        <time>2023-08-24T07:14:57.651Z</time>
      </trkpt>
      <trkpt lat="43.75684" lon="1.55421">
        <ele>184.37</ele>
        <time>2023-08-24T07:14:58.660Z</time>
      </trkpt>
      <trkpt lat="43.75689" lon="1.55434">
        <ele>184.44</ele>
        <time>2023-08-24T07:15:00.600Z</time>
      </trkpt>
      <trkpt lat="43.75689" lon="1.5544">
        <ele>184.62</ele>
        <time>2023-08-24T07:15:02.560Z</time>
      </trkpt>
      <trkpt lat="43.75688" lon="1.5545">
        <ele>184.64</ele>
        <time>2023-08-24T07:15:04.825Z</time>
      </trkpt>
      <trkpt lat="43.75686" lon="1.55453">
        <ele>184.72</ele>
        <time>2023-08-24T07:15:05.923Z</time>
      </trkpt>
      <trkpt lat="43.75682" lon="1.55457">
        <ele>184.83</ele>
        <time>2023-08-24T07:15:07.916Z</time>
      </trkpt>
      <trkpt lat="43.75681" lon="1.55458">
        <ele>185.13</ele>
        <time>2023-08-24T07:15:08.924Z</time>
      </trkpt>
      <trkpt lat="43.75677" lon="1.55461">
        <ele>185.26999</ele>
        <time>2023-08-24T07:15:09.923Z</time>
      </trkpt>
      <trkpt lat="43.75673" lon="1.55463">
        <ele>185.38</ele>
        <time>2023-08-24T07:15:11.924Z</time>
      </trkpt>
      <trkpt lat="43.75667" lon="1.55467">
        <ele>185.55</ele>
        <time>2023-08-24T07:15:12.661Z</time>
      </trkpt>
      <trkpt lat="43.75662" lon="1.55471">
        <ele>185.82</ele>
        <time>2023-08-24T07:15:14.949Z</time>
      </trkpt>
      <trkpt lat="43.75658" lon="1.55473">
        <ele>186.19</ele>
        <time>2023-08-24T07:15:16.534Z</time>
      </trkpt>
      <trkpt lat="43.75655" lon="1.55475">
        <ele>186.36</ele>
        <time>2023-08-24T07:15:17.582Z</time>
      </trkpt>
      <trkpt lat="43.75652" lon="1.55477">
        <ele>186.59</ele>
        <time>2023-08-24T07:15:18.818Z</time>
      </trkpt>
      <trkpt lat="43.75648" lon="1.55481">
        <ele>186.85</ele>
        <time>2023-08-24T07:15:19.714Z</time>
      </trkpt>
      <trkpt lat="43.75642" lon="1.55488">
        <ele>187.13</ele>
        <time>2023-08-24T07:15:21.793Z</time>
      </trkpt>
      <trkpt lat="43.75639" lon="1.55492">
        <ele>187.66</ele>
        <time>2023-08-24T07:15:23.795Z</time>
      </trkpt>
      <trkpt lat="43.75634" lon="1.55502">
        <ele>187.95</ele>
        <time>2023-08-24T07:15:24.729Z</time>
      </trkpt>
      <trkpt lat="43.75631" lon="1.5551">
        <ele>188.19</ele>
        <time>2023-08-24T07:15:26.841Z</time>
      </trkpt>
      <trkpt lat="43.7563" lon="1.55513">
        <ele>188.42</ele>
        <time>2023-08-24T07:15:28.560Z</time>
      </trkpt>
      <trkpt lat="43.75629" lon="1.55516">
        <ele>188.6</ele>
        <time>2023-08-24T07:15:30.091Z</time>
      </trkpt>
      <trkpt lat="43.75628" lon="1.55528">
        <ele>188.88</ele>
        <time>2023-08-24T07:15:31.712Z</time>
      </trkpt>
      <trkpt lat="43.7564" lon="1.5555">
        <ele>188.81</ele>
        <time>2023-08-24T07:15:34.805Z</time>
      </trkpt>
      <trkpt lat="43.7565" lon="1.55567">
        <ele>187.95999</ele>
        <time>2023-08-24T07:15:36.217Z</time>
      </trkpt>
      <trkpt lat="43.75673" lon="1.55603">
        <ele>183.87</ele>
        <time>2023-08-24T07:15:40.845Z</time>
      </trkpt>
      <trkpt lat="43.75681" lon="1.55611">
        <ele>182.91</ele>
        <time>2023-08-24T07:15:41.844Z</time>
      </trkpt>
      <trkpt lat="43.7569" lon="1.55615">
        <ele>181.76001</ele>
        <time>2023-08-24T07:15:42.786Z</time>
      </trkpt>
      <trkpt lat="43.75702" lon="1.5562">
        <ele>180.75</ele>
        <time>2023-08-24T07:15:45.198Z</time>
      </trkpt>
      <trkpt lat="43.75717" lon="1.55624">
        <ele>178.51001</ele>
        <time>2023-08-24T07:15:45.647Z</time>
      </trkpt>
      <trkpt lat="43.75724" lon="1.55627">
        <ele>177.38</ele>
        <time>2023-08-24T07:15:47.294Z</time>
      </trkpt>
      <trkpt lat="43.75743" lon="1.55635">
        <ele>176.42</ele>
        <time>2023-08-24T07:15:48.299Z</time>
      </trkpt>
      <trkpt lat="43.75753" lon="1.5564">
        <ele>175.5</ele>
        <time>2023-08-24T07:15:49.292Z</time>
      </trkpt>
      <trkpt lat="43.75764" lon="1.55646">
        <ele>174.78</ele>
        <time>2023-08-24T07:15:49.617Z</time>
      </trkpt>
      <trkpt lat="43.75774" lon="1.55653">
        <ele>174.12</ele>
        <time>2023-08-24T07:15:51.391Z</time>
      </trkpt>
      <trkpt lat="43.75783" lon="1.55659">
        <ele>173.7</ele>
        <time>2023-08-24T07:15:51.642Z</time>
      </trkpt>
      <trkpt lat="43.75792" lon="1.55665">
        <ele>173.29001</ele>
        <time>2023-08-24T07:15:52.639Z</time>
      </trkpt>
      <trkpt lat="43.758" lon="1.5567">
        <ele>172.98999</ele>
        <time>2023-08-24T07:15:54.585Z</time>
      </trkpt>
      <trkpt lat="43.75808" lon="1.55676">
        <ele>172.62</ele>
        <time>2023-08-24T07:15:54.621Z</time>
      </trkpt>
      <trkpt lat="43.75815" lon="1.55681">
        <ele>172.34</ele>
        <time>2023-08-24T07:15:56.600Z</time>
      </trkpt>
      <trkpt lat="43.75823" lon="1.55686">
        <ele>172.08</ele>
        <time>2023-08-24T07:15:57.462Z</time>
      </trkpt>
      <trkpt lat="43.75832" lon="1.55692">
        <ele>171.86</ele>
        <time>2023-08-24T07:15:58.510Z</time>
      </trkpt>
      <trkpt lat="43.75841" lon="1.55699">
        <ele>171.76999</ele>
        <time>2023-08-24T07:15:59.585Z</time>
      </trkpt>
      <trkpt lat="43.7586" lon="1.5571">
        <ele>171.65</ele>
        <time>2023-08-24T07:16:01.761Z</time>
      </trkpt>
      <trkpt lat="43.7587" lon="1.55718">
        <ele>171.59</ele>
        <time>2023-08-24T07:16:02.801Z</time>
      </trkpt>
      <trkpt lat="43.75882" lon="1.55726">
        <ele>171.57</ele>
        <time>2023-08-24T07:16:04.659Z</time>
      </trkpt>
      <trkpt lat="43.75888" lon="1.55731">
        <ele>171.56</ele>
        <time>2023-08-24T07:16:05.812Z</time>
      </trkpt>
      <trkpt lat="43.75893" lon="1.55735">
        <ele>171.63</ele>
        <time>2023-08-24T07:16:06.326Z</time>
      </trkpt>
      <trkpt lat="43.75907" lon="1.55746">
        <ele>171.63</ele>
        <time>2023-08-24T07:16:08.085Z</time>
      </trkpt>
      <trkpt lat="43.75914" lon="1.55751">
        <ele>171.75</ele>
        <time>2023-08-24T07:16:10.184Z</time>
      </trkpt>
      <trkpt lat="43.75919" lon="1.55755">
        <ele>171.85</ele>
        <time>2023-08-24T07:16:10.768Z</time>
      </trkpt>
      <trkpt lat="43.75925" lon="1.5576">
        <ele>171.95</ele>
        <time>2023-08-24T07:16:11.712Z</time>
      </trkpt>
      <trkpt lat="43.75931" lon="1.55764">
        <ele>172.01999</ele>
        <time>2023-08-24T07:16:13.084Z</time>
      </trkpt>
      <trkpt lat="43.75942" lon="1.55774">
        <ele>172.08</ele>
        <time>2023-08-24T07:16:13.729Z</time>
      </trkpt>
      <trkpt lat="43.75949" lon="1.5578">
        <ele>172.19</ele>
        <time>2023-08-24T07:16:15.772Z</time>
      </trkpt>
      <trkpt lat="43.75957" lon="1.55787">
        <ele>172.19</ele>
        <time>2023-08-24T07:16:18.163Z</time>
      </trkpt>
      <trkpt lat="43.75962" lon="1.55791">
        <ele>172.12</ele>
        <time>2023-08-24T07:16:18.639Z</time>
      </trkpt>
      <trkpt lat="43.75968" lon="1.55796">
        <ele>172.12</ele>
        <time>2023-08-24T07:16:20.153Z</time>
      </trkpt>
      <trkpt lat="43.75974" lon="1.55801">
        <ele>172.12</ele>
        <time>2023-08-24T07:16:20.637Z</time>
      </trkpt>
      <trkpt lat="43.75982" lon="1.5581">
        <ele>172.07</ele>
        <time>2023-08-24T07:16:21.928Z</time>
      </trkpt>
      <trkpt lat="43.7599" lon="1.55818">
        <ele>171.86</ele>
        <time>2023-08-24T07:16:24.124Z</time>
      </trkpt>
      <trkpt lat="43.75997" lon="1.55829">
        <ele>171.73001</ele>
        <time>2023-08-24T07:16:24.625Z</time>
      </trkpt>
      <trkpt lat="43.76004" lon="1.5584">
        <ele>171.32</ele>
        <time>2023-08-24T07:16:26.233Z</time>
      </trkpt>
      <trkpt lat="43.76033" lon="1.55907">
        <ele>170.09</ele>
        <time>2023-08-24T07:16:34.997Z</time>
      </trkpt>
      <trkpt lat="43.76036" lon="1.55914">
        <ele>169.93</ele>
        <time>2023-08-24T07:16:36.011Z</time>
      </trkpt>
      <trkpt lat="43.76044" lon="1.55931">
        <ele>169.86</ele>
        <time>2023-08-24T07:16:37.699Z</time>
      </trkpt>
      <trkpt lat="43.76048" lon="1.55939">
        <ele>169.67</ele>
        <time>2023-08-24T07:16:38.213Z</time>
      </trkpt>
      <trkpt lat="43.76062" lon="1.5596">
        <ele>169.45999</ele>
        <time>2023-08-24T07:16:41.262Z</time>
      </trkpt>
      <trkpt lat="43.76067" lon="1.55966">
        <ele>169.42</ele>
        <time>2023-08-24T07:16:42.244Z</time>
      </trkpt>
      <trkpt lat="43.76072" lon="1.55974">
        <ele>169.32</ele>
        <time>2023-08-24T07:16:43.212Z</time>
      </trkpt>
      <trkpt lat="43.76077" lon="1.5598">
        <ele>169.20999</ele>
        <time>2023-08-24T07:16:44.250Z</time>
      </trkpt>
      <trkpt lat="43.76082" lon="1.55986">
        <ele>169.09</ele>
        <time>2023-08-24T07:16:45.710Z</time>
      </trkpt>
      <trkpt lat="43.76088" lon="1.55992">
        <ele>168.95</ele>
        <time>2023-08-24T07:16:46.696Z</time>
      </trkpt>
      <trkpt lat="43.76098" lon="1.56006">
        <ele>168.82</ele>
        <time>2023-08-24T07:16:48.216Z</time>
      </trkpt>
      <trkpt lat="43.76104" lon="1.56012">
        <ele>168.6</ele>
        <time>2023-08-24T07:16:49.656Z</time>
      </trkpt>
      <trkpt lat="43.76109" lon="1.56019">
        <ele>168.42</ele>
        <time>2023-08-24T07:16:50.391Z</time>
      </trkpt>
      <trkpt lat="43.76115" lon="1.56025">
        <ele>168.34</ele>
        <time>2023-08-24T07:16:51.266Z</time>
      </trkpt>
      <trkpt lat="43.7612" lon="1.56032">
        <ele>168.22</ele>
        <time>2023-08-24T07:16:52.280Z</time>
      </trkpt>
      <trkpt lat="43.76131" lon="1.56045">
        <ele>167.95</ele>
        <time>2023-08-24T07:16:54.499Z</time>
      </trkpt>
      <trkpt lat="43.76136" lon="1.56052">
        <ele>167.88</ele>
        <time>2023-08-24T07:16:55.330Z</time>
      </trkpt>
      <trkpt lat="43.76141" lon="1.56058">
        <ele>167.8</ele>
        <time>2023-08-24T07:16:56.300Z</time>
      </trkpt>
      <trkpt lat="43.76146" lon="1.56065">
        <ele>167.75</ele>
        <time>2023-08-24T07:16:57.351Z</time>
      </trkpt>
      <trkpt lat="43.76151" lon="1.56071">
        <ele>167.67</ele>
        <time>2023-08-24T07:16:58.322Z</time>
      </trkpt>
      <trkpt lat="43.76155" lon="1.56076">
        <ele>167.62</ele>
        <time>2023-08-24T07:16:59.294Z</time>
      </trkpt>
      <trkpt lat="43.76161" lon="1.56083">
        <ele>167.57</ele>
        <time>2023-08-24T07:17:00.339Z</time>
      </trkpt>
      <trkpt lat="43.76166" lon="1.56089">
        <ele>167.5</ele>
        <time>2023-08-24T07:17:01.625Z</time>
      </trkpt>
      <trkpt lat="43.76175" lon="1.56102">
        <ele>167.47</ele>
        <time>2023-08-24T07:17:02.840Z</time>
      </trkpt>
      <trkpt lat="43.76179" lon="1.56108">
        <ele>167.47</ele>
        <time>2023-08-24T07:17:04.023Z</time>
      </trkpt>
      <trkpt lat="43.76187" lon="1.56121">
        <ele>167.43</ele>
        <time>2023-08-24T07:17:05.968Z</time>
      </trkpt>
      <trkpt lat="43.76191" lon="1.56126">
        <ele>167.36</ele>
        <time>2023-08-24T07:17:07.803Z</time>
      </trkpt>
      <trkpt lat="43.76196" lon="1.56132">
        <ele>167.34</ele>
        <time>2023-08-24T07:17:09.079Z</time>
      </trkpt>
      <trkpt lat="43.762" lon="1.56137">
        <ele>167.34</ele>
        <time>2023-08-24T07:17:09.729Z</time>
      </trkpt>
      <trkpt lat="43.76205" lon="1.56141">
        <ele>167.34</ele>
        <time>2023-08-24T07:17:10.683Z</time>
      </trkpt>
      <trkpt lat="43.7621" lon="1.56146">
        <ele>167.37</ele>
        <time>2023-08-24T07:17:11.712Z</time>
      </trkpt>
      <trkpt lat="43.76212" lon="1.56149">
        <ele>167.29001</ele>
        <time>2023-08-24T07:17:12.450Z</time>
      </trkpt>
      <trkpt lat="43.76219" lon="1.56163">
        <ele>167.34</ele>
        <time>2023-08-24T07:17:14.333Z</time>
      </trkpt>
      <trkpt lat="43.7622" lon="1.56174">
        <ele>167.42</ele>
        <time>2023-08-24T07:17:15.191Z</time>
      </trkpt>
      <trkpt lat="43.7622" lon="1.56182">
        <ele>167.37</ele>
        <time>2023-08-24T07:17:16.747Z</time>
      </trkpt>
      <trkpt lat="43.7622" lon="1.5619">
        <ele>167.36</ele>
        <time>2023-08-24T07:17:17.214Z</time>
      </trkpt>
      <trkpt lat="43.76221" lon="1.56198">
        <ele>167.38</ele>
        <time>2023-08-24T07:17:18.488Z</time>
      </trkpt>
      <trkpt lat="43.76221" lon="1.56206">
        <ele>167.38</ele>
        <time>2023-08-24T07:17:19.709Z</time>
      </trkpt>
      <trkpt lat="43.76221" lon="1.56214">
        <ele>167.43</ele>
        <time>2023-08-24T07:17:20.505Z</time>
      </trkpt>
      <trkpt lat="43.76221" lon="1.56224">
        <ele>167.38</ele>
        <time>2023-08-24T07:17:21.472Z</time>
      </trkpt>
      <trkpt lat="43.76221" lon="1.56227">
        <ele>167.37</ele>
        <time>2023-08-24T07:17:22.510Z</time>
      </trkpt>
      <trkpt lat="43.76221" lon="1.56242">
        <ele>167.4</ele>
        <time>2023-08-24T07:17:23.487Z</time>
      </trkpt>
      <trkpt lat="43.76221" lon="1.5626">
        <ele>167.41</ele>
        <time>2023-08-24T07:17:24.925Z</time>
      </trkpt>
      <trkpt lat="43.76221" lon="1.56269">
        <ele>167.4</ele>
        <time>2023-08-24T07:17:25.507Z</time>
      </trkpt>
      <trkpt lat="43.76222" lon="1.56278">
        <ele>167.41</ele>
        <time>2023-08-24T07:17:27.516Z</time>
      </trkpt>
      <trkpt lat="43.76222" lon="1.56287">
        <ele>167.39</ele>
        <time>2023-08-24T07:17:28.484Z</time>
      </trkpt>
      <trkpt lat="43.76222" lon="1.56292">
        <ele>167.36</ele>
        <time>2023-08-24T07:17:29.800Z</time>
      </trkpt>
      <trkpt lat="43.76223" lon="1.56305">
        <ele>167.35</ele>
        <time>2023-08-24T07:17:30.693Z</time>
      </trkpt>
      <trkpt lat="43.76222" lon="1.56315">
        <ele>167.43</ele>
        <time>2023-08-24T07:17:31.773Z</time>
      </trkpt>
      <trkpt lat="43.76221" lon="1.5633">
        <ele>167.4</ele>
        <time>2023-08-24T07:17:33.906Z</time>
      </trkpt>
      <trkpt lat="43.7622" lon="1.56339">
        <ele>167.37</ele>
        <time>2023-08-24T07:17:34.556Z</time>
      </trkpt>
      <trkpt lat="43.7622" lon="1.56348">
        <ele>167.33</ele>
        <time>2023-08-24T07:17:35.632Z</time>
      </trkpt>
      <trkpt lat="43.7622" lon="1.56356">
        <ele>167.36</ele>
        <time>2023-08-24T07:17:36.675Z</time>
      </trkpt>
      <trkpt lat="43.7622" lon="1.56365">
        <ele>167.4</ele>
        <time>2023-08-24T07:17:37.913Z</time>
      </trkpt>
      <trkpt lat="43.7622" lon="1.56374">
        <ele>167.35</ele>
        <time>2023-08-24T07:17:38.793Z</time>
      </trkpt>
      <trkpt lat="43.7622" lon="1.56383">
        <ele>167.36</ele>
        <time>2023-08-24T07:17:39.728Z</time>
      </trkpt>
      <trkpt lat="43.76221" lon="1.564">
        <ele>167.39</ele>
        <time>2023-08-24T07:17:40.907Z</time>
      </trkpt>
      <trkpt lat="43.76221" lon="1.56418">
        <ele>167.42</ele>
        <time>2023-08-24T07:17:42.733Z</time>
      </trkpt>
      <trkpt lat="43.76221" lon="1.56426">
        <ele>167.41</ele>
        <time>2023-08-24T07:17:44.903Z</time>
      </trkpt>
      <trkpt lat="43.76221" lon="1.56435">
        <ele>167.38</ele>
        <time>2023-08-24T07:17:45.727Z</time>
      </trkpt>
      <trkpt lat="43.76222" lon="1.56443">
        <ele>167.4</ele>
        <time>2023-08-24T07:17:46.572Z</time>
      </trkpt>
      <trkpt lat="43.76222" lon="1.5645">
        <ele>167.42</ele>
        <time>2023-08-24T07:17:47.834Z</time>
      </trkpt>
      <trkpt lat="43.76222" lon="1.56456">
        <ele>167.45999</ele>
        <time>2023-08-24T07:17:48.784Z</time>
      </trkpt>
      <trkpt lat="43.76222" lon="1.56463">
        <ele>167.51001</ele>
        <time>2023-08-24T07:17:49.651Z</time>
      </trkpt>
      <trkpt lat="43.76223" lon="1.5647">
        <ele>167.58</ele>
        <time>2023-08-24T07:17:50.716Z</time>
      </trkpt>
      <trkpt lat="43.76223" lon="1.56477">
        <ele>167.63</ele>
        <time>2023-08-24T07:17:51.599Z</time>
      </trkpt>
      <trkpt lat="43.76223" lon="1.56484">
        <ele>167.67</ele>
        <time>2023-08-24T07:17:52.584Z</time>
      </trkpt>
      <trkpt lat="43.76223" lon="1.5649">
        <ele>167.70999</ele>
        <time>2023-08-24T07:17:53.045Z</time>
      </trkpt>
      <trkpt lat="43.76223" lon="1.56502">
        <ele>167.76001</ele>
        <time>2023-08-24T07:17:55.350Z</time>
      </trkpt>
      <trkpt lat="43.76224" lon="1.56507">
        <ele>167.82</ele>
        <time>2023-08-24T07:17:56.402Z</time>
      </trkpt>
      <trkpt lat="43.76224" lon="1.56511">
        <ele>167.81</ele>
        <time>2023-08-24T07:17:57.090Z</time>
      </trkpt>
      <trkpt lat="43.76224" lon="1.56518">
        <ele>167.83</ele>
        <time>2023-08-24T07:17:58.360Z</time>
      </trkpt>
      <trkpt lat="43.76225" lon="1.56523">
        <ele>167.86</ele>
        <time>2023-08-24T07:17:59.101Z</time>
      </trkpt>
      <trkpt lat="43.76225" lon="1.56529">
        <ele>167.83</ele>
        <time>2023-08-24T07:18:00.364Z</time>
      </trkpt>
      <trkpt lat="43.76225" lon="1.56536">
        <ele>167.76001</ele>
        <time>2023-08-24T07:18:01.378Z</time>
      </trkpt>
      <trkpt lat="43.76225" lon="1.56546">
        <ele>167.66</ele>
        <time>2023-08-24T07:18:02.107Z</time>
      </trkpt>
      <trkpt lat="43.76225" lon="1.56555">
        <ele>167.58</ele>
        <time>2023-08-24T07:18:03.377Z</time>
      </trkpt>
      <trkpt lat="43.76223" lon="1.56564">
        <ele>167.51999</ele>
        <time>2023-08-24T07:18:04.102Z</time>
      </trkpt>
      <trkpt lat="43.76222" lon="1.56573">
        <ele>167.41</ele>
        <time>2023-08-24T07:18:05.327Z</time>
      </trkpt>
      <trkpt lat="43.7622" lon="1.56581">
        <ele>167.4</ele>
        <time>2023-08-24T07:18:06.378Z</time>
      </trkpt>
      <trkpt lat="43.76218" lon="1.56588">
        <ele>167.34</ele>
        <time>2023-08-24T07:18:07.296Z</time>
      </trkpt>
      <trkpt lat="43.76216" lon="1.56595">
        <ele>167.3</ele>
        <time>2023-08-24T07:18:07.578Z</time>
      </trkpt>
      <trkpt lat="43.76215" lon="1.56601">
        <ele>167.28</ele>
        <time>2023-08-24T07:18:09.430Z</time>
      </trkpt>
      <trkpt lat="43.76213" lon="1.56606">
        <ele>167.32</ele>
        <time>2023-08-24T07:18:10.624Z</time>
      </trkpt>
      <trkpt lat="43.76214" lon="1.5661">
        <ele>167.33</ele>
        <time>2023-08-24T07:18:12.456Z</time>
      </trkpt>
      <trkpt lat="43.76214" lon="1.56613">
        <ele>167.35</ele>
        <time>2023-08-24T07:18:12.618Z</time>
      </trkpt>
      <trkpt lat="43.76213" lon="1.56617">
        <ele>167.57</ele>
        <time>2023-08-24T07:18:17.328Z</time>
      </trkpt>
      <trkpt lat="43.76213" lon="1.56618">
        <ele>167.57</ele>
        <time>2023-08-24T07:18:18.401Z</time>
      </trkpt>
      <trkpt lat="43.76211" lon="1.56619">
        <ele>167.56</ele>
        <time>2023-08-24T07:18:19.376Z</time>
      </trkpt>
      <trkpt lat="43.7621" lon="1.5662">
        <ele>167.53</ele>
        <time>2023-08-24T07:18:19.734Z</time>
      </trkpt>
      <trkpt lat="43.76207" lon="1.56624">
        <ele>167.45999</ele>
        <time>2023-08-24T07:18:21.488Z</time>
      </trkpt>
      <trkpt lat="43.76204" lon="1.56628">
        <ele>167.45</ele>
        <time>2023-08-24T07:18:22.045Z</time>
      </trkpt>
      <trkpt lat="43.76202" lon="1.56629">
        <ele>167.36</ele>
        <time>2023-08-24T07:18:23.531Z</time>
      </trkpt>
      <trkpt lat="43.76197" lon="1.56631">
        <ele>167.33</ele>
        <time>2023-08-24T07:18:25.448Z</time>
      </trkpt>
      <trkpt lat="43.76194" lon="1.56633">
        <ele>167.32</ele>
        <time>2023-08-24T07:18:25.618Z</time>
      </trkpt>
      <trkpt lat="43.76189" lon="1.56634">
        <ele>167.32</ele>
        <time>2023-08-24T07:18:26.593Z</time>
      </trkpt>
      <trkpt lat="43.76185" lon="1.56636">
        <ele>167.28</ele>
        <time>2023-08-24T07:18:27.642Z</time>
      </trkpt>
      <trkpt lat="43.7618" lon="1.56638">
        <ele>167.3</ele>
        <time>2023-08-24T07:18:28.603Z</time>
      </trkpt>
      <trkpt lat="43.76176" lon="1.56639">
        <ele>167.22</ele>
        <time>2023-08-24T07:18:30.537Z</time>
      </trkpt>
      <trkpt lat="43.76172" lon="1.56643">
        <ele>167.22</ele>
        <time>2023-08-24T07:18:32.554Z</time>
      </trkpt>
      <trkpt lat="43.76168" lon="1.56645">
        <ele>167.29001</ele>
        <time>2023-08-24T07:18:32.635Z</time>
      </trkpt>
      <trkpt lat="43.76165" lon="1.56648">
        <ele>167.43</ele>
        <time>2023-08-24T07:18:33.612Z</time>
      </trkpt>
      <trkpt lat="43.7616" lon="1.56652">
        <ele>167.51001</ele>
        <time>2023-08-24T07:18:34.650Z</time>
      </trkpt>
      <trkpt lat="43.76157" lon="1.56655">
        <ele>167.64</ele>
        <time>2023-08-24T07:18:35.624Z</time>
      </trkpt>
      <trkpt lat="43.76153" lon="1.56658">
        <ele>167.73001</ele>
        <time>2023-08-24T07:18:37.286Z</time>
      </trkpt>
      <trkpt lat="43.76145" lon="1.56664">
        <ele>167.89</ele>
        <time>2023-08-24T07:18:39.508Z</time>
      </trkpt>
      <trkpt lat="43.76132" lon="1.5667">
        <ele>168.15</ele>
        <time>2023-08-24T07:18:41.326Z</time>
      </trkpt>
      <trkpt lat="43.76127" lon="1.56672">
        <ele>168.15</ele>
        <time>2023-08-24T07:18:42.546Z</time>
      </trkpt>
      <trkpt lat="43.76122" lon="1.56675">
        <ele>168.18</ele>
        <time>2023-08-24T07:18:42.650Z</time>
      </trkpt>
      <trkpt lat="43.76115" lon="1.56678">
        <ele>168.14</ele>
        <time>2023-08-24T07:18:43.627Z</time>
      </trkpt>
      <trkpt lat="43.76106" lon="1.56682">
        <ele>168.06</ele>
        <time>2023-08-24T07:18:45.526Z</time>
      </trkpt>
      <trkpt lat="43.761" lon="1.56686">
        <ele>167.98999</ele>
        <time>2023-08-24T07:18:46.454Z</time>
      </trkpt>
      <trkpt lat="43.76095" lon="1.56688">
        <ele>167.92</ele>
        <time>2023-08-24T07:18:46.611Z</time>
      </trkpt>
      <trkpt lat="43.76089" lon="1.56692">
        <ele>167.88</ele>
        <time>2023-08-24T07:18:48.180Z</time>
      </trkpt>
      <trkpt lat="43.76083" lon="1.56695">
        <ele>167.84</ele>
        <time>2023-08-24T07:18:49.525Z</time>
      </trkpt>
      <trkpt lat="43.76077" lon="1.56698">
        <ele>167.81</ele>
        <time>2023-08-24T07:18:49.606Z</time>
      </trkpt>
      <trkpt lat="43.76072" lon="1.567">
        <ele>167.79001</ele>
        <time>2023-08-24T07:18:50.642Z</time>
      </trkpt>
      <trkpt lat="43.76067" lon="1.56703">
        <ele>167.78</ele>
        <time>2023-08-24T07:18:51.618Z</time>
      </trkpt>
      <trkpt lat="43.7606" lon="1.56706">
        <ele>167.76999</ele>
        <time>2023-08-24T07:18:52.632Z</time>
      </trkpt>
      <trkpt lat="43.76054" lon="1.56708">
        <ele>167.81</ele>
        <time>2023-08-24T07:18:53.636Z</time>
      </trkpt>
      <trkpt lat="43.76048" lon="1.5671">
        <ele>167.81</ele>
        <time>2023-08-24T07:18:55.321Z</time>
      </trkpt>
      <trkpt lat="43.76043" lon="1.56712">
        <ele>167.8</ele>
        <time>2023-08-24T07:18:55.619Z</time>
      </trkpt>
      <trkpt lat="43.76036" lon="1.56714">
        <ele>167.89</ele>
        <time>2023-08-24T07:18:56.622Z</time>
      </trkpt>
      <trkpt lat="43.76029" lon="1.56717">
        <ele>167.92</ele>
        <time>2023-08-24T07:18:57.600Z</time>
      </trkpt>
      <trkpt lat="43.76023" lon="1.5672">
        <ele>167.98001</ele>
        <time>2023-08-24T07:18:58.640Z</time>
      </trkpt>
      <trkpt lat="43.76015" lon="1.56724">
        <ele>168.04001</ele>
        <time>2023-08-24T07:19:00.591Z</time>
      </trkpt>
      <trkpt lat="43.76012" lon="1.56726">
        <ele>168.11</ele>
        <time>2023-08-24T07:19:01.642Z</time>
      </trkpt>
      <trkpt lat="43.76004" lon="1.5673">
        <ele>168.19</ele>
        <time>2023-08-24T07:19:02.378Z</time>
      </trkpt>
      <trkpt lat="43.75999" lon="1.56733">
        <ele>168.28</ele>
        <time>2023-08-24T07:19:03.535Z</time>
      </trkpt>
      <trkpt lat="43.75995" lon="1.56736">
        <ele>168.37</ele>
        <time>2023-08-24T07:19:04.507Z</time>
      </trkpt>
      <trkpt lat="43.75992" lon="1.56739">
        <ele>168.44</ele>
        <time>2023-08-24T07:19:05.728Z</time>
      </trkpt>
      <trkpt lat="43.75988" lon="1.56744">
        <ele>168.45</ele>
        <time>2023-08-24T07:19:06.368Z</time>
      </trkpt>
      <trkpt lat="43.75985" lon="1.56746">
        <ele>168.45</ele>
        <time>2023-08-24T07:19:07.379Z</time>
      </trkpt>
      <trkpt lat="43.75982" lon="1.56748">
        <ele>168.45</ele>
        <time>2023-08-24T07:19:08.453Z</time>
      </trkpt>
      <trkpt lat="43.75972" lon="1.56753">
        <ele>168.43</ele>
        <time>2023-08-24T07:19:09.610Z</time>
      </trkpt>
      <trkpt lat="43.75968" lon="1.56755">
        <ele>168.4</ele>
        <time>2023-08-24T07:19:10.499Z</time>
      </trkpt>
      <trkpt lat="43.75961" lon="1.56759">
        <ele>168.4</ele>
        <time>2023-08-24T07:19:11.346Z</time>
      </trkpt>
      <trkpt lat="43.75957" lon="1.56761">
        <ele>168.43</ele>
        <time>2023-08-24T07:19:12.725Z</time>
      </trkpt>
      <trkpt lat="43.75952" lon="1.56764">
        <ele>168.48999</ele>
        <time>2023-08-24T07:19:13.550Z</time>
      </trkpt>
      <trkpt lat="43.75947" lon="1.56766">
        <ele>168.54001</ele>
        <time>2023-08-24T07:19:14.576Z</time>
      </trkpt>
      <trkpt lat="43.75942" lon="1.56769">
        <ele>168.61</ele>
        <time>2023-08-24T07:19:15.321Z</time>
      </trkpt>
      <trkpt lat="43.75937" lon="1.56772">
        <ele>168.61</ele>
        <time>2023-08-24T07:19:16.366Z</time>
      </trkpt>
      <trkpt lat="43.75933" lon="1.56777">
        <ele>168.68</ele>
        <time>2023-08-24T07:19:17.564Z</time>
      </trkpt>
      <trkpt lat="43.75932" lon="1.56778">
        <ele>168.7</ele>
        <time>2023-08-24T07:19:18.881Z</time>
      </trkpt>
      <trkpt lat="43.75927" lon="1.56789">
        <ele>168.69</ele>
        <time>2023-08-24T07:19:19.756Z</time>
      </trkpt>
      <trkpt lat="43.75926" lon="1.56798">
        <ele>168.68</ele>
        <time>2023-08-24T07:19:20.765Z</time>
      </trkpt>
      <trkpt lat="43.75927" lon="1.56804">
        <ele>168.69</ele>
        <time>2023-08-24T07:19:21.486Z</time>
      </trkpt>
      <trkpt lat="43.75929" lon="1.56812">
        <ele>168.69</ele>
        <time>2023-08-24T07:19:22.482Z</time>
      </trkpt>
      <trkpt lat="43.75932" lon="1.5682">
        <ele>168.68</ele>
        <time>2023-08-24T07:19:23.878Z</time>
      </trkpt>
      <trkpt lat="43.75934" lon="1.56826">
        <ele>168.65</ele>
        <time>2023-08-24T07:19:24.487Z</time>
      </trkpt>
      <trkpt lat="43.75938" lon="1.56834">
        <ele>168.64</ele>
        <time>2023-08-24T07:19:25.930Z</time>
      </trkpt>
      <trkpt lat="43.75944" lon="1.56847">
        <ele>168.65</ele>
        <time>2023-08-24T07:19:26.567Z</time>
      </trkpt>
      <trkpt lat="43.75949" lon="1.56857">
        <ele>168.62</ele>
        <time>2023-08-24T07:19:28.771Z</time>
      </trkpt>
      <trkpt lat="43.75952" lon="1.56864">
        <ele>168.64</ele>
        <time>2023-08-24T07:19:29.786Z</time>
      </trkpt>
      <trkpt lat="43.75955" lon="1.56872">
        <ele>168.68</ele>
        <time>2023-08-24T07:19:30.797Z</time>
      </trkpt>
      <trkpt lat="43.75958" lon="1.56879">
        <ele>168.72</ele>
        <time>2023-08-24T07:19:31.888Z</time>
      </trkpt>
      <trkpt lat="43.75961" lon="1.56885">
        <ele>168.82</ele>
        <time>2023-08-24T07:19:32.664Z</time>
      </trkpt>
      <trkpt lat="43.75964" lon="1.56892">
        <ele>168.85</ele>
        <time>2023-08-24T07:19:33.744Z</time>
      </trkpt>
      <trkpt lat="43.75967" lon="1.56899">
        <ele>168.84</ele>
        <time>2023-08-24T07:19:34.677Z</time>
      </trkpt>
      <trkpt lat="43.75968" lon="1.56901">
        <ele>168.8</ele>
        <time>2023-08-24T07:19:35.859Z</time>
      </trkpt>
      <trkpt lat="43.75974" lon="1.56914">
        <ele>168.73001</ele>
        <time>2023-08-24T07:19:36.917Z</time>
      </trkpt>
      <trkpt lat="43.75978" lon="1.56922">
        <ele>168.68</ele>
        <time>2023-08-24T07:19:37.585Z</time>
      </trkpt>
      <trkpt lat="43.75977" lon="1.5692">
        <ele>168.62</ele>
        <time>2023-08-24T07:19:38.392Z</time>
      </trkpt>
      <trkpt lat="43.75984" lon="1.56936">
        <ele>168.55</ele>
        <time>2023-08-24T07:19:39.865Z</time>
      </trkpt>
      <trkpt lat="43.75988" lon="1.56945">
        <ele>168.54001</ele>
        <time>2023-08-24T07:19:40.861Z</time>
      </trkpt>
      <trkpt lat="43.75992" lon="1.56953">
        <ele>168.69</ele>
        <time>2023-08-24T07:19:41.629Z</time>
      </trkpt>
      <trkpt lat="43.75998" lon="1.56968">
        <ele>168.8</ele>
        <time>2023-08-24T07:19:43.935Z</time>
      </trkpt>
      <trkpt lat="43.76002" lon="1.56976">
        <ele>168.82</ele>
        <time>2023-08-24T07:19:44.597Z</time>
      </trkpt>
      <trkpt lat="43.76009" lon="1.56993">
        <ele>168.68</ele>
        <time>2023-08-24T07:19:45.920Z</time>
      </trkpt>
      <trkpt lat="43.76014" lon="1.57002">
        <ele>168.28</ele>
        <time>2023-08-24T07:19:47.939Z</time>
      </trkpt>
      <trkpt lat="43.76017" lon="1.5701">
        <ele>168.11</ele>
        <time>2023-08-24T07:19:48.602Z</time>
      </trkpt>
      <trkpt lat="43.7602" lon="1.57016">
        <ele>167.93</ele>
        <time>2023-08-24T07:19:49.639Z</time>
      </trkpt>
      <trkpt lat="43.76023" lon="1.57024">
        <ele>167.87</ele>
        <time>2023-08-24T07:19:50.942Z</time>
      </trkpt>
      <trkpt lat="43.7603" lon="1.57038">
        <ele>167.93</ele>
        <time>2023-08-24T07:19:51.630Z</time>
      </trkpt>
      <trkpt lat="43.76036" lon="1.5705">
        <ele>168.04001</ele>
        <time>2023-08-24T07:19:52.889Z</time>
      </trkpt>
      <trkpt lat="43.76042" lon="1.57063">
        <ele>168.28</ele>
        <time>2023-08-24T07:19:53.973Z</time>
      </trkpt>
      <trkpt lat="43.7605" lon="1.57078">
        <ele>168.43</ele>
        <time>2023-08-24T07:19:55.716Z</time>
      </trkpt>
      <trkpt lat="43.76053" lon="1.57084">
        <ele>168.78</ele>
        <time>2023-08-24T07:19:57.760Z</time>
      </trkpt>
      <trkpt lat="43.76056" lon="1.5709">
        <ele>168.94</ele>
        <time>2023-08-24T07:19:58.700Z</time>
      </trkpt>
      <trkpt lat="43.76059" lon="1.57097">
        <ele>169.05</ele>
        <time>2023-08-24T07:19:59.769Z</time>
      </trkpt>
      <trkpt lat="43.76065" lon="1.57111">
        <ele>169.1</ele>
        <time>2023-08-24T07:20:00.720Z</time>
      </trkpt>
      <trkpt lat="43.76068" lon="1.5712">
        <ele>169.12</ele>
        <time>2023-08-24T07:20:01.691Z</time>
      </trkpt>
      <trkpt lat="43.76072" lon="1.57127">
        <ele>169.07</ele>
        <time>2023-08-24T07:20:02.730Z</time>
      </trkpt>
      <trkpt lat="43.76077" lon="1.57139">
        <ele>169.01001</ele>
        <time>2023-08-24T07:20:05.060Z</time>
      </trkpt>
      <trkpt lat="43.76083" lon="1.5715">
        <ele>168.62</ele>
        <time>2023-08-24T07:20:06.079Z</time>
      </trkpt>
      <trkpt lat="43.76088" lon="1.57162">
        <ele>168.45999</ele>
        <time>2023-08-24T07:20:08.120Z</time>
      </trkpt>
      <trkpt lat="43.76093" lon="1.57174">
        <ele>168.07</ele>
        <time>2023-08-24T07:20:09.162Z</time>
      </trkpt>
      <trkpt lat="43.76098" lon="1.57188">
        <ele>167.79001</ele>
        <time>2023-08-24T07:20:10.894Z</time>
      </trkpt>
      <trkpt lat="43.76102" lon="1.57199">
        <ele>167.23001</ele>
        <time>2023-08-24T07:20:11.890Z</time>
      </trkpt>
      <trkpt lat="43.76106" lon="1.57207">
        <ele>167</ele>
        <time>2023-08-24T07:20:13.382Z</time>
      </trkpt>
      <trkpt lat="43.76108" lon="1.5721">
        <ele>166.79001</ele>
        <time>2023-08-24T07:20:14.318Z</time>
      </trkpt>
      <trkpt lat="43.76117" lon="1.5723">
        <ele>166.65</ele>
        <time>2023-08-24T07:20:15.625Z</time>
      </trkpt>
      <trkpt lat="43.76121" lon="1.5724">
        <ele>166.54001</ele>
        <time>2023-08-24T07:20:17.378Z</time>
      </trkpt>
      <trkpt lat="43.76123" lon="1.57244">
        <ele>166.70999</ele>
        <time>2023-08-24T07:20:18.982Z</time>
      </trkpt>
      <trkpt lat="43.7613" lon="1.57258">
        <ele>166.9</ele>
        <time>2023-08-24T07:20:19.393Z</time>
      </trkpt>
      <trkpt lat="43.76138" lon="1.57268">
        <ele>167.44</ele>
        <time>2023-08-24T07:20:21.964Z</time>
      </trkpt>
      <trkpt lat="43.7614" lon="1.57272">
        <ele>167.98999</ele>
        <time>2023-08-24T07:20:23.054Z</time>
      </trkpt>
      <trkpt lat="43.76144" lon="1.57281">
        <ele>168.23001</ele>
        <time>2023-08-24T07:20:24.056Z</time>
      </trkpt>
      <trkpt lat="43.76147" lon="1.57287">
        <ele>168.45</ele>
        <time>2023-08-24T07:20:25.396Z</time>
      </trkpt>
      <trkpt lat="43.76152" lon="1.573">
        <ele>168.68</ele>
        <time>2023-08-24T07:20:27.098Z</time>
      </trkpt>
      <trkpt lat="43.76155" lon="1.57306">
        <ele>169.14</ele>
        <time>2023-08-24T07:20:29.053Z</time>
      </trkpt>
      <trkpt lat="43.76157" lon="1.57312">
        <ele>169.33</ele>
        <time>2023-08-24T07:20:29.540Z</time>
      </trkpt>
      <trkpt lat="43.7616" lon="1.57318">
        <ele>169.43</ele>
        <time>2023-08-24T07:20:30.410Z</time>
      </trkpt>
      <trkpt lat="43.76164" lon="1.57329">
        <ele>169.53</ele>
        <time>2023-08-24T07:20:31.892Z</time>
      </trkpt>
      <trkpt lat="43.76169" lon="1.5734">
        <ele>169.58</ele>
        <time>2023-08-24T07:20:33.903Z</time>
      </trkpt>
      <trkpt lat="43.76171" lon="1.57344">
        <ele>169.56</ele>
        <time>2023-08-24T07:20:34.633Z</time>
      </trkpt>
      <trkpt lat="43.76175" lon="1.57354">
        <ele>169.61</ele>
        <time>2023-08-24T07:20:35.656Z</time>
      </trkpt>
      <trkpt lat="43.76178" lon="1.57358">
        <ele>169.59</ele>
        <time>2023-08-24T07:20:36.440Z</time>
      </trkpt>
      <trkpt lat="43.76183" lon="1.5737">
        <ele>169.54001</ele>
        <time>2023-08-24T07:20:37.587Z</time>
      </trkpt>
      <trkpt lat="43.76186" lon="1.57378">
        <ele>169.44</ele>
        <time>2023-08-24T07:20:38.646Z</time>
      </trkpt>
      <trkpt lat="43.76189" lon="1.57386">
        <ele>169.41</ele>
        <time>2023-08-24T07:20:39.029Z</time>
      </trkpt>
      <trkpt lat="43.76193" lon="1.57393">
        <ele>169.32</ele>
        <time>2023-08-24T07:20:39.983Z</time>
      </trkpt>
      <trkpt lat="43.76196" lon="1.57399">
        <ele>169.39</ele>
        <time>2023-08-24T07:20:41.632Z</time>
      </trkpt>
      <trkpt lat="43.76202" lon="1.57411">
        <ele>169.48999</ele>
        <time>2023-08-24T07:20:42.488Z</time>
      </trkpt>
      <trkpt lat="43.76207" lon="1.57421">
        <ele>169.68</ele>
        <time>2023-08-24T07:20:43.616Z</time>
      </trkpt>
      <trkpt lat="43.7621" lon="1.57429">
        <ele>169.83</ele>
        <time>2023-08-24T07:20:45.465Z</time>
      </trkpt>
      <trkpt lat="43.76214" lon="1.57436">
        <ele>169.98001</ele>
        <time>2023-08-24T07:20:46.030Z</time>
      </trkpt>
      <trkpt lat="43.76217" lon="1.57443">
        <ele>170.12</ele>
        <time>2023-08-24T07:20:47.387Z</time>
      </trkpt>
      <trkpt lat="43.7622" lon="1.57451">
        <ele>170.22</ele>
        <time>2023-08-24T07:20:47.987Z</time>
      </trkpt>
      <trkpt lat="43.76223" lon="1.57458">
        <ele>170.33</ele>
        <time>2023-08-24T07:20:49.015Z</time>
      </trkpt>
      <trkpt lat="43.76226" lon="1.57465">
        <ele>170.43</ele>
        <time>2023-08-24T07:20:50.176Z</time>
      </trkpt>
      <trkpt lat="43.76231" lon="1.57477">
        <ele>170.53</ele>
        <time>2023-08-24T07:20:52.283Z</time>
      </trkpt>
      <trkpt lat="43.76234" lon="1.57483">
        <ele>170.73001</ele>
        <time>2023-08-24T07:20:53.089Z</time>
      </trkpt>
      <trkpt lat="43.76236" lon="1.57488">
        <ele>170.8</ele>
        <time>2023-08-24T07:20:54.128Z</time>
      </trkpt>
      <trkpt lat="43.76239" lon="1.57495">
        <ele>170.9</ele>
        <time>2023-08-24T07:20:55.090Z</time>
      </trkpt>
      <trkpt lat="43.76242" lon="1.575">
        <ele>170.98001</ele>
        <time>2023-08-24T07:20:55.644Z</time>
      </trkpt>
      <trkpt lat="43.76245" lon="1.57506">
        <ele>171.04001</ele>
        <time>2023-08-24T07:20:57.342Z</time>
      </trkpt>
      <trkpt lat="43.76248" lon="1.57512">
        <ele>171.06</ele>
        <time>2023-08-24T07:20:57.590Z</time>
      </trkpt>
      <trkpt lat="43.7625" lon="1.57516">
        <ele>171.11</ele>
        <time>2023-08-24T07:21:00.421Z</time>
      </trkpt>
      <trkpt lat="43.76258" lon="1.57534">
        <ele>171.26001</ele>
        <time>2023-08-24T07:21:01.628Z</time>
      </trkpt>
      <trkpt lat="43.76265" lon="1.57551">
        <ele>171.3</ele>
        <time>2023-08-24T07:21:04.424Z</time>
      </trkpt>
      <trkpt lat="43.76271" lon="1.57562">
        <ele>171.43</ele>
        <time>2023-08-24T07:21:05.390Z</time>
      </trkpt>
      <trkpt lat="43.76276" lon="1.57575">
        <ele>171.48999</ele>
        <time>2023-08-24T07:21:08.195Z</time>
      </trkpt>
      <trkpt lat="43.76283" lon="1.57588">
        <ele>171.51001</ele>
        <time>2023-08-24T07:21:09.840Z</time>
      </trkpt>
      <trkpt lat="43.76286" lon="1.57595">
        <ele>171.5</ele>
        <time>2023-08-24T07:21:10.883Z</time>
      </trkpt>
      <trkpt lat="43.76287" lon="1.57598">
        <ele>171.5</ele>
        <time>2023-08-24T07:21:11.639Z</time>
      </trkpt>
      <trkpt lat="43.76295" lon="1.57614">
        <ele>171.53</ele>
        <time>2023-08-24T07:21:12.416Z</time>
      </trkpt>
      <trkpt lat="43.76302" lon="1.5763">
        <ele>171.55</ele>
        <time>2023-08-24T07:21:13.843Z</time>
      </trkpt>
      <trkpt lat="43.76304" lon="1.57638">
        <ele>171.54001</ele>
        <time>2023-08-24T07:21:15.396Z</time>
      </trkpt>
      <trkpt lat="43.76303" lon="1.57651">
        <ele>171.48001</ele>
        <time>2023-08-24T07:21:17.243Z</time>
      </trkpt>
      <trkpt lat="43.76303" lon="1.57656">
        <ele>171.47</ele>
        <time>2023-08-24T07:21:17.773Z</time>
      </trkpt>
      <trkpt lat="43.76301" lon="1.57661">
        <ele>171.47</ele>
        <time>2023-08-24T07:21:19.172Z</time>
      </trkpt>
      <trkpt lat="43.763" lon="1.57668">
        <ele>171.4</ele>
        <time>2023-08-24T07:21:19.384Z</time>
      </trkpt>
      <trkpt lat="43.76297" lon="1.57676">
        <ele>171.36</ele>
        <time>2023-08-24T07:21:20.902Z</time>
      </trkpt>
      <trkpt lat="43.76297" lon="1.57677">
        <ele>171.29001</ele>
        <time>2023-08-24T07:21:21.870Z</time>
      </trkpt>
      <trkpt lat="43.76293" lon="1.57691">
        <ele>171.3</ele>
        <time>2023-08-24T07:21:23.266Z</time>
      </trkpt>
      <trkpt lat="43.76292" lon="1.577">
        <ele>171.23001</ele>
        <time>2023-08-24T07:21:23.877Z</time>
      </trkpt>
      <trkpt lat="43.76292" lon="1.57699">
        <ele>171.14</ele>
        <time>2023-08-24T07:21:24.930Z</time>
      </trkpt>
      <trkpt lat="43.76291" lon="1.57715">
        <ele>170.98999</ele>
        <time>2023-08-24T07:21:25.905Z</time>
      </trkpt>
      <trkpt lat="43.76289" lon="1.57724">
        <ele>170.84</ele>
        <time>2023-08-24T07:21:26.907Z</time>
      </trkpt>
      <trkpt lat="43.76287" lon="1.57731">
        <ele>170.61</ele>
        <time>2023-08-24T07:21:27.932Z</time>
      </trkpt>
      <trkpt lat="43.76284" lon="1.57739">
        <ele>170.45999</ele>
        <time>2023-08-24T07:21:29.373Z</time>
      </trkpt>
      <trkpt lat="43.76282" lon="1.57746">
        <ele>170.23999</ele>
        <time>2023-08-24T07:21:29.928Z</time>
      </trkpt>
      <trkpt lat="43.76279" lon="1.57753">
        <ele>169.98001</ele>
        <time>2023-08-24T07:21:32.379Z</time>
      </trkpt>
      <trkpt lat="43.76273" lon="1.5778">
        <ele>169.73001</ele>
        <time>2023-08-24T07:21:34.378Z</time>
      </trkpt>
      <trkpt lat="43.7627" lon="1.5779">
        <ele>168.98999</ele>
        <time>2023-08-24T07:21:34.880Z</time>
      </trkpt>
      <trkpt lat="43.76263" lon="1.57804">
        <ele>168.8</ele>
        <time>2023-08-24T07:21:37.178Z</time>
      </trkpt>
      <trkpt lat="43.76261" lon="1.57807">
        <ele>168.54001</ele>
        <time>2023-08-24T07:21:38.613Z</time>
      </trkpt>
      <trkpt lat="43.76251" lon="1.57815">
        <ele>168.48001</ele>
        <time>2023-08-24T07:21:39.884Z</time>
      </trkpt>
      <trkpt lat="43.76246" lon="1.57818">
        <ele>168.45</ele>
        <time>2023-08-24T07:21:40.450Z</time>
      </trkpt>
      <trkpt lat="43.76241" lon="1.57821">
        <ele>168.58</ele>
        <time>2023-08-24T07:21:41.729Z</time>
      </trkpt>
      <trkpt lat="43.76237" lon="1.57824">
        <ele>168.69</ele>
        <time>2023-08-24T07:21:42.449Z</time>
      </trkpt>
      <trkpt lat="43.76234" lon="1.57826">
        <ele>168.81</ele>
        <time>2023-08-24T07:21:43.650Z</time>
      </trkpt>
      <trkpt lat="43.7623" lon="1.57828">
        <ele>168.93</ele>
        <time>2023-08-24T07:21:44.583Z</time>
      </trkpt>
      <trkpt lat="43.76226" lon="1.57831">
        <ele>169.06</ele>
        <time>2023-08-24T07:21:45.428Z</time>
      </trkpt>
      <trkpt lat="43.76223" lon="1.57833">
        <ele>169.11</ele>
        <time>2023-08-24T07:21:46.679Z</time>
      </trkpt>
      <trkpt lat="43.76219" lon="1.57837">
        <ele>169.2</ele>
        <time>2023-08-24T07:21:47.684Z</time>
      </trkpt>
      <trkpt lat="43.76215" lon="1.5784">
        <ele>169.23999</ele>
        <time>2023-08-24T07:21:49.888Z</time>
      </trkpt>
      <trkpt lat="43.76211" lon="1.57845">
        <ele>169.3</ele>
        <time>2023-08-24T07:21:50.883Z</time>
      </trkpt>
      <trkpt lat="43.76208" lon="1.57851">
        <ele>169.44</ele>
        <time>2023-08-24T07:21:51.674Z</time>
      </trkpt>
      <trkpt lat="43.76206" lon="1.57855">
        <ele>169.59</ele>
        <time>2023-08-24T07:21:52.496Z</time>
      </trkpt>
      <trkpt lat="43.76203" lon="1.57866">
        <ele>169.67</ele>
        <time>2023-08-24T07:21:53.428Z</time>
      </trkpt>
      <trkpt lat="43.762" lon="1.57881">
        <ele>169.78</ele>
        <time>2023-08-24T07:21:55.480Z</time>
      </trkpt>
      <trkpt lat="43.76197" lon="1.57892">
        <ele>169.92</ele>
        <time>2023-08-24T07:21:56.416Z</time>
      </trkpt>
      <trkpt lat="43.76196" lon="1.57898">
        <ele>170.07</ele>
        <time>2023-08-24T07:21:57.392Z</time>
      </trkpt>
      <trkpt lat="43.76193" lon="1.57906">
        <ele>170.17</ele>
        <time>2023-08-24T07:21:58.913Z</time>
      </trkpt>
      <trkpt lat="43.76191" lon="1.57919">
        <ele>170.28</ele>
        <time>2023-08-24T07:22:00.734Z</time>
      </trkpt>
      <trkpt lat="43.76194" lon="1.57926">
        <ele>170.39</ele>
        <time>2023-08-24T07:22:01.914Z</time>
      </trkpt>
      <trkpt lat="43.76197" lon="1.57932">
        <ele>170.45</ele>
        <time>2023-08-24T07:22:03.439Z</time>
      </trkpt>
      <trkpt lat="43.76196" lon="1.57929">
        <ele>170.29001</ele>
        <time>2023-08-24T07:22:04.834Z</time>
      </trkpt>
      <trkpt lat="43.76202" lon="1.57942">
        <ele>170.18</ele>
        <time>2023-08-24T07:22:05.495Z</time>
      </trkpt>
      <trkpt lat="43.76208" lon="1.57958">
        <ele>170.03</ele>
        <time>2023-08-24T07:22:06.810Z</time>
      </trkpt>
      <trkpt lat="43.76211" lon="1.57969">
        <ele>169.84</ele>
        <time>2023-08-24T07:22:08.444Z</time>
      </trkpt>
      <trkpt lat="43.76213" lon="1.57984">
        <ele>169.67</ele>
        <time>2023-08-24T07:22:10.821Z</time>
      </trkpt>
      <trkpt lat="43.76215" lon="1.57993">
        <ele>169.39</ele>
        <time>2023-08-24T07:22:11.470Z</time>
      </trkpt>
      <trkpt lat="43.76219" lon="1.58006">
        <ele>169.20999</ele>
        <time>2023-08-24T07:22:13.248Z</time>
      </trkpt>
      <trkpt lat="43.76223" lon="1.58015">
        <ele>168.83</ele>
        <time>2023-08-24T07:22:13.939Z</time>
      </trkpt>
      <trkpt lat="43.76225" lon="1.58018">
        <ele>168.64</ele>
        <time>2023-08-24T07:22:15.043Z</time>
      </trkpt>
      <trkpt lat="43.7623" lon="1.58032">
        <ele>168.44</ele>
        <time>2023-08-24T07:22:15.920Z</time>
      </trkpt>
      <trkpt lat="43.76234" lon="1.58044">
        <ele>168.26001</ele>
        <time>2023-08-24T07:22:18.269Z</time>
      </trkpt>
      <trkpt lat="43.76238" lon="1.58058">
        <ele>167.94</ele>
        <time>2023-08-24T07:22:19.313Z</time>
      </trkpt>
      <trkpt lat="43.76239" lon="1.5806">
        <ele>167.8</ele>
        <time>2023-08-24T07:22:19.916Z</time>
      </trkpt>
      <trkpt lat="43.76242" lon="1.58073">
        <ele>167.63</ele>
        <time>2023-08-24T07:22:21.420Z</time>
      </trkpt>
      <trkpt lat="43.76245" lon="1.58081">
        <ele>167.48999</ele>
        <time>2023-08-24T07:22:21.605Z</time>
      </trkpt>
      <trkpt lat="43.76248" lon="1.58088">
        <ele>167.34</ele>
        <time>2023-08-24T07:22:23.345Z</time>
      </trkpt>
      <trkpt lat="43.76252" lon="1.58094">
        <ele>167.2</ele>
        <time>2023-08-24T07:22:24.089Z</time>
      </trkpt>
      <trkpt lat="43.76255" lon="1.58098">
        <ele>167.1</ele>
        <time>2023-08-24T07:22:25.351Z</time>
      </trkpt>
      <trkpt lat="43.76258" lon="1.58102">
        <ele>167.05</ele>
        <time>2023-08-24T07:22:26.427Z</time>
      </trkpt>
      <trkpt lat="43.7626" lon="1.58106">
        <ele>166.97</ele>
        <time>2023-08-24T07:22:26.611Z</time>
      </trkpt>
      <trkpt lat="43.76263" lon="1.58109">
        <ele>166.95999</ele>
        <time>2023-08-24T07:22:28.389Z</time>
      </trkpt>
      <trkpt lat="43.76265" lon="1.58112">
        <ele>166.88</ele>
        <time>2023-08-24T07:22:29.321Z</time>
      </trkpt>
      <trkpt lat="43.76266" lon="1.58114">
        <ele>166.83</ele>
        <time>2023-08-24T07:22:30.153Z</time>
      </trkpt>
      <trkpt lat="43.76271" lon="1.58113">
        <ele>166.76999</ele>
        <time>2023-08-24T07:22:32.075Z</time>
      </trkpt>
      <trkpt lat="43.76274" lon="1.58111">
        <ele>166.75</ele>
        <time>2023-08-24T07:22:34.425Z</time>
      </trkpt>
      <trkpt lat="43.76276" lon="1.58111">
        <ele>166.68</ele>
        <time>2023-08-24T07:22:35.190Z</time>
      </trkpt>
      <trkpt lat="43.76278" lon="1.58109">
        <ele>166.63</ele>
        <time>2023-08-24T07:22:36.278Z</time>
      </trkpt>
      <trkpt lat="43.76281" lon="1.58108">
        <ele>166.53</ele>
        <time>2023-08-24T07:22:36.584Z</time>
      </trkpt>
      <trkpt lat="43.76283" lon="1.58106">
        <ele>166.45</ele>
        <time>2023-08-24T07:22:37.593Z</time>
      </trkpt>
      <trkpt lat="43.76284" lon="1.58106">
        <ele>166.35</ele>
        <time>2023-08-24T07:22:39.336Z</time>
      </trkpt>
      <trkpt lat="43.76286" lon="1.58106">
        <ele>166.23999</ele>
        <time>2023-08-24T07:22:39.614Z</time>
      </trkpt>
      <trkpt lat="43.76287" lon="1.58109">
        <ele>166.03</ele>
        <time>2023-08-24T07:22:42.297Z</time>
      </trkpt>
      <trkpt lat="43.76289" lon="1.58113">
        <ele>165.9</ele>
        <time>2023-08-24T07:22:42.605Z</time>
      </trkpt>
      <trkpt lat="43.7629" lon="1.58118">
        <ele>165.73999</ele>
        <time>2023-08-24T07:22:43.581Z</time>
      </trkpt>
      <trkpt lat="43.76291" lon="1.58123">
        <ele>165.67</ele>
        <time>2023-08-24T07:22:44.618Z</time>
      </trkpt>
      <trkpt lat="43.76294" lon="1.58135">
        <ele>165.6</ele>
        <time>2023-08-24T07:22:46.575Z</time>
      </trkpt>
      <trkpt lat="43.76296" lon="1.5814">
        <ele>165.64</ele>
        <time>2023-08-24T07:22:47.574Z</time>
      </trkpt>
      <trkpt lat="43.76299" lon="1.58145">
        <ele>165.54001</ele>
        <time>2023-08-24T07:22:49.620Z</time>
      </trkpt>
      <trkpt lat="43.76306" lon="1.58157">
        <ele>165.12</ele>
        <time>2023-08-24T07:22:51.568Z</time>
      </trkpt>
      <trkpt lat="43.7631" lon="1.58163">
        <ele>164.45</ele>
        <time>2023-08-24T07:22:52.637Z</time>
      </trkpt>
      <trkpt lat="43.76313" lon="1.58168">
        <ele>163.98001</ele>
        <time>2023-08-24T07:22:53.609Z</time>
      </trkpt>
      <trkpt lat="43.76317" lon="1.58174">
        <ele>163.48001</ele>
        <time>2023-08-24T07:22:54.664Z</time>
      </trkpt>
      <trkpt lat="43.76321" lon="1.58181">
        <ele>163.01001</ele>
        <time>2023-08-24T07:22:55.439Z</time>
      </trkpt>
      <trkpt lat="43.76326" lon="1.58188">
        <ele>162.63</ele>
        <time>2023-08-24T07:22:56.449Z</time>
      </trkpt>
      <trkpt lat="43.7633" lon="1.58195">
        <ele>162.31</ele>
        <time>2023-08-24T07:22:57.419Z</time>
      </trkpt>
      <trkpt lat="43.76335" lon="1.58203">
        <ele>162.07</ele>
        <time>2023-08-24T07:22:58.560Z</time>
      </trkpt>
      <trkpt lat="43.76339" lon="1.58211">
        <ele>161.87</ele>
        <time>2023-08-24T07:22:59.601Z</time>
      </trkpt>
      <trkpt lat="43.76342" lon="1.58219">
        <ele>161.66</ele>
        <time>2023-08-24T07:23:00.658Z</time>
      </trkpt>
      <trkpt lat="43.76345" lon="1.58227">
        <ele>161.64</ele>
        <time>2023-08-24T07:23:01.564Z</time>
      </trkpt>
      <trkpt lat="43.76347" lon="1.58232">
        <ele>161.45999</ele>
        <time>2023-08-24T07:23:02.426Z</time>
      </trkpt>
      <trkpt lat="43.7635" lon="1.58237">
        <ele>161.19</ele>
        <time>2023-08-24T07:23:03.330Z</time>
      </trkpt>
      <trkpt lat="43.76354" lon="1.58245">
        <ele>160.92</ele>
        <time>2023-08-24T07:23:04.504Z</time>
      </trkpt>
      <trkpt lat="43.76358" lon="1.58252">
        <ele>160.73001</ele>
        <time>2023-08-24T07:23:05.326Z</time>
      </trkpt>
      <trkpt lat="43.76363" lon="1.58259">
        <ele>160.45999</ele>
        <time>2023-08-24T07:23:06.446Z</time>
      </trkpt>
      <trkpt lat="43.76364" lon="1.5826">
        <ele>160.13</ele>
        <time>2023-08-24T07:23:07.337Z</time>
      </trkpt>
      <trkpt lat="43.76373" lon="1.58273">
        <ele>160.13</ele>
        <time>2023-08-24T07:23:08.541Z</time>
      </trkpt>
      <trkpt lat="43.76378" lon="1.58282">
        <ele>159.42</ele>
        <time>2023-08-24T07:23:09.537Z</time>
      </trkpt>
      <trkpt lat="43.76383" lon="1.58289">
        <ele>159.18</ele>
        <time>2023-08-24T07:23:10.491Z</time>
      </trkpt>
      <trkpt lat="43.76389" lon="1.58296">
        <ele>158.8</ele>
        <time>2023-08-24T07:23:11.437Z</time>
      </trkpt>
      <trkpt lat="43.76394" lon="1.58304">
        <ele>158.48999</ele>
        <time>2023-08-24T07:23:12.435Z</time>
      </trkpt>
      <trkpt lat="43.76399" lon="1.58311">
        <ele>158.23999</ele>
        <time>2023-08-24T07:23:13.444Z</time>
      </trkpt>
      <trkpt lat="43.76404" lon="1.58318">
        <ele>158.06</ele>
        <time>2023-08-24T07:23:14.947Z</time>
      </trkpt>
      <trkpt lat="43.76408" lon="1.58324">
        <ele>157.70999</ele>
        <time>2023-08-24T07:23:16.152Z</time>
      </trkpt>
      <trkpt lat="43.76418" lon="1.58341">
        <ele>157.45</ele>
        <time>2023-08-24T07:23:16.742Z</time>
      </trkpt>
      <trkpt lat="43.76422" lon="1.58349">
        <ele>157.31</ele>
        <time>2023-08-24T07:23:17.715Z</time>
      </trkpt>
      <trkpt lat="43.76426" lon="1.58354">
        <ele>157.15</ele>
        <time>2023-08-24T07:23:19.743Z</time>
      </trkpt>
      <trkpt lat="43.76429" lon="1.5836">
        <ele>156.95999</ele>
        <time>2023-08-24T07:23:20.897Z</time>
      </trkpt>
      <trkpt lat="43.76437" lon="1.58376">
        <ele>156.81</ele>
        <time>2023-08-24T07:23:21.741Z</time>
      </trkpt>
      <trkpt lat="43.7644" lon="1.58384">
        <ele>156.25</ele>
        <time>2023-08-24T07:23:23.160Z</time>
      </trkpt>
      <trkpt lat="43.76443" lon="1.58393">
        <ele>155.98999</ele>
        <time>2023-08-24T07:23:23.721Z</time>
      </trkpt>
      <trkpt lat="43.76445" lon="1.58398">
        <ele>155.73999</ele>
        <time>2023-08-24T07:23:26.057Z</time>
      </trkpt>
      <trkpt lat="43.76451" lon="1.58418">
        <ele>155.48999</ele>
        <time>2023-08-24T07:23:26.746Z</time>
      </trkpt>
      <trkpt lat="43.76454" lon="1.58427">
        <ele>155.35</ele>
        <time>2023-08-24T07:23:28.193Z</time>
      </trkpt>
      <trkpt lat="43.76456" lon="1.58437">
        <ele>155.14</ele>
        <time>2023-08-24T07:23:29.052Z</time>
      </trkpt>
      <trkpt lat="43.76458" lon="1.58447">
        <ele>154.91</ele>
        <time>2023-08-24T07:23:30.254Z</time>
      </trkpt>
      <trkpt lat="43.7646" lon="1.58457">
        <ele>154.73001</ele>
        <time>2023-08-24T07:23:30.568Z</time>
      </trkpt>
      <trkpt lat="43.76461" lon="1.58465">
        <ele>154.51999</ele>
        <time>2023-08-24T07:23:32.380Z</time>
      </trkpt>
      <trkpt lat="43.76463" lon="1.58477">
        <ele>154.4</ele>
        <time>2023-08-24T07:23:32.590Z</time>
      </trkpt>
      <trkpt lat="43.76464" lon="1.58486">
        <ele>154.15</ele>
        <time>2023-08-24T07:23:34.338Z</time>
      </trkpt>
      <trkpt lat="43.76464" lon="1.58496">
        <ele>153.93</ele>
        <time>2023-08-24T07:23:35.510Z</time>
      </trkpt>
      <trkpt lat="43.76465" lon="1.58504">
        <ele>153.7</ele>
        <time>2023-08-24T07:23:35.577Z</time>
      </trkpt>
      <trkpt lat="43.76466" lon="1.58511">
        <ele>153.48001</ele>
        <time>2023-08-24T07:23:36.618Z</time>
      </trkpt>
      <trkpt lat="43.76468" lon="1.5852">
        <ele>153.11</ele>
        <time>2023-08-24T07:23:37.597Z</time>
      </trkpt>
      <trkpt lat="43.76471" lon="1.58529">
        <ele>152.67</ele>
        <time>2023-08-24T07:23:38.602Z</time>
      </trkpt>
      <trkpt lat="43.76474" lon="1.58539">
        <ele>152.15</ele>
        <time>2023-08-24T07:23:39.605Z</time>
      </trkpt>
      <trkpt lat="43.76478" lon="1.58548">
        <ele>151.54001</ele>
        <time>2023-08-24T07:23:41.444Z</time>
      </trkpt>
      <trkpt lat="43.76477" lon="1.58547">
        <ele>151</ele>
        <time>2023-08-24T07:23:42.517Z</time>
      </trkpt>
      <trkpt lat="43.76484" lon="1.58569">
        <ele>150.48001</ele>
        <time>2023-08-24T07:23:43.030Z</time>
      </trkpt>
      <trkpt lat="43.76487" lon="1.58581">
        <ele>149.9</ele>
        <time>2023-08-24T07:23:44.449Z</time>
      </trkpt>
      <trkpt lat="43.76487" lon="1.5858">
        <ele>149.38</ele>
        <time>2023-08-24T07:23:44.621Z</time>
      </trkpt>
      <trkpt lat="43.76493" lon="1.58601">
        <ele>149.38</ele>
        <time>2023-08-24T07:23:46.442Z</time>
      </trkpt>
      <trkpt lat="43.76496" lon="1.58611">
        <ele>148.65</ele>
        <time>2023-08-24T07:23:47.543Z</time>
      </trkpt>
      <trkpt lat="43.765" lon="1.58617">
        <ele>148.36</ele>
        <time>2023-08-24T07:23:48.193Z</time>
      </trkpt>
      <trkpt lat="43.76505" lon="1.58624">
        <ele>148.04001</ele>
        <time>2023-08-24T07:23:49.528Z</time>
      </trkpt>
      <trkpt lat="43.76508" lon="1.5863">
        <ele>147.94</ele>
        <time>2023-08-24T07:23:50.587Z</time>
      </trkpt>
      <trkpt lat="43.76512" lon="1.58638">
        <ele>147.91</ele>
        <time>2023-08-24T07:23:51.177Z</time>
      </trkpt>
      <trkpt lat="43.76516" lon="1.58644">
        <ele>147.76001</ele>
        <time>2023-08-24T07:23:52.609Z</time>
      </trkpt>
      <trkpt lat="43.7652" lon="1.58651">
        <ele>147.7</ele>
        <time>2023-08-24T07:23:53.196Z</time>
      </trkpt>
      <trkpt lat="43.76523" lon="1.58656">
        <ele>147.47</ele>
        <time>2023-08-24T07:23:54.177Z</time>
      </trkpt>
      <trkpt lat="43.76527" lon="1.58662">
        <ele>147.38</ele>
        <time>2023-08-24T07:23:55.210Z</time>
      </trkpt>
      <trkpt lat="43.76532" lon="1.58668">
        <ele>147.28</ele>
        <time>2023-08-24T07:23:56.179Z</time>
      </trkpt>
      <trkpt lat="43.76536" lon="1.58674">
        <ele>147.15</ele>
        <time>2023-08-24T07:23:57.257Z</time>
      </trkpt>
      <trkpt lat="43.76541" lon="1.5868">
        <ele>147.11</ele>
        <time>2023-08-24T07:23:58.597Z</time>
      </trkpt>
      <trkpt lat="43.76546" lon="1.58686">
        <ele>146.98001</ele>
        <time>2023-08-24T07:23:59.185Z</time>
      </trkpt>
      <trkpt lat="43.76545" lon="1.58685">
        <ele>146.78</ele>
        <time>2023-08-24T07:24:00.610Z</time>
      </trkpt>
      <trkpt lat="43.76555" lon="1.58697">
        <ele>146.69</ele>
        <time>2023-08-24T07:24:01.479Z</time>
      </trkpt>
      <trkpt lat="43.7656" lon="1.58703">
        <ele>146.47</ele>
        <time>2023-08-24T07:24:02.854Z</time>
      </trkpt>
      <trkpt lat="43.76565" lon="1.58711">
        <ele>146.25</ele>
        <time>2023-08-24T07:24:03.431Z</time>
      </trkpt>
      <trkpt lat="43.7657" lon="1.58717">
        <ele>145.91</ele>
        <time>2023-08-24T07:24:04.845Z</time>
      </trkpt>
      <trkpt lat="43.76575" lon="1.58724">
        <ele>145.62</ele>
        <time>2023-08-24T07:24:05.455Z</time>
      </trkpt>
      <trkpt lat="43.7658" lon="1.58731">
        <ele>145.38</ele>
        <time>2023-08-24T07:24:06.753Z</time>
      </trkpt>
      <trkpt lat="43.76585" lon="1.58736">
        <ele>145.1</ele>
        <time>2023-08-24T07:24:07.461Z</time>
      </trkpt>
      <trkpt lat="43.76591" lon="1.58744">
        <ele>144.7</ele>
        <time>2023-08-24T07:24:08.437Z</time>
      </trkpt>
      <trkpt lat="43.76597" lon="1.58752">
        <ele>144.45999</ele>
        <time>2023-08-24T07:24:09.702Z</time>
      </trkpt>
      <trkpt lat="43.76609" lon="1.58767">
        <ele>144.35</ele>
        <time>2023-08-24T07:24:10.552Z</time>
      </trkpt>
      <trkpt lat="43.76615" lon="1.58774">
        <ele>144.01</ele>
        <time>2023-08-24T07:24:12.953Z</time>
      </trkpt>
      <trkpt lat="43.7662" lon="1.58781">
        <ele>143.75</ele>
        <time>2023-08-24T07:24:13.540Z</time>
      </trkpt>
      <trkpt lat="43.76627" lon="1.5879">
        <ele>143.6</ele>
        <time>2023-08-24T07:24:14.522Z</time>
      </trkpt>
      <trkpt lat="43.76635" lon="1.58803">
        <ele>142.89</ele>
        <time>2023-08-24T07:24:15.755Z</time>
      </trkpt>
      <trkpt lat="43.7664" lon="1.58811">
        <ele>142.52</ele>
        <time>2023-08-24T07:24:16.833Z</time>
      </trkpt>
      <trkpt lat="43.76646" lon="1.58816">
        <ele>142.26</ele>
        <time>2023-08-24T07:24:18.001Z</time>
      </trkpt>
      <trkpt lat="43.76651" lon="1.5882">
        <ele>142.05</ele>
        <time>2023-08-24T07:24:19.901Z</time>
      </trkpt>
      <trkpt lat="43.76657" lon="1.58825">
        <ele>141.88</ele>
        <time>2023-08-24T07:24:20.532Z</time>
      </trkpt>
      <trkpt lat="43.76663" lon="1.5883">
        <ele>141.73</ele>
        <time>2023-08-24T07:24:21.632Z</time>
      </trkpt>
      <trkpt lat="43.76669" lon="1.58835">
        <ele>141.55</ele>
        <time>2023-08-24T07:24:22.085Z</time>
      </trkpt>
      <trkpt lat="43.76675" lon="1.58842">
        <ele>141.47</ele>
        <time>2023-08-24T07:24:23.659Z</time>
      </trkpt>
      <trkpt lat="43.76683" lon="1.58854">
        <ele>141.2</ele>
        <time>2023-08-24T07:24:25.847Z</time>
      </trkpt>
      <trkpt lat="43.76686" lon="1.58859">
        <ele>141.01</ele>
        <time>2023-08-24T07:24:26.738Z</time>
      </trkpt>
      <trkpt lat="43.76697" lon="1.58878">
        <ele>140.66</ele>
        <time>2023-08-24T07:24:28.723Z</time>
      </trkpt>
      <trkpt lat="43.76701" lon="1.58885">
        <ele>140.53</ele>
        <time>2023-08-24T07:24:30.059Z</time>
      </trkpt>
      <trkpt lat="43.76711" lon="1.58901">
        <ele>140.41</ele>
        <time>2023-08-24T07:24:30.731Z</time>
      </trkpt>
      <trkpt lat="43.76718" lon="1.58912">
        <ele>140.11</ele>
        <time>2023-08-24T07:24:32.103Z</time>
      </trkpt>
      <trkpt lat="43.76724" lon="1.58919">
        <ele>139.91</ele>
        <time>2023-08-24T07:24:32.683Z</time>
      </trkpt>
      <trkpt lat="43.76731" lon="1.58929">
        <ele>139.74</ele>
        <time>2023-08-24T07:24:35.190Z</time>
      </trkpt>
      <trkpt lat="43.76738" lon="1.5894">
        <ele>139.35</ele>
        <time>2023-08-24T07:24:36.362Z</time>
      </trkpt>
      <trkpt lat="43.76743" lon="1.58947">
        <ele>139.15</ele>
        <time>2023-08-24T07:24:36.413Z</time>
      </trkpt>
      <trkpt lat="43.76742" lon="1.58946">
        <ele>138.98</ele>
        <time>2023-08-24T07:24:37.975Z</time>
      </trkpt>
      <trkpt lat="43.76749" lon="1.58956">
        <ele>138.76</ele>
        <time>2023-08-24T07:24:40.517Z</time>
      </trkpt>
      <trkpt lat="43.76755" lon="1.58968">
        <ele>138.44</ele>
        <time>2023-08-24T07:24:41.722Z</time>
      </trkpt>
      <trkpt lat="43.76763" lon="1.58986">
        <ele>138.33</ele>
        <time>2023-08-24T07:24:42.687Z</time>
      </trkpt>
      <trkpt lat="43.76768" lon="1.59004">
        <ele>138.1</ele>
        <time>2023-08-24T07:24:44.144Z</time>
      </trkpt>
      <trkpt lat="43.76772" lon="1.59016">
        <ele>137.7</ele>
        <time>2023-08-24T07:24:44.705Z</time>
      </trkpt>
      <trkpt lat="43.76774" lon="1.59025">
        <ele>137.47</ele>
        <time>2023-08-24T07:24:45.746Z</time>
      </trkpt>
      <trkpt lat="43.76776" lon="1.59035">
        <ele>137.3</ele>
        <time>2023-08-24T07:24:46.737Z</time>
      </trkpt>
      <trkpt lat="43.76778" lon="1.59044">
        <ele>137.05</ele>
        <time>2023-08-24T07:24:48.994Z</time>
      </trkpt>
      <trkpt lat="43.76782" lon="1.5906">
        <ele>137.03</ele>
        <time>2023-08-24T07:24:49.988Z</time>
      </trkpt>
      <trkpt lat="43.76784" lon="1.59068">
        <ele>137.07</ele>
        <time>2023-08-24T07:24:50.714Z</time>
      </trkpt>
      <trkpt lat="43.76786" lon="1.59075">
        <ele>137.03</ele>
        <time>2023-08-24T07:24:52.704Z</time>
      </trkpt>
      <trkpt lat="43.76789" lon="1.59082">
        <ele>136.95</ele>
        <time>2023-08-24T07:24:53.743Z</time>
      </trkpt>
      <trkpt lat="43.76793" lon="1.59089">
        <ele>136.81</ele>
        <time>2023-08-24T07:24:54.710Z</time>
      </trkpt>
      <trkpt lat="43.76798" lon="1.59095">
        <ele>136.69</ele>
        <time>2023-08-24T07:24:55.995Z</time>
      </trkpt>
      <trkpt lat="43.76804" lon="1.59099">
        <ele>136.49</ele>
        <time>2023-08-24T07:24:56.738Z</time>
      </trkpt>
      <trkpt lat="43.76809" lon="1.59103">
        <ele>136.35</ele>
        <time>2023-08-24T07:24:57.422Z</time>
      </trkpt>
      <trkpt lat="43.76828" lon="1.59108">
        <ele>135.98</ele>
        <time>2023-08-24T07:24:58.971Z</time>
      </trkpt>
      <trkpt lat="43.76834" lon="1.59107">
        <ele>135.84</ele>
        <time>2023-08-24T07:24:59.942Z</time>
      </trkpt>
      <trkpt lat="43.7684" lon="1.59108">
        <ele>123.9</ele>
        <time>2023-08-24T07:25:00.986Z</time>
      </trkpt>
      <trkpt lat="43.76844" lon="1.59136">
        <ele>124</ele>
      </trkpt>
      <trkpt lat="43.76835" lon="1.59155">
        <ele>124.5</ele>
      </trkpt>
      <trkpt lat="43.76817" lon="1.59169">
        <ele>125.5</ele>
      </trkpt>
      <trkpt lat="43.7698" lon="1.59599">
        <ele>121</ele>
      </trkpt>
      <trkpt lat="43.77122" lon="1.59815">
        <ele>121</ele>
      </trkpt>
      <trkpt lat="43.77155" lon="1.59856">
        <ele>121</ele>
      </trkpt>
      <trkpt lat="43.77194" lon="1.59932">
        <ele>122</ele>
      </trkpt>
      <trkpt lat="43.77215" lon="1.59983">
        <ele>121.7</ele>
      </trkpt>
      <trkpt lat="43.77222" lon="1.60053">
        <ele>122</ele>
      </trkpt>
      <trkpt lat="43.77241" lon="1.60153">
        <ele>120</ele>
      </trkpt>
      <trkpt lat="43.7725" lon="1.60193">
        <ele>120</ele>
      </trkpt>
      <trkpt lat="43.77299" lon="1.60369">
        <ele>120.8</ele>
      </trkpt>
      <trkpt lat="43.77304" lon="1.60422">
        <ele>121</ele>
      </trkpt>
      <trkpt lat="43.77312" lon="1.60532">
        <ele>121.7</ele>
      </trkpt>
      <trkpt lat="43.77324" lon="1.60659">
        <ele>121.6</ele>
      </trkpt>
      <trkpt lat="43.77367" lon="1.60737">
        <ele>119.4</ele>
      </trkpt>
      <trkpt lat="43.7741" lon="1.6078">
        <ele>115.2</ele>
      </trkpt>
      <trkpt lat="43.77511" lon="1.60865">
        <ele>113</ele>
      </trkpt>
      <trkpt lat="43.77611" lon="1.60985">
        <ele>112.5</ele>
      </trkpt>
      <trkpt lat="43.77729" lon="1.61095">
        <ele>113</ele>
      </trkpt>
      <trkpt lat="43.77794" lon="1.61158">
        <ele>113</ele>
      </trkpt>
      <trkpt lat="43.77824" lon="1.61281">
        <ele>113</ele>
      </trkpt>
      <trkpt lat="43.77832" lon="1.61343">
        <ele>113</ele>
      </trkpt>
      <trkpt lat="43.77842" lon="1.61581">
        <ele>112.7</ele>
      </trkpt>
      <trkpt lat="43.77842" lon="1.61669">
        <ele>113</ele>
      </trkpt>
      <trkpt lat="43.77837" lon="1.61707">
        <ele>112.5</ele>
      </trkpt>
      <trkpt lat="43.77813" lon="1.61779">
        <ele>110.5</ele>
      </trkpt>
      <trkpt lat="43.77812" lon="1.61799">
        <ele>110</ele>
      </trkpt>
      <trkpt lat="43.77824" lon="1.61843">
        <ele>108.4</ele>
      </trkpt>
      <trkpt lat="43.77848" lon="1.61925">
        <ele>108</ele>
      </trkpt>
      <trkpt lat="43.7786" lon="1.61973">
        <ele>108.9</ele>
      </trkpt>
      <trkpt lat="43.77879" lon="1.62072">
        <ele>108</ele>
      </trkpt>
      <trkpt lat="43.77901" lon="1.62203">
        <ele>108.6</ele>
      </trkpt>
      <trkpt lat="43.77913" lon="1.6225">
        <ele>109</ele>
      </trkpt>
      <trkpt lat="43.77915" lon="1.62279">
        <ele>109</ele>
      </trkpt>
      <trkpt lat="43.7791" lon="1.62334">
        <ele>108.3</ele>
      </trkpt>
      <trkpt lat="43.77903" lon="1.62405">
        <ele>108.5</ele>
      </trkpt>
      <trkpt lat="43.77897" lon="1.62465">
        <ele>108.7</ele>
      </trkpt>
      <trkpt lat="43.77892" lon="1.6251">
        <ele>109</ele>
      </trkpt>
      <trkpt lat="43.77886" lon="1.6254">
        <ele>109</ele>
      </trkpt>
      <trkpt lat="43.77867" lon="1.62566">
        <ele>109</ele>
      </trkpt>
      <trkpt lat="43.7779" lon="1.62884">
        <ele>109</ele>
      </trkpt>
      <trkpt lat="43.77782" lon="1.62918">
        <ele>107.3</ele>
      </trkpt>
      <trkpt lat="43.77772" lon="1.62948">
        <ele>107.2</ele>
      </trkpt>
      <trkpt lat="43.77762" lon="1.62967">
        <ele>106.5</ele>
      </trkpt>
      <trkpt lat="43.77752" lon="1.62974">
        <ele>105.1</ele>
      </trkpt>
      <trkpt lat="43.77743" lon="1.62976">
        <ele>105</ele>
      </trkpt>
      <trkpt lat="43.77717" lon="1.62966">
        <ele>106.8</ele>
      </trkpt>
      <trkpt lat="43.77713" lon="1.63005">
        <ele>104.3</ele>
      </trkpt>
      <trkpt lat="43.77715" lon="1.63018">
        <ele>106.9</ele>
      </trkpt>
      <trkpt lat="43.77721" lon="1.63024">
        <ele>108.3</ele>
      </trkpt>
      <trkpt lat="43.77728" lon="1.6303">
        <ele>108.8</ele>
      </trkpt>
      <trkpt lat="43.77734" lon="1.63041">
        <ele>108.8</ele>
      </trkpt>
      <trkpt lat="43.77734" lon="1.63053">
        <ele>109</ele>
      </trkpt>
      <trkpt lat="43.77706" lon="1.6316">
        <ele>108.7</ele>
      </trkpt>
      <trkpt lat="43.77654" lon="1.63347">
        <ele>109.3</ele>
      </trkpt>
      <trkpt lat="43.77619" lon="1.63463">
        <ele>109</ele>
      </trkpt>
      <trkpt lat="43.77607" lon="1.63486">
        <ele>108.9</ele>
      </trkpt>
      <trkpt lat="43.77591" lon="1.635">
        <ele>108.3</ele>
      </trkpt>
      <trkpt lat="43.77594" lon="1.63509">
        <ele>108.6</ele>
      </trkpt>
      <trkpt lat="43.77613" lon="1.63524">
        <ele>109</ele>
      </trkpt>
      <trkpt lat="43.77646" lon="1.63541">
        <ele>108.7</ele>
      </trkpt>
      <trkpt lat="43.77638" lon="1.63558">
        <ele>108.9</ele>
      </trkpt>
      <trkpt lat="43.77633" lon="1.63559">
        <ele>108.9</ele>
      </trkpt>
      <trkpt lat="43.77634" lon="1.63568">
        <ele>108.6</ele>
      </trkpt>
      <trkpt lat="43.7763" lon="1.63574">
        <ele>108.6</ele>
      </trkpt>
      <trkpt lat="43.77637" lon="1.6358">
        <ele>108.2</ele>
      </trkpt>
      <trkpt lat="43.77667" lon="1.63582">
        <ele>108</ele>
      </trkpt>
      <trkpt lat="43.7769" lon="1.63588">
        <ele>108</ele>
      </trkpt>
      <trkpt lat="43.77739" lon="1.63621">
        <ele>108</ele>
      </trkpt>
      <trkpt lat="43.77762" lon="1.63627">
        <ele>108</ele>
      </trkpt>
      <trkpt lat="43.77768" lon="1.63628">
        <ele>108</ele>
      </trkpt>
      <trkpt lat="43.77771" lon="1.63623">
        <ele>108</ele>
      </trkpt>
      <trkpt lat="43.77773" lon="1.63618">
        <ele>108</ele>
      </trkpt>
      <trkpt lat="43.77774" lon="1.63607">
        <ele>108</ele>
      </trkpt>
      <trkpt lat="43.77773" lon="1.63566">
        <ele>108</ele>
      </trkpt>
      <trkpt lat="43.77809" lon="1.63585">
        <ele>108.9</ele>
      </trkpt>
      <trkpt lat="43.77831" lon="1.63463">
        <ele>108</ele>
      </trkpt>
      <trkpt lat="43.77833" lon="1.63438">
        <ele>108</ele>
      </trkpt>
      <trkpt lat="43.7784" lon="1.63414">
        <ele>108.3</ele>
      </trkpt>
      <trkpt lat="43.77863" lon="1.63369">
        <ele>109</ele>
      </trkpt>
      <trkpt lat="43.77892" lon="1.63315">
        <ele>108.3</ele>
      </trkpt>
      <trkpt lat="43.77996" lon="1.634">
        <ele>108.6</ele>
      </trkpt>
      <trkpt lat="43.78118" lon="1.635">
        <ele>92.8</ele>
      </trkpt>
      <trkpt lat="43.78157" lon="1.63533">
        <ele>104.9</ele>
      </trkpt>
      <trkpt lat="43.78182" lon="1.63559">
        <ele>107.9</ele>
      </trkpt>
      <trkpt lat="43.7818" lon="1.63568">
        <ele>107.8</ele>
      </trkpt>
      <trkpt lat="43.78197" lon="1.63582">
        <ele>108</ele>
      </trkpt>
      <trkpt lat="43.78208" lon="1.63597">
        <ele>108</ele>
      </trkpt>
      <trkpt lat="43.78215" lon="1.63613">
        <ele>108</ele>
      </trkpt>
      <trkpt lat="43.78234" lon="1.63773">
        <ele>108.6</ele>
      </trkpt>
      <trkpt lat="43.78246" lon="1.63925">
        <ele>109.3</ele>
      </trkpt>
      <trkpt lat="43.78255" lon="1.63954">
        <ele>109.9</ele>
      </trkpt>
      <trkpt lat="43.78354" lon="1.64089">
        <ele>113.8</ele>
      </trkpt>
      <trkpt lat="43.7844" lon="1.64206">
        <ele>122.2</ele>
      </trkpt>
      <trkpt lat="43.78443" lon="1.64241">
        <ele>123.2</ele>
      </trkpt>
      <trkpt lat="43.78419" lon="1.64334">
        <ele>124.6</ele>
      </trkpt>
      <trkpt lat="43.78419" lon="1.644">
        <ele>124.4</ele>
      </trkpt>
      <trkpt lat="43.78426" lon="1.64463">
        <ele>125.2</ele>
      </trkpt>
      <trkpt lat="43.78426" lon="1.64538">
        <ele>119.5</ele>
      </trkpt>
      <trkpt lat="43.78434" lon="1.64595">
        <ele>120.5</ele>
      </trkpt>
      <trkpt lat="43.78436" lon="1.64651">
        <ele>120.9</ele>
      </trkpt>
      <trkpt lat="43.78435" lon="1.64672">
        <ele>120.6</ele>
      </trkpt>
      <trkpt lat="43.78432" lon="1.64799">
        <ele>116.7</ele>
      </trkpt>
      <trkpt lat="43.78434" lon="1.64891">
        <ele>114.6</ele>
      </trkpt>
      <trkpt lat="43.78457" lon="1.65026">
        <ele>115.1</ele>
      </trkpt>
      <trkpt lat="43.78478" lon="1.65139">
        <ele>118.9</ele>
      </trkpt>
      <trkpt lat="43.78499" lon="1.65306">
        <ele>121.7</ele>
      </trkpt>
      <trkpt lat="43.78501" lon="1.65355">
        <ele>122.4</ele>
      </trkpt>
      <trkpt lat="43.78498" lon="1.65396">
        <ele>120.6</ele>
      </trkpt>
      <trkpt lat="43.78497" lon="1.65509">
        <ele>125.3</ele>
      </trkpt>
      <trkpt lat="43.7849" lon="1.65629">
        <ele>125.1</ele>
      </trkpt>
      <trkpt lat="43.78492" lon="1.65752">
        <ele>126.6</ele>
      </trkpt>
      <trkpt lat="43.78503" lon="1.65832">
        <ele>125.3</ele>
      </trkpt>
      <trkpt lat="43.78514" lon="1.65877">
        <ele>124.8</ele>
      </trkpt>
      <trkpt lat="43.78523" lon="1.65922">
        <ele>125.2</ele>
      </trkpt>
      <trkpt lat="43.78532" lon="1.65996">
        <ele>124.3</ele>
      </trkpt>
      <trkpt lat="43.7855" lon="1.66066">
        <ele>124.2</ele>
      </trkpt>
      <trkpt lat="43.78557" lon="1.66087">
        <ele>123.8</ele>
      </trkpt>
      <trkpt lat="43.78585" lon="1.66165">
        <ele>121.4</ele>
      </trkpt>
      <trkpt lat="43.786" lon="1.66269">
        <ele>118.3</ele>
      </trkpt>
      <trkpt lat="43.7861" lon="1.66304">
        <ele>119.7</ele>
      </trkpt>
      <trkpt lat="43.78629" lon="1.66379">
        <ele>118.8</ele>
      </trkpt>
      <trkpt lat="43.78641" lon="1.66434">
        <ele>117.1</ele>
      </trkpt>
      <trkpt lat="43.78651" lon="1.66479">
        <ele>117.1</ele>
      </trkpt>
      <trkpt lat="43.78663" lon="1.66579">
        <ele>115.7</ele>
      </trkpt>
      <trkpt lat="43.78663" lon="1.66594">
        <ele>115.3</ele>
      </trkpt>
      <trkpt lat="43.7866" lon="1.66608">
        <ele>114.6</ele>
      </trkpt>
      <trkpt lat="43.78671" lon="1.66626">
        <ele>115.4</ele>
      </trkpt>
      <trkpt lat="43.78676" lon="1.6666">
        <ele>115.7</ele>
      </trkpt>
      <trkpt lat="43.78698" lon="1.66757">
        <ele>116.3</ele>
      </trkpt>
      <trkpt lat="43.78704" lon="1.6679">
        <ele>116.9</ele>
      </trkpt>
      <trkpt lat="43.78698" lon="1.66854">
        <ele>116.4</ele>
      </trkpt>
      <trkpt lat="43.78685" lon="1.66977">
        <ele>113.1</ele>
      </trkpt>
      <trkpt lat="43.78691" lon="1.67029">
        <ele>108.4</ele>
      </trkpt>
      <trkpt lat="43.78688" lon="1.67105">
        <ele>107.6</ele>
      </trkpt>
      <trkpt lat="43.78666" lon="1.67177">
        <ele>103.9</ele>
      </trkpt>
      <trkpt lat="43.7865" lon="1.67224">
        <ele>100.1</ele>
      </trkpt>
      <trkpt lat="43.78648" lon="1.67248">
        <ele>99.1</ele>
      </trkpt>
      <trkpt lat="43.78668" lon="1.67273">
        <ele>100.7</ele>
      </trkpt>
      <trkpt lat="43.78672" lon="1.67289">
        <ele>102.8</ele>
      </trkpt>
      <trkpt lat="43.78669" lon="1.67305">
        <ele>104</ele>
      </trkpt>
      <trkpt lat="43.78714" lon="1.673">
        <ele>105.2</ele>
      </trkpt>
      <trkpt lat="43.78725" lon="1.67305">
        <ele>107.3</ele>
      </trkpt>
      <trkpt lat="43.7876" lon="1.6742">
        <ele>118</ele>
      </trkpt>
      <trkpt lat="43.78771" lon="1.67459">
        <ele>123.8</ele>
      </trkpt>
      <trkpt lat="43.7878" lon="1.67466">
        <ele>126.4</ele>
      </trkpt>
      <trkpt lat="43.7883" lon="1.67478">
        <ele>135.9</ele>
      </trkpt>
      <trkpt lat="43.78854" lon="1.67492">
        <ele>140.5</ele>
      </trkpt>
      <trkpt lat="43.7888" lon="1.67528">
        <ele>145.6</ele>
      </trkpt>
      <trkpt lat="43.7891" lon="1.67605">
        <ele>139.8</ele>
      </trkpt>
      <trkpt lat="43.78913" lon="1.67642">
        <ele>139.9</ele>
      </trkpt>
      <trkpt lat="43.789" lon="1.67755">
        <ele>146.9</ele>
      </trkpt>
      <trkpt lat="43.78913" lon="1.67821">
        <ele>153</ele>
      </trkpt>
      <trkpt lat="43.78927" lon="1.67881">
        <ele>163.6</ele>
      </trkpt>
      <trkpt lat="43.78943" lon="1.67924">
        <ele>168.2</ele>
      </trkpt>
      <trkpt lat="43.7895" lon="1.67953">
        <ele>168.1</ele>
      </trkpt>
      <trkpt lat="43.78957" lon="1.68025">
        <ele>166.9</ele>
      </trkpt>
      <trkpt lat="43.78965" lon="1.6808">
        <ele>164.1</ele>
      </trkpt>
      <trkpt lat="43.78969" lon="1.68123">
        <ele>163.1</ele>
      </trkpt>
      <trkpt lat="43.78974" lon="1.6817">
        <ele>161.8</ele>
      </trkpt>
      <trkpt lat="43.78974" lon="1.68242">
        <ele>160.9</ele>
      </trkpt>
      <trkpt lat="43.78968" lon="1.68341">
        <ele>158.2</ele>
      </trkpt>
      <trkpt lat="43.79001" lon="1.68367">
        <ele>160.4</ele>
      </trkpt>
      <trkpt lat="43.79038" lon="1.68381">
        <ele>165.2</ele>
      </trkpt>
      <trkpt lat="43.79096" lon="1.68451">
        <ele>178.2</ele>
      </trkpt>
      <trkpt lat="43.79149" lon="1.6849">
        <ele>187</ele>
      </trkpt>
      <trkpt lat="43.79193" lon="1.6853">
        <ele>184.7</ele>
      </trkpt>
      <trkpt lat="43.79223" lon="1.68556">
        <ele>182.8</ele>
      </trkpt>
      <trkpt lat="43.79341" lon="1.68543">
        <ele>193.8</ele>
      </trkpt>
      <trkpt lat="43.79435" lon="1.6858">
        <ele>189.5</ele>
      </trkpt>
      <trkpt lat="43.79488" lon="1.68594">
        <ele>189.7</ele>
      </trkpt>
      <trkpt lat="43.7952" lon="1.68638">
        <ele>191.9</ele>
      </trkpt>
      <trkpt lat="43.79559" lon="1.68669">
        <ele>185.9</ele>
      </trkpt>
      <trkpt lat="43.79596" lon="1.68742">
        <ele>171.2</ele>
      </trkpt>
      <trkpt lat="43.79715" lon="1.68927">
        <ele>154.4</ele>
      </trkpt>
      <trkpt lat="43.79794" lon="1.69038">
        <ele>155.7</ele>
      </trkpt>
      <trkpt lat="43.79881" lon="1.69092">
        <ele>164.9</ele>
      </trkpt>
      <trkpt lat="43.79915" lon="1.69097">
        <ele>169.3</ele>
      </trkpt>
      <trkpt lat="43.80024" lon="1.69022">
        <ele>177.9</ele>
      </trkpt>
      <trkpt lat="43.80032" lon="1.69025">
        <ele>179.5</ele>
      </trkpt>
      <trkpt lat="43.8003" lon="1.69043">
        <ele>180.9</ele>
      </trkpt>
      <trkpt lat="43.79998" lon="1.6913">
        <ele>183.2</ele>
      </trkpt>
      <trkpt lat="43.79989" lon="1.69155">
        <ele>183.4</ele>
      </trkpt>
      <trkpt lat="43.79989" lon="1.69178">
        <ele>183.5</ele>
      </trkpt>
      <trkpt lat="43.79997" lon="1.69199">
        <ele>182.9</ele>
      </trkpt>
      <trkpt lat="43.80033" lon="1.69229">
        <ele>181.2</ele>
      </trkpt>
      <trkpt lat="43.80158" lon="1.69398">
        <ele>161.7</ele>
      </trkpt>
      <trkpt lat="43.80208" lon="1.69443">
        <ele>161.9</ele>
      </trkpt>
      <trkpt lat="43.80247" lon="1.69475">
        <ele>165.1</ele>
      </trkpt>
      <trkpt lat="43.803" lon="1.69496">
        <ele>166.3</ele>
      </trkpt>
      <trkpt lat="43.80308" lon="1.69504">
        <ele>165.8</ele>
      </trkpt>
      <trkpt lat="43.80322" lon="1.69529">
        <ele>164.7</ele>
      </trkpt>
      <trkpt lat="43.80344" lon="1.69563">
        <ele>162.9</ele>
      </trkpt>
      <trkpt lat="43.80387" lon="1.69612">
        <ele>162.1</ele>
      </trkpt>
      <trkpt lat="43.80453" lon="1.69654">
        <ele>165.1</ele>
      </trkpt>
      <trkpt lat="43.80539" lon="1.69717">
        <ele>176.5</ele>
      </trkpt>
      <trkpt lat="43.80625" lon="1.69783">
        <ele>189.1</ele>
      </trkpt>
      <trkpt lat="43.81965" lon="1.71862">
        <ele>128</ele>
      </trkpt>
      <trkpt lat="43.80986" lon="1.71018">
        <ele>95.9</ele>
      </trkpt>
      <trkpt lat="43.80753" lon="1.703">
        <ele>118.1</ele>
      </trkpt>
      <trkpt lat="43.80251" lon="1.69776">
        <ele>115.8</ele>
      </trkpt>
      <trkpt lat="43.79768" lon="1.69395">
        <ele>109.3</ele>
      </trkpt>
      <trkpt lat="43.79231" lon="1.69069">
        <ele>112.5</ele>
      </trkpt>
      <trkpt lat="43.78849" lon="1.68646">
        <ele>111.4</ele>
      </trkpt>
      <trkpt lat="43.78639" lon="1.67905">
        <ele>112.4</ele>
      </trkpt>
      <trkpt lat="43.78607" lon="1.67839">
        <ele>111.9</ele>
      </trkpt>
      <trkpt lat="43.78526" lon="1.67857">
        <ele>97.5</ele>
      </trkpt>
      <trkpt lat="43.78529" lon="1.67832">
        <ele>97.3</ele>
      </trkpt>
      <trkpt lat="43.78529" lon="1.67821">
        <ele>96</ele>
      </trkpt>
      <trkpt lat="43.78534" lon="1.67812">
        <ele>97.7</ele>
      </trkpt>
      <trkpt lat="43.7853" lon="1.67797">
        <ele>95.2</ele>
      </trkpt>
      <trkpt lat="43.78526" lon="1.67772">
        <ele>95.8</ele>
      </trkpt>
      <trkpt lat="43.78522" lon="1.67764">
        <ele>96.4</ele>
      </trkpt>
      <trkpt lat="43.78518" lon="1.67739">
        <ele>97.9</ele>
      </trkpt>
      <trkpt lat="43.78513" lon="1.67703">
        <ele>98.3</ele>
      </trkpt>
      <trkpt lat="43.78505" lon="1.67677">
        <ele>96.3</ele>
      </trkpt>
      <trkpt lat="43.78503" lon="1.67667">
        <ele>96.3</ele>
      </trkpt>
      <trkpt lat="43.78502" lon="1.67617">
        <ele>96.7</ele>
      </trkpt>
      <trkpt lat="43.78499" lon="1.67598">
        <ele>96.8</ele>
      </trkpt>
      <trkpt lat="43.78489" lon="1.67566">
        <ele>96.5</ele>
      </trkpt>
      <trkpt lat="43.78487" lon="1.67509">
        <ele>97</ele>
      </trkpt>
      <trkpt lat="43.78479" lon="1.67475">
        <ele>95.3</ele>
      </trkpt>
      <trkpt lat="43.78477" lon="1.67446">
        <ele>94.7</ele>
      </trkpt>
      <trkpt lat="43.78472" lon="1.67413">
        <ele>95.2</ele>
      </trkpt>
      <trkpt lat="43.78473" lon="1.67396">
        <ele>96.6</ele>
      </trkpt>
      <trkpt lat="43.78464" lon="1.67339">
        <ele>96.9</ele>
      </trkpt>
      <trkpt lat="43.78457" lon="1.67302">
        <ele>95.5</ele>
      </trkpt>
      <trkpt lat="43.78454" lon="1.67119">
        <ele>94.8</ele>
      </trkpt>
      <trkpt lat="43.78453" lon="1.67042">
        <ele>92.9</ele>
      </trkpt>
      <trkpt lat="43.78466" lon="1.6703">
        <ele>93.1</ele>
      </trkpt>
      <trkpt lat="43.78468" lon="1.67018">
        <ele>94.3</ele>
      </trkpt>
      <trkpt lat="43.78464" lon="1.67007">
        <ele>95.3</ele>
      </trkpt>
      <trkpt lat="43.78466" lon="1.66995">
        <ele>96.7</ele>
      </trkpt>
      <trkpt lat="43.7848" lon="1.66986">
        <ele>99.1</ele>
      </trkpt>
      <trkpt lat="43.78484" lon="1.66997">
        <ele>98.9</ele>
      </trkpt>
      <trkpt lat="43.78491" lon="1.67004">
        <ele>98.9</ele>
      </trkpt>
      <trkpt lat="43.78533" lon="1.67024">
        <ele>102.6</ele>
      </trkpt>
      <trkpt lat="43.7855" lon="1.67024">
        <ele>103.6</ele>
      </trkpt>
      <trkpt lat="43.78574" lon="1.67008">
        <ele>104.6</ele>
      </trkpt>
      <trkpt lat="43.78594" lon="1.66981">
        <ele>107.1</ele>
      </trkpt>
      <trkpt lat="43.78609" lon="1.66968">
        <ele>109.2</ele>
      </trkpt>
      <trkpt lat="43.78654" lon="1.6696">
        <ele>110.5</ele>
      </trkpt>
      <trkpt lat="43.78683" lon="1.66959">
        <ele>113.5</ele>
      </trkpt>
      <trkpt lat="43.7869" lon="1.669">
        <ele>114.3</ele>
      </trkpt>
      <trkpt lat="43.78702" lon="1.66803">
        <ele>116.8</ele>
      </trkpt>
      <trkpt lat="43.78699" lon="1.66772">
        <ele>116.3</ele>
      </trkpt>
      <trkpt lat="43.7869" lon="1.66729">
        <ele>115.6</ele>
      </trkpt>
      <trkpt lat="43.78673" lon="1.66656">
        <ele>115.4</ele>
      </trkpt>
      <trkpt lat="43.78658" lon="1.66607">
        <ele>114.4</ele>
      </trkpt>
      <trkpt lat="43.78662" lon="1.66593">
        <ele>115.2</ele>
      </trkpt>
      <trkpt lat="43.78656" lon="1.66535">
        <ele>116.1</ele>
      </trkpt>
      <trkpt lat="43.7865" lon="1.66479">
        <ele>116.9</ele>
      </trkpt>
      <trkpt lat="43.78639" lon="1.6643">
        <ele>117.1</ele>
      </trkpt>
      <trkpt lat="43.78627" lon="1.66382">
        <ele>118.5</ele>
      </trkpt>
      <trkpt lat="43.78609" lon="1.66312">
        <ele>119.2</ele>
      </trkpt>
      <trkpt lat="43.78599" lon="1.66274">
        <ele>118</ele>
      </trkpt>
      <trkpt lat="43.7859" lon="1.66225">
        <ele>119.5</ele>
      </trkpt>
      <trkpt lat="43.78586" lon="1.66182">
        <ele>120.7</ele>
      </trkpt>
      <trkpt lat="43.78583" lon="1.66167">
        <ele>121</ele>
      </trkpt>
      <trkpt lat="43.78582" lon="1.66161">
        <ele>121.5</ele>
      </trkpt>
      <trkpt lat="43.78548" lon="1.66069">
        <ele>124</ele>
      </trkpt>
      <trkpt lat="43.78532" lon="1.66001">
        <ele>124.1</ele>
      </trkpt>
      <trkpt lat="43.78522" lon="1.65923">
        <ele>124.9</ele>
      </trkpt>
      <trkpt lat="43.78513" lon="1.65878">
        <ele>124.6</ele>
      </trkpt>
      <trkpt lat="43.78502" lon="1.65835">
        <ele>125.1</ele>
      </trkpt>
      <trkpt lat="43.78491" lon="1.65751">
        <ele>126.4</ele>
      </trkpt>
      <trkpt lat="43.78489" lon="1.65675">
        <ele>125.2</ele>
      </trkpt>
      <trkpt lat="43.78488" lon="1.65623">
        <ele>123.9</ele>
      </trkpt>
      <trkpt lat="43.78497" lon="1.65509">
        <ele>124.9</ele>
      </trkpt>
      <trkpt lat="43.78495" lon="1.65396">
        <ele>120.1</ele>
      </trkpt>
      <trkpt lat="43.78499" lon="1.65354">
        <ele>121.8</ele>
      </trkpt>
      <trkpt lat="43.78496" lon="1.65307">
        <ele>121.1</ele>
      </trkpt>
      <trkpt lat="43.7849" lon="1.65244">
        <ele>119.3</ele>
      </trkpt>
      <trkpt lat="43.78483" lon="1.65188">
        <ele>118.5</ele>
      </trkpt>
      <trkpt lat="43.78477" lon="1.6514">
        <ele>118.7</ele>
      </trkpt>
      <trkpt lat="43.78456" lon="1.65026">
        <ele>114.8</ele>
      </trkpt>
      <trkpt lat="43.78433" lon="1.64891">
        <ele>114.4</ele>
      </trkpt>
      <trkpt lat="43.78431" lon="1.64801">
        <ele>116.2</ele>
      </trkpt>
      <trkpt lat="43.78433" lon="1.64707">
        <ele>119.6</ele>
      </trkpt>
      <trkpt lat="43.78435" lon="1.64651">
        <ele>120.4</ele>
      </trkpt>
      <trkpt lat="43.78433" lon="1.64596">
        <ele>120.2</ele>
      </trkpt>
      <trkpt lat="43.78424" lon="1.64539">
        <ele>119</ele>
      </trkpt>
      <trkpt lat="43.78424" lon="1.64464">
        <ele>124.5</ele>
      </trkpt>
      <trkpt lat="43.78417" lon="1.644">
        <ele>123.5</ele>
      </trkpt>
      <trkpt lat="43.78417" lon="1.64333">
        <ele>124</ele>
      </trkpt>
      <trkpt lat="43.7843" lon="1.64282">
        <ele>123.8</ele>
      </trkpt>
      <trkpt lat="43.78441" lon="1.64239">
        <ele>122.8</ele>
      </trkpt>
      <trkpt lat="43.78439" lon="1.64208">
        <ele>122</ele>
      </trkpt>
      <trkpt lat="43.78356" lon="1.64094">
        <ele>113.8</ele>
      </trkpt>
      <trkpt lat="43.78306" lon="1.64026">
        <ele>111.9</ele>
      </trkpt>
      <trkpt lat="43.78255" lon="1.63957">
        <ele>109.9</ele>
      </trkpt>
      <trkpt lat="43.78244" lon="1.63927">
        <ele>109.3</ele>
      </trkpt>
      <trkpt lat="43.78233" lon="1.63771">
        <ele>108.6</ele>
      </trkpt>
      <trkpt lat="43.78213" lon="1.63615">
        <ele>108.1</ele>
      </trkpt>
      <trkpt lat="43.78207" lon="1.636">
        <ele>108</ele>
      </trkpt>
      <trkpt lat="43.78196" lon="1.63585">
        <ele>108</ele>
      </trkpt>
      <trkpt lat="43.78179" lon="1.63569">
        <ele>107.7</ele>
      </trkpt>
      <trkpt lat="43.78181" lon="1.63561">
        <ele>107.9</ele>
      </trkpt>
      <trkpt lat="43.78157" lon="1.63537">
        <ele>105.3</ele>
      </trkpt>
      <trkpt lat="43.78068" lon="1.63462">
        <ele>92</ele>
      </trkpt>
      <trkpt lat="43.78018" lon="1.63422">
        <ele>107.9</ele>
      </trkpt>
      <trkpt lat="43.77979" lon="1.63389">
        <ele>108.2</ele>
      </trkpt>
      <trkpt lat="43.77929" lon="1.63349">
        <ele>108.6</ele>
      </trkpt>
      <trkpt lat="43.77894" lon="1.63312">
        <ele>108.2</ele>
      </trkpt>
      <trkpt lat="43.779" lon="1.633">
        <ele>108</ele>
      </trkpt>
      <trkpt lat="43.77869" lon="1.63268">
        <ele>108</ele>
      </trkpt>
      <trkpt lat="43.77849" lon="1.63324">
        <ele>108.8</ele>
      </trkpt>
      <trkpt lat="43.7783" lon="1.63356">
        <ele>109.1</ele>
      </trkpt>
      <trkpt lat="43.7779" lon="1.63392">
        <ele>108.9</ele>
      </trkpt>
      <trkpt lat="43.77773" lon="1.63427">
        <ele>108</ele>
      </trkpt>
      <trkpt lat="43.7773" lon="1.63393">
        <ele>109</ele>
      </trkpt>
      <trkpt lat="43.77715" lon="1.63378">
        <ele>109</ele>
      </trkpt>
      <trkpt lat="43.77699" lon="1.63392">
        <ele>109</ele>
      </trkpt>
      <trkpt lat="43.77684" lon="1.63415">
        <ele>109.3</ele>
      </trkpt>
      <trkpt lat="43.77646" lon="1.6354">
        <ele>108.7</ele>
      </trkpt>
      <trkpt lat="43.77614" lon="1.63521">
        <ele>109</ele>
      </trkpt>
      <trkpt lat="43.77591" lon="1.6351">
        <ele>108.5</ele>
      </trkpt>
      <trkpt lat="43.77587" lon="1.63498">
        <ele>108.2</ele>
      </trkpt>
      <trkpt lat="43.77596" lon="1.63495">
        <ele>108.6</ele>
      </trkpt>
      <trkpt lat="43.77611" lon="1.63476">
        <ele>109</ele>
      </trkpt>
      <trkpt lat="43.77617" lon="1.6346">
        <ele>109</ele>
      </trkpt>
      <trkpt lat="43.77632" lon="1.6341">
        <ele>109</ele>
      </trkpt>
      <trkpt lat="43.77646" lon="1.63363">
        <ele>109</ele>
      </trkpt>
      <trkpt lat="43.77657" lon="1.63325">
        <ele>109.3</ele>
      </trkpt>
      <trkpt lat="43.77672" lon="1.63269">
        <ele>108.9</ele>
      </trkpt>
      <trkpt lat="43.77693" lon="1.63194">
        <ele>109</ele>
      </trkpt>
      <trkpt lat="43.77713" lon="1.63124">
        <ele>109.2</ele>
      </trkpt>
      <trkpt lat="43.77733" lon="1.63048">
        <ele>108.9</ele>
      </trkpt>
      <trkpt lat="43.77731" lon="1.63041">
        <ele>108.8</ele>
      </trkpt>
      <trkpt lat="43.77719" lon="1.63026">
        <ele>108.7</ele>
      </trkpt>
      <trkpt lat="43.77712" lon="1.63015">
        <ele>106.4</ele>
      </trkpt>
      <trkpt lat="43.77711" lon="1.62984">
        <ele>105.1</ele>
      </trkpt>
      <trkpt lat="43.77717" lon="1.62962">
        <ele>107.1</ele>
      </trkpt>
      <trkpt lat="43.77738" lon="1.62972">
        <ele>105.5</ele>
      </trkpt>
      <trkpt lat="43.77751" lon="1.62972">
        <ele>105.1</ele>
      </trkpt>
      <trkpt lat="43.77763" lon="1.62958">
        <ele>107</ele>
      </trkpt>
      <trkpt lat="43.77779" lon="1.62918">
        <ele>107.1</ele>
      </trkpt>
      <trkpt lat="43.77865" lon="1.62564">
        <ele>109</ele>
      </trkpt>
      <trkpt lat="43.77869" lon="1.62543">
        <ele>109</ele>
      </trkpt>
      <trkpt lat="43.77868" lon="1.62537">
        <ele>109</ele>
      </trkpt>
      <trkpt lat="43.77872" lon="1.62532">
        <ele>109</ele>
      </trkpt>
      <trkpt lat="43.77884" lon="1.62537">
        <ele>109</ele>
      </trkpt>
      <trkpt lat="43.7789" lon="1.62504">
        <ele>109</ele>
      </trkpt>
      <trkpt lat="43.77894" lon="1.62465">
        <ele>108.8</ele>
      </trkpt>
      <trkpt lat="43.779" lon="1.62404">
        <ele>108.6</ele>
      </trkpt>
      <trkpt lat="43.77906" lon="1.62337">
        <ele>108.4</ele>
      </trkpt>
      <trkpt lat="43.77912" lon="1.62279">
        <ele>109</ele>
      </trkpt>
      <trkpt lat="43.7791" lon="1.62251">
        <ele>109</ele>
      </trkpt>
      <trkpt lat="43.77899" lon="1.62204">
        <ele>108.6</ele>
      </trkpt>
      <trkpt lat="43.77885" lon="1.62131">
        <ele>108.9</ele>
      </trkpt>
      <trkpt lat="43.7787" lon="1.62045">
        <ele>108</ele>
      </trkpt>
      <trkpt lat="43.77857" lon="1.61975">
        <ele>108.8</ele>
      </trkpt>
      <trkpt lat="43.77844" lon="1.61924">
        <ele>108</ele>
      </trkpt>
      <trkpt lat="43.77825" lon="1.61853">
        <ele>108.6</ele>
      </trkpt>
      <trkpt lat="43.77813" lon="1.61811">
        <ele>109.5</ele>
      </trkpt>
      <trkpt lat="43.77811" lon="1.61798">
        <ele>110</ele>
      </trkpt>
      <trkpt lat="43.77809" lon="1.61786">
        <ele>110.5</ele>
      </trkpt>
      <trkpt lat="43.77816" lon="1.61757">
        <ele>111.5</ele>
      </trkpt>
      <trkpt lat="43.77834" lon="1.61704">
        <ele>112.7</ele>
      </trkpt>
      <trkpt lat="43.77838" lon="1.61669">
        <ele>113</ele>
      </trkpt>
      <trkpt lat="43.7784" lon="1.61588">
        <ele>112.8</ele>
      </trkpt>
      <trkpt lat="43.77831" lon="1.61371">
        <ele>113</ele>
      </trkpt>
      <trkpt lat="43.77821" lon="1.61286">
        <ele>113</ele>
      </trkpt>
      <trkpt lat="43.77791" lon="1.61162">
        <ele>113</ele>
      </trkpt>
      <trkpt lat="43.77702" lon="1.61082">
        <ele>113</ele>
      </trkpt>
      <trkpt lat="43.77607" lon="1.60989">
        <ele>112.5</ele>
      </trkpt>
      <trkpt lat="43.77535" lon="1.60899">
        <ele>113</ele>
      </trkpt>
      <trkpt lat="43.77505" lon="1.60865">
        <ele>113</ele>
      </trkpt>
      <trkpt lat="43.77403" lon="1.60781">
        <ele>115.4</ele>
      </trkpt>
      <trkpt lat="43.77366" lon="1.60741">
        <ele>119.6</ele>
      </trkpt>
      <trkpt lat="43.7732" lon="1.6066">
        <ele>121.5</ele>
      </trkpt>
      <trkpt lat="43.77311" lon="1.60542">
        <ele>121.5</ele>
      </trkpt>
      <trkpt lat="43.77302" lon="1.60432">
        <ele>121</ele>
      </trkpt>
      <trkpt lat="43.77296" lon="1.60368">
        <ele>120.6</ele>
      </trkpt>
      <trkpt lat="43.77248" lon="1.60202">
        <ele>120</ele>
      </trkpt>
      <trkpt lat="43.77238" lon="1.60159">
        <ele>120</ele>
      </trkpt>
      <trkpt lat="43.77219" lon="1.60057">
        <ele>121.8</ele>
      </trkpt>
      <trkpt lat="43.7721" lon="1.59984">
        <ele>121.6</ele>
      </trkpt>
      <trkpt lat="43.77191" lon="1.59933">
        <ele>121.9</ele>
      </trkpt>
      <trkpt lat="43.77152" lon="1.59866">
        <ele>121</ele>
      </trkpt>
      <trkpt lat="43.77119" lon="1.59815">
        <ele>121</ele>
      </trkpt>
      <trkpt lat="43.77064" lon="1.59736">
        <ele>121</ele>
      </trkpt>
      <trkpt lat="43.76974" lon="1.596">
        <ele>121</ele>
      </trkpt>
      <trkpt lat="43.76909" lon="1.59423">
        <ele>123</ele>
      </trkpt>
      <trkpt lat="43.76864" lon="1.59308">
        <ele>123.8</ele>
      </trkpt>
      <trkpt lat="43.76816" lon="1.59174">
        <ele>125.5</ele>
      </trkpt>
      <trkpt lat="43.76482" lon="1.58636">
        <ele>140.1</ele>
      </trkpt>
      <trkpt lat="43.76109" lon="1.58031">
        <ele>163.2</ele>
      </trkpt>
      <trkpt lat="43.75797" lon="1.57515">
        <ele>168.9</ele>
      </trkpt>
      <trkpt lat="43.75522" lon="1.57057">
        <ele>172.2</ele>
      </trkpt>
      <trkpt lat="43.75481" lon="1.56945">
        <ele>173.7</ele>
      </trkpt>
      <trkpt lat="43.75376" lon="1.56681">
        <ele>185</ele>
      </trkpt>
      <trkpt lat="43.753" lon="1.56537">
        <ele>191.2</ele>
      </trkpt>
      <trkpt lat="43.75328" lon="1.56514">
        <ele>191</ele>
      </trkpt>
      <trkpt lat="43.75455" lon="1.56341">
        <ele>190.6</ele>
      </trkpt>
      <trkpt lat="43.75569" lon="1.56113">
        <ele>190</ele>
      </trkpt>
      <trkpt lat="43.7558" lon="1.56023">
        <ele>187.8</ele>
      </trkpt>
      <trkpt lat="43.75569" lon="1.55968">
        <ele>186.4</ele>
      </trkpt>
      <trkpt lat="43.75513" lon="1.55925">
        <ele>186.5</ele>
      </trkpt>
      <trkpt lat="43.75495" lon="1.55895">
        <ele>185.6</ele>
      </trkpt>
      <trkpt lat="43.755" lon="1.55802">
        <ele>188</ele>
      </trkpt>
      <trkpt lat="43.7553" lon="1.55743">
        <ele>189.2</ele>
      </trkpt>
      <trkpt lat="43.75546" lon="1.55673">
        <ele>191.3</ele>
      </trkpt>
      <trkpt lat="43.75542" lon="1.55639">
        <ele>190.5</ele>
      </trkpt>
      <trkpt lat="43.75559" lon="1.55595">
        <ele>190.5</ele>
      </trkpt>
      <trkpt lat="43.7558" lon="1.55599">
        <ele>191</ele>
      </trkpt>
      <trkpt lat="43.75607" lon="1.55556">
        <ele>190</ele>
      </trkpt>
      <trkpt lat="43.75634" lon="1.55512">
        <ele>190.98999</ele>
        <time>2023-08-24T07:44:01.918Z</time>
      </trkpt>
      <trkpt lat="43.75637" lon="1.55507">
        <ele>191.07</ele>
        <time>2023-08-24T07:44:03.193Z</time>
      </trkpt>
      <trkpt lat="43.75641" lon="1.55498">
        <ele>191.07</ele>
        <time>2023-08-24T07:44:04.264Z</time>
      </trkpt>
      <trkpt lat="43.75643" lon="1.55495">
        <ele>190.95999</ele>
        <time>2023-08-24T07:44:05.328Z</time>
      </trkpt>
      <trkpt lat="43.7565" lon="1.55486">
        <ele>190.83</ele>
        <time>2023-08-24T07:44:06.318Z</time>
      </trkpt>
      <trkpt lat="43.75655" lon="1.55482">
        <ele>190.65</ele>
        <time>2023-08-24T07:44:06.952Z</time>
      </trkpt>
      <trkpt lat="43.75661" lon="1.55477">
        <ele>190.48001</ele>
        <time>2023-08-24T07:44:08.197Z</time>
      </trkpt>
      <trkpt lat="43.75668" lon="1.55472">
        <ele>190.26001</ele>
        <time>2023-08-24T07:44:09.360Z</time>
      </trkpt>
      <trkpt lat="43.75671" lon="1.55469">
        <ele>190.01999</ele>
        <time>2023-08-24T07:44:10.333Z</time>
      </trkpt>
      <trkpt lat="43.75681" lon="1.55463">
        <ele>189.76999</ele>
        <time>2023-08-24T07:44:11.311Z</time>
      </trkpt>
      <trkpt lat="43.75685" lon="1.55458">
        <ele>189.48001</ele>
        <time>2023-08-24T07:44:12.356Z</time>
      </trkpt>
      <trkpt lat="43.75686" lon="1.55456">
        <ele>189.15</ele>
        <time>2023-08-24T07:44:14.461Z</time>
      </trkpt>
      <trkpt lat="43.75686" lon="1.55438">
        <ele>188.59</ele>
        <time>2023-08-24T07:44:15.180Z</time>
      </trkpt>
      <trkpt lat="43.75682" lon="1.55422">
        <ele>188.45</ele>
        <time>2023-08-24T07:44:16.679Z</time>
      </trkpt>
      <trkpt lat="43.7568" lon="1.55416">
        <ele>187.98001</ele>
        <time>2023-08-24T07:44:17.678Z</time>
      </trkpt>
      <trkpt lat="43.75677" lon="1.55411">
        <ele>187.84</ele>
        <time>2023-08-24T07:44:19.076Z</time>
      </trkpt>
      <trkpt lat="43.75675" lon="1.55408">
        <ele>187.72</ele>
        <time>2023-08-24T07:44:20.842Z</time>
      </trkpt>
      <trkpt lat="43.75672" lon="1.55403">
        <ele>187.5</ele>
        <time>2023-08-24T07:44:21.870Z</time>
      </trkpt>
      <trkpt lat="43.75671" lon="1.55401">
        <ele>187.42</ele>
        <time>2023-08-24T07:44:23.339Z</time>
      </trkpt>
      <trkpt lat="43.75666" lon="1.55394">
        <ele>187.23001</ele>
        <time>2023-08-24T07:44:24.309Z</time>
      </trkpt>
      <trkpt lat="43.7566" lon="1.55387">
        <ele>187.08</ele>
        <time>2023-08-24T07:44:25.357Z</time>
      </trkpt>
      <trkpt lat="43.75655" lon="1.5538">
        <ele>186.82</ele>
        <time>2023-08-24T07:44:26.327Z</time>
      </trkpt>
      <trkpt lat="43.7565" lon="1.55372">
        <ele>186.61</ele>
        <time>2023-08-24T07:44:26.854Z</time>
      </trkpt>
      <trkpt lat="43.75645" lon="1.55364">
        <ele>186.36</ele>
        <time>2023-08-24T07:44:28.108Z</time>
      </trkpt>
      <trkpt lat="43.7564" lon="1.55358">
        <ele>185.9</ele>
        <time>2023-08-24T07:44:29.800Z</time>
      </trkpt>
      <trkpt lat="43.75634" lon="1.5535">
        <ele>185.22</ele>
        <time>2023-08-24T07:44:30.921Z</time>
      </trkpt>
      <trkpt lat="43.75629" lon="1.55342">
        <ele>184.32</ele>
        <time>2023-08-24T07:44:32.665Z</time>
      </trkpt>
      <trkpt lat="43.7562" lon="1.55327">
        <ele>183.48999</ele>
        <time>2023-08-24T07:44:34.324Z</time>
      </trkpt>
      <trkpt lat="43.75613" lon="1.55317">
        <ele>182.17</ele>
        <time>2023-08-24T07:44:35.203Z</time>
      </trkpt>
      <trkpt lat="43.7561" lon="1.55311">
        <ele>181.72</ele>
        <time>2023-08-24T07:44:36.853Z</time>
      </trkpt>
      <trkpt lat="43.75608" lon="1.55308">
        <ele>181.20999</ele>
        <time>2023-08-24T07:44:37.280Z</time>
      </trkpt>
      <trkpt lat="43.75607" lon="1.55304">
        <ele>180.57</ele>
        <time>2023-08-24T07:44:39.296Z</time>
      </trkpt>
      <trkpt lat="43.756" lon="1.55295">
        <ele>179.31</ele>
        <time>2023-08-24T07:44:40.302Z</time>
      </trkpt>
      <trkpt lat="43.75599" lon="1.55292">
        <ele>178.76001</ele>
        <time>2023-08-24T07:44:41.957Z</time>
      </trkpt>
      <trkpt lat="43.75594" lon="1.55285">
        <ele>177.92</ele>
        <time>2023-08-24T07:44:42.286Z</time>
      </trkpt>
      <trkpt lat="43.75583" lon="1.55264">
        <ele>176.03</ele>
        <time>2023-08-24T07:44:44.971Z</time>
      </trkpt>
      <trkpt lat="43.75584" lon="1.55266">
        <ele>174.89</ele>
        <time>2023-08-24T07:44:45.276Z</time>
      </trkpt>
      <trkpt lat="43.75574" lon="1.55247">
        <ele>174.89</ele>
        <time>2023-08-24T07:44:46.290Z</time>
      </trkpt>
      <trkpt lat="43.75569" lon="1.55237">
        <ele>171.6</ele>
        <time>2023-08-24T07:44:47.293Z</time>
      </trkpt>
      <trkpt lat="43.75558" lon="1.55208">
        <ele>168.86</ele>
        <time>2023-08-24T07:44:49.894Z</time>
      </trkpt>
      <trkpt lat="43.75559" lon="1.55208">
        <ele>167.19</ele>
        <time>2023-08-24T07:44:50.865Z</time>
      </trkpt>
      <trkpt lat="43.75555" lon="1.55186">
        <ele>167.19</ele>
        <time>2023-08-24T07:44:52.293Z</time>
      </trkpt>
      <trkpt lat="43.75554" lon="1.55174">
        <ele>164.16</ele>
        <time>2023-08-24T07:44:52.879Z</time>
      </trkpt>
      <trkpt lat="43.75554" lon="1.55175">
        <ele>162.97</ele>
        <time>2023-08-24T07:44:53.320Z</time>
      </trkpt>
      <trkpt lat="43.75551" lon="1.55157">
        <ele>162.97</ele>
        <time>2023-08-24T07:44:55.288Z</time>
      </trkpt>
      <trkpt lat="43.75549" lon="1.5515">
        <ele>160.7</ele>
        <time>2023-08-24T07:44:57.036Z</time>
      </trkpt>
      <trkpt lat="43.75539" lon="1.55121">
        <ele>159.92</ele>
        <time>2023-08-24T07:44:57.783Z</time>
      </trkpt>
      <trkpt lat="43.75527" lon="1.55099">
        <ele>158.86</ele>
        <time>2023-08-24T07:44:58.282Z</time>
      </trkpt>
      <trkpt lat="43.7552" lon="1.55087">
        <ele>158.57</ele>
        <time>2023-08-24T07:45:00.887Z</time>
      </trkpt>
      <trkpt lat="43.75512" lon="1.55074">
        <ele>158.1</ele>
        <time>2023-08-24T07:45:01.298Z</time>
      </trkpt>
      <trkpt lat="43.75504" lon="1.5506">
        <ele>158.04001</ele>
        <time>2023-08-24T07:45:03.279Z</time>
      </trkpt>
      <trkpt lat="43.75498" lon="1.55048">
        <ele>157.94</ele>
        <time>2023-08-24T07:45:04.453Z</time>
      </trkpt>
      <trkpt lat="43.75496" lon="1.55037">
        <ele>157.86</ele>
        <time>2023-08-24T07:45:06.466Z</time>
      </trkpt>
      <trkpt lat="43.75497" lon="1.55031">
        <ele>157.85</ele>
        <time>2023-08-24T07:45:07.414Z</time>
      </trkpt>
      <trkpt lat="43.755" lon="1.55026">
        <ele>157.86</ele>
        <time>2023-08-24T07:45:08.468Z</time>
      </trkpt>
      <trkpt lat="43.7551" lon="1.55012">
        <ele>157.88</ele>
        <time>2023-08-24T07:45:11.277Z</time>
      </trkpt>
      <trkpt lat="43.75511" lon="1.54997">
        <ele>158.06</ele>
        <time>2023-08-24T07:45:13.623Z</time>
      </trkpt>
      <trkpt lat="43.7551" lon="1.54993">
        <ele>158.23999</ele>
        <time>2023-08-24T07:45:14.591Z</time>
      </trkpt>
      <trkpt lat="43.75508" lon="1.5499">
        <ele>158.33</ele>
        <time>2023-08-24T07:45:15.531Z</time>
      </trkpt>
      <trkpt lat="43.75506" lon="1.54986">
        <ele>158.45</ele>
        <time>2023-08-24T07:45:17.094Z</time>
      </trkpt>
      <trkpt lat="43.75502" lon="1.54978">
        <ele>158.59</ele>
        <time>2023-08-24T07:45:17.870Z</time>
      </trkpt>
      <trkpt lat="43.75499" lon="1.54972">
        <ele>158.89</ele>
        <time>2023-08-24T07:45:20.288Z</time>
      </trkpt>
      <trkpt lat="43.75492" lon="1.54956">
        <ele>159.26999</ele>
        <time>2023-08-24T07:45:22.550Z</time>
      </trkpt>
      <trkpt lat="43.75491" lon="1.54952">
        <ele>159.62</ele>
        <time>2023-08-24T07:45:22.666Z</time>
      </trkpt>
      <trkpt lat="43.75489" lon="1.54948">
        <ele>159.86</ele>
        <time>2023-08-24T07:45:24.769Z</time>
      </trkpt>
      <trkpt lat="43.75484" lon="1.54933">
        <ele>160.29001</ele>
        <time>2023-08-24T07:45:27.306Z</time>
      </trkpt>
      <trkpt lat="43.75483" lon="1.54928">
        <ele>160.78</ele>
        <time>2023-08-24T07:45:28.589Z</time>
      </trkpt>
      <trkpt lat="43.75483" lon="1.54924">
        <ele>161.03</ele>
        <time>2023-08-24T07:45:30.940Z</time>
      </trkpt>
      <trkpt lat="43.7548" lon="1.5491">
        <ele>161.48001</ele>
        <time>2023-08-24T07:45:33.117Z</time>
      </trkpt>
      <trkpt lat="43.75479" lon="1.54907">
        <ele>161.76001</ele>
        <time>2023-08-24T07:45:34.186Z</time>
      </trkpt>
      <trkpt lat="43.75478" lon="1.54902">
        <ele>162.05</ele>
        <time>2023-08-24T07:45:35.366Z</time>
      </trkpt>
      <trkpt lat="43.75477" lon="1.54898">
        <ele>162.34</ele>
        <time>2023-08-24T07:45:36.172Z</time>
      </trkpt>
      <trkpt lat="43.75476" lon="1.54894">
        <ele>162.54001</ele>
        <time>2023-08-24T07:45:36.637Z</time>
      </trkpt>
      <trkpt lat="43.75475" lon="1.54889">
        <ele>162.75</ele>
        <time>2023-08-24T07:45:38.346Z</time>
      </trkpt>
      <trkpt lat="43.75473" lon="1.54879">
        <ele>162.94</ele>
        <time>2023-08-24T07:45:41.015Z</time>
      </trkpt>
      <trkpt lat="43.75471" lon="1.54873">
        <ele>163.42</ele>
        <time>2023-08-24T07:45:41.281Z</time>
      </trkpt>
      <trkpt lat="43.75469" lon="1.54868">
        <ele>163.65</ele>
        <time>2023-08-24T07:45:44.924Z</time>
      </trkpt>
      <trkpt lat="43.75464" lon="1.54857">
        <ele>163.92</ele>
        <time>2023-08-24T07:45:46.700Z</time>
      </trkpt>
      <trkpt lat="43.7546" lon="1.54849">
        <ele>164.63</ele>
        <time>2023-08-24T07:45:48.903Z</time>
      </trkpt>
      <trkpt lat="43.75459" lon="1.54847">
        <ele>164.85</ele>
        <time>2023-08-24T07:45:49.721Z</time>
      </trkpt>
      <trkpt lat="43.75453" lon="1.54836">
        <ele>165.38</ele>
        <time>2023-08-24T07:45:52.322Z</time>
      </trkpt>
      <trkpt lat="43.75449" lon="1.54828">
        <ele>165.82</ele>
        <time>2023-08-24T07:45:54.142Z</time>
      </trkpt>
      <trkpt lat="43.75447" lon="1.54826">
        <ele>166.03</ele>
        <time>2023-08-24T07:45:54.894Z</time>
      </trkpt>
      <trkpt lat="43.75443" lon="1.54819">
        <ele>166.26001</ele>
        <time>2023-08-24T07:45:56.906Z</time>
      </trkpt>
      <trkpt lat="43.75441" lon="1.54815">
        <ele>166.76999</ele>
        <time>2023-08-24T07:45:59.112Z</time>
      </trkpt>
      <trkpt lat="43.75439" lon="1.54812">
        <ele>167.11</ele>
        <time>2023-08-24T07:45:59.894Z</time>
      </trkpt>
      <trkpt lat="43.75433" lon="1.548">
        <ele>167.73999</ele>
        <time>2023-08-24T07:46:01.995Z</time>
      </trkpt>
      <trkpt lat="43.75429" lon="1.54791">
        <ele>168.36</ele>
        <time>2023-08-24T07:46:03.890Z</time>
      </trkpt>
      <trkpt lat="43.75426" lon="1.54786">
        <ele>168.59</ele>
        <time>2023-08-24T07:46:05.401Z</time>
      </trkpt>
      <trkpt lat="43.75424" lon="1.54783">
        <ele>168.95</ele>
        <time>2023-08-24T07:46:07.080Z</time>
      </trkpt>
      <trkpt lat="43.75422" lon="1.5478">
        <ele>169.18</ele>
        <time>2023-08-24T07:46:08.421Z</time>
      </trkpt>
      <trkpt lat="43.7542" lon="1.54777">
        <ele>169.4</ele>
        <time>2023-08-24T07:46:09.586Z</time>
      </trkpt>
      <trkpt lat="43.75418" lon="1.54774">
        <ele>169.5</ele>
        <time>2023-08-24T07:46:10.362Z</time>
      </trkpt>
      <trkpt lat="43.75415" lon="1.54772">
        <ele>169.70999</ele>
        <time>2023-08-24T07:46:11.402Z</time>
      </trkpt>
      <trkpt lat="43.75413" lon="1.54769">
        <ele>169.88</ele>
        <time>2023-08-24T07:46:13.493Z</time>
      </trkpt>
      <trkpt lat="43.7541" lon="1.54767">
        <ele>170.06</ele>
        <time>2023-08-24T07:46:15.399Z</time>
      </trkpt>
      <trkpt lat="43.75402" lon="1.54761">
        <ele>170.55</ele>
        <time>2023-08-24T07:46:16.410Z</time>
      </trkpt>
      <trkpt lat="43.75401" lon="1.5476">
        <ele>170.79001</ele>
        <time>2023-08-24T07:46:17.654Z</time>
      </trkpt>
      <trkpt lat="43.75399" lon="1.54759">
        <ele>171.11</ele>
        <time>2023-08-24T07:46:18.296Z</time>
      </trkpt>
      <trkpt lat="43.75397" lon="1.54758">
        <ele>171.45</ele>
        <time>2023-08-24T07:46:20.613Z</time>
      </trkpt>
      <trkpt lat="43.75391" lon="1.54754">
        <ele>171.73999</ele>
        <time>2023-08-24T07:46:21.510Z</time>
      </trkpt>
      <trkpt lat="43.75388" lon="1.54752">
        <ele>172.37</ele>
        <time>2023-08-24T07:46:24.577Z</time>
      </trkpt>
      <trkpt lat="43.75383" lon="1.54749">
        <ele>172.78</ele>
        <time>2023-08-24T07:46:24.831Z</time>
      </trkpt>
      <trkpt lat="43.75376" lon="1.54744">
        <ele>173.64</ele>
        <time>2023-08-24T07:46:28.789Z</time>
      </trkpt>
      <trkpt lat="43.75375" lon="1.54743">
        <ele>174.09</ele>
        <time>2023-08-24T07:46:29.411Z</time>
      </trkpt>
      <trkpt lat="43.75373" lon="1.54742">
        <ele>174.53</ele>
        <time>2023-08-24T07:46:30.836Z</time>
      </trkpt>
      <trkpt lat="43.75368" lon="1.54735">
        <ele>175.01001</ele>
        <time>2023-08-24T07:46:32.356Z</time>
      </trkpt>
      <trkpt lat="43.75366" lon="1.54733">
        <ele>175.98999</ele>
        <time>2023-08-24T07:46:34.319Z</time>
      </trkpt>
      <trkpt lat="43.75364" lon="1.54728">
        <ele>176.37</ele>
        <time>2023-08-24T07:46:35.080Z</time>
      </trkpt>
      <trkpt lat="43.75362" lon="1.54725">
        <ele>177.19</ele>
        <time>2023-08-24T07:46:36.265Z</time>
      </trkpt>
      <trkpt lat="43.75361" lon="1.54722">
        <ele>177.48999</ele>
        <time>2023-08-24T07:46:39.871Z</time>
      </trkpt>
      <trkpt lat="43.75357" lon="1.54712">
        <ele>178.18</ele>
        <time>2023-08-24T07:46:41.298Z</time>
      </trkpt>
      <trkpt lat="43.75355" lon="1.54706">
        <ele>178.91</ele>
        <time>2023-08-24T07:46:43.290Z</time>
      </trkpt>
      <trkpt lat="43.75354" lon="1.54704">
        <ele>179.42</ele>
        <time>2023-08-24T07:46:44.747Z</time>
      </trkpt>
      <trkpt lat="43.75352" lon="1.54701">
        <ele>179.81</ele>
        <time>2023-08-24T07:46:46.778Z</time>
      </trkpt>
      <trkpt lat="43.75349" lon="1.54693">
        <ele>180.41</ele>
        <time>2023-08-24T07:46:48.351Z</time>
      </trkpt>
      <trkpt lat="43.75348" lon="1.5469">
        <ele>180.73999</ele>
        <time>2023-08-24T07:46:51.485Z</time>
      </trkpt>
      <trkpt lat="43.75344" lon="1.54685">
        <ele>181.48999</ele>
        <time>2023-08-24T07:46:51.638Z</time>
      </trkpt>
      <trkpt lat="43.75343" lon="1.54682">
        <ele>181.79001</ele>
        <time>2023-08-24T07:46:52.677Z</time>
      </trkpt>
      <trkpt lat="43.75338" lon="1.54673">
        <ele>182.43</ele>
        <time>2023-08-24T07:46:56.359Z</time>
      </trkpt>
      <trkpt lat="43.75336" lon="1.54668">
        <ele>183.04001</ele>
        <time>2023-08-24T07:46:58.086Z</time>
      </trkpt>
      <trkpt lat="43.75335" lon="1.54665">
        <ele>183.56</ele>
        <time>2023-08-24T07:47:01.004Z</time>
      </trkpt>
      <trkpt lat="43.75331" lon="1.54656">
        <ele>183.98999</ele>
        <time>2023-08-24T07:47:01.752Z</time>
      </trkpt>
      <trkpt lat="43.7533" lon="1.54653">
        <ele>184.15</ele>
        <time>2023-08-24T07:47:03.772Z</time>
      </trkpt>
      <trkpt lat="43.75328" lon="1.54651">
        <ele>184.34</ele>
        <time>2023-08-24T07:47:05.252Z</time>
      </trkpt>
      <trkpt lat="43.75326" lon="1.54648">
        <ele>184.48001</ele>
        <time>2023-08-24T07:47:06.416Z</time>
      </trkpt>
      <trkpt lat="43.75322" lon="1.5464">
        <ele>184.67</ele>
        <time>2023-08-24T07:47:07.441Z</time>
      </trkpt>
      <trkpt lat="43.75319" lon="1.54632">
        <ele>184.87</ele>
        <time>2023-08-24T07:47:10.422Z</time>
      </trkpt>
      <trkpt lat="43.75315" lon="1.54621">
        <ele>185.01001</ele>
        <time>2023-08-24T07:47:12.929Z</time>
      </trkpt>
      <trkpt lat="43.75314" lon="1.54619">
        <ele>185.08</ele>
        <time>2023-08-24T07:47:15.299Z</time>
      </trkpt>
      <trkpt lat="43.75309" lon="1.546">
        <ele>185.03</ele>
        <time>2023-08-24T07:47:16.877Z</time>
      </trkpt>
      <trkpt lat="43.75305" lon="1.54585">
        <ele>185</ele>
        <time>2023-08-24T07:47:18.658Z</time>
      </trkpt>
      <trkpt lat="43.75303" lon="1.5457">
        <ele>184.86</ele>
        <time>2023-08-24T07:47:20.627Z</time>
      </trkpt>
      <trkpt lat="43.75301" lon="1.54561">
        <ele>184.48001</ele>
        <time>2023-08-24T07:47:23.357Z</time>
      </trkpt>
      <trkpt lat="43.753" lon="1.54554">
        <ele>184.26999</ele>
        <time>2023-08-24T07:47:24.336Z</time>
      </trkpt>
      <trkpt lat="43.75299" lon="1.54546">
        <ele>183.98999</ele>
        <time>2023-08-24T07:47:26.357Z</time>
      </trkpt>
      <trkpt lat="43.75298" lon="1.5453">
        <ele>183.31</ele>
        <time>2023-08-24T07:47:26.902Z</time>
      </trkpt>
      <trkpt lat="43.75297" lon="1.54525">
        <ele>182.98999</ele>
        <time>2023-08-24T07:47:29.340Z</time>
      </trkpt>
      <trkpt lat="43.75296" lon="1.54523">
        <ele>182.62</ele>
        <time>2023-08-24T07:47:29.396Z</time>
      </trkpt>
      <trkpt lat="43.75293" lon="1.54494">
        <ele>181.98001</ele>
        <time>2023-08-24T07:47:31.256Z</time>
      </trkpt>
      <trkpt lat="43.75292" lon="1.54488">
        <ele>181.62</ele>
        <time>2023-08-24T07:47:32.691Z</time>
      </trkpt>
      <trkpt lat="43.75291" lon="1.54473">
        <ele>181.28</ele>
        <time>2023-08-24T07:47:34.839Z</time>
      </trkpt>
      <trkpt lat="43.75292" lon="1.5445">
        <ele>180.68</ele>
        <time>2023-08-24T07:47:37.310Z</time>
      </trkpt>
      <trkpt lat="43.75295" lon="1.54438">
        <ele>179.78</ele>
        <time>2023-08-24T07:47:38.315Z</time>
      </trkpt>
      <trkpt lat="43.75299" lon="1.54427">
        <ele>179.37</ele>
        <time>2023-08-24T07:47:40.334Z</time>
      </trkpt>
      <trkpt lat="43.75302" lon="1.54419">
        <ele>178.88</ele>
        <time>2023-08-24T07:47:42.546Z</time>
      </trkpt>
      <trkpt lat="43.75308" lon="1.54405">
        <ele>178.6</ele>
        <time>2023-08-24T07:47:43.382Z</time>
      </trkpt>
      <trkpt lat="43.75313" lon="1.54394">
        <ele>177.93</ele>
        <time>2023-08-24T07:47:45.382Z</time>
      </trkpt>
      <trkpt lat="43.75312" lon="1.54395">
        <ele>177.65</ele>
        <time>2023-08-24T07:47:46.939Z</time>
      </trkpt>
      <trkpt lat="43.75326" lon="1.54362">
        <ele>177.65</ele>
        <time>2023-08-24T07:47:48.382Z</time>
      </trkpt>
      <trkpt lat="43.75328" lon="1.54356">
        <ele>176.92</ele>
        <time>2023-08-24T07:47:50.796Z</time>
      </trkpt>
      <trkpt lat="43.75334" lon="1.54344">
        <ele>176.67</ele>
        <time>2023-08-24T07:47:51.375Z</time>
      </trkpt>
      <trkpt lat="43.75337" lon="1.54336">
        <ele>176.51999</ele>
        <time>2023-08-24T07:47:53.295Z</time>
      </trkpt>
      <trkpt lat="43.75343" lon="1.54321">
        <ele>175.76999</ele>
        <time>2023-08-24T07:47:55.316Z</time>
      </trkpt>
      <trkpt lat="43.75346" lon="1.54312">
        <ele>175.48999</ele>
        <time>2023-08-24T07:47:55.921Z</time>
      </trkpt>
      <trkpt lat="43.75348" lon="1.54304">
        <ele>175.2</ele>
        <time>2023-08-24T07:47:56.867Z</time>
      </trkpt>
      <trkpt lat="43.75352" lon="1.54286">
        <ele>174.76001</ele>
        <time>2023-08-24T07:47:59.367Z</time>
      </trkpt>
      <trkpt lat="43.75354" lon="1.54273">
        <ele>173.66</ele>
        <time>2023-08-24T07:47:59.953Z</time>
      </trkpt>
      <trkpt lat="43.75352" lon="1.54259">
        <ele>172.57</ele>
        <time>2023-08-24T07:48:01.283Z</time>
      </trkpt>
      <trkpt lat="43.75348" lon="1.54252">
        <ele>172.08</ele>
        <time>2023-08-24T07:48:02.094Z</time>
      </trkpt>
      <trkpt lat="43.75343" lon="1.54245">
        <ele>171.57</ele>
        <time>2023-08-24T07:48:03.322Z</time>
      </trkpt>
      <trkpt lat="43.75339" lon="1.5424">
        <ele>171.03</ele>
        <time>2023-08-24T07:48:04.317Z</time>
      </trkpt>
      <trkpt lat="43.75331" lon="1.54231">
        <ele>170.51999</ele>
        <time>2023-08-24T07:48:05.306Z</time>
      </trkpt>
      <trkpt lat="43.75325" lon="1.54223">
        <ele>170.11</ele>
        <time>2023-08-24T07:48:06.310Z</time>
      </trkpt>
      <trkpt lat="43.75318" lon="1.54211">
        <ele>169.45999</ele>
        <time>2023-08-24T07:48:08.926Z</time>
      </trkpt>
      <trkpt lat="43.75312" lon="1.542">
        <ele>169.18</ele>
        <time>2023-08-24T07:48:09.838Z</time>
      </trkpt>
      <trkpt lat="43.75303" lon="1.54179">
        <ele>168.48001</ele>
        <time>2023-08-24T07:48:10.514Z</time>
      </trkpt>
      <trkpt lat="43.753" lon="1.54171">
        <ele>168.25</ele>
        <time>2023-08-24T07:48:14.101Z</time>
      </trkpt>
      <trkpt lat="43.75296" lon="1.54162">
        <ele>167.82</ele>
        <time>2023-08-24T07:48:15.283Z</time>
      </trkpt>
      <trkpt lat="43.75292" lon="1.54148">
        <ele>167.67</ele>
        <time>2023-08-24T07:48:16.915Z</time>
      </trkpt>
      <trkpt lat="43.75283" lon="1.54113">
        <ele>167.48001</ele>
        <time>2023-08-24T07:48:18.289Z</time>
      </trkpt>
      <trkpt lat="43.75282" lon="1.54105">
        <ele>167.67</ele>
        <time>2023-08-24T07:48:21.308Z</time>
      </trkpt>
      <trkpt lat="43.75286" lon="1.54082">
        <ele>167.78</ele>
        <time>2023-08-24T07:48:22.285Z</time>
      </trkpt>
      <trkpt lat="43.75288" lon="1.54071">
        <ele>168.44</ele>
        <time>2023-08-24T07:48:25.374Z</time>
      </trkpt>
      <trkpt lat="43.75288" lon="1.54065">
        <ele>168.84</ele>
        <time>2023-08-24T07:48:26.308Z</time>
      </trkpt>
      <trkpt lat="43.75288" lon="1.54061">
        <ele>168.98001</ele>
        <time>2023-08-24T07:48:26.712Z</time>
      </trkpt>
      <trkpt lat="43.75289" lon="1.54047">
        <ele>169.45999</ele>
        <time>2023-08-24T07:48:29.819Z</time>
      </trkpt>
      <trkpt lat="43.75288" lon="1.54039">
        <ele>169.7</ele>
        <time>2023-08-24T07:48:30.628Z</time>
      </trkpt>
      <trkpt lat="43.75288" lon="1.54034">
        <ele>170.25</ele>
        <time>2023-08-24T07:48:32.807Z</time>
      </trkpt>
      <trkpt lat="43.75288" lon="1.5403">
        <ele>170.51001</ele>
        <time>2023-08-24T07:48:33.165Z</time>
      </trkpt>
      <trkpt lat="43.75288" lon="1.54026">
        <ele>170.76001</ele>
        <time>2023-08-24T07:48:35.588Z</time>
      </trkpt>
      <trkpt lat="43.75287" lon="1.54022">
        <ele>171.15</ele>
        <time>2023-08-24T07:48:36.104Z</time>
      </trkpt>
      <trkpt lat="43.75286" lon="1.54015">
        <ele>171.53</ele>
        <time>2023-08-24T07:48:37.320Z</time>
      </trkpt>
      <trkpt lat="43.75284" lon="1.54002">
        <ele>172.2</ele>
        <time>2023-08-24T07:48:38.959Z</time>
      </trkpt>
      <trkpt lat="43.75283" lon="1.53998">
        <ele>172.5</ele>
        <time>2023-08-24T07:48:40.288Z</time>
      </trkpt>
      <trkpt lat="43.75283" lon="1.53995">
        <ele>172.86</ele>
        <time>2023-08-24T07:48:41.462Z</time>
      </trkpt>
      <trkpt lat="43.75282" lon="1.53991">
        <ele>173.13</ele>
        <time>2023-08-24T07:48:42.692Z</time>
      </trkpt>
      <trkpt lat="43.75277" lon="1.53977">
        <ele>173.8</ele>
        <time>2023-08-24T07:48:43.767Z</time>
      </trkpt>
      <trkpt lat="43.75276" lon="1.53973">
        <ele>173.98001</ele>
        <time>2023-08-24T07:48:46.359Z</time>
      </trkpt>
      <trkpt lat="43.75272" lon="1.53963">
        <ele>174.44</ele>
        <time>2023-08-24T07:48:47.402Z</time>
      </trkpt>
      <trkpt lat="43.75266" lon="1.53952">
        <ele>174.76001</ele>
        <time>2023-08-24T07:48:50.912Z</time>
      </trkpt>
      <trkpt lat="43.75263" lon="1.53946">
        <ele>175.15</ele>
        <time>2023-08-24T07:48:51.470Z</time>
      </trkpt>
      <trkpt lat="43.75262" lon="1.53942">
        <ele>175.36</ele>
        <time>2023-08-24T07:48:53.717Z</time>
      </trkpt>
      <trkpt lat="43.75261" lon="1.5394">
        <ele>175.58</ele>
        <time>2023-08-24T07:48:53.903Z</time>
      </trkpt>
      <trkpt lat="43.75257" lon="1.53931">
        <ele>175.78</ele>
        <time>2023-08-24T07:48:56.475Z</time>
      </trkpt>
      <trkpt lat="43.75254" lon="1.53925">
        <ele>176.28</ele>
        <time>2023-08-24T07:48:57.808Z</time>
      </trkpt>
      <trkpt lat="43.75253" lon="1.53921">
        <ele>176.58</ele>
        <time>2023-08-24T07:48:58.688Z</time>
      </trkpt>
      <trkpt lat="43.7525" lon="1.53916">
        <ele>176.89</ele>
        <time>2023-08-24T07:48:59.960Z</time>
      </trkpt>
      <trkpt lat="43.75249" lon="1.53912">
        <ele>177.23999</ele>
        <time>2023-08-24T07:49:00.974Z</time>
      </trkpt>
      <trkpt lat="43.75246" lon="1.53907">
        <ele>177.53</ele>
        <time>2023-08-24T07:49:02.454Z</time>
      </trkpt>
      <trkpt lat="43.7524" lon="1.53893">
        <ele>177.88</ele>
        <time>2023-08-24T07:49:04.669Z</time>
      </trkpt>
      <trkpt lat="43.75238" lon="1.53889">
        <ele>178.72</ele>
        <time>2023-08-24T07:49:06.700Z</time>
      </trkpt>
      <trkpt lat="43.75236" lon="1.53886">
        <ele>179.01001</ele>
        <time>2023-08-24T07:49:07.470Z</time>
      </trkpt>
      <trkpt lat="43.75233" lon="1.53881">
        <ele>179.32</ele>
        <time>2023-08-24T07:49:08.848Z</time>
      </trkpt>
      <trkpt lat="43.75231" lon="1.53878">
        <ele>179.62</ele>
        <time>2023-08-24T07:49:09.600Z</time>
      </trkpt>
      <trkpt lat="43.75227" lon="1.53874">
        <ele>179.97</ele>
        <time>2023-08-24T07:49:11.412Z</time>
      </trkpt>
      <trkpt lat="43.75224" lon="1.53871">
        <ele>180.28</ele>
        <time>2023-08-24T07:49:12.969Z</time>
      </trkpt>
      <trkpt lat="43.75221" lon="1.53868">
        <ele>180.63</ele>
        <time>2023-08-24T07:49:14.773Z</time>
      </trkpt>
      <trkpt lat="43.75212" lon="1.53861">
        <ele>181.4</ele>
        <time>2023-08-24T07:49:16.534Z</time>
      </trkpt>
      <trkpt lat="43.7521" lon="1.53859">
        <ele>181.83</ele>
        <time>2023-08-24T07:49:17.763Z</time>
      </trkpt>
      <trkpt lat="43.75202" lon="1.53854">
        <ele>182.26999</ele>
        <time>2023-08-24T07:49:19.593Z</time>
      </trkpt>
      <trkpt lat="43.75196" lon="1.5385">
        <ele>183.07</ele>
        <time>2023-08-24T07:49:21.482Z</time>
      </trkpt>
      <trkpt lat="43.75194" lon="1.53848">
        <ele>183.57</ele>
        <time>2023-08-24T07:49:22.961Z</time>
      </trkpt>
      <trkpt lat="43.75191" lon="1.53847">
        <ele>183.94</ele>
        <time>2023-08-24T07:49:23.501Z</time>
      </trkpt>
      <trkpt lat="43.75188" lon="1.53844">
        <ele>184.31</ele>
        <time>2023-08-24T07:49:25.202Z</time>
      </trkpt>
      <trkpt lat="43.75185" lon="1.53842">
        <ele>184.67</ele>
        <time>2023-08-24T07:49:26.274Z</time>
      </trkpt>
      <trkpt lat="43.75179" lon="1.53835">
        <ele>185.14</ele>
        <time>2023-08-24T07:49:28.792Z</time>
      </trkpt>
      <trkpt lat="43.75176" lon="1.53832">
        <ele>186.15</ele>
        <time>2023-08-24T07:49:31.449Z</time>
      </trkpt>
      <trkpt lat="43.75169" lon="1.53826">
        <ele>187.41</ele>
        <time>2023-08-24T07:49:31.671Z</time>
      </trkpt>
      <trkpt lat="43.75167" lon="1.53824">
        <ele>187.98001</ele>
        <time>2023-08-24T07:49:33.684Z</time>
      </trkpt>
      <trkpt lat="43.75161" lon="1.53818">
        <ele>189.18</ele>
        <time>2023-08-24T07:49:35.399Z</time>
      </trkpt>
      <trkpt lat="43.75158" lon="1.53816">
        <ele>189.7</ele>
        <time>2023-08-24T07:49:36.968Z</time>
      </trkpt>
      <trkpt lat="43.75157" lon="1.53814">
        <ele>190.14</ele>
        <time>2023-08-24T07:49:39.260Z</time>
      </trkpt>
      <trkpt lat="43.75151" lon="1.53808">
        <ele>191.19</ele>
        <time>2023-08-24T07:49:41.005Z</time>
      </trkpt>
      <trkpt lat="43.75146" lon="1.53804">
        <ele>191.59</ele>
        <time>2023-08-24T07:49:41.976Z</time>
      </trkpt>
      <trkpt lat="43.75142" lon="1.53801">
        <ele>192.29001</ele>
        <time>2023-08-24T07:49:44.202Z</time>
      </trkpt>
      <trkpt lat="43.7514" lon="1.53799">
        <ele>193.03</ele>
        <time>2023-08-24T07:49:45.480Z</time>
      </trkpt>
      <trkpt lat="43.75138" lon="1.53796">
        <ele>193.5</ele>
        <time>2023-08-24T07:49:47.949Z</time>
      </trkpt>
      <trkpt lat="43.75133" lon="1.5379">
        <ele>194.03</ele>
        <time>2023-08-24T07:49:48.677Z</time>
      </trkpt>
      <trkpt lat="43.75131" lon="1.53787">
        <ele>194.62</ele>
        <time>2023-08-24T07:49:49.477Z</time>
      </trkpt>
      <trkpt lat="43.75129" lon="1.53785">
        <ele>195.15</ele>
        <time>2023-08-24T07:49:50.719Z</time>
      </trkpt>
      <trkpt lat="43.75126" lon="1.5378">
        <ele>195.63</ele>
        <time>2023-08-24T07:49:53.504Z</time>
      </trkpt>
      <trkpt lat="43.75123" lon="1.53777">
        <ele>196.6</ele>
        <time>2023-08-24T07:49:53.798Z</time>
      </trkpt>
      <trkpt lat="43.75121" lon="1.53774">
        <ele>197.01999</ele>
        <time>2023-08-24T07:49:55.561Z</time>
      </trkpt>
      <trkpt lat="43.75119" lon="1.53771">
        <ele>197.44</ele>
        <time>2023-08-24T07:49:56.876Z</time>
      </trkpt>
      <trkpt lat="43.75116" lon="1.53768">
        <ele>197.88</ele>
        <time>2023-08-24T07:49:58.709Z</time>
      </trkpt>
      <trkpt lat="43.75114" lon="1.53766">
        <ele>198.31</ele>
        <time>2023-08-24T07:49:59.984Z</time>
      </trkpt>
      <trkpt lat="43.75109" lon="1.5376">
        <ele>198.75</ele>
        <time>2023-08-24T07:50:01.540Z</time>
      </trkpt>
      <trkpt lat="43.75107" lon="1.53757">
        <ele>199.45</ele>
        <time>2023-08-24T07:50:03.750Z</time>
      </trkpt>
      <trkpt lat="43.75101" lon="1.5375">
        <ele>199.79001</ele>
        <time>2023-08-24T07:50:04.759Z</time>
      </trkpt>
      <trkpt lat="43.75099" lon="1.53748">
        <ele>200.51001</ele>
        <time>2023-08-24T07:50:07.003Z</time>
      </trkpt>
      <trkpt lat="43.75095" lon="1.53744">
        <ele>200.89</ele>
        <time>2023-08-24T07:50:08.268Z</time>
      </trkpt>
      <trkpt lat="43.75093" lon="1.53741">
        <ele>201.8</ele>
        <time>2023-08-24T07:50:09.436Z</time>
      </trkpt>
      <trkpt lat="43.75091" lon="1.53739">
        <ele>202.3</ele>
        <time>2023-08-24T07:50:10.962Z</time>
      </trkpt>
      <trkpt lat="43.75089" lon="1.53736">
        <ele>202.89</ele>
        <time>2023-08-24T07:50:12.703Z</time>
      </trkpt>
      <trkpt lat="43.75087" lon="1.53734">
        <ele>203.48999</ele>
        <time>2023-08-24T07:50:13.244Z</time>
      </trkpt>
      <trkpt lat="43.75081" lon="1.53727">
        <ele>204.05</ele>
        <time>2023-08-24T07:50:15.758Z</time>
      </trkpt>
      <trkpt lat="43.75079" lon="1.53725">
        <ele>205.05</ele>
        <time>2023-08-24T07:50:18.341Z</time>
      </trkpt>
      <trkpt lat="43.75074" lon="1.53719">
        <ele>205.57</ele>
        <time>2023-08-24T07:50:18.735Z</time>
      </trkpt>
      <trkpt lat="43.75071" lon="1.53715">
        <ele>206.53</ele>
        <time>2023-08-24T07:50:21.922Z</time>
      </trkpt>
      <trkpt lat="43.75068" lon="1.53711">
        <ele>207.53</ele>
        <time>2023-08-24T07:50:23.977Z</time>
      </trkpt>
      <trkpt lat="43.7506" lon="1.53702">
        <ele>208.61</ele>
        <time>2023-08-24T07:50:26.273Z</time>
      </trkpt>
      <trkpt lat="43.75058" lon="1.537">
        <ele>209.45</ele>
        <time>2023-08-24T07:50:28.258Z</time>
      </trkpt>
      <trkpt lat="43.75056" lon="1.53697">
        <ele>209.92</ele>
        <time>2023-08-24T07:50:29.397Z</time>
      </trkpt>
      <trkpt lat="43.7505" lon="1.5369">
        <ele>210.68</ele>
        <time>2023-08-24T07:50:32.451Z</time>
      </trkpt>
      <trkpt lat="43.75046" lon="1.53685">
        <ele>211.51</ele>
        <time>2023-08-24T07:50:33.760Z</time>
      </trkpt>
      <trkpt lat="43.75043" lon="1.53682">
        <ele>211.9</ele>
        <time>2023-08-24T07:50:34.669Z</time>
      </trkpt>
      <trkpt lat="43.75042" lon="1.5368">
        <ele>212.32</ele>
        <time>2023-08-24T07:50:37.158Z</time>
      </trkpt>
      <trkpt lat="43.75041" lon="1.53678">
        <ele>212.71</ele>
        <time>2023-08-24T07:50:37.823Z</time>
      </trkpt>
      <trkpt lat="43.75037" lon="1.53674">
        <ele>213.07</ele>
        <time>2023-08-24T07:50:40.261Z</time>
      </trkpt>
      <trkpt lat="43.75035" lon="1.53671">
        <ele>213.49</ele>
        <time>2023-08-24T07:50:41.095Z</time>
      </trkpt>
      <trkpt lat="43.75027" lon="1.53662">
        <ele>214.35</ele>
        <time>2023-08-24T07:50:42.261Z</time>
      </trkpt>
      <trkpt lat="43.75026" lon="1.53659">
        <ele>214.73</ele>
        <time>2023-08-24T07:50:43.017Z</time>
      </trkpt>
      <trkpt lat="43.75024" lon="1.53656">
        <ele>215.03</ele>
        <time>2023-08-24T07:50:44.319Z</time>
      </trkpt>
      <trkpt lat="43.75022" lon="1.53654">
        <ele>215.27</ele>
        <time>2023-08-24T07:50:45.023Z</time>
      </trkpt>
      <trkpt lat="43.75016" lon="1.53646">
        <ele>215.5</ele>
        <time>2023-08-24T07:50:47.038Z</time>
      </trkpt>
      <trkpt lat="43.75013" lon="1.53641">
        <ele>215.85</ele>
        <time>2023-08-24T07:50:48.021Z</time>
      </trkpt>
      <trkpt lat="43.7501" lon="1.53636">
        <ele>215.96</ele>
        <time>2023-08-24T07:50:50.519Z</time>
      </trkpt>
      <trkpt lat="43.75002" lon="1.53623">
        <ele>216.04</ele>
        <time>2023-08-24T07:50:52.481Z</time>
      </trkpt>
      <trkpt lat="43.74998" lon="1.53615">
        <ele>216.17</ele>
        <time>2023-08-24T07:50:53.225Z</time>
      </trkpt>
      <trkpt lat="43.74995" lon="1.53609">
        <ele>216.26</ele>
        <time>2023-08-24T07:50:55.366Z</time>
      </trkpt>
      <trkpt lat="43.74994" lon="1.53605">
        <ele>216.32</ele>
        <time>2023-08-24T07:50:56.208Z</time>
      </trkpt>
      <trkpt lat="43.74992" lon="1.53599">
        <ele>216.36</ele>
        <time>2023-08-24T07:50:58.191Z</time>
      </trkpt>
      <trkpt lat="43.7499" lon="1.53595">
        <ele>216.43</ele>
        <time>2023-08-24T07:50:58.903Z</time>
      </trkpt>
      <trkpt lat="43.74986" lon="1.53584">
        <ele>216.51</ele>
        <time>2023-08-24T07:51:00.920Z</time>
      </trkpt>
      <trkpt lat="43.74985" lon="1.5358">
        <ele>216.62</ele>
        <time>2023-08-24T07:51:01.907Z</time>
      </trkpt>
      <trkpt lat="43.74981" lon="1.5357">
        <ele>216.68</ele>
        <time>2023-08-24T07:51:02.889Z</time>
      </trkpt>
      <trkpt lat="43.74979" lon="1.53565">
        <ele>216.76</ele>
        <time>2023-08-24T07:51:03.323Z</time>
      </trkpt>
      <trkpt lat="43.74977" lon="1.53558">
        <ele>216.85</ele>
        <time>2023-08-24T07:51:04.815Z</time>
      </trkpt>
      <trkpt lat="43.74974" lon="1.53548">
        <ele>216.93</ele>
        <time>2023-08-24T07:51:08.006Z</time>
      </trkpt>
      <trkpt lat="43.74971" lon="1.53541">
        <ele>217.26</ele>
        <time>2023-08-24T07:51:08.265Z</time>
      </trkpt>
      <trkpt lat="43.74969" lon="1.53534">
        <ele>217.42</ele>
        <time>2023-08-24T07:51:10.285Z</time>
      </trkpt>
      <trkpt lat="43.74968" lon="1.5353">
        <ele>217.61</ele>
        <time>2023-08-24T07:51:11.523Z</time>
      </trkpt>
      <trkpt lat="43.74966" lon="1.53524">
        <ele>217.78</ele>
        <time>2023-08-24T07:51:12.716Z</time>
      </trkpt>
      <trkpt lat="43.74964" lon="1.53519">
        <ele>217.9</ele>
        <time>2023-08-24T07:51:13.926Z</time>
      </trkpt>
      <trkpt lat="43.74962" lon="1.53513">
        <ele>218.01</ele>
        <time>2023-08-24T07:51:15.514Z</time>
      </trkpt>
      <trkpt lat="43.74958" lon="1.53501">
        <ele>218.19</ele>
        <time>2023-08-24T07:51:16.435Z</time>
      </trkpt>
      <trkpt lat="43.74956" lon="1.53495">
        <ele>218.51</ele>
        <time>2023-08-24T07:51:18.598Z</time>
      </trkpt>
      <trkpt lat="43.74955" lon="1.53492">
        <ele>218.75</ele>
        <time>2023-08-24T07:51:19.512Z</time>
      </trkpt>
      <trkpt lat="43.7495" lon="1.5348">
        <ele>218.95</ele>
        <time>2023-08-24T07:51:21.491Z</time>
      </trkpt>
      <trkpt lat="43.74947" lon="1.53473">
        <ele>219.24</ele>
        <time>2023-08-24T07:51:23.375Z</time>
      </trkpt>
      <trkpt lat="43.74942" lon="1.5346">
        <ele>219.55</ele>
        <time>2023-08-24T07:51:26.076Z</time>
      </trkpt>
      <trkpt lat="43.74937" lon="1.53458">
        <ele>219.85</ele>
        <time>2023-08-24T07:51:29.004Z</time>
      </trkpt>
      <trkpt lat="43.7493" lon="1.53466">
        <ele>219.92</ele>
        <time>2023-08-24T07:51:29.905Z</time>
      </trkpt>
      <trkpt lat="43.74929" lon="1.53468">
        <ele>219.96</ele>
        <time>2023-08-24T07:51:32.125Z</time>
      </trkpt>
      <trkpt lat="43.74923" lon="1.5348">
        <ele>220.05</ele>
        <time>2023-08-24T07:51:34.278Z</time>
      </trkpt>
      <trkpt lat="43.74921" lon="1.53484">
        <ele>220.14</ele>
        <time>2023-08-24T07:51:35.026Z</time>
      </trkpt>
      <trkpt lat="43.74918" lon="1.53489">
        <ele>220.18</ele>
        <time>2023-08-24T07:51:36.334Z</time>
      </trkpt>
      <trkpt lat="43.74915" lon="1.53497">
        <ele>220.27</ele>
        <time>2023-08-24T07:51:37.366Z</time>
      </trkpt>
      <trkpt lat="43.74913" lon="1.53501">
        <ele>220.32</ele>
        <time>2023-08-24T07:51:39.988Z</time>
      </trkpt>
      <trkpt lat="43.74911" lon="1.53506">
        <ele>220.47</ele>
        <time>2023-08-24T07:51:40.424Z</time>
      </trkpt>
      <trkpt lat="43.74908" lon="1.53513">
        <ele>220.56</ele>
        <time>2023-08-24T07:51:41.817Z</time>
      </trkpt>
      <trkpt lat="43.74905" lon="1.53521">
        <ele>220.7</ele>
        <time>2023-08-24T07:51:42.878Z</time>
      </trkpt>
      <trkpt lat="43.74903" lon="1.53528">
        <ele>220.83</ele>
        <time>2023-08-24T07:51:43.109Z</time>
      </trkpt>
      <trkpt lat="43.74901" lon="1.53534">
        <ele>220.93</ele>
        <time>2023-08-24T07:51:44.530Z</time>
      </trkpt>
      <trkpt lat="43.74898" lon="1.53545">
        <ele>221.03</ele>
        <time>2023-08-24T07:51:46.090Z</time>
      </trkpt>
      <trkpt lat="43.74895" lon="1.53554">
        <ele>221.21</ele>
        <time>2023-08-24T07:51:47.490Z</time>
      </trkpt>
      <trkpt lat="43.74895" lon="1.53557">
        <ele>221.3</ele>
        <time>2023-08-24T07:51:48.971Z</time>
      </trkpt>
      <trkpt lat="43.74892" lon="1.53568">
        <ele>221.37</ele>
        <time>2023-08-24T07:51:49.532Z</time>
      </trkpt>
      <trkpt lat="43.74891" lon="1.53574">
        <ele>221.42</ele>
        <time>2023-08-24T07:51:50.549Z</time>
      </trkpt>
      <trkpt lat="43.7489" lon="1.53582">
        <ele>221.46</ele>
        <time>2023-08-24T07:51:51.290Z</time>
      </trkpt>
      <trkpt lat="43.74888" lon="1.53589">
        <ele>221.49</ele>
        <time>2023-08-24T07:51:52.273Z</time>
      </trkpt>
      <trkpt lat="43.74887" lon="1.53596">
        <ele>221.54</ele>
        <time>2023-08-24T07:51:54.285Z</time>
      </trkpt>
      <trkpt lat="43.74883" lon="1.53612">
        <ele>221.59</ele>
        <time>2023-08-24T07:51:55.360Z</time>
      </trkpt>
      <trkpt lat="43.7488" lon="1.53626">
        <ele>221.59</ele>
        <time>2023-08-24T07:51:57.705Z</time>
      </trkpt>
      <trkpt lat="43.74878" lon="1.53635">
        <ele>221.56</ele>
        <time>2023-08-24T07:52:00.014Z</time>
      </trkpt>
      <trkpt lat="43.74876" lon="1.53643">
        <ele>221.51</ele>
        <time>2023-08-24T07:52:01.145Z</time>
      </trkpt>
      <trkpt lat="43.74873" lon="1.53662">
        <ele>221.46</ele>
        <time>2023-08-24T07:52:02.295Z</time>
      </trkpt>
      <trkpt lat="43.74871" lon="1.5367">
        <ele>221.43</ele>
        <time>2023-08-24T07:52:03.554Z</time>
      </trkpt>
      <trkpt lat="43.74868" lon="1.53683">
        <ele>221.42</ele>
        <time>2023-08-24T07:52:05.374Z</time>
      </trkpt>
      <trkpt lat="43.74867" lon="1.53686">
        <ele>221.42</ele>
        <time>2023-08-24T07:52:06.832Z</time>
      </trkpt>
      <trkpt lat="43.74864" lon="1.537">
        <ele>221.42</ele>
        <time>2023-08-24T07:52:07.383Z</time>
      </trkpt>
      <trkpt lat="43.74862" lon="1.53711">
        <ele>221.41</ele>
        <time>2023-08-24T07:52:08.359Z</time>
      </trkpt>
      <trkpt lat="43.74859" lon="1.53726">
        <ele>221.45</ele>
        <time>2023-08-24T07:52:10.271Z</time>
      </trkpt>
      <trkpt lat="43.74857" lon="1.53733">
        <ele>221.46</ele>
        <time>2023-08-24T07:52:11.373Z</time>
      </trkpt>
      <trkpt lat="43.74851" lon="1.53738">
        <ele>221.38</ele>
        <time>2023-08-24T07:52:12.968Z</time>
      </trkpt>
      <trkpt lat="43.74845" lon="1.53734">
        <ele>220.97</ele>
        <time>2023-08-24T07:52:15.892Z</time>
      </trkpt>
      <trkpt lat="43.7483" lon="1.53718">
        <ele>219.56</ele>
        <time>2023-08-24T07:52:18.413Z</time>
      </trkpt>
      <trkpt lat="43.74817" lon="1.53705">
        <ele>218.54</ele>
        <time>2023-08-24T07:52:19.245Z</time>
      </trkpt>
      <trkpt lat="43.74812" lon="1.53699">
        <ele>216.47</ele>
        <time>2023-08-24T07:52:21.284Z</time>
      </trkpt>
      <trkpt lat="43.74806" lon="1.53693">
        <ele>215.1</ele>
        <time>2023-08-24T07:52:22.334Z</time>
      </trkpt>
      <trkpt lat="43.74789" lon="1.53674">
        <ele>212.54</ele>
        <time>2023-08-24T07:52:23.304Z</time>
      </trkpt>
      <trkpt lat="43.74784" lon="1.53667">
        <ele>211.14</ele>
        <time>2023-08-24T07:52:24.845Z</time>
      </trkpt>
      <trkpt lat="43.74777" lon="1.53657">
        <ele>208.73999</ele>
        <time>2023-08-24T07:52:25.873Z</time>
      </trkpt>
      <trkpt lat="43.74758" lon="1.53628">
        <ele>207.88</ele>
        <time>2023-08-24T07:52:27.240Z</time>
      </trkpt>
      <trkpt lat="43.74751" lon="1.53618">
        <ele>207.3</ele>
        <time>2023-08-24T07:52:28.509Z</time>
      </trkpt>
      <trkpt lat="43.74746" lon="1.53613">
        <ele>206.95</ele>
        <time>2023-08-24T07:52:28.959Z</time>
      </trkpt>
      <trkpt lat="43.74738" lon="1.53606">
        <ele>206.86</ele>
        <time>2023-08-24T07:52:30.518Z</time>
      </trkpt>
      <trkpt lat="43.74723" lon="1.53598">
        <ele>206.87</ele>
        <time>2023-08-24T07:52:30.973Z</time>
      </trkpt>
      <trkpt lat="43.74714" lon="1.53595">
        <ele>206.9</ele>
        <time>2023-08-24T07:52:33.388Z</time>
      </trkpt>
      <trkpt lat="43.74705" lon="1.53594">
        <ele>207</ele>
        <time>2023-08-24T07:52:33.459Z</time>
      </trkpt>
      <trkpt lat="43.74695" lon="1.53594">
        <ele>207.20999</ele>
        <time>2023-08-24T07:52:36.109Z</time>
      </trkpt>
      <trkpt lat="43.74674" lon="1.53591">
        <ele>207.84</ele>
        <time>2023-08-24T07:52:36.847Z</time>
      </trkpt>
      <trkpt lat="43.74665" lon="1.53586">
        <ele>208.5</ele>
        <time>2023-08-24T07:52:39.638Z</time>
      </trkpt>
      <trkpt lat="43.74657" lon="1.5358">
        <ele>209.48</ele>
        <time>2023-08-24T07:52:41.825Z</time>
      </trkpt>
      <trkpt lat="43.74646" lon="1.53569">
        <ele>210.02</ele>
        <time>2023-08-24T07:52:44.505Z</time>
      </trkpt>
      <trkpt lat="43.74644" lon="1.53567">
        <ele>210.14</ele>
        <time>2023-08-24T07:52:47.748Z</time>
      </trkpt>
      <trkpt lat="43.74625" lon="1.53555">
        <ele>209.97</ele>
        <time>2023-08-24T07:52:49.778Z</time>
      </trkpt>
      <trkpt lat="43.74609" lon="1.53547">
        <ele>209.27</ele>
        <time>2023-08-24T07:52:50.253Z</time>
      </trkpt>
      <trkpt lat="43.74602" lon="1.53543">
        <ele>209.12</ele>
        <time>2023-08-24T07:52:52.206Z</time>
      </trkpt>
      <trkpt lat="43.74593" lon="1.53538">
        <ele>208.51999</ele>
        <time>2023-08-24T07:52:55.257Z</time>
      </trkpt>
      <trkpt lat="43.74571" lon="1.53527">
        <ele>208.1</ele>
        <time>2023-08-24T07:52:56.034Z</time>
      </trkpt>
      <trkpt lat="43.74559" lon="1.53519">
        <ele>207.34</ele>
        <time>2023-08-24T07:52:58.060Z</time>
      </trkpt>
      <trkpt lat="43.74553" lon="1.53515">
        <ele>206.38</ele>
        <time>2023-08-24T07:53:00.391Z</time>
      </trkpt>
      <trkpt lat="43.74547" lon="1.5351">
        <ele>205.82</ele>
        <time>2023-08-24T07:53:01.038Z</time>
      </trkpt>
      <trkpt lat="43.74541" lon="1.53505">
        <ele>205.28</ele>
        <time>2023-08-24T07:53:02.030Z</time>
      </trkpt>
      <trkpt lat="43.74531" lon="1.53494">
        <ele>204.91</ele>
        <time>2023-08-24T07:53:03.121Z</time>
      </trkpt>
      <trkpt lat="43.74524" lon="1.53486">
        <ele>204.68</ele>
        <time>2023-08-24T07:53:04.514Z</time>
      </trkpt>
      <trkpt lat="43.74512" lon="1.53475">
        <ele>204.29001</ele>
        <time>2023-08-24T07:53:06.052Z</time>
      </trkpt>
      <trkpt lat="43.74495" lon="1.53456">
        <ele>204.01001</ele>
        <time>2023-08-24T07:53:08.544Z</time>
      </trkpt>
      <trkpt lat="43.74488" lon="1.53449">
        <ele>203.64</ele>
        <time>2023-08-24T07:53:09.395Z</time>
      </trkpt>
      <trkpt lat="43.74483" lon="1.53444">
        <ele>203.54001</ele>
        <time>2023-08-24T07:53:11.469Z</time>
      </trkpt>
      <trkpt lat="43.7447" lon="1.53432">
        <ele>203.31</ele>
        <time>2023-08-24T07:53:12.287Z</time>
      </trkpt>
      <trkpt lat="43.74464" lon="1.53425">
        <ele>203.26001</ele>
        <time>2023-08-24T07:53:13.728Z</time>
      </trkpt>
      <trkpt lat="43.74457" lon="1.53418">
        <ele>203.20999</ele>
        <time>2023-08-24T07:53:14.648Z</time>
      </trkpt>
      <trkpt lat="43.74447" lon="1.53409">
        <ele>203.22</ele>
        <time>2023-08-24T07:53:16.253Z</time>
      </trkpt>
      <trkpt lat="43.73455" lon="1.52955">
        <ele>203.20999</ele>
        <time>2023-08-24T07:55:46.583Z</time>
      </trkpt>
      <trkpt lat="43.73452" lon="1.52954">
        <ele>203.20999</ele>
        <time>2023-08-24T07:55:47.640Z</time>
      </trkpt>
      <trkpt lat="43.73447" lon="1.52951">
        <ele>203.20999</ele>
        <time>2023-08-24T07:55:48.581Z</time>
      </trkpt>
      <trkpt lat="43.73444" lon="1.5295">
        <ele>203.20999</ele>
        <time>2023-08-24T07:55:49.580Z</time>
      </trkpt>
      <trkpt lat="43.73435" lon="1.52944">
        <ele>203.20999</ele>
        <time>2023-08-24T07:55:50.596Z</time>
      </trkpt>
      <trkpt lat="43.73429" lon="1.52939">
        <ele>149.89</ele>
        <time>2023-08-24T07:55:51.580Z</time>
      </trkpt>
      <trkpt lat="43.73424" lon="1.52933">
        <ele>149.86</ele>
        <time>2023-08-24T07:55:52.579Z</time>
      </trkpt>
      <trkpt lat="43.7342" lon="1.52927">
        <ele>149.85</ele>
        <time>2023-08-24T07:55:53.579Z</time>
      </trkpt>
      <trkpt lat="43.73416" lon="1.52919">
        <ele>149.83</ele>
        <time>2023-08-24T07:55:54.579Z</time>
      </trkpt>
      <trkpt lat="43.73413" lon="1.52912">
        <ele>149.79001</ele>
        <time>2023-08-24T07:55:55.578Z</time>
      </trkpt>
      <trkpt lat="43.73409" lon="1.52904">
        <ele>149.75</ele>
        <time>2023-08-24T07:55:56.579Z</time>
      </trkpt>
      <trkpt lat="43.73406" lon="1.52897">
        <ele>149.7</ele>
        <time>2023-08-24T07:55:57.578Z</time>
      </trkpt>
      <trkpt lat="43.73402" lon="1.52889">
        <ele>149.63</ele>
        <time>2023-08-24T07:55:58.678Z</time>
      </trkpt>
      <trkpt lat="43.73399" lon="1.52881">
        <ele>149.59</ele>
        <time>2023-08-24T07:55:58.773Z</time>
      </trkpt>
      <trkpt lat="43.73395" lon="1.52874">
        <ele>149.48001</ele>
        <time>2023-08-24T07:55:59.760Z</time>
      </trkpt>
      <trkpt lat="43.73391" lon="1.52868">
        <ele>149.37</ele>
        <time>2023-08-24T07:56:00.766Z</time>
      </trkpt>
      <trkpt lat="43.73386" lon="1.52862">
        <ele>149.26001</ele>
        <time>2023-08-24T07:56:02.679Z</time>
      </trkpt>
      <trkpt lat="43.73381" lon="1.52857">
        <ele>149.2</ele>
        <time>2023-08-24T07:56:02.771Z</time>
      </trkpt>
      <trkpt lat="43.73375" lon="1.52852">
        <ele>149.08</ele>
        <time>2023-08-24T07:56:03.758Z</time>
      </trkpt>
      <trkpt lat="43.7337" lon="1.52848">
        <ele>149.01999</ele>
        <time>2023-08-24T07:56:04.762Z</time>
      </trkpt>
      <trkpt lat="43.73364" lon="1.52843">
        <ele>148.93</ele>
        <time>2023-08-24T07:56:06.682Z</time>
      </trkpt>
      <trkpt lat="43.73359" lon="1.52838">
        <ele>148.85</ele>
        <time>2023-08-24T07:56:07.571Z</time>
      </trkpt>
      <trkpt lat="43.73353" lon="1.52833">
        <ele>148.75</ele>
        <time>2023-08-24T07:56:08.215Z</time>
      </trkpt>
      <trkpt lat="43.73349" lon="1.52825">
        <ele>148.62</ele>
        <time>2023-08-24T07:56:09.225Z</time>
      </trkpt>
      <trkpt lat="43.73347" lon="1.52817">
        <ele>148.57</ele>
        <time>2023-08-24T07:56:10.680Z</time>
      </trkpt>
      <trkpt lat="43.73346" lon="1.52808">
        <ele>148.56</ele>
        <time>2023-08-24T07:56:11.384Z</time>
      </trkpt>
      <trkpt lat="43.73344" lon="1.52798">
        <ele>148.56</ele>
        <time>2023-08-24T07:56:12.678Z</time>
      </trkpt>
      <trkpt lat="43.73342" lon="1.5279">
        <ele>148.56</ele>
        <time>2023-08-24T07:56:12.703Z</time>
      </trkpt>
      <trkpt lat="43.73339" lon="1.52781">
        <ele>148.45999</ele>
        <time>2023-08-24T07:56:14.688Z</time>
      </trkpt>
      <trkpt lat="43.73336" lon="1.52773">
        <ele>148.38</ele>
        <time>2023-08-24T07:56:15.678Z</time>
      </trkpt>
      <trkpt lat="43.73333" lon="1.52765">
        <ele>148.29001</ele>
        <time>2023-08-24T07:56:15.777Z</time>
      </trkpt>
      <trkpt lat="43.7333" lon="1.52757">
        <ele>148.22</ele>
        <time>2023-08-24T07:56:16.773Z</time>
      </trkpt>
      <trkpt lat="43.73326" lon="1.5275">
        <ele>148.15</ele>
        <time>2023-08-24T07:56:17.775Z</time>
      </trkpt>
      <trkpt lat="43.73323" lon="1.52742">
        <ele>148.12</ele>
        <time>2023-08-24T07:56:19.424Z</time>
      </trkpt>
      <trkpt lat="43.73319" lon="1.52734">
        <ele>148.03</ele>
        <time>2023-08-24T07:56:20.680Z</time>
      </trkpt>
      <trkpt lat="43.73316" lon="1.52727">
        <ele>147.95999</ele>
        <time>2023-08-24T07:56:21.681Z</time>
      </trkpt>
      <trkpt lat="43.73312" lon="1.52719">
        <ele>147.92</ele>
        <time>2023-08-24T07:56:21.749Z</time>
      </trkpt>
      <trkpt lat="43.73309" lon="1.52711">
        <ele>147.97</ele>
        <time>2023-08-24T07:56:23.680Z</time>
      </trkpt>
      <trkpt lat="43.73306" lon="1.52703">
        <ele>148.01999</ele>
        <time>2023-08-24T07:56:24.264Z</time>
      </trkpt>
      <trkpt lat="43.73302" lon="1.52695">
        <ele>148.01999</ele>
        <time>2023-08-24T07:56:25.223Z</time>
      </trkpt>
      <trkpt lat="43.73299" lon="1.52687">
        <ele>148</ele>
        <time>2023-08-24T07:56:26.275Z</time>
      </trkpt>
      <trkpt lat="43.73296" lon="1.52679">
        <ele>147.95999</ele>
        <time>2023-08-24T07:56:27.235Z</time>
      </trkpt>
      <trkpt lat="43.73293" lon="1.52671">
        <ele>147.93</ele>
        <time>2023-08-24T07:56:28.276Z</time>
      </trkpt>
      <trkpt lat="43.73289" lon="1.52663">
        <ele>147.95999</ele>
        <time>2023-08-24T07:56:29.246Z</time>
      </trkpt>
      <trkpt lat="43.73286" lon="1.52655">
        <ele>147.97</ele>
        <time>2023-08-24T07:56:30.679Z</time>
      </trkpt>
      <trkpt lat="43.73283" lon="1.52647">
        <ele>147.91</ele>
        <time>2023-08-24T07:56:30.768Z</time>
      </trkpt>
      <trkpt lat="43.7328" lon="1.52638">
        <ele>147.84</ele>
        <time>2023-08-24T07:56:31.763Z</time>
      </trkpt>
      <trkpt lat="43.73278" lon="1.5263">
        <ele>147.76001</ele>
        <time>2023-08-24T07:56:33.678Z</time>
      </trkpt>
      <trkpt lat="43.73275" lon="1.52622">
        <ele>147.65</ele>
        <time>2023-08-24T07:56:34.678Z</time>
      </trkpt>
      <trkpt lat="43.73272" lon="1.52613">
        <ele>147.56</ele>
        <time>2023-08-24T07:56:35.680Z</time>
      </trkpt>
      <trkpt lat="43.73269" lon="1.52605">
        <ele>147.43</ele>
        <time>2023-08-24T07:56:35.774Z</time>
      </trkpt>
      <trkpt lat="43.73265" lon="1.52597">
        <ele>147.39</ele>
        <time>2023-08-24T07:56:37.669Z</time>
      </trkpt>
      <trkpt lat="43.73262" lon="1.5259">
        <ele>147.33</ele>
        <time>2023-08-24T07:56:38.679Z</time>
      </trkpt>
      <trkpt lat="43.73259" lon="1.52582">
        <ele>147.31</ele>
        <time>2023-08-24T07:56:38.771Z</time>
      </trkpt>
      <trkpt lat="43.73256" lon="1.52574">
        <ele>147.28</ele>
        <time>2023-08-24T07:56:39.771Z</time>
      </trkpt>
      <trkpt lat="43.73252" lon="1.52567">
        <ele>147.20999</ele>
        <time>2023-08-24T07:56:41.679Z</time>
      </trkpt>
      <trkpt lat="43.73249" lon="1.5256">
        <ele>147.15</ele>
        <time>2023-08-24T07:56:42.685Z</time>
      </trkpt>
      <trkpt lat="43.73246" lon="1.52553">
        <ele>147.08</ele>
        <time>2023-08-24T07:56:42.763Z</time>
      </trkpt>
      <trkpt lat="43.73243" lon="1.52547">
        <ele>147.05</ele>
        <time>2023-08-24T07:56:43.773Z</time>
      </trkpt>
      <trkpt lat="43.73239" lon="1.52542">
        <ele>146.93</ele>
        <time>2023-08-24T07:56:44.757Z</time>
      </trkpt>
      <trkpt lat="43.73235" lon="1.52536">
        <ele>146.87</ele>
        <time>2023-08-24T07:56:46.678Z</time>
      </trkpt>
      <trkpt lat="43.73232" lon="1.5253">
        <ele>146.78</ele>
        <time>2023-08-24T07:56:47.681Z</time>
      </trkpt>
      <trkpt lat="43.73229" lon="1.52524">
        <ele>146.79001</ele>
        <time>2023-08-24T07:56:47.771Z</time>
      </trkpt>
      <trkpt lat="43.73227" lon="1.52518">
        <ele>146.83</ele>
        <time>2023-08-24T07:56:48.771Z</time>
      </trkpt>
      <trkpt lat="43.73224" lon="1.52512">
        <ele>146.8</ele>
        <time>2023-08-24T07:56:50.679Z</time>
      </trkpt>
      <trkpt lat="43.73222" lon="1.52506">
        <ele>146.76001</ele>
        <time>2023-08-24T07:56:50.776Z</time>
      </trkpt>
      <trkpt lat="43.7322" lon="1.525">
        <ele>146.70999</ele>
        <time>2023-08-24T07:56:51.769Z</time>
      </trkpt>
      <trkpt lat="43.73217" lon="1.52493">
        <ele>146.69</ele>
        <time>2023-08-24T07:56:53.680Z</time>
      </trkpt>
      <trkpt lat="43.73214" lon="1.52488">
        <ele>146.65</ele>
        <time>2023-08-24T07:56:53.759Z</time>
      </trkpt>
      <trkpt lat="43.73211" lon="1.52482">
        <ele>146.59</ele>
        <time>2023-08-24T07:56:54.766Z</time>
      </trkpt>
      <trkpt lat="43.73208" lon="1.52476">
        <ele>146.5</ele>
        <time>2023-08-24T07:56:55.766Z</time>
      </trkpt>
      <trkpt lat="43.73204" lon="1.52469">
        <ele>146.43</ele>
        <time>2023-08-24T07:56:57.681Z</time>
      </trkpt>
      <trkpt lat="43.73201" lon="1.52463">
        <ele>146.25</ele>
        <time>2023-08-24T07:56:58.680Z</time>
      </trkpt>
      <trkpt lat="43.73198" lon="1.52457">
        <ele>146.13</ele>
        <time>2023-08-24T07:56:58.744Z</time>
      </trkpt>
      <trkpt lat="43.73193" lon="1.5245">
        <ele>146.08</ele>
        <time>2023-08-24T07:56:59.779Z</time>
      </trkpt>
      <trkpt lat="43.7319" lon="1.52444">
        <ele>146.1</ele>
        <time>2023-08-24T07:57:00.734Z</time>
      </trkpt>
      <trkpt lat="43.73186" lon="1.52439">
        <ele>146.09</ele>
        <time>2023-08-24T07:57:02.679Z</time>
      </trkpt>
      <trkpt lat="43.73182" lon="1.52433">
        <ele>146.12</ele>
        <time>2023-08-24T07:57:03.445Z</time>
      </trkpt>
      <trkpt lat="43.73178" lon="1.52428">
        <ele>146.08</ele>
        <time>2023-08-24T07:57:03.767Z</time>
      </trkpt>
      <trkpt lat="43.73174" lon="1.52423">
        <ele>146.03</ele>
        <time>2023-08-24T07:57:04.771Z</time>
      </trkpt>
      <trkpt lat="43.73169" lon="1.52417">
        <ele>145.98999</ele>
        <time>2023-08-24T07:57:06.681Z</time>
      </trkpt>
      <trkpt lat="43.73165" lon="1.52412">
        <ele>145.98999</ele>
        <time>2023-08-24T07:57:06.765Z</time>
      </trkpt>
      <trkpt lat="43.7316" lon="1.52407">
        <ele>146.01001</ele>
        <time>2023-08-24T07:57:08.718Z</time>
      </trkpt>
      <trkpt lat="43.73155" lon="1.52402">
        <ele>145.98999</ele>
        <time>2023-08-24T07:57:09.678Z</time>
      </trkpt>
      <trkpt lat="43.7315" lon="1.52397">
        <ele>146.01999</ele>
        <time>2023-08-24T07:57:10.736Z</time>
      </trkpt>
      <trkpt lat="43.73145" lon="1.52392">
        <ele>145.95999</ele>
        <time>2023-08-24T07:57:11.679Z</time>
      </trkpt>
      <trkpt lat="43.7314" lon="1.52387">
        <ele>145.84</ele>
        <time>2023-08-24T07:57:12.740Z</time>
      </trkpt>
      <trkpt lat="43.73135" lon="1.52381">
        <ele>145.84</ele>
        <time>2023-08-24T07:57:13.678Z</time>
      </trkpt>
      <trkpt lat="43.73131" lon="1.52376">
        <ele>145.8</ele>
        <time>2023-08-24T07:57:13.746Z</time>
      </trkpt>
      <trkpt lat="43.73126" lon="1.5237">
        <ele>145.76999</ele>
        <time>2023-08-24T07:57:15.678Z</time>
      </trkpt>
      <trkpt lat="43.73121" lon="1.52364">
        <ele>145.73001</ele>
        <time>2023-08-24T07:57:16.680Z</time>
      </trkpt>
      <trkpt lat="43.73117" lon="1.52358">
        <ele>145.7</ele>
        <time>2023-08-24T07:57:16.767Z</time>
      </trkpt>
      <trkpt lat="43.73112" lon="1.52352">
        <ele>145.63</ele>
        <time>2023-08-24T07:57:18.680Z</time>
      </trkpt>
      <trkpt lat="43.73108" lon="1.52346">
        <ele>145.59</ele>
        <time>2023-08-24T07:57:19.678Z</time>
      </trkpt>
      <trkpt lat="43.73103" lon="1.5234">
        <ele>145.59</ele>
        <time>2023-08-24T07:57:19.771Z</time>
      </trkpt>
      <trkpt lat="43.73098" lon="1.52334">
        <ele>145.63</ele>
        <time>2023-08-24T07:57:21.678Z</time>
      </trkpt>
      <trkpt lat="43.73094" lon="1.52328">
        <ele>145.61</ele>
        <time>2023-08-24T07:57:22.677Z</time>
      </trkpt>
      <trkpt lat="43.73089" lon="1.52322">
        <ele>145.64</ele>
        <time>2023-08-24T07:57:23.678Z</time>
      </trkpt>
      <trkpt lat="43.73085" lon="1.52316">
        <ele>145.59</ele>
        <time>2023-08-24T07:57:24.679Z</time>
      </trkpt>
      <trkpt lat="43.7308" lon="1.5231">
        <ele>145.51001</ele>
        <time>2023-08-24T07:57:25.677Z</time>
      </trkpt>
      <trkpt lat="43.73075" lon="1.52304">
        <ele>145.45999</ele>
        <time>2023-08-24T07:57:25.764Z</time>
      </trkpt>
      <trkpt lat="43.7307" lon="1.52298">
        <ele>145.42</ele>
        <time>2023-08-24T07:57:26.756Z</time>
      </trkpt>
      <trkpt lat="43.73066" lon="1.52292">
        <ele>145.48001</ele>
        <time>2023-08-24T07:57:28.678Z</time>
      </trkpt>
      <trkpt lat="43.73061" lon="1.52285">
        <ele>145.53</ele>
        <time>2023-08-24T07:57:28.774Z</time>
      </trkpt>
      <trkpt lat="43.73057" lon="1.52279">
        <ele>145.51001</ele>
        <time>2023-08-24T07:57:30.677Z</time>
      </trkpt>
      <trkpt lat="43.73053" lon="1.52273">
        <ele>145.58</ele>
        <time>2023-08-24T07:57:31.457Z</time>
      </trkpt>
      <trkpt lat="43.73048" lon="1.52266">
        <ele>145.6</ele>
        <time>2023-08-24T07:57:32.678Z</time>
      </trkpt>
      <trkpt lat="43.73044" lon="1.5226">
        <ele>145.53</ele>
        <time>2023-08-24T07:57:33.750Z</time>
      </trkpt>
      <trkpt lat="43.73039" lon="1.52254">
        <ele>145.45999</ele>
        <time>2023-08-24T07:57:34.676Z</time>
      </trkpt>
      <trkpt lat="43.73035" lon="1.52248">
        <ele>145.4</ele>
        <time>2023-08-24T07:57:35.674Z</time>
      </trkpt>
      <trkpt lat="43.7303" lon="1.52242">
        <ele>145.34</ele>
        <time>2023-08-24T07:57:36.675Z</time>
      </trkpt>
      <trkpt lat="43.73025" lon="1.52237">
        <ele>145.28</ele>
        <time>2023-08-24T07:57:37.676Z</time>
      </trkpt>
      <trkpt lat="43.73019" lon="1.52233">
        <ele>145.29001</ele>
        <time>2023-08-24T07:57:38.677Z</time>
      </trkpt>
      <trkpt lat="43.73014" lon="1.5223">
        <ele>145.32</ele>
        <time>2023-08-24T07:57:39.678Z</time>
      </trkpt>
      <trkpt lat="43.73008" lon="1.52228">
        <ele>145.37</ele>
        <time>2023-08-24T07:57:40.756Z</time>
      </trkpt>
      <trkpt lat="43.73002" lon="1.52227">
        <ele>145.34</ele>
        <time>2023-08-24T07:57:41.677Z</time>
      </trkpt>
      <trkpt lat="43.72996" lon="1.52228">
        <ele>145.38</ele>
        <time>2023-08-24T07:57:42.678Z</time>
      </trkpt>
      <trkpt lat="43.7299" lon="1.5223">
        <ele>145.34</ele>
        <time>2023-08-24T07:57:43.305Z</time>
      </trkpt>
      <trkpt lat="43.72984" lon="1.52233">
        <ele>145.35</ele>
        <time>2023-08-24T07:57:44.676Z</time>
      </trkpt>
      <trkpt lat="43.72979" lon="1.52236">
        <ele>145.22</ele>
        <time>2023-08-24T07:57:45.677Z</time>
      </trkpt>
      <trkpt lat="43.72973" lon="1.52238">
        <ele>145.1</ele>
        <time>2023-08-24T07:57:46.677Z</time>
      </trkpt>
      <trkpt lat="43.72967" lon="1.52241">
        <ele>144.94</ele>
        <time>2023-08-24T07:57:47.677Z</time>
      </trkpt>
      <trkpt lat="43.72961" lon="1.52243">
        <ele>144.73</ele>
        <time>2023-08-24T07:57:48.679Z</time>
      </trkpt>
      <trkpt lat="43.72955" lon="1.52244">
        <ele>144.59</ele>
        <time>2023-08-24T07:57:49.678Z</time>
      </trkpt>
      <trkpt lat="43.72949" lon="1.52246">
        <ele>144.49</ele>
        <time>2023-08-24T07:57:50.680Z</time>
      </trkpt>
      <trkpt lat="43.72943" lon="1.52248">
        <ele>144.39</ele>
        <time>2023-08-24T07:57:51.678Z</time>
      </trkpt>
      <trkpt lat="43.72936" lon="1.5225">
        <ele>144.38</ele>
        <time>2023-08-24T07:57:52.677Z</time>
      </trkpt>
      <trkpt lat="43.7293" lon="1.52251">
        <ele>144.29001</ele>
        <time>2023-08-24T07:57:53.677Z</time>
      </trkpt>
      <trkpt lat="43.72917" lon="1.52254">
        <ele>144.23</ele>
        <time>2023-08-24T07:57:54.766Z</time>
      </trkpt>
      <trkpt lat="43.72911" lon="1.52255">
        <ele>144.11</ele>
        <time>2023-08-24T07:57:56.677Z</time>
      </trkpt>
      <trkpt lat="43.72899" lon="1.52257">
        <ele>144.04001</ele>
        <time>2023-08-24T07:57:57.701Z</time>
      </trkpt>
      <trkpt lat="43.72892" lon="1.52258">
        <ele>143.89</ele>
        <time>2023-08-24T07:57:58.777Z</time>
      </trkpt>
      <trkpt lat="43.72887" lon="1.52259">
        <ele>143.86</ele>
        <time>2023-08-24T07:57:59.777Z</time>
      </trkpt>
      <trkpt lat="43.72874" lon="1.52258">
        <ele>143.78</ele>
        <time>2023-08-24T07:58:01.774Z</time>
      </trkpt>
      <trkpt lat="43.72868" lon="1.52257">
        <ele>143.8</ele>
        <time>2023-08-24T07:58:02.368Z</time>
      </trkpt>
      <trkpt lat="43.72863" lon="1.52255">
        <ele>143.75</ele>
        <time>2023-08-24T07:58:03.777Z</time>
      </trkpt>
      <trkpt lat="43.72857" lon="1.52253">
        <ele>143.8</ele>
        <time>2023-08-24T07:58:04.778Z</time>
      </trkpt>
      <trkpt lat="43.72852" lon="1.5225">
        <ele>143.9</ele>
        <time>2023-08-24T07:58:05.778Z</time>
      </trkpt>
      <trkpt lat="43.72842" lon="1.52244">
        <ele>143.93</ele>
        <time>2023-08-24T07:58:07.774Z</time>
      </trkpt>
      <trkpt lat="43.72833" lon="1.52238">
        <ele>144.11</ele>
        <time>2023-08-24T07:58:09.768Z</time>
      </trkpt>
      <trkpt lat="43.72829" lon="1.52235">
        <ele>144.3</ele>
        <time>2023-08-24T07:58:10.785Z</time>
      </trkpt>
      <trkpt lat="43.7282" lon="1.52228">
        <ele>144.4</ele>
        <time>2023-08-24T07:58:12.783Z</time>
      </trkpt>
      <trkpt lat="43.72812" lon="1.52222">
        <ele>144.48</ele>
        <time>2023-08-24T07:58:14.769Z</time>
      </trkpt>
      <trkpt lat="43.72807" lon="1.52219">
        <ele>144.55</ele>
        <time>2023-08-24T07:58:15.781Z</time>
      </trkpt>
      <trkpt lat="43.72803" lon="1.52215">
        <ele>144.55</ele>
        <time>2023-08-24T07:58:16.784Z</time>
      </trkpt>
      <trkpt lat="43.728" lon="1.52211">
        <ele>144.6</ele>
        <time>2023-08-24T07:58:17.782Z</time>
      </trkpt>
      <trkpt lat="43.72797" lon="1.52206">
        <ele>144.62</ele>
        <time>2023-08-24T07:58:18.783Z</time>
      </trkpt>
      <trkpt lat="43.72794" lon="1.52201">
        <ele>144.62</ele>
        <time>2023-08-24T07:58:19.572Z</time>
      </trkpt>
      <trkpt lat="43.7279" lon="1.52192">
        <ele>144.8</ele>
        <time>2023-08-24T07:58:21.781Z</time>
      </trkpt>
      <trkpt lat="43.72788" lon="1.52188">
        <ele>145.17</ele>
        <time>2023-08-24T07:58:22.782Z</time>
      </trkpt>
      <trkpt lat="43.72786" lon="1.52183">
        <ele>145.37</ele>
        <time>2023-08-24T07:58:23.782Z</time>
      </trkpt>
      <trkpt lat="43.72784" lon="1.52178">
        <ele>145.55</ele>
        <time>2023-08-24T07:58:24.783Z</time>
      </trkpt>
      <trkpt lat="43.72781" lon="1.52174">
        <ele>145.82</ele>
        <time>2023-08-24T07:58:25.784Z</time>
      </trkpt>
      <trkpt lat="43.72779" lon="1.52169">
        <ele>146.06</ele>
        <time>2023-08-24T07:58:26.784Z</time>
      </trkpt>
      <trkpt lat="43.72777" lon="1.52166">
        <ele>146.23999</ele>
        <time>2023-08-24T07:58:27.783Z</time>
      </trkpt>
      <trkpt lat="43.72775" lon="1.52162">
        <ele>146.48001</ele>
        <time>2023-08-24T07:58:29.783Z</time>
      </trkpt>
      <trkpt lat="43.72772" lon="1.52158">
        <ele>146.76001</ele>
        <time>2023-08-24T07:58:30.783Z</time>
      </trkpt>
      <trkpt lat="43.7277" lon="1.52154">
        <ele>147.08</ele>
        <time>2023-08-24T07:58:31.782Z</time>
      </trkpt>
      <trkpt lat="43.72767" lon="1.52151">
        <ele>147.32</ele>
        <time>2023-08-24T07:58:32.782Z</time>
      </trkpt>
      <trkpt lat="43.72764" lon="1.52147">
        <ele>147.57</ele>
        <time>2023-08-24T07:58:33.480Z</time>
      </trkpt>
      <trkpt lat="43.7276" lon="1.52144">
        <ele>147.9</ele>
        <time>2023-08-24T07:58:34.783Z</time>
      </trkpt>
      <trkpt lat="43.72756" lon="1.5214">
        <ele>148.23001</ele>
        <time>2023-08-24T07:58:36.565Z</time>
      </trkpt>
      <trkpt lat="43.7275" lon="1.52134">
        <ele>148.62</ele>
        <time>2023-08-24T07:58:37.783Z</time>
      </trkpt>
      <trkpt lat="43.72748" lon="1.52131">
        <ele>149.01999</ele>
        <time>2023-08-24T07:58:38.826Z</time>
      </trkpt>
      <trkpt lat="43.72743" lon="1.52125">
        <ele>149.29001</ele>
        <time>2023-08-24T07:58:40.781Z</time>
      </trkpt>
      <trkpt lat="43.72741" lon="1.52122">
        <ele>149.7</ele>
        <time>2023-08-24T07:58:41.782Z</time>
      </trkpt>
      <trkpt lat="43.72738" lon="1.52119">
        <ele>149.93</ele>
        <time>2023-08-24T07:58:43.783Z</time>
      </trkpt>
      <trkpt lat="43.72732" lon="1.52111">
        <ele>150.12</ele>
        <time>2023-08-24T07:58:44.783Z</time>
      </trkpt>
      <trkpt lat="43.7273" lon="1.52108">
        <ele>150.28</ele>
        <time>2023-08-24T07:58:45.783Z</time>
      </trkpt>
      <trkpt lat="43.72723" lon="1.52102">
        <ele>150.36</ele>
        <time>2023-08-24T07:58:47.795Z</time>
      </trkpt>
      <trkpt lat="43.72719" lon="1.52097">
        <ele>150.20999</ele>
        <time>2023-08-24T07:58:48.784Z</time>
      </trkpt>
      <trkpt lat="43.72714" lon="1.52092">
        <ele>150.08</ele>
        <time>2023-08-24T07:58:49.783Z</time>
      </trkpt>
      <trkpt lat="43.72709" lon="1.52086">
        <ele>149.93</ele>
        <time>2023-08-24T07:58:50.785Z</time>
      </trkpt>
      <trkpt lat="43.72704" lon="1.5208">
        <ele>149.84</ele>
        <time>2023-08-24T07:58:51.782Z</time>
      </trkpt>
      <trkpt lat="43.72699" lon="1.52075">
        <ele>149.61</ele>
        <time>2023-08-24T07:58:52.782Z</time>
      </trkpt>
      <trkpt lat="43.72694" lon="1.5207">
        <ele>149.35</ele>
        <time>2023-08-24T07:58:53.783Z</time>
      </trkpt>
      <trkpt lat="43.72689" lon="1.52065">
        <ele>149.11</ele>
        <time>2023-08-24T07:58:53.863Z</time>
      </trkpt>
      <trkpt lat="43.72684" lon="1.52059">
        <ele>148.92</ele>
        <time>2023-08-24T07:58:55.782Z</time>
      </trkpt>
      <trkpt lat="43.72678" lon="1.52053">
        <ele>148.68</ele>
        <time>2023-08-24T07:58:56.782Z</time>
      </trkpt>
      <trkpt lat="43.72673" lon="1.52047">
        <ele>148.51001</ele>
        <time>2023-08-24T07:58:57.783Z</time>
      </trkpt>
      <trkpt lat="43.72669" lon="1.52042">
        <ele>148.2</ele>
        <time>2023-08-24T07:58:58.784Z</time>
      </trkpt>
      <trkpt lat="43.72663" lon="1.52036">
        <ele>147.79001</ele>
        <time>2023-08-24T07:58:59.782Z</time>
      </trkpt>
      <trkpt lat="43.72658" lon="1.52029">
        <ele>147.44</ele>
        <time>2023-08-24T07:59:00.782Z</time>
      </trkpt>
      <trkpt lat="43.72653" lon="1.52023">
        <ele>147.08</ele>
        <time>2023-08-24T07:59:01.785Z</time>
      </trkpt>
      <trkpt lat="43.72648" lon="1.52017">
        <ele>146.88</ele>
        <time>2023-08-24T07:59:02.783Z</time>
      </trkpt>
      <trkpt lat="43.72643" lon="1.5201">
        <ele>146.64</ele>
        <time>2023-08-24T07:59:03.784Z</time>
      </trkpt>
      <trkpt lat="43.72637" lon="1.52003">
        <ele>146.43</ele>
        <time>2023-08-24T07:59:04.783Z</time>
      </trkpt>
      <trkpt lat="43.72635" lon="1.52">
        <ele>146.23999</ele>
        <time>2023-08-24T07:59:05.784Z</time>
      </trkpt>
      <trkpt lat="43.72627" lon="1.51989">
        <ele>145.84</ele>
        <time>2023-08-24T07:59:06.783Z</time>
      </trkpt>
      <trkpt lat="43.72622" lon="1.51981">
        <ele>145.44</ele>
        <time>2023-08-24T07:59:06.854Z</time>
      </trkpt>
      <trkpt lat="43.72617" lon="1.51973">
        <ele>145.09</ele>
        <time>2023-08-24T07:59:08.783Z</time>
      </trkpt>
      <trkpt lat="43.72612" lon="1.51965">
        <ele>144.75</ele>
        <time>2023-08-24T07:59:09.784Z</time>
      </trkpt>
      <trkpt lat="43.72607" lon="1.51958">
        <ele>144.45999</ele>
        <time>2023-08-24T07:59:10.782Z</time>
      </trkpt>
      <trkpt lat="43.72602" lon="1.5195">
        <ele>144.15</ele>
        <time>2023-08-24T07:59:11.782Z</time>
      </trkpt>
      <trkpt lat="43.72597" lon="1.51942">
        <ele>143.93</ele>
        <time>2023-08-24T07:59:12.783Z</time>
      </trkpt>
      <trkpt lat="43.72593" lon="1.51935">
        <ele>143.69</ele>
        <time>2023-08-24T07:59:13.781Z</time>
      </trkpt>
      <trkpt lat="43.72591" lon="1.51932">
        <ele>143.34</ele>
        <time>2023-08-24T07:59:14.781Z</time>
      </trkpt>
      <trkpt lat="43.72582" lon="1.5192">
        <ele>143.11</ele>
        <time>2023-08-24T07:59:15.782Z</time>
      </trkpt>
      <trkpt lat="43.72576" lon="1.51913">
        <ele>142.76</ele>
        <time>2023-08-24T07:59:16.782Z</time>
      </trkpt>
      <trkpt lat="43.7257" lon="1.51906">
        <ele>142.31</ele>
        <time>2023-08-24T07:59:17.783Z</time>
      </trkpt>
      <trkpt lat="43.72565" lon="1.51899">
        <ele>142.02</ele>
        <time>2023-08-24T07:59:18.784Z</time>
      </trkpt>
      <trkpt lat="43.72563" lon="1.51897">
        <ele>141.78</ele>
        <time>2023-08-24T07:59:19.782Z</time>
      </trkpt>
      <trkpt lat="43.72553" lon="1.51885">
        <ele>141.44</ele>
        <time>2023-08-24T07:59:20.782Z</time>
      </trkpt>
      <trkpt lat="43.72547" lon="1.51879">
        <ele>141.23</ele>
        <time>2023-08-24T07:59:21.781Z</time>
      </trkpt>
      <trkpt lat="43.72541" lon="1.51873">
        <ele>140.95</ele>
        <time>2023-08-24T07:59:22.781Z</time>
      </trkpt>
      <trkpt lat="43.72535" lon="1.51867">
        <ele>140.67</ele>
        <time>2023-08-24T07:59:23.781Z</time>
      </trkpt>
      <trkpt lat="43.72534" lon="1.51866">
        <ele>140.45</ele>
        <time>2023-08-24T07:59:24.782Z</time>
      </trkpt>
      <trkpt lat="43.72522" lon="1.51855">
        <ele>140.20999</ele>
        <time>2023-08-24T07:59:25.783Z</time>
      </trkpt>
      <trkpt lat="43.72516" lon="1.5185">
        <ele>139.93</ele>
        <time>2023-08-24T07:59:26.781Z</time>
      </trkpt>
      <trkpt lat="43.72509" lon="1.51845">
        <ele>139.65</ele>
        <time>2023-08-24T07:59:27.780Z</time>
      </trkpt>
      <trkpt lat="43.72503" lon="1.51839">
        <ele>139.4</ele>
        <time>2023-08-24T07:59:28.785Z</time>
      </trkpt>
      <trkpt lat="43.72497" lon="1.51834">
        <ele>139.33</ele>
        <time>2023-08-24T07:59:29.787Z</time>
      </trkpt>
      <trkpt lat="43.72491" lon="1.51829">
        <ele>139.17</ele>
        <time>2023-08-24T07:59:30.782Z</time>
      </trkpt>
      <trkpt lat="43.72485" lon="1.51824">
        <ele>138.95</ele>
        <time>2023-08-24T07:59:31.782Z</time>
      </trkpt>
      <trkpt lat="43.72478" lon="1.51818">
        <ele>138.75</ele>
        <time>2023-08-24T07:59:32.782Z</time>
      </trkpt>
      <trkpt lat="43.72473" lon="1.51813">
        <ele>138.63</ele>
        <time>2023-08-24T07:59:33.783Z</time>
      </trkpt>
      <trkpt lat="43.72467" lon="1.51808">
        <ele>138.61</ele>
        <time>2023-08-24T07:59:34.784Z</time>
      </trkpt>
      <trkpt lat="43.72461" lon="1.51803">
        <ele>138.5</ele>
        <time>2023-08-24T07:59:35.782Z</time>
      </trkpt>
      <trkpt lat="43.72455" lon="1.51799">
        <ele>138.53</ele>
        <time>2023-08-24T07:59:36.783Z</time>
      </trkpt>
      <trkpt lat="43.72451" lon="1.51794">
        <ele>138.53</ele>
        <time>2023-08-24T07:59:37.787Z</time>
      </trkpt>
      <trkpt lat="43.72446" lon="1.51789">
        <ele>138.45</ele>
        <time>2023-08-24T07:59:38.784Z</time>
      </trkpt>
      <trkpt lat="43.72442" lon="1.51779">
        <ele>138.43</ele>
        <time>2023-08-24T07:59:40.814Z</time>
      </trkpt>
      <trkpt lat="43.72441" lon="1.51777">
        <ele>138.42</ele>
        <time>2023-08-24T07:59:40.880Z</time>
      </trkpt>
      <trkpt lat="43.72441" lon="1.51763">
        <ele>138.36</ele>
        <time>2023-08-24T07:59:42.784Z</time>
      </trkpt>
      <trkpt lat="43.72441" lon="1.51754">
        <ele>138.27</ele>
        <time>2023-08-24T07:59:43.560Z</time>
      </trkpt>
      <trkpt lat="43.72441" lon="1.51736">
        <ele>138.19</ele>
        <time>2023-08-24T07:59:45.786Z</time>
      </trkpt>
      <trkpt lat="43.72441" lon="1.51727">
        <ele>138.16</ele>
        <time>2023-08-24T07:59:46.786Z</time>
      </trkpt>
      <trkpt lat="43.7244" lon="1.51717">
        <ele>138.07</ele>
        <time>2023-08-24T07:59:47.785Z</time>
      </trkpt>
      <trkpt lat="43.7244" lon="1.51708">
        <ele>137.92</ele>
        <time>2023-08-24T07:59:48.785Z</time>
      </trkpt>
      <trkpt lat="43.7244" lon="1.51699">
        <ele>137.75</ele>
        <time>2023-08-24T07:59:49.786Z</time>
      </trkpt>
      <trkpt lat="43.7244" lon="1.5169">
        <ele>137.62</ele>
        <time>2023-08-24T07:59:50.784Z</time>
      </trkpt>
      <trkpt lat="43.7244" lon="1.5168">
        <ele>137.43</ele>
        <time>2023-08-24T07:59:51.784Z</time>
      </trkpt>
      <trkpt lat="43.7244" lon="1.51671">
        <ele>137.23</ele>
        <time>2023-08-24T07:59:52.785Z</time>
      </trkpt>
      <trkpt lat="43.72439" lon="1.51662">
        <ele>137.01</ele>
        <time>2023-08-24T07:59:53.783Z</time>
      </trkpt>
      <trkpt lat="43.7244" lon="1.51652">
        <ele>136.88</ele>
        <time>2023-08-24T07:59:54.785Z</time>
      </trkpt>
      <trkpt lat="43.7244" lon="1.51643">
        <ele>136.73</ele>
        <time>2023-08-24T07:59:55.785Z</time>
      </trkpt>
      <trkpt lat="43.7244" lon="1.51633">
        <ele>136.63</ele>
        <time>2023-08-24T07:59:56.785Z</time>
      </trkpt>
      <trkpt lat="43.72441" lon="1.51624">
        <ele>136.49</ele>
        <time>2023-08-24T07:59:57.784Z</time>
      </trkpt>
      <trkpt lat="43.72442" lon="1.51615">
        <ele>136.47</ele>
        <time>2023-08-24T07:59:58.785Z</time>
      </trkpt>
      <trkpt lat="43.72444" lon="1.51606">
        <ele>136.42</ele>
        <time>2023-08-24T07:59:59.393Z</time>
      </trkpt>
      <trkpt lat="43.72446" lon="1.51598">
        <ele>136.34</ele>
        <time>2023-08-24T08:00:00.353Z</time>
      </trkpt>
      <trkpt lat="43.72449" lon="1.51589">
        <ele>136.33</ele>
        <time>2023-08-24T08:00:01.785Z</time>
      </trkpt>
      <trkpt lat="43.72453" lon="1.51581">
        <ele>136.25</ele>
        <time>2023-08-24T08:00:02.786Z</time>
      </trkpt>
      <trkpt lat="43.72457" lon="1.51573">
        <ele>136.22</ele>
        <time>2023-08-24T08:00:03.785Z</time>
      </trkpt>
      <trkpt lat="43.72461" lon="1.51565">
        <ele>136.17</ele>
        <time>2023-08-24T08:00:04.786Z</time>
      </trkpt>
      <trkpt lat="43.72464" lon="1.51558">
        <ele>136.1</ele>
        <time>2023-08-24T08:00:05.785Z</time>
      </trkpt>
      <trkpt lat="43.72468" lon="1.51549">
        <ele>135.98</ele>
        <time>2023-08-24T08:00:06.786Z</time>
      </trkpt>
      <trkpt lat="43.72471" lon="1.51541">
        <ele>135.9</ele>
        <time>2023-08-24T08:00:07.785Z</time>
      </trkpt>
      <trkpt lat="43.72474" lon="1.51533">
        <ele>135.83</ele>
        <time>2023-08-24T08:00:08.786Z</time>
      </trkpt>
      <trkpt lat="43.72477" lon="1.51524">
        <ele>135.78</ele>
        <time>2023-08-24T08:00:09.788Z</time>
      </trkpt>
      <trkpt lat="43.72479" lon="1.51515">
        <ele>135.75</ele>
        <time>2023-08-24T08:00:10.785Z</time>
      </trkpt>
      <trkpt lat="43.72481" lon="1.51506">
        <ele>135.7</ele>
        <time>2023-08-24T08:00:11.785Z</time>
      </trkpt>
      <trkpt lat="43.72483" lon="1.51497">
        <ele>135.61</ele>
        <time>2023-08-24T08:00:12.785Z</time>
      </trkpt>
      <trkpt lat="43.72485" lon="1.51488">
        <ele>135.55</ele>
        <time>2023-08-24T08:00:13.786Z</time>
      </trkpt>
      <trkpt lat="43.72487" lon="1.51479">
        <ele>135.47</ele>
        <time>2023-08-24T08:00:14.785Z</time>
      </trkpt>
      <trkpt lat="43.7249" lon="1.51469">
        <ele>135.4</ele>
        <time>2023-08-24T08:00:15.785Z</time>
      </trkpt>
      <trkpt lat="43.72491" lon="1.51465">
        <ele>135.34</ele>
        <time>2023-08-24T08:00:16.788Z</time>
      </trkpt>
      <trkpt lat="43.72495" lon="1.51451">
        <ele>135.25</ele>
        <time>2023-08-24T08:00:17.786Z</time>
      </trkpt>
      <trkpt lat="43.72498" lon="1.51442">
        <ele>135.20999</ele>
        <time>2023-08-24T08:00:18.787Z</time>
      </trkpt>
      <trkpt lat="43.72501" lon="1.51434">
        <ele>135.18</ele>
        <time>2023-08-24T08:00:19.792Z</time>
      </trkpt>
      <trkpt lat="43.72504" lon="1.51426">
        <ele>135.15</ele>
        <time>2023-08-24T08:00:20.785Z</time>
      </trkpt>
      <trkpt lat="43.72508" lon="1.51418">
        <ele>135.12</ele>
        <time>2023-08-24T08:00:21.785Z</time>
      </trkpt>
      <trkpt lat="43.72512" lon="1.51412">
        <ele>135.11</ele>
        <time>2023-08-24T08:00:22.787Z</time>
      </trkpt>
      <trkpt lat="43.72517" lon="1.51407">
        <ele>135.16</ele>
        <time>2023-08-24T08:00:23.789Z</time>
      </trkpt>
      <trkpt lat="43.72522" lon="1.51403">
        <ele>135.2</ele>
        <time>2023-08-24T08:00:24.788Z</time>
      </trkpt>
      <trkpt lat="43.72525" lon="1.51399">
        <ele>135.26</ele>
        <time>2023-08-24T08:00:25.792Z</time>
      </trkpt>
      <trkpt lat="43.72527" lon="1.51395">
        <ele>135.37</ele>
        <time>2023-08-24T08:00:26.786Z</time>
      </trkpt>
      <trkpt lat="43.72528" lon="1.5139">
        <ele>135.45</ele>
        <time>2023-08-24T08:00:27.786Z</time>
      </trkpt>
      <trkpt lat="43.72527" lon="1.51385">
        <ele>135.48</ele>
        <time>2023-08-24T08:00:28.791Z</time>
      </trkpt>
      <trkpt lat="43.72525" lon="1.51378">
        <ele>135.47</ele>
        <time>2023-08-24T08:00:29.789Z</time>
      </trkpt>
      <trkpt lat="43.72523" lon="1.51371">
        <ele>135.47</ele>
        <time>2023-08-24T08:00:30.788Z</time>
      </trkpt>
      <trkpt lat="43.72519" lon="1.51364">
        <ele>135.45</ele>
        <time>2023-08-24T08:00:31.787Z</time>
      </trkpt>
      <trkpt lat="43.72516" lon="1.51357">
        <ele>135.45999</ele>
        <time>2023-08-24T08:00:32.790Z</time>
      </trkpt>
      <trkpt lat="43.72512" lon="1.5135">
        <ele>135.5</ele>
        <time>2023-08-24T08:00:33.789Z</time>
      </trkpt>
      <trkpt lat="43.72509" lon="1.51343">
        <ele>135.52</ele>
        <time>2023-08-24T08:00:34.788Z</time>
      </trkpt>
      <trkpt lat="43.72505" lon="1.51337">
        <ele>135.58</ele>
        <time>2023-08-24T08:00:35.787Z</time>
      </trkpt>
      <trkpt lat="43.72501" lon="1.5133">
        <ele>135.64</ele>
        <time>2023-08-24T08:00:36.790Z</time>
      </trkpt>
      <trkpt lat="43.72497" lon="1.51324">
        <ele>135.72</ele>
        <time>2023-08-24T08:00:37.787Z</time>
      </trkpt>
      <trkpt lat="43.72493" lon="1.51317">
        <ele>135.82</ele>
        <time>2023-08-24T08:00:38.790Z</time>
      </trkpt>
      <trkpt lat="43.7249" lon="1.5131">
        <ele>135.95</ele>
        <time>2023-08-24T08:00:39.788Z</time>
      </trkpt>
      <trkpt lat="43.72486" lon="1.51304">
        <ele>136.1</ele>
        <time>2023-08-24T08:00:40.757Z</time>
      </trkpt>
      <trkpt lat="43.72482" lon="1.51297">
        <ele>136.19</ele>
        <time>2023-08-24T08:00:41.805Z</time>
      </trkpt>
      <trkpt lat="43.72478" lon="1.5129">
        <ele>136.29001</ele>
        <time>2023-08-24T08:00:42.376Z</time>
      </trkpt>
      <trkpt lat="43.72474" lon="1.51283">
        <ele>136.32</ele>
        <time>2023-08-24T08:00:43.887Z</time>
      </trkpt>
      <trkpt lat="43.7247" lon="1.51277">
        <ele>136.4</ele>
        <time>2023-08-24T08:00:44.685Z</time>
      </trkpt>
      <trkpt lat="43.72466" lon="1.5127">
        <ele>136.53</ele>
        <time>2023-08-24T08:00:45.454Z</time>
      </trkpt>
      <trkpt lat="43.72461" lon="1.51264">
        <ele>136.61</ele>
        <time>2023-08-24T08:00:46.435Z</time>
      </trkpt>
      <trkpt lat="43.72456" lon="1.51258">
        <ele>136.63</ele>
        <time>2023-08-24T08:00:47.456Z</time>
      </trkpt>
      <trkpt lat="43.72451" lon="1.51251">
        <ele>136.47</ele>
        <time>2023-08-24T08:00:48.887Z</time>
      </trkpt>
      <trkpt lat="43.72447" lon="1.51244">
        <ele>136.31</ele>
        <time>2023-08-24T08:00:49.888Z</time>
      </trkpt>
      <trkpt lat="43.72444" lon="1.51236">
        <ele>136.15</ele>
        <time>2023-08-24T08:00:50.887Z</time>
      </trkpt>
      <trkpt lat="43.7244" lon="1.51227">
        <ele>136.03</ele>
        <time>2023-08-24T08:00:51.887Z</time>
      </trkpt>
      <trkpt lat="43.72436" lon="1.51219">
        <ele>135.9</ele>
        <time>2023-08-24T08:00:52.888Z</time>
      </trkpt>
      <trkpt lat="43.72432" lon="1.51212">
        <ele>135.76</ele>
        <time>2023-08-24T08:00:53.888Z</time>
      </trkpt>
      <trkpt lat="43.72428" lon="1.51204">
        <ele>135.66</ele>
        <time>2023-08-24T08:00:54.887Z</time>
      </trkpt>
      <trkpt lat="43.72424" lon="1.51196">
        <ele>135.54001</ele>
        <time>2023-08-24T08:00:55.888Z</time>
      </trkpt>
      <trkpt lat="43.72419" lon="1.51189">
        <ele>135.4</ele>
        <time>2023-08-24T08:00:56.887Z</time>
      </trkpt>
      <trkpt lat="43.72416" lon="1.51182">
        <ele>135.32</ele>
        <time>2023-08-24T08:00:57.887Z</time>
      </trkpt>
      <trkpt lat="43.72412" lon="1.51175">
        <ele>135.31</ele>
        <time>2023-08-24T08:00:58.887Z</time>
      </trkpt>
      <trkpt lat="43.72409" lon="1.51168">
        <ele>135.35</ele>
        <time>2023-08-24T08:00:59.887Z</time>
      </trkpt>
      <trkpt lat="43.72405" lon="1.5116">
        <ele>135.41</ele>
        <time>2023-08-24T08:01:00.887Z</time>
      </trkpt>
      <trkpt lat="43.72403" lon="1.51152">
        <ele>135.49</ele>
        <time>2023-08-24T08:01:01.888Z</time>
      </trkpt>
      <trkpt lat="43.724" lon="1.51145">
        <ele>135.54001</ele>
        <time>2023-08-24T08:01:02.888Z</time>
      </trkpt>
      <trkpt lat="43.72396" lon="1.51137">
        <ele>135.59</ele>
        <time>2023-08-24T08:01:03.889Z</time>
      </trkpt>
      <trkpt lat="43.72393" lon="1.51129">
        <ele>135.65</ele>
        <time>2023-08-24T08:01:04.669Z</time>
      </trkpt>
      <trkpt lat="43.72389" lon="1.51121">
        <ele>135.62</ele>
        <time>2023-08-24T08:01:05.887Z</time>
      </trkpt>
      <trkpt lat="43.72385" lon="1.51112">
        <ele>135.52</ele>
        <time>2023-08-24T08:01:06.863Z</time>
      </trkpt>
      <trkpt lat="43.72381" lon="1.51104">
        <ele>135.38</ele>
        <time>2023-08-24T08:01:07.888Z</time>
      </trkpt>
      <trkpt lat="43.72377" lon="1.51096">
        <ele>135.29001</ele>
        <time>2023-08-24T08:01:08.888Z</time>
      </trkpt>
      <trkpt lat="43.72373" lon="1.51088">
        <ele>135.15</ele>
        <time>2023-08-24T08:01:09.865Z</time>
      </trkpt>
      <trkpt lat="43.72369" lon="1.5108">
        <ele>135.08</ele>
        <time>2023-08-24T08:01:10.888Z</time>
      </trkpt>
      <trkpt lat="43.72366" lon="1.51073">
        <ele>134.92</ele>
        <time>2023-08-24T08:01:11.887Z</time>
      </trkpt>
      <trkpt lat="43.72361" lon="1.51064">
        <ele>134.85</ele>
        <time>2023-08-24T08:01:12.887Z</time>
      </trkpt>
      <trkpt lat="43.72357" lon="1.51057">
        <ele>134.73</ele>
        <time>2023-08-24T08:01:13.889Z</time>
      </trkpt>
      <trkpt lat="43.72353" lon="1.51049">
        <ele>134.68</ele>
        <time>2023-08-24T08:01:14.887Z</time>
      </trkpt>
      <trkpt lat="43.72349" lon="1.51041">
        <ele>134.62</ele>
        <time>2023-08-24T08:01:15.886Z</time>
      </trkpt>
      <trkpt lat="43.72345" lon="1.51033">
        <ele>134.57</ele>
        <time>2023-08-24T08:01:16.888Z</time>
      </trkpt>
      <trkpt lat="43.72342" lon="1.51026">
        <ele>134.51</ele>
        <time>2023-08-24T08:01:17.887Z</time>
      </trkpt>
      <trkpt lat="43.72338" lon="1.51019">
        <ele>134.49</ele>
        <time>2023-08-24T08:01:18.886Z</time>
      </trkpt>
      <trkpt lat="43.72334" lon="1.51011">
        <ele>134.43</ele>
        <time>2023-08-24T08:01:19.885Z</time>
      </trkpt>
      <trkpt lat="43.7233" lon="1.51004">
        <ele>134.38</ele>
        <time>2023-08-24T08:01:20.607Z</time>
      </trkpt>
      <trkpt lat="43.72327" lon="1.50996">
        <ele>134.36</ele>
        <time>2023-08-24T08:01:21.886Z</time>
      </trkpt>
      <trkpt lat="43.72323" lon="1.50988">
        <ele>134.37</ele>
        <time>2023-08-24T08:01:22.523Z</time>
      </trkpt>
      <trkpt lat="43.7232" lon="1.50981">
        <ele>134.37</ele>
        <time>2023-08-24T08:01:23.886Z</time>
      </trkpt>
      <trkpt lat="43.72316" lon="1.50974">
        <ele>134.43</ele>
        <time>2023-08-24T08:01:23.931Z</time>
      </trkpt>
      <trkpt lat="43.72313" lon="1.50966">
        <ele>134.45</ele>
        <time>2023-08-24T08:01:25.892Z</time>
      </trkpt>
      <trkpt lat="43.7231" lon="1.50959">
        <ele>134.47</ele>
        <time>2023-08-24T08:01:25.937Z</time>
      </trkpt>
      <trkpt lat="43.72306" lon="1.50952">
        <ele>134.48</ele>
        <time>2023-08-24T08:01:27.532Z</time>
      </trkpt>
      <trkpt lat="43.72303" lon="1.50944">
        <ele>134.47</ele>
        <time>2023-08-24T08:01:28.887Z</time>
      </trkpt>
      <trkpt lat="43.72299" lon="1.50937">
        <ele>134.45</ele>
        <time>2023-08-24T08:01:29.886Z</time>
      </trkpt>
      <trkpt lat="43.72295" lon="1.5093">
        <ele>134.42</ele>
        <time>2023-08-24T08:01:30.506Z</time>
      </trkpt>
      <trkpt lat="43.72291" lon="1.50923">
        <ele>134.41</ele>
        <time>2023-08-24T08:01:31.887Z</time>
      </trkpt>
      <trkpt lat="43.72287" lon="1.50918">
        <ele>134.39</ele>
        <time>2023-08-24T08:01:32.886Z</time>
      </trkpt>
      <trkpt lat="43.72283" lon="1.50912">
        <ele>134.4</ele>
        <time>2023-08-24T08:01:33.888Z</time>
      </trkpt>
      <trkpt lat="43.72278" lon="1.50907">
        <ele>134.38</ele>
        <time>2023-08-24T08:01:34.889Z</time>
      </trkpt>
      <trkpt lat="43.72273" lon="1.50902">
        <ele>134.4</ele>
        <time>2023-08-24T08:01:34.968Z</time>
      </trkpt>
      <trkpt lat="43.72268" lon="1.50897">
        <ele>134.38</ele>
        <time>2023-08-24T08:01:36.886Z</time>
      </trkpt>
      <trkpt lat="43.72263" lon="1.50892">
        <ele>134.35</ele>
        <time>2023-08-24T08:01:37.886Z</time>
      </trkpt>
      <trkpt lat="43.72257" lon="1.50887">
        <ele>134.33</ele>
        <time>2023-08-24T08:01:38.887Z</time>
      </trkpt>
      <trkpt lat="43.72252" lon="1.50882">
        <ele>134.34</ele>
        <time>2023-08-24T08:01:39.885Z</time>
      </trkpt>
      <trkpt lat="43.72247" lon="1.50876">
        <ele>134.33</ele>
        <time>2023-08-24T08:01:40.886Z</time>
      </trkpt>
      <trkpt lat="43.72241" lon="1.50871">
        <ele>134.41</ele>
        <time>2023-08-24T08:01:41.887Z</time>
      </trkpt>
      <trkpt lat="43.72236" lon="1.50866">
        <ele>134.4</ele>
        <time>2023-08-24T08:01:42.888Z</time>
      </trkpt>
      <trkpt lat="43.72231" lon="1.50861">
        <ele>134.44</ele>
        <time>2023-08-24T08:01:43.886Z</time>
      </trkpt>
      <trkpt lat="43.72225" lon="1.50856">
        <ele>134.47</ele>
        <time>2023-08-24T08:01:44.886Z</time>
      </trkpt>
      <trkpt lat="43.72219" lon="1.50851">
        <ele>134.45999</ele>
        <time>2023-08-24T08:01:45.886Z</time>
      </trkpt>
      <trkpt lat="43.72215" lon="1.50846">
        <ele>134.49</ele>
        <time>2023-08-24T08:01:46.887Z</time>
      </trkpt>
      <trkpt lat="43.72209" lon="1.50841">
        <ele>134.49</ele>
        <time>2023-08-24T08:01:47.887Z</time>
      </trkpt>
      <trkpt lat="43.72205" lon="1.50836">
        <ele>134.36</ele>
        <time>2023-08-24T08:01:48.885Z</time>
      </trkpt>
      <trkpt lat="43.72199" lon="1.5083">
        <ele>134.24</ele>
        <time>2023-08-24T08:01:49.887Z</time>
      </trkpt>
      <trkpt lat="43.72194" lon="1.50825">
        <ele>134.13</ele>
        <time>2023-08-24T08:01:50.910Z</time>
      </trkpt>
      <trkpt lat="43.72189" lon="1.50819">
        <ele>134.1</ele>
        <time>2023-08-24T08:01:51.886Z</time>
      </trkpt>
      <trkpt lat="43.72184" lon="1.50814">
        <ele>134.07</ele>
        <time>2023-08-24T08:01:52.885Z</time>
      </trkpt>
      <trkpt lat="43.72179" lon="1.50808">
        <ele>134.04001</ele>
        <time>2023-08-24T08:01:53.885Z</time>
      </trkpt>
      <trkpt lat="43.72175" lon="1.50802">
        <ele>134.03</ele>
        <time>2023-08-24T08:01:54.888Z</time>
      </trkpt>
      <trkpt lat="43.7217" lon="1.50796">
        <ele>134.04001</ele>
        <time>2023-08-24T08:01:55.885Z</time>
      </trkpt>
      <trkpt lat="43.72166" lon="1.5079">
        <ele>134.09</ele>
        <time>2023-08-24T08:01:56.885Z</time>
      </trkpt>
      <trkpt lat="43.72161" lon="1.50783">
        <ele>134.04001</ele>
        <time>2023-08-24T08:01:57.885Z</time>
      </trkpt>
      <trkpt lat="43.72157" lon="1.50777">
        <ele>134.05</ele>
        <time>2023-08-24T08:01:58.886Z</time>
      </trkpt>
      <trkpt lat="43.72152" lon="1.50771">
        <ele>134.03</ele>
        <time>2023-08-24T08:01:59.884Z</time>
      </trkpt>
      <trkpt lat="43.72147" lon="1.50764">
        <ele>134.02</ele>
        <time>2023-08-24T08:02:00.884Z</time>
      </trkpt>
      <trkpt lat="43.72142" lon="1.50758">
        <ele>133.97</ele>
        <time>2023-08-24T08:02:01.885Z</time>
      </trkpt>
      <trkpt lat="43.72138" lon="1.50752">
        <ele>133.98</ele>
        <time>2023-08-24T08:02:02.886Z</time>
      </trkpt>
      <trkpt lat="43.72134" lon="1.50746">
        <ele>134.05</ele>
        <time>2023-08-24T08:02:03.885Z</time>
      </trkpt>
      <trkpt lat="43.72129" lon="1.5074">
        <ele>134.08</ele>
        <time>2023-08-24T08:02:04.887Z</time>
      </trkpt>
      <trkpt lat="43.72125" lon="1.50734">
        <ele>134.11</ele>
        <time>2023-08-24T08:02:05.885Z</time>
      </trkpt>
      <trkpt lat="43.7212" lon="1.50728">
        <ele>134.15</ele>
        <time>2023-08-24T08:02:06.885Z</time>
      </trkpt>
      <trkpt lat="43.72115" lon="1.50723">
        <ele>134.22</ele>
        <time>2023-08-24T08:02:07.913Z</time>
      </trkpt>
      <trkpt lat="43.7211" lon="1.50717">
        <ele>134.25</ele>
        <time>2023-08-24T08:02:08.885Z</time>
      </trkpt>
      <trkpt lat="43.72106" lon="1.50712">
        <ele>134.37</ele>
        <time>2023-08-24T08:02:09.886Z</time>
      </trkpt>
      <trkpt lat="43.72101" lon="1.50707">
        <ele>134.45999</ele>
        <time>2023-08-24T08:02:10.885Z</time>
      </trkpt>
      <trkpt lat="43.72095" lon="1.50702">
        <ele>134.5</ele>
        <time>2023-08-24T08:02:11.688Z</time>
      </trkpt>
      <trkpt lat="43.7209" lon="1.50697">
        <ele>134.57</ele>
        <time>2023-08-24T08:02:12.886Z</time>
      </trkpt>
      <trkpt lat="43.72085" lon="1.50693">
        <ele>134.63</ele>
        <time>2023-08-24T08:02:13.885Z</time>
      </trkpt>
      <trkpt lat="43.72079" lon="1.50688">
        <ele>134.72</ele>
        <time>2023-08-24T08:02:14.887Z</time>
      </trkpt>
      <trkpt lat="43.72075" lon="1.50684">
        <ele>134.77</ele>
        <time>2023-08-24T08:02:15.886Z</time>
      </trkpt>
      <trkpt lat="43.72069" lon="1.5068">
        <ele>134.8</ele>
        <time>2023-08-24T08:02:16.886Z</time>
      </trkpt>
      <trkpt lat="43.72063" lon="1.50675">
        <ele>134.87</ele>
        <time>2023-08-24T08:02:17.885Z</time>
      </trkpt>
      <trkpt lat="43.72057" lon="1.50671">
        <ele>134.93</ele>
        <time>2023-08-24T08:02:18.885Z</time>
      </trkpt>
      <trkpt lat="43.72052" lon="1.50667">
        <ele>135.04001</ele>
        <time>2023-08-24T08:02:19.886Z</time>
      </trkpt>
      <trkpt lat="43.72047" lon="1.50663">
        <ele>135.13</ele>
        <time>2023-08-24T08:02:20.888Z</time>
      </trkpt>
      <trkpt lat="43.72041" lon="1.50658">
        <ele>135.23</ele>
        <time>2023-08-24T08:02:21.888Z</time>
      </trkpt>
      <trkpt lat="43.72036" lon="1.50654">
        <ele>135.31</ele>
        <time>2023-08-24T08:02:22.888Z</time>
      </trkpt>
      <trkpt lat="43.7203" lon="1.5065">
        <ele>135.36</ele>
        <time>2023-08-24T08:02:23.657Z</time>
      </trkpt>
      <trkpt lat="43.72025" lon="1.50645">
        <ele>135.43</ele>
        <time>2023-08-24T08:02:24.960Z</time>
      </trkpt>
      <trkpt lat="43.7202" lon="1.5064">
        <ele>135.52</ele>
        <time>2023-08-24T08:02:25.885Z</time>
      </trkpt>
      <trkpt lat="43.72015" lon="1.50636">
        <ele>135.58</ele>
        <time>2023-08-24T08:02:26.885Z</time>
      </trkpt>
      <trkpt lat="43.7201" lon="1.50631">
        <ele>135.63</ele>
        <time>2023-08-24T08:02:27.884Z</time>
      </trkpt>
      <trkpt lat="43.72004" lon="1.50625">
        <ele>135.68</ele>
        <time>2023-08-24T08:02:28.885Z</time>
      </trkpt>
      <trkpt lat="43.71999" lon="1.5062">
        <ele>135.74</ele>
        <time>2023-08-24T08:02:29.956Z</time>
      </trkpt>
      <trkpt lat="43.71994" lon="1.50615">
        <ele>135.79001</ele>
        <time>2023-08-24T08:02:30.884Z</time>
      </trkpt>
      <trkpt lat="43.71989" lon="1.50609">
        <ele>135.82</ele>
        <time>2023-08-24T08:02:31.885Z</time>
      </trkpt>
      <trkpt lat="43.71984" lon="1.50603">
        <ele>135.91</ele>
        <time>2023-08-24T08:02:32.887Z</time>
      </trkpt>
      <trkpt lat="43.7198" lon="1.50597">
        <ele>135.97</ele>
        <time>2023-08-24T08:02:33.884Z</time>
      </trkpt>
      <trkpt lat="43.71975" lon="1.50592">
        <ele>136.06</ele>
        <time>2023-08-24T08:02:34.884Z</time>
      </trkpt>
      <trkpt lat="43.71972" lon="1.50585">
        <ele>136.18</ele>
        <time>2023-08-24T08:02:35.885Z</time>
      </trkpt>
      <trkpt lat="43.71968" lon="1.50579">
        <ele>136.3</ele>
        <time>2023-08-24T08:02:36.884Z</time>
      </trkpt>
      <trkpt lat="43.71964" lon="1.50572">
        <ele>136.38</ele>
        <time>2023-08-24T08:02:37.983Z</time>
      </trkpt>
      <trkpt lat="43.71959" lon="1.50566">
        <ele>136.54001</ele>
        <time>2023-08-24T08:02:38.879Z</time>
      </trkpt>
      <trkpt lat="43.71955" lon="1.5056">
        <ele>136.61</ele>
        <time>2023-08-24T08:02:39.983Z</time>
      </trkpt>
      <trkpt lat="43.71952" lon="1.50554">
        <ele>136.72</ele>
        <time>2023-08-24T08:02:40.983Z</time>
      </trkpt>
      <trkpt lat="43.71948" lon="1.50548">
        <ele>136.84</ele>
        <time>2023-08-24T08:02:41.985Z</time>
      </trkpt>
      <trkpt lat="43.71944" lon="1.50541">
        <ele>136.99</ele>
        <time>2023-08-24T08:02:42.983Z</time>
      </trkpt>
      <trkpt lat="43.71941" lon="1.50535">
        <ele>137.12</ele>
        <time>2023-08-24T08:02:43.040Z</time>
      </trkpt>
      <trkpt lat="43.71937" lon="1.50529">
        <ele>137.26</ele>
        <time>2023-08-24T08:02:44.982Z</time>
      </trkpt>
      <trkpt lat="43.71934" lon="1.50522">
        <ele>137.45</ele>
        <time>2023-08-24T08:02:45.051Z</time>
      </trkpt>
      <trkpt lat="43.7193" lon="1.50516">
        <ele>137.62</ele>
        <time>2023-08-24T08:02:46.981Z</time>
      </trkpt>
      <trkpt lat="43.71928" lon="1.50511">
        <ele>137.81</ele>
        <time>2023-08-24T08:02:47.983Z</time>
      </trkpt>
      <trkpt lat="43.71925" lon="1.50506">
        <ele>138.03</ele>
        <time>2023-08-24T08:02:48.985Z</time>
      </trkpt>
      <trkpt lat="43.71924" lon="1.50502">
        <ele>138.25</ele>
        <time>2023-08-24T08:02:49.790Z</time>
      </trkpt>
      <trkpt lat="43.71923" lon="1.50497">
        <ele>138.47</ele>
        <time>2023-08-24T08:02:50.984Z</time>
      </trkpt>
      <trkpt lat="43.71923" lon="1.50489">
        <ele>138.64</ele>
        <time>2023-08-24T08:02:51.983Z</time>
      </trkpt>
      <trkpt lat="43.71925" lon="1.5048">
        <ele>138.82</ele>
        <time>2023-08-24T08:02:52.982Z</time>
      </trkpt>
      <trkpt lat="43.71925" lon="1.50474">
        <ele>138.95999</ele>
        <time>2023-08-24T08:02:53.981Z</time>
      </trkpt>
      <trkpt lat="43.71927" lon="1.50464">
        <ele>139.1</ele>
        <time>2023-08-24T08:02:54.982Z</time>
      </trkpt>
      <trkpt lat="43.71929" lon="1.50456">
        <ele>139.23</ele>
        <time>2023-08-24T08:02:55.981Z</time>
      </trkpt>
      <trkpt lat="43.7193" lon="1.50447">
        <ele>139.31</ele>
        <time>2023-08-24T08:02:56.983Z</time>
      </trkpt>
      <trkpt lat="43.71932" lon="1.50439">
        <ele>139.41</ele>
        <time>2023-08-24T08:02:57.742Z</time>
      </trkpt>
      <trkpt lat="43.71933" lon="1.5043">
        <ele>139.52</ele>
        <time>2023-08-24T08:02:58.985Z</time>
      </trkpt>
      <trkpt lat="43.71935" lon="1.50422">
        <ele>139.6</ele>
        <time>2023-08-24T08:02:59.981Z</time>
      </trkpt>
      <trkpt lat="43.71937" lon="1.50414">
        <ele>139.7</ele>
        <time>2023-08-24T08:03:00.985Z</time>
      </trkpt>
      <trkpt lat="43.71938" lon="1.50406">
        <ele>139.77</ele>
        <time>2023-08-24T08:03:01.982Z</time>
      </trkpt>
      <trkpt lat="43.71939" lon="1.50397">
        <ele>139.84</ele>
        <time>2023-08-24T08:03:02.755Z</time>
      </trkpt>
      <trkpt lat="43.71941" lon="1.50389">
        <ele>139.94</ele>
        <time>2023-08-24T08:03:03.982Z</time>
      </trkpt>
      <trkpt lat="43.71943" lon="1.5038">
        <ele>140.05</ele>
        <time>2023-08-24T08:03:04.982Z</time>
      </trkpt>
      <trkpt lat="43.71944" lon="1.50372">
        <ele>140.13</ele>
        <time>2023-08-24T08:03:05.982Z</time>
      </trkpt>
      <trkpt lat="43.71946" lon="1.50363">
        <ele>140.27</ele>
        <time>2023-08-24T08:03:06.982Z</time>
      </trkpt>
      <trkpt lat="43.71947" lon="1.50354">
        <ele>140.32</ele>
        <time>2023-08-24T08:03:07.983Z</time>
      </trkpt>
      <trkpt lat="43.71949" lon="1.50346">
        <ele>140.47</ele>
        <time>2023-08-24T08:03:08.983Z</time>
      </trkpt>
      <trkpt lat="43.71951" lon="1.50338">
        <ele>140.6</ele>
        <time>2023-08-24T08:03:09.981Z</time>
      </trkpt>
      <trkpt lat="43.71952" lon="1.50329">
        <ele>140.70999</ele>
        <time>2023-08-24T08:03:10.982Z</time>
      </trkpt>
      <trkpt lat="43.71953" lon="1.5032">
        <ele>140.82</ele>
        <time>2023-08-24T08:03:11.722Z</time>
      </trkpt>
      <trkpt lat="43.71955" lon="1.50312">
        <ele>140.93</ele>
        <time>2023-08-24T08:03:12.982Z</time>
      </trkpt>
      <trkpt lat="43.71956" lon="1.50303">
        <ele>140.97</ele>
        <time>2023-08-24T08:03:13.978Z</time>
      </trkpt>
      <trkpt lat="43.71958" lon="1.50295">
        <ele>141.06</ele>
        <time>2023-08-24T08:03:14.981Z</time>
      </trkpt>
      <trkpt lat="43.71959" lon="1.50287">
        <ele>141.13</ele>
        <time>2023-08-24T08:03:15.985Z</time>
      </trkpt>
      <trkpt lat="43.7196" lon="1.5028">
        <ele>141.23</ele>
        <time>2023-08-24T08:03:16.981Z</time>
      </trkpt>
      <trkpt lat="43.71961" lon="1.50273">
        <ele>141.31</ele>
        <time>2023-08-24T08:03:17.982Z</time>
      </trkpt>
      <trkpt lat="43.71959" lon="1.50267">
        <ele>141.39</ele>
        <time>2023-08-24T08:03:18.981Z</time>
      </trkpt>
      <trkpt lat="43.71957" lon="1.50263">
        <ele>141.47</ele>
        <time>2023-08-24T08:03:19.981Z</time>
      </trkpt>
      <trkpt lat="43.71952" lon="1.50261">
        <ele>141.57</ele>
        <time>2023-08-24T08:03:20.979Z</time>
      </trkpt>
      <trkpt lat="43.71948" lon="1.50262">
        <ele>141.66</ele>
        <time>2023-08-24T08:03:21.993Z</time>
      </trkpt>
      <trkpt lat="43.71943" lon="1.50263">
        <ele>141.75</ele>
        <time>2023-08-24T08:03:22.982Z</time>
      </trkpt>
      <trkpt lat="43.71938" lon="1.50264">
        <ele>141.85</ele>
        <time>2023-08-24T08:03:23.987Z</time>
      </trkpt>
      <trkpt lat="43.71932" lon="1.50265">
        <ele>141.97</ele>
        <time>2023-08-24T08:03:24.990Z</time>
      </trkpt>
      <trkpt lat="43.71927" lon="1.50266">
        <ele>142.05</ele>
        <time>2023-08-24T08:03:25.983Z</time>
      </trkpt>
      <trkpt lat="43.71922" lon="1.50265">
        <ele>142.14</ele>
        <time>2023-08-24T08:03:26.987Z</time>
      </trkpt>
      <trkpt lat="43.71917" lon="1.50265">
        <ele>142.20999</ele>
        <time>2023-08-24T08:03:27.980Z</time>
      </trkpt>
      <trkpt lat="43.71912" lon="1.50264">
        <ele>142.34</ele>
        <time>2023-08-24T08:03:28.980Z</time>
      </trkpt>
      <trkpt lat="43.71907" lon="1.50263">
        <ele>142.45</ele>
        <time>2023-08-24T08:03:29.579Z</time>
      </trkpt>
      <trkpt lat="43.71901" lon="1.50261">
        <ele>142.6</ele>
        <time>2023-08-24T08:03:30.983Z</time>
      </trkpt>
      <trkpt lat="43.71897" lon="1.50259">
        <ele>142.77</ele>
        <time>2023-08-24T08:03:31.045Z</time>
      </trkpt>
      <trkpt lat="43.71891" lon="1.50256">
        <ele>142.93</ele>
        <time>2023-08-24T08:03:32.984Z</time>
      </trkpt>
      <trkpt lat="43.71887" lon="1.50252">
        <ele>143.04001</ele>
        <time>2023-08-24T08:03:33.051Z</time>
      </trkpt>
      <trkpt lat="43.71883" lon="1.50248">
        <ele>143.18</ele>
        <time>2023-08-24T08:03:34.980Z</time>
      </trkpt>
      <trkpt lat="43.71878" lon="1.50243">
        <ele>143.39</ele>
        <time>2023-08-24T08:03:36.039Z</time>
      </trkpt>
      <trkpt lat="43.71875" lon="1.50238">
        <ele>143.59</ele>
        <time>2023-08-24T08:03:36.616Z</time>
      </trkpt>
      <trkpt lat="43.71871" lon="1.50232">
        <ele>143.70999</ele>
        <time>2023-08-24T08:03:37.616Z</time>
      </trkpt>
      <trkpt lat="43.71868" lon="1.50227">
        <ele>143.81</ele>
        <time>2023-08-24T08:03:38.626Z</time>
      </trkpt>
      <trkpt lat="43.71864" lon="1.50221">
        <ele>143.95</ele>
        <time>2023-08-24T08:03:39.981Z</time>
      </trkpt>
      <trkpt lat="43.71861" lon="1.50216">
        <ele>144.13</ele>
        <time>2023-08-24T08:03:40.616Z</time>
      </trkpt>
      <trkpt lat="43.71857" lon="1.50211">
        <ele>144.31</ele>
        <time>2023-08-24T08:03:41.981Z</time>
      </trkpt>
      <trkpt lat="43.71853" lon="1.50205">
        <ele>144.4</ele>
        <time>2023-08-24T08:03:42.980Z</time>
      </trkpt>
      <trkpt lat="43.71849" lon="1.502">
        <ele>144.48</ele>
        <time>2023-08-24T08:03:43.983Z</time>
      </trkpt>
      <trkpt lat="43.71845" lon="1.50194">
        <ele>144.6</ele>
        <time>2023-08-24T08:03:44.981Z</time>
      </trkpt>
      <trkpt lat="43.71841" lon="1.50189">
        <ele>144.67</ele>
        <time>2023-08-24T08:03:45.981Z</time>
      </trkpt>
      <trkpt lat="43.71838" lon="1.50183">
        <ele>144.74</ele>
        <time>2023-08-24T08:03:46.980Z</time>
      </trkpt>
      <trkpt lat="43.71834" lon="1.50177">
        <ele>144.81</ele>
        <time>2023-08-24T08:03:47.980Z</time>
      </trkpt>
      <trkpt lat="43.7183" lon="1.50172">
        <ele>144.8</ele>
        <time>2023-08-24T08:03:48.979Z</time>
      </trkpt>
      <trkpt lat="43.71826" lon="1.50166">
        <ele>144.8</ele>
        <time>2023-08-24T08:03:49.980Z</time>
      </trkpt>
      <trkpt lat="43.71823" lon="1.50161">
        <ele>144.83</ele>
        <time>2023-08-24T08:03:50.995Z</time>
      </trkpt>
      <trkpt lat="43.71819" lon="1.50155">
        <ele>144.88</ele>
        <time>2023-08-24T08:03:51.979Z</time>
      </trkpt>
      <trkpt lat="43.71815" lon="1.50149">
        <ele>144.94</ele>
        <time>2023-08-24T08:03:52.978Z</time>
      </trkpt>
      <trkpt lat="43.71811" lon="1.50143">
        <ele>145</ele>
        <time>2023-08-24T08:03:53.978Z</time>
      </trkpt>
      <trkpt lat="43.71807" lon="1.50138">
        <ele>145.04001</ele>
        <time>2023-08-24T08:03:54.979Z</time>
      </trkpt>
      <trkpt lat="43.71804" lon="1.50132">
        <ele>145.12</ele>
        <time>2023-08-24T08:03:55.979Z</time>
      </trkpt>
      <trkpt lat="43.718" lon="1.50126">
        <ele>145.15</ele>
        <time>2023-08-24T08:03:56.978Z</time>
      </trkpt>
      <trkpt lat="43.71796" lon="1.50119">
        <ele>145.23999</ele>
        <time>2023-08-24T08:03:57.979Z</time>
      </trkpt>
      <trkpt lat="43.71791" lon="1.50113">
        <ele>145.29001</ele>
        <time>2023-08-24T08:03:58.978Z</time>
      </trkpt>
      <trkpt lat="43.71788" lon="1.50108">
        <ele>145.39</ele>
        <time>2023-08-24T08:03:59.986Z</time>
      </trkpt>
      <trkpt lat="43.71783" lon="1.50102">
        <ele>145.51999</ele>
        <time>2023-08-24T08:04:00.980Z</time>
      </trkpt>
      <trkpt lat="43.71779" lon="1.50096">
        <ele>145.64</ele>
        <time>2023-08-24T08:04:01.764Z</time>
      </trkpt>
      <trkpt lat="43.71775" lon="1.5009">
        <ele>145.73999</ele>
        <time>2023-08-24T08:04:02.979Z</time>
      </trkpt>
      <trkpt lat="43.7177" lon="1.50083">
        <ele>145.8</ele>
        <time>2023-08-24T08:04:03.979Z</time>
      </trkpt>
      <trkpt lat="43.71766" lon="1.50077">
        <ele>145.86</ele>
        <time>2023-08-24T08:04:04.982Z</time>
      </trkpt>
      <trkpt lat="43.71761" lon="1.50072">
        <ele>145.91</ele>
        <time>2023-08-24T08:04:05.980Z</time>
      </trkpt>
      <trkpt lat="43.71756" lon="1.50067">
        <ele>145.95</ele>
        <time>2023-08-24T08:04:06.980Z</time>
      </trkpt>
      <trkpt lat="43.71751" lon="1.50062">
        <ele>145.95999</ele>
        <time>2023-08-24T08:04:07.983Z</time>
      </trkpt>
      <trkpt lat="43.71745" lon="1.50058">
        <ele>145.98001</ele>
        <time>2023-08-24T08:04:08.980Z</time>
      </trkpt>
      <trkpt lat="43.7174" lon="1.50054">
        <ele>146.08</ele>
        <time>2023-08-24T08:04:09.979Z</time>
      </trkpt>
      <trkpt lat="43.71734" lon="1.50051">
        <ele>146.15</ele>
        <time>2023-08-24T08:04:10.981Z</time>
      </trkpt>
      <trkpt lat="43.71728" lon="1.50048">
        <ele>146.20999</ele>
        <time>2023-08-24T08:04:11.981Z</time>
      </trkpt>
      <trkpt lat="43.71722" lon="1.50046">
        <ele>146.28</ele>
        <time>2023-08-24T08:04:12.980Z</time>
      </trkpt>
      <trkpt lat="43.71717" lon="1.50043">
        <ele>146.35</ele>
        <time>2023-08-24T08:04:13.982Z</time>
      </trkpt>
      <trkpt lat="43.71711" lon="1.50041">
        <ele>146.43</ele>
        <time>2023-08-24T08:04:14.980Z</time>
      </trkpt>
      <trkpt lat="43.71705" lon="1.50038">
        <ele>146.48999</ele>
        <time>2023-08-24T08:04:15.984Z</time>
      </trkpt>
      <trkpt lat="43.71699" lon="1.50036">
        <ele>146.54001</ele>
        <time>2023-08-24T08:04:16.981Z</time>
      </trkpt>
      <trkpt lat="43.71693" lon="1.50033">
        <ele>146.63</ele>
        <time>2023-08-24T08:04:17.982Z</time>
      </trkpt>
      <trkpt lat="43.71688" lon="1.50031">
        <ele>146.7</ele>
        <time>2023-08-24T08:04:18.981Z</time>
      </trkpt>
      <trkpt lat="43.71682" lon="1.50029">
        <ele>146.79001</ele>
        <time>2023-08-24T08:04:19.981Z</time>
      </trkpt>
      <trkpt lat="43.71677" lon="1.50026">
        <ele>146.91</ele>
        <time>2023-08-24T08:04:20.981Z</time>
      </trkpt>
      <trkpt lat="43.71671" lon="1.50023">
        <ele>147.09</ele>
        <time>2023-08-24T08:04:22.080Z</time>
      </trkpt>
      <trkpt lat="43.71667" lon="1.5002">
        <ele>147.23001</ele>
        <time>2023-08-24T08:04:22.163Z</time>
      </trkpt>
      <trkpt lat="43.71661" lon="1.50017">
        <ele>147.39</ele>
        <time>2023-08-24T08:04:24.080Z</time>
      </trkpt>
      <trkpt lat="43.71657" lon="1.50012">
        <ele>147.47</ele>
        <time>2023-08-24T08:04:25.079Z</time>
      </trkpt>
      <trkpt lat="43.71653" lon="1.50008">
        <ele>147.55</ele>
        <time>2023-08-24T08:04:26.081Z</time>
      </trkpt>
      <trkpt lat="43.71648" lon="1.50001">
        <ele>147.61</ele>
        <time>2023-08-24T08:04:27.080Z</time>
      </trkpt>
      <trkpt lat="43.71645" lon="1.49995">
        <ele>147.7</ele>
        <time>2023-08-24T08:04:28.079Z</time>
      </trkpt>
      <trkpt lat="43.71643" lon="1.49988">
        <ele>147.82</ele>
        <time>2023-08-24T08:04:29.078Z</time>
      </trkpt>
      <trkpt lat="43.7164" lon="1.49981">
        <ele>147.89</ele>
        <time>2023-08-24T08:04:29.869Z</time>
      </trkpt>
      <trkpt lat="43.71639" lon="1.49973">
        <ele>147.98001</ele>
        <time>2023-08-24T08:04:31.079Z</time>
      </trkpt>
      <trkpt lat="43.71638" lon="1.49966">
        <ele>148.12</ele>
        <time>2023-08-24T08:04:32.078Z</time>
      </trkpt>
      <trkpt lat="43.71637" lon="1.49959">
        <ele>148.22</ele>
        <time>2023-08-24T08:04:33.078Z</time>
      </trkpt>
      <trkpt lat="43.71636" lon="1.49951">
        <ele>148.38</ele>
        <time>2023-08-24T08:04:34.078Z</time>
      </trkpt>
      <trkpt lat="43.71635" lon="1.49943">
        <ele>148.53</ele>
        <time>2023-08-24T08:04:34.882Z</time>
      </trkpt>
      <trkpt lat="43.71634" lon="1.49936">
        <ele>148.68</ele>
        <time>2023-08-24T08:04:36.079Z</time>
      </trkpt>
      <trkpt lat="43.71633" lon="1.49929">
        <ele>148.82</ele>
        <time>2023-08-24T08:04:36.625Z</time>
      </trkpt>
      <trkpt lat="43.71632" lon="1.49921">
        <ele>148.92</ele>
        <time>2023-08-24T08:04:37.768Z</time>
      </trkpt>
      <trkpt lat="43.71631" lon="1.49914">
        <ele>149</ele>
        <time>2023-08-24T08:04:39.079Z</time>
      </trkpt>
      <trkpt lat="43.7163" lon="1.49907">
        <ele>149.15</ele>
        <time>2023-08-24T08:04:39.924Z</time>
      </trkpt>
      <trkpt lat="43.71629" lon="1.49899">
        <ele>149.26999</ele>
        <time>2023-08-24T08:04:41.077Z</time>
      </trkpt>
      <trkpt lat="43.71628" lon="1.49892">
        <ele>149.39</ele>
        <time>2023-08-24T08:04:42.078Z</time>
      </trkpt>
      <trkpt lat="43.71627" lon="1.49884">
        <ele>149.48999</ele>
        <time>2023-08-24T08:04:43.078Z</time>
      </trkpt>
      <trkpt lat="43.71626" lon="1.49877">
        <ele>149.63</ele>
        <time>2023-08-24T08:04:44.078Z</time>
      </trkpt>
      <trkpt lat="43.71626" lon="1.49869">
        <ele>149.76999</ele>
        <time>2023-08-24T08:04:45.066Z</time>
      </trkpt>
      <trkpt lat="43.71624" lon="1.49862">
        <ele>149.86</ele>
        <time>2023-08-24T08:04:46.078Z</time>
      </trkpt>
      <trkpt lat="43.71623" lon="1.49855">
        <ele>150.03</ele>
        <time>2023-08-24T08:04:47.079Z</time>
      </trkpt>
      <trkpt lat="43.71622" lon="1.49847">
        <ele>150.2</ele>
        <time>2023-08-24T08:04:48.061Z</time>
      </trkpt>
      <trkpt lat="43.71621" lon="1.4984">
        <ele>150.26999</ele>
        <time>2023-08-24T08:04:49.078Z</time>
      </trkpt>
      <trkpt lat="43.7162" lon="1.49833">
        <ele>150.4</ele>
        <time>2023-08-24T08:04:50.084Z</time>
      </trkpt>
      <trkpt lat="43.71619" lon="1.49826">
        <ele>150.48001</ele>
        <time>2023-08-24T08:04:50.672Z</time>
      </trkpt>
      <trkpt lat="43.71618" lon="1.4982">
        <ele>150.59</ele>
        <time>2023-08-24T08:04:51.654Z</time>
      </trkpt>
      <trkpt lat="43.71617" lon="1.49813">
        <ele>150.75</ele>
        <time>2023-08-24T08:04:52.671Z</time>
      </trkpt>
      <trkpt lat="43.71616" lon="1.49806">
        <ele>150.93</ele>
        <time>2023-08-24T08:04:53.673Z</time>
      </trkpt>
      <trkpt lat="43.71615" lon="1.498">
        <ele>151.11</ele>
        <time>2023-08-24T08:04:54.634Z</time>
      </trkpt>
      <trkpt lat="43.71614" lon="1.49794">
        <ele>151.26001</ele>
        <time>2023-08-24T08:04:55.673Z</time>
      </trkpt>
      <trkpt lat="43.71613" lon="1.49788">
        <ele>151.51001</ele>
        <time>2023-08-24T08:04:56.635Z</time>
      </trkpt>
      <trkpt lat="43.71613" lon="1.49784">
        <ele>151.73999</ele>
        <time>2023-08-24T08:04:58.102Z</time>
      </trkpt>
      <trkpt lat="43.71613" lon="1.49779">
        <ele>151.97</ele>
        <time>2023-08-24T08:04:58.676Z</time>
      </trkpt>
      <trkpt lat="43.71613" lon="1.49774">
        <ele>152.07</ele>
        <time>2023-08-24T08:04:59.632Z</time>
      </trkpt>
      <trkpt lat="43.71613" lon="1.49769">
        <ele>152.28</ele>
        <time>2023-08-24T08:05:00.699Z</time>
      </trkpt>
      <trkpt lat="43.71611" lon="1.49763">
        <ele>152.38</ele>
        <time>2023-08-24T08:05:01.882Z</time>
      </trkpt>
      <trkpt lat="43.7161" lon="1.49759">
        <ele>152.55</ele>
        <time>2023-08-24T08:05:03.082Z</time>
      </trkpt>
      <trkpt lat="43.71608" lon="1.49754">
        <ele>152.76999</ele>
        <time>2023-08-24T08:05:03.711Z</time>
      </trkpt>
      <trkpt lat="43.71607" lon="1.49749">
        <ele>153.03</ele>
        <time>2023-08-24T08:05:04.852Z</time>
      </trkpt>
      <trkpt lat="43.71606" lon="1.49743">
        <ele>153.19</ele>
        <time>2023-08-24T08:05:06.168Z</time>
      </trkpt>
      <trkpt lat="43.71604" lon="1.49736">
        <ele>153.42</ele>
        <time>2023-08-24T08:05:08.088Z</time>
      </trkpt>
      <trkpt lat="43.71603" lon="1.49732">
        <ele>153.75</ele>
        <time>2023-08-24T08:05:08.893Z</time>
      </trkpt>
      <trkpt lat="43.71601" lon="1.49725">
        <ele>154.05</ele>
        <time>2023-08-24T08:05:10.084Z</time>
      </trkpt>
      <trkpt lat="43.716" lon="1.4972">
        <ele>154.31</ele>
        <time>2023-08-24T08:05:11.084Z</time>
      </trkpt>
      <trkpt lat="43.71598" lon="1.49715">
        <ele>154.53</ele>
        <time>2023-08-24T08:05:12.083Z</time>
      </trkpt>
      <trkpt lat="43.71597" lon="1.49709">
        <ele>154.76001</ele>
        <time>2023-08-24T08:05:13.130Z</time>
      </trkpt>
      <trkpt lat="43.71596" lon="1.49702">
        <ele>155.01001</ele>
        <time>2023-08-24T08:05:15.084Z</time>
      </trkpt>
      <trkpt lat="43.71595" lon="1.49698">
        <ele>155.28</ele>
        <time>2023-08-24T08:05:16.084Z</time>
      </trkpt>
      <trkpt lat="43.71594" lon="1.49691">
        <ele>155.5</ele>
        <time>2023-08-24T08:05:16.125Z</time>
      </trkpt>
      <trkpt lat="43.71593" lon="1.49685">
        <ele>155.78</ele>
        <time>2023-08-24T08:05:17.696Z</time>
      </trkpt>
      <trkpt lat="43.71593" lon="1.49679">
        <ele>156.04001</ele>
        <time>2023-08-24T08:05:18.152Z</time>
      </trkpt>
      <trkpt lat="43.71593" lon="1.49673">
        <ele>156.20999</ele>
        <time>2023-08-24T08:05:20.085Z</time>
      </trkpt>
      <trkpt lat="43.71593" lon="1.49667">
        <ele>156.45999</ele>
        <time>2023-08-24T08:05:20.158Z</time>
      </trkpt>
      <trkpt lat="43.71593" lon="1.49662">
        <ele>156.75</ele>
        <time>2023-08-24T08:05:22.085Z</time>
      </trkpt>
      <trkpt lat="43.71593" lon="1.49657">
        <ele>157</ele>
        <time>2023-08-24T08:05:23.146Z</time>
      </trkpt>
      <trkpt lat="43.71594" lon="1.49654">
        <ele>157.26001</ele>
        <time>2023-08-24T08:05:25.085Z</time>
      </trkpt>
      <trkpt lat="43.71594" lon="1.49649">
        <ele>157.48999</ele>
        <time>2023-08-24T08:05:26.085Z</time>
      </trkpt>
      <trkpt lat="43.71595" lon="1.49643">
        <ele>157.75</ele>
        <time>2023-08-24T08:05:26.724Z</time>
      </trkpt>
      <trkpt lat="43.71595" lon="1.49639">
        <ele>158.06</ele>
        <time>2023-08-24T08:05:27.758Z</time>
      </trkpt>
      <trkpt lat="43.71595" lon="1.49633">
        <ele>158.42</ele>
        <time>2023-08-24T08:05:29.088Z</time>
      </trkpt>
      <trkpt lat="43.71594" lon="1.49628">
        <ele>158.65</ele>
        <time>2023-08-24T08:05:30.752Z</time>
      </trkpt>
      <trkpt lat="43.71594" lon="1.49623">
        <ele>158.91</ele>
        <time>2023-08-24T08:05:32.087Z</time>
      </trkpt>
      <trkpt lat="43.71593" lon="1.49617">
        <ele>159.26999</ele>
        <time>2023-08-24T08:05:33.089Z</time>
      </trkpt>
      <trkpt lat="43.71593" lon="1.49612">
        <ele>159.57</ele>
        <time>2023-08-24T08:05:34.087Z</time>
      </trkpt>
      <trkpt lat="43.71593" lon="1.49607">
        <ele>159.88</ele>
        <time>2023-08-24T08:05:35.086Z</time>
      </trkpt>
      <trkpt lat="43.71593" lon="1.49601">
        <ele>160.2</ele>
        <time>2023-08-24T08:05:35.793Z</time>
      </trkpt>
      <trkpt lat="43.71593" lon="1.49595">
        <ele>160.64</ele>
        <time>2023-08-24T08:05:37.087Z</time>
      </trkpt>
      <trkpt lat="43.71594" lon="1.49586">
        <ele>160.98999</ele>
        <time>2023-08-24T08:05:39.086Z</time>
      </trkpt>
      <trkpt lat="43.71594" lon="1.49582">
        <ele>161.58</ele>
        <time>2023-08-24T08:05:40.084Z</time>
      </trkpt>
      <trkpt lat="43.71594" lon="1.49577">
        <ele>162.01999</ele>
        <time>2023-08-24T08:05:41.148Z</time>
      </trkpt>
      <trkpt lat="43.71595" lon="1.49572">
        <ele>162.44</ele>
        <time>2023-08-24T08:05:43.086Z</time>
      </trkpt>
      <trkpt lat="43.71595" lon="1.49567">
        <ele>162.91</ele>
        <time>2023-08-24T08:05:44.087Z</time>
      </trkpt>
      <trkpt lat="43.71595" lon="1.49562">
        <ele>163.45999</ele>
        <time>2023-08-24T08:05:45.086Z</time>
      </trkpt>
      <trkpt lat="43.71595" lon="1.49557">
        <ele>163.95999</ele>
        <time>2023-08-24T08:05:46.086Z</time>
      </trkpt>
      <trkpt lat="43.71596" lon="1.49553">
        <ele>164.48001</ele>
        <time>2023-08-24T08:05:46.743Z</time>
      </trkpt>
      <trkpt lat="43.71596" lon="1.49547">
        <ele>164.93</ele>
        <time>2023-08-24T08:05:48.088Z</time>
      </trkpt>
      <trkpt lat="43.71596" lon="1.49541">
        <ele>165.43</ele>
        <time>2023-08-24T08:05:50.087Z</time>
      </trkpt>
      <trkpt lat="43.71597" lon="1.49531">
        <ele>165.98999</ele>
        <time>2023-08-24T08:05:51.090Z</time>
      </trkpt>
      <trkpt lat="43.71597" lon="1.49526">
        <ele>166.72</ele>
        <time>2023-08-24T08:05:52.713Z</time>
      </trkpt>
      <trkpt lat="43.71596" lon="1.49518">
        <ele>167.16</ele>
        <time>2023-08-24T08:05:54.088Z</time>
      </trkpt>
      <trkpt lat="43.71597" lon="1.49513">
        <ele>167.79001</ele>
        <time>2023-08-24T08:05:54.952Z</time>
      </trkpt>
      <trkpt lat="43.71597" lon="1.49509">
        <ele>168.16</ele>
        <time>2023-08-24T08:05:56.183Z</time>
      </trkpt>
      <trkpt lat="43.71597" lon="1.49503">
        <ele>168.75</ele>
        <time>2023-08-24T08:05:57.174Z</time>
      </trkpt>
      <trkpt lat="43.71597" lon="1.49497">
        <ele>169.31</ele>
        <time>2023-08-24T08:05:59.092Z</time>
      </trkpt>
      <trkpt lat="43.71597" lon="1.49491">
        <ele>169.84</ele>
        <time>2023-08-24T08:06:00.087Z</time>
      </trkpt>
      <trkpt lat="43.71597" lon="1.49486">
        <ele>170.28</ele>
        <time>2023-08-24T08:06:01.096Z</time>
      </trkpt>
      <trkpt lat="43.71597" lon="1.49479">
        <ele>170.76999</ele>
        <time>2023-08-24T08:06:02.086Z</time>
      </trkpt>
      <trkpt lat="43.71596" lon="1.49472">
        <ele>171.18</ele>
        <time>2023-08-24T08:06:03.173Z</time>
      </trkpt>
      <trkpt lat="43.71596" lon="1.49466">
        <ele>171.61</ele>
        <time>2023-08-24T08:06:05.088Z</time>
      </trkpt>
      <trkpt lat="43.71596" lon="1.4946">
        <ele>172.04001</ele>
        <time>2023-08-24T08:06:06.088Z</time>
      </trkpt>
      <trkpt lat="43.71595" lon="1.49453">
        <ele>172.48999</ele>
        <time>2023-08-24T08:06:07.089Z</time>
      </trkpt>
      <trkpt lat="43.71595" lon="1.49446">
        <ele>172.95</ele>
        <time>2023-08-24T08:06:09.089Z</time>
      </trkpt>
      <trkpt lat="43.71595" lon="1.49434">
        <ele>173.31</ele>
        <time>2023-08-24T08:06:10.090Z</time>
      </trkpt>
      <trkpt lat="43.71595" lon="1.49427">
        <ele>173.89</ele>
        <time>2023-08-24T08:06:12.090Z</time>
      </trkpt>
      <trkpt lat="43.71595" lon="1.49423">
        <ele>174.23999</ele>
        <time>2023-08-24T08:06:13.090Z</time>
      </trkpt>
      <trkpt lat="43.71593" lon="1.49417">
        <ele>174.63</ele>
        <time>2023-08-24T08:06:14.086Z</time>
      </trkpt>
      <trkpt lat="43.71592" lon="1.4941">
        <ele>174.91</ele>
        <time>2023-08-24T08:06:15.086Z</time>
      </trkpt>
      <trkpt lat="43.71591" lon="1.49404">
        <ele>175.15</ele>
        <time>2023-08-24T08:06:16.086Z</time>
      </trkpt>
      <trkpt lat="43.71589" lon="1.49397">
        <ele>175.4</ele>
        <time>2023-08-24T08:06:18.087Z</time>
      </trkpt>
      <trkpt lat="43.71587" lon="1.49391">
        <ele>175.56</ele>
        <time>2023-08-24T08:06:18.861Z</time>
      </trkpt>
      <trkpt lat="43.71582" lon="1.49381">
        <ele>175.70999</ele>
        <time>2023-08-24T08:06:20.087Z</time>
      </trkpt>
      <trkpt lat="43.71581" lon="1.49376">
        <ele>175.85</ele>
        <time>2023-08-24T08:06:21.087Z</time>
      </trkpt>
      <trkpt lat="43.71578" lon="1.49371">
        <ele>175.91</ele>
        <time>2023-08-24T08:06:22.087Z</time>
      </trkpt>
      <trkpt lat="43.71575" lon="1.49365">
        <ele>176.03</ele>
        <time>2023-08-24T08:06:23.102Z</time>
      </trkpt>
      <trkpt lat="43.71571" lon="1.49358">
        <ele>176.05</ele>
        <time>2023-08-24T08:06:24.087Z</time>
      </trkpt>
      <trkpt lat="43.71568" lon="1.49352">
        <ele>176.06</ele>
        <time>2023-08-24T08:06:25.089Z</time>
      </trkpt>
      <trkpt lat="43.71566" lon="1.49347">
        <ele>176.13</ele>
        <time>2023-08-24T08:06:26.088Z</time>
      </trkpt>
      <trkpt lat="43.71563" lon="1.4934">
        <ele>176.12</ele>
        <time>2023-08-24T08:06:26.729Z</time>
      </trkpt>
      <trkpt lat="43.71561" lon="1.49335">
        <ele>176.14</ele>
        <time>2023-08-24T08:06:28.087Z</time>
      </trkpt>
      <trkpt lat="43.71558" lon="1.49329">
        <ele>176.2</ele>
        <time>2023-08-24T08:06:29.087Z</time>
      </trkpt>
      <trkpt lat="43.71556" lon="1.49323">
        <ele>176.23999</ele>
        <time>2023-08-24T08:06:30.086Z</time>
      </trkpt>
      <trkpt lat="43.71553" lon="1.49318">
        <ele>176.29001</ele>
        <time>2023-08-24T08:06:31.088Z</time>
      </trkpt>
      <trkpt lat="43.7155" lon="1.49312">
        <ele>176.42</ele>
        <time>2023-08-24T08:06:32.086Z</time>
      </trkpt>
      <trkpt lat="43.71548" lon="1.49306">
        <ele>176.53</ele>
        <time>2023-08-24T08:06:33.086Z</time>
      </trkpt>
      <trkpt lat="43.71545" lon="1.49301">
        <ele>176.57</ele>
        <time>2023-08-24T08:06:34.085Z</time>
      </trkpt>
      <trkpt lat="43.71542" lon="1.49294">
        <ele>176.65</ele>
        <time>2023-08-24T08:06:35.085Z</time>
      </trkpt>
      <trkpt lat="43.7154" lon="1.49289">
        <ele>176.76001</ele>
        <time>2023-08-24T08:06:36.087Z</time>
      </trkpt>
      <trkpt lat="43.71537" lon="1.49283">
        <ele>176.84</ele>
        <time>2023-08-24T08:06:37.086Z</time>
      </trkpt>
      <trkpt lat="43.71535" lon="1.49277">
        <ele>176.94</ele>
        <time>2023-08-24T08:06:38.086Z</time>
      </trkpt>
      <trkpt lat="43.71532" lon="1.49272">
        <ele>176.98001</ele>
        <time>2023-08-24T08:06:39.086Z</time>
      </trkpt>
      <trkpt lat="43.7153" lon="1.49266">
        <ele>177.05</ele>
        <time>2023-08-24T08:06:40.088Z</time>
      </trkpt>
      <trkpt lat="43.71528" lon="1.4926">
        <ele>177.12</ele>
        <time>2023-08-24T08:06:41.088Z</time>
      </trkpt>
      <trkpt lat="43.71526" lon="1.49254">
        <ele>177.23001</ele>
        <time>2023-08-24T08:06:42.086Z</time>
      </trkpt>
      <trkpt lat="43.71524" lon="1.49248">
        <ele>177.26999</ele>
        <time>2023-08-24T08:06:42.893Z</time>
      </trkpt>
      <trkpt lat="43.71521" lon="1.49243">
        <ele>177.43</ele>
        <time>2023-08-24T08:06:44.089Z</time>
      </trkpt>
      <trkpt lat="43.71519" lon="1.49238">
        <ele>177.48999</ele>
        <time>2023-08-24T08:06:45.089Z</time>
      </trkpt>
      <trkpt lat="43.71516" lon="1.49232">
        <ele>177.64</ele>
        <time>2023-08-24T08:06:46.089Z</time>
      </trkpt>
      <trkpt lat="43.71514" lon="1.49226">
        <ele>177.79001</ele>
        <time>2023-08-24T08:06:47.188Z</time>
      </trkpt>
      <trkpt lat="43.71511" lon="1.49221">
        <ele>177.93</ele>
        <time>2023-08-24T08:06:48.150Z</time>
      </trkpt>
      <trkpt lat="43.71509" lon="1.49216">
        <ele>178.07</ele>
        <time>2023-08-24T08:06:49.188Z</time>
      </trkpt>
      <trkpt lat="43.71507" lon="1.49211">
        <ele>178.19</ele>
        <time>2023-08-24T08:06:50.159Z</time>
      </trkpt>
      <trkpt lat="43.71504" lon="1.49205">
        <ele>178.33</ele>
        <time>2023-08-24T08:06:50.982Z</time>
      </trkpt>
      <trkpt lat="43.71502" lon="1.49201">
        <ele>178.56</ele>
        <time>2023-08-24T08:06:52.189Z</time>
      </trkpt>
      <trkpt lat="43.71499" lon="1.49196">
        <ele>178.76999</ele>
        <time>2023-08-24T08:06:53.189Z</time>
      </trkpt>
      <trkpt lat="43.71496" lon="1.4919">
        <ele>178.98001</ele>
        <time>2023-08-24T08:06:54.189Z</time>
      </trkpt>
      <trkpt lat="43.71493" lon="1.49185">
        <ele>179.19</ele>
        <time>2023-08-24T08:06:55.188Z</time>
      </trkpt>
      <trkpt lat="43.7149" lon="1.4918">
        <ele>179.38</ele>
        <time>2023-08-24T08:06:56.188Z</time>
      </trkpt>
      <trkpt lat="43.71487" lon="1.49175">
        <ele>179.47</ele>
        <time>2023-08-24T08:06:57.188Z</time>
      </trkpt>
      <trkpt lat="43.71485" lon="1.49171">
        <ele>179.54001</ele>
        <time>2023-08-24T08:06:57.571Z</time>
      </trkpt>
      <trkpt lat="43.71483" lon="1.49168">
        <ele>179.66</ele>
        <time>2023-08-24T08:06:59.187Z</time>
      </trkpt>
      <trkpt lat="43.7148" lon="1.49163">
        <ele>179.8</ele>
        <time>2023-08-24T08:07:00.188Z</time>
      </trkpt>
      <trkpt lat="43.71478" lon="1.49159">
        <ele>180.09</ele>
        <time>2023-08-24T08:07:01.189Z</time>
      </trkpt>
      <trkpt lat="43.71474" lon="1.49153">
        <ele>180.34</ele>
        <time>2023-08-24T08:07:01.208Z</time>
      </trkpt>
      <trkpt lat="43.7147" lon="1.49148">
        <ele>180.6</ele>
        <time>2023-08-24T08:07:03.188Z</time>
      </trkpt>
      <trkpt lat="43.71467" lon="1.49143">
        <ele>180.88</ele>
        <time>2023-08-24T08:07:04.201Z</time>
      </trkpt>
      <trkpt lat="43.71464" lon="1.49139">
        <ele>181.15</ele>
        <time>2023-08-24T08:07:04.978Z</time>
      </trkpt>
      <trkpt lat="43.71461" lon="1.49134">
        <ele>181.41</ele>
        <time>2023-08-24T08:07:05.226Z</time>
      </trkpt>
      <trkpt lat="43.71458" lon="1.49129">
        <ele>181.67</ele>
        <time>2023-08-24T08:07:07.190Z</time>
      </trkpt>
      <trkpt lat="43.71455" lon="1.49124">
        <ele>182</ele>
        <time>2023-08-24T08:07:07.921Z</time>
      </trkpt>
      <trkpt lat="43.71452" lon="1.4912">
        <ele>182.22</ele>
        <time>2023-08-24T08:07:09.190Z</time>
      </trkpt>
      <trkpt lat="43.71449" lon="1.49115">
        <ele>182.48999</ele>
        <time>2023-08-24T08:07:09.686Z</time>
      </trkpt>
      <trkpt lat="43.71448" lon="1.49114">
        <ele>182.73001</ele>
        <time>2023-08-24T08:07:11.161Z</time>
      </trkpt>
      <trkpt lat="43.71444" lon="1.4911">
        <ele>182.98001</ele>
        <time>2023-08-24T08:07:12.190Z</time>
      </trkpt>
      <trkpt lat="43.7144" lon="1.49105">
        <ele>183.18</ele>
        <time>2023-08-24T08:07:13.946Z</time>
      </trkpt>
      <trkpt lat="43.71437" lon="1.49101">
        <ele>183.41</ele>
        <time>2023-08-24T08:07:15.185Z</time>
      </trkpt>
      <trkpt lat="43.71433" lon="1.49095">
        <ele>183.61</ele>
        <time>2023-08-24T08:07:16.190Z</time>
      </trkpt>
      <trkpt lat="43.71429" lon="1.49089">
        <ele>183.8</ele>
        <time>2023-08-24T08:07:17.016Z</time>
      </trkpt>
      <trkpt lat="43.71426" lon="1.49085">
        <ele>184.14</ele>
        <time>2023-08-24T08:07:18.189Z</time>
      </trkpt>
      <trkpt lat="43.7142" lon="1.49074">
        <ele>184.34</ele>
        <time>2023-08-24T08:07:20.004Z</time>
      </trkpt>
      <trkpt lat="43.71417" lon="1.49071">
        <ele>184.89</ele>
        <time>2023-08-24T08:07:21.191Z</time>
      </trkpt>
      <trkpt lat="43.71413" lon="1.49066">
        <ele>185.05</ele>
        <time>2023-08-24T08:07:22.194Z</time>
      </trkpt>
      <trkpt lat="43.7141" lon="1.49063">
        <ele>185.29001</ele>
        <time>2023-08-24T08:07:22.959Z</time>
      </trkpt>
      <trkpt lat="43.71407" lon="1.49059">
        <ele>185.47</ele>
        <time>2023-08-24T08:07:24.192Z</time>
      </trkpt>
      <trkpt lat="43.71404" lon="1.49055">
        <ele>185.66</ele>
        <time>2023-08-24T08:07:25.194Z</time>
      </trkpt>
      <trkpt lat="43.714" lon="1.49049">
        <ele>185.98999</ele>
        <time>2023-08-24T08:07:26.189Z</time>
      </trkpt>
      <trkpt lat="43.71397" lon="1.49044">
        <ele>186.29001</ele>
        <time>2023-08-24T08:07:27.191Z</time>
      </trkpt>
      <trkpt lat="43.71393" lon="1.49038">
        <ele>186.5</ele>
        <time>2023-08-24T08:07:29.193Z</time>
      </trkpt>
      <trkpt lat="43.7139" lon="1.49033">
        <ele>186.81</ele>
        <time>2023-08-24T08:07:30.211Z</time>
      </trkpt>
      <trkpt lat="43.71387" lon="1.49028">
        <ele>187.09</ele>
        <time>2023-08-24T08:07:31.191Z</time>
      </trkpt>
      <trkpt lat="43.71384" lon="1.49022">
        <ele>187.31</ele>
        <time>2023-08-24T08:07:31.775Z</time>
      </trkpt>
      <trkpt lat="43.71381" lon="1.49017">
        <ele>187.55</ele>
        <time>2023-08-24T08:07:33.214Z</time>
      </trkpt>
      <trkpt lat="43.71378" lon="1.4901">
        <ele>187.84</ele>
        <time>2023-08-24T08:07:34.778Z</time>
      </trkpt>
      <trkpt lat="43.71373" lon="1.48998">
        <ele>188.18</ele>
        <time>2023-08-24T08:07:35.773Z</time>
      </trkpt>
      <trkpt lat="43.71371" lon="1.48993">
        <ele>188.53</ele>
        <time>2023-08-24T08:07:36.781Z</time>
      </trkpt>
      <trkpt lat="43.7137" lon="1.48987">
        <ele>188.67</ele>
        <time>2023-08-24T08:07:38.220Z</time>
      </trkpt>
      <trkpt lat="43.71367" lon="1.48979">
        <ele>188.72</ele>
        <time>2023-08-24T08:07:38.796Z</time>
      </trkpt>
      <trkpt lat="43.71365" lon="1.4897">
        <ele>188.81</ele>
        <time>2023-08-24T08:07:39.718Z</time>
      </trkpt>
      <trkpt lat="43.71363" lon="1.48963">
        <ele>188.89</ele>
        <time>2023-08-24T08:07:40.861Z</time>
      </trkpt>
      <trkpt lat="43.71361" lon="1.48955">
        <ele>188.9</ele>
        <time>2023-08-24T08:07:42.190Z</time>
      </trkpt>
      <trkpt lat="43.71358" lon="1.48947">
        <ele>188.9</ele>
        <time>2023-08-24T08:07:43.202Z</time>
      </trkpt>
      <trkpt lat="43.71355" lon="1.4894">
        <ele>188.87</ele>
        <time>2023-08-24T08:07:43.801Z</time>
      </trkpt>
      <trkpt lat="43.71353" lon="1.48932">
        <ele>188.82</ele>
        <time>2023-08-24T08:07:45.212Z</time>
      </trkpt>
      <trkpt lat="43.7135" lon="1.48924">
        <ele>188.76999</ele>
        <time>2023-08-24T08:07:45.750Z</time>
      </trkpt>
      <trkpt lat="43.71346" lon="1.48916">
        <ele>188.72</ele>
        <time>2023-08-24T08:07:46.818Z</time>
      </trkpt>
      <trkpt lat="43.71342" lon="1.48909">
        <ele>188.70999</ele>
        <time>2023-08-24T08:07:47.755Z</time>
      </trkpt>
      <trkpt lat="43.71339" lon="1.48901">
        <ele>188.7</ele>
        <time>2023-08-24T08:07:48.749Z</time>
      </trkpt>
      <trkpt lat="43.71335" lon="1.48892">
        <ele>188.62</ele>
        <time>2023-08-24T08:07:49.765Z</time>
      </trkpt>
      <trkpt lat="43.71331" lon="1.48884">
        <ele>188.56</ele>
        <time>2023-08-24T08:07:51.189Z</time>
      </trkpt>
      <trkpt lat="43.71327" lon="1.48876">
        <ele>188.43</ele>
        <time>2023-08-24T08:07:52.191Z</time>
      </trkpt>
      <trkpt lat="43.71323" lon="1.48868">
        <ele>188.23001</ele>
        <time>2023-08-24T08:07:53.223Z</time>
      </trkpt>
      <trkpt lat="43.71319" lon="1.4886">
        <ele>188.07</ele>
        <time>2023-08-24T08:07:54.188Z</time>
      </trkpt>
      <trkpt lat="43.71315" lon="1.48852">
        <ele>187.95999</ele>
        <time>2023-08-24T08:07:55.191Z</time>
      </trkpt>
      <trkpt lat="43.71311" lon="1.48845">
        <ele>187.8</ele>
        <time>2023-08-24T08:07:56.190Z</time>
      </trkpt>
      <trkpt lat="43.71307" lon="1.48837">
        <ele>187.68</ele>
        <time>2023-08-24T08:07:57.190Z</time>
      </trkpt>
      <trkpt lat="43.71302" lon="1.4883">
        <ele>187.59</ele>
        <time>2023-08-24T08:07:58.242Z</time>
      </trkpt>
      <trkpt lat="43.71298" lon="1.48822">
        <ele>187.53</ele>
        <time>2023-08-24T08:07:59.197Z</time>
      </trkpt>
      <trkpt lat="43.71294" lon="1.48815">
        <ele>187.51999</ele>
        <time>2023-08-24T08:08:00.190Z</time>
      </trkpt>
      <trkpt lat="43.7129" lon="1.48807">
        <ele>187.45999</ele>
        <time>2023-08-24T08:08:01.205Z</time>
      </trkpt>
      <trkpt lat="43.71286" lon="1.488">
        <ele>187.42</ele>
        <time>2023-08-24T08:08:02.190Z</time>
      </trkpt>
      <trkpt lat="43.71283" lon="1.48793">
        <ele>187.38</ele>
        <time>2023-08-24T08:08:03.218Z</time>
      </trkpt>
      <trkpt lat="43.71279" lon="1.48785">
        <ele>187.4</ele>
        <time>2023-08-24T08:08:04.192Z</time>
      </trkpt>
      <trkpt lat="43.71275" lon="1.48779">
        <ele>187.5</ele>
        <time>2023-08-24T08:08:05.204Z</time>
      </trkpt>
      <trkpt lat="43.71272" lon="1.48772">
        <ele>187.55</ele>
        <time>2023-08-24T08:08:06.191Z</time>
      </trkpt>
      <trkpt lat="43.71268" lon="1.48765">
        <ele>187.62</ele>
        <time>2023-08-24T08:08:07.189Z</time>
      </trkpt>
      <trkpt lat="43.71264" lon="1.48758">
        <ele>187.69</ele>
        <time>2023-08-24T08:08:08.189Z</time>
      </trkpt>
      <trkpt lat="43.7126" lon="1.48752">
        <ele>187.76999</ele>
        <time>2023-08-24T08:08:09.189Z</time>
      </trkpt>
      <trkpt lat="43.71256" lon="1.48745">
        <ele>187.89</ele>
        <time>2023-08-24T08:08:10.192Z</time>
      </trkpt>
      <trkpt lat="43.71253" lon="1.48739">
        <ele>188.05</ele>
        <time>2023-08-24T08:08:11.189Z</time>
      </trkpt>
      <trkpt lat="43.71249" lon="1.48732">
        <ele>188.1</ele>
        <time>2023-08-24T08:08:12.190Z</time>
      </trkpt>
      <trkpt lat="43.71245" lon="1.48725">
        <ele>188.15</ele>
        <time>2023-08-24T08:08:13.189Z</time>
      </trkpt>
      <trkpt lat="43.71241" lon="1.48719">
        <ele>188.20999</ele>
        <time>2023-08-24T08:08:14.188Z</time>
      </trkpt>
      <trkpt lat="43.71239" lon="1.48716">
        <ele>188.34</ele>
        <time>2023-08-24T08:08:15.190Z</time>
      </trkpt>
      <trkpt lat="43.71232" lon="1.48705">
        <ele>188.43</ele>
        <time>2023-08-24T08:08:16.188Z</time>
      </trkpt>
      <trkpt lat="43.71228" lon="1.48699">
        <ele>188.5</ele>
        <time>2023-08-24T08:08:17.190Z</time>
      </trkpt>
      <trkpt lat="43.71225" lon="1.48692">
        <ele>188.6</ele>
        <time>2023-08-24T08:08:18.188Z</time>
      </trkpt>
      <trkpt lat="43.7122" lon="1.48684">
        <ele>188.69</ele>
        <time>2023-08-24T08:08:19.210Z</time>
      </trkpt>
      <trkpt lat="43.71216" lon="1.48677">
        <ele>188.64</ele>
        <time>2023-08-24T08:08:19.756Z</time>
      </trkpt>
      <trkpt lat="43.71212" lon="1.4867">
        <ele>188.7</ele>
        <time>2023-08-24T08:08:21.189Z</time>
      </trkpt>
      <trkpt lat="43.71207" lon="1.48662">
        <ele>188.69</ele>
        <time>2023-08-24T08:08:22.192Z</time>
      </trkpt>
      <trkpt lat="43.71203" lon="1.48655">
        <ele>188.62</ele>
        <time>2023-08-24T08:08:23.221Z</time>
      </trkpt>
      <trkpt lat="43.71199" lon="1.48647">
        <ele>188.51001</ele>
        <time>2023-08-24T08:08:24.187Z</time>
      </trkpt>
      <trkpt lat="43.71195" lon="1.4864">
        <ele>188.48001</ele>
        <time>2023-08-24T08:08:25.188Z</time>
      </trkpt>
      <trkpt lat="43.7119" lon="1.48633">
        <ele>188.51999</ele>
        <time>2023-08-24T08:08:26.189Z</time>
      </trkpt>
      <trkpt lat="43.71186" lon="1.48626">
        <ele>188.56</ele>
        <time>2023-08-24T08:08:26.969Z</time>
      </trkpt>
      <trkpt lat="43.71181" lon="1.48619">
        <ele>188.58</ele>
        <time>2023-08-24T08:08:28.231Z</time>
      </trkpt>
      <trkpt lat="43.71178" lon="1.48613">
        <ele>188.6</ele>
        <time>2023-08-24T08:08:29.190Z</time>
      </trkpt>
      <trkpt lat="43.71173" lon="1.48606">
        <ele>188.62</ele>
        <time>2023-08-24T08:08:30.239Z</time>
      </trkpt>
      <trkpt lat="43.71169" lon="1.48599">
        <ele>188.67</ele>
        <time>2023-08-24T08:08:31.190Z</time>
      </trkpt>
      <trkpt lat="43.71165" lon="1.48592">
        <ele>188.76001</ele>
        <time>2023-08-24T08:08:32.190Z</time>
      </trkpt>
      <trkpt lat="43.71161" lon="1.48585">
        <ele>188.82</ele>
        <time>2023-08-24T08:08:33.194Z</time>
      </trkpt>
      <trkpt lat="43.71156" lon="1.48579">
        <ele>188.83</ele>
        <time>2023-08-24T08:08:34.190Z</time>
      </trkpt>
      <trkpt lat="43.71151" lon="1.48574">
        <ele>188.86</ele>
        <time>2023-08-24T08:08:35.264Z</time>
      </trkpt>
      <trkpt lat="43.71147" lon="1.48568">
        <ele>188.81</ele>
        <time>2023-08-24T08:08:36.269Z</time>
      </trkpt>
      <trkpt lat="43.71145" lon="1.48566">
        <ele>188.86</ele>
        <time>2023-08-24T08:08:37.189Z</time>
      </trkpt>
      <trkpt lat="43.71136" lon="1.48556">
        <ele>188.88</ele>
        <time>2023-08-24T08:08:38.265Z</time>
      </trkpt>
      <trkpt lat="43.71131" lon="1.4855">
        <ele>188.85</ele>
        <time>2023-08-24T08:08:39.187Z</time>
      </trkpt>
      <trkpt lat="43.71127" lon="1.48547">
        <ele>188.82</ele>
        <time>2023-08-24T08:08:40.189Z</time>
      </trkpt>
      <trkpt lat="43.7112" lon="1.48538">
        <ele>188.76001</ele>
        <time>2023-08-24T08:08:40.797Z</time>
      </trkpt>
      <trkpt lat="43.71114" lon="1.48532">
        <ele>188.68</ele>
        <time>2023-08-24T08:08:41.792Z</time>
      </trkpt>
      <trkpt lat="43.71108" lon="1.48525">
        <ele>188.56</ele>
        <time>2023-08-24T08:08:43.234Z</time>
      </trkpt>
      <trkpt lat="43.71103" lon="1.48519">
        <ele>188.42</ele>
        <time>2023-08-24T08:08:44.189Z</time>
      </trkpt>
      <trkpt lat="43.71099" lon="1.48515">
        <ele>188.26001</ele>
        <time>2023-08-24T08:08:45.189Z</time>
      </trkpt>
      <trkpt lat="43.71091" lon="1.48506">
        <ele>188.1</ele>
        <time>2023-08-24T08:08:46.188Z</time>
      </trkpt>
      <trkpt lat="43.71088" lon="1.48502">
        <ele>187.95</ele>
        <time>2023-08-24T08:08:47.189Z</time>
      </trkpt>
      <trkpt lat="43.71081" lon="1.48493">
        <ele>187.68</ele>
        <time>2023-08-24T08:08:48.190Z</time>
      </trkpt>
      <trkpt lat="43.71075" lon="1.48487">
        <ele>187.51999</ele>
        <time>2023-08-24T08:08:49.188Z</time>
      </trkpt>
      <trkpt lat="43.71071" lon="1.48481">
        <ele>187.26999</ele>
        <time>2023-08-24T08:08:50.190Z</time>
      </trkpt>
      <trkpt lat="43.71066" lon="1.48474">
        <ele>187.16</ele>
        <time>2023-08-24T08:08:51.191Z</time>
      </trkpt>
      <trkpt lat="43.71061" lon="1.48469">
        <ele>187.08</ele>
        <time>2023-08-24T08:08:52.194Z</time>
      </trkpt>
      <trkpt lat="43.71054" lon="1.48461">
        <ele>186.98001</ele>
        <time>2023-08-24T08:08:53.192Z</time>
      </trkpt>
      <trkpt lat="43.71049" lon="1.48455">
        <ele>186.81</ele>
        <time>2023-08-24T08:08:54.192Z</time>
      </trkpt>
      <trkpt lat="43.71044" lon="1.4845">
        <ele>186.61</ele>
        <time>2023-08-24T08:08:55.189Z</time>
      </trkpt>
      <trkpt lat="43.71038" lon="1.48445">
        <ele>186.45999</ele>
        <time>2023-08-24T08:08:56.191Z</time>
      </trkpt>
      <trkpt lat="43.71033" lon="1.4844">
        <ele>186.28</ele>
        <time>2023-08-24T08:08:57.190Z</time>
      </trkpt>
      <trkpt lat="43.71029" lon="1.48435">
        <ele>186.23999</ele>
        <time>2023-08-24T08:08:58.191Z</time>
      </trkpt>
      <trkpt lat="43.71025" lon="1.48431">
        <ele>186.2</ele>
        <time>2023-08-24T08:08:59.191Z</time>
      </trkpt>
      <trkpt lat="43.71021" lon="1.48427">
        <ele>186.19</ele>
        <time>2023-08-24T08:09:00.273Z</time>
      </trkpt>
      <trkpt lat="43.71019" lon="1.48425">
        <ele>186.23001</ele>
        <time>2023-08-24T08:09:01.193Z</time>
      </trkpt>
      <trkpt lat="43.71016" lon="1.48423">
        <ele>186.34</ele>
        <time>2023-08-24T08:09:02.191Z</time>
      </trkpt>
      <trkpt lat="43.71014" lon="1.48422">
        <ele>186.45999</ele>
        <time>2023-08-24T08:09:03.190Z</time>
      </trkpt>
      <trkpt lat="43.71013" lon="1.4842">
        <ele>186.58</ele>
        <time>2023-08-24T08:09:04.190Z</time>
      </trkpt>
      <trkpt lat="43.71011" lon="1.48417">
        <ele>186.82</ele>
        <time>2023-08-24T08:09:05.291Z</time>
      </trkpt>
      <trkpt lat="43.71009" lon="1.48414">
        <ele>186.89</ele>
        <time>2023-08-24T08:09:05.845Z</time>
      </trkpt>
      <trkpt lat="43.71008" lon="1.48412">
        <ele>187.04001</ele>
        <time>2023-08-24T08:09:06.903Z</time>
      </trkpt>
      <trkpt lat="43.71005" lon="1.48409">
        <ele>187.13</ele>
        <time>2023-08-24T08:09:07.864Z</time>
      </trkpt>
      <trkpt lat="43.71" lon="1.48403">
        <ele>187.22</ele>
        <time>2023-08-24T08:09:08.848Z</time>
      </trkpt>
      <trkpt lat="43.70996" lon="1.48398">
        <ele>187.26001</ele>
        <time>2023-08-24T08:09:09.927Z</time>
      </trkpt>
      <trkpt lat="43.70991" lon="1.48393">
        <ele>187.26999</ele>
        <time>2023-08-24T08:09:11.289Z</time>
      </trkpt>
      <trkpt lat="43.70985" lon="1.48387">
        <ele>187.23999</ele>
        <time>2023-08-24T08:09:11.880Z</time>
      </trkpt>
      <trkpt lat="43.70979" lon="1.48381">
        <ele>187.22</ele>
        <time>2023-08-24T08:09:13.292Z</time>
      </trkpt>
      <trkpt lat="43.70974" lon="1.48376">
        <ele>187.2</ele>
        <time>2023-08-24T08:09:13.861Z</time>
      </trkpt>
      <trkpt lat="43.70969" lon="1.48371">
        <ele>187.25</ele>
        <time>2023-08-24T08:09:15.290Z</time>
      </trkpt>
      <trkpt lat="43.70964" lon="1.48366">
        <ele>187.19</ele>
        <time>2023-08-24T08:09:16.292Z</time>
      </trkpt>
      <trkpt lat="43.70959" lon="1.48361">
        <ele>187.16</ele>
        <time>2023-08-24T08:09:16.894Z</time>
      </trkpt>
      <trkpt lat="43.70955" lon="1.48356">
        <ele>187.17</ele>
        <time>2023-08-24T08:09:18.291Z</time>
      </trkpt>
      <trkpt lat="43.7095" lon="1.4835">
        <ele>187.19</ele>
        <time>2023-08-24T08:09:18.870Z</time>
      </trkpt>
      <trkpt lat="43.70945" lon="1.48346">
        <ele>187.23001</ele>
        <time>2023-08-24T08:09:20.290Z</time>
      </trkpt>
      <trkpt lat="43.70939" lon="1.48341">
        <ele>187.29001</ele>
        <time>2023-08-24T08:09:20.882Z</time>
      </trkpt>
      <trkpt lat="43.70934" lon="1.48336">
        <ele>187.29001</ele>
        <time>2023-08-24T08:09:21.897Z</time>
      </trkpt>
      <trkpt lat="43.70929" lon="1.48332">
        <ele>187.28</ele>
        <time>2023-08-24T08:09:22.316Z</time>
      </trkpt>
      <trkpt lat="43.70923" lon="1.48328">
        <ele>187.28</ele>
        <time>2023-08-24T08:09:23.823Z</time>
      </trkpt>
      <trkpt lat="43.70918" lon="1.48324">
        <ele>187.20999</ele>
        <time>2023-08-24T08:09:24.840Z</time>
      </trkpt>
      <trkpt lat="43.70912" lon="1.4832">
        <ele>187.16</ele>
        <time>2023-08-24T08:09:25.838Z</time>
      </trkpt>
      <trkpt lat="43.70906" lon="1.48316">
        <ele>187.15</ele>
        <time>2023-08-24T08:09:26.855Z</time>
      </trkpt>
      <trkpt lat="43.70901" lon="1.48312">
        <ele>187.07</ele>
        <time>2023-08-24T08:09:27.845Z</time>
      </trkpt>
      <trkpt lat="43.70894" lon="1.48308">
        <ele>187</ele>
        <time>2023-08-24T08:09:28.835Z</time>
      </trkpt>
      <trkpt lat="43.70888" lon="1.48304">
        <ele>186.95</ele>
        <time>2023-08-24T08:09:29.816Z</time>
      </trkpt>
      <trkpt lat="43.70882" lon="1.483">
        <ele>186.91</ele>
        <time>2023-08-24T08:09:31.002Z</time>
      </trkpt>
      <trkpt lat="43.70876" lon="1.48296">
        <ele>186.84</ele>
        <time>2023-08-24T08:09:31.856Z</time>
      </trkpt>
      <trkpt lat="43.70871" lon="1.48292">
        <ele>186.76001</ele>
        <time>2023-08-24T08:09:33.291Z</time>
      </trkpt>
      <trkpt lat="43.70865" lon="1.48288">
        <ele>186.72</ele>
        <time>2023-08-24T08:09:33.326Z</time>
      </trkpt>
      <trkpt lat="43.7086" lon="1.48284">
        <ele>186.68</ele>
        <time>2023-08-24T08:09:34.856Z</time>
      </trkpt>
      <trkpt lat="43.70854" lon="1.4828">
        <ele>186.73999</ele>
        <time>2023-08-24T08:09:35.310Z</time>
      </trkpt>
      <trkpt lat="43.70848" lon="1.48276">
        <ele>186.68</ele>
        <time>2023-08-24T08:09:36.871Z</time>
      </trkpt>
      <trkpt lat="43.70843" lon="1.48272">
        <ele>186.7</ele>
        <time>2023-08-24T08:09:37.356Z</time>
      </trkpt>
      <trkpt lat="43.70837" lon="1.48268">
        <ele>186.59</ele>
        <time>2023-08-24T08:09:39.290Z</time>
      </trkpt>
      <trkpt lat="43.70831" lon="1.48265">
        <ele>186.58</ele>
        <time>2023-08-24T08:09:39.365Z</time>
      </trkpt>
      <trkpt lat="43.70826" lon="1.48262">
        <ele>186.51999</ele>
        <time>2023-08-24T08:09:41.292Z</time>
      </trkpt>
      <trkpt lat="43.7082" lon="1.48258">
        <ele>186.54001</ele>
        <time>2023-08-24T08:09:41.366Z</time>
      </trkpt>
      <trkpt lat="43.70815" lon="1.48254">
        <ele>186.56</ele>
        <time>2023-08-24T08:09:43.046Z</time>
      </trkpt>
      <trkpt lat="43.70809" lon="1.4825">
        <ele>186.6</ele>
        <time>2023-08-24T08:09:43.888Z</time>
      </trkpt>
      <trkpt lat="43.70803" lon="1.48246">
        <ele>186.57</ele>
        <time>2023-08-24T08:09:44.911Z</time>
      </trkpt>
      <trkpt lat="43.70797" lon="1.48242">
        <ele>186.55</ele>
        <time>2023-08-24T08:09:45.896Z</time>
      </trkpt>
      <trkpt lat="43.70792" lon="1.48238">
        <ele>186.51001</ele>
        <time>2023-08-24T08:09:46.864Z</time>
      </trkpt>
      <trkpt lat="43.70786" lon="1.48234">
        <ele>186.54001</ele>
        <time>2023-08-24T08:09:48.295Z</time>
      </trkpt>
      <trkpt lat="43.7078" lon="1.4823">
        <ele>186.51999</ele>
        <time>2023-08-24T08:09:49.294Z</time>
      </trkpt>
      <trkpt lat="43.70775" lon="1.48227">
        <ele>186.56</ele>
        <time>2023-08-24T08:09:49.920Z</time>
      </trkpt>
      <trkpt lat="43.70769" lon="1.48223">
        <ele>186.61</ele>
        <time>2023-08-24T08:09:51.295Z</time>
      </trkpt>
      <trkpt lat="43.70763" lon="1.4822">
        <ele>186.69</ele>
        <time>2023-08-24T08:09:51.866Z</time>
      </trkpt>
      <trkpt lat="43.70758" lon="1.48216">
        <ele>186.78</ele>
        <time>2023-08-24T08:09:53.296Z</time>
      </trkpt>
      <trkpt lat="43.70752" lon="1.48212">
        <ele>186.83</ele>
        <time>2023-08-24T08:09:54.294Z</time>
      </trkpt>
      <trkpt lat="43.70747" lon="1.48209">
        <ele>186.85</ele>
        <time>2023-08-24T08:09:55.019Z</time>
      </trkpt>
      <trkpt lat="43.70741" lon="1.48205">
        <ele>186.86</ele>
        <time>2023-08-24T08:09:56.295Z</time>
      </trkpt>
      <trkpt lat="43.70736" lon="1.48202">
        <ele>186.85</ele>
        <time>2023-08-24T08:09:56.883Z</time>
      </trkpt>
      <trkpt lat="43.70729" lon="1.48199">
        <ele>186.85</ele>
        <time>2023-08-24T08:09:57.901Z</time>
      </trkpt>
      <trkpt lat="43.70724" lon="1.48196">
        <ele>186.8</ele>
        <time>2023-08-24T08:09:59.295Z</time>
      </trkpt>
      <trkpt lat="43.70718" lon="1.48192">
        <ele>186.8</ele>
        <time>2023-08-24T08:09:59.882Z</time>
      </trkpt>
      <trkpt lat="43.70713" lon="1.48189">
        <ele>186.83</ele>
        <time>2023-08-24T08:10:01.295Z</time>
      </trkpt>
      <trkpt lat="43.70707" lon="1.48185">
        <ele>186.88</ele>
        <time>2023-08-24T08:10:01.890Z</time>
      </trkpt>
      <trkpt lat="43.70702" lon="1.48181">
        <ele>187</ele>
        <time>2023-08-24T08:10:02.916Z</time>
      </trkpt>
      <trkpt lat="43.70697" lon="1.48177">
        <ele>187.1</ele>
        <time>2023-08-24T08:10:03.904Z</time>
      </trkpt>
      <trkpt lat="43.70691" lon="1.48173">
        <ele>187.17</ele>
        <time>2023-08-24T08:10:04.900Z</time>
      </trkpt>
      <trkpt lat="43.70686" lon="1.48168">
        <ele>187.35</ele>
        <time>2023-08-24T08:10:05.908Z</time>
      </trkpt>
      <trkpt lat="43.70681" lon="1.48163">
        <ele>187.48001</ele>
        <time>2023-08-24T08:10:06.901Z</time>
      </trkpt>
      <trkpt lat="43.70676" lon="1.48158">
        <ele>187.59</ele>
        <time>2023-08-24T08:10:07.872Z</time>
      </trkpt>
      <trkpt lat="43.70671" lon="1.48153">
        <ele>187.76999</ele>
        <time>2023-08-24T08:10:09.294Z</time>
      </trkpt>
      <trkpt lat="43.70667" lon="1.48147">
        <ele>187.97</ele>
        <time>2023-08-24T08:10:10.019Z</time>
      </trkpt>
      <trkpt lat="43.70662" lon="1.48141">
        <ele>188.06</ele>
        <time>2023-08-24T08:10:10.933Z</time>
      </trkpt>
      <trkpt lat="43.70657" lon="1.48134">
        <ele>188.1</ele>
        <time>2023-08-24T08:10:12.294Z</time>
      </trkpt>
      <trkpt lat="43.70653" lon="1.48127">
        <ele>188.13</ele>
        <time>2023-08-24T08:10:12.867Z</time>
      </trkpt>
      <trkpt lat="43.70649" lon="1.48119">
        <ele>188.11</ele>
        <time>2023-08-24T08:10:14.294Z</time>
      </trkpt>
      <trkpt lat="43.70645" lon="1.48113">
        <ele>188.06</ele>
        <time>2023-08-24T08:10:15.296Z</time>
      </trkpt>
      <trkpt lat="43.70641" lon="1.48105">
        <ele>188.05</ele>
        <time>2023-08-24T08:10:16.317Z</time>
      </trkpt>
      <trkpt lat="43.70637" lon="1.48097">
        <ele>187.98001</ele>
        <time>2023-08-24T08:10:17.293Z</time>
      </trkpt>
      <trkpt lat="43.70633" lon="1.4809">
        <ele>187.85</ele>
        <time>2023-08-24T08:10:18.293Z</time>
      </trkpt>
      <trkpt lat="43.70628" lon="1.48082">
        <ele>187.76999</ele>
        <time>2023-08-24T08:10:19.298Z</time>
      </trkpt>
      <trkpt lat="43.70624" lon="1.48074">
        <ele>187.75</ele>
        <time>2023-08-24T08:10:20.294Z</time>
      </trkpt>
      <trkpt lat="43.7062" lon="1.48067">
        <ele>187.69</ele>
        <time>2023-08-24T08:10:20.883Z</time>
      </trkpt>
      <trkpt lat="43.70616" lon="1.48059">
        <ele>187.63</ele>
        <time>2023-08-24T08:10:22.293Z</time>
      </trkpt>
      <trkpt lat="43.70612" lon="1.48053">
        <ele>187.56</ele>
        <time>2023-08-24T08:10:22.895Z</time>
      </trkpt>
      <trkpt lat="43.70608" lon="1.48045">
        <ele>187.53</ele>
        <time>2023-08-24T08:10:24.027Z</time>
      </trkpt>
      <trkpt lat="43.70604" lon="1.48038">
        <ele>187.51001</ele>
        <time>2023-08-24T08:10:25.292Z</time>
      </trkpt>
      <trkpt lat="43.706" lon="1.48031">
        <ele>187.48999</ele>
        <time>2023-08-24T08:10:25.890Z</time>
      </trkpt>
      <trkpt lat="43.70596" lon="1.48024">
        <ele>187.45</ele>
        <time>2023-08-24T08:10:26.918Z</time>
      </trkpt>
      <trkpt lat="43.70592" lon="1.48017">
        <ele>187.54001</ele>
        <time>2023-08-24T08:10:28.057Z</time>
      </trkpt>
      <trkpt lat="43.70589" lon="1.4801">
        <ele>187.56</ele>
        <time>2023-08-24T08:10:28.924Z</time>
      </trkpt>
      <trkpt lat="43.70585" lon="1.48003">
        <ele>187.56</ele>
        <time>2023-08-24T08:10:30.294Z</time>
      </trkpt>
      <trkpt lat="43.70581" lon="1.47996">
        <ele>187.58</ele>
        <time>2023-08-24T08:10:31.021Z</time>
      </trkpt>
      <trkpt lat="43.70578" lon="1.47989">
        <ele>187.61</ele>
        <time>2023-08-24T08:10:31.920Z</time>
      </trkpt>
      <trkpt lat="43.70574" lon="1.47982">
        <ele>187.6</ele>
        <time>2023-08-24T08:10:33.293Z</time>
      </trkpt>
      <trkpt lat="43.70571" lon="1.47974">
        <ele>187.61</ele>
        <time>2023-08-24T08:10:34.293Z</time>
      </trkpt>
      <trkpt lat="43.70567" lon="1.47967">
        <ele>187.57</ele>
        <time>2023-08-24T08:10:35.293Z</time>
      </trkpt>
      <trkpt lat="43.70564" lon="1.4796">
        <ele>187.57</ele>
        <time>2023-08-24T08:10:36.293Z</time>
      </trkpt>
      <trkpt lat="43.70561" lon="1.47952">
        <ele>187.56</ele>
        <time>2023-08-24T08:10:36.933Z</time>
      </trkpt>
      <trkpt lat="43.70557" lon="1.47945">
        <ele>187.63</ele>
        <time>2023-08-24T08:10:38.295Z</time>
      </trkpt>
      <trkpt lat="43.70554" lon="1.47938">
        <ele>187.64</ele>
        <time>2023-08-24T08:10:39.292Z</time>
      </trkpt>
      <trkpt lat="43.70551" lon="1.47931">
        <ele>187.65</ele>
        <time>2023-08-24T08:10:40.294Z</time>
      </trkpt>
      <trkpt lat="43.70547" lon="1.47923">
        <ele>187.64</ele>
        <time>2023-08-24T08:10:41.293Z</time>
      </trkpt>
      <trkpt lat="43.70544" lon="1.47916">
        <ele>187.68</ele>
        <time>2023-08-24T08:10:41.916Z</time>
      </trkpt>
      <trkpt lat="43.70541" lon="1.47909">
        <ele>187.72</ele>
        <time>2023-08-24T08:10:43.293Z</time>
      </trkpt>
      <trkpt lat="43.70539" lon="1.47906">
        <ele>187.8</ele>
        <time>2023-08-24T08:10:43.889Z</time>
      </trkpt>
      <trkpt lat="43.70534" lon="1.47894">
        <ele>187.76999</ele>
        <time>2023-08-24T08:10:45.292Z</time>
      </trkpt>
      <trkpt lat="43.70531" lon="1.47887">
        <ele>187.81</ele>
        <time>2023-08-24T08:10:46.293Z</time>
      </trkpt>
      <trkpt lat="43.70528" lon="1.4788">
        <ele>187.81</ele>
        <time>2023-08-24T08:10:46.894Z</time>
      </trkpt>
      <trkpt lat="43.70524" lon="1.47872">
        <ele>187.88</ele>
        <time>2023-08-24T08:10:48.294Z</time>
      </trkpt>
      <trkpt lat="43.70521" lon="1.47865">
        <ele>187.88</ele>
        <time>2023-08-24T08:10:48.905Z</time>
      </trkpt>
      <trkpt lat="43.70518" lon="1.47858">
        <ele>187.93</ele>
        <time>2023-08-24T08:10:50.127Z</time>
      </trkpt>
      <trkpt lat="43.70514" lon="1.4785">
        <ele>188</ele>
        <time>2023-08-24T08:10:51.293Z</time>
      </trkpt>
      <trkpt lat="43.70511" lon="1.47843">
        <ele>188.03</ele>
        <time>2023-08-24T08:10:51.904Z</time>
      </trkpt>
      <trkpt lat="43.70508" lon="1.47835">
        <ele>188.03</ele>
        <time>2023-08-24T08:10:53.293Z</time>
      </trkpt>
      <trkpt lat="43.70506" lon="1.47828">
        <ele>188.01999</ele>
        <time>2023-08-24T08:10:54.293Z</time>
      </trkpt>
      <trkpt lat="43.70502" lon="1.4782">
        <ele>188.07</ele>
        <time>2023-08-24T08:10:54.932Z</time>
      </trkpt>
      <trkpt lat="43.705" lon="1.47812">
        <ele>188.07</ele>
        <time>2023-08-24T08:10:56.293Z</time>
      </trkpt>
      <trkpt lat="43.70497" lon="1.47805">
        <ele>188.12</ele>
        <time>2023-08-24T08:10:57.295Z</time>
      </trkpt>
      <trkpt lat="43.70494" lon="1.47797">
        <ele>188.14</ele>
        <time>2023-08-24T08:10:58.295Z</time>
      </trkpt>
      <trkpt lat="43.70491" lon="1.4779">
        <ele>188.18</ele>
        <time>2023-08-24T08:10:59.294Z</time>
      </trkpt>
      <trkpt lat="43.70487" lon="1.47783">
        <ele>188.22</ele>
        <time>2023-08-24T08:11:00.293Z</time>
      </trkpt>
      <trkpt lat="43.70483" lon="1.47776">
        <ele>188.23001</ele>
        <time>2023-08-24T08:11:01.295Z</time>
      </trkpt>
      <trkpt lat="43.7048" lon="1.4777">
        <ele>188.18</ele>
        <time>2023-08-24T08:11:02.296Z</time>
      </trkpt>
      <trkpt lat="43.70475" lon="1.47765">
        <ele>188.19</ele>
        <time>2023-08-24T08:11:03.297Z</time>
      </trkpt>
      <trkpt lat="43.7047" lon="1.47762">
        <ele>188.11</ele>
        <time>2023-08-24T08:11:04.295Z</time>
      </trkpt>
      <trkpt lat="43.70465" lon="1.47758">
        <ele>188.04001</ele>
        <time>2023-08-24T08:11:05.295Z</time>
      </trkpt>
      <trkpt lat="43.70459" lon="1.47755">
        <ele>188.01001</ele>
        <time>2023-08-24T08:11:06.294Z</time>
      </trkpt>
      <trkpt lat="43.70455" lon="1.47753">
        <ele>187.97</ele>
        <time>2023-08-24T08:11:07.295Z</time>
      </trkpt>
      <trkpt lat="43.70447" lon="1.47749">
        <ele>187.87</ele>
        <time>2023-08-24T08:11:08.295Z</time>
      </trkpt>
      <trkpt lat="43.70442" lon="1.47747">
        <ele>187.76999</ele>
        <time>2023-08-24T08:11:09.293Z</time>
      </trkpt>
      <trkpt lat="43.70436" lon="1.47744">
        <ele>187.69</ele>
        <time>2023-08-24T08:11:09.904Z</time>
      </trkpt>
      <trkpt lat="43.7043" lon="1.47741">
        <ele>187.69</ele>
        <time>2023-08-24T08:11:11.298Z</time>
      </trkpt>
      <trkpt lat="43.70424" lon="1.47739">
        <ele>187.68</ele>
        <time>2023-08-24T08:11:12.294Z</time>
      </trkpt>
      <trkpt lat="43.70419" lon="1.47736">
        <ele>187.73999</ele>
        <time>2023-08-24T08:11:12.929Z</time>
      </trkpt>
      <trkpt lat="43.70414" lon="1.47734">
        <ele>187.92</ele>
        <time>2023-08-24T08:11:14.294Z</time>
      </trkpt>
      <trkpt lat="43.70407" lon="1.47731">
        <ele>188.06</ele>
        <time>2023-08-24T08:11:15.293Z</time>
      </trkpt>
      <trkpt lat="43.70403" lon="1.47729">
        <ele>188.18</ele>
        <time>2023-08-24T08:11:16.293Z</time>
      </trkpt>
      <trkpt lat="43.70398" lon="1.47726">
        <ele>188.29001</ele>
        <time>2023-08-24T08:11:16.384Z</time>
      </trkpt>
      <trkpt lat="43.70392" lon="1.47723">
        <ele>188.45</ele>
        <time>2023-08-24T08:11:18.293Z</time>
      </trkpt>
      <trkpt lat="43.70387" lon="1.47721">
        <ele>188.61</ele>
        <time>2023-08-24T08:11:18.406Z</time>
      </trkpt>
      <trkpt lat="43.70382" lon="1.47719">
        <ele>188.78</ele>
        <time>2023-08-24T08:11:20.292Z</time>
      </trkpt>
      <trkpt lat="43.70377" lon="1.47716">
        <ele>188.92</ele>
        <time>2023-08-24T08:11:21.292Z</time>
      </trkpt>
      <trkpt lat="43.70372" lon="1.47713">
        <ele>189.17</ele>
        <time>2023-08-24T08:11:22.294Z</time>
      </trkpt>
      <trkpt lat="43.70367" lon="1.4771">
        <ele>189.43</ele>
        <time>2023-08-24T08:11:23.292Z</time>
      </trkpt>
      <trkpt lat="43.70361" lon="1.47707">
        <ele>189.61</ele>
        <time>2023-08-24T08:11:24.293Z</time>
      </trkpt>
      <trkpt lat="43.70358" lon="1.47704">
        <ele>189.68</ele>
        <time>2023-08-24T08:11:25.293Z</time>
      </trkpt>
      <trkpt lat="43.70353" lon="1.47702">
        <ele>189.8</ele>
        <time>2023-08-24T08:11:26.394Z</time>
      </trkpt>
      <trkpt lat="43.70347" lon="1.47699">
        <ele>189.92</ele>
        <time>2023-08-24T08:11:27.396Z</time>
      </trkpt>
      <trkpt lat="43.70343" lon="1.47697">
        <ele>190.23001</ele>
        <time>2023-08-24T08:11:27.942Z</time>
      </trkpt>
      <trkpt lat="43.70339" lon="1.47695">
        <ele>190.48001</ele>
        <time>2023-08-24T08:11:28.926Z</time>
      </trkpt>
      <trkpt lat="43.70334" lon="1.47693">
        <ele>190.72</ele>
        <time>2023-08-24T08:11:29.913Z</time>
      </trkpt>
      <trkpt lat="43.7033" lon="1.47692">
        <ele>191.06</ele>
        <time>2023-08-24T08:11:30.936Z</time>
      </trkpt>
      <trkpt lat="43.70326" lon="1.47689">
        <ele>191.43</ele>
        <time>2023-08-24T08:11:31.921Z</time>
      </trkpt>
      <trkpt lat="43.70322" lon="1.47687">
        <ele>191.69</ele>
        <time>2023-08-24T08:11:32.952Z</time>
      </trkpt>
      <trkpt lat="43.70319" lon="1.47685">
        <ele>191.95</ele>
        <time>2023-08-24T08:11:33.936Z</time>
      </trkpt>
      <trkpt lat="43.70315" lon="1.47683">
        <ele>192.18</ele>
        <time>2023-08-24T08:11:34.920Z</time>
      </trkpt>
      <trkpt lat="43.70311" lon="1.47681">
        <ele>192.37</ele>
        <time>2023-08-24T08:11:35.942Z</time>
      </trkpt>
      <trkpt lat="43.70307" lon="1.47678">
        <ele>192.53</ele>
        <time>2023-08-24T08:11:36.935Z</time>
      </trkpt>
      <trkpt lat="43.70303" lon="1.47676">
        <ele>192.73999</ele>
        <time>2023-08-24T08:11:38.130Z</time>
      </trkpt>
      <trkpt lat="43.70298" lon="1.47673">
        <ele>192.95999</ele>
        <time>2023-08-24T08:11:38.945Z</time>
      </trkpt>
      <trkpt lat="43.70292" lon="1.47669">
        <ele>193.19</ele>
        <time>2023-08-24T08:11:39.908Z</time>
      </trkpt>
      <trkpt lat="43.70288" lon="1.47667">
        <ele>193.42</ele>
        <time>2023-08-24T08:11:41.102Z</time>
      </trkpt>
      <trkpt lat="43.70283" lon="1.47664">
        <ele>193.51001</ele>
        <time>2023-08-24T08:11:41.914Z</time>
      </trkpt>
      <trkpt lat="43.70278" lon="1.47661">
        <ele>193.61</ele>
        <time>2023-08-24T08:11:42.902Z</time>
      </trkpt>
      <trkpt lat="43.70274" lon="1.47658">
        <ele>193.70999</ele>
        <time>2023-08-24T08:11:43.926Z</time>
      </trkpt>
      <trkpt lat="43.70268" lon="1.47654">
        <ele>193.84</ele>
        <time>2023-08-24T08:11:44.915Z</time>
      </trkpt>
      <trkpt lat="43.70263" lon="1.47651">
        <ele>193.97</ele>
        <time>2023-08-24T08:11:46.142Z</time>
      </trkpt>
      <trkpt lat="43.70258" lon="1.47647">
        <ele>194.07</ele>
        <time>2023-08-24T08:11:46.923Z</time>
      </trkpt>
      <trkpt lat="43.70255" lon="1.47643">
        <ele>194.09</ele>
        <time>2023-08-24T08:11:47.912Z</time>
      </trkpt>
      <trkpt lat="43.70249" lon="1.47639">
        <ele>194.17</ele>
        <time>2023-08-24T08:11:48.974Z</time>
      </trkpt>
      <trkpt lat="43.70244" lon="1.47635">
        <ele>194.25</ele>
        <time>2023-08-24T08:11:49.923Z</time>
      </trkpt>
      <trkpt lat="43.70238" lon="1.47631">
        <ele>194.23999</ele>
        <time>2023-08-24T08:11:50.912Z</time>
      </trkpt>
      <trkpt lat="43.70233" lon="1.47627">
        <ele>194.20999</ele>
        <time>2023-08-24T08:11:51.933Z</time>
      </trkpt>
      <trkpt lat="43.70227" lon="1.47623">
        <ele>194.13</ele>
        <time>2023-08-24T08:11:53.406Z</time>
      </trkpt>
      <trkpt lat="43.70222" lon="1.47618">
        <ele>194.01999</ele>
        <time>2023-08-24T08:11:54.396Z</time>
      </trkpt>
      <trkpt lat="43.70215" lon="1.47613">
        <ele>193.85</ele>
        <time>2023-08-24T08:11:54.937Z</time>
      </trkpt>
      <trkpt lat="43.70211" lon="1.4761">
        <ele>193.70999</ele>
        <time>2023-08-24T08:11:56.408Z</time>
      </trkpt>
      <trkpt lat="43.70201" lon="1.47605">
        <ele>193.51001</ele>
        <time>2023-08-24T08:11:57.397Z</time>
      </trkpt>
      <trkpt lat="43.70194" lon="1.47603">
        <ele>193.23999</ele>
        <time>2023-08-24T08:11:57.933Z</time>
      </trkpt>
      <trkpt lat="43.70187" lon="1.47603">
        <ele>193</ele>
        <time>2023-08-24T08:11:58.926Z</time>
      </trkpt>
      <trkpt lat="43.70179" lon="1.47605">
        <ele>192.68</ele>
        <time>2023-08-24T08:11:59.948Z</time>
      </trkpt>
      <trkpt lat="43.70172" lon="1.47608">
        <ele>192.48999</ele>
        <time>2023-08-24T08:12:01.416Z</time>
      </trkpt>
      <trkpt lat="43.70165" lon="1.47611">
        <ele>192.29001</ele>
        <time>2023-08-24T08:12:02.044Z</time>
      </trkpt>
      <trkpt lat="43.70158" lon="1.47615">
        <ele>192.13</ele>
        <time>2023-08-24T08:12:03.422Z</time>
      </trkpt>
      <trkpt lat="43.70151" lon="1.47618">
        <ele>192.03</ele>
        <time>2023-08-24T08:12:04.401Z</time>
      </trkpt>
      <trkpt lat="43.70145" lon="1.47622">
        <ele>192.01999</ele>
        <time>2023-08-24T08:12:04.965Z</time>
      </trkpt>
      <trkpt lat="43.70138" lon="1.47625">
        <ele>192.04001</ele>
        <time>2023-08-24T08:12:05.922Z</time>
      </trkpt>
      <trkpt lat="43.70135" lon="1.47626">
        <ele>192.08</ele>
        <time>2023-08-24T08:12:07.156Z</time>
      </trkpt>
      <trkpt lat="43.70126" lon="1.47628">
        <ele>192.12</ele>
        <time>2023-08-24T08:12:07.925Z</time>
      </trkpt>
      <trkpt lat="43.70119" lon="1.47629">
        <ele>192.14</ele>
        <time>2023-08-24T08:12:08.922Z</time>
      </trkpt>
      <trkpt lat="43.70114" lon="1.47628">
        <ele>192.23999</ele>
        <time>2023-08-24T08:12:09.945Z</time>
      </trkpt>
      <trkpt lat="43.70108" lon="1.47628">
        <ele>192.35</ele>
        <time>2023-08-24T08:12:10.936Z</time>
      </trkpt>
      <trkpt lat="43.70103" lon="1.47627">
        <ele>192.51999</ele>
        <time>2023-08-24T08:12:11.944Z</time>
      </trkpt>
      <trkpt lat="43.70098" lon="1.47626">
        <ele>192.69</ele>
        <time>2023-08-24T08:12:13.412Z</time>
      </trkpt>
      <trkpt lat="43.70092" lon="1.47624">
        <ele>192.86</ele>
        <time>2023-08-24T08:12:14.396Z</time>
      </trkpt>
      <trkpt lat="43.70086" lon="1.47623">
        <ele>192.95999</ele>
        <time>2023-08-24T08:12:15.427Z</time>
      </trkpt>
      <trkpt lat="43.70081" lon="1.47622">
        <ele>193.08</ele>
        <time>2023-08-24T08:12:16.125Z</time>
      </trkpt>
      <trkpt lat="43.70075" lon="1.4762">
        <ele>193.23999</ele>
        <time>2023-08-24T08:12:16.961Z</time>
      </trkpt>
      <trkpt lat="43.7007" lon="1.47619">
        <ele>193.35</ele>
        <time>2023-08-24T08:12:18.425Z</time>
      </trkpt>
      <trkpt lat="43.70064" lon="1.47618">
        <ele>193.48999</ele>
        <time>2023-08-24T08:12:19.394Z</time>
      </trkpt>
      <trkpt lat="43.70058" lon="1.47617">
        <ele>193.65</ele>
        <time>2023-08-24T08:12:20.433Z</time>
      </trkpt>
      <trkpt lat="43.70052" lon="1.47616">
        <ele>193.73999</ele>
        <time>2023-08-24T08:12:21.394Z</time>
      </trkpt>
      <trkpt lat="43.70045" lon="1.47616">
        <ele>193.91</ele>
        <time>2023-08-24T08:12:21.961Z</time>
      </trkpt>
      <trkpt lat="43.7004" lon="1.47616">
        <ele>194.08</ele>
        <time>2023-08-24T08:12:22.923Z</time>
      </trkpt>
      <trkpt lat="43.70034" lon="1.47617">
        <ele>194.20999</ele>
        <time>2023-08-24T08:12:24.138Z</time>
      </trkpt>
      <trkpt lat="43.70028" lon="1.47618">
        <ele>194.29001</ele>
        <time>2023-08-24T08:12:24.933Z</time>
      </trkpt>
      <trkpt lat="43.70022" lon="1.4762">
        <ele>194.41</ele>
        <time>2023-08-24T08:12:25.923Z</time>
      </trkpt>
      <trkpt lat="43.70017" lon="1.47622">
        <ele>194.59</ele>
        <time>2023-08-24T08:12:26.945Z</time>
      </trkpt>
      <trkpt lat="43.70011" lon="1.47624">
        <ele>194.76001</ele>
        <time>2023-08-24T08:12:28.417Z</time>
      </trkpt>
      <trkpt lat="43.70005" lon="1.47627">
        <ele>194.95999</ele>
        <time>2023-08-24T08:12:29.395Z</time>
      </trkpt>
      <trkpt lat="43.7" lon="1.4763">
        <ele>195.18</ele>
        <time>2023-08-24T08:12:30.425Z</time>
      </trkpt>
      <trkpt lat="43.69995" lon="1.47634">
        <ele>195.37</ele>
        <time>2023-08-24T08:12:31.394Z</time>
      </trkpt>
      <trkpt lat="43.6999" lon="1.47639">
        <ele>195.51001</ele>
        <time>2023-08-24T08:12:32.394Z</time>
      </trkpt>
      <trkpt lat="43.69986" lon="1.47644">
        <ele>195.81</ele>
        <time>2023-08-24T08:12:33.426Z</time>
      </trkpt>
      <trkpt lat="43.69981" lon="1.4765">
        <ele>196.01999</ele>
        <time>2023-08-24T08:12:34.394Z</time>
      </trkpt>
      <trkpt lat="43.69977" lon="1.47655">
        <ele>196.26001</ele>
        <time>2023-08-24T08:12:35.438Z</time>
      </trkpt>
      <trkpt lat="43.69973" lon="1.4766">
        <ele>196.43</ele>
        <time>2023-08-24T08:12:36.394Z</time>
      </trkpt>
      <trkpt lat="43.69969" lon="1.47666">
        <ele>196.56</ele>
        <time>2023-08-24T08:12:37.394Z</time>
      </trkpt>
      <trkpt lat="43.69964" lon="1.47671">
        <ele>196.64</ele>
        <time>2023-08-24T08:12:38.395Z</time>
      </trkpt>
      <trkpt lat="43.6996" lon="1.47676">
        <ele>196.7</ele>
        <time>2023-08-24T08:12:38.915Z</time>
      </trkpt>
      <trkpt lat="43.69956" lon="1.47682">
        <ele>196.8</ele>
        <time>2023-08-24T08:12:40.446Z</time>
      </trkpt>
      <trkpt lat="43.69952" lon="1.47687">
        <ele>197.03</ele>
        <time>2023-08-24T08:12:41.394Z</time>
      </trkpt>
      <trkpt lat="43.69948" lon="1.47692">
        <ele>197.26001</ele>
        <time>2023-08-24T08:12:42.395Z</time>
      </trkpt>
      <trkpt lat="43.69945" lon="1.47697">
        <ele>197.5</ele>
        <time>2023-08-24T08:12:43.443Z</time>
      </trkpt>
      <trkpt lat="43.69941" lon="1.47702">
        <ele>197.78</ele>
        <time>2023-08-24T08:12:44.396Z</time>
      </trkpt>
      <trkpt lat="43.69938" lon="1.47707">
        <ele>198.19</ele>
        <time>2023-08-24T08:12:45.396Z</time>
      </trkpt>
      <trkpt lat="43.69934" lon="1.47711">
        <ele>198.57</ele>
        <time>2023-08-24T08:12:46.148Z</time>
      </trkpt>
      <trkpt lat="43.69931" lon="1.47716">
        <ele>199.01999</ele>
        <time>2023-08-24T08:12:47.396Z</time>
      </trkpt>
      <trkpt lat="43.69928" lon="1.47721">
        <ele>199.45</ele>
        <time>2023-08-24T08:12:48.460Z</time>
      </trkpt>
      <trkpt lat="43.69924" lon="1.47725">
        <ele>199.87</ele>
        <time>2023-08-24T08:12:49.395Z</time>
      </trkpt>
      <trkpt lat="43.6992" lon="1.4773">
        <ele>200.23001</ele>
        <time>2023-08-24T08:12:50.398Z</time>
      </trkpt>
      <trkpt lat="43.69917" lon="1.47735">
        <ele>200.62</ele>
        <time>2023-08-24T08:12:51.426Z</time>
      </trkpt>
      <trkpt lat="43.69913" lon="1.4774">
        <ele>200.97</ele>
        <time>2023-08-24T08:12:52.400Z</time>
      </trkpt>
      <trkpt lat="43.6991" lon="1.47745">
        <ele>201.33</ele>
        <time>2023-08-24T08:12:52.958Z</time>
      </trkpt>
      <trkpt lat="43.69907" lon="1.47749">
        <ele>201.67</ele>
        <time>2023-08-24T08:12:54.421Z</time>
      </trkpt>
      <trkpt lat="43.69903" lon="1.47754">
        <ele>201.98999</ele>
        <time>2023-08-24T08:12:55.396Z</time>
      </trkpt>
      <trkpt lat="43.699" lon="1.47758">
        <ele>202.26999</ele>
        <time>2023-08-24T08:12:56.436Z</time>
      </trkpt>
      <trkpt lat="43.69896" lon="1.47762">
        <ele>202.59</ele>
        <time>2023-08-24T08:12:56.981Z</time>
      </trkpt>
      <trkpt lat="43.69891" lon="1.47765">
        <ele>202.8</ele>
        <time>2023-08-24T08:12:58.448Z</time>
      </trkpt>
      <trkpt lat="43.69887" lon="1.47768">
        <ele>203.04001</ele>
        <time>2023-08-24T08:12:59.397Z</time>
      </trkpt>
      <trkpt lat="43.69883" lon="1.47772">
        <ele>203.3</ele>
        <time>2023-08-24T08:13:00.460Z</time>
      </trkpt>
      <trkpt lat="43.6988" lon="1.47777">
        <ele>203.54001</ele>
        <time>2023-08-24T08:13:01.398Z</time>
      </trkpt>
      <trkpt lat="43.69877" lon="1.47782">
        <ele>203.76001</ele>
        <time>2023-08-24T08:13:02.398Z</time>
      </trkpt>
      <trkpt lat="43.69873" lon="1.47787">
        <ele>204</ele>
        <time>2023-08-24T08:13:03.004Z</time>
      </trkpt>
      <trkpt lat="43.69868" lon="1.47791">
        <ele>204.2</ele>
        <time>2023-08-24T08:13:04.397Z</time>
      </trkpt>
      <trkpt lat="43.69863" lon="1.47793">
        <ele>204.53</ele>
        <time>2023-08-24T08:13:05.400Z</time>
      </trkpt>
      <trkpt lat="43.69858" lon="1.47796">
        <ele>204.84</ele>
        <time>2023-08-24T08:13:06.399Z</time>
      </trkpt>
      <trkpt lat="43.69853" lon="1.47798">
        <ele>205.09</ele>
        <time>2023-08-24T08:13:06.995Z</time>
      </trkpt>
      <trkpt lat="43.69847" lon="1.478">
        <ele>205.32</ele>
        <time>2023-08-24T08:13:07.534Z</time>
      </trkpt>
      <trkpt lat="43.69843" lon="1.47802">
        <ele>205.54001</ele>
        <time>2023-08-24T08:13:09.397Z</time>
      </trkpt>
      <trkpt lat="43.69837" lon="1.47805">
        <ele>205.66</ele>
        <time>2023-08-24T08:13:09.496Z</time>
      </trkpt>
      <trkpt lat="43.69832" lon="1.47807">
        <ele>205.87</ele>
        <time>2023-08-24T08:13:11.399Z</time>
      </trkpt>
      <trkpt lat="43.69827" lon="1.47809">
        <ele>206.09</ele>
        <time>2023-08-24T08:13:12.498Z</time>
      </trkpt>
      <trkpt lat="43.69821" lon="1.47811">
        <ele>206.35</ele>
        <time>2023-08-24T08:13:12.541Z</time>
      </trkpt>
      <trkpt lat="43.69816" lon="1.47813">
        <ele>206.63</ele>
        <time>2023-08-24T08:13:13.562Z</time>
      </trkpt>
      <trkpt lat="43.6981" lon="1.47815">
        <ele>206.75</ele>
        <time>2023-08-24T08:13:15.499Z</time>
      </trkpt>
      <trkpt lat="43.69805" lon="1.47817">
        <ele>206.82</ele>
        <time>2023-08-24T08:13:15.587Z</time>
      </trkpt>
      <trkpt lat="43.698" lon="1.47819">
        <ele>207.04001</ele>
        <time>2023-08-24T08:13:16.990Z</time>
      </trkpt>
      <trkpt lat="43.69794" lon="1.47821">
        <ele>207.2</ele>
        <time>2023-08-24T08:13:17.986Z</time>
      </trkpt>
      <trkpt lat="43.6979" lon="1.47823">
        <ele>207.32</ele>
        <time>2023-08-24T08:13:19.011Z</time>
      </trkpt>
      <trkpt lat="43.69785" lon="1.47825">
        <ele>207.45</ele>
        <time>2023-08-24T08:13:20.481Z</time>
      </trkpt>
      <trkpt lat="43.69779" lon="1.47827">
        <ele>207.64</ele>
        <time>2023-08-24T08:13:20.522Z</time>
      </trkpt>
      <trkpt lat="43.69774" lon="1.47829">
        <ele>207.73999</ele>
        <time>2023-08-24T08:13:22.004Z</time>
      </trkpt>
      <trkpt lat="43.69769" lon="1.47831">
        <ele>207.97</ele>
        <time>2023-08-24T08:13:23.056Z</time>
      </trkpt>
      <trkpt lat="43.69764" lon="1.47833">
        <ele>208.09</ele>
        <time>2023-08-24T08:13:24.013Z</time>
      </trkpt>
      <trkpt lat="43.69759" lon="1.47834">
        <ele>208.23001</ele>
        <time>2023-08-24T08:13:24.543Z</time>
      </trkpt>
      <trkpt lat="43.69754" lon="1.47835">
        <ele>208.4</ele>
        <time>2023-08-24T08:13:25.552Z</time>
      </trkpt>
      <trkpt lat="43.69748" lon="1.47835">
        <ele>208.57</ele>
        <time>2023-08-24T08:13:26.555Z</time>
      </trkpt>
      <trkpt lat="43.69743" lon="1.47836">
        <ele>208.70999</ele>
        <time>2023-08-24T08:13:27.542Z</time>
      </trkpt>
      <trkpt lat="43.69737" lon="1.47836">
        <ele>208.9</ele>
        <time>2023-08-24T08:13:28.538Z</time>
      </trkpt>
      <trkpt lat="43.69732" lon="1.47836">
        <ele>209.05</ele>
        <time>2023-08-24T08:13:29.569Z</time>
      </trkpt>
      <trkpt lat="43.69727" lon="1.47835">
        <ele>209.25</ele>
        <time>2023-08-24T08:13:30.547Z</time>
      </trkpt>
      <trkpt lat="43.69721" lon="1.47833">
        <ele>209.54</ele>
        <time>2023-08-24T08:13:31.512Z</time>
      </trkpt>
      <trkpt lat="43.69716" lon="1.4783">
        <ele>209.71</ele>
        <time>2023-08-24T08:13:33.510Z</time>
      </trkpt>
      <trkpt lat="43.69711" lon="1.47827">
        <ele>209.79</ele>
        <time>2023-08-24T08:13:33.791Z</time>
      </trkpt>
      <trkpt lat="43.69706" lon="1.47823">
        <ele>209.88</ele>
        <time>2023-08-24T08:13:34.575Z</time>
      </trkpt>
      <trkpt lat="43.69701" lon="1.47819">
        <ele>210</ele>
        <time>2023-08-24T08:13:35.565Z</time>
      </trkpt>
      <trkpt lat="43.69696" lon="1.47814">
        <ele>210.2</ele>
        <time>2023-08-24T08:13:36.534Z</time>
      </trkpt>
      <trkpt lat="43.69692" lon="1.47809">
        <ele>210.3</ele>
        <time>2023-08-24T08:13:37.561Z</time>
      </trkpt>
      <trkpt lat="43.69688" lon="1.47804">
        <ele>210.4</ele>
        <time>2023-08-24T08:13:38.523Z</time>
      </trkpt>
      <trkpt lat="43.69683" lon="1.47799">
        <ele>210.48</ele>
        <time>2023-08-24T08:13:39.540Z</time>
      </trkpt>
      <trkpt lat="43.69678" lon="1.47793">
        <ele>210.54</ele>
        <time>2023-08-24T08:13:40.549Z</time>
      </trkpt>
      <trkpt lat="43.69674" lon="1.47788">
        <ele>210.52</ele>
        <time>2023-08-24T08:13:41.521Z</time>
      </trkpt>
      <trkpt lat="43.69669" lon="1.47783">
        <ele>210.52</ele>
        <time>2023-08-24T08:13:42.581Z</time>
      </trkpt>
      <trkpt lat="43.69664" lon="1.47777">
        <ele>210.51</ele>
        <time>2023-08-24T08:13:43.535Z</time>
      </trkpt>
      <trkpt lat="43.6966" lon="1.47772">
        <ele>210.55</ele>
        <time>2023-08-24T08:13:44.521Z</time>
      </trkpt>
      <trkpt lat="43.69656" lon="1.47768">
        <ele>210.53</ele>
        <time>2023-08-24T08:13:45.539Z</time>
      </trkpt>
      <trkpt lat="43.69653" lon="1.47764">
        <ele>210.55</ele>
        <time>2023-08-24T08:13:46.544Z</time>
      </trkpt>
      <trkpt lat="43.69651" lon="1.47761">
        <ele>210.61</ele>
        <time>2023-08-24T08:13:47.527Z</time>
      </trkpt>
      <trkpt lat="43.69649" lon="1.47758">
        <ele>210.66</ele>
        <time>2023-08-24T08:13:48.541Z</time>
      </trkpt>
      <trkpt lat="43.69647" lon="1.47755">
        <ele>210.64</ele>
        <time>2023-08-24T08:13:50.164Z</time>
      </trkpt>
      <trkpt lat="43.69646" lon="1.47752">
        <ele>210.65</ele>
        <time>2023-08-24T08:13:50.551Z</time>
      </trkpt>
      <trkpt lat="43.69645" lon="1.47749">
        <ele>210.71</ele>
        <time>2023-08-24T08:13:52.502Z</time>
      </trkpt>
      <trkpt lat="43.69643" lon="1.47744">
        <ele>210.75</ele>
        <time>2023-08-24T08:13:53.503Z</time>
      </trkpt>
      <trkpt lat="43.69644" lon="1.47741">
        <ele>210.71</ele>
        <time>2023-08-24T08:13:54.971Z</time>
      </trkpt>
      <trkpt lat="43.69642" lon="1.4774">
        <ele>210.59</ele>
        <time>2023-08-24T08:13:56.521Z</time>
      </trkpt>
      <trkpt lat="43.69638" lon="1.47729">
        <ele>210.5</ele>
        <time>2023-08-24T08:13:57.520Z</time>
      </trkpt>
      <trkpt lat="43.69636" lon="1.47723">
        <ele>210.37</ele>
        <time>2023-08-24T08:13:58.503Z</time>
      </trkpt>
      <trkpt lat="43.69633" lon="1.47716">
        <ele>210.25</ele>
        <time>2023-08-24T08:13:59.522Z</time>
      </trkpt>
      <trkpt lat="43.69627" lon="1.477">
        <ele>210.13</ele>
        <time>2023-08-24T08:13:59.547Z</time>
      </trkpt>
      <trkpt lat="43.69625" lon="1.47693">
        <ele>210.04</ele>
        <time>2023-08-24T08:14:00.546Z</time>
      </trkpt>
      <trkpt lat="43.69622" lon="1.47687">
        <ele>209.88</ele>
        <time>2023-08-24T08:14:02.521Z</time>
      </trkpt>
      <trkpt lat="43.69619" lon="1.4768">
        <ele>209.75</ele>
        <time>2023-08-24T08:14:02.531Z</time>
      </trkpt>
      <trkpt lat="43.69616" lon="1.47674">
        <ele>209.62</ele>
        <time>2023-08-24T08:14:04.530Z</time>
      </trkpt>
      <trkpt lat="43.69614" lon="1.47667">
        <ele>209.45</ele>
        <time>2023-08-24T08:14:04.540Z</time>
      </trkpt>
      <trkpt lat="43.69611" lon="1.4766">
        <ele>209.48</ele>
        <time>2023-08-24T08:14:06.255Z</time>
      </trkpt>
      <trkpt lat="43.69608" lon="1.47653">
        <ele>209.46</ele>
        <time>2023-08-24T08:14:06.544Z</time>
      </trkpt>
      <trkpt lat="43.69605" lon="1.47646">
        <ele>209.44</ele>
        <time>2023-08-24T08:14:07.539Z</time>
      </trkpt>
      <trkpt lat="43.69602" lon="1.47639">
        <ele>209.39</ele>
        <time>2023-08-24T08:14:08.551Z</time>
      </trkpt>
      <trkpt lat="43.696" lon="1.47632">
        <ele>209.39</ele>
        <time>2023-08-24T08:14:10.506Z</time>
      </trkpt>
      <trkpt lat="43.69597" lon="1.47626">
        <ele>209.36</ele>
        <time>2023-08-24T08:14:11.357Z</time>
      </trkpt>
      <trkpt lat="43.69594" lon="1.47619">
        <ele>209.32</ele>
        <time>2023-08-24T08:14:11.551Z</time>
      </trkpt>
      <trkpt lat="43.69591" lon="1.47612">
        <ele>209.27</ele>
        <time>2023-08-24T08:14:13.021Z</time>
      </trkpt>
      <trkpt lat="43.69589" lon="1.47604">
        <ele>209.24</ele>
        <time>2023-08-24T08:14:13.564Z</time>
      </trkpt>
      <trkpt lat="43.69587" lon="1.47596">
        <ele>209.21</ele>
        <time>2023-08-24T08:14:15.511Z</time>
      </trkpt>
      <trkpt lat="43.69585" lon="1.47588">
        <ele>209.17</ele>
        <time>2023-08-24T08:14:16.361Z</time>
      </trkpt>
      <trkpt lat="43.69584" lon="1.4758">
        <ele>209.13</ele>
        <time>2023-08-24T08:14:17.531Z</time>
      </trkpt>
      <trkpt lat="43.69584" lon="1.47572">
        <ele>209.1</ele>
        <time>2023-08-24T08:14:17.582Z</time>
      </trkpt>
      <trkpt lat="43.69582" lon="1.47564">
        <ele>209.04</ele>
        <time>2023-08-24T08:14:18.789Z</time>
      </trkpt>
      <trkpt lat="43.69581" lon="1.47555">
        <ele>209.04</ele>
        <time>2023-08-24T08:14:20.533Z</time>
      </trkpt>
      <trkpt lat="43.69578" lon="1.47547">
        <ele>209.04</ele>
        <time>2023-08-24T08:14:20.543Z</time>
      </trkpt>
      <trkpt lat="43.69575" lon="1.4754">
        <ele>208.98001</ele>
        <time>2023-08-24T08:14:22.534Z</time>
      </trkpt>
      <trkpt lat="43.6957" lon="1.47534">
        <ele>208.94</ele>
        <time>2023-08-24T08:14:22.557Z</time>
      </trkpt>
      <trkpt lat="43.69566" lon="1.47528">
        <ele>208.87</ele>
        <time>2023-08-24T08:14:24.541Z</time>
      </trkpt>
      <trkpt lat="43.69561" lon="1.47523">
        <ele>208.78</ele>
        <time>2023-08-24T08:14:24.560Z</time>
      </trkpt>
      <trkpt lat="43.69556" lon="1.47518">
        <ele>208.68</ele>
        <time>2023-08-24T08:14:25.544Z</time>
      </trkpt>
      <trkpt lat="43.69551" lon="1.47514">
        <ele>208.59</ele>
        <time>2023-08-24T08:14:27.543Z</time>
      </trkpt>
      <trkpt lat="43.69547" lon="1.47511">
        <ele>208.48999</ele>
        <time>2023-08-24T08:14:27.573Z</time>
      </trkpt>
      <trkpt lat="43.69542" lon="1.4751">
        <ele>208.44</ele>
        <time>2023-08-24T08:14:28.564Z</time>
      </trkpt>
      <trkpt lat="43.69538" lon="1.47513">
        <ele>208.4</ele>
        <time>2023-08-24T08:14:30.525Z</time>
      </trkpt>
      <trkpt lat="43.69534" lon="1.47518">
        <ele>208.31</ele>
        <time>2023-08-24T08:14:31.510Z</time>
      </trkpt>
      <trkpt lat="43.6953" lon="1.47524">
        <ele>208.08</ele>
        <time>2023-08-24T08:14:32.521Z</time>
      </trkpt>
      <trkpt lat="43.69525" lon="1.4753">
        <ele>207.73001</ele>
        <time>2023-08-24T08:14:33.510Z</time>
      </trkpt>
      <trkpt lat="43.6952" lon="1.47538">
        <ele>207.37</ele>
        <time>2023-08-24T08:14:33.578Z</time>
      </trkpt>
      <trkpt lat="43.69515" lon="1.47546">
        <ele>206.95</ele>
        <time>2023-08-24T08:14:35.512Z</time>
      </trkpt>
      <trkpt lat="43.6951" lon="1.47553">
        <ele>206.56</ele>
        <time>2023-08-24T08:14:36.510Z</time>
      </trkpt>
      <trkpt lat="43.69505" lon="1.47561">
        <ele>206.1</ele>
        <time>2023-08-24T08:14:37.548Z</time>
      </trkpt>
      <trkpt lat="43.69501" lon="1.47569">
        <ele>205.64</ele>
        <time>2023-08-24T08:14:38.511Z</time>
      </trkpt>
      <trkpt lat="43.69497" lon="1.47579">
        <ele>205.12</ele>
        <time>2023-08-24T08:14:39.511Z</time>
      </trkpt>
      <trkpt lat="43.69494" lon="1.47589">
        <ele>204.56</ele>
        <time>2023-08-24T08:14:39.565Z</time>
      </trkpt>
      <trkpt lat="43.69493" lon="1.47599">
        <ele>204.07</ele>
        <time>2023-08-24T08:14:40.555Z</time>
      </trkpt>
      <trkpt lat="43.69491" lon="1.47608">
        <ele>203.68</ele>
        <time>2023-08-24T08:14:42.543Z</time>
      </trkpt>
      <trkpt lat="43.6949" lon="1.47618">
        <ele>203.16</ele>
        <time>2023-08-24T08:14:43.084Z</time>
      </trkpt>
      <trkpt lat="43.69489" lon="1.47628">
        <ele>202.63</ele>
        <time>2023-08-24T08:14:44.054Z</time>
      </trkpt>
      <trkpt lat="43.69487" lon="1.47638">
        <ele>202.19</ele>
        <time>2023-08-24T08:14:45.524Z</time>
      </trkpt>
      <trkpt lat="43.69486" lon="1.47649">
        <ele>201.82</ele>
        <time>2023-08-24T08:14:46.509Z</time>
      </trkpt>
      <trkpt lat="43.69484" lon="1.4766">
        <ele>201.48999</ele>
        <time>2023-08-24T08:14:47.527Z</time>
      </trkpt>
      <trkpt lat="43.69482" lon="1.47671">
        <ele>201.18</ele>
        <time>2023-08-24T08:14:48.510Z</time>
      </trkpt>
      <trkpt lat="43.69479" lon="1.47682">
        <ele>200.8</ele>
        <time>2023-08-24T08:14:49.551Z</time>
      </trkpt>
      <trkpt lat="43.69475" lon="1.47693">
        <ele>200.28</ele>
        <time>2023-08-24T08:14:50.510Z</time>
      </trkpt>
      <trkpt lat="43.69471" lon="1.47703">
        <ele>199.79001</ele>
        <time>2023-08-24T08:14:51.512Z</time>
      </trkpt>
      <trkpt lat="43.69465" lon="1.47715">
        <ele>199.33</ele>
        <time>2023-08-24T08:14:52.552Z</time>
      </trkpt>
      <trkpt lat="43.6946" lon="1.47727">
        <ele>198.97</ele>
        <time>2023-08-24T08:14:53.509Z</time>
      </trkpt>
      <trkpt lat="43.69455" lon="1.47739">
        <ele>198.7</ele>
        <time>2023-08-24T08:14:54.510Z</time>
      </trkpt>
      <trkpt lat="43.6945" lon="1.47751">
        <ele>198.26001</ele>
        <time>2023-08-24T08:14:55.509Z</time>
      </trkpt>
      <trkpt lat="43.69446" lon="1.47761">
        <ele>197.86</ele>
        <time>2023-08-24T08:14:56.511Z</time>
      </trkpt>
      <trkpt lat="43.69441" lon="1.47769">
        <ele>197.7</ele>
        <time>2023-08-24T08:14:57.508Z</time>
      </trkpt>
      <trkpt lat="43.69438" lon="1.47776">
        <ele>197.51999</ele>
        <time>2023-08-24T08:14:58.508Z</time>
      </trkpt>
      <trkpt lat="43.69432" lon="1.47777">
        <ele>197.28</ele>
        <time>2023-08-24T08:14:59.507Z</time>
      </trkpt>
      <trkpt lat="43.69426" lon="1.47778">
        <ele>197.07</ele>
        <time>2023-08-24T08:15:00.565Z</time>
      </trkpt>
      <trkpt lat="43.6942" lon="1.47778">
        <ele>196.89</ele>
        <time>2023-08-24T08:15:01.506Z</time>
      </trkpt>
      <trkpt lat="43.69413" lon="1.47778">
        <ele>196.76001</ele>
        <time>2023-08-24T08:15:02.507Z</time>
      </trkpt>
      <trkpt lat="43.69406" lon="1.47778">
        <ele>196.62</ele>
        <time>2023-08-24T08:15:03.564Z</time>
      </trkpt>
      <trkpt lat="43.69399" lon="1.47777">
        <ele>196.45</ele>
        <time>2023-08-24T08:15:04.509Z</time>
      </trkpt>
      <trkpt lat="43.69392" lon="1.47777">
        <ele>196.29001</ele>
        <time>2023-08-24T08:15:05.527Z</time>
      </trkpt>
      <trkpt lat="43.69385" lon="1.47777">
        <ele>196.4</ele>
        <time>2023-08-24T08:15:06.508Z</time>
      </trkpt>
      <trkpt lat="43.69378" lon="1.47777">
        <ele>196.47</ele>
        <time>2023-08-24T08:15:07.507Z</time>
      </trkpt>
      <trkpt lat="43.69371" lon="1.47777">
        <ele>196.51001</ele>
        <time>2023-08-24T08:15:08.542Z</time>
      </trkpt>
      <trkpt lat="43.69364" lon="1.47777">
        <ele>196.55</ele>
        <time>2023-08-24T08:15:09.512Z</time>
      </trkpt>
      <trkpt lat="43.69357" lon="1.47777">
        <ele>196.51001</ele>
        <time>2023-08-24T08:15:10.508Z</time>
      </trkpt>
      <trkpt lat="43.6935" lon="1.47777">
        <ele>196.42</ele>
        <time>2023-08-24T08:15:11.507Z</time>
      </trkpt>
      <trkpt lat="43.69343" lon="1.47777">
        <ele>196.39</ele>
        <time>2023-08-24T08:15:12.506Z</time>
      </trkpt>
      <trkpt lat="43.69336" lon="1.47777">
        <ele>196.35</ele>
        <time>2023-08-24T08:15:13.145Z</time>
      </trkpt>
      <trkpt lat="43.69329" lon="1.47777">
        <ele>196.26999</ele>
        <time>2023-08-24T08:15:14.508Z</time>
      </trkpt>
      <trkpt lat="43.69323" lon="1.47776">
        <ele>196.23001</ele>
        <time>2023-08-24T08:15:15.512Z</time>
      </trkpt>
      <trkpt lat="43.69316" lon="1.47774">
        <ele>196.15</ele>
        <time>2023-08-24T08:15:16.508Z</time>
      </trkpt>
      <trkpt lat="43.6931" lon="1.4777">
        <ele>196.07</ele>
        <time>2023-08-24T08:15:17.508Z</time>
      </trkpt>
      <trkpt lat="43.69304" lon="1.47765">
        <ele>196.01999</ele>
        <time>2023-08-24T08:15:18.509Z</time>
      </trkpt>
      <trkpt lat="43.69298" lon="1.47759">
        <ele>196.01999</ele>
        <time>2023-08-24T08:15:19.510Z</time>
      </trkpt>
      <trkpt lat="43.69292" lon="1.47753">
        <ele>195.93</ele>
        <time>2023-08-24T08:15:20.508Z</time>
      </trkpt>
      <trkpt lat="43.69286" lon="1.47748">
        <ele>195.81</ele>
        <time>2023-08-24T08:15:21.511Z</time>
      </trkpt>
      <trkpt lat="43.69279" lon="1.47742">
        <ele>195.67</ele>
        <time>2023-08-24T08:15:22.508Z</time>
      </trkpt>
      <trkpt lat="43.69273" lon="1.47736">
        <ele>195.47</ele>
        <time>2023-08-24T08:15:23.147Z</time>
      </trkpt>
      <trkpt lat="43.69268" lon="1.47729">
        <ele>195.3</ele>
        <time>2023-08-24T08:15:24.507Z</time>
      </trkpt>
      <trkpt lat="43.69263" lon="1.47723">
        <ele>195.16</ele>
        <time>2023-08-24T08:15:25.148Z</time>
      </trkpt>
      <trkpt lat="43.69258" lon="1.47717">
        <ele>195.1</ele>
        <time>2023-08-24T08:15:26.509Z</time>
      </trkpt>
      <trkpt lat="43.69253" lon="1.47712">
        <ele>195.08</ele>
        <time>2023-08-24T08:15:27.507Z</time>
      </trkpt>
      <trkpt lat="43.69249" lon="1.47707">
        <ele>195.09</ele>
        <time>2023-08-24T08:15:28.507Z</time>
      </trkpt>
      <trkpt lat="43.69244" lon="1.47703">
        <ele>195.15</ele>
        <time>2023-08-24T08:15:29.508Z</time>
      </trkpt>
      <trkpt lat="43.6924" lon="1.47699">
        <ele>195.25</ele>
        <time>2023-08-24T08:15:30.507Z</time>
      </trkpt>
      <trkpt lat="43.69235" lon="1.47696">
        <ele>195.37</ele>
        <time>2023-08-24T08:15:31.507Z</time>
      </trkpt>
      <trkpt lat="43.6923" lon="1.47692">
        <ele>195.51999</ele>
        <time>2023-08-24T08:15:32.508Z</time>
      </trkpt>
      <trkpt lat="43.69225" lon="1.47689">
        <ele>195.45</ele>
        <time>2023-08-24T08:15:33.507Z</time>
      </trkpt>
      <trkpt lat="43.69218" lon="1.47684">
        <ele>195.33</ele>
        <time>2023-08-24T08:15:34.510Z</time>
      </trkpt>
      <trkpt lat="43.69213" lon="1.4768">
        <ele>195.28</ele>
        <time>2023-08-24T08:15:35.508Z</time>
      </trkpt>
      <trkpt lat="43.69207" lon="1.47674">
        <ele>194.95</ele>
        <time>2023-08-24T08:15:36.508Z</time>
      </trkpt>
      <trkpt lat="43.69201" lon="1.47669">
        <ele>194.55</ele>
        <time>2023-08-24T08:15:37.508Z</time>
      </trkpt>
      <trkpt lat="43.69194" lon="1.47663">
        <ele>194.25</ele>
        <time>2023-08-24T08:15:38.508Z</time>
      </trkpt>
      <trkpt lat="43.69188" lon="1.47657">
        <ele>193.95999</ele>
        <time>2023-08-24T08:15:39.606Z</time>
      </trkpt>
      <trkpt lat="43.69181" lon="1.47651">
        <ele>193.66</ele>
        <time>2023-08-24T08:15:40.607Z</time>
      </trkpt>
      <trkpt lat="43.69175" lon="1.47644">
        <ele>193.32</ele>
        <time>2023-08-24T08:15:41.507Z</time>
      </trkpt>
      <trkpt lat="43.69168" lon="1.47637">
        <ele>192.81</ele>
        <time>2023-08-24T08:15:42.606Z</time>
      </trkpt>
      <trkpt lat="43.69161" lon="1.47628">
        <ele>192.26999</ele>
        <time>2023-08-24T08:15:43.607Z</time>
      </trkpt>
      <trkpt lat="43.69154" lon="1.47618">
        <ele>191.44</ele>
        <time>2023-08-24T08:15:44.606Z</time>
      </trkpt>
      <trkpt lat="43.69148" lon="1.47607">
        <ele>190.41</ele>
        <time>2023-08-24T08:15:45.606Z</time>
      </trkpt>
      <trkpt lat="43.69142" lon="1.47594">
        <ele>188.97</ele>
        <time>2023-08-24T08:15:46.607Z</time>
      </trkpt>
      <trkpt lat="43.69139" lon="1.47587">
        <ele>187.53</ele>
        <time>2023-08-24T08:15:47.608Z</time>
      </trkpt>
      <trkpt lat="43.69132" lon="1.47566">
        <ele>186.33</ele>
        <time>2023-08-24T08:15:48.608Z</time>
      </trkpt>
      <trkpt lat="43.69128" lon="1.47551">
        <ele>185.28</ele>
        <time>2023-08-24T08:15:49.609Z</time>
      </trkpt>
      <trkpt lat="43.69126" lon="1.47541">
        <ele>183.72</ele>
        <time>2023-08-24T08:15:50.608Z</time>
      </trkpt>
      <trkpt lat="43.69122" lon="1.47526">
        <ele>182.1</ele>
        <time>2023-08-24T08:15:51.611Z</time>
      </trkpt>
      <trkpt lat="43.69117" lon="1.47505">
        <ele>180.4</ele>
        <time>2023-08-24T08:15:52.613Z</time>
      </trkpt>
      <trkpt lat="43.69114" lon="1.47496">
        <ele>178.5</ele>
        <time>2023-08-24T08:15:53.613Z</time>
      </trkpt>
      <trkpt lat="43.69109" lon="1.47475">
        <ele>176.93</ele>
        <time>2023-08-24T08:15:54.613Z</time>
      </trkpt>
      <trkpt lat="43.69105" lon="1.47463">
        <ele>175.42</ele>
        <time>2023-08-24T08:15:55.611Z</time>
      </trkpt>
      <trkpt lat="43.691" lon="1.47449">
        <ele>174.29001</ele>
        <time>2023-08-24T08:15:56.613Z</time>
      </trkpt>
      <trkpt lat="43.69097" lon="1.47441">
        <ele>173.13</ele>
        <time>2023-08-24T08:15:57.613Z</time>
      </trkpt>
      <trkpt lat="43.69087" lon="1.47422">
        <ele>172.20999</ele>
        <time>2023-08-24T08:15:58.614Z</time>
      </trkpt>
      <trkpt lat="43.6908" lon="1.47407">
        <ele>171.36</ele>
        <time>2023-08-24T08:15:59.613Z</time>
      </trkpt>
      <trkpt lat="43.69072" lon="1.47394">
        <ele>170.85</ele>
        <time>2023-08-24T08:16:00.611Z</time>
      </trkpt>
      <trkpt lat="43.69064" lon="1.47381">
        <ele>170.64</ele>
        <time>2023-08-24T08:16:01.615Z</time>
      </trkpt>
      <trkpt lat="43.69058" lon="1.47372">
        <ele>170.63</ele>
        <time>2023-08-24T08:16:02.613Z</time>
      </trkpt>
      <trkpt lat="43.69053" lon="1.47366">
        <ele>170.73001</ele>
        <time>2023-08-24T08:16:03.164Z</time>
      </trkpt>
      <trkpt lat="43.6905" lon="1.47365">
        <ele>170.76999</ele>
        <time>2023-08-24T08:16:04.146Z</time>
      </trkpt>
      <trkpt lat="43.69047" lon="1.47365">
        <ele>170.79001</ele>
        <time>2023-08-24T08:16:05.165Z</time>
      </trkpt>
      <trkpt lat="43.69045" lon="1.47367">
        <ele>170.85</ele>
        <time>2023-08-24T08:16:06.164Z</time>
      </trkpt>
      <trkpt lat="43.69041" lon="1.47371">
        <ele>170.97</ele>
        <time>2023-08-24T08:16:07.185Z</time>
      </trkpt>
      <trkpt lat="43.69036" lon="1.47376">
        <ele>171.03</ele>
        <time>2023-08-24T08:16:08.165Z</time>
      </trkpt>
      <trkpt lat="43.69032" lon="1.4738">
        <ele>171.07</ele>
        <time>2023-08-24T08:16:09.140Z</time>
      </trkpt>
      <trkpt lat="43.69028" lon="1.47385">
        <ele>171.19</ele>
        <time>2023-08-24T08:16:10.179Z</time>
      </trkpt>
      <trkpt lat="43.69024" lon="1.47388">
        <ele>171.36</ele>
        <time>2023-08-24T08:16:11.171Z</time>
      </trkpt>
      <trkpt lat="43.69021" lon="1.4739">
        <ele>171.68</ele>
        <time>2023-08-24T08:16:12.336Z</time>
      </trkpt>
      <trkpt lat="43.69017" lon="1.47394">
        <ele>172.13</ele>
        <time>2023-08-24T08:16:13.204Z</time>
      </trkpt>
      <trkpt lat="43.69012" lon="1.47397">
        <ele>172.7</ele>
        <time>2023-08-24T08:16:14.610Z</time>
      </trkpt>
      <trkpt lat="43.69009" lon="1.47399">
        <ele>173.29001</ele>
        <time>2023-08-24T08:16:15.611Z</time>
      </trkpt>
      <trkpt lat="43.69006" lon="1.47401">
        <ele>174.01999</ele>
        <time>2023-08-24T08:16:17.374Z</time>
      </trkpt>
      <trkpt lat="43.69002" lon="1.47404">
        <ele>174.63</ele>
        <time>2023-08-24T08:16:18.609Z</time>
      </trkpt>
      <trkpt lat="43.68998" lon="1.47406">
        <ele>175.39</ele>
        <time>2023-08-24T08:16:19.609Z</time>
      </trkpt>
      <trkpt lat="43.68995" lon="1.47408">
        <ele>175.94</ele>
        <time>2023-08-24T08:16:20.207Z</time>
      </trkpt>
      <trkpt lat="43.68991" lon="1.47409">
        <ele>176.5</ele>
        <time>2023-08-24T08:16:21.227Z</time>
      </trkpt>
      <trkpt lat="43.68987" lon="1.47411">
        <ele>177.05</ele>
        <time>2023-08-24T08:16:22.216Z</time>
      </trkpt>
      <trkpt lat="43.68983" lon="1.47413">
        <ele>177.54001</ele>
        <time>2023-08-24T08:16:23.223Z</time>
      </trkpt>
      <trkpt lat="43.6898" lon="1.47415">
        <ele>177.93</ele>
        <time>2023-08-24T08:16:25.611Z</time>
      </trkpt>
      <trkpt lat="43.68977" lon="1.47417">
        <ele>178.47</ele>
        <time>2023-08-24T08:16:26.611Z</time>
      </trkpt>
      <trkpt lat="43.68973" lon="1.4742">
        <ele>178.9</ele>
        <time>2023-08-24T08:16:27.610Z</time>
      </trkpt>
      <trkpt lat="43.68969" lon="1.47422">
        <ele>179.23999</ele>
        <time>2023-08-24T08:16:28.612Z</time>
      </trkpt>
      <trkpt lat="43.68966" lon="1.47424">
        <ele>179.64</ele>
        <time>2023-08-24T08:16:29.610Z</time>
      </trkpt>
      <trkpt lat="43.68961" lon="1.47427">
        <ele>179.94</ele>
        <time>2023-08-24T08:16:31.613Z</time>
      </trkpt>
      <trkpt lat="43.68958" lon="1.4743">
        <ele>180.23999</ele>
        <time>2023-08-24T08:16:32.610Z</time>
      </trkpt>
      <trkpt lat="43.68954" lon="1.47432">
        <ele>180.57</ele>
        <time>2023-08-24T08:16:33.616Z</time>
      </trkpt>
      <trkpt lat="43.6895" lon="1.47433">
        <ele>180.76999</ele>
        <time>2023-08-24T08:16:34.611Z</time>
      </trkpt>
      <trkpt lat="43.68946" lon="1.47433">
        <ele>180.92</ele>
        <time>2023-08-24T08:16:35.609Z</time>
      </trkpt>
      <trkpt lat="43.68937" lon="1.47429">
        <ele>181.16</ele>
        <time>2023-08-24T08:16:37.612Z</time>
      </trkpt>
      <trkpt lat="43.68933" lon="1.4742">
        <ele>181.59</ele>
        <time>2023-08-24T08:16:38.609Z</time>
      </trkpt>
      <trkpt lat="43.68932" lon="1.47417">
        <ele>182</ele>
        <time>2023-08-24T08:16:40.609Z</time>
      </trkpt>
      <trkpt lat="43.68929" lon="1.47413">
        <ele>182.26999</ele>
        <time>2023-08-24T08:16:41.612Z</time>
      </trkpt>
      <trkpt lat="43.68925" lon="1.4741">
        <ele>182.59</ele>
        <time>2023-08-24T08:16:42.609Z</time>
      </trkpt>
      <trkpt lat="43.68922" lon="1.47406">
        <ele>182.94</ele>
        <time>2023-08-24T08:16:43.610Z</time>
      </trkpt>
      <trkpt lat="43.68916" lon="1.474">
        <ele>183.23001</ele>
        <time>2023-08-24T08:16:44.681Z</time>
      </trkpt>
      <trkpt lat="43.68908" lon="1.47392">
        <ele>183.42</ele>
        <time>2023-08-24T08:16:46.608Z</time>
      </trkpt>
      <trkpt lat="43.68906" lon="1.47389">
        <ele>183.91</ele>
        <time>2023-08-24T08:16:48.609Z</time>
      </trkpt>
      <trkpt lat="43.68904" lon="1.47383">
        <ele>184.15</ele>
        <time>2023-08-24T08:16:49.608Z</time>
      </trkpt>
      <trkpt lat="43.68903" lon="1.47377">
        <ele>184.42</ele>
        <time>2023-08-24T08:16:50.609Z</time>
      </trkpt>
      <trkpt lat="43.68903" lon="1.47369">
        <ele>184.58</ele>
        <time>2023-08-24T08:16:51.610Z</time>
      </trkpt>
      <trkpt lat="43.68904" lon="1.47361">
        <ele>184.76001</ele>
        <time>2023-08-24T08:16:52.608Z</time>
      </trkpt>
      <trkpt lat="43.68906" lon="1.47353">
        <ele>184.86</ele>
        <time>2023-08-24T08:16:53.608Z</time>
      </trkpt>
      <trkpt lat="43.6891" lon="1.47345">
        <ele>184.9</ele>
        <time>2023-08-24T08:16:54.424Z</time>
      </trkpt>
      <trkpt lat="43.68913" lon="1.47338">
        <ele>185</ele>
        <time>2023-08-24T08:16:55.608Z</time>
      </trkpt>
      <trkpt lat="43.68917" lon="1.47331">
        <ele>185.03</ele>
        <time>2023-08-24T08:16:55.689Z</time>
      </trkpt>
      <trkpt lat="43.6892" lon="1.47323">
        <ele>185.03</ele>
        <time>2023-08-24T08:16:57.613Z</time>
      </trkpt>
      <trkpt lat="43.68924" lon="1.47316">
        <ele>185.07</ele>
        <time>2023-08-24T08:16:57.704Z</time>
      </trkpt>
      <trkpt lat="43.68927" lon="1.47308">
        <ele>185.06</ele>
        <time>2023-08-24T08:16:59.611Z</time>
      </trkpt>
      <trkpt lat="43.68931" lon="1.473">
        <ele>185.03</ele>
        <time>2023-08-24T08:17:00.607Z</time>
      </trkpt>
      <trkpt lat="43.68934" lon="1.47292">
        <ele>184.93</ele>
        <time>2023-08-24T08:17:01.608Z</time>
      </trkpt>
      <trkpt lat="43.68937" lon="1.47283">
        <ele>184.85</ele>
        <time>2023-08-24T08:17:02.607Z</time>
      </trkpt>
      <trkpt lat="43.68939" lon="1.47273">
        <ele>184.64</ele>
        <time>2023-08-24T08:17:03.317Z</time>
      </trkpt>
      <trkpt lat="43.6894" lon="1.47264">
        <ele>184.42</ele>
        <time>2023-08-24T08:17:04.609Z</time>
      </trkpt>
      <trkpt lat="43.68938" lon="1.47253">
        <ele>184.19</ele>
        <time>2023-08-24T08:17:05.608Z</time>
      </trkpt>
      <trkpt lat="43.68936" lon="1.47244">
        <ele>183.98001</ele>
        <time>2023-08-24T08:17:06.608Z</time>
      </trkpt>
      <trkpt lat="43.68932" lon="1.47236">
        <ele>183.70999</ele>
        <time>2023-08-24T08:17:07.608Z</time>
      </trkpt>
      <trkpt lat="43.68927" lon="1.47228">
        <ele>183.4</ele>
        <time>2023-08-24T08:17:08.610Z</time>
      </trkpt>
      <trkpt lat="43.68922" lon="1.47222">
        <ele>183.16</ele>
        <time>2023-08-24T08:17:09.607Z</time>
      </trkpt>
      <trkpt lat="43.68916" lon="1.47215">
        <ele>182.98001</ele>
        <time>2023-08-24T08:17:10.607Z</time>
      </trkpt>
      <trkpt lat="43.6891" lon="1.47208">
        <ele>182.69</ele>
        <time>2023-08-24T08:17:11.607Z</time>
      </trkpt>
      <trkpt lat="43.68904" lon="1.47202">
        <ele>182.43</ele>
        <time>2023-08-24T08:17:12.608Z</time>
      </trkpt>
      <trkpt lat="43.68897" lon="1.47194">
        <ele>181.66</ele>
        <time>2023-08-24T08:17:13.608Z</time>
      </trkpt>
      <trkpt lat="43.6889" lon="1.47186">
        <ele>180.85</ele>
        <time>2023-08-24T08:17:14.608Z</time>
      </trkpt>
      <trkpt lat="43.68883" lon="1.47178">
        <ele>180.08</ele>
        <time>2023-08-24T08:17:15.607Z</time>
      </trkpt>
      <trkpt lat="43.68876" lon="1.47169">
        <ele>179.2</ele>
        <time>2023-08-24T08:17:16.609Z</time>
      </trkpt>
      <trkpt lat="43.68868" lon="1.4716">
        <ele>178.22</ele>
        <time>2023-08-24T08:17:17.607Z</time>
      </trkpt>
      <trkpt lat="43.68861" lon="1.47151">
        <ele>177.19</ele>
        <time>2023-08-24T08:17:18.606Z</time>
      </trkpt>
      <trkpt lat="43.68853" lon="1.47142">
        <ele>176.28</ele>
        <time>2023-08-24T08:17:19.607Z</time>
      </trkpt>
      <trkpt lat="43.68846" lon="1.47134">
        <ele>175.95</ele>
        <time>2023-08-24T08:17:20.606Z</time>
      </trkpt>
      <trkpt lat="43.6884" lon="1.47127">
        <ele>175.8</ele>
        <time>2023-08-24T08:17:21.606Z</time>
      </trkpt>
      <trkpt lat="43.68834" lon="1.47121">
        <ele>175.86</ele>
        <time>2023-08-24T08:17:22.608Z</time>
      </trkpt>
      <trkpt lat="43.68829" lon="1.47116">
        <ele>176.04001</ele>
        <time>2023-08-24T08:17:23.606Z</time>
      </trkpt>
      <trkpt lat="43.68825" lon="1.4711">
        <ele>176.3</ele>
        <time>2023-08-24T08:17:24.607Z</time>
      </trkpt>
      <trkpt lat="43.68821" lon="1.47105">
        <ele>176.67</ele>
        <time>2023-08-24T08:17:25.606Z</time>
      </trkpt>
      <trkpt lat="43.68819" lon="1.47099">
        <ele>177.17</ele>
        <time>2023-08-24T08:17:26.609Z</time>
      </trkpt>
      <trkpt lat="43.68816" lon="1.47094">
        <ele>177.72</ele>
        <time>2023-08-24T08:17:27.608Z</time>
      </trkpt>
      <trkpt lat="43.68813" lon="1.47088">
        <ele>178.32</ele>
        <time>2023-08-24T08:17:28.609Z</time>
      </trkpt>
      <trkpt lat="43.68811" lon="1.47084">
        <ele>178.85</ele>
        <time>2023-08-24T08:17:29.607Z</time>
      </trkpt>
      <trkpt lat="43.68808" lon="1.47078">
        <ele>179.42</ele>
        <time>2023-08-24T08:17:30.607Z</time>
      </trkpt>
      <trkpt lat="43.68805" lon="1.47074">
        <ele>179.98001</ele>
        <time>2023-08-24T08:17:31.610Z</time>
      </trkpt>
      <trkpt lat="43.68801" lon="1.47069">
        <ele>180.51999</ele>
        <time>2023-08-24T08:17:32.608Z</time>
      </trkpt>
      <trkpt lat="43.68798" lon="1.47065">
        <ele>181.06</ele>
        <time>2023-08-24T08:17:33.611Z</time>
      </trkpt>
      <trkpt lat="43.68794" lon="1.47061">
        <ele>181.51999</ele>
        <time>2023-08-24T08:17:34.610Z</time>
      </trkpt>
      <trkpt lat="43.6879" lon="1.47057">
        <ele>181.86</ele>
        <time>2023-08-24T08:17:35.611Z</time>
      </trkpt>
      <trkpt lat="43.68786" lon="1.47053">
        <ele>182.09</ele>
        <time>2023-08-24T08:17:36.610Z</time>
      </trkpt>
      <trkpt lat="43.68782" lon="1.47049">
        <ele>182.43</ele>
        <time>2023-08-24T08:17:37.609Z</time>
      </trkpt>
      <trkpt lat="43.68778" lon="1.47045">
        <ele>182.65</ele>
        <time>2023-08-24T08:17:38.612Z</time>
      </trkpt>
      <trkpt lat="43.68773" lon="1.4704">
        <ele>182.82</ele>
        <time>2023-08-24T08:17:39.610Z</time>
      </trkpt>
      <trkpt lat="43.68769" lon="1.47037">
        <ele>183.05</ele>
        <time>2023-08-24T08:17:40.611Z</time>
      </trkpt>
      <trkpt lat="43.68764" lon="1.47034">
        <ele>183.28</ele>
        <time>2023-08-24T08:17:41.608Z</time>
      </trkpt>
      <trkpt lat="43.68759" lon="1.47033">
        <ele>183.42</ele>
        <time>2023-08-24T08:17:42.609Z</time>
      </trkpt>
      <trkpt lat="43.68755" lon="1.47035">
        <ele>183.59</ele>
        <time>2023-08-24T08:17:43.611Z</time>
      </trkpt>
      <trkpt lat="43.6875" lon="1.47038">
        <ele>183.98001</ele>
        <time>2023-08-24T08:17:44.608Z</time>
      </trkpt>
      <trkpt lat="43.68746" lon="1.47042">
        <ele>184.4</ele>
        <time>2023-08-24T08:17:45.608Z</time>
      </trkpt>
      <trkpt lat="43.68742" lon="1.47048">
        <ele>184.79001</ele>
        <time>2023-08-24T08:17:46.608Z</time>
      </trkpt>
      <trkpt lat="43.68739" lon="1.47054">
        <ele>185.03</ele>
        <time>2023-08-24T08:17:47.708Z</time>
      </trkpt>
      <trkpt lat="43.68736" lon="1.47059">
        <ele>185.33</ele>
        <time>2023-08-24T08:17:47.783Z</time>
      </trkpt>
      <trkpt lat="43.68732" lon="1.47065">
        <ele>185.67</ele>
        <time>2023-08-24T08:17:49.709Z</time>
      </trkpt>
      <trkpt lat="43.68729" lon="1.47071">
        <ele>186.01999</ele>
        <time>2023-08-24T08:17:50.558Z</time>
      </trkpt>
      <trkpt lat="43.68726" lon="1.47077">
        <ele>186.31</ele>
        <time>2023-08-24T08:17:50.774Z</time>
      </trkpt>
      <trkpt lat="43.68722" lon="1.47082">
        <ele>186.6</ele>
        <time>2023-08-24T08:17:52.271Z</time>
      </trkpt>
      <trkpt lat="43.68719" lon="1.47088">
        <ele>186.84</ele>
        <time>2023-08-24T08:17:52.784Z</time>
      </trkpt>
      <trkpt lat="43.68715" lon="1.47093">
        <ele>187.03</ele>
        <time>2023-08-24T08:17:53.780Z</time>
      </trkpt>
      <trkpt lat="43.68711" lon="1.47098">
        <ele>187.23999</ele>
        <time>2023-08-24T08:17:54.788Z</time>
      </trkpt>
      <trkpt lat="43.68707" lon="1.471">
        <ele>187.42</ele>
        <time>2023-08-24T08:17:55.780Z</time>
      </trkpt>
      <trkpt lat="43.68702" lon="1.47101">
        <ele>187.65</ele>
        <time>2023-08-24T08:17:56.797Z</time>
      </trkpt>
      <trkpt lat="43.68697" lon="1.471">
        <ele>187.92</ele>
        <time>2023-08-24T08:17:57.773Z</time>
      </trkpt>
      <trkpt lat="43.68692" lon="1.47097">
        <ele>188.05</ele>
        <time>2023-08-24T08:17:58.778Z</time>
      </trkpt>
      <trkpt lat="43.68687" lon="1.47093">
        <ele>188.36</ele>
        <time>2023-08-24T08:18:00.468Z</time>
      </trkpt>
      <trkpt lat="43.68684" lon="1.47088">
        <ele>188.68</ele>
        <time>2023-08-24T08:18:00.772Z</time>
      </trkpt>
      <trkpt lat="43.6868" lon="1.47083">
        <ele>188.98999</ele>
        <time>2023-08-24T08:18:01.769Z</time>
      </trkpt>
      <trkpt lat="43.68676" lon="1.47077">
        <ele>189.26001</ele>
        <time>2023-08-24T08:18:02.764Z</time>
      </trkpt>
      <trkpt lat="43.68672" lon="1.47072">
        <ele>189.63</ele>
        <time>2023-08-24T08:18:03.783Z</time>
      </trkpt>
      <trkpt lat="43.68668" lon="1.47067">
        <ele>189.82</ele>
        <time>2023-08-24T08:18:04.775Z</time>
      </trkpt>
      <trkpt lat="43.68664" lon="1.47062">
        <ele>190.08</ele>
        <time>2023-08-24T08:18:05.773Z</time>
      </trkpt>
      <trkpt lat="43.6866" lon="1.47057">
        <ele>190.26999</ele>
        <time>2023-08-24T08:18:06.770Z</time>
      </trkpt>
      <trkpt lat="43.68657" lon="1.47052">
        <ele>190.47</ele>
        <time>2023-08-24T08:18:07.781Z</time>
      </trkpt>
      <trkpt lat="43.68653" lon="1.47047">
        <ele>190.68</ele>
        <time>2023-08-24T08:18:08.777Z</time>
      </trkpt>
      <trkpt lat="43.68649" lon="1.47042">
        <ele>190.86</ele>
        <time>2023-08-24T08:18:09.772Z</time>
      </trkpt>
      <trkpt lat="43.68645" lon="1.47037">
        <ele>191.01001</ele>
        <time>2023-08-24T08:18:11.583Z</time>
      </trkpt>
      <trkpt lat="43.68641" lon="1.47032">
        <ele>191.12</ele>
        <time>2023-08-24T08:18:11.754Z</time>
      </trkpt>
      <trkpt lat="43.68637" lon="1.47027">
        <ele>191.17</ele>
        <time>2023-08-24T08:18:12.766Z</time>
      </trkpt>
      <trkpt lat="43.68634" lon="1.47022">
        <ele>191.23001</ele>
        <time>2023-08-24T08:18:14.458Z</time>
      </trkpt>
      <trkpt lat="43.68631" lon="1.47017">
        <ele>191.2</ele>
        <time>2023-08-24T08:18:14.762Z</time>
      </trkpt>
      <trkpt lat="43.68628" lon="1.47013">
        <ele>191.23999</ele>
        <time>2023-08-24T08:18:15.763Z</time>
      </trkpt>
      <trkpt lat="43.68624" lon="1.47008">
        <ele>191.38</ele>
        <time>2023-08-24T08:18:16.767Z</time>
      </trkpt>
      <trkpt lat="43.68621" lon="1.47003">
        <ele>191.57</ele>
        <time>2023-08-24T08:18:17.770Z</time>
      </trkpt>
      <trkpt lat="43.68618" lon="1.46999">
        <ele>191.73999</ele>
        <time>2023-08-24T08:18:18.762Z</time>
      </trkpt>
      <trkpt lat="43.68615" lon="1.46994">
        <ele>191.95</ele>
        <time>2023-08-24T08:18:19.762Z</time>
      </trkpt>
      <trkpt lat="43.68612" lon="1.46989">
        <ele>192.14</ele>
        <time>2023-08-24T08:18:20.805Z</time>
      </trkpt>
      <trkpt lat="43.68609" lon="1.46986">
        <ele>192.35</ele>
        <time>2023-08-24T08:18:21.769Z</time>
      </trkpt>
      <trkpt lat="43.68606" lon="1.46981">
        <ele>192.45999</ele>
        <time>2023-08-24T08:18:22.779Z</time>
      </trkpt>
      <trkpt lat="43.68603" lon="1.46976">
        <ele>192.58</ele>
        <time>2023-08-24T08:18:23.786Z</time>
      </trkpt>
      <trkpt lat="43.68599" lon="1.46971">
        <ele>192.83</ele>
        <time>2023-08-24T08:18:24.774Z</time>
      </trkpt>
      <trkpt lat="43.68596" lon="1.46967">
        <ele>193.08</ele>
        <time>2023-08-24T08:18:25.774Z</time>
      </trkpt>
      <trkpt lat="43.68592" lon="1.46963">
        <ele>193.33</ele>
        <time>2023-08-24T08:18:26.782Z</time>
      </trkpt>
      <trkpt lat="43.68589" lon="1.46958">
        <ele>193.53</ele>
        <time>2023-08-24T08:18:27.779Z</time>
      </trkpt>
      <trkpt lat="43.68585" lon="1.46954">
        <ele>193.75</ele>
        <time>2023-08-24T08:18:28.781Z</time>
      </trkpt>
      <trkpt lat="43.68577" lon="1.46945">
        <ele>193.95</ele>
        <time>2023-08-24T08:18:30.750Z</time>
      </trkpt>
      <trkpt lat="43.68573" lon="1.4694">
        <ele>194.19</ele>
        <time>2023-08-24T08:18:31.776Z</time>
      </trkpt>
      <trkpt lat="43.68569" lon="1.46935">
        <ele>194.26001</ele>
        <time>2023-08-24T08:18:32.783Z</time>
      </trkpt>
      <trkpt lat="43.68565" lon="1.4693">
        <ele>194.39</ele>
        <time>2023-08-24T08:18:33.774Z</time>
      </trkpt>
      <trkpt lat="43.68557" lon="1.46917">
        <ele>194.5</ele>
        <time>2023-08-24T08:18:35.756Z</time>
      </trkpt>
      <trkpt lat="43.68554" lon="1.46901">
        <ele>194.63</ele>
        <time>2023-08-24T08:18:37.744Z</time>
      </trkpt>
      <trkpt lat="43.68554" lon="1.46881">
        <ele>194.65</ele>
        <time>2023-08-24T08:18:39.746Z</time>
      </trkpt>
      <trkpt lat="43.6855" lon="1.46861">
        <ele>194.35</ele>
        <time>2023-08-24T08:18:40.768Z</time>
      </trkpt>
      <trkpt lat="43.68546" lon="1.46851">
        <ele>193.9</ele>
        <time>2023-08-24T08:18:42.797Z</time>
      </trkpt>
      <trkpt lat="43.68541" lon="1.46843">
        <ele>193.7</ele>
        <time>2023-08-24T08:18:43.801Z</time>
      </trkpt>
      <trkpt lat="43.68533" lon="1.46826">
        <ele>193.47</ele>
        <time>2023-08-24T08:18:45.745Z</time>
      </trkpt>
      <trkpt lat="43.68528" lon="1.46818">
        <ele>193.16</ele>
        <time>2023-08-24T08:18:46.707Z</time>
      </trkpt>
      <trkpt lat="43.68523" lon="1.46812">
        <ele>193.07</ele>
        <time>2023-08-24T08:18:47.792Z</time>
      </trkpt>
      <trkpt lat="43.68518" lon="1.46806">
        <ele>192.98001</ele>
        <time>2023-08-24T08:18:48.788Z</time>
      </trkpt>
      <trkpt lat="43.68512" lon="1.46802">
        <ele>192.92</ele>
        <time>2023-08-24T08:18:49.790Z</time>
      </trkpt>
      <trkpt lat="43.68505" lon="1.46799">
        <ele>192.84</ele>
        <time>2023-08-24T08:18:50.797Z</time>
      </trkpt>
      <trkpt lat="43.68499" lon="1.46798">
        <ele>192.7</ele>
        <time>2023-08-24T08:18:51.770Z</time>
      </trkpt>
      <trkpt lat="43.68484" lon="1.46799">
        <ele>192.61</ele>
        <time>2023-08-24T08:18:53.767Z</time>
      </trkpt>
      <trkpt lat="43.68477" lon="1.46801">
        <ele>192.17</ele>
        <time>2023-08-24T08:18:54.706Z</time>
      </trkpt>
      <trkpt lat="43.68471" lon="1.46805">
        <ele>192.05</ele>
        <time>2023-08-24T08:18:55.706Z</time>
      </trkpt>
      <trkpt lat="43.68465" lon="1.4681">
        <ele>191.88</ele>
        <time>2023-08-24T08:18:56.706Z</time>
      </trkpt>
      <trkpt lat="43.6846" lon="1.46815">
        <ele>191.82</ele>
        <time>2023-08-24T08:18:57.706Z</time>
      </trkpt>
      <trkpt lat="43.68456" lon="1.46821">
        <ele>191.82</ele>
        <time>2023-08-24T08:18:58.705Z</time>
      </trkpt>
      <trkpt lat="43.68451" lon="1.46828">
        <ele>191.73999</ele>
        <time>2023-08-24T08:18:59.707Z</time>
      </trkpt>
      <trkpt lat="43.68443" lon="1.4684">
        <ele>191.70999</ele>
        <time>2023-08-24T08:19:01.705Z</time>
      </trkpt>
      <trkpt lat="43.6844" lon="1.46846">
        <ele>191.57</ele>
        <time>2023-08-24T08:19:02.705Z</time>
      </trkpt>
      <trkpt lat="43.68433" lon="1.46857">
        <ele>191.57</ele>
        <time>2023-08-24T08:19:04.747Z</time>
      </trkpt>
      <trkpt lat="43.68428" lon="1.46862">
        <ele>191.9</ele>
        <time>2023-08-24T08:19:05.801Z</time>
      </trkpt>
      <trkpt lat="43.68424" lon="1.46862">
        <ele>192.1</ele>
        <time>2023-08-24T08:19:07.705Z</time>
      </trkpt>
      <trkpt lat="43.68416" lon="1.46855">
        <ele>192.20999</ele>
        <time>2023-08-24T08:19:09.771Z</time>
      </trkpt>
      <trkpt lat="43.68408" lon="1.46844">
        <ele>192.20999</ele>
        <time>2023-08-24T08:19:11.751Z</time>
      </trkpt>
      <trkpt lat="43.68401" lon="1.46833">
        <ele>192.16</ele>
        <time>2023-08-24T08:19:13.706Z</time>
      </trkpt>
      <trkpt lat="43.68396" lon="1.46828">
        <ele>191.9</ele>
        <time>2023-08-24T08:19:14.769Z</time>
      </trkpt>
      <trkpt lat="43.68387" lon="1.46817">
        <ele>191.75</ele>
        <time>2023-08-24T08:19:16.736Z</time>
      </trkpt>
      <trkpt lat="43.68383" lon="1.46811">
        <ele>191.2</ele>
        <time>2023-08-24T08:19:18.257Z</time>
      </trkpt>
      <trkpt lat="43.68378" lon="1.46804">
        <ele>190.65</ele>
        <time>2023-08-24T08:19:19.312Z</time>
      </trkpt>
      <trkpt lat="43.68367" lon="1.46789">
        <ele>190.06</ele>
        <time>2023-08-24T08:19:20.268Z</time>
      </trkpt>
      <trkpt lat="43.68362" lon="1.46781">
        <ele>189.3</ele>
        <time>2023-08-24T08:19:21.314Z</time>
      </trkpt>
      <trkpt lat="43.68357" lon="1.46773">
        <ele>188.76001</ele>
        <time>2023-08-24T08:19:22.276Z</time>
      </trkpt>
      <trkpt lat="43.68351" lon="1.46765">
        <ele>188.26999</ele>
        <time>2023-08-24T08:19:23.336Z</time>
      </trkpt>
      <trkpt lat="43.68346" lon="1.46758">
        <ele>187.93</ele>
        <time>2023-08-24T08:19:24.429Z</time>
      </trkpt>
      <trkpt lat="43.6834" lon="1.46749">
        <ele>187.48001</ele>
        <time>2023-08-24T08:19:25.707Z</time>
      </trkpt>
      <trkpt lat="43.68334" lon="1.46741">
        <ele>186.98999</ele>
        <time>2023-08-24T08:19:26.709Z</time>
      </trkpt>
      <trkpt lat="43.68328" lon="1.46733">
        <ele>186.51001</ele>
        <time>2023-08-24T08:19:27.707Z</time>
      </trkpt>
      <trkpt lat="43.68323" lon="1.46725">
        <ele>186.05</ele>
        <time>2023-08-24T08:19:28.706Z</time>
      </trkpt>
      <trkpt lat="43.68317" lon="1.46718">
        <ele>185.66</ele>
        <time>2023-08-24T08:19:29.707Z</time>
      </trkpt>
      <trkpt lat="43.68306" lon="1.46703">
        <ele>185.35</ele>
        <time>2023-08-24T08:19:31.758Z</time>
      </trkpt>
      <trkpt lat="43.683" lon="1.46695">
        <ele>184.45</ele>
        <time>2023-08-24T08:19:32.707Z</time>
      </trkpt>
      <trkpt lat="43.68295" lon="1.46688">
        <ele>184.03</ele>
        <time>2023-08-24T08:19:33.707Z</time>
      </trkpt>
      <trkpt lat="43.68291" lon="1.46681">
        <ele>183.81</ele>
        <time>2023-08-24T08:19:34.707Z</time>
      </trkpt>
      <trkpt lat="43.68288" lon="1.46672">
        <ele>183.73001</ele>
        <time>2023-08-24T08:19:35.707Z</time>
      </trkpt>
      <trkpt lat="43.68289" lon="1.46664">
        <ele>183.31</ele>
        <time>2023-08-24T08:19:36.707Z</time>
      </trkpt>
      <trkpt lat="43.68291" lon="1.46655">
        <ele>182.91</ele>
        <time>2023-08-24T08:19:37.705Z</time>
      </trkpt>
      <trkpt lat="43.68293" lon="1.46645">
        <ele>182.53</ele>
        <time>2023-08-24T08:19:38.707Z</time>
      </trkpt>
      <trkpt lat="43.68295" lon="1.46635">
        <ele>182.20999</ele>
        <time>2023-08-24T08:19:39.707Z</time>
      </trkpt>
      <trkpt lat="43.68298" lon="1.46626">
        <ele>181.79001</ele>
        <time>2023-08-24T08:19:40.706Z</time>
      </trkpt>
      <trkpt lat="43.68301" lon="1.46615">
        <ele>181.35</ele>
        <time>2023-08-24T08:19:41.707Z</time>
      </trkpt>
      <trkpt lat="43.68303" lon="1.46605">
        <ele>180.76001</ele>
        <time>2023-08-24T08:19:42.706Z</time>
      </trkpt>
      <trkpt lat="43.68307" lon="1.46594">
        <ele>180.33</ele>
        <time>2023-08-24T08:19:43.706Z</time>
      </trkpt>
      <trkpt lat="43.6831" lon="1.46584">
        <ele>179.82</ele>
        <time>2023-08-24T08:19:44.706Z</time>
      </trkpt>
      <trkpt lat="43.68314" lon="1.46573">
        <ele>179.35</ele>
        <time>2023-08-24T08:19:45.706Z</time>
      </trkpt>
      <trkpt lat="43.68319" lon="1.46562">
        <ele>178.78</ele>
        <time>2023-08-24T08:19:46.710Z</time>
      </trkpt>
      <trkpt lat="43.68323" lon="1.46552">
        <ele>178.55</ele>
        <time>2023-08-24T08:19:47.708Z</time>
      </trkpt>
      <trkpt lat="43.68328" lon="1.46542">
        <ele>178.12</ele>
        <time>2023-08-24T08:19:48.708Z</time>
      </trkpt>
      <trkpt lat="43.6834" lon="1.4652">
        <ele>177.34</ele>
        <time>2023-08-24T08:19:50.789Z</time>
      </trkpt>
      <trkpt lat="43.68346" lon="1.4651">
        <ele>175.92</ele>
        <time>2023-08-24T08:19:51.707Z</time>
      </trkpt>
      <trkpt lat="43.6835" lon="1.46501">
        <ele>175.22</ele>
        <time>2023-08-24T08:19:52.708Z</time>
      </trkpt>
      <trkpt lat="43.68353" lon="1.46493">
        <ele>174.47</ele>
        <time>2023-08-24T08:19:53.710Z</time>
      </trkpt>
      <trkpt lat="43.68354" lon="1.46486">
        <ele>173.86</ele>
        <time>2023-08-24T08:19:54.711Z</time>
      </trkpt>
      <trkpt lat="43.68352" lon="1.4648">
        <ele>173.43</ele>
        <time>2023-08-24T08:19:55.710Z</time>
      </trkpt>
      <trkpt lat="43.68349" lon="1.46475">
        <ele>172.89</ele>
        <time>2023-08-24T08:19:56.710Z</time>
      </trkpt>
      <trkpt lat="43.68344" lon="1.46472">
        <ele>172.33</ele>
        <time>2023-08-24T08:19:57.710Z</time>
      </trkpt>
      <trkpt lat="43.68338" lon="1.46468">
        <ele>171.78</ele>
        <time>2023-08-24T08:19:58.710Z</time>
      </trkpt>
      <trkpt lat="43.68331" lon="1.46463">
        <ele>170.89</ele>
        <time>2023-08-24T08:19:59.711Z</time>
      </trkpt>
      <trkpt lat="43.68323" lon="1.46458">
        <ele>169.39</ele>
        <time>2023-08-24T08:20:00.711Z</time>
      </trkpt>
      <trkpt lat="43.68304" lon="1.46447">
        <ele>167.83</ele>
        <time>2023-08-24T08:20:02.711Z</time>
      </trkpt>
      <trkpt lat="43.68294" lon="1.46441">
        <ele>164.01999</ele>
        <time>2023-08-24T08:20:04.712Z</time>
      </trkpt>
      <trkpt lat="43.68272" lon="1.4643">
        <ele>162.12</ele>
        <time>2023-08-24T08:20:05.712Z</time>
      </trkpt>
      <trkpt lat="43.68261" lon="1.46425">
        <ele>158.18</ele>
        <time>2023-08-24T08:20:06.712Z</time>
      </trkpt>
      <trkpt lat="43.68239" lon="1.46414">
        <ele>157.08</ele>
        <time>2023-08-24T08:20:08.814Z</time>
      </trkpt>
      <trkpt lat="43.68229" lon="1.46407">
        <ele>154.42</ele>
        <time>2023-08-24T08:20:09.712Z</time>
      </trkpt>
      <trkpt lat="43.6822" lon="1.46402">
        <ele>154.23001</ele>
        <time>2023-08-24T08:20:10.711Z</time>
      </trkpt>
      <trkpt lat="43.68213" lon="1.46397">
        <ele>154.11</ele>
        <time>2023-08-24T08:20:11.811Z</time>
      </trkpt>
      <trkpt lat="43.68205" lon="1.46392">
        <ele>153.95999</ele>
        <time>2023-08-24T08:20:11.894Z</time>
      </trkpt>
      <trkpt lat="43.68198" lon="1.46387">
        <ele>154.08</ele>
        <time>2023-08-24T08:20:13.711Z</time>
      </trkpt>
      <trkpt lat="43.68193" lon="1.46381">
        <ele>154.37</ele>
        <time>2023-08-24T08:20:14.711Z</time>
      </trkpt>
      <trkpt lat="43.68191" lon="1.46375">
        <ele>154.76001</ele>
        <time>2023-08-24T08:20:15.811Z</time>
      </trkpt>
      <trkpt lat="43.6819" lon="1.46367">
        <ele>155.12</ele>
        <time>2023-08-24T08:20:16.817Z</time>
      </trkpt>
      <trkpt lat="43.68192" lon="1.46361">
        <ele>155.54001</ele>
        <time>2023-08-24T08:20:17.711Z</time>
      </trkpt>
      <trkpt lat="43.68195" lon="1.46356">
        <ele>155.98001</ele>
        <time>2023-08-24T08:20:18.812Z</time>
      </trkpt>
      <trkpt lat="43.68198" lon="1.4635">
        <ele>156.34</ele>
        <time>2023-08-24T08:20:19.811Z</time>
      </trkpt>
      <trkpt lat="43.68202" lon="1.46345">
        <ele>156.63</ele>
        <time>2023-08-24T08:20:20.823Z</time>
      </trkpt>
      <trkpt lat="43.68206" lon="1.4634">
        <ele>156.81</ele>
        <time>2023-08-24T08:20:21.811Z</time>
      </trkpt>
      <trkpt lat="43.68211" lon="1.46334">
        <ele>156.87</ele>
        <time>2023-08-24T08:20:22.712Z</time>
      </trkpt>
      <trkpt lat="43.68215" lon="1.46328">
        <ele>156.98001</ele>
        <time>2023-08-24T08:20:23.712Z</time>
      </trkpt>
      <trkpt lat="43.68219" lon="1.46323">
        <ele>157.06</ele>
        <time>2023-08-24T08:20:24.711Z</time>
      </trkpt>
      <trkpt lat="43.68223" lon="1.46316">
        <ele>157.11</ele>
        <time>2023-08-24T08:20:25.712Z</time>
      </trkpt>
      <trkpt lat="43.68227" lon="1.4631">
        <ele>157.25</ele>
        <time>2023-08-24T08:20:26.714Z</time>
      </trkpt>
      <trkpt lat="43.68231" lon="1.46304">
        <ele>157.25</ele>
        <time>2023-08-24T08:20:27.811Z</time>
      </trkpt>
      <trkpt lat="43.68235" lon="1.46297">
        <ele>157.22</ele>
        <time>2023-08-24T08:20:28.573Z</time>
      </trkpt>
      <trkpt lat="43.68238" lon="1.4629">
        <ele>157.26001</ele>
        <time>2023-08-24T08:20:29.821Z</time>
      </trkpt>
      <trkpt lat="43.68242" lon="1.46283">
        <ele>157.23999</ele>
        <time>2023-08-24T08:20:30.713Z</time>
      </trkpt>
      <trkpt lat="43.68245" lon="1.46276">
        <ele>157.23999</ele>
        <time>2023-08-24T08:20:31.814Z</time>
      </trkpt>
      <trkpt lat="43.68248" lon="1.46268">
        <ele>157.17</ele>
        <time>2023-08-24T08:20:32.815Z</time>
      </trkpt>
      <trkpt lat="43.68251" lon="1.46261">
        <ele>157.15</ele>
        <time>2023-08-24T08:20:33.640Z</time>
      </trkpt>
      <trkpt lat="43.68254" lon="1.46253">
        <ele>157.12</ele>
        <time>2023-08-24T08:20:34.824Z</time>
      </trkpt>
      <trkpt lat="43.68256" lon="1.46245">
        <ele>157.09</ele>
        <time>2023-08-24T08:20:35.815Z</time>
      </trkpt>
      <trkpt lat="43.68259" lon="1.46237">
        <ele>157.06</ele>
        <time>2023-08-24T08:20:36.656Z</time>
      </trkpt>
      <trkpt lat="43.68261" lon="1.4623">
        <ele>157.07</ele>
        <time>2023-08-24T08:20:37.823Z</time>
      </trkpt>
      <trkpt lat="43.68264" lon="1.46221">
        <ele>156.97</ele>
        <time>2023-08-24T08:20:38.820Z</time>
      </trkpt>
      <trkpt lat="43.68267" lon="1.46212">
        <ele>156.97</ele>
        <time>2023-08-24T08:20:39.729Z</time>
      </trkpt>
      <trkpt lat="43.68269" lon="1.46204">
        <ele>157</ele>
        <time>2023-08-24T08:20:40.814Z</time>
      </trkpt>
      <trkpt lat="43.68272" lon="1.46196">
        <ele>156.86</ele>
        <time>2023-08-24T08:20:41.813Z</time>
      </trkpt>
      <trkpt lat="43.68275" lon="1.46188">
        <ele>156.84</ele>
        <time>2023-08-24T08:20:42.545Z</time>
      </trkpt>
      <trkpt lat="43.68277" lon="1.46179">
        <ele>156.85</ele>
        <time>2023-08-24T08:20:43.824Z</time>
      </trkpt>
      <trkpt lat="43.68279" lon="1.46171">
        <ele>156.9</ele>
        <time>2023-08-24T08:20:44.815Z</time>
      </trkpt>
      <trkpt lat="43.68282" lon="1.46163">
        <ele>156.76001</ele>
        <time>2023-08-24T08:20:45.814Z</time>
      </trkpt>
      <trkpt lat="43.68283" lon="1.46155">
        <ele>156.76001</ele>
        <time>2023-08-24T08:20:46.814Z</time>
      </trkpt>
      <trkpt lat="43.68284" lon="1.46147">
        <ele>156.7</ele>
        <time>2023-08-24T08:20:47.815Z</time>
      </trkpt>
      <trkpt lat="43.68285" lon="1.4614">
        <ele>156.7</ele>
        <time>2023-08-24T08:20:48.814Z</time>
      </trkpt>
      <trkpt lat="43.68285" lon="1.46133">
        <ele>156.63</ele>
        <time>2023-08-24T08:20:49.836Z</time>
      </trkpt>
      <trkpt lat="43.68285" lon="1.46127">
        <ele>156.61</ele>
        <time>2023-08-24T08:20:50.829Z</time>
      </trkpt>
      <trkpt lat="43.68283" lon="1.4612">
        <ele>156.53</ele>
        <time>2023-08-24T08:20:51.813Z</time>
      </trkpt>
      <trkpt lat="43.68282" lon="1.46113">
        <ele>156.45999</ele>
        <time>2023-08-24T08:20:52.835Z</time>
      </trkpt>
      <trkpt lat="43.68281" lon="1.46105">
        <ele>156.29001</ele>
        <time>2023-08-24T08:20:53.603Z</time>
      </trkpt>
      <trkpt lat="43.6828" lon="1.46096">
        <ele>156.1</ele>
        <time>2023-08-24T08:20:54.835Z</time>
      </trkpt>
      <trkpt lat="43.6828" lon="1.46086">
        <ele>155.85</ele>
        <time>2023-08-24T08:20:54.908Z</time>
      </trkpt>
      <trkpt lat="43.6828" lon="1.46075">
        <ele>155.67</ele>
        <time>2023-08-24T08:20:56.818Z</time>
      </trkpt>
      <trkpt lat="43.6828" lon="1.46065">
        <ele>155.47</ele>
        <time>2023-08-24T08:20:57.813Z</time>
      </trkpt>
      <trkpt lat="43.68279" lon="1.46053">
        <ele>154.94</ele>
        <time>2023-08-24T08:20:58.830Z</time>
      </trkpt>
      <trkpt lat="43.68278" lon="1.46044">
        <ele>154.36</ele>
        <time>2023-08-24T08:20:59.814Z</time>
      </trkpt>
      <trkpt lat="43.68275" lon="1.4603">
        <ele>153.67</ele>
        <time>2023-08-24T08:21:00.813Z</time>
      </trkpt>
      <trkpt lat="43.6827" lon="1.46013">
        <ele>152.88</ele>
        <time>2023-08-24T08:21:02.819Z</time>
      </trkpt>
      <trkpt lat="43.68266" lon="1.45994">
        <ele>151.23999</ele>
        <time>2023-08-24T08:21:03.812Z</time>
      </trkpt>
      <trkpt lat="43.68265" lon="1.45981">
        <ele>150.53</ele>
        <time>2023-08-24T08:21:04.818Z</time>
      </trkpt>
      <trkpt lat="43.68264" lon="1.45968">
        <ele>149.83</ele>
        <time>2023-08-24T08:21:05.842Z</time>
      </trkpt>
      <trkpt lat="43.68265" lon="1.45959">
        <ele>149.18</ele>
        <time>2023-08-24T08:21:06.814Z</time>
      </trkpt>
      <trkpt lat="43.68266" lon="1.45943">
        <ele>148.63</ele>
        <time>2023-08-24T08:21:07.814Z</time>
      </trkpt>
      <trkpt lat="43.68267" lon="1.45931">
        <ele>148.25</ele>
        <time>2023-08-24T08:21:08.824Z</time>
      </trkpt>
      <trkpt lat="43.68268" lon="1.45921">
        <ele>147.95999</ele>
        <time>2023-08-24T08:21:09.817Z</time>
      </trkpt>
      <trkpt lat="43.68269" lon="1.45913">
        <ele>147.72</ele>
        <time>2023-08-24T08:21:10.818Z</time>
      </trkpt>
      <trkpt lat="43.68269" lon="1.45907">
        <ele>147.56</ele>
        <time>2023-08-24T08:21:11.814Z</time>
      </trkpt>
      <trkpt lat="43.68269" lon="1.45902">
        <ele>147.35</ele>
        <time>2023-08-24T08:21:12.841Z</time>
      </trkpt>
      <trkpt lat="43.68269" lon="1.45899">
        <ele>147.16</ele>
        <time>2023-08-24T08:21:13.838Z</time>
      </trkpt>
      <trkpt lat="43.68268" lon="1.45896">
        <ele>146.97</ele>
        <time>2023-08-24T08:21:14.816Z</time>
      </trkpt>
      <trkpt lat="43.68268" lon="1.45893">
        <ele>146.84</ele>
        <time>2023-08-24T08:21:15.819Z</time>
      </trkpt>
      <trkpt lat="43.68269" lon="1.45889">
        <ele>146.67</ele>
        <time>2023-08-24T08:21:16.414Z</time>
      </trkpt>
      <trkpt lat="43.68269" lon="1.45884">
        <ele>146.5</ele>
        <time>2023-08-24T08:21:17.817Z</time>
      </trkpt>
      <trkpt lat="43.68269" lon="1.45879">
        <ele>146.32</ele>
        <time>2023-08-24T08:21:18.572Z</time>
      </trkpt>
      <trkpt lat="43.6827" lon="1.45877">
        <ele>146.08</ele>
        <time>2023-08-24T08:21:19.846Z</time>
      </trkpt>
      <trkpt lat="43.6827" lon="1.45871">
        <ele>145.9</ele>
        <time>2023-08-24T08:21:20.425Z</time>
      </trkpt>
      <trkpt lat="43.6827" lon="1.45865">
        <ele>145.69</ele>
        <time>2023-08-24T08:21:21.480Z</time>
      </trkpt>
      <trkpt lat="43.6827" lon="1.45861">
        <ele>145.53</ele>
        <time>2023-08-24T08:21:22.828Z</time>
      </trkpt>
      <trkpt lat="43.68271" lon="1.45852">
        <ele>145.23999</ele>
        <time>2023-08-24T08:21:23.838Z</time>
      </trkpt>
      <trkpt lat="43.68272" lon="1.45841">
        <ele>145.09</ele>
        <time>2023-08-24T08:21:24.823Z</time>
      </trkpt>
      <trkpt lat="43.68273" lon="1.45824">
        <ele>144.94</ele>
        <time>2023-08-24T08:21:25.630Z</time>
      </trkpt>
      <trkpt lat="43.68273" lon="1.45815">
        <ele>144.86</ele>
        <time>2023-08-24T08:21:26.835Z</time>
      </trkpt>
      <trkpt lat="43.68273" lon="1.45806">
        <ele>144.73</ele>
        <time>2023-08-24T08:21:27.817Z</time>
      </trkpt>
      <trkpt lat="43.68274" lon="1.45797">
        <ele>144.54001</ele>
        <time>2023-08-24T08:21:28.817Z</time>
      </trkpt>
      <trkpt lat="43.68274" lon="1.45788">
        <ele>144.38</ele>
        <time>2023-08-24T08:21:29.834Z</time>
      </trkpt>
      <trkpt lat="43.68274" lon="1.45779">
        <ele>144.28</ele>
        <time>2023-08-24T08:21:30.482Z</time>
      </trkpt>
      <trkpt lat="43.68275" lon="1.4577">
        <ele>144.07</ele>
        <time>2023-08-24T08:21:31.818Z</time>
      </trkpt>
      <trkpt lat="43.68275" lon="1.45761">
        <ele>143.95999</ele>
        <time>2023-08-24T08:21:32.839Z</time>
      </trkpt>
      <trkpt lat="43.68276" lon="1.45751">
        <ele>143.78</ele>
        <time>2023-08-24T08:21:33.825Z</time>
      </trkpt>
      <trkpt lat="43.68277" lon="1.45741">
        <ele>143.73</ele>
        <time>2023-08-24T08:21:34.860Z</time>
      </trkpt>
      <trkpt lat="43.68277" lon="1.45731">
        <ele>143.51</ele>
        <time>2023-08-24T08:21:35.826Z</time>
      </trkpt>
      <trkpt lat="43.68278" lon="1.45722">
        <ele>143.24</ele>
        <time>2023-08-24T08:21:36.824Z</time>
      </trkpt>
      <trkpt lat="43.68278" lon="1.45711">
        <ele>142.9</ele>
        <time>2023-08-24T08:21:37.444Z</time>
      </trkpt>
      <trkpt lat="43.68279" lon="1.45704">
        <ele>142.7</ele>
        <time>2023-08-24T08:21:38.834Z</time>
      </trkpt>
      <trkpt lat="43.6828" lon="1.45691">
        <ele>142.42</ele>
        <time>2023-08-24T08:21:39.856Z</time>
      </trkpt>
      <trkpt lat="43.6828" lon="1.45681">
        <ele>142.2</ele>
        <time>2023-08-24T08:21:40.844Z</time>
      </trkpt>
      <trkpt lat="43.6828" lon="1.45671">
        <ele>141.92</ele>
        <time>2023-08-24T08:21:41.860Z</time>
      </trkpt>
      <trkpt lat="43.68279" lon="1.45661">
        <ele>141.74</ele>
        <time>2023-08-24T08:21:42.828Z</time>
      </trkpt>
      <trkpt lat="43.68278" lon="1.45654">
        <ele>141.66</ele>
        <time>2023-08-24T08:21:43.818Z</time>
      </trkpt>
      <trkpt lat="43.68277" lon="1.45641">
        <ele>141.6</ele>
        <time>2023-08-24T08:21:44.838Z</time>
      </trkpt>
      <trkpt lat="43.68275" lon="1.45631">
        <ele>141.43</ele>
        <time>2023-08-24T08:21:45.466Z</time>
      </trkpt>
      <trkpt lat="43.68274" lon="1.45621">
        <ele>141.34</ele>
        <time>2023-08-24T08:21:46.829Z</time>
      </trkpt>
      <trkpt lat="43.68272" lon="1.45611">
        <ele>141.4</ele>
        <time>2023-08-24T08:21:47.831Z</time>
      </trkpt>
      <trkpt lat="43.6827" lon="1.45602">
        <ele>141.20999</ele>
        <time>2023-08-24T08:21:48.817Z</time>
      </trkpt>
      <trkpt lat="43.68268" lon="1.45592">
        <ele>141.14</ele>
        <time>2023-08-24T08:21:49.827Z</time>
      </trkpt>
      <trkpt lat="43.68264" lon="1.45573">
        <ele>141.11</ele>
        <time>2023-08-24T08:21:51.818Z</time>
      </trkpt>
      <trkpt lat="43.68261" lon="1.45563">
        <ele>141.16</ele>
        <time>2023-08-24T08:21:52.456Z</time>
      </trkpt>
      <trkpt lat="43.68259" lon="1.45555">
        <ele>140.94</ele>
        <time>2023-08-24T08:21:53.822Z</time>
      </trkpt>
      <trkpt lat="43.68257" lon="1.45545">
        <ele>140.73</ele>
        <time>2023-08-24T08:21:54.833Z</time>
      </trkpt>
      <trkpt lat="43.68255" lon="1.45536">
        <ele>140.6</ele>
        <time>2023-08-24T08:21:55.855Z</time>
      </trkpt>
      <trkpt lat="43.68253" lon="1.45528">
        <ele>140.5</ele>
        <time>2023-08-24T08:21:56.841Z</time>
      </trkpt>
      <trkpt lat="43.6825" lon="1.45518">
        <ele>140.34</ele>
        <time>2023-08-24T08:21:57.846Z</time>
      </trkpt>
      <trkpt lat="43.68248" lon="1.4551">
        <ele>140.28</ele>
        <time>2023-08-24T08:21:58.850Z</time>
      </trkpt>
      <trkpt lat="43.68245" lon="1.45501">
        <ele>140.13</ele>
        <time>2023-08-24T08:21:59.821Z</time>
      </trkpt>
      <trkpt lat="43.68243" lon="1.45492">
        <ele>139.92</ele>
        <time>2023-08-24T08:22:00.821Z</time>
      </trkpt>
      <trkpt lat="43.6824" lon="1.45484">
        <ele>139.73</ele>
        <time>2023-08-24T08:22:01.865Z</time>
      </trkpt>
      <trkpt lat="43.68235" lon="1.45467">
        <ele>139.59</ele>
        <time>2023-08-24T08:22:03.831Z</time>
      </trkpt>
      <trkpt lat="43.68232" lon="1.45458">
        <ele>139.63</ele>
        <time>2023-08-24T08:22:04.827Z</time>
      </trkpt>
      <trkpt lat="43.68229" lon="1.4545">
        <ele>139.64</ele>
        <time>2023-08-24T08:22:05.830Z</time>
      </trkpt>
      <trkpt lat="43.68227" lon="1.45441">
        <ele>139.47</ele>
        <time>2023-08-24T08:22:06.823Z</time>
      </trkpt>
      <trkpt lat="43.68224" lon="1.45433">
        <ele>139.34</ele>
        <time>2023-08-24T08:22:07.825Z</time>
      </trkpt>
      <trkpt lat="43.68221" lon="1.45425">
        <ele>139.36</ele>
        <time>2023-08-24T08:22:08.830Z</time>
      </trkpt>
      <trkpt lat="43.68219" lon="1.45417">
        <ele>139.37</ele>
        <time>2023-08-24T08:22:09.853Z</time>
      </trkpt>
      <trkpt lat="43.68218" lon="1.45409">
        <ele>139.38</ele>
        <time>2023-08-24T08:22:10.857Z</time>
      </trkpt>
      <trkpt lat="43.68216" lon="1.45401">
        <ele>139.45</ele>
        <time>2023-08-24T08:22:11.850Z</time>
      </trkpt>
      <trkpt lat="43.68214" lon="1.45393">
        <ele>139.42</ele>
        <time>2023-08-24T08:22:12.821Z</time>
      </trkpt>
      <trkpt lat="43.68212" lon="1.45384">
        <ele>139.35</ele>
        <time>2023-08-24T08:22:13.844Z</time>
      </trkpt>
      <trkpt lat="43.68209" lon="1.45376">
        <ele>139.24</ele>
        <time>2023-08-24T08:22:14.852Z</time>
      </trkpt>
      <trkpt lat="43.68207" lon="1.45368">
        <ele>139.13</ele>
        <time>2023-08-24T08:22:15.818Z</time>
      </trkpt>
      <trkpt lat="43.68205" lon="1.4536">
        <ele>138.95999</ele>
        <time>2023-08-24T08:22:16.818Z</time>
      </trkpt>
      <trkpt lat="43.68203" lon="1.45352">
        <ele>138.85</ele>
        <time>2023-08-24T08:22:17.818Z</time>
      </trkpt>
      <trkpt lat="43.68201" lon="1.45344">
        <ele>138.69</ele>
        <time>2023-08-24T08:22:18.833Z</time>
      </trkpt>
      <trkpt lat="43.68198" lon="1.45335">
        <ele>138.47</ele>
        <time>2023-08-24T08:22:19.834Z</time>
      </trkpt>
      <trkpt lat="43.68196" lon="1.45327">
        <ele>138.32</ele>
        <time>2023-08-24T08:22:20.818Z</time>
      </trkpt>
      <trkpt lat="43.68194" lon="1.45318">
        <ele>138.24</ele>
        <time>2023-08-24T08:22:21.842Z</time>
      </trkpt>
      <trkpt lat="43.68192" lon="1.45309">
        <ele>138.24</ele>
        <time>2023-08-24T08:22:22.819Z</time>
      </trkpt>
      <trkpt lat="43.68189" lon="1.45301">
        <ele>138.13</ele>
        <time>2023-08-24T08:22:23.872Z</time>
      </trkpt>
      <trkpt lat="43.68187" lon="1.45292">
        <ele>138.01</ele>
        <time>2023-08-24T08:22:24.827Z</time>
      </trkpt>
      <trkpt lat="43.68185" lon="1.45284">
        <ele>137.83</ele>
        <time>2023-08-24T08:22:25.903Z</time>
      </trkpt>
      <trkpt lat="43.68183" lon="1.45276">
        <ele>137.67</ele>
        <time>2023-08-24T08:22:26.874Z</time>
      </trkpt>
      <trkpt lat="43.68181" lon="1.45269">
        <ele>137.48</ele>
        <time>2023-08-24T08:22:27.851Z</time>
      </trkpt>
      <trkpt lat="43.68179" lon="1.45262">
        <ele>137.4</ele>
        <time>2023-08-24T08:22:28.842Z</time>
      </trkpt>
      <trkpt lat="43.68176" lon="1.45251">
        <ele>137.43</ele>
        <time>2023-08-24T08:22:30.893Z</time>
      </trkpt>
      <trkpt lat="43.68174" lon="1.45239">
        <ele>137.55</ele>
        <time>2023-08-24T08:22:31.823Z</time>
      </trkpt>
      <trkpt lat="43.68171" lon="1.45232">
        <ele>137.63</ele>
        <time>2023-08-24T08:22:32.844Z</time>
      </trkpt>
      <trkpt lat="43.68169" lon="1.45225">
        <ele>137.6</ele>
        <time>2023-08-24T08:22:33.837Z</time>
      </trkpt>
      <trkpt lat="43.68166" lon="1.45211">
        <ele>137.55</ele>
        <time>2023-08-24T08:22:35.819Z</time>
      </trkpt>
      <trkpt lat="43.68163" lon="1.45206">
        <ele>137.6</ele>
        <time>2023-08-24T08:22:36.850Z</time>
      </trkpt>
      <trkpt lat="43.68161" lon="1.45205">
        <ele>137.59</ele>
        <time>2023-08-24T08:22:37.738Z</time>
      </trkpt>
      <trkpt lat="43.68158" lon="1.45205">
        <ele>137.59</ele>
        <time>2023-08-24T08:22:38.845Z</time>
      </trkpt>
      <trkpt lat="43.68155" lon="1.45208">
        <ele>137.64</ele>
        <time>2023-08-24T08:22:39.821Z</time>
      </trkpt>
      <trkpt lat="43.68151" lon="1.4521">
        <ele>137.70999</ele>
        <time>2023-08-24T08:22:40.836Z</time>
      </trkpt>
      <trkpt lat="43.68147" lon="1.45214">
        <ele>137.7</ele>
        <time>2023-08-24T08:22:41.845Z</time>
      </trkpt>
      <trkpt lat="43.68143" lon="1.45219">
        <ele>137.7</ele>
        <time>2023-08-24T08:22:41.934Z</time>
      </trkpt>
      <trkpt lat="43.68139" lon="1.45223">
        <ele>137.72</ele>
        <time>2023-08-24T08:22:43.834Z</time>
      </trkpt>
      <trkpt lat="43.68134" lon="1.45227">
        <ele>137.75</ele>
        <time>2023-08-24T08:22:44.838Z</time>
      </trkpt>
      <trkpt lat="43.6813" lon="1.4523">
        <ele>137.79001</ele>
        <time>2023-08-24T08:22:44.946Z</time>
      </trkpt>
      <trkpt lat="43.68126" lon="1.45234">
        <ele>137.75</ele>
        <time>2023-08-24T08:22:46.829Z</time>
      </trkpt>
      <trkpt lat="43.68122" lon="1.45238">
        <ele>137.74</ele>
        <time>2023-08-24T08:22:47.834Z</time>
      </trkpt>
      <trkpt lat="43.68117" lon="1.45242">
        <ele>137.75</ele>
        <time>2023-08-24T08:22:48.920Z</time>
      </trkpt>
      <trkpt lat="43.68113" lon="1.45246">
        <ele>137.83</ele>
        <time>2023-08-24T08:22:49.700Z</time>
      </trkpt>
      <trkpt lat="43.68109" lon="1.45251">
        <ele>137.81</ele>
        <time>2023-08-24T08:22:50.820Z</time>
      </trkpt>
      <trkpt lat="43.68105" lon="1.45255">
        <ele>137.85</ele>
        <time>2023-08-24T08:22:51.829Z</time>
      </trkpt>
      <trkpt lat="43.681" lon="1.45259">
        <ele>137.79001</ele>
        <time>2023-08-24T08:22:51.958Z</time>
      </trkpt>
      <trkpt lat="43.68095" lon="1.45264">
        <ele>137.75</ele>
        <time>2023-08-24T08:22:53.919Z</time>
      </trkpt>
      <trkpt lat="43.6809" lon="1.45268">
        <ele>137.73</ele>
        <time>2023-08-24T08:22:54.643Z</time>
      </trkpt>
      <trkpt lat="43.68085" lon="1.45272">
        <ele>137.7</ele>
        <time>2023-08-24T08:22:55.821Z</time>
      </trkpt>
      <trkpt lat="43.68081" lon="1.45277">
        <ele>137.7</ele>
        <time>2023-08-24T08:22:56.840Z</time>
      </trkpt>
      <trkpt lat="43.68076" lon="1.45281">
        <ele>137.70999</ele>
        <time>2023-08-24T08:22:57.919Z</time>
      </trkpt>
      <trkpt lat="43.68071" lon="1.45286">
        <ele>137.68</ele>
        <time>2023-08-24T08:22:57.976Z</time>
      </trkpt>
      <trkpt lat="43.68066" lon="1.4529">
        <ele>137.66</ele>
        <time>2023-08-24T08:22:59.835Z</time>
      </trkpt>
      <trkpt lat="43.68061" lon="1.45295">
        <ele>137.58</ele>
        <time>2023-08-24T08:23:00.923Z</time>
      </trkpt>
      <trkpt lat="43.68057" lon="1.45299">
        <ele>137.53</ele>
        <time>2023-08-24T08:23:01.539Z</time>
      </trkpt>
      <trkpt lat="43.68052" lon="1.45303">
        <ele>137.5</ele>
        <time>2023-08-24T08:23:02.519Z</time>
      </trkpt>
      <trkpt lat="43.68047" lon="1.45307">
        <ele>137.44</ele>
        <time>2023-08-24T08:23:03.930Z</time>
      </trkpt>
      <trkpt lat="43.68042" lon="1.45311">
        <ele>137.4</ele>
        <time>2023-08-24T08:23:04.538Z</time>
      </trkpt>
      <trkpt lat="43.68037" lon="1.45315">
        <ele>137.36</ele>
        <time>2023-08-24T08:23:05.537Z</time>
      </trkpt>
      <trkpt lat="43.68032" lon="1.4532">
        <ele>137.24</ele>
        <time>2023-08-24T08:23:06.546Z</time>
      </trkpt>
      <trkpt lat="43.68027" lon="1.45323">
        <ele>137.12</ele>
        <time>2023-08-24T08:23:07.493Z</time>
      </trkpt>
      <trkpt lat="43.68022" lon="1.45327">
        <ele>137.01</ele>
        <time>2023-08-24T08:23:08.919Z</time>
      </trkpt>
      <trkpt lat="43.68018" lon="1.45331">
        <ele>136.95999</ele>
        <time>2023-08-24T08:23:08.959Z</time>
      </trkpt>
      <trkpt lat="43.68013" lon="1.45334">
        <ele>136.92</ele>
        <time>2023-08-24T08:23:10.547Z</time>
      </trkpt>
      <trkpt lat="43.68009" lon="1.45337">
        <ele>136.86</ele>
        <time>2023-08-24T08:23:11.824Z</time>
      </trkpt>
      <trkpt lat="43.68003" lon="1.45341">
        <ele>136.79001</ele>
        <time>2023-08-24T08:23:11.954Z</time>
      </trkpt>
      <trkpt lat="43.67999" lon="1.45344">
        <ele>136.68</ele>
        <time>2023-08-24T08:23:13.548Z</time>
      </trkpt>
      <trkpt lat="43.67994" lon="1.45348">
        <ele>136.65</ele>
        <time>2023-08-24T08:23:14.517Z</time>
      </trkpt>
      <trkpt lat="43.67989" lon="1.45351">
        <ele>136.52</ele>
        <time>2023-08-24T08:23:14.971Z</time>
      </trkpt>
      <trkpt lat="43.67984" lon="1.45356">
        <ele>136.43</ele>
        <time>2023-08-24T08:23:16.918Z</time>
      </trkpt>
      <trkpt lat="43.67979" lon="1.4536">
        <ele>136.36</ele>
        <time>2023-08-24T08:23:17.922Z</time>
      </trkpt>
      <trkpt lat="43.67974" lon="1.45363">
        <ele>136.28</ele>
        <time>2023-08-24T08:23:17.959Z</time>
      </trkpt>
      <trkpt lat="43.67969" lon="1.45367">
        <ele>136.20999</ele>
        <time>2023-08-24T08:23:19.949Z</time>
      </trkpt>
      <trkpt lat="43.67964" lon="1.4537">
        <ele>136.20999</ele>
        <time>2023-08-24T08:23:20.917Z</time>
      </trkpt>
      <trkpt lat="43.67958" lon="1.45373">
        <ele>136.11</ele>
        <time>2023-08-24T08:23:21.939Z</time>
      </trkpt>
      <trkpt lat="43.67954" lon="1.45375">
        <ele>136.12</ele>
        <time>2023-08-24T08:23:22.005Z</time>
      </trkpt>
      <trkpt lat="43.67949" lon="1.45377">
        <ele>136.12</ele>
        <time>2023-08-24T08:23:23.541Z</time>
      </trkpt>
      <trkpt lat="43.67944" lon="1.45379">
        <ele>136.02</ele>
        <time>2023-08-24T08:23:24.013Z</time>
      </trkpt>
      <trkpt lat="43.67939" lon="1.45382">
        <ele>136.04001</ele>
        <time>2023-08-24T08:23:25.938Z</time>
      </trkpt>
      <trkpt lat="43.67934" lon="1.45385">
        <ele>136.06</ele>
        <time>2023-08-24T08:23:26.917Z</time>
      </trkpt>
      <trkpt lat="43.6793" lon="1.45388">
        <ele>136.07</ele>
        <time>2023-08-24T08:23:26.964Z</time>
      </trkpt>
      <trkpt lat="43.67925" lon="1.45392">
        <ele>136.08</ele>
        <time>2023-08-24T08:23:28.829Z</time>
      </trkpt>
      <trkpt lat="43.67921" lon="1.45396">
        <ele>136.1</ele>
        <time>2023-08-24T08:23:29.917Z</time>
      </trkpt>
      <trkpt lat="43.67916" lon="1.454">
        <ele>136.13</ele>
        <time>2023-08-24T08:23:29.969Z</time>
      </trkpt>
      <trkpt lat="43.67911" lon="1.45404">
        <ele>136.15</ele>
        <time>2023-08-24T08:23:31.828Z</time>
      </trkpt>
      <trkpt lat="43.67907" lon="1.45407">
        <ele>136.17</ele>
        <time>2023-08-24T08:23:32.945Z</time>
      </trkpt>
      <trkpt lat="43.67902" lon="1.45411">
        <ele>136.16</ele>
        <time>2023-08-24T08:23:33.529Z</time>
      </trkpt>
      <trkpt lat="43.67898" lon="1.45413">
        <ele>136.17</ele>
        <time>2023-08-24T08:23:34.580Z</time>
      </trkpt>
      <trkpt lat="43.67894" lon="1.45417">
        <ele>136.14</ele>
        <time>2023-08-24T08:23:35.882Z</time>
      </trkpt>
      <trkpt lat="43.6789" lon="1.45421">
        <ele>136.13</ele>
        <time>2023-08-24T08:23:36.918Z</time>
      </trkpt>
      <trkpt lat="43.67886" lon="1.45424">
        <ele>136.13</ele>
        <time>2023-08-24T08:23:36.988Z</time>
      </trkpt>
      <trkpt lat="43.67882" lon="1.45428">
        <ele>136.18</ele>
        <time>2023-08-24T08:23:38.918Z</time>
      </trkpt>
      <trkpt lat="43.67878" lon="1.45432">
        <ele>136.20999</ele>
        <time>2023-08-24T08:23:39.933Z</time>
      </trkpt>
      <trkpt lat="43.6787" lon="1.45438">
        <ele>136.17</ele>
        <time>2023-08-24T08:23:41.940Z</time>
      </trkpt>
      <trkpt lat="43.67865" lon="1.45441">
        <ele>136.13</ele>
        <time>2023-08-24T08:23:41.988Z</time>
      </trkpt>
      <trkpt lat="43.67862" lon="1.45444">
        <ele>136.18</ele>
        <time>2023-08-24T08:23:43.944Z</time>
      </trkpt>
      <trkpt lat="43.6786" lon="1.45446">
        <ele>136.23</ele>
        <time>2023-08-24T08:23:44.918Z</time>
      </trkpt>
      <trkpt lat="43.67857" lon="1.45445">
        <ele>136.28</ele>
        <time>2023-08-24T08:23:45.970Z</time>
      </trkpt>
      <trkpt lat="43.67855" lon="1.45444">
        <ele>136.31</ele>
        <time>2023-08-24T08:23:46.926Z</time>
      </trkpt>
      <trkpt lat="43.67853" lon="1.45441">
        <ele>136.36</ele>
        <time>2023-08-24T08:23:47.929Z</time>
      </trkpt>
      <trkpt lat="43.67851" lon="1.45439">
        <ele>136.37</ele>
        <time>2023-08-24T08:23:48.941Z</time>
      </trkpt>
      <trkpt lat="43.67848" lon="1.45437">
        <ele>136.3</ele>
        <time>2023-08-24T08:23:49.816Z</time>
      </trkpt>
      <trkpt lat="43.67849" lon="1.45437">
        <ele>136.23</ele>
        <time>2023-08-24T08:23:50.928Z</time>
      </trkpt>
      <trkpt lat="43.67847" lon="1.45436">
        <ele>136.2</ele>
        <time>2023-08-24T08:23:51.979Z</time>
      </trkpt>
      <trkpt lat="43.67844" lon="1.45433">
        <ele>136.11</ele>
        <time>2023-08-24T08:23:52.963Z</time>
      </trkpt>
      <trkpt lat="43.6784" lon="1.4543">
        <ele>136.03</ele>
        <time>2023-08-24T08:23:53.980Z</time>
      </trkpt>
      <trkpt lat="43.67836" lon="1.45428">
        <ele>135.94</ele>
        <time>2023-08-24T08:23:54.945Z</time>
      </trkpt>
      <trkpt lat="43.67818" lon="1.45414">
        <ele>135.74</ele>
        <time>2023-08-24T08:23:55.932Z</time>
      </trkpt>
      <trkpt lat="43.67812" lon="1.4541">
        <ele>135.51</ele>
        <time>2023-08-24T08:23:56.983Z</time>
      </trkpt>
      <trkpt lat="43.67807" lon="1.45405">
        <ele>135.34</ele>
        <time>2023-08-24T08:23:57.930Z</time>
      </trkpt>
      <trkpt lat="43.67802" lon="1.45401">
        <ele>135.22</ele>
        <time>2023-08-24T08:23:58.932Z</time>
      </trkpt>
      <trkpt lat="43.67797" lon="1.45397">
        <ele>135.15</ele>
        <time>2023-08-24T08:23:59.963Z</time>
      </trkpt>
      <trkpt lat="43.67791" lon="1.45393">
        <ele>135.09</ele>
        <time>2023-08-24T08:24:00.712Z</time>
      </trkpt>
      <trkpt lat="43.67786" lon="1.45389">
        <ele>135.08</ele>
        <time>2023-08-24T08:24:01.972Z</time>
      </trkpt>
      <trkpt lat="43.6778" lon="1.45385">
        <ele>135.03</ele>
        <time>2023-08-24T08:24:02.929Z</time>
      </trkpt>
      <trkpt lat="43.67775" lon="1.45381">
        <ele>135.05</ele>
        <time>2023-08-24T08:24:03.945Z</time>
      </trkpt>
      <trkpt lat="43.67769" lon="1.45376">
        <ele>135.03</ele>
        <time>2023-08-24T08:24:04.644Z</time>
      </trkpt>
      <trkpt lat="43.67763" lon="1.45372">
        <ele>135.07</ele>
        <time>2023-08-24T08:24:05.948Z</time>
      </trkpt>
      <trkpt lat="43.67758" lon="1.45367">
        <ele>135.08</ele>
        <time>2023-08-24T08:24:06.948Z</time>
      </trkpt>
      <trkpt lat="43.67752" lon="1.45363">
        <ele>135.03</ele>
        <time>2023-08-24T08:24:07.006Z</time>
      </trkpt>
      <trkpt lat="43.67747" lon="1.45358">
        <ele>134.95</ele>
        <time>2023-08-24T08:24:08.920Z</time>
      </trkpt>
      <trkpt lat="43.67741" lon="1.45353">
        <ele>134.81</ele>
        <time>2023-08-24T08:24:09.013Z</time>
      </trkpt>
      <trkpt lat="43.67736" lon="1.45349">
        <ele>134.8</ele>
        <time>2023-08-24T08:24:10.920Z</time>
      </trkpt>
      <trkpt lat="43.6773" lon="1.45344">
        <ele>134.69</ele>
        <time>2023-08-24T08:24:11.920Z</time>
      </trkpt>
      <trkpt lat="43.67725" lon="1.4534">
        <ele>134.68</ele>
        <time>2023-08-24T08:24:12.919Z</time>
      </trkpt>
      <trkpt lat="43.67719" lon="1.45335">
        <ele>134.59</ele>
        <time>2023-08-24T08:24:13.933Z</time>
      </trkpt>
      <trkpt lat="43.67713" lon="1.45332">
        <ele>134.57</ele>
        <time>2023-08-24T08:24:14.939Z</time>
      </trkpt>
      <trkpt lat="43.67707" lon="1.45329">
        <ele>134.55</ele>
        <time>2023-08-24T08:24:15.954Z</time>
      </trkpt>
      <trkpt lat="43.67701" lon="1.45327">
        <ele>134.6</ele>
        <time>2023-08-24T08:24:16.967Z</time>
      </trkpt>
      <trkpt lat="43.67696" lon="1.45325">
        <ele>134.64</ele>
        <time>2023-08-24T08:24:17.056Z</time>
      </trkpt>
      <trkpt lat="43.6769" lon="1.45324">
        <ele>134.6</ele>
        <time>2023-08-24T08:24:18.919Z</time>
      </trkpt>
      <trkpt lat="43.67683" lon="1.45322">
        <ele>134.57</ele>
        <time>2023-08-24T08:24:19.930Z</time>
      </trkpt>
      <trkpt lat="43.67678" lon="1.45321">
        <ele>134.5</ele>
        <time>2023-08-24T08:24:20.942Z</time>
      </trkpt>
      <trkpt lat="43.67672" lon="1.45319">
        <ele>134.58</ele>
        <time>2023-08-24T08:24:21.980Z</time>
      </trkpt>
      <trkpt lat="43.67666" lon="1.45318">
        <ele>134.61</ele>
        <time>2023-08-24T08:24:22.932Z</time>
      </trkpt>
      <trkpt lat="43.6766" lon="1.45317">
        <ele>134.66</ele>
        <time>2023-08-24T08:24:23.919Z</time>
      </trkpt>
      <trkpt lat="43.67654" lon="1.45317">
        <ele>134.61</ele>
        <time>2023-08-24T08:24:24.918Z</time>
      </trkpt>
      <trkpt lat="43.67648" lon="1.45316">
        <ele>134.55</ele>
        <time>2023-08-24T08:24:25.931Z</time>
      </trkpt>
      <trkpt lat="43.67642" lon="1.45316">
        <ele>134.53</ele>
        <time>2023-08-24T08:24:26.980Z</time>
      </trkpt>
      <trkpt lat="43.67636" lon="1.45315">
        <ele>134.61</ele>
        <time>2023-08-24T08:24:27.952Z</time>
      </trkpt>
      <trkpt lat="43.6763" lon="1.45316">
        <ele>134.6</ele>
        <time>2023-08-24T08:24:29.018Z</time>
      </trkpt>
      <trkpt lat="43.67625" lon="1.45316">
        <ele>134.62</ele>
        <time>2023-08-24T08:24:29.894Z</time>
      </trkpt>
      <trkpt lat="43.67619" lon="1.45316">
        <ele>134.61</ele>
        <time>2023-08-24T08:24:30.919Z</time>
      </trkpt>
      <trkpt lat="43.67612" lon="1.45315">
        <ele>134.62</ele>
        <time>2023-08-24T08:24:31.918Z</time>
      </trkpt>
      <trkpt lat="43.67607" lon="1.45316">
        <ele>134.53</ele>
        <time>2023-08-24T08:24:32.918Z</time>
      </trkpt>
      <trkpt lat="43.67601" lon="1.45317">
        <ele>134.44</ele>
        <time>2023-08-24T08:24:33.983Z</time>
      </trkpt>
      <trkpt lat="43.67596" lon="1.45319">
        <ele>134.45</ele>
        <time>2023-08-24T08:24:34.948Z</time>
      </trkpt>
      <trkpt lat="43.6759" lon="1.45322">
        <ele>134.51</ele>
        <time>2023-08-24T08:24:35.966Z</time>
      </trkpt>
      <trkpt lat="43.67585" lon="1.45325">
        <ele>134.49</ele>
        <time>2023-08-24T08:24:36.951Z</time>
      </trkpt>
      <trkpt lat="43.67579" lon="1.45328">
        <ele>134.49</ele>
        <time>2023-08-24T08:24:37.979Z</time>
      </trkpt>
      <trkpt lat="43.67574" lon="1.45332">
        <ele>134.51</ele>
        <time>2023-08-24T08:24:38.917Z</time>
      </trkpt>
      <trkpt lat="43.67568" lon="1.45336">
        <ele>134.57</ele>
        <time>2023-08-24T08:24:40.030Z</time>
      </trkpt>
      <trkpt lat="43.67562" lon="1.4534">
        <ele>134.59</ele>
        <time>2023-08-24T08:24:41.046Z</time>
      </trkpt>
      <trkpt lat="43.67557" lon="1.45344">
        <ele>134.53</ele>
        <time>2023-08-24T08:24:42.019Z</time>
      </trkpt>
      <trkpt lat="43.67552" lon="1.45348">
        <ele>134.56</ele>
        <time>2023-08-24T08:24:43.043Z</time>
      </trkpt>
      <trkpt lat="43.67546" lon="1.45353">
        <ele>134.63</ele>
        <time>2023-08-24T08:24:43.977Z</time>
      </trkpt>
      <trkpt lat="43.67542" lon="1.45357">
        <ele>134.74</ele>
        <time>2023-08-24T08:24:45.023Z</time>
      </trkpt>
      <trkpt lat="43.67537" lon="1.45362">
        <ele>134.70999</ele>
        <time>2023-08-24T08:24:46.030Z</time>
      </trkpt>
      <trkpt lat="43.67532" lon="1.45367">
        <ele>134.7</ele>
        <time>2023-08-24T08:24:46.974Z</time>
      </trkpt>
      <trkpt lat="43.67526" lon="1.45371">
        <ele>134.73</ele>
        <time>2023-08-24T08:24:48.038Z</time>
      </trkpt>
      <trkpt lat="43.67521" lon="1.45376">
        <ele>134.79001</ele>
        <time>2023-08-24T08:24:49.016Z</time>
      </trkpt>
      <trkpt lat="43.67516" lon="1.4538">
        <ele>134.83</ele>
        <time>2023-08-24T08:24:50.018Z</time>
      </trkpt>
      <trkpt lat="43.6751" lon="1.45385">
        <ele>134.87</ele>
        <time>2023-08-24T08:24:50.917Z</time>
      </trkpt>
      <trkpt lat="43.67504" lon="1.45388">
        <ele>134.95999</ele>
        <time>2023-08-24T08:24:52.024Z</time>
      </trkpt>
      <trkpt lat="43.67498" lon="1.45389">
        <ele>134.94</ele>
        <time>2023-08-24T08:24:53.029Z</time>
      </trkpt>
      <trkpt lat="43.67492" lon="1.45388">
        <ele>134.83</ele>
        <time>2023-08-24T08:24:53.749Z</time>
      </trkpt>
      <trkpt lat="43.67486" lon="1.45385">
        <ele>134.79001</ele>
        <time>2023-08-24T08:24:54.987Z</time>
      </trkpt>
      <trkpt lat="43.6748" lon="1.45381">
        <ele>134.78</ele>
        <time>2023-08-24T08:24:55.957Z</time>
      </trkpt>
      <trkpt lat="43.67475" lon="1.45376">
        <ele>134.76</ele>
        <time>2023-08-24T08:24:57.043Z</time>
      </trkpt>
      <trkpt lat="43.6747" lon="1.4537">
        <ele>134.69</ele>
        <time>2023-08-24T08:24:58.033Z</time>
      </trkpt>
      <trkpt lat="43.67465" lon="1.45363">
        <ele>134.76</ele>
        <time>2023-08-24T08:24:59.036Z</time>
      </trkpt>
      <trkpt lat="43.67462" lon="1.45355">
        <ele>134.79001</ele>
        <time>2023-08-24T08:25:00.028Z</time>
      </trkpt>
      <trkpt lat="43.67459" lon="1.45347">
        <ele>134.75</ele>
        <time>2023-08-24T08:25:00.965Z</time>
      </trkpt>
      <trkpt lat="43.67456" lon="1.45337">
        <ele>134.7</ele>
        <time>2023-08-24T08:25:01.958Z</time>
      </trkpt>
      <trkpt lat="43.67453" lon="1.45329">
        <ele>134.62</ele>
        <time>2023-08-24T08:25:03.014Z</time>
      </trkpt>
      <trkpt lat="43.6745" lon="1.4532">
        <ele>134.64</ele>
        <time>2023-08-24T08:25:03.653Z</time>
      </trkpt>
      <trkpt lat="43.67448" lon="1.45312">
        <ele>134.62</ele>
        <time>2023-08-24T08:25:05.017Z</time>
      </trkpt>
      <trkpt lat="43.67445" lon="1.45303">
        <ele>134.56</ele>
        <time>2023-08-24T08:25:05.966Z</time>
      </trkpt>
      <trkpt lat="43.67442" lon="1.45294">
        <ele>134.57</ele>
        <time>2023-08-24T08:25:07.026Z</time>
      </trkpt>
      <trkpt lat="43.67439" lon="1.45285">
        <ele>134.5</ele>
        <time>2023-08-24T08:25:08.050Z</time>
      </trkpt>
      <trkpt lat="43.67437" lon="1.45277">
        <ele>134.39</ele>
        <time>2023-08-24T08:25:08.123Z</time>
      </trkpt>
      <trkpt lat="43.67433" lon="1.45271">
        <ele>134.35</ele>
        <time>2023-08-24T08:25:10.048Z</time>
      </trkpt>
      <trkpt lat="43.67429" lon="1.4527">
        <ele>134.41</ele>
        <time>2023-08-24T08:25:11.043Z</time>
      </trkpt>
      <trkpt lat="43.67423" lon="1.45272">
        <ele>134.45999</ele>
        <time>2023-08-24T08:25:12.063Z</time>
      </trkpt>
      <trkpt lat="43.67419" lon="1.45276">
        <ele>134.56</ele>
        <time>2023-08-24T08:25:13.065Z</time>
      </trkpt>
      <trkpt lat="43.67413" lon="1.4528">
        <ele>134.65</ele>
        <time>2023-08-24T08:25:14.069Z</time>
      </trkpt>
      <trkpt lat="43.67408" lon="1.45284">
        <ele>134.73</ele>
        <time>2023-08-24T08:25:15.024Z</time>
      </trkpt>
      <trkpt lat="43.67403" lon="1.45287">
        <ele>134.69</ele>
        <time>2023-08-24T08:25:16.028Z</time>
      </trkpt>
      <trkpt lat="43.67397" lon="1.45291">
        <ele>134.72</ele>
        <time>2023-08-24T08:25:16.765Z</time>
      </trkpt>
      <trkpt lat="43.67391" lon="1.45294">
        <ele>134.73</ele>
        <time>2023-08-24T08:25:17.691Z</time>
      </trkpt>
      <trkpt lat="43.67385" lon="1.45298">
        <ele>134.70999</ele>
        <time>2023-08-24T08:25:19.035Z</time>
      </trkpt>
      <trkpt lat="43.6738" lon="1.45301">
        <ele>134.61</ele>
        <time>2023-08-24T08:25:20.073Z</time>
      </trkpt>
      <trkpt lat="43.67374" lon="1.45304">
        <ele>134.59</ele>
        <time>2023-08-24T08:25:21.047Z</time>
      </trkpt>
      <trkpt lat="43.67368" lon="1.45305">
        <ele>134.57</ele>
        <time>2023-08-24T08:25:22.063Z</time>
      </trkpt>
      <trkpt lat="43.67362" lon="1.45304">
        <ele>134.57</ele>
        <time>2023-08-24T08:25:23.033Z</time>
      </trkpt>
      <trkpt lat="43.67355" lon="1.45303">
        <ele>134.52</ele>
        <time>2023-08-24T08:25:23.750Z</time>
      </trkpt>
      <trkpt lat="43.67349" lon="1.45301">
        <ele>134.51</ele>
        <time>2023-08-24T08:25:25.033Z</time>
      </trkpt>
      <trkpt lat="43.67343" lon="1.45299">
        <ele>134.48</ele>
        <time>2023-08-24T08:25:26.036Z</time>
      </trkpt>
      <trkpt lat="43.67336" lon="1.45297">
        <ele>134.38</ele>
        <time>2023-08-24T08:25:27.072Z</time>
      </trkpt>
      <trkpt lat="43.6733" lon="1.45296">
        <ele>134.34</ele>
        <time>2023-08-24T08:25:28.056Z</time>
      </trkpt>
      <trkpt lat="43.67323" lon="1.45295">
        <ele>134.25</ele>
        <time>2023-08-24T08:25:29.014Z</time>
      </trkpt>
      <trkpt lat="43.67318" lon="1.45296">
        <ele>134.26</ele>
        <time>2023-08-24T08:25:30.018Z</time>
      </trkpt>
      <trkpt lat="43.67312" lon="1.45298">
        <ele>134.26</ele>
        <time>2023-08-24T08:25:31.013Z</time>
      </trkpt>
      <trkpt lat="43.67307" lon="1.453">
        <ele>134.31</ele>
        <time>2023-08-24T08:25:32.012Z</time>
      </trkpt>
      <trkpt lat="43.67301" lon="1.45303">
        <ele>134.44</ele>
        <time>2023-08-24T08:25:33.022Z</time>
      </trkpt>
      <trkpt lat="43.67296" lon="1.45305">
        <ele>134.59</ele>
        <time>2023-08-24T08:25:34.024Z</time>
      </trkpt>
      <trkpt lat="43.67291" lon="1.45308">
        <ele>134.68</ele>
        <time>2023-08-24T08:25:35.047Z</time>
      </trkpt>
      <trkpt lat="43.67287" lon="1.45311">
        <ele>134.77</ele>
        <time>2023-08-24T08:25:36.053Z</time>
      </trkpt>
      <trkpt lat="43.67282" lon="1.45314">
        <ele>134.84</ele>
        <time>2023-08-24T08:25:37.064Z</time>
      </trkpt>
      <trkpt lat="43.67278" lon="1.45315">
        <ele>134.81</ele>
        <time>2023-08-24T08:25:38.036Z</time>
      </trkpt>
      <trkpt lat="43.67273" lon="1.45316">
        <ele>134.73</ele>
        <time>2023-08-24T08:25:39.023Z</time>
      </trkpt>
      <trkpt lat="43.67271" lon="1.45316">
        <ele>134.78</ele>
        <time>2023-08-24T08:25:40.012Z</time>
      </trkpt>
      <trkpt lat="43.67266" lon="1.45319">
        <ele>134.92</ele>
        <time>2023-08-24T08:25:41.033Z</time>
      </trkpt>
      <trkpt lat="43.67262" lon="1.45323">
        <ele>134.95</ele>
        <time>2023-08-24T08:25:42.074Z</time>
      </trkpt>
      <trkpt lat="43.67258" lon="1.45327">
        <ele>135</ele>
        <time>2023-08-24T08:25:43.025Z</time>
      </trkpt>
      <trkpt lat="43.67255" lon="1.45333">
        <ele>135.01</ele>
        <time>2023-08-24T08:25:44.030Z</time>
      </trkpt>
      <trkpt lat="43.67251" lon="1.45339">
        <ele>135.06</ele>
        <time>2023-08-24T08:25:45.069Z</time>
      </trkpt>
      <trkpt lat="43.67248" lon="1.45343">
        <ele>135.08</ele>
        <time>2023-08-24T08:25:46.044Z</time>
      </trkpt>
      <trkpt lat="43.67243" lon="1.45347">
        <ele>135.04001</ele>
        <time>2023-08-24T08:25:47.095Z</time>
      </trkpt>
      <trkpt lat="43.67238" lon="1.45351">
        <ele>134.95</ele>
        <time>2023-08-24T08:25:48.028Z</time>
      </trkpt>
      <trkpt lat="43.67233" lon="1.45356">
        <ele>134.82</ele>
        <time>2023-08-24T08:25:49.102Z</time>
      </trkpt>
      <trkpt lat="43.67227" lon="1.45361">
        <ele>134.7</ele>
        <time>2023-08-24T08:25:50.042Z</time>
      </trkpt>
      <trkpt lat="43.67222" lon="1.45365">
        <ele>134.53</ele>
        <time>2023-08-24T08:25:51.070Z</time>
      </trkpt>
      <trkpt lat="43.67217" lon="1.4537">
        <ele>134.35</ele>
        <time>2023-08-24T08:25:52.067Z</time>
      </trkpt>
      <trkpt lat="43.67213" lon="1.45373">
        <ele>134.13</ele>
        <time>2023-08-24T08:25:53.032Z</time>
      </trkpt>
      <trkpt lat="43.6721" lon="1.45376">
        <ele>133.95999</ele>
        <time>2023-08-24T08:25:54.055Z</time>
      </trkpt>
      <trkpt lat="43.67207" lon="1.45377">
        <ele>133.79001</ele>
        <time>2023-08-24T08:25:55.046Z</time>
      </trkpt>
      <trkpt lat="43.67205" lon="1.45378">
        <ele>133.77</ele>
        <time>2023-08-24T08:25:56.086Z</time>
      </trkpt>
      <trkpt lat="43.67204" lon="1.45378">
        <ele>133.73</ele>
        <time>2023-08-24T08:25:57.068Z</time>
      </trkpt>
      <trkpt lat="43.67202" lon="1.45378">
        <ele>133.66</ele>
        <time>2023-08-24T08:25:58.022Z</time>
      </trkpt>
      <trkpt lat="43.672" lon="1.45377">
        <ele>133.67</ele>
        <time>2023-08-24T08:26:00.048Z</time>
      </trkpt>
      <trkpt lat="43.67197" lon="1.45378">
        <ele>133.61</ele>
        <time>2023-08-24T08:26:02.042Z</time>
      </trkpt>
      <trkpt lat="43.67194" lon="1.45377">
        <ele>133.4</ele>
        <time>2023-08-24T08:26:03.111Z</time>
      </trkpt>
      <trkpt lat="43.67192" lon="1.45374">
        <ele>133.29001</ele>
        <time>2023-08-24T08:26:03.885Z</time>
      </trkpt>
      <trkpt lat="43.67189" lon="1.45371">
        <ele>133.12</ele>
        <time>2023-08-24T08:26:05.026Z</time>
      </trkpt>
      <trkpt lat="43.67186" lon="1.45367">
        <ele>133.09</ele>
        <time>2023-08-24T08:26:06.035Z</time>
      </trkpt>
      <trkpt lat="43.67183" lon="1.45362">
        <ele>132.89</ele>
        <time>2023-08-24T08:26:07.120Z</time>
      </trkpt>
      <trkpt lat="43.67181" lon="1.45358">
        <ele>132.78</ele>
        <time>2023-08-24T08:26:07.705Z</time>
      </trkpt>
      <trkpt lat="43.67178" lon="1.45352">
        <ele>132.79001</ele>
        <time>2023-08-24T08:26:08.837Z</time>
      </trkpt>
      <trkpt lat="43.67176" lon="1.45346">
        <ele>132.78</ele>
        <time>2023-08-24T08:26:10.010Z</time>
      </trkpt>
      <trkpt lat="43.67173" lon="1.45339">
        <ele>132.76</ele>
        <time>2023-08-24T08:26:11.129Z</time>
      </trkpt>
      <trkpt lat="43.6717" lon="1.45332">
        <ele>132.67</ele>
        <time>2023-08-24T08:26:11.996Z</time>
      </trkpt>
      <trkpt lat="43.67167" lon="1.45325">
        <ele>132.7</ele>
        <time>2023-08-24T08:26:13.060Z</time>
      </trkpt>
      <trkpt lat="43.67165" lon="1.4532">
        <ele>132.54001</ele>
        <time>2023-08-24T08:26:14.114Z</time>
      </trkpt>
      <trkpt lat="43.67162" lon="1.45311">
        <ele>132.41</ele>
        <time>2023-08-24T08:26:15.722Z</time>
      </trkpt>
      <trkpt lat="43.6716" lon="1.45309">
        <ele>132.17</ele>
        <time>2023-08-24T08:26:16.728Z</time>
      </trkpt>
      <trkpt lat="43.67158" lon="1.45303">
        <ele>132.07</ele>
        <time>2023-08-24T08:26:19.131Z</time>
      </trkpt>
      <trkpt lat="43.67151" lon="1.45291">
        <ele>132.04001</ele>
        <time>2023-08-24T08:26:20.074Z</time>
      </trkpt>
      <trkpt lat="43.67148" lon="1.45286">
        <ele>132.11</ele>
        <time>2023-08-24T08:26:21.141Z</time>
      </trkpt>
      <trkpt lat="43.67145" lon="1.4528">
        <ele>132.03</ele>
        <time>2023-08-24T08:26:22.135Z</time>
      </trkpt>
      <trkpt lat="43.67141" lon="1.45272">
        <ele>131.95999</ele>
        <time>2023-08-24T08:26:22.729Z</time>
      </trkpt>
      <trkpt lat="43.67137" lon="1.45265">
        <ele>132.08</ele>
        <time>2023-08-24T08:26:24.125Z</time>
      </trkpt>
      <trkpt lat="43.67134" lon="1.45258">
        <ele>132.09</ele>
        <time>2023-08-24T08:26:24.207Z</time>
      </trkpt>
      <trkpt lat="43.6713" lon="1.45251">
        <ele>132.06</ele>
        <time>2023-08-24T08:26:26.152Z</time>
      </trkpt>
      <trkpt lat="43.67127" lon="1.45245">
        <ele>131.88</ele>
        <time>2023-08-24T08:26:27.109Z</time>
      </trkpt>
      <trkpt lat="43.67124" lon="1.45239">
        <ele>131.81</ele>
        <time>2023-08-24T08:26:27.713Z</time>
      </trkpt>
      <trkpt lat="43.67121" lon="1.45233">
        <ele>131.66</ele>
        <time>2023-08-24T08:26:28.702Z</time>
      </trkpt>
      <trkpt lat="43.67118" lon="1.45227">
        <ele>131.67</ele>
        <time>2023-08-24T08:26:29.695Z</time>
      </trkpt>
      <trkpt lat="43.67115" lon="1.45221">
        <ele>131.69</ele>
        <time>2023-08-24T08:26:31.166Z</time>
      </trkpt>
      <trkpt lat="43.67114" lon="1.45218">
        <ele>131.84</ele>
        <time>2023-08-24T08:26:31.711Z</time>
      </trkpt>
      <trkpt lat="43.67112" lon="1.45215">
        <ele>131.93</ele>
        <time>2023-08-24T08:26:32.722Z</time>
      </trkpt>
      <trkpt lat="43.67109" lon="1.45212">
        <ele>132.01</ele>
        <time>2023-08-24T08:26:33.711Z</time>
      </trkpt>
      <trkpt lat="43.67107" lon="1.45209">
        <ele>131.83</ele>
        <time>2023-08-24T08:26:34.983Z</time>
      </trkpt>
      <trkpt lat="43.67104" lon="1.45204">
        <ele>131.69</ele>
        <time>2023-08-24T08:26:35.726Z</time>
      </trkpt>
      <trkpt lat="43.67101" lon="1.452">
        <ele>131.58</ele>
        <time>2023-08-24T08:26:36.741Z</time>
      </trkpt>
      <trkpt lat="43.67097" lon="1.45194">
        <ele>131.58</ele>
        <time>2023-08-24T08:26:37.727Z</time>
      </trkpt>
      <trkpt lat="43.67094" lon="1.45189">
        <ele>131.58</ele>
        <time>2023-08-24T08:26:38.719Z</time>
      </trkpt>
      <trkpt lat="43.67091" lon="1.45183">
        <ele>131.39</ele>
        <time>2023-08-24T08:26:39.750Z</time>
      </trkpt>
      <trkpt lat="43.67088" lon="1.45177">
        <ele>131.35</ele>
        <time>2023-08-24T08:26:40.737Z</time>
      </trkpt>
      <trkpt lat="43.67085" lon="1.45172">
        <ele>131.39</ele>
        <time>2023-08-24T08:26:42.182Z</time>
      </trkpt>
      <trkpt lat="43.67083" lon="1.45167">
        <ele>131.38</ele>
        <time>2023-08-24T08:26:43.142Z</time>
      </trkpt>
      <trkpt lat="43.6708" lon="1.45161">
        <ele>131.4</ele>
        <time>2023-08-24T08:26:44.207Z</time>
      </trkpt>
      <trkpt lat="43.67078" lon="1.45158">
        <ele>131.35</ele>
        <time>2023-08-24T08:26:44.763Z</time>
      </trkpt>
      <trkpt lat="43.67073" lon="1.45149">
        <ele>131.31</ele>
        <time>2023-08-24T08:26:45.728Z</time>
      </trkpt>
      <trkpt lat="43.67069" lon="1.45143">
        <ele>131.37</ele>
        <time>2023-08-24T08:26:47.189Z</time>
      </trkpt>
      <trkpt lat="43.67065" lon="1.45139">
        <ele>131.44</ele>
        <time>2023-08-24T08:26:47.731Z</time>
      </trkpt>
      <trkpt lat="43.6706" lon="1.45139">
        <ele>131.49</ele>
        <time>2023-08-24T08:26:49.194Z</time>
      </trkpt>
      <trkpt lat="43.67056" lon="1.45141">
        <ele>131.54001</ele>
        <time>2023-08-24T08:26:50.145Z</time>
      </trkpt>
      <trkpt lat="43.67051" lon="1.45144">
        <ele>131.56</ele>
        <time>2023-08-24T08:26:51.204Z</time>
      </trkpt>
      <trkpt lat="43.67046" lon="1.45147">
        <ele>131.56</ele>
        <time>2023-08-24T08:26:51.919Z</time>
      </trkpt>
      <trkpt lat="43.67041" lon="1.4515">
        <ele>131.62</ele>
        <time>2023-08-24T08:26:53.135Z</time>
      </trkpt>
      <trkpt lat="43.67035" lon="1.45154">
        <ele>131.68</ele>
        <time>2023-08-24T08:26:54.204Z</time>
      </trkpt>
      <trkpt lat="43.6703" lon="1.45157">
        <ele>131.76</ele>
        <time>2023-08-24T08:26:54.751Z</time>
      </trkpt>
      <trkpt lat="43.67025" lon="1.45158">
        <ele>131.82</ele>
        <time>2023-08-24T08:26:56.214Z</time>
      </trkpt>
      <trkpt lat="43.6702" lon="1.45157">
        <ele>131.8</ele>
        <time>2023-08-24T08:26:57.129Z</time>
      </trkpt>
      <trkpt lat="43.67016" lon="1.45152">
        <ele>131.87</ele>
        <time>2023-08-24T08:26:58.224Z</time>
      </trkpt>
      <trkpt lat="43.67013" lon="1.45145">
        <ele>131.95</ele>
        <time>2023-08-24T08:26:58.765Z</time>
      </trkpt>
      <trkpt lat="43.6701" lon="1.45138">
        <ele>132.07</ele>
        <time>2023-08-24T08:26:59.765Z</time>
      </trkpt>
      <trkpt lat="43.67007" lon="1.45131">
        <ele>132.11</ele>
        <time>2023-08-24T08:27:00.767Z</time>
      </trkpt>
      <trkpt lat="43.67005" lon="1.45124">
        <ele>132.01</ele>
        <time>2023-08-24T08:27:01.768Z</time>
      </trkpt>
      <trkpt lat="43.67001" lon="1.45117">
        <ele>131.93</ele>
        <time>2023-08-24T08:27:02.756Z</time>
      </trkpt>
      <trkpt lat="43.66998" lon="1.45109">
        <ele>131.86</ele>
        <time>2023-08-24T08:27:04.189Z</time>
      </trkpt>
      <trkpt lat="43.66995" lon="1.45102">
        <ele>131.9</ele>
        <time>2023-08-24T08:27:05.216Z</time>
      </trkpt>
      <trkpt lat="43.66991" lon="1.45095">
        <ele>131.95999</ele>
        <time>2023-08-24T08:27:06.241Z</time>
      </trkpt>
      <trkpt lat="43.66987" lon="1.45087">
        <ele>131.85</ele>
        <time>2023-08-24T08:27:07.116Z</time>
      </trkpt>
      <trkpt lat="43.66983" lon="1.4508">
        <ele>131.84</ele>
        <time>2023-08-24T08:27:08.244Z</time>
      </trkpt>
      <trkpt lat="43.6698" lon="1.45073">
        <ele>131.87</ele>
        <time>2023-08-24T08:27:09.173Z</time>
      </trkpt>
      <trkpt lat="43.66976" lon="1.45066">
        <ele>131.88</ele>
        <time>2023-08-24T08:27:09.867Z</time>
      </trkpt>
      <trkpt lat="43.66972" lon="1.45059">
        <ele>131.84</ele>
        <time>2023-08-24T08:27:11.240Z</time>
      </trkpt>
      <trkpt lat="43.66968" lon="1.45052">
        <ele>131.77</ele>
        <time>2023-08-24T08:27:12.213Z</time>
      </trkpt>
      <trkpt lat="43.66965" lon="1.45045">
        <ele>131.74</ele>
        <time>2023-08-24T08:27:12.737Z</time>
      </trkpt>
      <trkpt lat="43.66961" lon="1.45037">
        <ele>131.77</ele>
        <time>2023-08-24T08:27:14.229Z</time>
      </trkpt>
      <trkpt lat="43.66958" lon="1.4503">
        <ele>131.73</ele>
        <time>2023-08-24T08:27:14.880Z</time>
      </trkpt>
      <trkpt lat="43.66955" lon="1.45022">
        <ele>131.65</ele>
        <time>2023-08-24T08:27:16.223Z</time>
      </trkpt>
      <trkpt lat="43.66952" lon="1.45014">
        <ele>131.69</ele>
        <time>2023-08-24T08:27:16.973Z</time>
      </trkpt>
      <trkpt lat="43.66949" lon="1.45006">
        <ele>131.61</ele>
        <time>2023-08-24T08:27:18.232Z</time>
      </trkpt>
      <trkpt lat="43.66946" lon="1.44998">
        <ele>131.54001</ele>
        <time>2023-08-24T08:27:19.214Z</time>
      </trkpt>
      <trkpt lat="43.66943" lon="1.44991">
        <ele>131.49</ele>
        <time>2023-08-24T08:27:20.144Z</time>
      </trkpt>
      <trkpt lat="43.6694" lon="1.44983">
        <ele>131.47</ele>
        <time>2023-08-24T08:27:21.178Z</time>
      </trkpt>
      <trkpt lat="43.66939" lon="1.44982">
        <ele>131.44</ele>
        <time>2023-08-24T08:27:22.247Z</time>
      </trkpt>
      <trkpt lat="43.66933" lon="1.44967">
        <ele>131.35</ele>
        <time>2023-08-24T08:27:23.114Z</time>
      </trkpt>
      <trkpt lat="43.6693" lon="1.44959">
        <ele>131.22</ele>
        <time>2023-08-24T08:27:24.241Z</time>
      </trkpt>
      <trkpt lat="43.66926" lon="1.44953">
        <ele>131.1</ele>
        <time>2023-08-24T08:27:25.260Z</time>
      </trkpt>
      <trkpt lat="43.66921" lon="1.44947">
        <ele>131.01</ele>
        <time>2023-08-24T08:27:26.242Z</time>
      </trkpt>
      <trkpt lat="43.66916" lon="1.44942">
        <ele>130.86</ele>
        <time>2023-08-24T08:27:27.228Z</time>
      </trkpt>
      <trkpt lat="43.66911" lon="1.4494">
        <ele>130.73</ele>
        <time>2023-08-24T08:27:28.181Z</time>
      </trkpt>
      <trkpt lat="43.66905" lon="1.44937">
        <ele>130.62</ele>
        <time>2023-08-24T08:27:29.244Z</time>
      </trkpt>
      <trkpt lat="43.66899" lon="1.44936">
        <ele>130.5</ele>
        <time>2023-08-24T08:27:30.046Z</time>
      </trkpt>
      <trkpt lat="43.66892" lon="1.44934">
        <ele>130.53</ele>
        <time>2023-08-24T08:27:31.227Z</time>
      </trkpt>
      <trkpt lat="43.66886" lon="1.44932">
        <ele>130.55</ele>
        <time>2023-08-24T08:27:32.224Z</time>
      </trkpt>
      <trkpt lat="43.6688" lon="1.44931">
        <ele>130.56</ele>
        <time>2023-08-24T08:27:33.234Z</time>
      </trkpt>
      <trkpt lat="43.66874" lon="1.4493">
        <ele>130.54001</ele>
        <time>2023-08-24T08:27:34.236Z</time>
      </trkpt>
      <trkpt lat="43.66867" lon="1.44928">
        <ele>130.66</ele>
        <time>2023-08-24T08:27:35.248Z</time>
      </trkpt>
      <trkpt lat="43.66861" lon="1.44926">
        <ele>130.76</ele>
        <time>2023-08-24T08:27:35.781Z</time>
      </trkpt>
      <trkpt lat="43.66855" lon="1.44925">
        <ele>130.83</ele>
        <time>2023-08-24T08:27:36.773Z</time>
      </trkpt>
      <trkpt lat="43.66849" lon="1.44923">
        <ele>130.87</ele>
        <time>2023-08-24T08:27:37.794Z</time>
      </trkpt>
      <trkpt lat="43.66843" lon="1.44921">
        <ele>130.88</ele>
        <time>2023-08-24T08:27:39.221Z</time>
      </trkpt>
      <trkpt lat="43.66837" lon="1.4492">
        <ele>131.02</ele>
        <time>2023-08-24T08:27:40.212Z</time>
      </trkpt>
      <trkpt lat="43.66831" lon="1.44918">
        <ele>131.05</ele>
        <time>2023-08-24T08:27:41.158Z</time>
      </trkpt>
      <trkpt lat="43.66825" lon="1.44916">
        <ele>131.01</ele>
        <time>2023-08-24T08:27:41.967Z</time>
      </trkpt>
      <trkpt lat="43.66819" lon="1.44914">
        <ele>131.01</ele>
        <time>2023-08-24T08:27:43.196Z</time>
      </trkpt>
      <trkpt lat="43.66813" lon="1.44911">
        <ele>131.01</ele>
        <time>2023-08-24T08:27:44.215Z</time>
      </trkpt>
      <trkpt lat="43.66807" lon="1.44908">
        <ele>130.93</ele>
        <time>2023-08-24T08:27:45.244Z</time>
      </trkpt>
      <trkpt lat="43.66801" lon="1.44905">
        <ele>130.87</ele>
        <time>2023-08-24T08:27:46.235Z</time>
      </trkpt>
      <trkpt lat="43.66795" lon="1.44902">
        <ele>130.74</ele>
        <time>2023-08-24T08:27:46.989Z</time>
      </trkpt>
      <trkpt lat="43.6679" lon="1.44899">
        <ele>130.65</ele>
        <time>2023-08-24T08:27:48.169Z</time>
      </trkpt>
      <trkpt lat="43.66784" lon="1.44894">
        <ele>130.68</ele>
        <time>2023-08-24T08:27:49.200Z</time>
      </trkpt>
      <trkpt lat="43.66779" lon="1.4489">
        <ele>130.61</ele>
        <time>2023-08-24T08:27:50.216Z</time>
      </trkpt>
      <trkpt lat="43.66774" lon="1.44885">
        <ele>130.63</ele>
        <time>2023-08-24T08:27:51.232Z</time>
      </trkpt>
      <trkpt lat="43.66769" lon="1.44879">
        <ele>130.68</ele>
        <time>2023-08-24T08:27:52.275Z</time>
      </trkpt>
      <trkpt lat="43.66764" lon="1.44873">
        <ele>130.78</ele>
        <time>2023-08-24T08:27:53.216Z</time>
      </trkpt>
      <trkpt lat="43.66761" lon="1.44865">
        <ele>130.86</ele>
        <time>2023-08-24T08:27:54.214Z</time>
      </trkpt>
      <trkpt lat="43.66759" lon="1.44857">
        <ele>130.95999</ele>
        <time>2023-08-24T08:27:55.223Z</time>
      </trkpt>
      <trkpt lat="43.66757" lon="1.44848">
        <ele>131.02</ele>
        <time>2023-08-24T08:27:56.174Z</time>
      </trkpt>
      <trkpt lat="43.66756" lon="1.44839">
        <ele>131.07</ele>
        <time>2023-08-24T08:27:57.244Z</time>
      </trkpt>
      <trkpt lat="43.66753" lon="1.44831">
        <ele>131.12</ele>
        <time>2023-08-24T08:27:58.147Z</time>
      </trkpt>
      <trkpt lat="43.6675" lon="1.44824">
        <ele>131.05</ele>
        <time>2023-08-24T08:27:59.250Z</time>
      </trkpt>
      <trkpt lat="43.66745" lon="1.44819">
        <ele>130.84</ele>
        <time>2023-08-24T08:28:00.285Z</time>
      </trkpt>
      <trkpt lat="43.6674" lon="1.44818">
        <ele>130.7</ele>
        <time>2023-08-24T08:28:01.240Z</time>
      </trkpt>
      <trkpt lat="43.66734" lon="1.44819">
        <ele>130.65</ele>
        <time>2023-08-24T08:28:02.040Z</time>
      </trkpt>
      <trkpt lat="43.66728" lon="1.44822">
        <ele>130.67</ele>
        <time>2023-08-24T08:28:03.213Z</time>
      </trkpt>
      <trkpt lat="43.66723" lon="1.44826">
        <ele>130.59</ele>
        <time>2023-08-24T08:28:04.264Z</time>
      </trkpt>
      <trkpt lat="43.66717" lon="1.44831">
        <ele>130.38</ele>
        <time>2023-08-24T08:28:04.897Z</time>
      </trkpt>
      <trkpt lat="43.66713" lon="1.44835">
        <ele>130.28</ele>
        <time>2023-08-24T08:28:06.228Z</time>
      </trkpt>
      <trkpt lat="43.66707" lon="1.4484">
        <ele>130.26</ele>
        <time>2023-08-24T08:28:07.213Z</time>
      </trkpt>
      <trkpt lat="43.66701" lon="1.44845">
        <ele>130.36</ele>
        <time>2023-08-24T08:28:08.223Z</time>
      </trkpt>
      <trkpt lat="43.66695" lon="1.44849">
        <ele>130.33</ele>
        <time>2023-08-24T08:28:08.303Z</time>
      </trkpt>
      <trkpt lat="43.66689" lon="1.44852">
        <ele>130.27</ele>
        <time>2023-08-24T08:28:10.216Z</time>
      </trkpt>
      <trkpt lat="43.66682" lon="1.44854">
        <ele>130.19</ele>
        <time>2023-08-24T08:28:10.477Z</time>
      </trkpt>
      <trkpt lat="43.66676" lon="1.44856">
        <ele>130.13</ele>
        <time>2023-08-24T08:28:11.907Z</time>
      </trkpt>
      <trkpt lat="43.66669" lon="1.44858">
        <ele>130.15</ele>
        <time>2023-08-24T08:28:12.330Z</time>
      </trkpt>
      <trkpt lat="43.66663" lon="1.44858">
        <ele>130.19</ele>
        <time>2023-08-24T08:28:14.252Z</time>
      </trkpt>
      <trkpt lat="43.66656" lon="1.44858">
        <ele>130.28</ele>
        <time>2023-08-24T08:28:14.338Z</time>
      </trkpt>
      <trkpt lat="43.6665" lon="1.44858">
        <ele>130.4</ele>
        <time>2023-08-24T08:28:15.926Z</time>
      </trkpt>
      <trkpt lat="43.66644" lon="1.44856">
        <ele>130.44</ele>
        <time>2023-08-24T08:28:17.124Z</time>
      </trkpt>
      <trkpt lat="43.66639" lon="1.44853">
        <ele>130.38</ele>
        <time>2023-08-24T08:28:18.244Z</time>
      </trkpt>
      <trkpt lat="43.66632" lon="1.44849">
        <ele>130.35</ele>
        <time>2023-08-24T08:28:18.388Z</time>
      </trkpt>
      <trkpt lat="43.66628" lon="1.44843">
        <ele>130.39</ele>
        <time>2023-08-24T08:28:20.001Z</time>
      </trkpt>
      <trkpt lat="43.66623" lon="1.44837">
        <ele>130.39</ele>
        <time>2023-08-24T08:28:20.392Z</time>
      </trkpt>
      <trkpt lat="43.66618" lon="1.4483">
        <ele>130.42</ele>
        <time>2023-08-24T08:28:22.165Z</time>
      </trkpt>
      <trkpt lat="43.66615" lon="1.44823">
        <ele>130.35</ele>
        <time>2023-08-24T08:28:23.226Z</time>
      </trkpt>
      <trkpt lat="43.6661" lon="1.44817">
        <ele>130.43</ele>
        <time>2023-08-24T08:28:24.234Z</time>
      </trkpt>
      <trkpt lat="43.66606" lon="1.4481">
        <ele>130.44</ele>
        <time>2023-08-24T08:28:24.964Z</time>
      </trkpt>
      <trkpt lat="43.66602" lon="1.44803">
        <ele>130.55</ele>
        <time>2023-08-24T08:28:26.259Z</time>
      </trkpt>
      <trkpt lat="43.66597" lon="1.44797">
        <ele>130.7</ele>
        <time>2023-08-24T08:28:27.260Z</time>
      </trkpt>
      <trkpt lat="43.66593" lon="1.4479">
        <ele>130.79001</ele>
        <time>2023-08-24T08:28:28.275Z</time>
      </trkpt>
      <trkpt lat="43.66589" lon="1.44783">
        <ele>130.89</ele>
        <time>2023-08-24T08:28:29.285Z</time>
      </trkpt>
      <trkpt lat="43.66585" lon="1.44777">
        <ele>130.97</ele>
        <time>2023-08-24T08:28:30.249Z</time>
      </trkpt>
      <trkpt lat="43.6658" lon="1.44771">
        <ele>131.13</ele>
        <time>2023-08-24T08:28:31.291Z</time>
      </trkpt>
      <trkpt lat="43.66576" lon="1.44765">
        <ele>131.24</ele>
        <time>2023-08-24T08:28:32.268Z</time>
      </trkpt>
      <trkpt lat="43.66574" lon="1.44763">
        <ele>131.48</ele>
        <time>2023-08-24T08:28:33.319Z</time>
      </trkpt>
      <trkpt lat="43.66567" lon="1.44752">
        <ele>131.70999</ele>
        <time>2023-08-24T08:28:34.252Z</time>
      </trkpt>
      <trkpt lat="43.66563" lon="1.44746">
        <ele>131.97</ele>
        <time>2023-08-24T08:28:35.318Z</time>
      </trkpt>
      <trkpt lat="43.66558" lon="1.44741">
        <ele>132.15</ele>
        <time>2023-08-24T08:28:35.450Z</time>
      </trkpt>
      <trkpt lat="43.66555" lon="1.44736">
        <ele>132.29001</ele>
        <time>2023-08-24T08:28:37.261Z</time>
      </trkpt>
      <trkpt lat="43.6655" lon="1.44731">
        <ele>132.41</ele>
        <time>2023-08-24T08:28:38.319Z</time>
      </trkpt>
      <trkpt lat="43.66545" lon="1.44727">
        <ele>132.66</ele>
        <time>2023-08-24T08:28:39.320Z</time>
      </trkpt>
      <trkpt lat="43.66541" lon="1.44724">
        <ele>132.95</ele>
        <time>2023-08-24T08:28:40.269Z</time>
      </trkpt>
      <trkpt lat="43.66537" lon="1.44721">
        <ele>133.12</ele>
        <time>2023-08-24T08:28:41.288Z</time>
      </trkpt>
      <trkpt lat="43.66532" lon="1.44719">
        <ele>133.31</ele>
        <time>2023-08-24T08:28:42.331Z</time>
      </trkpt>
      <trkpt lat="43.66528" lon="1.44716">
        <ele>133.39</ele>
        <time>2023-08-24T08:28:42.480Z</time>
      </trkpt>
      <trkpt lat="43.66524" lon="1.44714">
        <ele>133.48</ele>
        <time>2023-08-24T08:28:44.322Z</time>
      </trkpt>
      <trkpt lat="43.66521" lon="1.44712">
        <ele>133.58</ele>
        <time>2023-08-24T08:28:45.230Z</time>
      </trkpt>
      <trkpt lat="43.66518" lon="1.4471">
        <ele>133.69</ele>
        <time>2023-08-24T08:28:46.326Z</time>
      </trkpt>
      <trkpt lat="43.66513" lon="1.44708">
        <ele>133.95</ele>
        <time>2023-08-24T08:28:48.278Z</time>
      </trkpt>
      <trkpt lat="43.66513" lon="1.44709">
        <ele>134.04001</ele>
        <time>2023-08-24T08:28:49.299Z</time>
      </trkpt>
      <trkpt lat="43.66512" lon="1.44711">
        <ele>134.08</ele>
        <time>2023-08-24T08:28:50.287Z</time>
      </trkpt>
      <trkpt lat="43.66507" lon="1.44725">
        <ele>134.14</ele>
        <time>2023-08-24T08:28:54.206Z</time>
      </trkpt>
      <trkpt lat="43.66505" lon="1.44731">
        <ele>134.07</ele>
        <time>2023-08-24T08:28:55.225Z</time>
      </trkpt>
      <trkpt lat="43.66502" lon="1.44739">
        <ele>134</ele>
        <time>2023-08-24T08:28:56.278Z</time>
      </trkpt>
      <trkpt lat="43.66496" lon="1.44754">
        <ele>133.97</ele>
        <time>2023-08-24T08:28:57.319Z</time>
      </trkpt>
      <trkpt lat="43.66494" lon="1.44761">
        <ele>133.99</ele>
        <time>2023-08-24T08:28:58.332Z</time>
      </trkpt>
      <trkpt lat="43.66491" lon="1.44768">
        <ele>133.92</ele>
        <time>2023-08-24T08:28:59.320Z</time>
      </trkpt>
      <trkpt lat="43.66488" lon="1.44775">
        <ele>133.95999</ele>
        <time>2023-08-24T08:29:00.155Z</time>
      </trkpt>
      <trkpt lat="43.66486" lon="1.44782">
        <ele>133.95999</ele>
        <time>2023-08-24T08:29:01.292Z</time>
      </trkpt>
      <trkpt lat="43.66482" lon="1.4479">
        <ele>133.91</ele>
        <time>2023-08-24T08:29:02.323Z</time>
      </trkpt>
      <trkpt lat="43.66479" lon="1.44797">
        <ele>133.91</ele>
        <time>2023-08-24T08:29:03.327Z</time>
      </trkpt>
      <trkpt lat="43.66475" lon="1.44804">
        <ele>133.89</ele>
        <time>2023-08-24T08:29:04.203Z</time>
      </trkpt>
      <trkpt lat="43.66472" lon="1.44811">
        <ele>133.77</ele>
        <time>2023-08-24T08:29:05.069Z</time>
      </trkpt>
      <trkpt lat="43.66469" lon="1.44819">
        <ele>133.65</ele>
        <time>2023-08-24T08:29:06.189Z</time>
      </trkpt>
      <trkpt lat="43.66466" lon="1.44827">
        <ele>133.51</ele>
        <time>2023-08-24T08:29:07.352Z</time>
      </trkpt>
      <trkpt lat="43.66463" lon="1.44835">
        <ele>133.44</ele>
        <time>2023-08-24T08:29:08.259Z</time>
      </trkpt>
      <trkpt lat="43.66461" lon="1.44842">
        <ele>133.4</ele>
        <time>2023-08-24T08:29:08.470Z</time>
      </trkpt>
      <trkpt lat="43.66458" lon="1.4485">
        <ele>133.28</ele>
        <time>2023-08-24T08:29:10.304Z</time>
      </trkpt>
      <trkpt lat="43.66456" lon="1.44859">
        <ele>133.22</ele>
        <time>2023-08-24T08:29:10.374Z</time>
      </trkpt>
      <trkpt lat="43.66454" lon="1.44867">
        <ele>133.17</ele>
        <time>2023-08-24T08:29:12.238Z</time>
      </trkpt>
      <trkpt lat="43.66452" lon="1.44876">
        <ele>133.15</ele>
        <time>2023-08-24T08:29:12.388Z</time>
      </trkpt>
      <trkpt lat="43.66451" lon="1.44885">
        <ele>133.06</ele>
        <time>2023-08-24T08:29:13.460Z</time>
      </trkpt>
      <trkpt lat="43.66448" lon="1.44893">
        <ele>132.94</ele>
        <time>2023-08-24T08:29:14.391Z</time>
      </trkpt>
      <trkpt lat="43.66444" lon="1.44901">
        <ele>132.82</ele>
        <time>2023-08-24T08:29:16.342Z</time>
      </trkpt>
      <trkpt lat="43.66441" lon="1.44908">
        <ele>132.69</ele>
        <time>2023-08-24T08:29:16.402Z</time>
      </trkpt>
      <trkpt lat="43.66441" lon="1.4491">
        <ele>132.57</ele>
        <time>2023-08-24T08:29:18.338Z</time>
      </trkpt>
      <trkpt lat="43.66434" lon="1.44924">
        <ele>132.4</ele>
        <time>2023-08-24T08:29:18.421Z</time>
      </trkpt>
      <trkpt lat="43.66432" lon="1.44931">
        <ele>132.35</ele>
        <time>2023-08-24T08:29:20.120Z</time>
      </trkpt>
      <trkpt lat="43.6643" lon="1.4494">
        <ele>132.25</ele>
        <time>2023-08-24T08:29:21.268Z</time>
      </trkpt>
      <trkpt lat="43.66428" lon="1.44948">
        <ele>131.95</ele>
        <time>2023-08-24T08:29:22.324Z</time>
      </trkpt>
      <trkpt lat="43.66425" lon="1.44955">
        <ele>131.9</ele>
        <time>2023-08-24T08:29:23.255Z</time>
      </trkpt>
      <trkpt lat="43.66423" lon="1.44963">
        <ele>131.83</ele>
        <time>2023-08-24T08:29:24.364Z</time>
      </trkpt>
      <trkpt lat="43.6642" lon="1.44971">
        <ele>131.82</ele>
        <time>2023-08-24T08:29:25.193Z</time>
      </trkpt>
      <trkpt lat="43.66418" lon="1.44979">
        <ele>131.83</ele>
        <time>2023-08-24T08:29:26.342Z</time>
      </trkpt>
      <trkpt lat="43.66416" lon="1.44986">
        <ele>131.81</ele>
        <time>2023-08-24T08:29:27.348Z</time>
      </trkpt>
      <trkpt lat="43.66413" lon="1.44994">
        <ele>131.84</ele>
        <time>2023-08-24T08:29:27.891Z</time>
      </trkpt>
      <trkpt lat="43.6641" lon="1.45002">
        <ele>131.77</ele>
        <time>2023-08-24T08:29:29.375Z</time>
      </trkpt>
      <trkpt lat="43.66407" lon="1.45009">
        <ele>131.79001</ele>
        <time>2023-08-24T08:29:30.140Z</time>
      </trkpt>
      <trkpt lat="43.66407" lon="1.4501">
        <ele>131.91</ele>
        <time>2023-08-24T08:29:31.353Z</time>
      </trkpt>
      <trkpt lat="43.66402" lon="1.45024">
        <ele>131.95999</ele>
        <time>2023-08-24T08:29:31.460Z</time>
      </trkpt>
      <trkpt lat="43.66399" lon="1.45032">
        <ele>132.05</ele>
        <time>2023-08-24T08:29:33.342Z</time>
      </trkpt>
      <trkpt lat="43.66397" lon="1.4504">
        <ele>132.04001</ele>
        <time>2023-08-24T08:29:34.355Z</time>
      </trkpt>
      <trkpt lat="43.66395" lon="1.45048">
        <ele>132.05</ele>
        <time>2023-08-24T08:29:35.341Z</time>
      </trkpt>
      <trkpt lat="43.66393" lon="1.45056">
        <ele>132.12</ele>
        <time>2023-08-24T08:29:36.381Z</time>
      </trkpt>
      <trkpt lat="43.66391" lon="1.45064">
        <ele>132.27</ele>
        <time>2023-08-24T08:29:36.925Z</time>
      </trkpt>
      <trkpt lat="43.6639" lon="1.45072">
        <ele>132.36</ele>
        <time>2023-08-24T08:29:38.118Z</time>
      </trkpt>
      <trkpt lat="43.66388" lon="1.4508">
        <ele>132.51</ele>
        <time>2023-08-24T08:29:38.894Z</time>
      </trkpt>
      <trkpt lat="43.66386" lon="1.45087">
        <ele>132.63</ele>
        <time>2023-08-24T08:29:40.295Z</time>
      </trkpt>
      <trkpt lat="43.66383" lon="1.45094">
        <ele>132.76</ele>
        <time>2023-08-24T08:29:41.119Z</time>
      </trkpt>
      <trkpt lat="43.6638" lon="1.45101">
        <ele>132.9</ele>
        <time>2023-08-24T08:29:42.390Z</time>
      </trkpt>
      <trkpt lat="43.66376" lon="1.45107">
        <ele>133</ele>
        <time>2023-08-24T08:29:42.465Z</time>
      </trkpt>
      <trkpt lat="43.66372" lon="1.45113">
        <ele>133.07</ele>
        <time>2023-08-24T08:29:44.338Z</time>
      </trkpt>
      <trkpt lat="43.66368" lon="1.45119">
        <ele>133.15</ele>
        <time>2023-08-24T08:29:44.452Z</time>
      </trkpt>
      <trkpt lat="43.66364" lon="1.45125">
        <ele>133.29001</ele>
        <time>2023-08-24T08:29:46.384Z</time>
      </trkpt>
      <trkpt lat="43.66361" lon="1.45132">
        <ele>133.36</ele>
        <time>2023-08-24T08:29:46.984Z</time>
      </trkpt>
      <trkpt lat="43.66358" lon="1.45139">
        <ele>133.47</ele>
        <time>2023-08-24T08:29:48.319Z</time>
      </trkpt>
      <trkpt lat="43.66359" lon="1.45144">
        <ele>133.68</ele>
        <time>2023-08-24T08:29:48.994Z</time>
      </trkpt>
      <trkpt lat="43.66359" lon="1.45146">
        <ele>133.84</ele>
        <time>2023-08-24T08:29:49.945Z</time>
      </trkpt>
      <trkpt lat="43.6636" lon="1.45149">
        <ele>134.1</ele>
        <time>2023-08-24T08:29:50.943Z</time>
      </trkpt>
      <trkpt lat="43.6636" lon="1.45153">
        <ele>134.26</ele>
        <time>2023-08-24T08:29:52.353Z</time>
      </trkpt>
      <trkpt lat="43.6636" lon="1.45159">
        <ele>134.26</ele>
        <time>2023-08-24T08:29:52.956Z</time>
      </trkpt>
      <trkpt lat="43.6636" lon="1.45164">
        <ele>134.09</ele>
        <time>2023-08-24T08:29:54.320Z</time>
      </trkpt>
      <trkpt lat="43.66362" lon="1.4517">
        <ele>133.85</ele>
        <time>2023-08-24T08:29:55.299Z</time>
      </trkpt>
      <trkpt lat="43.66364" lon="1.45177">
        <ele>133.6</ele>
        <time>2023-08-24T08:29:56.321Z</time>
      </trkpt>
      <trkpt lat="43.66364" lon="1.45183">
        <ele>133.36</ele>
        <time>2023-08-24T08:29:57.341Z</time>
      </trkpt>
      <trkpt lat="43.66364" lon="1.45186">
        <ele>133.20999</ele>
        <time>2023-08-24T08:29:58.373Z</time>
      </trkpt>
      <trkpt lat="43.66363" lon="1.45191">
        <ele>133.12</ele>
        <time>2023-08-24T08:29:58.977Z</time>
      </trkpt>
      <trkpt lat="43.66357" lon="1.45206">
        <ele>133.02</ele>
        <time>2023-08-24T08:30:01.389Z</time>
      </trkpt>
      <trkpt lat="43.66356" lon="1.45213">
        <ele>132.75</ele>
        <time>2023-08-24T08:30:02.001Z</time>
      </trkpt>
      <trkpt lat="43.66354" lon="1.45221">
        <ele>132.38</ele>
        <time>2023-08-24T08:30:02.970Z</time>
      </trkpt>
      <trkpt lat="43.66351" lon="1.45231">
        <ele>131.94</ele>
        <time>2023-08-24T08:30:03.989Z</time>
      </trkpt>
      <trkpt lat="43.66347" lon="1.4524">
        <ele>131.66</ele>
        <time>2023-08-24T08:30:04.993Z</time>
      </trkpt>
      <trkpt lat="43.66344" lon="1.45248">
        <ele>131.78</ele>
        <time>2023-08-24T08:30:05.990Z</time>
      </trkpt>
      <trkpt lat="43.66341" lon="1.45254">
        <ele>131.92</ele>
        <time>2023-08-24T08:30:06.989Z</time>
      </trkpt>
      <trkpt lat="43.66338" lon="1.45261">
        <ele>132.06</ele>
        <time>2023-08-24T08:30:08.005Z</time>
      </trkpt>
      <trkpt lat="43.66334" lon="1.45268">
        <ele>132.12</ele>
        <time>2023-08-24T08:30:09.008Z</time>
      </trkpt>
      <trkpt lat="43.66331" lon="1.45273">
        <ele>132.09</ele>
        <time>2023-08-24T08:30:10.393Z</time>
      </trkpt>
      <trkpt lat="43.66328" lon="1.4528">
        <ele>132.09</ele>
        <time>2023-08-24T08:30:11.004Z</time>
      </trkpt>
      <trkpt lat="43.66325" lon="1.45285">
        <ele>132.1</ele>
        <time>2023-08-24T08:30:12.364Z</time>
      </trkpt>
      <trkpt lat="43.66322" lon="1.45291">
        <ele>132.1</ele>
        <time>2023-08-24T08:30:13.418Z</time>
      </trkpt>
      <trkpt lat="43.66319" lon="1.45297">
        <ele>132.17</ele>
        <time>2023-08-24T08:30:13.461Z</time>
      </trkpt>
      <trkpt lat="43.66316" lon="1.45303">
        <ele>132.22</ele>
        <time>2023-08-24T08:30:14.480Z</time>
      </trkpt>
      <trkpt lat="43.66312" lon="1.45308">
        <ele>132.25</ele>
        <time>2023-08-24T08:30:15.470Z</time>
      </trkpt>
      <trkpt lat="43.6631" lon="1.45315">
        <ele>132.33</ele>
        <time>2023-08-24T08:30:16.429Z</time>
      </trkpt>
      <trkpt lat="43.66307" lon="1.45321">
        <ele>132.31</ele>
        <time>2023-08-24T08:30:17.480Z</time>
      </trkpt>
      <trkpt lat="43.66304" lon="1.45327">
        <ele>132.20999</ele>
        <time>2023-08-24T08:30:19.321Z</time>
      </trkpt>
      <trkpt lat="43.66301" lon="1.45333">
        <ele>132.1</ele>
        <time>2023-08-24T08:30:19.489Z</time>
      </trkpt>
      <trkpt lat="43.66298" lon="1.45339">
        <ele>132.04001</ele>
        <time>2023-08-24T08:30:21.261Z</time>
      </trkpt>
      <trkpt lat="43.66294" lon="1.45345">
        <ele>132.08</ele>
        <time>2023-08-24T08:30:21.451Z</time>
      </trkpt>
      <trkpt lat="43.66292" lon="1.45352">
        <ele>132.07</ele>
        <time>2023-08-24T08:30:22.461Z</time>
      </trkpt>
      <trkpt lat="43.6629" lon="1.45359">
        <ele>132.01</ele>
        <time>2023-08-24T08:30:23.450Z</time>
      </trkpt>
      <trkpt lat="43.66288" lon="1.45366">
        <ele>132.01</ele>
        <time>2023-08-24T08:30:24.475Z</time>
      </trkpt>
      <trkpt lat="43.66285" lon="1.45372">
        <ele>132.05</ele>
        <time>2023-08-24T08:30:25.462Z</time>
      </trkpt>
      <trkpt lat="43.66282" lon="1.45379">
        <ele>132.06</ele>
        <time>2023-08-24T08:30:26.449Z</time>
      </trkpt>
      <trkpt lat="43.6628" lon="1.45385">
        <ele>132.08</ele>
        <time>2023-08-24T08:30:27.470Z</time>
      </trkpt>
      <trkpt lat="43.66277" lon="1.45392">
        <ele>132.06</ele>
        <time>2023-08-24T08:30:28.460Z</time>
      </trkpt>
      <trkpt lat="43.66275" lon="1.454">
        <ele>131.9</ele>
        <time>2023-08-24T08:30:29.481Z</time>
      </trkpt>
      <trkpt lat="43.66272" lon="1.45408">
        <ele>131.77</ele>
        <time>2023-08-24T08:30:30.471Z</time>
      </trkpt>
      <trkpt lat="43.66271" lon="1.45413">
        <ele>131.65</ele>
        <time>2023-08-24T08:30:31.460Z</time>
      </trkpt>
      <trkpt lat="43.66269" lon="1.4542">
        <ele>131.57</ele>
        <time>2023-08-24T08:30:33.422Z</time>
      </trkpt>
      <trkpt lat="43.66267" lon="1.45427">
        <ele>131.62</ele>
        <time>2023-08-24T08:30:33.472Z</time>
      </trkpt>
      <trkpt lat="43.66265" lon="1.45435">
        <ele>131.74</ele>
        <time>2023-08-24T08:30:34.491Z</time>
      </trkpt>
      <trkpt lat="43.66263" lon="1.45444">
        <ele>131.89</ele>
        <time>2023-08-24T08:30:36.403Z</time>
      </trkpt>
      <trkpt lat="43.66261" lon="1.45454">
        <ele>132.08</ele>
        <time>2023-08-24T08:30:37.117Z</time>
      </trkpt>
      <trkpt lat="43.66258" lon="1.45462">
        <ele>132.17</ele>
        <time>2023-08-24T08:30:38.146Z</time>
      </trkpt>
      <trkpt lat="43.66256" lon="1.45471">
        <ele>132.14</ele>
        <time>2023-08-24T08:30:38.455Z</time>
      </trkpt>
      <trkpt lat="43.66254" lon="1.45476">
        <ele>132.1</ele>
        <time>2023-08-24T08:30:39.940Z</time>
      </trkpt>
      <trkpt lat="43.66251" lon="1.45487">
        <ele>132.03</ele>
        <time>2023-08-24T08:30:41.406Z</time>
      </trkpt>
      <trkpt lat="43.66249" lon="1.45494">
        <ele>132</ele>
        <time>2023-08-24T08:30:42.444Z</time>
      </trkpt>
      <trkpt lat="43.66246" lon="1.45502">
        <ele>131.94</ele>
        <time>2023-08-24T08:30:43.006Z</time>
      </trkpt>
      <trkpt lat="43.66244" lon="1.4551">
        <ele>131.9</ele>
        <time>2023-08-24T08:30:43.954Z</time>
      </trkpt>
      <trkpt lat="43.66241" lon="1.45517">
        <ele>131.84</ele>
        <time>2023-08-24T08:30:44.998Z</time>
      </trkpt>
      <trkpt lat="43.66239" lon="1.45525">
        <ele>131.9</ele>
        <time>2023-08-24T08:30:46.325Z</time>
      </trkpt>
      <trkpt lat="43.66237" lon="1.45533">
        <ele>132.06</ele>
        <time>2023-08-24T08:30:46.464Z</time>
      </trkpt>
      <trkpt lat="43.66235" lon="1.45541">
        <ele>132.17</ele>
        <time>2023-08-24T08:30:47.485Z</time>
      </trkpt>
      <trkpt lat="43.66233" lon="1.45549">
        <ele>132.18</ele>
        <time>2023-08-24T08:30:48.483Z</time>
      </trkpt>
      <trkpt lat="43.66231" lon="1.45557">
        <ele>132.19</ele>
        <time>2023-08-24T08:30:49.463Z</time>
      </trkpt>
      <trkpt lat="43.66228" lon="1.45565">
        <ele>132.17</ele>
        <time>2023-08-24T08:30:50.480Z</time>
      </trkpt>
      <trkpt lat="43.66226" lon="1.45573">
        <ele>132.20999</ele>
        <time>2023-08-24T08:30:52.429Z</time>
      </trkpt>
      <trkpt lat="43.66224" lon="1.45579">
        <ele>132.28</ele>
        <time>2023-08-24T08:30:53.300Z</time>
      </trkpt>
      <trkpt lat="43.66221" lon="1.45589">
        <ele>132.31</ele>
        <time>2023-08-24T08:30:54.445Z</time>
      </trkpt>
      <trkpt lat="43.66219" lon="1.45596">
        <ele>132.35</ele>
        <time>2023-08-24T08:30:55.215Z</time>
      </trkpt>
      <trkpt lat="43.66217" lon="1.45604">
        <ele>132.34</ele>
        <time>2023-08-24T08:30:56.468Z</time>
      </trkpt>
      <trkpt lat="43.66215" lon="1.45611">
        <ele>132.33</ele>
        <time>2023-08-24T08:30:57.002Z</time>
      </trkpt>
      <trkpt lat="43.66212" lon="1.4562">
        <ele>132.22</ele>
        <time>2023-08-24T08:30:57.988Z</time>
      </trkpt>
      <trkpt lat="43.66209" lon="1.45627">
        <ele>132.13</ele>
        <time>2023-08-24T08:30:59.451Z</time>
      </trkpt>
      <trkpt lat="43.66204" lon="1.45631">
        <ele>132.2</ele>
        <time>2023-08-24T08:31:00.011Z</time>
      </trkpt>
      <trkpt lat="43.66198" lon="1.45632">
        <ele>132.28</ele>
        <time>2023-08-24T08:31:01.462Z</time>
      </trkpt>
      <trkpt lat="43.66193" lon="1.4563">
        <ele>132.41</ele>
        <time>2023-08-24T08:31:02.338Z</time>
      </trkpt>
      <trkpt lat="43.66188" lon="1.45624">
        <ele>132.52</ele>
        <time>2023-08-24T08:31:03.486Z</time>
      </trkpt>
      <trkpt lat="43.66183" lon="1.45618">
        <ele>132.61</ele>
        <time>2023-08-24T08:31:04.484Z</time>
      </trkpt>
      <trkpt lat="43.66178" lon="1.45611">
        <ele>132.57</ele>
        <time>2023-08-24T08:31:05.421Z</time>
      </trkpt>
      <trkpt lat="43.66174" lon="1.45605">
        <ele>132.65</ele>
        <time>2023-08-24T08:31:06.030Z</time>
      </trkpt>
      <trkpt lat="43.66171" lon="1.45598">
        <ele>132.78</ele>
        <time>2023-08-24T08:31:07.021Z</time>
      </trkpt>
      <trkpt lat="43.66167" lon="1.45593">
        <ele>132.86</ele>
        <time>2023-08-24T08:31:08.461Z</time>
      </trkpt>
      <trkpt lat="43.66164" lon="1.45588">
        <ele>132.95</ele>
        <time>2023-08-24T08:31:09.491Z</time>
      </trkpt>
      <trkpt lat="43.6616" lon="1.45584">
        <ele>132.94</ele>
        <time>2023-08-24T08:31:10.051Z</time>
      </trkpt>
      <trkpt lat="43.66158" lon="1.45582">
        <ele>132.95999</ele>
        <time>2023-08-24T08:31:11.057Z</time>
      </trkpt>
      <trkpt lat="43.66154" lon="1.45579">
        <ele>132.92</ele>
        <time>2023-08-24T08:31:12.490Z</time>
      </trkpt>
      <trkpt lat="43.66149" lon="1.45575">
        <ele>132.9</ele>
        <time>2023-08-24T08:31:13.423Z</time>
      </trkpt>
      <trkpt lat="43.66145" lon="1.45571">
        <ele>132.91</ele>
        <time>2023-08-24T08:31:13.552Z</time>
      </trkpt>
      <trkpt lat="43.6614" lon="1.45567">
        <ele>132.97</ele>
        <time>2023-08-24T08:31:15.450Z</time>
      </trkpt>
      <trkpt lat="43.66136" lon="1.45564">
        <ele>132.89</ele>
        <time>2023-08-24T08:31:16.058Z</time>
      </trkpt>
      <trkpt lat="43.66133" lon="1.45562">
        <ele>132.81</ele>
        <time>2023-08-24T08:31:17.466Z</time>
      </trkpt>
      <trkpt lat="43.66131" lon="1.4556">
        <ele>132.68</ele>
        <time>2023-08-24T08:31:18.474Z</time>
      </trkpt>
      <trkpt lat="43.66126" lon="1.45556">
        <ele>132.64</ele>
        <time>2023-08-24T08:31:19.044Z</time>
      </trkpt>
      <trkpt lat="43.66121" lon="1.45552">
        <ele>132.42</ele>
        <time>2023-08-24T08:31:20.496Z</time>
      </trkpt>
      <trkpt lat="43.66116" lon="1.45548">
        <ele>132.29001</ele>
        <time>2023-08-24T08:31:21.462Z</time>
      </trkpt>
      <trkpt lat="43.66112" lon="1.45545">
        <ele>132.26</ele>
        <time>2023-08-24T08:31:22.389Z</time>
      </trkpt>
      <trkpt lat="43.66106" lon="1.45541">
        <ele>132.17</ele>
        <time>2023-08-24T08:31:23.432Z</time>
      </trkpt>
      <trkpt lat="43.66102" lon="1.45539">
        <ele>132.15</ele>
        <time>2023-08-24T08:31:24.397Z</time>
      </trkpt>
      <trkpt lat="43.66097" lon="1.45535">
        <ele>132.14</ele>
        <time>2023-08-24T08:31:25.383Z</time>
      </trkpt>
      <trkpt lat="43.66091" lon="1.45533">
        <ele>132.13</ele>
        <time>2023-08-24T08:31:26.461Z</time>
      </trkpt>
      <trkpt lat="43.66087" lon="1.45531">
        <ele>132.05</ele>
        <time>2023-08-24T08:31:27.440Z</time>
      </trkpt>
      <trkpt lat="43.66082" lon="1.45532">
        <ele>132</ele>
        <time>2023-08-24T08:31:28.442Z</time>
      </trkpt>
      <trkpt lat="43.66077" lon="1.45533">
        <ele>131.95</ele>
        <time>2023-08-24T08:31:29.400Z</time>
      </trkpt>
      <trkpt lat="43.66073" lon="1.45534">
        <ele>131.92</ele>
        <time>2023-08-24T08:31:30.460Z</time>
      </trkpt>
      <trkpt lat="43.66069" lon="1.45533">
        <ele>131.87</ele>
        <time>2023-08-24T08:31:31.410Z</time>
      </trkpt>
      <trkpt lat="43.66064" lon="1.45532">
        <ele>131.81</ele>
        <time>2023-08-24T08:31:32.469Z</time>
      </trkpt>
      <trkpt lat="43.6606" lon="1.4553">
        <ele>131.74</ele>
        <time>2023-08-24T08:31:33.486Z</time>
      </trkpt>
      <trkpt lat="43.66055" lon="1.45527">
        <ele>131.69</ele>
        <time>2023-08-24T08:31:34.435Z</time>
      </trkpt>
      <trkpt lat="43.66052" lon="1.45526">
        <ele>131.72</ele>
        <time>2023-08-24T08:31:35.503Z</time>
      </trkpt>
      <trkpt lat="43.66044" lon="1.45521">
        <ele>131.62</ele>
        <time>2023-08-24T08:31:36.418Z</time>
      </trkpt>
      <trkpt lat="43.66039" lon="1.45517">
        <ele>131.54001</ele>
        <time>2023-08-24T08:31:37.427Z</time>
      </trkpt>
      <trkpt lat="43.66034" lon="1.45513">
        <ele>131.48</ele>
        <time>2023-08-24T08:31:38.504Z</time>
      </trkpt>
      <trkpt lat="43.66029" lon="1.45508">
        <ele>131.42</ele>
        <time>2023-08-24T08:31:39.322Z</time>
      </trkpt>
      <trkpt lat="43.66023" lon="1.45502">
        <ele>131.37</ele>
        <time>2023-08-24T08:31:40.469Z</time>
      </trkpt>
      <trkpt lat="43.66018" lon="1.45497">
        <ele>131.41</ele>
        <time>2023-08-24T08:31:41.368Z</time>
      </trkpt>
      <trkpt lat="43.66013" lon="1.45493">
        <ele>131.57</ele>
        <time>2023-08-24T08:31:42.374Z</time>
      </trkpt>
      <trkpt lat="43.66008" lon="1.45489">
        <ele>131.53</ele>
        <time>2023-08-24T08:31:43.496Z</time>
      </trkpt>
      <trkpt lat="43.66002" lon="1.45485">
        <ele>131.52</ele>
        <time>2023-08-24T08:31:44.304Z</time>
      </trkpt>
      <trkpt lat="43.65996" lon="1.45482">
        <ele>131.48</ele>
        <time>2023-08-24T08:31:45.479Z</time>
      </trkpt>
      <trkpt lat="43.6599" lon="1.4548">
        <ele>131.59</ele>
        <time>2023-08-24T08:31:46.519Z</time>
      </trkpt>
      <trkpt lat="43.65984" lon="1.45477">
        <ele>131.67</ele>
        <time>2023-08-24T08:31:47.451Z</time>
      </trkpt>
      <trkpt lat="43.65979" lon="1.45473">
        <ele>131.87</ele>
        <time>2023-08-24T08:31:48.441Z</time>
      </trkpt>
      <trkpt lat="43.65975" lon="1.45467">
        <ele>132.15</ele>
        <time>2023-08-24T08:31:49.404Z</time>
      </trkpt>
      <trkpt lat="43.65973" lon="1.45465">
        <ele>132.42</ele>
        <time>2023-08-24T08:31:50.386Z</time>
      </trkpt>
      <trkpt lat="43.65965" lon="1.45456">
        <ele>132.65</ele>
        <time>2023-08-24T08:31:51.398Z</time>
      </trkpt>
      <trkpt lat="43.6596" lon="1.45453">
        <ele>132.8</ele>
        <time>2023-08-24T08:31:52.417Z</time>
      </trkpt>
      <trkpt lat="43.65953" lon="1.45453">
        <ele>132.81</ele>
        <time>2023-08-24T08:31:53.520Z</time>
      </trkpt>
      <trkpt lat="43.65947" lon="1.45454">
        <ele>132.93</ele>
        <time>2023-08-24T08:31:53.528Z</time>
      </trkpt>
      <trkpt lat="43.65941" lon="1.45456">
        <ele>132.86</ele>
        <time>2023-08-24T08:31:55.521Z</time>
      </trkpt>
      <trkpt lat="43.65935" lon="1.4546">
        <ele>132.87</ele>
        <time>2023-08-24T08:31:55.531Z</time>
      </trkpt>
      <trkpt lat="43.65929" lon="1.45465">
        <ele>132.95999</ele>
        <time>2023-08-24T08:31:57.488Z</time>
      </trkpt>
      <trkpt lat="43.65923" lon="1.45468">
        <ele>133.06</ele>
        <time>2023-08-24T08:31:58.228Z</time>
      </trkpt>
      <trkpt lat="43.65917" lon="1.4547">
        <ele>133.13</ele>
        <time>2023-08-24T08:31:59.518Z</time>
      </trkpt>
      <trkpt lat="43.65911" lon="1.45471">
        <ele>133.14</ele>
        <time>2023-08-24T08:31:59.604Z</time>
      </trkpt>
      <trkpt lat="43.65907" lon="1.45471">
        <ele>133.31</ele>
        <time>2023-08-24T08:32:01.466Z</time>
      </trkpt>
      <trkpt lat="43.65898" lon="1.45472">
        <ele>133.42</ele>
        <time>2023-08-24T08:32:02.517Z</time>
      </trkpt>
      <trkpt lat="43.65892" lon="1.45473">
        <ele>133.52</ele>
        <time>2023-08-24T08:32:03.518Z</time>
      </trkpt>
      <trkpt lat="43.65886" lon="1.45473">
        <ele>133.57</ele>
        <time>2023-08-24T08:32:04.521Z</time>
      </trkpt>
      <trkpt lat="43.65879" lon="1.45474">
        <ele>133.55</ele>
        <time>2023-08-24T08:32:05.517Z</time>
      </trkpt>
      <trkpt lat="43.65872" lon="1.45475">
        <ele>133.56</ele>
        <time>2023-08-24T08:32:06.446Z</time>
      </trkpt>
      <trkpt lat="43.65866" lon="1.45477">
        <ele>133.61</ele>
        <time>2023-08-24T08:32:07.433Z</time>
      </trkpt>
      <trkpt lat="43.65859" lon="1.45478">
        <ele>133.61</ele>
        <time>2023-08-24T08:32:08.428Z</time>
      </trkpt>
      <trkpt lat="43.65852" lon="1.4548">
        <ele>133.77</ele>
        <time>2023-08-24T08:32:09.466Z</time>
      </trkpt>
      <trkpt lat="43.65845" lon="1.45482">
        <ele>133.88</ele>
        <time>2023-08-24T08:32:10.492Z</time>
      </trkpt>
      <trkpt lat="43.65839" lon="1.45484">
        <ele>134</ele>
        <time>2023-08-24T08:32:11.476Z</time>
      </trkpt>
      <trkpt lat="43.65833" lon="1.45486">
        <ele>134.03</ele>
        <time>2023-08-24T08:32:12.505Z</time>
      </trkpt>
      <trkpt lat="43.65826" lon="1.45488">
        <ele>133.93</ele>
        <time>2023-08-24T08:32:13.517Z</time>
      </trkpt>
      <trkpt lat="43.65821" lon="1.4549">
        <ele>133.91</ele>
        <time>2023-08-24T08:32:14.456Z</time>
      </trkpt>
      <trkpt lat="43.65814" lon="1.45492">
        <ele>134.1</ele>
        <time>2023-08-24T08:32:15.299Z</time>
      </trkpt>
      <trkpt lat="43.6581" lon="1.45492">
        <ele>134.11</ele>
        <time>2023-08-24T08:32:16.457Z</time>
      </trkpt>
      <trkpt lat="43.65802" lon="1.45493">
        <ele>134.11</ele>
        <time>2023-08-24T08:32:17.416Z</time>
      </trkpt>
      <trkpt lat="43.65797" lon="1.45492">
        <ele>134.20999</ele>
        <time>2023-08-24T08:32:18.459Z</time>
      </trkpt>
      <trkpt lat="43.65792" lon="1.45491">
        <ele>134.32</ele>
        <time>2023-08-24T08:32:19.517Z</time>
      </trkpt>
      <trkpt lat="43.65785" lon="1.45488">
        <ele>134.41</ele>
        <time>2023-08-24T08:32:20.345Z</time>
      </trkpt>
      <trkpt lat="43.65779" lon="1.45486">
        <ele>134.41</ele>
        <time>2023-08-24T08:32:21.454Z</time>
      </trkpt>
      <trkpt lat="43.65773" lon="1.45485">
        <ele>134.41</ele>
        <time>2023-08-24T08:32:22.531Z</time>
      </trkpt>
      <trkpt lat="43.65767" lon="1.45484">
        <ele>134.49</ele>
        <time>2023-08-24T08:32:23.520Z</time>
      </trkpt>
      <trkpt lat="43.6576" lon="1.45483">
        <ele>134.61</ele>
        <time>2023-08-24T08:32:24.424Z</time>
      </trkpt>
      <trkpt lat="43.65755" lon="1.45483">
        <ele>134.70999</ele>
        <time>2023-08-24T08:32:25.516Z</time>
      </trkpt>
      <trkpt lat="43.65747" lon="1.45481">
        <ele>134.81</ele>
        <time>2023-08-24T08:32:26.518Z</time>
      </trkpt>
      <trkpt lat="43.65741" lon="1.4548">
        <ele>134.84</ele>
        <time>2023-08-24T08:32:27.514Z</time>
      </trkpt>
      <trkpt lat="43.65735" lon="1.45478">
        <ele>134.89</ele>
        <time>2023-08-24T08:32:28.516Z</time>
      </trkpt>
      <trkpt lat="43.65728" lon="1.45475">
        <ele>134.88</ele>
        <time>2023-08-24T08:32:29.437Z</time>
      </trkpt>
      <trkpt lat="43.65722" lon="1.45473">
        <ele>134.86</ele>
        <time>2023-08-24T08:32:30.518Z</time>
      </trkpt>
      <trkpt lat="43.65715" lon="1.4547">
        <ele>134.73</ele>
        <time>2023-08-24T08:32:31.530Z</time>
      </trkpt>
      <trkpt lat="43.65708" lon="1.45467">
        <ele>134.64</ele>
        <time>2023-08-24T08:32:32.515Z</time>
      </trkpt>
      <trkpt lat="43.65702" lon="1.45464">
        <ele>134.61</ele>
        <time>2023-08-24T08:32:33.539Z</time>
      </trkpt>
      <trkpt lat="43.65699" lon="1.45463">
        <ele>134.51</ele>
        <time>2023-08-24T08:32:34.514Z</time>
      </trkpt>
      <trkpt lat="43.65688" lon="1.45459">
        <ele>134.43</ele>
        <time>2023-08-24T08:32:35.523Z</time>
      </trkpt>
      <trkpt lat="43.65682" lon="1.45456">
        <ele>134.28</ele>
        <time>2023-08-24T08:32:36.515Z</time>
      </trkpt>
      <trkpt lat="43.65676" lon="1.45454">
        <ele>134.2</ele>
        <time>2023-08-24T08:32:37.481Z</time>
      </trkpt>
      <trkpt lat="43.6567" lon="1.45451">
        <ele>134.20999</ele>
        <time>2023-08-24T08:32:38.454Z</time>
      </trkpt>
      <trkpt lat="43.65662" lon="1.45449">
        <ele>134.29001</ele>
        <time>2023-08-24T08:32:39.513Z</time>
      </trkpt>
      <trkpt lat="43.65656" lon="1.45446">
        <ele>134.29001</ele>
        <time>2023-08-24T08:32:40.513Z</time>
      </trkpt>
      <trkpt lat="43.6565" lon="1.45443">
        <ele>134.15</ele>
        <time>2023-08-24T08:32:41.551Z</time>
      </trkpt>
      <trkpt lat="43.65644" lon="1.45441">
        <ele>134.1</ele>
        <time>2023-08-24T08:32:42.537Z</time>
      </trkpt>
      <trkpt lat="43.65637" lon="1.45438">
        <ele>134.07</ele>
        <time>2023-08-24T08:32:43.556Z</time>
      </trkpt>
      <trkpt lat="43.65635" lon="1.45437">
        <ele>134.03</ele>
        <time>2023-08-24T08:32:44.550Z</time>
      </trkpt>
      <trkpt lat="43.65625" lon="1.45432">
        <ele>134.08</ele>
        <time>2023-08-24T08:32:45.515Z</time>
      </trkpt>
      <trkpt lat="43.65619" lon="1.45429">
        <ele>134.04001</ele>
        <time>2023-08-24T08:32:46.559Z</time>
      </trkpt>
      <trkpt lat="43.65613" lon="1.45427">
        <ele>133.95</ele>
        <time>2023-08-24T08:32:47.518Z</time>
      </trkpt>
      <trkpt lat="43.65606" lon="1.45424">
        <ele>133.79001</ele>
        <time>2023-08-24T08:32:48.478Z</time>
      </trkpt>
      <trkpt lat="43.656" lon="1.45422">
        <ele>133.67</ele>
        <time>2023-08-24T08:32:49.570Z</time>
      </trkpt>
      <trkpt lat="43.65594" lon="1.45419">
        <ele>133.59</ele>
        <time>2023-08-24T08:32:50.514Z</time>
      </trkpt>
      <trkpt lat="43.65588" lon="1.45417">
        <ele>133.53</ele>
        <time>2023-08-24T08:32:51.484Z</time>
      </trkpt>
      <trkpt lat="43.65582" lon="1.45415">
        <ele>133.61</ele>
        <time>2023-08-24T08:32:52.516Z</time>
      </trkpt>
      <trkpt lat="43.65576" lon="1.45413">
        <ele>133.54001</ele>
        <time>2023-08-24T08:32:53.554Z</time>
      </trkpt>
      <trkpt lat="43.65571" lon="1.45411">
        <ele>133.56</ele>
        <time>2023-08-24T08:32:54.553Z</time>
      </trkpt>
      <trkpt lat="43.65564" lon="1.45409">
        <ele>133.62</ele>
        <time>2023-08-24T08:32:55.559Z</time>
      </trkpt>
      <trkpt lat="43.65557" lon="1.45407">
        <ele>133.6</ele>
        <time>2023-08-24T08:32:56.529Z</time>
      </trkpt>
      <trkpt lat="43.65552" lon="1.45405">
        <ele>133.64</ele>
        <time>2023-08-24T08:32:57.328Z</time>
      </trkpt>
      <trkpt lat="43.65546" lon="1.45403">
        <ele>133.74</ele>
        <time>2023-08-24T08:32:58.514Z</time>
      </trkpt>
      <trkpt lat="43.65541" lon="1.45401">
        <ele>133.91</ele>
        <time>2023-08-24T08:32:59.541Z</time>
      </trkpt>
      <trkpt lat="43.65535" lon="1.45399">
        <ele>133.97</ele>
        <time>2023-08-24T08:33:00.514Z</time>
      </trkpt>
      <trkpt lat="43.65528" lon="1.45397">
        <ele>134.05</ele>
        <time>2023-08-24T08:33:01.515Z</time>
      </trkpt>
      <trkpt lat="43.65522" lon="1.45395">
        <ele>134.06</ele>
        <time>2023-08-24T08:33:02.575Z</time>
      </trkpt>
      <trkpt lat="43.65516" lon="1.45393">
        <ele>134.14</ele>
        <time>2023-08-24T08:33:03.514Z</time>
      </trkpt>
      <trkpt lat="43.6551" lon="1.45392">
        <ele>134.16</ele>
        <time>2023-08-24T08:33:04.530Z</time>
      </trkpt>
      <trkpt lat="43.65504" lon="1.4539">
        <ele>134.16</ele>
        <time>2023-08-24T08:33:05.451Z</time>
      </trkpt>
      <trkpt lat="43.65498" lon="1.45388">
        <ele>134.06</ele>
        <time>2023-08-24T08:33:06.515Z</time>
      </trkpt>
      <trkpt lat="43.65492" lon="1.45386">
        <ele>134.04001</ele>
        <time>2023-08-24T08:33:07.564Z</time>
      </trkpt>
      <trkpt lat="43.65487" lon="1.45384">
        <ele>134.12</ele>
        <time>2023-08-24T08:33:08.569Z</time>
      </trkpt>
      <trkpt lat="43.65481" lon="1.45382">
        <ele>134.09</ele>
        <time>2023-08-24T08:33:09.515Z</time>
      </trkpt>
      <trkpt lat="43.65474" lon="1.4538">
        <ele>134.09</ele>
        <time>2023-08-24T08:33:10.590Z</time>
      </trkpt>
      <trkpt lat="43.65468" lon="1.45377">
        <ele>134.1</ele>
        <time>2023-08-24T08:33:11.517Z</time>
      </trkpt>
      <trkpt lat="43.65462" lon="1.45375">
        <ele>134.06</ele>
        <time>2023-08-24T08:33:12.306Z</time>
      </trkpt>
      <trkpt lat="43.65456" lon="1.45373">
        <ele>134.06</ele>
        <time>2023-08-24T08:33:13.515Z</time>
      </trkpt>
      <trkpt lat="43.6545" lon="1.45371">
        <ele>134.05</ele>
        <time>2023-08-24T08:33:14.516Z</time>
      </trkpt>
      <trkpt lat="43.65445" lon="1.45368">
        <ele>134.09</ele>
        <time>2023-08-24T08:33:15.516Z</time>
      </trkpt>
      <trkpt lat="43.65439" lon="1.45363">
        <ele>134.04001</ele>
        <time>2023-08-24T08:33:16.527Z</time>
      </trkpt>
      <trkpt lat="43.65437" lon="1.45361">
        <ele>133.98</ele>
        <time>2023-08-24T08:33:17.516Z</time>
      </trkpt>
      <trkpt lat="43.65429" lon="1.45356">
        <ele>134.09</ele>
        <time>2023-08-24T08:33:18.516Z</time>
      </trkpt>
      <trkpt lat="43.65424" lon="1.45354">
        <ele>134.2</ele>
        <time>2023-08-24T08:33:19.445Z</time>
      </trkpt>
      <trkpt lat="43.65419" lon="1.45353">
        <ele>134.44</ele>
        <time>2023-08-24T08:33:20.532Z</time>
      </trkpt>
      <trkpt lat="43.65414" lon="1.45351">
        <ele>134.65</ele>
        <time>2023-08-24T08:33:21.500Z</time>
      </trkpt>
      <trkpt lat="43.6541" lon="1.45348">
        <ele>134.76</ele>
        <time>2023-08-24T08:33:22.415Z</time>
      </trkpt>
      <trkpt lat="43.65405" lon="1.45342">
        <ele>134.81</ele>
        <time>2023-08-24T08:33:23.516Z</time>
      </trkpt>
      <trkpt lat="43.65401" lon="1.45337">
        <ele>134.89</ele>
        <time>2023-08-24T08:33:24.480Z</time>
      </trkpt>
      <trkpt lat="43.65398" lon="1.45332">
        <ele>134.91</ele>
        <time>2023-08-24T08:33:25.515Z</time>
      </trkpt>
      <trkpt lat="43.65393" lon="1.45326">
        <ele>134.92</ele>
        <time>2023-08-24T08:33:26.615Z</time>
      </trkpt>
      <trkpt lat="43.6539" lon="1.4532">
        <ele>134.92</ele>
        <time>2023-08-24T08:33:27.152Z</time>
      </trkpt>
      <trkpt lat="43.65387" lon="1.45316">
        <ele>134.92</ele>
        <time>2023-08-24T08:33:28.615Z</time>
      </trkpt>
      <trkpt lat="43.65383" lon="1.45311">
        <ele>135</ele>
        <time>2023-08-24T08:33:29.168Z</time>
      </trkpt>
      <trkpt lat="43.6538" lon="1.45307">
        <ele>135.15</ele>
        <time>2023-08-24T08:33:30.150Z</time>
      </trkpt>
      <trkpt lat="43.65376" lon="1.45302">
        <ele>135.19</ele>
        <time>2023-08-24T08:33:31.615Z</time>
      </trkpt>
      <trkpt lat="43.65373" lon="1.45298">
        <ele>135.3</ele>
        <time>2023-08-24T08:33:32.172Z</time>
      </trkpt>
      <trkpt lat="43.65372" lon="1.45295">
        <ele>135.41</ele>
        <time>2023-08-24T08:33:33.197Z</time>
      </trkpt>
      <trkpt lat="43.65371" lon="1.45292">
        <ele>135.37</ele>
        <time>2023-08-24T08:33:34.190Z</time>
      </trkpt>
      <trkpt lat="43.65372" lon="1.45289">
        <ele>135.42</ele>
        <time>2023-08-24T08:33:35.184Z</time>
      </trkpt>
      <trkpt lat="43.65374" lon="1.45283">
        <ele>135.42</ele>
        <time>2023-08-24T08:33:36.193Z</time>
      </trkpt>
      <trkpt lat="43.65378" lon="1.45277">
        <ele>135.36</ele>
        <time>2023-08-24T08:33:37.195Z</time>
      </trkpt>
      <trkpt lat="43.65382" lon="1.45271">
        <ele>135.32</ele>
        <time>2023-08-24T08:33:38.193Z</time>
      </trkpt>
      <trkpt lat="43.65386" lon="1.45264">
        <ele>135.35</ele>
        <time>2023-08-24T08:33:39.186Z</time>
      </trkpt>
      <trkpt lat="43.6539" lon="1.45258">
        <ele>135.34</ele>
        <time>2023-08-24T08:33:40.200Z</time>
      </trkpt>
      <trkpt lat="43.65395" lon="1.45253">
        <ele>135.34</ele>
        <time>2023-08-24T08:33:41.194Z</time>
      </trkpt>
      <trkpt lat="43.654" lon="1.45247">
        <ele>135.3</ele>
        <time>2023-08-24T08:33:42.186Z</time>
      </trkpt>
      <trkpt lat="43.65405" lon="1.45242">
        <ele>135.3</ele>
        <time>2023-08-24T08:33:43.618Z</time>
      </trkpt>
      <trkpt lat="43.65411" lon="1.45238">
        <ele>135.37</ele>
        <time>2023-08-24T08:33:44.212Z</time>
      </trkpt>
      <trkpt lat="43.65416" lon="1.45236">
        <ele>135.34</ele>
        <time>2023-08-24T08:33:45.367Z</time>
      </trkpt>
      <trkpt lat="43.65422" lon="1.45234">
        <ele>135.35</ele>
        <time>2023-08-24T08:33:46.208Z</time>
      </trkpt>
      <trkpt lat="43.6543" lon="1.45232">
        <ele>135.37</ele>
        <time>2023-08-24T08:33:47.210Z</time>
      </trkpt>
      <trkpt lat="43.65435" lon="1.4523">
        <ele>135.33</ele>
        <time>2023-08-24T08:33:48.216Z</time>
      </trkpt>
      <trkpt lat="43.6544" lon="1.45227">
        <ele>135.32</ele>
        <time>2023-08-24T08:33:49.237Z</time>
      </trkpt>
      <trkpt lat="43.65444" lon="1.45225">
        <ele>135.32</ele>
        <time>2023-08-24T08:33:50.221Z</time>
      </trkpt>
      <trkpt lat="43.6545" lon="1.45222">
        <ele>135.41</ele>
        <time>2023-08-24T08:33:51.222Z</time>
      </trkpt>
      <trkpt lat="43.65456" lon="1.45218">
        <ele>135.44</ele>
        <time>2023-08-24T08:33:52.176Z</time>
      </trkpt>
      <trkpt lat="43.65462" lon="1.45213">
        <ele>135.39</ele>
        <time>2023-08-24T08:33:53.235Z</time>
      </trkpt>
      <trkpt lat="43.65467" lon="1.45209">
        <ele>135.43</ele>
        <time>2023-08-24T08:33:54.214Z</time>
      </trkpt>
      <trkpt lat="43.65474" lon="1.45203">
        <ele>135.41</ele>
        <time>2023-08-24T08:33:55.323Z</time>
      </trkpt>
      <trkpt lat="43.6548" lon="1.45197">
        <ele>135.37</ele>
        <time>2023-08-24T08:33:56.228Z</time>
      </trkpt>
      <trkpt lat="43.65488" lon="1.45192">
        <ele>135.36</ele>
        <time>2023-08-24T08:33:57.186Z</time>
      </trkpt>
      <trkpt lat="43.65495" lon="1.45187">
        <ele>135.34</ele>
        <time>2023-08-24T08:33:58.235Z</time>
      </trkpt>
      <trkpt lat="43.65501" lon="1.45184">
        <ele>135.27</ele>
        <time>2023-08-24T08:33:59.201Z</time>
      </trkpt>
      <trkpt lat="43.65507" lon="1.4518">
        <ele>135.25</ele>
        <time>2023-08-24T08:34:00.237Z</time>
      </trkpt>
      <trkpt lat="43.65513" lon="1.45176">
        <ele>135.19</ele>
        <time>2023-08-24T08:34:01.216Z</time>
      </trkpt>
      <trkpt lat="43.65519" lon="1.45172">
        <ele>135.08</ele>
        <time>2023-08-24T08:34:02.209Z</time>
      </trkpt>
      <trkpt lat="43.65524" lon="1.45168">
        <ele>135.04001</ele>
        <time>2023-08-24T08:34:03.626Z</time>
      </trkpt>
      <trkpt lat="43.6553" lon="1.45164">
        <ele>135.07</ele>
        <time>2023-08-24T08:34:04.147Z</time>
      </trkpt>
      <trkpt lat="43.65534" lon="1.45161">
        <ele>135.05</ele>
        <time>2023-08-24T08:34:05.218Z</time>
      </trkpt>
      <trkpt lat="43.65539" lon="1.45158">
        <ele>135.07</ele>
        <time>2023-08-24T08:34:06.621Z</time>
      </trkpt>
      <trkpt lat="43.65544" lon="1.45155">
        <ele>135.11</ele>
        <time>2023-08-24T08:34:07.215Z</time>
      </trkpt>
      <trkpt lat="43.65549" lon="1.45152">
        <ele>135.14</ele>
        <time>2023-08-24T08:34:08.226Z</time>
      </trkpt>
      <trkpt lat="43.65554" lon="1.45148">
        <ele>135.1</ele>
        <time>2023-08-24T08:34:09.216Z</time>
      </trkpt>
      <trkpt lat="43.65559" lon="1.45144">
        <ele>135.1</ele>
        <time>2023-08-24T08:34:10.588Z</time>
      </trkpt>
      <trkpt lat="43.65564" lon="1.45141">
        <ele>135.09</ele>
        <time>2023-08-24T08:34:11.620Z</time>
      </trkpt>
      <trkpt lat="43.6557" lon="1.45137">
        <ele>135.07</ele>
        <time>2023-08-24T08:34:12.618Z</time>
      </trkpt>
      <trkpt lat="43.65575" lon="1.45133">
        <ele>135.04001</ele>
        <time>2023-08-24T08:34:13.664Z</time>
      </trkpt>
      <trkpt lat="43.65579" lon="1.45129">
        <ele>135.05</ele>
        <time>2023-08-24T08:34:14.618Z</time>
      </trkpt>
      <trkpt lat="43.65584" lon="1.45126">
        <ele>135.11</ele>
        <time>2023-08-24T08:34:15.618Z</time>
      </trkpt>
      <trkpt lat="43.65588" lon="1.45124">
        <ele>135.23</ele>
        <time>2023-08-24T08:34:16.619Z</time>
      </trkpt>
      <trkpt lat="43.65593" lon="1.45122">
        <ele>135.28</ele>
        <time>2023-08-24T08:34:17.620Z</time>
      </trkpt>
      <trkpt lat="43.65595" lon="1.45121">
        <ele>135.45999</ele>
        <time>2023-08-24T08:34:18.618Z</time>
      </trkpt>
      <trkpt lat="43.65597" lon="1.45119">
        <ele>135.64</ele>
        <time>2023-08-24T08:34:19.620Z</time>
      </trkpt>
      <trkpt lat="43.65597" lon="1.45115">
        <ele>135.77</ele>
        <time>2023-08-24T08:34:20.256Z</time>
      </trkpt>
      <trkpt lat="43.65596" lon="1.45111">
        <ele>135.9</ele>
        <time>2023-08-24T08:34:21.486Z</time>
      </trkpt>
      <trkpt lat="43.65593" lon="1.45107">
        <ele>135.95999</ele>
        <time>2023-08-24T08:34:22.617Z</time>
      </trkpt>
      <trkpt lat="43.6559" lon="1.45102">
        <ele>136.01</ele>
        <time>2023-08-24T08:34:23.622Z</time>
      </trkpt>
      <trkpt lat="43.6559" lon="1.45103">
        <ele>136.12</ele>
        <time>2023-08-24T08:34:24.618Z</time>
      </trkpt>
      <trkpt lat="43.65586" lon="1.45098">
        <ele>136.17</ele>
        <time>2023-08-24T08:34:26.617Z</time>
      </trkpt>
      <trkpt lat="43.65583" lon="1.45093">
        <ele>136.28</ele>
        <time>2023-08-24T08:34:27.618Z</time>
      </trkpt>
      <trkpt lat="43.6558" lon="1.45089">
        <ele>136.31</ele>
        <time>2023-08-24T08:34:28.604Z</time>
      </trkpt>
      <trkpt lat="43.6557" lon="1.45075">
        <ele>136.37</ele>
        <time>2023-08-24T08:34:30.617Z</time>
      </trkpt>
      <trkpt lat="43.65567" lon="1.45072">
        <ele>136.28</ele>
        <time>2023-08-24T08:34:31.642Z</time>
      </trkpt>
      <trkpt lat="43.65562" lon="1.45064">
        <ele>136.31</ele>
        <time>2023-08-24T08:34:33.622Z</time>
      </trkpt>
      <trkpt lat="43.65557" lon="1.45057">
        <ele>136.45</ele>
        <time>2023-08-24T08:34:35.620Z</time>
      </trkpt>
      <trkpt lat="43.65555" lon="1.45054">
        <ele>136.63</ele>
        <time>2023-08-24T08:34:36.619Z</time>
      </trkpt>
      <trkpt lat="43.65552" lon="1.4505">
        <ele>136.69</ele>
        <time>2023-08-24T08:34:37.650Z</time>
      </trkpt>
      <trkpt lat="43.65548" lon="1.45045">
        <ele>136.69</ele>
        <time>2023-08-24T08:34:38.629Z</time>
      </trkpt>
      <trkpt lat="43.65545" lon="1.4504">
        <ele>136.68</ele>
        <time>2023-08-24T08:34:39.241Z</time>
      </trkpt>
      <trkpt lat="43.65542" lon="1.45035">
        <ele>136.76</ele>
        <time>2023-08-24T08:34:40.573Z</time>
      </trkpt>
      <trkpt lat="43.65539" lon="1.45031">
        <ele>136.83</ele>
        <time>2023-08-24T08:34:42.643Z</time>
      </trkpt>
      <trkpt lat="43.65536" lon="1.45027">
        <ele>136.89</ele>
        <time>2023-08-24T08:34:43.258Z</time>
      </trkpt>
      <trkpt lat="43.65532" lon="1.45022">
        <ele>136.93</ele>
        <time>2023-08-24T08:34:44.618Z</time>
      </trkpt>
      <trkpt lat="43.65529" lon="1.45017">
        <ele>136.89</ele>
        <time>2023-08-24T08:34:45.628Z</time>
      </trkpt>
      <trkpt lat="43.65523" lon="1.45008">
        <ele>136.94</ele>
        <time>2023-08-24T08:34:47.617Z</time>
      </trkpt>
      <trkpt lat="43.6552" lon="1.45004">
        <ele>137</ele>
        <time>2023-08-24T08:34:48.618Z</time>
      </trkpt>
      <trkpt lat="43.65518" lon="1.45">
        <ele>137.06</ele>
        <time>2023-08-24T08:34:49.618Z</time>
      </trkpt>
      <trkpt lat="43.65516" lon="1.44996">
        <ele>137.13</ele>
        <time>2023-08-24T08:34:50.620Z</time>
      </trkpt>
      <trkpt lat="43.65512" lon="1.44991">
        <ele>137.11</ele>
        <time>2023-08-24T08:34:51.620Z</time>
      </trkpt>
      <trkpt lat="43.65508" lon="1.44986">
        <ele>137.14</ele>
        <time>2023-08-24T08:34:52.623Z</time>
      </trkpt>
      <trkpt lat="43.65503" lon="1.44979">
        <ele>137.14</ele>
        <time>2023-08-24T08:34:53.618Z</time>
      </trkpt>
      <trkpt lat="43.65499" lon="1.44973">
        <ele>137.18</ele>
        <time>2023-08-24T08:34:54.621Z</time>
      </trkpt>
      <trkpt lat="43.65495" lon="1.44968">
        <ele>137.19</ele>
        <time>2023-08-24T08:34:55.621Z</time>
      </trkpt>
      <trkpt lat="43.65492" lon="1.44963">
        <ele>137.16</ele>
        <time>2023-08-24T08:34:56.563Z</time>
      </trkpt>
      <trkpt lat="43.65489" lon="1.44958">
        <ele>137.19</ele>
        <time>2023-08-24T08:34:57.577Z</time>
      </trkpt>
      <trkpt lat="43.65486" lon="1.44953">
        <ele>137.18</ele>
        <time>2023-08-24T08:34:58.718Z</time>
      </trkpt>
      <trkpt lat="43.65483" lon="1.44948">
        <ele>137.18</ele>
        <time>2023-08-24T08:34:59.293Z</time>
      </trkpt>
      <trkpt lat="43.6548" lon="1.44942">
        <ele>137.2</ele>
        <time>2023-08-24T08:35:00.660Z</time>
      </trkpt>
      <trkpt lat="43.65477" lon="1.44936">
        <ele>137.18</ele>
        <time>2023-08-24T08:35:01.718Z</time>
      </trkpt>
      <trkpt lat="43.65477" lon="1.4493">
        <ele>137.15</ele>
        <time>2023-08-24T08:35:02.286Z</time>
      </trkpt>
      <trkpt lat="43.65477" lon="1.44923">
        <ele>137.14</ele>
        <time>2023-08-24T08:35:03.278Z</time>
      </trkpt>
      <trkpt lat="43.65479" lon="1.44917">
        <ele>137.1</ele>
        <time>2023-08-24T08:35:04.265Z</time>
      </trkpt>
      <trkpt lat="43.65481" lon="1.4491">
        <ele>137.14</ele>
        <time>2023-08-24T08:35:05.281Z</time>
      </trkpt>
      <trkpt lat="43.65483" lon="1.44904">
        <ele>137.19</ele>
        <time>2023-08-24T08:35:06.284Z</time>
      </trkpt>
      <trkpt lat="43.65486" lon="1.44898">
        <ele>137.20999</ele>
        <time>2023-08-24T08:35:07.496Z</time>
      </trkpt>
      <trkpt lat="43.65489" lon="1.44892">
        <ele>137.2</ele>
        <time>2023-08-24T08:35:08.282Z</time>
      </trkpt>
      <trkpt lat="43.65492" lon="1.44887">
        <ele>137.22</ele>
        <time>2023-08-24T08:35:09.287Z</time>
      </trkpt>
      <trkpt lat="43.65495" lon="1.44881">
        <ele>137.15</ele>
        <time>2023-08-24T08:35:10.295Z</time>
      </trkpt>
      <trkpt lat="43.65498" lon="1.44875">
        <ele>137.04001</ele>
        <time>2023-08-24T08:35:11.305Z</time>
      </trkpt>
      <trkpt lat="43.65501" lon="1.44868">
        <ele>136.99</ele>
        <time>2023-08-24T08:35:12.310Z</time>
      </trkpt>
      <trkpt lat="43.65504" lon="1.44861">
        <ele>136.9</ele>
        <time>2023-08-24T08:35:13.298Z</time>
      </trkpt>
      <trkpt lat="43.65507" lon="1.44855">
        <ele>136.81</ele>
        <time>2023-08-24T08:35:14.290Z</time>
      </trkpt>
      <trkpt lat="43.65509" lon="1.44847">
        <ele>136.73</ele>
        <time>2023-08-24T08:35:15.309Z</time>
      </trkpt>
      <trkpt lat="43.65512" lon="1.44839">
        <ele>136.66</ele>
        <time>2023-08-24T08:35:16.717Z</time>
      </trkpt>
      <trkpt lat="43.65515" lon="1.44832">
        <ele>136.72</ele>
        <time>2023-08-24T08:35:17.719Z</time>
      </trkpt>
      <trkpt lat="43.65518" lon="1.44824">
        <ele>136.63</ele>
        <time>2023-08-24T08:35:18.717Z</time>
      </trkpt>
      <trkpt lat="43.65522" lon="1.44817">
        <ele>136.61</ele>
        <time>2023-08-24T08:35:19.721Z</time>
      </trkpt>
      <trkpt lat="43.65527" lon="1.44812">
        <ele>136.55</ele>
        <time>2023-08-24T08:35:20.409Z</time>
      </trkpt>
      <trkpt lat="43.65532" lon="1.44806">
        <ele>136.56</ele>
        <time>2023-08-24T08:35:21.418Z</time>
      </trkpt>
      <trkpt lat="43.65536" lon="1.44799">
        <ele>136.53</ele>
        <time>2023-08-24T08:35:22.557Z</time>
      </trkpt>
      <trkpt lat="43.6554" lon="1.44792">
        <ele>136.52</ele>
        <time>2023-08-24T08:35:22.796Z</time>
      </trkpt>
      <trkpt lat="43.65544" lon="1.44785">
        <ele>136.5</ele>
        <time>2023-08-24T08:35:24.718Z</time>
      </trkpt>
      <trkpt lat="43.65548" lon="1.44778">
        <ele>136.49</ele>
        <time>2023-08-24T08:35:25.720Z</time>
      </trkpt>
      <trkpt lat="43.65551" lon="1.44771">
        <ele>136.45</ele>
        <time>2023-08-24T08:35:26.717Z</time>
      </trkpt>
      <trkpt lat="43.65555" lon="1.44763">
        <ele>136.42</ele>
        <time>2023-08-24T08:35:26.816Z</time>
      </trkpt>
      <trkpt lat="43.65559" lon="1.44756">
        <ele>136.39</ele>
        <time>2023-08-24T08:35:27.809Z</time>
      </trkpt>
      <trkpt lat="43.65562" lon="1.44748">
        <ele>136.37</ele>
        <time>2023-08-24T08:35:29.717Z</time>
      </trkpt>
      <trkpt lat="43.65566" lon="1.44741">
        <ele>136.38</ele>
        <time>2023-08-24T08:35:30.719Z</time>
      </trkpt>
      <trkpt lat="43.65569" lon="1.44735">
        <ele>136.38</ele>
        <time>2023-08-24T08:35:31.723Z</time>
      </trkpt>
      <trkpt lat="43.65573" lon="1.44728">
        <ele>136.35</ele>
        <time>2023-08-24T08:35:32.719Z</time>
      </trkpt>
      <trkpt lat="43.65576" lon="1.44722">
        <ele>136.31</ele>
        <time>2023-08-24T08:35:32.784Z</time>
      </trkpt>
      <trkpt lat="43.65579" lon="1.44716">
        <ele>136.28</ele>
        <time>2023-08-24T08:35:34.719Z</time>
      </trkpt>
      <trkpt lat="43.65585" lon="1.44704">
        <ele>136.28</ele>
        <time>2023-08-24T08:35:35.720Z</time>
      </trkpt>
      <trkpt lat="43.65588" lon="1.44698">
        <ele>136.31</ele>
        <time>2023-08-24T08:35:37.720Z</time>
      </trkpt>
      <trkpt lat="43.65591" lon="1.44692">
        <ele>136.25</ele>
        <time>2023-08-24T08:35:38.719Z</time>
      </trkpt>
      <trkpt lat="43.65594" lon="1.44686">
        <ele>136.28</ele>
        <time>2023-08-24T08:35:39.730Z</time>
      </trkpt>
      <trkpt lat="43.65596" lon="1.44681">
        <ele>136.33</ele>
        <time>2023-08-24T08:35:40.718Z</time>
      </trkpt>
      <trkpt lat="43.65599" lon="1.44676">
        <ele>136.36</ele>
        <time>2023-08-24T08:35:41.719Z</time>
      </trkpt>
      <trkpt lat="43.65602" lon="1.4467">
        <ele>136.35</ele>
        <time>2023-08-24T08:35:42.721Z</time>
      </trkpt>
      <trkpt lat="43.65604" lon="1.44665">
        <ele>136.33</ele>
        <time>2023-08-24T08:35:42.772Z</time>
        <extensions>
          <visugpx:TrkExtension xmlns:visugpx="https://www.visugpx.com/editgpx/">
            <visugpx:node>1</visugpx:node>
            </visugpx:TrkExtension>
        </extensions>
      </trkpt>
    </trkseg>
  </trk>
</gpx>